<?xml version="1.0" encoding="UTF-8" standalone="no" ?>
<gpx xmlns="http://www.topografix.com/GPX/1/1" xmlns:xsi="http://www.w3.org/2001/XMLSchema-instance" xsi:schemaLocation="http://www.topografix.com/GPX/1/1 http://www.topografix.com/GPX/1/1/gpx.xsd" version="1.1" creator="VisuGPX - https://www.visugpx.com">
  <metadata>
    <name>Ballade tour de farge</name>
  </metadata>
  <trk>
    <name><![CDATA[Track]]></name>
    <trkseg>
      <trkpt lat="43.67691" lon="4.08527">
        <ele>75.163240311807</ele>
        <time>2020-11-25T13:28:47.999+01:00</time>
      </trkpt>
      <trkpt lat="43.67691" lon="4.08525">
        <ele>75.080459830507</ele>
        <time>2020-11-25T13:28:48.999+01:00</time>
      </trkpt>
      <trkpt lat="43.67691" lon="4.08524">
        <ele>74.998797881814</ele>
        <time>2020-11-25T13:28:49.999+01:00</time>
      </trkpt>
      <trkpt lat="43.67691" lon="4.08523">
        <ele>74.918020628064</ele>
        <time>2020-11-25T13:28:50.999+01:00</time>
      </trkpt>
      <trkpt lat="43.67691" lon="4.08522">
        <ele>74.837489654496</ele>
        <time>2020-11-25T13:28:51.999+01:00</time>
      </trkpt>
      <trkpt lat="43.67692" lon="4.0852">
        <ele>74.757632200748</ele>
        <time>2020-11-25T13:28:52.999+01:00</time>
      </trkpt>
      <trkpt lat="43.67692" lon="4.0852">
        <ele>74.679662838472</ele>
        <time>2020-11-25T13:28:53.999+01:00</time>
      </trkpt>
      <trkpt lat="43.67692" lon="4.08518">
        <ele>74.601764474954</ele>
        <time>2020-11-25T13:28:54.999+01:00</time>
      </trkpt>
      <trkpt lat="43.67693" lon="4.08517">
        <ele>74.523838704091</ele>
        <time>2020-11-25T13:28:55.999+01:00</time>
      </trkpt>
      <trkpt lat="43.67694" lon="4.08517">
        <ele>74.446241880772</ele>
        <time>2020-11-25T13:28:56.999+01:00</time>
      </trkpt>
      <trkpt lat="43.67694" lon="4.08516">
        <ele>74.369098859442</ele>
        <time>2020-11-25T13:28:57.999+01:00</time>
      </trkpt>
      <trkpt lat="43.67696" lon="4.08515">
        <ele>74.292333466246</ele>
        <time>2020-11-25T13:28:58.999+01:00</time>
      </trkpt>
      <trkpt lat="43.67697" lon="4.08513">
        <ele>74.21622865219</ele>
        <time>2020-11-25T13:28:59.999+01:00</time>
      </trkpt>
      <trkpt lat="43.67698" lon="4.08512">
        <ele>74.14107983163</ele>
        <time>2020-11-25T13:29:00.999+01:00</time>
      </trkpt>
      <trkpt lat="43.67699" lon="4.0851">
        <ele>74.067662784763</ele>
        <time>2020-11-25T13:29:01.999+01:00</time>
      </trkpt>
      <trkpt lat="43.67701" lon="4.08509">
        <ele>73.996331010782</ele>
        <time>2020-11-25T13:29:02.999+01:00</time>
      </trkpt>
      <trkpt lat="43.67702" lon="4.08507">
        <ele>73.927134540879</ele>
        <time>2020-11-25T13:29:03.999+01:00</time>
      </trkpt>
      <trkpt lat="43.67704" lon="4.08505">
        <ele>73.8604231234</ele>
        <time>2020-11-25T13:29:04.999+01:00</time>
      </trkpt>
      <trkpt lat="43.67704" lon="4.08504">
        <ele>73.795961967119</ele>
        <time>2020-11-25T13:29:05.999+01:00</time>
      </trkpt>
      <trkpt lat="43.67705" lon="4.08504">
        <ele>73.733522027328</ele>
        <time>2020-11-25T13:29:06.999+01:00</time>
      </trkpt>
      <trkpt lat="43.67706" lon="4.08503">
        <ele>73.67273734204</ele>
        <time>2020-11-25T13:29:07.999+01:00</time>
      </trkpt>
      <trkpt lat="43.67707" lon="4.08502">
        <ele>73.614256576678</ele>
        <time>2020-11-25T13:29:08.999+01:00</time>
      </trkpt>
      <trkpt lat="43.67707" lon="4.08501">
        <ele>73.557953146796</ele>
        <time>2020-11-25T13:29:09.999+01:00</time>
      </trkpt>
      <trkpt lat="43.67708" lon="4.08501">
        <ele>73.503653537339</ele>
        <time>2020-11-25T13:29:10.999+01:00</time>
      </trkpt>
      <trkpt lat="43.67709" lon="4.08501">
        <ele>73.451809930973</ele>
        <time>2020-11-25T13:29:11.999+01:00</time>
      </trkpt>
      <trkpt lat="43.67709" lon="4.085">
        <ele>73.402519284664</ele>
        <time>2020-11-25T13:29:12.999+01:00</time>
      </trkpt>
      <trkpt lat="43.6771" lon="4.08499">
        <ele>73.356376474038</ele>
        <time>2020-11-25T13:29:13.999+01:00</time>
      </trkpt>
      <trkpt lat="43.67711" lon="4.08498">
        <ele>73.312083652551</ele>
        <time>2020-11-25T13:29:14.999+01:00</time>
      </trkpt>
      <trkpt lat="43.67712" lon="4.08496">
        <ele>73.269329893575</ele>
        <time>2020-11-25T13:29:15.999+01:00</time>
      </trkpt>
      <trkpt lat="43.67714" lon="4.08492">
        <ele>73.227737591384</ele>
        <time>2020-11-25T13:29:16.999+01:00</time>
      </trkpt>
      <trkpt lat="43.67714" lon="4.08488">
        <ele>73.186716604788</ele>
        <time>2020-11-25T13:29:17.999+01:00</time>
      </trkpt>
      <trkpt lat="43.67715" lon="4.08485">
        <ele>73.146168005152</ele>
        <time>2020-11-25T13:29:18.999+01:00</time>
      </trkpt>
      <trkpt lat="43.67716" lon="4.08482">
        <ele>73.106144216991</ele>
        <time>2020-11-25T13:29:19.999+01:00</time>
      </trkpt>
      <trkpt lat="43.67716" lon="4.08481">
        <ele>73.067690311717</ele>
        <time>2020-11-25T13:29:20.999+01:00</time>
      </trkpt>
      <trkpt lat="43.67716" lon="4.08479">
        <ele>73.029900084277</ele>
        <time>2020-11-25T13:29:21.999+01:00</time>
      </trkpt>
      <trkpt lat="43.67716" lon="4.08478">
        <ele>72.992824572576</ele>
        <time>2020-11-25T13:29:22.999+01:00</time>
      </trkpt>
      <trkpt lat="43.67716" lon="4.08476">
        <ele>72.954964024018</ele>
        <time>2020-11-25T13:29:23.999+01:00</time>
      </trkpt>
      <trkpt lat="43.67717" lon="4.08475">
        <ele>72.916410205644</ele>
        <time>2020-11-25T13:29:24.999+01:00</time>
      </trkpt>
      <trkpt lat="43.67719" lon="4.08474">
        <ele>72.877981339542</ele>
        <time>2020-11-25T13:29:25.999+01:00</time>
      </trkpt>
      <trkpt lat="43.6772" lon="4.08473">
        <ele>72.839704298427</ele>
        <time>2020-11-25T13:29:26.999+01:00</time>
      </trkpt>
      <trkpt lat="43.67721" lon="4.08472">
        <ele>72.801417514669</ele>
        <time>2020-11-25T13:29:27.999+01:00</time>
      </trkpt>
      <trkpt lat="43.67722" lon="4.08472">
        <ele>72.762817510898</ele>
        <time>2020-11-25T13:29:28.999+01:00</time>
      </trkpt>
      <trkpt lat="43.67723" lon="4.08471">
        <ele>72.724389857847</ele>
        <time>2020-11-25T13:29:29.999+01:00</time>
      </trkpt>
      <trkpt lat="43.67724" lon="4.0847">
        <ele>72.685619066386</ele>
        <time>2020-11-25T13:29:30.999+01:00</time>
      </trkpt>
      <trkpt lat="43.67724" lon="4.08469">
        <ele>72.64623296125</ele>
        <time>2020-11-25T13:29:31.999+01:00</time>
      </trkpt>
      <trkpt lat="43.67726" lon="4.08468">
        <ele>72.606376988653</ele>
        <time>2020-11-25T13:29:32.999+01:00</time>
      </trkpt>
      <trkpt lat="43.67727" lon="4.08468">
        <ele>72.566108483572</ele>
        <time>2020-11-25T13:29:33.999+01:00</time>
      </trkpt>
      <trkpt lat="43.67729" lon="4.08466">
        <ele>72.52539897107</ele>
        <time>2020-11-25T13:29:34.999+01:00</time>
      </trkpt>
      <trkpt lat="43.6773" lon="4.08465">
        <ele>72.484408115079</ele>
        <time>2020-11-25T13:29:35.999+01:00</time>
      </trkpt>
      <trkpt lat="43.67731" lon="4.08464">
        <ele>72.444035411507</ele>
        <time>2020-11-25T13:29:36.999+01:00</time>
      </trkpt>
      <trkpt lat="43.67733" lon="4.08462">
        <ele>72.404108144563</ele>
        <time>2020-11-25T13:29:37.999+01:00</time>
      </trkpt>
      <trkpt lat="43.67734" lon="4.08461">
        <ele>72.364784326687</ele>
        <time>2020-11-25T13:29:38.999+01:00</time>
      </trkpt>
      <trkpt lat="43.67735" lon="4.0846">
        <ele>72.325038050329</ele>
        <time>2020-11-25T13:29:39.999+01:00</time>
      </trkpt>
      <trkpt lat="43.67736" lon="4.08459">
        <ele>72.285048826865</ele>
        <time>2020-11-25T13:29:40.999+01:00</time>
      </trkpt>
      <trkpt lat="43.67737" lon="4.08458">
        <ele>72.245281406082</ele>
        <time>2020-11-25T13:29:41.999+01:00</time>
      </trkpt>
      <trkpt lat="43.67738" lon="4.08457">
        <ele>72.205689133275</ele>
        <time>2020-11-25T13:29:42.999+01:00</time>
      </trkpt>
      <trkpt lat="43.6774" lon="4.08456">
        <ele>72.166210051259</ele>
        <time>2020-11-25T13:29:43.999+01:00</time>
      </trkpt>
      <trkpt lat="43.67741" lon="4.08454">
        <ele>72.127263626573</ele>
        <time>2020-11-25T13:29:44.999+01:00</time>
      </trkpt>
      <trkpt lat="43.67742" lon="4.08453">
        <ele>72.088324552738</ele>
        <time>2020-11-25T13:29:45.999+01:00</time>
      </trkpt>
      <trkpt lat="43.67743" lon="4.08452">
        <ele>72.049849196177</ele>
        <time>2020-11-25T13:29:46.999+01:00</time>
      </trkpt>
      <trkpt lat="43.67744" lon="4.08451">
        <ele>72.011954557249</ele>
        <time>2020-11-25T13:29:47.999+01:00</time>
      </trkpt>
      <trkpt lat="43.67745" lon="4.0845">
        <ele>71.974177237127</ele>
        <time>2020-11-25T13:29:48.999+01:00</time>
      </trkpt>
      <trkpt lat="43.67746" lon="4.0845">
        <ele>71.936832216801</ele>
        <time>2020-11-25T13:29:49.999+01:00</time>
      </trkpt>
      <trkpt lat="43.67747" lon="4.08449">
        <ele>71.899783988141</ele>
        <time>2020-11-25T13:29:50.999+01:00</time>
      </trkpt>
      <trkpt lat="43.67748" lon="4.08449">
        <ele>71.862853766179</ele>
        <time>2020-11-25T13:29:51.999+01:00</time>
      </trkpt>
      <trkpt lat="43.67748" lon="4.08449">
        <ele>71.826125442423</ele>
        <time>2020-11-25T13:29:52.999+01:00</time>
      </trkpt>
      <trkpt lat="43.67749" lon="4.08448">
        <ele>71.789869274505</ele>
        <time>2020-11-25T13:29:53.999+01:00</time>
      </trkpt>
      <trkpt lat="43.6775" lon="4.08447">
        <ele>71.753857129764</ele>
        <time>2020-11-25T13:29:54.999+01:00</time>
      </trkpt>
      <trkpt lat="43.67751" lon="4.08446">
        <ele>71.718211673044</ele>
        <time>2020-11-25T13:29:55.999+01:00</time>
      </trkpt>
      <trkpt lat="43.67753" lon="4.08445">
        <ele>71.683160156784</ele>
        <time>2020-11-25T13:29:56.999+01:00</time>
      </trkpt>
      <trkpt lat="43.67754" lon="4.08444">
        <ele>71.648646745638</ele>
        <time>2020-11-25T13:29:57.999+01:00</time>
      </trkpt>
      <trkpt lat="43.67754" lon="4.08444">
        <ele>71.614202812899</ele>
        <time>2020-11-25T13:29:58.999+01:00</time>
      </trkpt>
      <trkpt lat="43.67755" lon="4.08443">
        <ele>71.580415135832</ele>
        <time>2020-11-25T13:29:59.999+01:00</time>
      </trkpt>
      <trkpt lat="43.67756" lon="4.08442">
        <ele>71.547202763402</ele>
        <time>2020-11-25T13:30:00.999+01:00</time>
      </trkpt>
      <trkpt lat="43.67757" lon="4.08442">
        <ele>71.514218558784</ele>
        <time>2020-11-25T13:30:01.999+01:00</time>
      </trkpt>
      <trkpt lat="43.67758" lon="4.08441">
        <ele>71.48162321725</ele>
        <time>2020-11-25T13:30:02.999+01:00</time>
      </trkpt>
      <trkpt lat="43.6776" lon="4.0844">
        <ele>71.449527835542</ele>
        <time>2020-11-25T13:30:03.999+01:00</time>
      </trkpt>
      <trkpt lat="43.67762" lon="4.08439">
        <ele>71.417881545782</ele>
        <time>2020-11-25T13:30:04.999+01:00</time>
      </trkpt>
      <trkpt lat="43.67763" lon="4.08438">
        <ele>71.386563156954</ele>
        <time>2020-11-25T13:30:05.999+01:00</time>
      </trkpt>
      <trkpt lat="43.67764" lon="4.08437">
        <ele>71.355676060211</ele>
        <time>2020-11-25T13:30:06.999+01:00</time>
      </trkpt>
      <trkpt lat="43.67765" lon="4.08436">
        <ele>71.325281708945</ele>
        <time>2020-11-25T13:30:07.999+01:00</time>
      </trkpt>
      <trkpt lat="43.67766" lon="4.08436">
        <ele>71.295115454934</ele>
        <time>2020-11-25T13:30:08.999+01:00</time>
      </trkpt>
      <trkpt lat="43.67768" lon="4.08435">
        <ele>71.264943853305</ele>
        <time>2020-11-25T13:30:09.999+01:00</time>
      </trkpt>
      <trkpt lat="43.67769" lon="4.08435">
        <ele>71.235060531115</ele>
        <time>2020-11-25T13:30:10.999+01:00</time>
      </trkpt>
      <trkpt lat="43.6777" lon="4.08434">
        <ele>71.205719303589</ele>
        <time>2020-11-25T13:30:11.999+01:00</time>
      </trkpt>
      <trkpt lat="43.67772" lon="4.08434">
        <ele>71.176817179778</ele>
        <time>2020-11-25T13:30:12.999+01:00</time>
      </trkpt>
      <trkpt lat="43.67773" lon="4.08433">
        <ele>71.148571069884</ele>
        <time>2020-11-25T13:30:13.999+01:00</time>
      </trkpt>
      <trkpt lat="43.67776" lon="4.08434">
        <ele>71.121031330624</ele>
        <time>2020-11-25T13:30:14.999+01:00</time>
      </trkpt>
      <trkpt lat="43.67778" lon="4.08433">
        <ele>71.094685811207</ele>
        <time>2020-11-25T13:30:15.999+01:00</time>
      </trkpt>
      <trkpt lat="43.67781" lon="4.08433">
        <ele>71.0692957369</ele>
        <time>2020-11-25T13:30:16.999+01:00</time>
      </trkpt>
      <trkpt lat="43.67784" lon="4.08434">
        <ele>71.044795606683</ele>
        <time>2020-11-25T13:30:17.999+01:00</time>
      </trkpt>
      <trkpt lat="43.67786" lon="4.08434">
        <ele>71.021291201646</ele>
        <time>2020-11-25T13:30:18.999+01:00</time>
      </trkpt>
      <trkpt lat="43.67787" lon="4.08436">
        <ele>70.99852253478</ele>
        <time>2020-11-25T13:30:19.999+01:00</time>
      </trkpt>
      <trkpt lat="43.67789" lon="4.08437">
        <ele>70.976317816132</ele>
        <time>2020-11-25T13:30:20.999+01:00</time>
      </trkpt>
      <trkpt lat="43.67789" lon="4.08438">
        <ele>70.954575570922</ele>
        <time>2020-11-25T13:30:21.999+01:00</time>
      </trkpt>
      <trkpt lat="43.6779" lon="4.0844">
        <ele>70.933919460214</ele>
        <time>2020-11-25T13:30:22.999+01:00</time>
      </trkpt>
      <trkpt lat="43.67791" lon="4.08442">
        <ele>70.914335455221</ele>
        <time>2020-11-25T13:30:23.999+01:00</time>
      </trkpt>
      <trkpt lat="43.67792" lon="4.08444">
        <ele>70.895836015479</ele>
        <time>2020-11-25T13:30:24.999+01:00</time>
      </trkpt>
      <trkpt lat="43.67792" lon="4.08445">
        <ele>70.877396358868</ele>
        <time>2020-11-25T13:30:25.999+01:00</time>
      </trkpt>
      <trkpt lat="43.67793" lon="4.08447">
        <ele>70.859018282013</ele>
        <time>2020-11-25T13:30:26.999+01:00</time>
      </trkpt>
      <trkpt lat="43.67794" lon="4.08448">
        <ele>70.840602139069</ele>
        <time>2020-11-25T13:30:27.999+01:00</time>
      </trkpt>
      <trkpt lat="43.67794" lon="4.0845">
        <ele>70.822561397454</ele>
        <time>2020-11-25T13:30:28.999+01:00</time>
      </trkpt>
      <trkpt lat="43.67795" lon="4.08452">
        <ele>70.805219143913</ele>
        <time>2020-11-25T13:30:29.999+01:00</time>
      </trkpt>
      <trkpt lat="43.67796" lon="4.08454">
        <ele>70.788064869103</ele>
        <time>2020-11-25T13:30:30.999+01:00</time>
      </trkpt>
      <trkpt lat="43.67796" lon="4.08457">
        <ele>70.771060764589</ele>
        <time>2020-11-25T13:30:31.999+01:00</time>
      </trkpt>
      <trkpt lat="43.67797" lon="4.08458">
        <ele>70.754473470787</ele>
        <time>2020-11-25T13:30:32.999+01:00</time>
      </trkpt>
      <trkpt lat="43.67798" lon="4.08461">
        <ele>70.738451417252</ele>
        <time>2020-11-25T13:30:33.999+01:00</time>
      </trkpt>
      <trkpt lat="43.67799" lon="4.08462">
        <ele>70.72277174786</ele>
        <time>2020-11-25T13:30:34.999+01:00</time>
      </trkpt>
      <trkpt lat="43.678" lon="4.08464">
        <ele>70.70779671591</ele>
        <time>2020-11-25T13:30:35.999+01:00</time>
      </trkpt>
      <trkpt lat="43.67801" lon="4.08466">
        <ele>70.693481423397</ele>
        <time>2020-11-25T13:30:36.999+01:00</time>
      </trkpt>
      <trkpt lat="43.67801" lon="4.08468">
        <ele>70.679846986707</ele>
        <time>2020-11-25T13:30:37.999+01:00</time>
      </trkpt>
      <trkpt lat="43.67802" lon="4.0847">
        <ele>70.666735073468</ele>
        <time>2020-11-25T13:30:38.999+01:00</time>
      </trkpt>
      <trkpt lat="43.67803" lon="4.08471">
        <ele>70.654412345868</ele>
        <time>2020-11-25T13:30:39.999+01:00</time>
      </trkpt>
      <trkpt lat="43.67804" lon="4.08473">
        <ele>70.642645503739</ele>
        <time>2020-11-25T13:30:40.999+01:00</time>
      </trkpt>
      <trkpt lat="43.67805" lon="4.08474">
        <ele>70.63150769344</ele>
        <time>2020-11-25T13:30:41.999+01:00</time>
      </trkpt>
      <trkpt lat="43.67805" lon="4.08476">
        <ele>70.620788835062</ele>
        <time>2020-11-25T13:30:42.999+01:00</time>
      </trkpt>
      <trkpt lat="43.67806" lon="4.08478">
        <ele>70.610272140765</ele>
        <time>2020-11-25T13:30:43.999+01:00</time>
      </trkpt>
      <trkpt lat="43.67807" lon="4.08479">
        <ele>70.600165745904</ele>
        <time>2020-11-25T13:30:44.999+01:00</time>
      </trkpt>
      <trkpt lat="43.67807" lon="4.0848">
        <ele>70.590318615514</ele>
        <time>2020-11-25T13:30:45.999+01:00</time>
      </trkpt>
      <trkpt lat="43.67808" lon="4.08481">
        <ele>70.580924531953</ele>
        <time>2020-11-25T13:30:46.999+01:00</time>
      </trkpt>
      <trkpt lat="43.67808" lon="4.08483">
        <ele>70.572003727411</ele>
        <time>2020-11-25T13:30:47.999+01:00</time>
      </trkpt>
      <trkpt lat="43.67809" lon="4.08484">
        <ele>70.563626197032</ele>
        <time>2020-11-25T13:30:48.999+01:00</time>
      </trkpt>
      <trkpt lat="43.6781" lon="4.08485">
        <ele>70.555946699195</ele>
        <time>2020-11-25T13:30:49.999+01:00</time>
      </trkpt>
      <trkpt lat="43.6781" lon="4.08487">
        <ele>70.548626278836</ele>
        <time>2020-11-25T13:30:50.999+01:00</time>
      </trkpt>
      <trkpt lat="43.67811" lon="4.08488">
        <ele>70.541469926376</ele>
        <time>2020-11-25T13:30:51.999+01:00</time>
      </trkpt>
      <trkpt lat="43.67812" lon="4.0849">
        <ele>70.534913771653</ele>
        <time>2020-11-25T13:30:52.999+01:00</time>
      </trkpt>
      <trkpt lat="43.67812" lon="4.08491">
        <ele>70.528919423172</ele>
        <time>2020-11-25T13:30:53.999+01:00</time>
      </trkpt>
      <trkpt lat="43.67813" lon="4.08492">
        <ele>70.523446423504</ele>
        <time>2020-11-25T13:30:54.999+01:00</time>
      </trkpt>
      <trkpt lat="43.67813" lon="4.08494">
        <ele>70.518508055712</ele>
        <time>2020-11-25T13:30:55.999+01:00</time>
      </trkpt>
      <trkpt lat="43.67814" lon="4.08496">
        <ele>70.514089048452</ele>
        <time>2020-11-25T13:30:56.999+01:00</time>
      </trkpt>
      <trkpt lat="43.67814" lon="4.08497">
        <ele>70.510067194949</ele>
        <time>2020-11-25T13:30:57.999+01:00</time>
      </trkpt>
      <trkpt lat="43.67815" lon="4.08499">
        <ele>70.506392969041</ele>
        <time>2020-11-25T13:30:58.999+01:00</time>
      </trkpt>
      <trkpt lat="43.67815" lon="4.08501">
        <ele>70.503201059158</ele>
        <time>2020-11-25T13:30:59.999+01:00</time>
      </trkpt>
      <trkpt lat="43.67815" lon="4.08503">
        <ele>70.500512802356</ele>
        <time>2020-11-25T13:31:00.999+01:00</time>
      </trkpt>
      <trkpt lat="43.67816" lon="4.08504">
        <ele>70.498131586512</ele>
        <time>2020-11-25T13:31:01.999+01:00</time>
      </trkpt>
      <trkpt lat="43.67816" lon="4.08506">
        <ele>70.496035124136</ele>
        <time>2020-11-25T13:31:02.999+01:00</time>
      </trkpt>
      <trkpt lat="43.67816" lon="4.08508">
        <ele>70.49451749901</ele>
        <time>2020-11-25T13:31:03.999+01:00</time>
      </trkpt>
      <trkpt lat="43.67816" lon="4.0851">
        <ele>70.493247310728</ele>
        <time>2020-11-25T13:31:04.999+01:00</time>
      </trkpt>
      <trkpt lat="43.67816" lon="4.08512">
        <ele>70.492197550494</ele>
        <time>2020-11-25T13:31:05.999+01:00</time>
      </trkpt>
      <trkpt lat="43.67816" lon="4.08514">
        <ele>70.491444507325</ele>
        <time>2020-11-25T13:31:06.999+01:00</time>
      </trkpt>
      <trkpt lat="43.67817" lon="4.08515">
        <ele>70.491113944772</ele>
        <time>2020-11-25T13:31:07.999+01:00</time>
      </trkpt>
      <trkpt lat="43.67817" lon="4.08517">
        <ele>70.491269717766</ele>
        <time>2020-11-25T13:31:08.999+01:00</time>
      </trkpt>
      <trkpt lat="43.67818" lon="4.0852">
        <ele>70.491954506153</ele>
        <time>2020-11-25T13:31:09.999+01:00</time>
      </trkpt>
      <trkpt lat="43.67819" lon="4.08522">
        <ele>70.493056012646</ele>
        <time>2020-11-25T13:31:10.999+01:00</time>
      </trkpt>
      <trkpt lat="43.67819" lon="4.08524">
        <ele>70.494583017461</ele>
        <time>2020-11-25T13:31:11.999+01:00</time>
      </trkpt>
      <trkpt lat="43.6782" lon="4.08526">
        <ele>70.496389235975</ele>
        <time>2020-11-25T13:31:12.999+01:00</time>
      </trkpt>
      <trkpt lat="43.67821" lon="4.08528">
        <ele>70.498656430753</ele>
        <time>2020-11-25T13:31:13.999+01:00</time>
      </trkpt>
      <trkpt lat="43.67821" lon="4.08529">
        <ele>70.50117033064</ele>
        <time>2020-11-25T13:31:14.999+01:00</time>
      </trkpt>
      <trkpt lat="43.67822" lon="4.08531">
        <ele>70.503856489304</ele>
        <time>2020-11-25T13:31:15.999+01:00</time>
      </trkpt>
      <trkpt lat="43.67822" lon="4.08532">
        <ele>70.506732487898</ele>
        <time>2020-11-25T13:31:16.999+01:00</time>
      </trkpt>
      <trkpt lat="43.67822" lon="4.08534">
        <ele>70.509803830208</ele>
        <time>2020-11-25T13:31:17.999+01:00</time>
      </trkpt>
      <trkpt lat="43.67823" lon="4.08536">
        <ele>70.513196667664</ele>
        <time>2020-11-25T13:31:18.999+01:00</time>
      </trkpt>
      <trkpt lat="43.67823" lon="4.08537">
        <ele>70.516429422639</ele>
        <time>2020-11-25T13:31:19.999+01:00</time>
      </trkpt>
      <trkpt lat="43.67824" lon="4.08539">
        <ele>70.519744687099</ele>
        <time>2020-11-25T13:31:20.999+01:00</time>
      </trkpt>
      <trkpt lat="43.67825" lon="4.08541">
        <ele>70.523440725132</ele>
        <time>2020-11-25T13:31:21.999+01:00</time>
      </trkpt>
      <trkpt lat="43.67825" lon="4.08542">
        <ele>70.527562242103</ele>
        <time>2020-11-25T13:31:22.999+01:00</time>
      </trkpt>
      <trkpt lat="43.67826" lon="4.08544">
        <ele>70.531708538533</ele>
        <time>2020-11-25T13:31:23.999+01:00</time>
      </trkpt>
      <trkpt lat="43.67827" lon="4.08545">
        <ele>70.535887537802</ele>
        <time>2020-11-25T13:31:24.999+01:00</time>
      </trkpt>
      <trkpt lat="43.67827" lon="4.08547">
        <ele>70.540292523702</ele>
        <time>2020-11-25T13:31:25.999+01:00</time>
      </trkpt>
      <trkpt lat="43.67828" lon="4.08549">
        <ele>70.544974549348</ele>
        <time>2020-11-25T13:31:26.999+01:00</time>
      </trkpt>
      <trkpt lat="43.67828" lon="4.08551">
        <ele>70.549922405448</ele>
        <time>2020-11-25T13:31:27.999+01:00</time>
      </trkpt>
      <trkpt lat="43.67828" lon="4.08553">
        <ele>70.554923564145</ele>
        <time>2020-11-25T13:31:28.999+01:00</time>
      </trkpt>
      <trkpt lat="43.67829" lon="4.08555">
        <ele>70.559943774514</ele>
        <time>2020-11-25T13:31:29.999+01:00</time>
      </trkpt>
      <trkpt lat="43.6783" lon="4.08556">
        <ele>70.564968101583</ele>
        <time>2020-11-25T13:31:30.999+01:00</time>
      </trkpt>
      <trkpt lat="43.6783" lon="4.08558">
        <ele>70.570177088587</ele>
        <time>2020-11-25T13:31:31.999+01:00</time>
      </trkpt>
      <trkpt lat="43.67831" lon="4.0856">
        <ele>70.57555350158</ele>
        <time>2020-11-25T13:31:32.999+01:00</time>
      </trkpt>
      <trkpt lat="43.67831" lon="4.08562">
        <ele>70.580813363485</ele>
        <time>2020-11-25T13:31:33.999+01:00</time>
      </trkpt>
      <trkpt lat="43.67832" lon="4.08563">
        <ele>70.58628913704</ele>
        <time>2020-11-25T13:31:34.999+01:00</time>
      </trkpt>
      <trkpt lat="43.67832" lon="4.08564">
        <ele>70.592130896589</ele>
        <time>2020-11-25T13:31:35.999+01:00</time>
      </trkpt>
      <trkpt lat="43.67832" lon="4.08565">
        <ele>70.592742975374</ele>
        <time>2020-11-25T13:31:36.999+01:00</time>
      </trkpt>
      <trkpt lat="43.67832" lon="4.08564">
        <ele>70.593400553742</ele>
        <time>2020-11-25T13:31:37.999+01:00</time>
      </trkpt>
      <trkpt lat="43.67832" lon="4.08564">
        <ele>70.594083021868</ele>
        <time>2020-11-25T13:31:38.999+01:00</time>
      </trkpt>
      <trkpt lat="43.67832" lon="4.08564">
        <ele>70.594785148892</ele>
        <time>2020-11-25T13:31:39.999+01:00</time>
      </trkpt>
      <trkpt lat="43.67832" lon="4.08564">
        <ele>70.595492563973</ele>
        <time>2020-11-25T13:31:40.999+01:00</time>
      </trkpt>
      <trkpt lat="43.67832" lon="4.08564">
        <ele>70.602927872256</ele>
        <time>2020-11-25T13:31:41.999+01:00</time>
      </trkpt>
      <trkpt lat="43.67832" lon="4.08565">
        <ele>70.603705955302</ele>
        <time>2020-11-25T13:31:42.999+01:00</time>
      </trkpt>
      <trkpt lat="43.67833" lon="4.08565">
        <ele>70.604503963661</ele>
        <time>2020-11-25T13:31:43.999+01:00</time>
      </trkpt>
      <trkpt lat="43.67833" lon="4.08565">
        <ele>70.612564422793</ele>
        <time>2020-11-25T13:31:44.999+01:00</time>
      </trkpt>
      <trkpt lat="43.67833" lon="4.08565">
        <ele>70.613391025232</ele>
        <time>2020-11-25T13:31:45.999+01:00</time>
      </trkpt>
      <trkpt lat="43.67833" lon="4.08565">
        <ele>70.621900320596</ele>
        <time>2020-11-25T13:31:46.999+01:00</time>
      </trkpt>
      <trkpt lat="43.67833" lon="4.08565">
        <ele>70.630222496262</ele>
        <time>2020-11-25T13:31:47.999+01:00</time>
      </trkpt>
      <trkpt lat="43.67833" lon="4.08565">
        <ele>70.638849248337</ele>
        <time>2020-11-25T13:31:48.999+01:00</time>
      </trkpt>
      <trkpt lat="43.67833" lon="4.08565">
        <ele>70.647774117089</ele>
        <time>2020-11-25T13:31:49.999+01:00</time>
      </trkpt>
      <trkpt lat="43.67833" lon="4.08566">
        <ele>70.656985909013</ele>
        <time>2020-11-25T13:31:50.999+01:00</time>
      </trkpt>
      <trkpt lat="43.67833" lon="4.08566">
        <ele>70.666633025881</ele>
        <time>2020-11-25T13:31:51.999+01:00</time>
      </trkpt>
      <trkpt lat="43.67834" lon="4.08567">
        <ele>70.676602128942</ele>
        <time>2020-11-25T13:31:52.999+01:00</time>
      </trkpt>
      <trkpt lat="43.67835" lon="4.08569">
        <ele>70.686837349626</ele>
        <time>2020-11-25T13:31:53.999+01:00</time>
      </trkpt>
      <trkpt lat="43.67835" lon="4.0857">
        <ele>70.697228881341</ele>
        <time>2020-11-25T13:31:54.999+01:00</time>
      </trkpt>
      <trkpt lat="43.67836" lon="4.08571">
        <ele>70.70801376503</ele>
        <time>2020-11-25T13:31:55.999+01:00</time>
      </trkpt>
      <trkpt lat="43.67836" lon="4.08572">
        <ele>70.718802236584</ele>
        <time>2020-11-25T13:31:56.999+01:00</time>
      </trkpt>
      <trkpt lat="43.67837" lon="4.08573">
        <ele>70.729888952804</ele>
        <time>2020-11-25T13:31:57.999+01:00</time>
      </trkpt>
      <trkpt lat="43.67838" lon="4.08573">
        <ele>70.74127422417</ele>
        <time>2020-11-25T13:31:58.999+01:00</time>
      </trkpt>
      <trkpt lat="43.67838" lon="4.08574">
        <ele>70.752746243592</ele>
        <time>2020-11-25T13:31:59.999+01:00</time>
      </trkpt>
      <trkpt lat="43.67839" lon="4.08575">
        <ele>70.764311976056</ele>
        <time>2020-11-25T13:32:00.999+01:00</time>
      </trkpt>
      <trkpt lat="43.6784" lon="4.08576">
        <ele>70.775853317036</ele>
        <time>2020-11-25T13:32:01.999+01:00</time>
      </trkpt>
      <trkpt lat="43.67841" lon="4.08576">
        <ele>70.787503268991</ele>
        <time>2020-11-25T13:32:02.999+01:00</time>
      </trkpt>
      <trkpt lat="43.67842" lon="4.08577">
        <ele>70.799327228761</ele>
        <time>2020-11-25T13:32:03.999+01:00</time>
      </trkpt>
      <trkpt lat="43.67843" lon="4.08577">
        <ele>70.81133377883</ele>
        <time>2020-11-25T13:32:04.999+01:00</time>
      </trkpt>
      <trkpt lat="43.67844" lon="4.08578">
        <ele>70.823626941491</ele>
        <time>2020-11-25T13:32:05.999+01:00</time>
      </trkpt>
      <trkpt lat="43.67846" lon="4.08578">
        <ele>70.836139772475</ele>
        <time>2020-11-25T13:32:06.999+01:00</time>
      </trkpt>
      <trkpt lat="43.67847" lon="4.08579">
        <ele>70.848464902575</ele>
        <time>2020-11-25T13:32:07.999+01:00</time>
      </trkpt>
      <trkpt lat="43.67848" lon="4.0858">
        <ele>70.86091063402</ele>
        <time>2020-11-25T13:32:08.999+01:00</time>
      </trkpt>
      <trkpt lat="43.67849" lon="4.0858">
        <ele>70.873599991482</ele>
        <time>2020-11-25T13:32:09.999+01:00</time>
      </trkpt>
      <trkpt lat="43.6785" lon="4.0858">
        <ele>70.88694080364</ele>
        <time>2020-11-25T13:32:10.999+01:00</time>
      </trkpt>
      <trkpt lat="43.6785" lon="4.08581">
        <ele>70.900627839214</ele>
        <time>2020-11-25T13:32:11.999+01:00</time>
      </trkpt>
      <trkpt lat="43.67851" lon="4.08581">
        <ele>70.914519452489</ele>
        <time>2020-11-25T13:32:12.999+01:00</time>
      </trkpt>
      <trkpt lat="43.67852" lon="4.08582">
        <ele>70.928540819054</ele>
        <time>2020-11-25T13:32:13.999+01:00</time>
      </trkpt>
      <trkpt lat="43.67852" lon="4.08583">
        <ele>70.942628392281</ele>
        <time>2020-11-25T13:32:14.999+01:00</time>
      </trkpt>
      <trkpt lat="43.67853" lon="4.08584">
        <ele>70.957214213308</ele>
        <time>2020-11-25T13:32:15.999+01:00</time>
      </trkpt>
      <trkpt lat="43.67854" lon="4.08585">
        <ele>70.972124848235</ele>
        <time>2020-11-25T13:32:16.999+01:00</time>
      </trkpt>
      <trkpt lat="43.67855" lon="4.08585">
        <ele>70.987250943438</ele>
        <time>2020-11-25T13:32:17.999+01:00</time>
      </trkpt>
      <trkpt lat="43.67855" lon="4.08586">
        <ele>71.002504763934</ele>
        <time>2020-11-25T13:32:18.999+01:00</time>
      </trkpt>
      <trkpt lat="43.67856" lon="4.08586">
        <ele>71.018074803971</ele>
        <time>2020-11-25T13:32:19.999+01:00</time>
      </trkpt>
      <trkpt lat="43.67858" lon="4.08587">
        <ele>71.033793307774</ele>
        <time>2020-11-25T13:32:20.999+01:00</time>
      </trkpt>
      <trkpt lat="43.67858" lon="4.08587">
        <ele>71.050032393131</ele>
        <time>2020-11-25T13:32:21.999+01:00</time>
      </trkpt>
      <trkpt lat="43.67859" lon="4.08587">
        <ele>71.066444368949</ele>
        <time>2020-11-25T13:32:22.999+01:00</time>
      </trkpt>
      <trkpt lat="43.6786" lon="4.08588">
        <ele>71.083033545902</ele>
        <time>2020-11-25T13:32:23.999+01:00</time>
      </trkpt>
      <trkpt lat="43.67862" lon="4.08588">
        <ele>71.099866509359</ele>
        <time>2020-11-25T13:32:24.999+01:00</time>
      </trkpt>
      <trkpt lat="43.67863" lon="4.08589">
        <ele>71.116815852569</ele>
        <time>2020-11-25T13:32:25.999+01:00</time>
      </trkpt>
      <trkpt lat="43.67864" lon="4.08589">
        <ele>71.134214897978</ele>
        <time>2020-11-25T13:32:26.999+01:00</time>
      </trkpt>
      <trkpt lat="43.67865" lon="4.08589">
        <ele>71.151630309994</ele>
        <time>2020-11-25T13:32:27.999+01:00</time>
      </trkpt>
      <trkpt lat="43.67866" lon="4.0859">
        <ele>71.168791385668</ele>
        <time>2020-11-25T13:32:28.999+01:00</time>
      </trkpt>
      <trkpt lat="43.67867" lon="4.0859">
        <ele>71.186062865366</ele>
        <time>2020-11-25T13:32:29.999+01:00</time>
      </trkpt>
      <trkpt lat="43.67868" lon="4.0859">
        <ele>71.203665346637</ele>
        <time>2020-11-25T13:32:30.999+01:00</time>
      </trkpt>
      <trkpt lat="43.67869" lon="4.0859">
        <ele>71.221230670274</ele>
        <time>2020-11-25T13:32:31.999+01:00</time>
      </trkpt>
      <trkpt lat="43.6787" lon="4.08591">
        <ele>71.238731554483</ele>
        <time>2020-11-25T13:32:32.999+01:00</time>
      </trkpt>
      <trkpt lat="43.67871" lon="4.08591">
        <ele>71.256481368538</ele>
        <time>2020-11-25T13:32:33.999+01:00</time>
      </trkpt>
      <trkpt lat="43.67872" lon="4.08591">
        <ele>71.27447433905</ele>
        <time>2020-11-25T13:32:34.999+01:00</time>
      </trkpt>
      <trkpt lat="43.67873" lon="4.08592">
        <ele>71.292554214483</ele>
        <time>2020-11-25T13:32:35.999+01:00</time>
      </trkpt>
      <trkpt lat="43.67874" lon="4.08593">
        <ele>71.310526270219</ele>
        <time>2020-11-25T13:32:36.999+01:00</time>
      </trkpt>
      <trkpt lat="43.67874" lon="4.08594">
        <ele>71.328247529709</ele>
        <time>2020-11-25T13:32:37.999+01:00</time>
      </trkpt>
      <trkpt lat="43.67875" lon="4.08594">
        <ele>71.345686656221</ele>
        <time>2020-11-25T13:32:38.999+01:00</time>
      </trkpt>
      <trkpt lat="43.67876" lon="4.08595">
        <ele>71.362808613733</ele>
        <time>2020-11-25T13:32:39.999+01:00</time>
      </trkpt>
      <trkpt lat="43.67877" lon="4.08596">
        <ele>71.380076468959</ele>
        <time>2020-11-25T13:32:40.999+01:00</time>
      </trkpt>
      <trkpt lat="43.67878" lon="4.08596">
        <ele>71.39723185698</ele>
        <time>2020-11-25T13:32:41.999+01:00</time>
      </trkpt>
      <trkpt lat="43.67879" lon="4.08597">
        <ele>71.414010174923</ele>
        <time>2020-11-25T13:32:42.999+01:00</time>
      </trkpt>
      <trkpt lat="43.6788" lon="4.08597">
        <ele>71.43059930634</ele>
        <time>2020-11-25T13:32:43.999+01:00</time>
      </trkpt>
      <trkpt lat="43.67881" lon="4.08598">
        <ele>71.445979998594</ele>
        <time>2020-11-25T13:32:44.999+01:00</time>
      </trkpt>
      <trkpt lat="43.67883" lon="4.08599">
        <ele>71.460763940794</ele>
        <time>2020-11-25T13:32:45.999+01:00</time>
      </trkpt>
      <trkpt lat="43.67884" lon="4.086">
        <ele>71.474865514385</ele>
        <time>2020-11-25T13:32:46.999+01:00</time>
      </trkpt>
      <trkpt lat="43.67886" lon="4.086">
        <ele>71.488787382592</ele>
        <time>2020-11-25T13:32:47.999+01:00</time>
      </trkpt>
      <trkpt lat="43.67887" lon="4.08601">
        <ele>71.502474305155</ele>
        <time>2020-11-25T13:32:48.999+01:00</time>
      </trkpt>
      <trkpt lat="43.67888" lon="4.08601">
        <ele>71.516276046308</ele>
        <time>2020-11-25T13:32:49.999+01:00</time>
      </trkpt>
      <trkpt lat="43.6789" lon="4.08602">
        <ele>71.530012954513</ele>
        <time>2020-11-25T13:32:50.999+01:00</time>
      </trkpt>
      <trkpt lat="43.67891" lon="4.08603">
        <ele>71.543160193713</ele>
        <time>2020-11-25T13:32:51.999+01:00</time>
      </trkpt>
      <trkpt lat="43.67892" lon="4.08604">
        <ele>71.555265226268</ele>
        <time>2020-11-25T13:32:52.999+01:00</time>
      </trkpt>
      <trkpt lat="43.67893" lon="4.08605">
        <ele>71.566897024655</ele>
        <time>2020-11-25T13:32:53.999+01:00</time>
      </trkpt>
      <trkpt lat="43.67894" lon="4.08606">
        <ele>71.578237735363</ele>
        <time>2020-11-25T13:32:54.999+01:00</time>
      </trkpt>
      <trkpt lat="43.67895" lon="4.08606">
        <ele>71.589191629881</ele>
        <time>2020-11-25T13:32:55.999+01:00</time>
      </trkpt>
      <trkpt lat="43.67896" lon="4.08607">
        <ele>71.59984390035</ele>
        <time>2020-11-25T13:32:56.999+01:00</time>
      </trkpt>
      <trkpt lat="43.67897" lon="4.08607">
        <ele>71.609961501934</ele>
        <time>2020-11-25T13:32:57.999+01:00</time>
      </trkpt>
      <trkpt lat="43.67897" lon="4.08607">
        <ele>71.619514446226</ele>
        <time>2020-11-25T13:32:58.999+01:00</time>
      </trkpt>
      <trkpt lat="43.67898" lon="4.08608">
        <ele>71.628470020532</ele>
        <time>2020-11-25T13:32:59.999+01:00</time>
      </trkpt>
      <trkpt lat="43.679" lon="4.08609">
        <ele>71.636875460122</ele>
        <time>2020-11-25T13:33:00.999+01:00</time>
      </trkpt>
      <trkpt lat="43.679" lon="4.0861">
        <ele>71.645018545386</ele>
        <time>2020-11-25T13:33:01.999+01:00</time>
      </trkpt>
      <trkpt lat="43.67901" lon="4.08611">
        <ele>71.652642117566</ele>
        <time>2020-11-25T13:33:02.999+01:00</time>
      </trkpt>
      <trkpt lat="43.67902" lon="4.08612">
        <ele>71.659697108739</ele>
        <time>2020-11-25T13:33:03.999+01:00</time>
      </trkpt>
      <trkpt lat="43.67903" lon="4.08613">
        <ele>71.666611366674</ele>
        <time>2020-11-25T13:33:04.999+01:00</time>
      </trkpt>
      <trkpt lat="43.67904" lon="4.08615">
        <ele>71.673345233099</ele>
        <time>2020-11-25T13:33:05.999+01:00</time>
      </trkpt>
      <trkpt lat="43.67905" lon="4.08617">
        <ele>71.680044078711</ele>
        <time>2020-11-25T13:33:06.999+01:00</time>
      </trkpt>
      <trkpt lat="43.67906" lon="4.08619">
        <ele>71.686670461186</ele>
        <time>2020-11-25T13:33:07.999+01:00</time>
      </trkpt>
      <trkpt lat="43.67907" lon="4.0862">
        <ele>71.69309941112</ele>
        <time>2020-11-25T13:33:08.999+01:00</time>
      </trkpt>
      <trkpt lat="43.67907" lon="4.08622">
        <ele>71.699741092877</ele>
        <time>2020-11-25T13:33:09.999+01:00</time>
      </trkpt>
      <trkpt lat="43.67907" lon="4.08623">
        <ele>71.706485611737</ele>
        <time>2020-11-25T13:33:10.999+01:00</time>
      </trkpt>
      <trkpt lat="43.67908" lon="4.08625">
        <ele>71.713379583343</ele>
        <time>2020-11-25T13:33:11.999+01:00</time>
      </trkpt>
      <trkpt lat="43.67908" lon="4.08626">
        <ele>71.720520795567</ele>
        <time>2020-11-25T13:33:12.999+01:00</time>
      </trkpt>
      <trkpt lat="43.67908" lon="4.08627">
        <ele>71.727878562549</ele>
        <time>2020-11-25T13:33:13.999+01:00</time>
      </trkpt>
      <trkpt lat="43.67908" lon="4.08629">
        <ele>71.735646813746</ele>
        <time>2020-11-25T13:33:14.999+01:00</time>
      </trkpt>
      <trkpt lat="43.67908" lon="4.0863">
        <ele>71.743615058255</ele>
        <time>2020-11-25T13:33:15.999+01:00</time>
      </trkpt>
      <trkpt lat="43.67909" lon="4.08632">
        <ele>71.751736968488</ele>
        <time>2020-11-25T13:33:16.999+01:00</time>
      </trkpt>
      <trkpt lat="43.67909" lon="4.08633">
        <ele>71.759910436523</ele>
        <time>2020-11-25T13:33:17.999+01:00</time>
      </trkpt>
      <trkpt lat="43.67909" lon="4.08634">
        <ele>71.768105381947</ele>
        <time>2020-11-25T13:33:18.999+01:00</time>
      </trkpt>
      <trkpt lat="43.67909" lon="4.08635">
        <ele>71.77628359657</ele>
        <time>2020-11-25T13:33:19.999+01:00</time>
      </trkpt>
      <trkpt lat="43.67909" lon="4.08637">
        <ele>71.784752354224</ele>
        <time>2020-11-25T13:33:20.999+01:00</time>
      </trkpt>
      <trkpt lat="43.67909" lon="4.08638">
        <ele>71.793141026167</ele>
        <time>2020-11-25T13:33:21.999+01:00</time>
      </trkpt>
      <trkpt lat="43.67909" lon="4.0864">
        <ele>71.8016052727</ele>
        <time>2020-11-25T13:33:22.999+01:00</time>
      </trkpt>
      <trkpt lat="43.67909" lon="4.0864">
        <ele>71.810309950556</ele>
        <time>2020-11-25T13:33:23.999+01:00</time>
      </trkpt>
      <trkpt lat="43.67909" lon="4.08641">
        <ele>71.81933332669</ele>
        <time>2020-11-25T13:33:24.999+01:00</time>
      </trkpt>
      <trkpt lat="43.67909" lon="4.08642">
        <ele>71.828564386398</ele>
        <time>2020-11-25T13:33:25.999+01:00</time>
      </trkpt>
      <trkpt lat="43.67909" lon="4.08643">
        <ele>71.83818541907</ele>
        <time>2020-11-25T13:33:26.999+01:00</time>
      </trkpt>
      <trkpt lat="43.67909" lon="4.08645">
        <ele>71.848134674297</ele>
        <time>2020-11-25T13:33:27.999+01:00</time>
      </trkpt>
      <trkpt lat="43.67909" lon="4.08646">
        <ele>71.858251085509</ele>
        <time>2020-11-25T13:33:28.999+01:00</time>
      </trkpt>
      <trkpt lat="43.67909" lon="4.08648">
        <ele>71.868486796892</ele>
        <time>2020-11-25T13:33:29.999+01:00</time>
      </trkpt>
      <trkpt lat="43.67909" lon="4.08649">
        <ele>71.87875154399</ele>
        <time>2020-11-25T13:33:30.999+01:00</time>
      </trkpt>
      <trkpt lat="43.67909" lon="4.08651">
        <ele>71.888917381343</ele>
        <time>2020-11-25T13:33:31.999+01:00</time>
      </trkpt>
      <trkpt lat="43.67909" lon="4.08653">
        <ele>71.899168924128</ele>
        <time>2020-11-25T13:33:32.999+01:00</time>
      </trkpt>
      <trkpt lat="43.67908" lon="4.08654">
        <ele>71.909402686403</ele>
        <time>2020-11-25T13:33:33.999+01:00</time>
      </trkpt>
      <trkpt lat="43.67908" lon="4.08656">
        <ele>71.919769488842</ele>
        <time>2020-11-25T13:33:34.999+01:00</time>
      </trkpt>
      <trkpt lat="43.67908" lon="4.08658">
        <ele>71.930219433703</ele>
        <time>2020-11-25T13:33:35.999+01:00</time>
      </trkpt>
      <trkpt lat="43.67907" lon="4.0866">
        <ele>71.940658253538</ele>
        <time>2020-11-25T13:33:36.999+01:00</time>
      </trkpt>
      <trkpt lat="43.67907" lon="4.08661">
        <ele>71.951067111051</ele>
        <time>2020-11-25T13:33:37.999+01:00</time>
      </trkpt>
      <trkpt lat="43.67906" lon="4.08663">
        <ele>71.961701012486</ele>
        <time>2020-11-25T13:33:38.999+01:00</time>
      </trkpt>
      <trkpt lat="43.67906" lon="4.08665">
        <ele>71.972571420547</ele>
        <time>2020-11-25T13:33:39.999+01:00</time>
      </trkpt>
      <trkpt lat="43.67906" lon="4.08666">
        <ele>71.983823019615</ele>
        <time>2020-11-25T13:33:40.999+01:00</time>
      </trkpt>
      <trkpt lat="43.67906" lon="4.08668">
        <ele>71.99534443757</ele>
        <time>2020-11-25T13:33:41.999+01:00</time>
      </trkpt>
      <trkpt lat="43.67906" lon="4.08669">
        <ele>72.007032023193</ele>
        <time>2020-11-25T13:33:42.999+01:00</time>
      </trkpt>
      <trkpt lat="43.67906" lon="4.08671">
        <ele>72.018710672631</ele>
        <time>2020-11-25T13:33:43.999+01:00</time>
      </trkpt>
      <trkpt lat="43.67906" lon="4.08672">
        <ele>72.030579174243</ele>
        <time>2020-11-25T13:33:44.999+01:00</time>
      </trkpt>
      <trkpt lat="43.67907" lon="4.08673">
        <ele>72.042561566986</ele>
        <time>2020-11-25T13:33:45.999+01:00</time>
      </trkpt>
      <trkpt lat="43.67906" lon="4.08675">
        <ele>72.05429936649</ele>
        <time>2020-11-25T13:33:46.999+01:00</time>
      </trkpt>
      <trkpt lat="43.67906" lon="4.08677">
        <ele>72.065863679036</ele>
        <time>2020-11-25T13:33:47.999+01:00</time>
      </trkpt>
      <trkpt lat="43.67906" lon="4.08679">
        <ele>72.077196738067</ele>
        <time>2020-11-25T13:33:48.999+01:00</time>
      </trkpt>
      <trkpt lat="43.67906" lon="4.0868">
        <ele>72.088345783773</ele>
        <time>2020-11-25T13:33:49.999+01:00</time>
      </trkpt>
      <trkpt lat="43.67906" lon="4.08681">
        <ele>72.099767556088</ele>
        <time>2020-11-25T13:33:50.999+01:00</time>
      </trkpt>
      <trkpt lat="43.67906" lon="4.08681">
        <ele>72.111587776927</ele>
        <time>2020-11-25T13:33:51.999+01:00</time>
      </trkpt>
      <trkpt lat="43.67906" lon="4.08682">
        <ele>72.123370451903</ele>
        <time>2020-11-25T13:33:52.999+01:00</time>
      </trkpt>
      <trkpt lat="43.67907" lon="4.08684">
        <ele>72.135253356176</ele>
        <time>2020-11-25T13:33:53.999+01:00</time>
      </trkpt>
      <trkpt lat="43.67907" lon="4.08685">
        <ele>72.147173544122</ele>
        <time>2020-11-25T13:33:54.999+01:00</time>
      </trkpt>
      <trkpt lat="43.67907" lon="4.08686">
        <ele>72.159204552799</ele>
        <time>2020-11-25T13:33:55.999+01:00</time>
      </trkpt>
      <trkpt lat="43.67907" lon="4.08687">
        <ele>72.171186503824</ele>
        <time>2020-11-25T13:33:56.999+01:00</time>
      </trkpt>
      <trkpt lat="43.67906" lon="4.08689">
        <ele>72.183072421073</ele>
        <time>2020-11-25T13:33:57.999+01:00</time>
      </trkpt>
      <trkpt lat="43.67906" lon="4.0869">
        <ele>72.195044972121</ele>
        <time>2020-11-25T13:33:58.999+01:00</time>
      </trkpt>
      <trkpt lat="43.67905" lon="4.08692">
        <ele>72.207031577914</ele>
        <time>2020-11-25T13:33:59.999+01:00</time>
      </trkpt>
      <trkpt lat="43.67905" lon="4.08694">
        <ele>72.218975692593</ele>
        <time>2020-11-25T13:34:00.999+01:00</time>
      </trkpt>
      <trkpt lat="43.67905" lon="4.08696">
        <ele>72.231308313736</ele>
        <time>2020-11-25T13:34:01.999+01:00</time>
      </trkpt>
      <trkpt lat="43.67904" lon="4.08697">
        <ele>72.243815760031</ele>
        <time>2020-11-25T13:34:02.999+01:00</time>
      </trkpt>
      <trkpt lat="43.67903" lon="4.08699">
        <ele>72.256361416827</ele>
        <time>2020-11-25T13:34:03.999+01:00</time>
      </trkpt>
      <trkpt lat="43.67903" lon="4.087">
        <ele>72.268925082941</ele>
        <time>2020-11-25T13:34:04.999+01:00</time>
      </trkpt>
      <trkpt lat="43.67903" lon="4.08701">
        <ele>72.281762694988</ele>
        <time>2020-11-25T13:34:05.999+01:00</time>
      </trkpt>
      <trkpt lat="43.67903" lon="4.08703">
        <ele>72.294914938168</ele>
        <time>2020-11-25T13:34:06.999+01:00</time>
      </trkpt>
      <trkpt lat="43.67902" lon="4.08704">
        <ele>72.308352584615</ele>
        <time>2020-11-25T13:34:07.999+01:00</time>
      </trkpt>
      <trkpt lat="43.67902" lon="4.08706">
        <ele>72.321968266182</ele>
        <time>2020-11-25T13:34:08.999+01:00</time>
      </trkpt>
      <trkpt lat="43.67902" lon="4.08707">
        <ele>72.335673504612</ele>
        <time>2020-11-25T13:34:09.999+01:00</time>
      </trkpt>
      <trkpt lat="43.67902" lon="4.08708">
        <ele>72.349621923133</ele>
        <time>2020-11-25T13:34:10.999+01:00</time>
      </trkpt>
      <trkpt lat="43.67902" lon="4.08709">
        <ele>72.363312581205</ele>
        <time>2020-11-25T13:34:11.999+01:00</time>
      </trkpt>
      <trkpt lat="43.67901" lon="4.08711">
        <ele>72.376928489287</ele>
        <time>2020-11-25T13:34:12.999+01:00</time>
      </trkpt>
      <trkpt lat="43.67901" lon="4.08712">
        <ele>72.390403609445</ele>
        <time>2020-11-25T13:34:13.999+01:00</time>
      </trkpt>
      <trkpt lat="43.67901" lon="4.08714">
        <ele>72.403804959493</ele>
        <time>2020-11-25T13:34:14.999+01:00</time>
      </trkpt>
      <trkpt lat="43.679" lon="4.08716">
        <ele>72.417016874658</ele>
        <time>2020-11-25T13:34:15.999+01:00</time>
      </trkpt>
      <trkpt lat="43.679" lon="4.08717">
        <ele>72.430107094459</ele>
        <time>2020-11-25T13:34:16.999+01:00</time>
      </trkpt>
      <trkpt lat="43.679" lon="4.08719">
        <ele>72.442937789023</ele>
        <time>2020-11-25T13:34:17.999+01:00</time>
      </trkpt>
      <trkpt lat="43.679" lon="4.08721">
        <ele>72.455545667043</ele>
        <time>2020-11-25T13:34:18.999+01:00</time>
      </trkpt>
      <trkpt lat="43.67901" lon="4.08723">
        <ele>72.468067707091</ele>
        <time>2020-11-25T13:34:19.999+01:00</time>
      </trkpt>
      <trkpt lat="43.67901" lon="4.08724">
        <ele>72.480548972314</ele>
        <time>2020-11-25T13:34:20.999+01:00</time>
      </trkpt>
      <trkpt lat="43.67901" lon="4.08725">
        <ele>72.49284238723</ele>
        <time>2020-11-25T13:34:21.999+01:00</time>
      </trkpt>
      <trkpt lat="43.67901" lon="4.08727">
        <ele>72.504954517868</ele>
        <time>2020-11-25T13:34:22.999+01:00</time>
      </trkpt>
      <trkpt lat="43.67901" lon="4.08728">
        <ele>72.516830370923</ele>
        <time>2020-11-25T13:34:23.999+01:00</time>
      </trkpt>
      <trkpt lat="43.67901" lon="4.0873">
        <ele>72.528661911293</ele>
        <time>2020-11-25T13:34:24.999+01:00</time>
      </trkpt>
      <trkpt lat="43.679" lon="4.08731">
        <ele>72.540485254627</ele>
        <time>2020-11-25T13:34:25.999+01:00</time>
      </trkpt>
      <trkpt lat="43.679" lon="4.08733">
        <ele>72.552190060869</ele>
        <time>2020-11-25T13:34:26.999+01:00</time>
      </trkpt>
      <trkpt lat="43.679" lon="4.08734">
        <ele>72.563778919219</ele>
        <time>2020-11-25T13:34:27.999+01:00</time>
      </trkpt>
      <trkpt lat="43.67899" lon="4.08736">
        <ele>72.575241004336</ele>
        <time>2020-11-25T13:34:28.999+01:00</time>
      </trkpt>
      <trkpt lat="43.67899" lon="4.08737">
        <ele>72.586701764104</ele>
        <time>2020-11-25T13:34:29.999+01:00</time>
      </trkpt>
      <trkpt lat="43.67899" lon="4.08738">
        <ele>72.598147453362</ele>
        <time>2020-11-25T13:34:30.999+01:00</time>
      </trkpt>
      <trkpt lat="43.679" lon="4.08739">
        <ele>72.609946247147</ele>
        <time>2020-11-25T13:34:31.999+01:00</time>
      </trkpt>
      <trkpt lat="43.679" lon="4.0874">
        <ele>72.622407322793</ele>
        <time>2020-11-25T13:34:32.999+01:00</time>
      </trkpt>
      <trkpt lat="43.679" lon="4.08742">
        <ele>72.635312795909</ele>
        <time>2020-11-25T13:34:33.999+01:00</time>
      </trkpt>
      <trkpt lat="43.679" lon="4.08744">
        <ele>72.648414239162</ele>
        <time>2020-11-25T13:34:34.999+01:00</time>
      </trkpt>
      <trkpt lat="43.67901" lon="4.08745">
        <ele>72.661433059583</ele>
        <time>2020-11-25T13:34:35.999+01:00</time>
      </trkpt>
      <trkpt lat="43.67901" lon="4.08745">
        <ele>72.674253539057</ele>
        <time>2020-11-25T13:34:36.999+01:00</time>
      </trkpt>
      <trkpt lat="43.67902" lon="4.08746">
        <ele>72.687046597937</ele>
        <time>2020-11-25T13:34:37.999+01:00</time>
      </trkpt>
      <trkpt lat="43.67902" lon="4.08746">
        <ele>72.700189996119</ele>
        <time>2020-11-25T13:34:38.999+01:00</time>
      </trkpt>
      <trkpt lat="43.67903" lon="4.08747">
        <ele>72.713363268971</ele>
        <time>2020-11-25T13:34:39.999+01:00</time>
      </trkpt>
      <trkpt lat="43.67903" lon="4.08747">
        <ele>72.726538461325</ele>
        <time>2020-11-25T13:34:40.999+01:00</time>
      </trkpt>
      <trkpt lat="43.67904" lon="4.08747">
        <ele>72.739719393244</ele>
        <time>2020-11-25T13:34:41.999+01:00</time>
      </trkpt>
      <trkpt lat="43.67905" lon="4.08747">
        <ele>72.752891550189</ele>
        <time>2020-11-25T13:34:42.999+01:00</time>
      </trkpt>
      <trkpt lat="43.67906" lon="4.08747">
        <ele>72.765853560976</ele>
        <time>2020-11-25T13:34:43.999+01:00</time>
      </trkpt>
      <trkpt lat="43.67907" lon="4.08747">
        <ele>72.778784910482</ele>
        <time>2020-11-25T13:34:44.999+01:00</time>
      </trkpt>
      <trkpt lat="43.67907" lon="4.08748">
        <ele>72.791648855665</ele>
        <time>2020-11-25T13:34:45.999+01:00</time>
      </trkpt>
      <trkpt lat="43.67908" lon="4.08748">
        <ele>72.804227463335</ele>
        <time>2020-11-25T13:34:46.999+01:00</time>
      </trkpt>
      <trkpt lat="43.67909" lon="4.08749">
        <ele>72.816121606263</ele>
        <time>2020-11-25T13:34:47.999+01:00</time>
      </trkpt>
      <trkpt lat="43.6791" lon="4.0875">
        <ele>72.827197829251</ele>
        <time>2020-11-25T13:34:48.999+01:00</time>
      </trkpt>
      <trkpt lat="43.67911" lon="4.08751">
        <ele>72.837702109347</ele>
        <time>2020-11-25T13:34:49.999+01:00</time>
      </trkpt>
      <trkpt lat="43.67912" lon="4.08752">
        <ele>72.847871392713</ele>
        <time>2020-11-25T13:34:50.999+01:00</time>
      </trkpt>
      <trkpt lat="43.67912" lon="4.08752">
        <ele>72.857741278219</ele>
        <time>2020-11-25T13:34:51.999+01:00</time>
      </trkpt>
      <trkpt lat="43.67913" lon="4.08752">
        <ele>72.867346321917</ele>
        <time>2020-11-25T13:34:52.999+01:00</time>
      </trkpt>
      <trkpt lat="43.67913" lon="4.08753">
        <ele>72.876769020217</ele>
        <time>2020-11-25T13:34:53.999+01:00</time>
      </trkpt>
      <trkpt lat="43.67914" lon="4.08753">
        <ele>72.885960126976</ele>
        <time>2020-11-25T13:34:54.999+01:00</time>
      </trkpt>
      <trkpt lat="43.67915" lon="4.08753">
        <ele>72.895003432636</ele>
        <time>2020-11-25T13:34:55.999+01:00</time>
      </trkpt>
      <trkpt lat="43.67916" lon="4.08754">
        <ele>72.90402177387</ele>
        <time>2020-11-25T13:34:56.999+01:00</time>
      </trkpt>
      <trkpt lat="43.67917" lon="4.08754">
        <ele>72.91290478029</ele>
        <time>2020-11-25T13:34:57.999+01:00</time>
      </trkpt>
      <trkpt lat="43.67917" lon="4.08754">
        <ele>72.921798396676</ele>
        <time>2020-11-25T13:34:58.999+01:00</time>
      </trkpt>
      <trkpt lat="43.67919" lon="4.08754">
        <ele>72.930560887179</ele>
        <time>2020-11-25T13:34:59.999+01:00</time>
      </trkpt>
      <trkpt lat="43.6792" lon="4.08754">
        <ele>72.93907204442</ele>
        <time>2020-11-25T13:35:00.999+01:00</time>
      </trkpt>
      <trkpt lat="43.6792" lon="4.08754">
        <ele>72.947301717347</ele>
        <time>2020-11-25T13:35:01.999+01:00</time>
      </trkpt>
      <trkpt lat="43.67922" lon="4.08755">
        <ele>72.955436182905</ele>
        <time>2020-11-25T13:35:02.999+01:00</time>
      </trkpt>
      <trkpt lat="43.67924" lon="4.08755">
        <ele>72.963393551846</ele>
        <time>2020-11-25T13:35:03.999+01:00</time>
      </trkpt>
      <trkpt lat="43.67925" lon="4.08756">
        <ele>72.971298508395</ele>
        <time>2020-11-25T13:35:04.999+01:00</time>
      </trkpt>
      <trkpt lat="43.67927" lon="4.08756">
        <ele>72.978972565827</ele>
        <time>2020-11-25T13:35:05.999+01:00</time>
      </trkpt>
      <trkpt lat="43.67929" lon="4.08758">
        <ele>72.987327634288</ele>
        <time>2020-11-25T13:35:06.999+01:00</time>
      </trkpt>
      <trkpt lat="43.6793" lon="4.08758">
        <ele>72.996404737592</ele>
        <time>2020-11-25T13:35:07.999+01:00</time>
      </trkpt>
      <trkpt lat="43.67932" lon="4.08759">
        <ele>73.005780923317</ele>
        <time>2020-11-25T13:35:08.999+01:00</time>
      </trkpt>
      <trkpt lat="43.67934" lon="4.0876">
        <ele>73.015369766715</ele>
        <time>2020-11-25T13:35:09.999+01:00</time>
      </trkpt>
      <trkpt lat="43.67935" lon="4.0876">
        <ele>73.024896331933</ele>
        <time>2020-11-25T13:35:10.999+01:00</time>
      </trkpt>
      <trkpt lat="43.67936" lon="4.08761">
        <ele>73.034724218563</ele>
        <time>2020-11-25T13:35:11.999+01:00</time>
      </trkpt>
      <trkpt lat="43.67936" lon="4.08761">
        <ele>73.044604822213</ele>
        <time>2020-11-25T13:35:12.999+01:00</time>
      </trkpt>
      <trkpt lat="43.67937" lon="4.08761">
        <ele>73.054413689184</ele>
        <time>2020-11-25T13:35:13.999+01:00</time>
      </trkpt>
      <trkpt lat="43.67938" lon="4.0876">
        <ele>73.064180870274</ele>
        <time>2020-11-25T13:35:14.999+01:00</time>
      </trkpt>
      <trkpt lat="43.6794" lon="4.08759">
        <ele>73.073882657603</ele>
        <time>2020-11-25T13:35:15.999+01:00</time>
      </trkpt>
      <trkpt lat="43.67941" lon="4.08758">
        <ele>73.083294189031</ele>
        <time>2020-11-25T13:35:16.999+01:00</time>
      </trkpt>
      <trkpt lat="43.67942" lon="4.08758">
        <ele>73.092472134575</ele>
        <time>2020-11-25T13:35:17.999+01:00</time>
      </trkpt>
      <trkpt lat="43.67942" lon="4.08758">
        <ele>73.101428296523</ele>
        <time>2020-11-25T13:35:18.999+01:00</time>
      </trkpt>
      <trkpt lat="43.67943" lon="4.08758">
        <ele>73.110416245461</ele>
        <time>2020-11-25T13:35:19.999+01:00</time>
      </trkpt>
      <trkpt lat="43.67944" lon="4.08759">
        <ele>73.119374111032</ele>
        <time>2020-11-25T13:35:20.999+01:00</time>
      </trkpt>
      <trkpt lat="43.67945" lon="4.08759">
        <ele>73.128615234893</ele>
        <time>2020-11-25T13:35:21.999+01:00</time>
      </trkpt>
      <trkpt lat="43.67945" lon="4.08759">
        <ele>73.138077922011</ele>
        <time>2020-11-25T13:35:22.999+01:00</time>
      </trkpt>
      <trkpt lat="43.67947" lon="4.0876">
        <ele>73.147403431994</ele>
        <time>2020-11-25T13:35:23.999+01:00</time>
      </trkpt>
      <trkpt lat="43.67947" lon="4.0876">
        <ele>73.156931052792</ele>
        <time>2020-11-25T13:35:24.999+01:00</time>
      </trkpt>
      <trkpt lat="43.67948" lon="4.08761">
        <ele>73.166614525757</ele>
        <time>2020-11-25T13:35:25.999+01:00</time>
      </trkpt>
      <trkpt lat="43.6795" lon="4.08761">
        <ele>73.176319887832</ele>
        <time>2020-11-25T13:35:26.999+01:00</time>
      </trkpt>
      <trkpt lat="43.67951" lon="4.08762">
        <ele>73.185990996114</ele>
        <time>2020-11-25T13:35:27.999+01:00</time>
      </trkpt>
      <trkpt lat="43.67953" lon="4.08762">
        <ele>73.195880643502</ele>
        <time>2020-11-25T13:35:28.999+01:00</time>
      </trkpt>
      <trkpt lat="43.67954" lon="4.08763">
        <ele>73.206038645649</ele>
        <time>2020-11-25T13:35:29.999+01:00</time>
      </trkpt>
      <trkpt lat="43.67955" lon="4.08764">
        <ele>73.216701063665</ele>
        <time>2020-11-25T13:35:30.999+01:00</time>
      </trkpt>
      <trkpt lat="43.67956" lon="4.08764">
        <ele>73.227404270864</ele>
        <time>2020-11-25T13:35:31.999+01:00</time>
      </trkpt>
      <trkpt lat="43.67957" lon="4.08765">
        <ele>73.238379191356</ele>
        <time>2020-11-25T13:35:32.999+01:00</time>
      </trkpt>
      <trkpt lat="43.67957" lon="4.08765">
        <ele>73.249302274443</ele>
        <time>2020-11-25T13:35:33.999+01:00</time>
      </trkpt>
      <trkpt lat="43.67958" lon="4.08765">
        <ele>73.260100226132</ele>
        <time>2020-11-25T13:35:34.999+01:00</time>
      </trkpt>
      <trkpt lat="43.67959" lon="4.08766">
        <ele>73.270846836152</ele>
        <time>2020-11-25T13:35:35.999+01:00</time>
      </trkpt>
      <trkpt lat="43.67961" lon="4.08767">
        <ele>73.282252541007</ele>
        <time>2020-11-25T13:35:36.999+01:00</time>
      </trkpt>
      <trkpt lat="43.67962" lon="4.08767">
        <ele>73.293731532829</ele>
        <time>2020-11-25T13:35:37.999+01:00</time>
      </trkpt>
      <trkpt lat="43.67964" lon="4.08768">
        <ele>73.30544987482</ele>
        <time>2020-11-25T13:35:38.999+01:00</time>
      </trkpt>
      <trkpt lat="43.67965" lon="4.08768">
        <ele>73.317219745632</ele>
        <time>2020-11-25T13:35:39.999+01:00</time>
      </trkpt>
      <trkpt lat="43.67966" lon="4.08768">
        <ele>73.328811486221</ele>
        <time>2020-11-25T13:35:40.999+01:00</time>
      </trkpt>
      <trkpt lat="43.67966" lon="4.08768">
        <ele>73.340422992631</ele>
        <time>2020-11-25T13:35:41.999+01:00</time>
      </trkpt>
      <trkpt lat="43.67967" lon="4.08768">
        <ele>73.351831552062</ele>
        <time>2020-11-25T13:35:42.999+01:00</time>
      </trkpt>
      <trkpt lat="43.67968" lon="4.08769">
        <ele>73.36324043724</ele>
        <time>2020-11-25T13:35:43.999+01:00</time>
      </trkpt>
      <trkpt lat="43.67969" lon="4.08769">
        <ele>73.374552711915</ele>
        <time>2020-11-25T13:35:44.999+01:00</time>
      </trkpt>
      <trkpt lat="43.67973" lon="4.08768">
        <ele>73.386149412817</ele>
        <time>2020-11-25T13:35:45.999+01:00</time>
      </trkpt>
      <trkpt lat="43.67977" lon="4.08768">
        <ele>73.398443339701</ele>
        <time>2020-11-25T13:35:46.999+01:00</time>
      </trkpt>
      <trkpt lat="43.6798" lon="4.08767">
        <ele>73.411341027427</ele>
        <time>2020-11-25T13:35:47.999+01:00</time>
      </trkpt>
      <trkpt lat="43.67983" lon="4.08767">
        <ele>73.425142040222</ele>
        <time>2020-11-25T13:35:48.999+01:00</time>
      </trkpt>
      <trkpt lat="43.67985" lon="4.08767">
        <ele>73.439747696414</ele>
        <time>2020-11-25T13:35:49.999+01:00</time>
      </trkpt>
      <trkpt lat="43.67987" lon="4.08766">
        <ele>73.455281801859</ele>
        <time>2020-11-25T13:35:50.999+01:00</time>
      </trkpt>
      <trkpt lat="43.67989" lon="4.08766">
        <ele>73.471792688568</ele>
        <time>2020-11-25T13:35:51.999+01:00</time>
      </trkpt>
      <trkpt lat="43.6799" lon="4.08766">
        <ele>73.489107499362</ele>
        <time>2020-11-25T13:35:52.999+01:00</time>
      </trkpt>
      <trkpt lat="43.67991" lon="4.08766">
        <ele>73.506864694693</ele>
        <time>2020-11-25T13:35:53.999+01:00</time>
      </trkpt>
      <trkpt lat="43.67992" lon="4.08765">
        <ele>73.524836313344</ele>
        <time>2020-11-25T13:35:54.999+01:00</time>
      </trkpt>
      <trkpt lat="43.67993" lon="4.08765">
        <ele>73.542539136298</ele>
        <time>2020-11-25T13:35:55.999+01:00</time>
      </trkpt>
      <trkpt lat="43.67995" lon="4.08765">
        <ele>73.560158044512</ele>
        <time>2020-11-25T13:35:56.999+01:00</time>
      </trkpt>
      <trkpt lat="43.67996" lon="4.08765">
        <ele>73.577948470178</ele>
        <time>2020-11-25T13:35:57.999+01:00</time>
      </trkpt>
      <trkpt lat="43.67996" lon="4.08765">
        <ele>73.59587399253</ele>
        <time>2020-11-25T13:35:58.999+01:00</time>
      </trkpt>
      <trkpt lat="43.67997" lon="4.08764">
        <ele>73.613418773597</ele>
        <time>2020-11-25T13:35:59.999+01:00</time>
      </trkpt>
      <trkpt lat="43.67998" lon="4.08764">
        <ele>73.630868861682</ele>
        <time>2020-11-25T13:36:00.999+01:00</time>
      </trkpt>
      <trkpt lat="43.67999" lon="4.08763">
        <ele>73.6482483969</ele>
        <time>2020-11-25T13:36:01.999+01:00</time>
      </trkpt>
      <trkpt lat="43.68" lon="4.08763">
        <ele>73.665638257858</ele>
        <time>2020-11-25T13:36:02.999+01:00</time>
      </trkpt>
      <trkpt lat="43.68001" lon="4.08763">
        <ele>73.683233706956</ele>
        <time>2020-11-25T13:36:03.999+01:00</time>
      </trkpt>
      <trkpt lat="43.68003" lon="4.08762">
        <ele>73.7011511466</ele>
        <time>2020-11-25T13:36:04.999+01:00</time>
      </trkpt>
      <trkpt lat="43.68003" lon="4.08761">
        <ele>73.719222098086</ele>
        <time>2020-11-25T13:36:05.999+01:00</time>
      </trkpt>
      <trkpt lat="43.68004" lon="4.08761">
        <ele>73.737431156604</ele>
        <time>2020-11-25T13:36:06.999+01:00</time>
      </trkpt>
      <trkpt lat="43.68005" lon="4.0876">
        <ele>73.756020282399</ele>
        <time>2020-11-25T13:36:07.999+01:00</time>
      </trkpt>
      <trkpt lat="43.68007" lon="4.08759">
        <ele>73.77464238902</ele>
        <time>2020-11-25T13:36:08.999+01:00</time>
      </trkpt>
      <trkpt lat="43.68008" lon="4.08759">
        <ele>73.793642210681</ele>
        <time>2020-11-25T13:36:09.999+01:00</time>
      </trkpt>
      <trkpt lat="43.68009" lon="4.08759">
        <ele>73.813105669733</ele>
        <time>2020-11-25T13:36:10.999+01:00</time>
      </trkpt>
      <trkpt lat="43.6801" lon="4.08758">
        <ele>73.832938604855</ele>
        <time>2020-11-25T13:36:11.999+01:00</time>
      </trkpt>
      <trkpt lat="43.68011" lon="4.08758">
        <ele>73.853129219555</ele>
        <time>2020-11-25T13:36:12.999+01:00</time>
      </trkpt>
      <trkpt lat="43.68011" lon="4.08757">
        <ele>73.873877484337</ele>
        <time>2020-11-25T13:36:13.999+01:00</time>
      </trkpt>
      <trkpt lat="43.68012" lon="4.08757">
        <ele>73.894834395606</ele>
        <time>2020-11-25T13:36:14.999+01:00</time>
      </trkpt>
      <trkpt lat="43.68012" lon="4.08757">
        <ele>73.915979437885</ele>
        <time>2020-11-25T13:36:15.999+01:00</time>
      </trkpt>
      <trkpt lat="43.68013" lon="4.08757">
        <ele>73.937174671383</ele>
        <time>2020-11-25T13:36:16.999+01:00</time>
      </trkpt>
      <trkpt lat="43.68013" lon="4.08757">
        <ele>73.95802101325</ele>
        <time>2020-11-25T13:36:17.999+01:00</time>
      </trkpt>
      <trkpt lat="43.68013" lon="4.08757">
        <ele>73.978653076276</ele>
        <time>2020-11-25T13:36:18.999+01:00</time>
      </trkpt>
      <trkpt lat="43.68014" lon="4.08756">
        <ele>73.999068340844</ele>
        <time>2020-11-25T13:36:19.999+01:00</time>
      </trkpt>
      <trkpt lat="43.68015" lon="4.08757">
        <ele>74.019295254753</ele>
        <time>2020-11-25T13:36:20.999+01:00</time>
      </trkpt>
      <trkpt lat="43.68015" lon="4.08757">
        <ele>74.039473480519</ele>
        <time>2020-11-25T13:36:21.999+01:00</time>
      </trkpt>
      <trkpt lat="43.68016" lon="4.08757">
        <ele>74.059739322933</ele>
        <time>2020-11-25T13:36:22.999+01:00</time>
      </trkpt>
      <trkpt lat="43.68017" lon="4.08757">
        <ele>74.079980536908</ele>
        <time>2020-11-25T13:36:23.999+01:00</time>
      </trkpt>
      <trkpt lat="43.68018" lon="4.08757">
        <ele>74.100077299263</ele>
        <time>2020-11-25T13:36:24.999+01:00</time>
      </trkpt>
      <trkpt lat="43.68019" lon="4.08757">
        <ele>74.119813698554</ele>
        <time>2020-11-25T13:36:25.999+01:00</time>
      </trkpt>
      <trkpt lat="43.68019" lon="4.08757">
        <ele>74.139462225731</ele>
        <time>2020-11-25T13:36:26.999+01:00</time>
      </trkpt>
      <trkpt lat="43.6802" lon="4.08757">
        <ele>74.158706773696</ele>
        <time>2020-11-25T13:36:27.999+01:00</time>
      </trkpt>
      <trkpt lat="43.6802" lon="4.08756">
        <ele>74.178150396865</ele>
        <time>2020-11-25T13:36:28.999+01:00</time>
      </trkpt>
      <trkpt lat="43.68021" lon="4.08755">
        <ele>74.19760236439</ele>
        <time>2020-11-25T13:36:29.999+01:00</time>
      </trkpt>
      <trkpt lat="43.68022" lon="4.08754">
        <ele>74.216967837099</ele>
        <time>2020-11-25T13:36:30.999+01:00</time>
      </trkpt>
      <trkpt lat="43.68022" lon="4.08754">
        <ele>74.236337463773</ele>
        <time>2020-11-25T13:36:31.999+01:00</time>
      </trkpt>
      <trkpt lat="43.68023" lon="4.08754">
        <ele>74.25527977045</ele>
        <time>2020-11-25T13:36:32.999+01:00</time>
      </trkpt>
      <trkpt lat="43.68024" lon="4.08753">
        <ele>74.273535377933</ele>
        <time>2020-11-25T13:36:33.999+01:00</time>
      </trkpt>
      <trkpt lat="43.68025" lon="4.08752">
        <ele>74.291318661296</ele>
        <time>2020-11-25T13:36:34.999+01:00</time>
      </trkpt>
      <trkpt lat="43.68025" lon="4.08752">
        <ele>74.308703581895</ele>
        <time>2020-11-25T13:36:35.999+01:00</time>
      </trkpt>
      <trkpt lat="43.68026" lon="4.08752">
        <ele>74.325672170344</ele>
        <time>2020-11-25T13:36:36.999+01:00</time>
      </trkpt>
      <trkpt lat="43.68026" lon="4.08752">
        <ele>74.342250888247</ele>
        <time>2020-11-25T13:36:37.999+01:00</time>
      </trkpt>
      <trkpt lat="43.68027" lon="4.08752">
        <ele>74.358543358857</ele>
        <time>2020-11-25T13:36:38.999+01:00</time>
      </trkpt>
      <trkpt lat="43.68028" lon="4.08752">
        <ele>74.374778341113</ele>
        <time>2020-11-25T13:36:39.999+01:00</time>
      </trkpt>
      <trkpt lat="43.68028" lon="4.08752">
        <ele>74.390835479539</ele>
        <time>2020-11-25T13:36:40.999+01:00</time>
      </trkpt>
      <trkpt lat="43.68029" lon="4.08753">
        <ele>74.406689785987</ele>
        <time>2020-11-25T13:36:41.999+01:00</time>
      </trkpt>
      <trkpt lat="43.6803" lon="4.08753">
        <ele>74.422617920492</ele>
        <time>2020-11-25T13:36:42.999+01:00</time>
      </trkpt>
      <trkpt lat="43.68032" lon="4.08755">
        <ele>74.438709773675</ele>
        <time>2020-11-25T13:36:43.999+01:00</time>
      </trkpt>
      <trkpt lat="43.68033" lon="4.08756">
        <ele>74.454877337417</ele>
        <time>2020-11-25T13:36:44.999+01:00</time>
      </trkpt>
      <trkpt lat="43.68034" lon="4.08756">
        <ele>74.471205782523</ele>
        <time>2020-11-25T13:36:45.999+01:00</time>
      </trkpt>
      <trkpt lat="43.68035" lon="4.08756">
        <ele>74.487620062815</ele>
        <time>2020-11-25T13:36:46.999+01:00</time>
      </trkpt>
      <trkpt lat="43.68036" lon="4.08755">
        <ele>74.504185185985</ele>
        <time>2020-11-25T13:36:47.999+01:00</time>
      </trkpt>
      <trkpt lat="43.68036" lon="4.08755">
        <ele>74.520707560775</ele>
        <time>2020-11-25T13:36:48.999+01:00</time>
      </trkpt>
      <trkpt lat="43.68037" lon="4.08756">
        <ele>74.537292953855</ele>
        <time>2020-11-25T13:36:49.999+01:00</time>
      </trkpt>
      <trkpt lat="43.68038" lon="4.08756">
        <ele>74.553950617811</ele>
        <time>2020-11-25T13:36:50.999+01:00</time>
      </trkpt>
      <trkpt lat="43.68039" lon="4.08756">
        <ele>74.570526899573</ele>
        <time>2020-11-25T13:36:51.999+01:00</time>
      </trkpt>
      <trkpt lat="43.68039" lon="4.08756">
        <ele>74.586937643842</ele>
        <time>2020-11-25T13:36:52.999+01:00</time>
      </trkpt>
      <trkpt lat="43.6804" lon="4.08755">
        <ele>74.602989465622</ele>
        <time>2020-11-25T13:36:53.999+01:00</time>
      </trkpt>
      <trkpt lat="43.68041" lon="4.08755">
        <ele>74.618910149784</ele>
        <time>2020-11-25T13:36:54.999+01:00</time>
      </trkpt>
      <trkpt lat="43.68042" lon="4.08755">
        <ele>74.634509701321</ele>
        <time>2020-11-25T13:36:55.999+01:00</time>
      </trkpt>
      <trkpt lat="43.68043" lon="4.08754">
        <ele>74.649900229152</ele>
        <time>2020-11-25T13:36:56.999+01:00</time>
      </trkpt>
      <trkpt lat="43.68044" lon="4.08754">
        <ele>74.665021178211</ele>
        <time>2020-11-25T13:36:57.999+01:00</time>
      </trkpt>
      <trkpt lat="43.68044" lon="4.08753">
        <ele>74.680157609575</ele>
        <time>2020-11-25T13:36:58.999+01:00</time>
      </trkpt>
      <trkpt lat="43.68045" lon="4.08753">
        <ele>74.695544940367</ele>
        <time>2020-11-25T13:36:59.999+01:00</time>
      </trkpt>
      <trkpt lat="43.68046" lon="4.08752">
        <ele>74.711044333107</ele>
        <time>2020-11-25T13:37:00.999+01:00</time>
      </trkpt>
      <trkpt lat="43.68047" lon="4.08751">
        <ele>74.726315625271</ele>
        <time>2020-11-25T13:37:01.999+01:00</time>
      </trkpt>
      <trkpt lat="43.68047" lon="4.08751">
        <ele>74.741260746311</ele>
        <time>2020-11-25T13:37:02.999+01:00</time>
      </trkpt>
      <trkpt lat="43.68048" lon="4.08751">
        <ele>74.756003819147</ele>
        <time>2020-11-25T13:37:03.999+01:00</time>
      </trkpt>
      <trkpt lat="43.68049" lon="4.08751">
        <ele>74.770553032928</ele>
        <time>2020-11-25T13:37:04.999+01:00</time>
      </trkpt>
      <trkpt lat="43.68049" lon="4.0875">
        <ele>74.784692968371</ele>
        <time>2020-11-25T13:37:05.999+01:00</time>
      </trkpt>
      <trkpt lat="43.6805" lon="4.0875">
        <ele>74.798831926004</ele>
        <time>2020-11-25T13:37:06.999+01:00</time>
      </trkpt>
      <trkpt lat="43.68051" lon="4.0875">
        <ele>74.812563449748</ele>
        <time>2020-11-25T13:37:07.999+01:00</time>
      </trkpt>
      <trkpt lat="43.68052" lon="4.08749">
        <ele>74.826101500503</ele>
        <time>2020-11-25T13:37:08.999+01:00</time>
      </trkpt>
      <trkpt lat="43.68053" lon="4.08749">
        <ele>74.839682176459</ele>
        <time>2020-11-25T13:37:09.999+01:00</time>
      </trkpt>
      <trkpt lat="43.68054" lon="4.08748">
        <ele>74.853163424561</ele>
        <time>2020-11-25T13:37:10.999+01:00</time>
      </trkpt>
      <trkpt lat="43.68056" lon="4.08748">
        <ele>74.866489661886</ele>
        <time>2020-11-25T13:37:11.999+01:00</time>
      </trkpt>
      <trkpt lat="43.68057" lon="4.08748">
        <ele>74.87976053375</ele>
        <time>2020-11-25T13:37:12.999+01:00</time>
      </trkpt>
      <trkpt lat="43.68058" lon="4.08748">
        <ele>74.892908971326</ele>
        <time>2020-11-25T13:37:13.999+01:00</time>
      </trkpt>
      <trkpt lat="43.68059" lon="4.08747">
        <ele>74.905930177732</ele>
        <time>2020-11-25T13:37:14.999+01:00</time>
      </trkpt>
      <trkpt lat="43.6806" lon="4.08747">
        <ele>74.919148122816</ele>
        <time>2020-11-25T13:37:15.999+01:00</time>
      </trkpt>
      <trkpt lat="43.68061" lon="4.08747">
        <ele>74.932249962245</ele>
        <time>2020-11-25T13:37:16.999+01:00</time>
      </trkpt>
      <trkpt lat="43.68062" lon="4.08747">
        <ele>74.945379542602</ele>
        <time>2020-11-25T13:37:17.999+01:00</time>
      </trkpt>
      <trkpt lat="43.68064" lon="4.08746">
        <ele>74.958441941014</ele>
        <time>2020-11-25T13:37:18.999+01:00</time>
      </trkpt>
      <trkpt lat="43.68065" lon="4.08746">
        <ele>74.971554680119</ele>
        <time>2020-11-25T13:37:19.999+01:00</time>
      </trkpt>
      <trkpt lat="43.68067" lon="4.08745">
        <ele>74.984500965444</ele>
        <time>2020-11-25T13:37:20.999+01:00</time>
      </trkpt>
      <trkpt lat="43.68068" lon="4.08745">
        <ele>74.997418349534</ele>
        <time>2020-11-25T13:37:21.999+01:00</time>
      </trkpt>
      <trkpt lat="43.68069" lon="4.08744">
        <ele>75.010467390233</ele>
        <time>2020-11-25T13:37:22.999+01:00</time>
      </trkpt>
      <trkpt lat="43.6807" lon="4.08744">
        <ele>75.023940797626</ele>
        <time>2020-11-25T13:37:23.999+01:00</time>
      </trkpt>
      <trkpt lat="43.68071" lon="4.08743">
        <ele>75.037967292506</ele>
        <time>2020-11-25T13:37:24.999+01:00</time>
      </trkpt>
      <trkpt lat="43.68072" lon="4.08743">
        <ele>75.052004212067</ele>
        <time>2020-11-25T13:37:25.999+01:00</time>
      </trkpt>
      <trkpt lat="43.68073" lon="4.08742">
        <ele>75.066597036144</ele>
        <time>2020-11-25T13:37:26.999+01:00</time>
      </trkpt>
      <trkpt lat="43.68074" lon="4.08742">
        <ele>75.081771956551</ele>
        <time>2020-11-25T13:37:27.999+01:00</time>
      </trkpt>
      <trkpt lat="43.68075" lon="4.08741">
        <ele>75.097609536342</ele>
        <time>2020-11-25T13:37:28.999+01:00</time>
      </trkpt>
      <trkpt lat="43.68076" lon="4.08741">
        <ele>75.113644209645</ele>
        <time>2020-11-25T13:37:29.999+01:00</time>
      </trkpt>
      <trkpt lat="43.68077" lon="4.08741">
        <ele>75.129847975823</ele>
        <time>2020-11-25T13:37:30.999+01:00</time>
      </trkpt>
      <trkpt lat="43.68078" lon="4.08741">
        <ele>75.146171653149</ele>
        <time>2020-11-25T13:37:31.999+01:00</time>
      </trkpt>
      <trkpt lat="43.68079" lon="4.0874">
        <ele>75.162569022075</ele>
        <time>2020-11-25T13:37:32.999+01:00</time>
      </trkpt>
      <trkpt lat="43.6808" lon="4.0874">
        <ele>75.17900132647</ele>
        <time>2020-11-25T13:37:33.999+01:00</time>
      </trkpt>
      <trkpt lat="43.68082" lon="4.0874">
        <ele>75.195496072928</ele>
        <time>2020-11-25T13:37:34.999+01:00</time>
      </trkpt>
      <trkpt lat="43.68083" lon="4.08739">
        <ele>75.212320555895</ele>
        <time>2020-11-25T13:37:35.999+01:00</time>
      </trkpt>
      <trkpt lat="43.68084" lon="4.08739">
        <ele>75.229066738284</ele>
        <time>2020-11-25T13:37:36.999+01:00</time>
      </trkpt>
      <trkpt lat="43.68084" lon="4.08739">
        <ele>75.245658140541</ele>
        <time>2020-11-25T13:37:37.999+01:00</time>
      </trkpt>
      <trkpt lat="43.68085" lon="4.08739">
        <ele>75.262190768591</ele>
        <time>2020-11-25T13:37:38.999+01:00</time>
      </trkpt>
      <trkpt lat="43.68085" lon="4.08739">
        <ele>75.278532485344</ele>
        <time>2020-11-25T13:37:39.999+01:00</time>
      </trkpt>
      <trkpt lat="43.68086" lon="4.08738">
        <ele>75.294703660519</ele>
        <time>2020-11-25T13:37:40.999+01:00</time>
      </trkpt>
      <trkpt lat="43.68086" lon="4.08738">
        <ele>75.310840240702</ele>
        <time>2020-11-25T13:37:41.999+01:00</time>
      </trkpt>
      <trkpt lat="43.68087" lon="4.08738">
        <ele>75.326926742674</ele>
        <time>2020-11-25T13:37:42.999+01:00</time>
      </trkpt>
      <trkpt lat="43.68087" lon="4.08739">
        <ele>75.342667755682</ele>
        <time>2020-11-25T13:37:43.999+01:00</time>
      </trkpt>
      <trkpt lat="43.68088" lon="4.0874">
        <ele>75.35813751647</ele>
        <time>2020-11-25T13:37:44.999+01:00</time>
      </trkpt>
      <trkpt lat="43.68088" lon="4.08741">
        <ele>75.373145453243</ele>
        <time>2020-11-25T13:37:45.999+01:00</time>
      </trkpt>
      <trkpt lat="43.68088" lon="4.08741">
        <ele>75.374602043261</ele>
        <time>2020-11-25T13:37:46.999+01:00</time>
      </trkpt>
      <trkpt lat="43.68088" lon="4.08741">
        <ele>75.376004708318</ele>
        <time>2020-11-25T13:37:47.999+01:00</time>
      </trkpt>
      <trkpt lat="43.68088" lon="4.08741">
        <ele>75.377371935902</ele>
        <time>2020-11-25T13:37:48.999+01:00</time>
      </trkpt>
      <trkpt lat="43.68088" lon="4.08741">
        <ele>75.378727552889</ele>
        <time>2020-11-25T13:37:49.999+01:00</time>
      </trkpt>
      <trkpt lat="43.68088" lon="4.08741">
        <ele>75.380076796825</ele>
        <time>2020-11-25T13:37:50.999+01:00</time>
      </trkpt>
      <trkpt lat="43.68088" lon="4.08741">
        <ele>75.381430915334</ele>
        <time>2020-11-25T13:37:51.999+01:00</time>
      </trkpt>
      <trkpt lat="43.68089" lon="4.08741">
        <ele>75.382790205632</ele>
        <time>2020-11-25T13:37:52.999+01:00</time>
      </trkpt>
      <trkpt lat="43.68089" lon="4.08741">
        <ele>75.384159186943</ele>
        <time>2020-11-25T13:37:53.999+01:00</time>
      </trkpt>
      <trkpt lat="43.68089" lon="4.08741">
        <ele>75.397284194016</ele>
        <time>2020-11-25T13:37:54.999+01:00</time>
      </trkpt>
      <trkpt lat="43.6809" lon="4.08742">
        <ele>75.409905118513</ele>
        <time>2020-11-25T13:37:55.999+01:00</time>
      </trkpt>
      <trkpt lat="43.6809" lon="4.08743">
        <ele>75.422540397448</ele>
        <time>2020-11-25T13:37:56.999+01:00</time>
      </trkpt>
      <trkpt lat="43.6809" lon="4.08744">
        <ele>75.43516283025</ele>
        <time>2020-11-25T13:37:57.999+01:00</time>
      </trkpt>
      <trkpt lat="43.68091" lon="4.08746">
        <ele>75.447711115816</ele>
        <time>2020-11-25T13:37:58.999+01:00</time>
      </trkpt>
      <trkpt lat="43.68091" lon="4.08747">
        <ele>75.460344454726</ele>
        <time>2020-11-25T13:37:59.999+01:00</time>
      </trkpt>
      <trkpt lat="43.68092" lon="4.08749">
        <ele>75.472983500365</ele>
        <time>2020-11-25T13:38:00.999+01:00</time>
      </trkpt>
      <trkpt lat="43.68093" lon="4.0875">
        <ele>75.48569199416</ele>
        <time>2020-11-25T13:38:01.999+01:00</time>
      </trkpt>
      <trkpt lat="43.68094" lon="4.08751">
        <ele>75.498408216338</ele>
        <time>2020-11-25T13:38:02.999+01:00</time>
      </trkpt>
      <trkpt lat="43.68094" lon="4.08753">
        <ele>75.511127620738</ele>
        <time>2020-11-25T13:38:03.999+01:00</time>
      </trkpt>
      <trkpt lat="43.68095" lon="4.08754">
        <ele>75.523735900792</ele>
        <time>2020-11-25T13:38:04.999+01:00</time>
      </trkpt>
      <trkpt lat="43.68096" lon="4.08755">
        <ele>75.536272350184</ele>
        <time>2020-11-25T13:38:05.999+01:00</time>
      </trkpt>
      <trkpt lat="43.68096" lon="4.08756">
        <ele>75.548802839883</ele>
        <time>2020-11-25T13:38:06.999+01:00</time>
      </trkpt>
      <trkpt lat="43.68097" lon="4.08758">
        <ele>75.56120874318</ele>
        <time>2020-11-25T13:38:07.999+01:00</time>
      </trkpt>
      <trkpt lat="43.68098" lon="4.08759">
        <ele>75.573539373613</ele>
        <time>2020-11-25T13:38:08.999+01:00</time>
      </trkpt>
      <trkpt lat="43.68099" lon="4.08761">
        <ele>75.58559450502</ele>
        <time>2020-11-25T13:38:09.999+01:00</time>
      </trkpt>
      <trkpt lat="43.68099" lon="4.08763">
        <ele>75.597357512795</ele>
        <time>2020-11-25T13:38:10.999+01:00</time>
      </trkpt>
      <trkpt lat="43.68099" lon="4.08765">
        <ele>75.609018969431</ele>
        <time>2020-11-25T13:38:11.999+01:00</time>
      </trkpt>
      <trkpt lat="43.681" lon="4.08766">
        <ele>75.620558928818</ele>
        <time>2020-11-25T13:38:12.999+01:00</time>
      </trkpt>
      <trkpt lat="43.68101" lon="4.08767">
        <ele>75.632040273625</ele>
        <time>2020-11-25T13:38:13.999+01:00</time>
      </trkpt>
      <trkpt lat="43.68101" lon="4.08769">
        <ele>75.643467306965</ele>
        <time>2020-11-25T13:38:14.999+01:00</time>
      </trkpt>
      <trkpt lat="43.68102" lon="4.0877">
        <ele>75.654813632111</ele>
        <time>2020-11-25T13:38:15.999+01:00</time>
      </trkpt>
      <trkpt lat="43.68102" lon="4.08772">
        <ele>75.665994652137</ele>
        <time>2020-11-25T13:38:16.999+01:00</time>
      </trkpt>
      <trkpt lat="43.68102" lon="4.08773">
        <ele>75.6771423942</ele>
        <time>2020-11-25T13:38:17.999+01:00</time>
      </trkpt>
      <trkpt lat="43.68103" lon="4.08775">
        <ele>75.688302493841</ele>
        <time>2020-11-25T13:38:18.999+01:00</time>
      </trkpt>
      <trkpt lat="43.68103" lon="4.08776">
        <ele>75.699454162201</ele>
        <time>2020-11-25T13:38:19.999+01:00</time>
      </trkpt>
      <trkpt lat="43.68104" lon="4.08778">
        <ele>75.710376480329</ele>
        <time>2020-11-25T13:38:20.999+01:00</time>
      </trkpt>
      <trkpt lat="43.68104" lon="4.0878">
        <ele>75.720996406231</ele>
        <time>2020-11-25T13:38:21.999+01:00</time>
      </trkpt>
      <trkpt lat="43.68104" lon="4.08782">
        <ele>75.731540549255</ele>
        <time>2020-11-25T13:38:22.999+01:00</time>
      </trkpt>
      <trkpt lat="43.68104" lon="4.08783">
        <ele>75.741879461909</ele>
        <time>2020-11-25T13:38:23.999+01:00</time>
      </trkpt>
      <trkpt lat="43.68105" lon="4.08785">
        <ele>75.752015864582</ele>
        <time>2020-11-25T13:38:24.999+01:00</time>
      </trkpt>
      <trkpt lat="43.68105" lon="4.08787">
        <ele>75.762044271535</ele>
        <time>2020-11-25T13:38:25.999+01:00</time>
      </trkpt>
      <trkpt lat="43.68105" lon="4.08788">
        <ele>75.772022588082</ele>
        <time>2020-11-25T13:38:26.999+01:00</time>
      </trkpt>
      <trkpt lat="43.68105" lon="4.0879">
        <ele>75.782006888861</ele>
        <time>2020-11-25T13:38:27.999+01:00</time>
      </trkpt>
      <trkpt lat="43.68105" lon="4.08791">
        <ele>75.7920047032</ele>
        <time>2020-11-25T13:38:28.999+01:00</time>
      </trkpt>
      <trkpt lat="43.68105" lon="4.08793">
        <ele>75.801868993208</ele>
        <time>2020-11-25T13:38:29.999+01:00</time>
      </trkpt>
      <trkpt lat="43.68105" lon="4.08795">
        <ele>75.811467140804</ele>
        <time>2020-11-25T13:38:30.999+01:00</time>
      </trkpt>
      <trkpt lat="43.68105" lon="4.08797">
        <ele>75.820961805348</ele>
        <time>2020-11-25T13:38:31.999+01:00</time>
      </trkpt>
      <trkpt lat="43.68105" lon="4.08798">
        <ele>75.83018632617</ele>
        <time>2020-11-25T13:38:32.999+01:00</time>
      </trkpt>
      <trkpt lat="43.68105" lon="4.088">
        <ele>75.839152647182</ele>
        <time>2020-11-25T13:38:33.999+01:00</time>
      </trkpt>
      <trkpt lat="43.68105" lon="4.08802">
        <ele>75.848225353448</ele>
        <time>2020-11-25T13:38:34.999+01:00</time>
      </trkpt>
      <trkpt lat="43.68106" lon="4.08804">
        <ele>75.857253588431</ele>
        <time>2020-11-25T13:38:35.999+01:00</time>
      </trkpt>
      <trkpt lat="43.68106" lon="4.08805">
        <ele>75.866344529388</ele>
        <time>2020-11-25T13:38:36.999+01:00</time>
      </trkpt>
      <trkpt lat="43.68107" lon="4.08807">
        <ele>75.87559262487</ele>
        <time>2020-11-25T13:38:37.999+01:00</time>
      </trkpt>
      <trkpt lat="43.68107" lon="4.08808">
        <ele>75.88487485864</ele>
        <time>2020-11-25T13:38:38.999+01:00</time>
      </trkpt>
      <trkpt lat="43.68108" lon="4.0881">
        <ele>75.894339027973</ele>
        <time>2020-11-25T13:38:39.999+01:00</time>
      </trkpt>
      <trkpt lat="43.68108" lon="4.08811">
        <ele>75.903725358339</ele>
        <time>2020-11-25T13:38:40.999+01:00</time>
      </trkpt>
      <trkpt lat="43.68109" lon="4.08813">
        <ele>75.913076621437</ele>
        <time>2020-11-25T13:38:41.999+01:00</time>
      </trkpt>
      <trkpt lat="43.68109" lon="4.08814">
        <ele>75.922382762822</ele>
        <time>2020-11-25T13:38:42.999+01:00</time>
      </trkpt>
      <trkpt lat="43.68109" lon="4.08816">
        <ele>75.931559872788</ele>
        <time>2020-11-25T13:38:43.999+01:00</time>
      </trkpt>
      <trkpt lat="43.6811" lon="4.08817">
        <ele>75.940735161075</ele>
        <time>2020-11-25T13:38:44.999+01:00</time>
      </trkpt>
      <trkpt lat="43.6811" lon="4.08819">
        <ele>75.949822945544</ele>
        <time>2020-11-25T13:38:45.999+01:00</time>
      </trkpt>
      <trkpt lat="43.68111" lon="4.08821">
        <ele>75.958910583421</ele>
        <time>2020-11-25T13:38:46.999+01:00</time>
      </trkpt>
      <trkpt lat="43.68111" lon="4.08822">
        <ele>75.968192233009</ele>
        <time>2020-11-25T13:38:47.999+01:00</time>
      </trkpt>
      <trkpt lat="43.68112" lon="4.08824">
        <ele>75.97743543443</ele>
        <time>2020-11-25T13:38:48.999+01:00</time>
      </trkpt>
      <trkpt lat="43.68112" lon="4.08825">
        <ele>75.986607622343</ele>
        <time>2020-11-25T13:38:49.999+01:00</time>
      </trkpt>
      <trkpt lat="43.68113" lon="4.08826">
        <ele>75.995840007964</ele>
        <time>2020-11-25T13:38:50.999+01:00</time>
      </trkpt>
      <trkpt lat="43.68113" lon="4.08828">
        <ele>76.005142303908</ele>
        <time>2020-11-25T13:38:51.999+01:00</time>
      </trkpt>
      <trkpt lat="43.68114" lon="4.08829">
        <ele>76.014310770214</ele>
        <time>2020-11-25T13:38:52.999+01:00</time>
      </trkpt>
      <trkpt lat="43.68114" lon="4.08831">
        <ele>76.023445414672</ele>
        <time>2020-11-25T13:38:53.999+01:00</time>
      </trkpt>
      <trkpt lat="43.68115" lon="4.08832">
        <ele>76.032509008631</ele>
        <time>2020-11-25T13:38:54.999+01:00</time>
      </trkpt>
      <trkpt lat="43.68115" lon="4.08834">
        <ele>76.041712004887</ele>
        <time>2020-11-25T13:38:55.999+01:00</time>
      </trkpt>
      <trkpt lat="43.68115" lon="4.08835">
        <ele>76.050752180474</ele>
        <time>2020-11-25T13:38:56.999+01:00</time>
      </trkpt>
      <trkpt lat="43.68115" lon="4.08836">
        <ele>76.059557921124</ele>
        <time>2020-11-25T13:38:57.999+01:00</time>
      </trkpt>
      <trkpt lat="43.68115" lon="4.08837">
        <ele>76.068297915746</ele>
        <time>2020-11-25T13:38:58.999+01:00</time>
      </trkpt>
      <trkpt lat="43.68116" lon="4.08838">
        <ele>76.076909197299</ele>
        <time>2020-11-25T13:38:59.999+01:00</time>
      </trkpt>
      <trkpt lat="43.68116" lon="4.08839">
        <ele>76.085552405188</ele>
        <time>2020-11-25T13:39:00.999+01:00</time>
      </trkpt>
      <trkpt lat="43.68117" lon="4.0884">
        <ele>76.094179867811</ele>
        <time>2020-11-25T13:39:01.999+01:00</time>
      </trkpt>
      <trkpt lat="43.68117" lon="4.08842">
        <ele>76.102916217316</ele>
        <time>2020-11-25T13:39:02.999+01:00</time>
      </trkpt>
      <trkpt lat="43.68118" lon="4.08843">
        <ele>76.111637072089</ele>
        <time>2020-11-25T13:39:03.999+01:00</time>
      </trkpt>
      <trkpt lat="43.68118" lon="4.08845">
        <ele>76.120542210913</ele>
        <time>2020-11-25T13:39:04.999+01:00</time>
      </trkpt>
      <trkpt lat="43.68118" lon="4.08846">
        <ele>76.129403412824</ele>
        <time>2020-11-25T13:39:05.999+01:00</time>
      </trkpt>
      <trkpt lat="43.68119" lon="4.08848">
        <ele>76.138284334421</ele>
        <time>2020-11-25T13:39:06.999+01:00</time>
      </trkpt>
      <trkpt lat="43.68119" lon="4.08849">
        <ele>76.147187624417</ele>
        <time>2020-11-25T13:39:07.999+01:00</time>
      </trkpt>
      <trkpt lat="43.68119" lon="4.0885">
        <ele>76.156166040369</ele>
        <time>2020-11-25T13:39:08.999+01:00</time>
      </trkpt>
      <trkpt lat="43.68119" lon="4.08851">
        <ele>76.165284622295</ele>
        <time>2020-11-25T13:39:09.999+01:00</time>
      </trkpt>
      <trkpt lat="43.68119" lon="4.08853">
        <ele>76.174395996353</ele>
        <time>2020-11-25T13:39:10.999+01:00</time>
      </trkpt>
      <trkpt lat="43.6812" lon="4.08855">
        <ele>76.183344491655</ele>
        <time>2020-11-25T13:39:11.999+01:00</time>
      </trkpt>
      <trkpt lat="43.6812" lon="4.08857">
        <ele>76.192422234378</ele>
        <time>2020-11-25T13:39:12.999+01:00</time>
      </trkpt>
      <trkpt lat="43.6812" lon="4.08859">
        <ele>76.201518092485</ele>
        <time>2020-11-25T13:39:13.999+01:00</time>
      </trkpt>
      <trkpt lat="43.68121" lon="4.08861">
        <ele>76.210500422595</ele>
        <time>2020-11-25T13:39:14.999+01:00</time>
      </trkpt>
      <trkpt lat="43.68121" lon="4.08863">
        <ele>76.219516045019</ele>
        <time>2020-11-25T13:39:15.999+01:00</time>
      </trkpt>
      <trkpt lat="43.68121" lon="4.08864">
        <ele>76.228521418514</ele>
        <time>2020-11-25T13:39:16.999+01:00</time>
      </trkpt>
      <trkpt lat="43.68121" lon="4.08865">
        <ele>76.237620341817</ele>
        <time>2020-11-25T13:39:17.999+01:00</time>
      </trkpt>
      <trkpt lat="43.68122" lon="4.08866">
        <ele>76.246864481433</ele>
        <time>2020-11-25T13:39:18.999+01:00</time>
      </trkpt>
      <trkpt lat="43.68122" lon="4.08868">
        <ele>76.256143024703</ele>
        <time>2020-11-25T13:39:19.999+01:00</time>
      </trkpt>
      <trkpt lat="43.68122" lon="4.08869">
        <ele>76.265391898569</ele>
        <time>2020-11-25T13:39:20.999+01:00</time>
      </trkpt>
      <trkpt lat="43.68123" lon="4.0887">
        <ele>76.274512182911</ele>
        <time>2020-11-25T13:39:21.999+01:00</time>
      </trkpt>
      <trkpt lat="43.68123" lon="4.08871">
        <ele>76.283601098715</ele>
        <time>2020-11-25T13:39:22.999+01:00</time>
      </trkpt>
      <trkpt lat="43.68123" lon="4.08873">
        <ele>76.292622710994</ele>
        <time>2020-11-25T13:39:23.999+01:00</time>
      </trkpt>
      <trkpt lat="43.68123" lon="4.08874">
        <ele>76.30176564737</ele>
        <time>2020-11-25T13:39:24.999+01:00</time>
      </trkpt>
      <trkpt lat="43.68123" lon="4.08875">
        <ele>76.311027049626</ele>
        <time>2020-11-25T13:39:25.999+01:00</time>
      </trkpt>
      <trkpt lat="43.68123" lon="4.08877">
        <ele>76.320327692579</ele>
        <time>2020-11-25T13:39:26.999+01:00</time>
      </trkpt>
      <trkpt lat="43.68123" lon="4.08878">
        <ele>76.329862497084</ele>
        <time>2020-11-25T13:39:27.999+01:00</time>
      </trkpt>
      <trkpt lat="43.68123" lon="4.08879">
        <ele>76.339435709776</ele>
        <time>2020-11-25T13:39:28.999+01:00</time>
      </trkpt>
      <trkpt lat="43.68123" lon="4.08881">
        <ele>76.349175135833</ele>
        <time>2020-11-25T13:39:29.999+01:00</time>
      </trkpt>
      <trkpt lat="43.68123" lon="4.08882">
        <ele>76.359061175914</ele>
        <time>2020-11-25T13:39:30.999+01:00</time>
      </trkpt>
      <trkpt lat="43.68123" lon="4.08884">
        <ele>76.36883704428</ele>
        <time>2020-11-25T13:39:31.999+01:00</time>
      </trkpt>
      <trkpt lat="43.68123" lon="4.08886">
        <ele>76.37869802957</ele>
        <time>2020-11-25T13:39:32.999+01:00</time>
      </trkpt>
      <trkpt lat="43.68123" lon="4.08887">
        <ele>76.388643265998</ele>
        <time>2020-11-25T13:39:33.999+01:00</time>
      </trkpt>
      <trkpt lat="43.68123" lon="4.08889">
        <ele>76.398722779164</ele>
        <time>2020-11-25T13:39:34.999+01:00</time>
      </trkpt>
      <trkpt lat="43.68123" lon="4.0889">
        <ele>76.408718958021</ele>
        <time>2020-11-25T13:39:35.999+01:00</time>
      </trkpt>
      <trkpt lat="43.68124" lon="4.08891">
        <ele>76.418606193283</ele>
        <time>2020-11-25T13:39:36.999+01:00</time>
      </trkpt>
      <trkpt lat="43.68123" lon="4.08893">
        <ele>76.428614119065</ele>
        <time>2020-11-25T13:39:37.999+01:00</time>
      </trkpt>
      <trkpt lat="43.68124" lon="4.08895">
        <ele>76.438689951809</ele>
        <time>2020-11-25T13:39:38.999+01:00</time>
      </trkpt>
      <trkpt lat="43.68124" lon="4.08896">
        <ele>76.448789372809</ele>
        <time>2020-11-25T13:39:39.999+01:00</time>
      </trkpt>
      <trkpt lat="43.68124" lon="4.08898">
        <ele>76.458901603428</ele>
        <time>2020-11-25T13:39:40.999+01:00</time>
      </trkpt>
      <trkpt lat="43.68125" lon="4.089">
        <ele>76.469142288023</ele>
        <time>2020-11-25T13:39:41.999+01:00</time>
      </trkpt>
      <trkpt lat="43.68125" lon="4.08902">
        <ele>76.47947697781</ele>
        <time>2020-11-25T13:39:42.999+01:00</time>
      </trkpt>
      <trkpt lat="43.68125" lon="4.08904">
        <ele>76.489770019566</ele>
        <time>2020-11-25T13:39:43.999+01:00</time>
      </trkpt>
      <trkpt lat="43.68126" lon="4.08905">
        <ele>76.499954650446</ele>
        <time>2020-11-25T13:39:44.999+01:00</time>
      </trkpt>
      <trkpt lat="43.68126" lon="4.08907">
        <ele>76.510087240738</ele>
        <time>2020-11-25T13:39:45.999+01:00</time>
      </trkpt>
      <trkpt lat="43.68126" lon="4.08908">
        <ele>76.520152976236</ele>
        <time>2020-11-25T13:39:46.999+01:00</time>
      </trkpt>
      <trkpt lat="43.68127" lon="4.0891">
        <ele>76.5302282944</ele>
        <time>2020-11-25T13:39:47.999+01:00</time>
      </trkpt>
      <trkpt lat="43.68127" lon="4.08911">
        <ele>76.540143476244</ele>
        <time>2020-11-25T13:39:48.999+01:00</time>
      </trkpt>
      <trkpt lat="43.68127" lon="4.08913">
        <ele>76.549884934763</ele>
        <time>2020-11-25T13:39:49.999+01:00</time>
      </trkpt>
      <trkpt lat="43.68127" lon="4.08914">
        <ele>76.559444999894</ele>
        <time>2020-11-25T13:39:50.999+01:00</time>
      </trkpt>
      <trkpt lat="43.68127" lon="4.08916">
        <ele>76.568949422323</ele>
        <time>2020-11-25T13:39:51.999+01:00</time>
      </trkpt>
      <trkpt lat="43.68127" lon="4.08917">
        <ele>76.578367422916</ele>
        <time>2020-11-25T13:39:52.999+01:00</time>
      </trkpt>
      <trkpt lat="43.68127" lon="4.08919">
        <ele>76.58760973151</ele>
        <time>2020-11-25T13:39:53.999+01:00</time>
      </trkpt>
      <trkpt lat="43.68128" lon="4.0892">
        <ele>76.596715346136</ele>
        <time>2020-11-25T13:39:54.999+01:00</time>
      </trkpt>
      <trkpt lat="43.68128" lon="4.08922">
        <ele>76.605861765963</ele>
        <time>2020-11-25T13:39:55.999+01:00</time>
      </trkpt>
      <trkpt lat="43.68128" lon="4.08923">
        <ele>76.614958510598</ele>
        <time>2020-11-25T13:39:56.999+01:00</time>
      </trkpt>
      <trkpt lat="43.68129" lon="4.08925">
        <ele>76.623888423921</ele>
        <time>2020-11-25T13:39:57.999+01:00</time>
      </trkpt>
      <trkpt lat="43.68129" lon="4.08926">
        <ele>76.632717626289</ele>
        <time>2020-11-25T13:39:58.999+01:00</time>
      </trkpt>
      <trkpt lat="43.6813" lon="4.08928">
        <ele>76.641314797265</ele>
        <time>2020-11-25T13:39:59.999+01:00</time>
      </trkpt>
      <trkpt lat="43.6813" lon="4.0893">
        <ele>76.649659272822</ele>
        <time>2020-11-25T13:40:00.999+01:00</time>
      </trkpt>
      <trkpt lat="43.68131" lon="4.08931">
        <ele>76.657904132584</ele>
        <time>2020-11-25T13:40:01.999+01:00</time>
      </trkpt>
      <trkpt lat="43.68131" lon="4.08933">
        <ele>76.666016609406</ele>
        <time>2020-11-25T13:40:02.999+01:00</time>
      </trkpt>
      <trkpt lat="43.68131" lon="4.08935">
        <ele>76.674038675597</ele>
        <time>2020-11-25T13:40:03.999+01:00</time>
      </trkpt>
      <trkpt lat="43.68132" lon="4.08936">
        <ele>76.681871441134</ele>
        <time>2020-11-25T13:40:04.999+01:00</time>
      </trkpt>
      <trkpt lat="43.68132" lon="4.08938">
        <ele>76.689640101732</ele>
        <time>2020-11-25T13:40:05.999+01:00</time>
      </trkpt>
      <trkpt lat="43.68132" lon="4.08939">
        <ele>76.697365568928</ele>
        <time>2020-11-25T13:40:06.999+01:00</time>
      </trkpt>
      <trkpt lat="43.68133" lon="4.08941">
        <ele>76.704979900902</ele>
        <time>2020-11-25T13:40:07.999+01:00</time>
      </trkpt>
      <trkpt lat="43.68134" lon="4.08942">
        <ele>76.712499697043</ele>
        <time>2020-11-25T13:40:08.999+01:00</time>
      </trkpt>
      <trkpt lat="43.68135" lon="4.08944">
        <ele>76.719935910201</ele>
        <time>2020-11-25T13:40:09.999+01:00</time>
      </trkpt>
      <trkpt lat="43.68135" lon="4.08946">
        <ele>76.727270644529</ele>
        <time>2020-11-25T13:40:10.999+01:00</time>
      </trkpt>
      <trkpt lat="43.68136" lon="4.08948">
        <ele>76.734565461317</ele>
        <time>2020-11-25T13:40:11.999+01:00</time>
      </trkpt>
      <trkpt lat="43.68136" lon="4.08949">
        <ele>76.741692221399</ele>
        <time>2020-11-25T13:40:12.999+01:00</time>
      </trkpt>
      <trkpt lat="43.68136" lon="4.08951">
        <ele>76.748689763672</ele>
        <time>2020-11-25T13:40:13.999+01:00</time>
      </trkpt>
      <trkpt lat="43.68136" lon="4.08953">
        <ele>76.755436732063</ele>
        <time>2020-11-25T13:40:14.999+01:00</time>
      </trkpt>
      <trkpt lat="43.68137" lon="4.08955">
        <ele>76.762111745674</ele>
        <time>2020-11-25T13:40:15.999+01:00</time>
      </trkpt>
      <trkpt lat="43.68137" lon="4.08956">
        <ele>76.768651054156</ele>
        <time>2020-11-25T13:40:16.999+01:00</time>
      </trkpt>
      <trkpt lat="43.68137" lon="4.08957">
        <ele>76.775120048993</ele>
        <time>2020-11-25T13:40:17.999+01:00</time>
      </trkpt>
      <trkpt lat="43.68137" lon="4.08959">
        <ele>76.78141866008</ele>
        <time>2020-11-25T13:40:18.999+01:00</time>
      </trkpt>
      <trkpt lat="43.68138" lon="4.0896">
        <ele>76.787445898935</ele>
        <time>2020-11-25T13:40:19.999+01:00</time>
      </trkpt>
      <trkpt lat="43.68138" lon="4.08961">
        <ele>76.793448279175</ele>
        <time>2020-11-25T13:40:20.999+01:00</time>
      </trkpt>
      <trkpt lat="43.68138" lon="4.08963">
        <ele>76.799463168281</ele>
        <time>2020-11-25T13:40:21.999+01:00</time>
      </trkpt>
      <trkpt lat="43.68139" lon="4.08965">
        <ele>76.805478478326</ele>
        <time>2020-11-25T13:40:22.999+01:00</time>
      </trkpt>
      <trkpt lat="43.68139" lon="4.08966">
        <ele>76.811382046936</ele>
        <time>2020-11-25T13:40:23.999+01:00</time>
      </trkpt>
      <trkpt lat="43.6814" lon="4.08968">
        <ele>76.817321661119</ele>
        <time>2020-11-25T13:40:24.999+01:00</time>
      </trkpt>
      <trkpt lat="43.6814" lon="4.08969">
        <ele>76.823248964429</ele>
        <time>2020-11-25T13:40:25.999+01:00</time>
      </trkpt>
      <trkpt lat="43.6814" lon="4.08971">
        <ele>76.829093764947</ele>
        <time>2020-11-25T13:40:26.999+01:00</time>
      </trkpt>
      <trkpt lat="43.6814" lon="4.08972">
        <ele>76.834680125365</ele>
        <time>2020-11-25T13:40:27.999+01:00</time>
      </trkpt>
      <trkpt lat="43.68141" lon="4.08973">
        <ele>76.840095685605</ele>
        <time>2020-11-25T13:40:28.999+01:00</time>
      </trkpt>
      <trkpt lat="43.68141" lon="4.08975">
        <ele>76.845467855173</ele>
        <time>2020-11-25T13:40:29.999+01:00</time>
      </trkpt>
      <trkpt lat="43.68141" lon="4.08976">
        <ele>76.850588268896</ele>
        <time>2020-11-25T13:40:30.999+01:00</time>
      </trkpt>
      <trkpt lat="43.68141" lon="4.08978">
        <ele>76.855637150819</ele>
        <time>2020-11-25T13:40:31.999+01:00</time>
      </trkpt>
      <trkpt lat="43.68142" lon="4.08979">
        <ele>76.860731962798</ele>
        <time>2020-11-25T13:40:32.999+01:00</time>
      </trkpt>
      <trkpt lat="43.68142" lon="4.0898">
        <ele>76.865774064265</ele>
        <time>2020-11-25T13:40:33.999+01:00</time>
      </trkpt>
      <trkpt lat="43.68142" lon="4.08982">
        <ele>76.870753335672</ele>
        <time>2020-11-25T13:40:34.999+01:00</time>
      </trkpt>
      <trkpt lat="43.68142" lon="4.08983">
        <ele>76.87565757344</ele>
        <time>2020-11-25T13:40:35.999+01:00</time>
      </trkpt>
      <trkpt lat="43.68143" lon="4.08985">
        <ele>76.880560911648</ele>
        <time>2020-11-25T13:40:36.999+01:00</time>
      </trkpt>
      <trkpt lat="43.68143" lon="4.08986">
        <ele>76.885530219512</ele>
        <time>2020-11-25T13:40:37.999+01:00</time>
      </trkpt>
      <trkpt lat="43.68143" lon="4.08987">
        <ele>76.890499076794</ele>
        <time>2020-11-25T13:40:38.999+01:00</time>
      </trkpt>
      <trkpt lat="43.68144" lon="4.08988">
        <ele>76.895662476805</ele>
        <time>2020-11-25T13:40:39.999+01:00</time>
      </trkpt>
      <trkpt lat="43.68145" lon="4.0899">
        <ele>76.901010013317</ele>
        <time>2020-11-25T13:40:40.999+01:00</time>
      </trkpt>
      <trkpt lat="43.68145" lon="4.08991">
        <ele>76.906449608184</ele>
        <time>2020-11-25T13:40:41.999+01:00</time>
      </trkpt>
      <trkpt lat="43.68146" lon="4.08993">
        <ele>76.912164489277</ele>
        <time>2020-11-25T13:40:42.999+01:00</time>
      </trkpt>
      <trkpt lat="43.68146" lon="4.08994">
        <ele>76.917948961361</ele>
        <time>2020-11-25T13:40:43.999+01:00</time>
      </trkpt>
      <trkpt lat="43.68147" lon="4.08995">
        <ele>76.923761770026</ele>
        <time>2020-11-25T13:40:44.999+01:00</time>
      </trkpt>
      <trkpt lat="43.68147" lon="4.08997">
        <ele>76.929615847388</ele>
        <time>2020-11-25T13:40:45.999+01:00</time>
      </trkpt>
      <trkpt lat="43.68148" lon="4.08998">
        <ele>76.935349927557</ele>
        <time>2020-11-25T13:40:46.999+01:00</time>
      </trkpt>
      <trkpt lat="43.68148" lon="4.09">
        <ele>76.94090414151</ele>
        <time>2020-11-25T13:40:47.999+01:00</time>
      </trkpt>
      <trkpt lat="43.68148" lon="4.09002">
        <ele>76.94644666089</ele>
        <time>2020-11-25T13:40:48.999+01:00</time>
      </trkpt>
      <trkpt lat="43.68148" lon="4.09003">
        <ele>76.951813784654</ele>
        <time>2020-11-25T13:40:49.999+01:00</time>
      </trkpt>
      <trkpt lat="43.68148" lon="4.09005">
        <ele>76.95703269617</ele>
        <time>2020-11-25T13:40:50.999+01:00</time>
      </trkpt>
      <trkpt lat="43.68149" lon="4.09007">
        <ele>76.961975505294</ele>
        <time>2020-11-25T13:40:51.999+01:00</time>
      </trkpt>
      <trkpt lat="43.68149" lon="4.09009">
        <ele>76.966677212983</ele>
        <time>2020-11-25T13:40:52.999+01:00</time>
      </trkpt>
      <trkpt lat="43.68149" lon="4.09011">
        <ele>76.971121383901</ele>
        <time>2020-11-25T13:40:53.999+01:00</time>
      </trkpt>
      <trkpt lat="43.68149" lon="4.09013">
        <ele>76.975144826202</ele>
        <time>2020-11-25T13:40:54.999+01:00</time>
      </trkpt>
      <trkpt lat="43.6815" lon="4.09015">
        <ele>76.978922240331</ele>
        <time>2020-11-25T13:40:55.999+01:00</time>
      </trkpt>
      <trkpt lat="43.6815" lon="4.09016">
        <ele>76.982759014539</ele>
        <time>2020-11-25T13:40:56.999+01:00</time>
      </trkpt>
      <trkpt lat="43.6815" lon="4.09018">
        <ele>76.986573029206</ele>
        <time>2020-11-25T13:40:57.999+01:00</time>
      </trkpt>
      <trkpt lat="43.68151" lon="4.09019">
        <ele>76.990452635052</ele>
        <time>2020-11-25T13:40:58.999+01:00</time>
      </trkpt>
      <trkpt lat="43.68151" lon="4.0902">
        <ele>76.99430546285</ele>
        <time>2020-11-25T13:40:59.999+01:00</time>
      </trkpt>
      <trkpt lat="43.68152" lon="4.09022">
        <ele>76.998368651159</ele>
        <time>2020-11-25T13:41:00.999+01:00</time>
      </trkpt>
      <trkpt lat="43.68152" lon="4.09024">
        <ele>77.002519840592</ele>
        <time>2020-11-25T13:41:01.999+01:00</time>
      </trkpt>
      <trkpt lat="43.68153" lon="4.09025">
        <ele>77.006689282529</ele>
        <time>2020-11-25T13:41:02.999+01:00</time>
      </trkpt>
      <trkpt lat="43.68153" lon="4.09027">
        <ele>77.010775711506</ele>
        <time>2020-11-25T13:41:03.999+01:00</time>
      </trkpt>
      <trkpt lat="43.68153" lon="4.09028">
        <ele>77.0150855949</ele>
        <time>2020-11-25T13:41:04.999+01:00</time>
      </trkpt>
      <trkpt lat="43.68154" lon="4.0903">
        <ele>77.019592196262</ele>
        <time>2020-11-25T13:41:05.999+01:00</time>
      </trkpt>
      <trkpt lat="43.68154" lon="4.09031">
        <ele>77.024114441749</ele>
        <time>2020-11-25T13:41:06.999+01:00</time>
      </trkpt>
      <trkpt lat="43.68155" lon="4.09033">
        <ele>77.02877732321</ele>
        <time>2020-11-25T13:41:07.999+01:00</time>
      </trkpt>
      <trkpt lat="43.68155" lon="4.09034">
        <ele>77.033272085766</ele>
        <time>2020-11-25T13:41:08.999+01:00</time>
      </trkpt>
      <trkpt lat="43.68156" lon="4.09035">
        <ele>77.037762371798</ele>
        <time>2020-11-25T13:41:09.999+01:00</time>
      </trkpt>
      <trkpt lat="43.68156" lon="4.09037">
        <ele>77.042248099634</ele>
        <time>2020-11-25T13:41:10.999+01:00</time>
      </trkpt>
      <trkpt lat="43.68156" lon="4.09039">
        <ele>77.046806668164</ele>
        <time>2020-11-25T13:41:11.999+01:00</time>
      </trkpt>
      <trkpt lat="43.68156" lon="4.09042">
        <ele>77.051422130376</ele>
        <time>2020-11-25T13:41:12.999+01:00</time>
      </trkpt>
      <trkpt lat="43.68156" lon="4.09044">
        <ele>77.056165736172</ele>
        <time>2020-11-25T13:41:13.999+01:00</time>
      </trkpt>
      <trkpt lat="43.68156" lon="4.09046">
        <ele>77.060996658636</ele>
        <time>2020-11-25T13:41:14.999+01:00</time>
      </trkpt>
      <trkpt lat="43.68156" lon="4.09048">
        <ele>77.06585104355</ele>
        <time>2020-11-25T13:41:15.999+01:00</time>
      </trkpt>
      <trkpt lat="43.68156" lon="4.0905">
        <ele>77.070812606278</ele>
        <time>2020-11-25T13:41:16.999+01:00</time>
      </trkpt>
      <trkpt lat="43.68156" lon="4.09052">
        <ele>77.075688694078</ele>
        <time>2020-11-25T13:41:17.999+01:00</time>
      </trkpt>
      <trkpt lat="43.68156" lon="4.09054">
        <ele>77.080549144628</ele>
        <time>2020-11-25T13:41:18.999+01:00</time>
      </trkpt>
      <trkpt lat="43.68157" lon="4.09055">
        <ele>77.085407993682</ele>
        <time>2020-11-25T13:41:19.999+01:00</time>
      </trkpt>
      <trkpt lat="43.68157" lon="4.09057">
        <ele>77.090135812258</ele>
        <time>2020-11-25T13:41:20.999+01:00</time>
      </trkpt>
      <trkpt lat="43.68157" lon="4.09058">
        <ele>77.094989645164</ele>
        <time>2020-11-25T13:41:21.999+01:00</time>
      </trkpt>
      <trkpt lat="43.68157" lon="4.0906">
        <ele>77.099786894925</ele>
        <time>2020-11-25T13:41:22.999+01:00</time>
      </trkpt>
      <trkpt lat="43.68157" lon="4.09061">
        <ele>77.10456011179</ele>
        <time>2020-11-25T13:41:23.999+01:00</time>
      </trkpt>
      <trkpt lat="43.68158" lon="4.09062">
        <ele>77.109269921901</ele>
        <time>2020-11-25T13:41:24.999+01:00</time>
      </trkpt>
      <trkpt lat="43.68158" lon="4.09064">
        <ele>77.11408571648</ele>
        <time>2020-11-25T13:41:25.999+01:00</time>
      </trkpt>
      <trkpt lat="43.68158" lon="4.09065">
        <ele>77.118726153297</ele>
        <time>2020-11-25T13:41:26.999+01:00</time>
      </trkpt>
      <trkpt lat="43.68158" lon="4.09066">
        <ele>77.123614950456</ele>
        <time>2020-11-25T13:41:27.999+01:00</time>
      </trkpt>
      <trkpt lat="43.68159" lon="4.09068">
        <ele>77.128547418528</ele>
        <time>2020-11-25T13:41:28.999+01:00</time>
      </trkpt>
      <trkpt lat="43.68159" lon="4.09069">
        <ele>77.13349048292</ele>
        <time>2020-11-25T13:41:29.999+01:00</time>
      </trkpt>
      <trkpt lat="43.6816" lon="4.09071">
        <ele>77.138628139927</ele>
        <time>2020-11-25T13:41:30.999+01:00</time>
      </trkpt>
      <trkpt lat="43.6816" lon="4.09072">
        <ele>77.14389405226</ele>
        <time>2020-11-25T13:41:31.999+01:00</time>
      </trkpt>
      <trkpt lat="43.6816" lon="4.09073">
        <ele>77.149241440508</ele>
        <time>2020-11-25T13:41:32.999+01:00</time>
      </trkpt>
      <trkpt lat="43.6816" lon="4.09073">
        <ele>77.154689173391</ele>
        <time>2020-11-25T13:41:33.999+01:00</time>
      </trkpt>
      <trkpt lat="43.6816" lon="4.09073">
        <ele>77.160371251811</ele>
        <time>2020-11-25T13:41:34.999+01:00</time>
      </trkpt>
      <trkpt lat="43.68161" lon="4.09073">
        <ele>77.166158879244</ele>
        <time>2020-11-25T13:41:35.999+01:00</time>
      </trkpt>
      <trkpt lat="43.68162" lon="4.09073">
        <ele>77.172054708543</ele>
        <time>2020-11-25T13:41:36.999+01:00</time>
      </trkpt>
      <trkpt lat="43.68162" lon="4.09073">
        <ele>77.17797509577</ele>
        <time>2020-11-25T13:41:37.999+01:00</time>
      </trkpt>
      <trkpt lat="43.68163" lon="4.09073">
        <ele>77.183845227292</ele>
        <time>2020-11-25T13:41:38.999+01:00</time>
      </trkpt>
      <trkpt lat="43.68163" lon="4.09073">
        <ele>77.189747501405</ele>
        <time>2020-11-25T13:41:39.999+01:00</time>
      </trkpt>
      <trkpt lat="43.68164" lon="4.09073">
        <ele>77.195705988409</ele>
        <time>2020-11-25T13:41:40.999+01:00</time>
      </trkpt>
      <trkpt lat="43.68165" lon="4.09072">
        <ele>77.20177994813</ele>
        <time>2020-11-25T13:41:41.999+01:00</time>
      </trkpt>
      <trkpt lat="43.68165" lon="4.09071">
        <ele>77.207881607187</ele>
        <time>2020-11-25T13:41:42.999+01:00</time>
      </trkpt>
      <trkpt lat="43.68166" lon="4.09071">
        <ele>77.213992347063</ele>
        <time>2020-11-25T13:41:43.999+01:00</time>
      </trkpt>
      <trkpt lat="43.68166" lon="4.0907">
        <ele>77.220198239773</ele>
        <time>2020-11-25T13:41:44.999+01:00</time>
      </trkpt>
      <trkpt lat="43.68167" lon="4.09069">
        <ele>77.2264952623</ele>
        <time>2020-11-25T13:41:45.999+01:00</time>
      </trkpt>
      <trkpt lat="43.68167" lon="4.09069">
        <ele>77.232790374685</ele>
        <time>2020-11-25T13:41:46.999+01:00</time>
      </trkpt>
      <trkpt lat="43.68168" lon="4.09068">
        <ele>77.239112956702</ele>
        <time>2020-11-25T13:41:47.999+01:00</time>
      </trkpt>
      <trkpt lat="43.68168" lon="4.09068">
        <ele>77.245427200724</ele>
        <time>2020-11-25T13:41:48.999+01:00</time>
      </trkpt>
      <trkpt lat="43.68169" lon="4.09067">
        <ele>77.25174739443</ele>
        <time>2020-11-25T13:41:49.999+01:00</time>
      </trkpt>
      <trkpt lat="43.6817" lon="4.09067">
        <ele>77.257982803731</ele>
        <time>2020-11-25T13:41:50.999+01:00</time>
      </trkpt>
      <trkpt lat="43.6817" lon="4.09067">
        <ele>77.264127059297</ele>
        <time>2020-11-25T13:41:51.999+01:00</time>
      </trkpt>
      <trkpt lat="43.6817" lon="4.09066">
        <ele>77.270259458773</ele>
        <time>2020-11-25T13:41:52.999+01:00</time>
      </trkpt>
      <trkpt lat="43.68171" lon="4.09066">
        <ele>77.276285461991</ele>
        <time>2020-11-25T13:41:53.999+01:00</time>
      </trkpt>
      <trkpt lat="43.68172" lon="4.09065">
        <ele>77.282233101504</ele>
        <time>2020-11-25T13:41:54.999+01:00</time>
      </trkpt>
      <trkpt lat="43.68174" lon="4.09064">
        <ele>77.288115533996</ele>
        <time>2020-11-25T13:41:55.999+01:00</time>
      </trkpt>
      <trkpt lat="43.68175" lon="4.09063">
        <ele>77.293781429035</ele>
        <time>2020-11-25T13:41:56.999+01:00</time>
      </trkpt>
      <trkpt lat="43.68176" lon="4.09061">
        <ele>77.299344983195</ele>
        <time>2020-11-25T13:41:57.999+01:00</time>
      </trkpt>
      <trkpt lat="43.68177" lon="4.0906">
        <ele>77.304647768762</ele>
        <time>2020-11-25T13:41:58.999+01:00</time>
      </trkpt>
      <trkpt lat="43.68178" lon="4.09059">
        <ele>77.309944847767</ele>
        <time>2020-11-25T13:41:59.999+01:00</time>
      </trkpt>
      <trkpt lat="43.68179" lon="4.09058">
        <ele>77.31530655487</ele>
        <time>2020-11-25T13:42:00.999+01:00</time>
      </trkpt>
      <trkpt lat="43.68179" lon="4.09058">
        <ele>77.320649729672</ele>
        <time>2020-11-25T13:42:01.999+01:00</time>
      </trkpt>
      <trkpt lat="43.6818" lon="4.09057">
        <ele>77.325843254894</ele>
        <time>2020-11-25T13:42:02.999+01:00</time>
      </trkpt>
      <trkpt lat="43.6818" lon="4.09057">
        <ele>77.330805920926</ele>
        <time>2020-11-25T13:42:03.999+01:00</time>
      </trkpt>
      <trkpt lat="43.68181" lon="4.09056">
        <ele>77.335723419358</ele>
        <time>2020-11-25T13:42:04.999+01:00</time>
      </trkpt>
      <trkpt lat="43.68182" lon="4.09055">
        <ele>77.340561703818</ele>
        <time>2020-11-25T13:42:05.999+01:00</time>
      </trkpt>
      <trkpt lat="43.68183" lon="4.09054">
        <ele>77.345300587029</ele>
        <time>2020-11-25T13:42:06.999+01:00</time>
      </trkpt>
      <trkpt lat="43.68183" lon="4.09053">
        <ele>77.349822555883</ele>
        <time>2020-11-25T13:42:07.999+01:00</time>
      </trkpt>
      <trkpt lat="43.68184" lon="4.09053">
        <ele>77.354250731943</ele>
        <time>2020-11-25T13:42:08.999+01:00</time>
      </trkpt>
      <trkpt lat="43.68185" lon="4.09052">
        <ele>77.358371524518</ele>
        <time>2020-11-25T13:42:09.999+01:00</time>
      </trkpt>
      <trkpt lat="43.68185" lon="4.09051">
        <ele>77.362330317379</ele>
        <time>2020-11-25T13:42:10.999+01:00</time>
      </trkpt>
      <trkpt lat="43.68186" lon="4.09051">
        <ele>77.366095458125</ele>
        <time>2020-11-25T13:42:11.999+01:00</time>
      </trkpt>
      <trkpt lat="43.68187" lon="4.09049">
        <ele>77.369915360882</ele>
        <time>2020-11-25T13:42:12.999+01:00</time>
      </trkpt>
      <trkpt lat="43.68188" lon="4.09048">
        <ele>77.373510086013</ele>
        <time>2020-11-25T13:42:13.999+01:00</time>
      </trkpt>
      <trkpt lat="43.6819" lon="4.09046">
        <ele>77.376727899877</ele>
        <time>2020-11-25T13:42:14.999+01:00</time>
      </trkpt>
      <trkpt lat="43.68191" lon="4.09044">
        <ele>77.379835417705</ele>
        <time>2020-11-25T13:42:15.999+01:00</time>
      </trkpt>
      <trkpt lat="43.68192" lon="4.09042">
        <ele>77.382771851251</ele>
        <time>2020-11-25T13:42:16.999+01:00</time>
      </trkpt>
      <trkpt lat="43.68193" lon="4.0904">
        <ele>77.385644450594</ele>
        <time>2020-11-25T13:42:17.999+01:00</time>
      </trkpt>
      <trkpt lat="43.68195" lon="4.0904">
        <ele>77.388265540995</ele>
        <time>2020-11-25T13:42:18.999+01:00</time>
      </trkpt>
      <trkpt lat="43.68196" lon="4.09039">
        <ele>77.390826302619</ele>
        <time>2020-11-25T13:42:19.999+01:00</time>
      </trkpt>
      <trkpt lat="43.68197" lon="4.09037">
        <ele>77.393308833429</ele>
        <time>2020-11-25T13:42:20.999+01:00</time>
      </trkpt>
      <trkpt lat="43.68199" lon="4.09036">
        <ele>77.395590037828</ele>
        <time>2020-11-25T13:42:21.999+01:00</time>
      </trkpt>
      <trkpt lat="43.682" lon="4.09035">
        <ele>77.397738606612</ele>
        <time>2020-11-25T13:42:22.999+01:00</time>
      </trkpt>
      <trkpt lat="43.68201" lon="4.09035">
        <ele>77.399797086692</ele>
        <time>2020-11-25T13:42:23.999+01:00</time>
      </trkpt>
      <trkpt lat="43.68202" lon="4.09034">
        <ele>77.401681203356</ele>
        <time>2020-11-25T13:42:24.999+01:00</time>
      </trkpt>
      <trkpt lat="43.68203" lon="4.09034">
        <ele>77.403463555808</ele>
        <time>2020-11-25T13:42:25.999+01:00</time>
      </trkpt>
      <trkpt lat="43.68203" lon="4.09033">
        <ele>77.405066502396</ele>
        <time>2020-11-25T13:42:26.999+01:00</time>
      </trkpt>
      <trkpt lat="43.68204" lon="4.09032">
        <ele>77.406370109114</ele>
        <time>2020-11-25T13:42:27.999+01:00</time>
      </trkpt>
      <trkpt lat="43.68205" lon="4.09031">
        <ele>77.407650622812</ele>
        <time>2020-11-25T13:42:28.999+01:00</time>
      </trkpt>
      <trkpt lat="43.68206" lon="4.0903">
        <ele>77.408806144892</ele>
        <time>2020-11-25T13:42:29.999+01:00</time>
      </trkpt>
      <trkpt lat="43.68207" lon="4.09029">
        <ele>77.409956443305</ele>
        <time>2020-11-25T13:42:30.999+01:00</time>
      </trkpt>
      <trkpt lat="43.68208" lon="4.09028">
        <ele>77.41111329165</ele>
        <time>2020-11-25T13:42:31.999+01:00</time>
      </trkpt>
      <trkpt lat="43.6821" lon="4.09027">
        <ele>77.412174021343</ele>
        <time>2020-11-25T13:42:32.999+01:00</time>
      </trkpt>
      <trkpt lat="43.6821" lon="4.09026">
        <ele>77.413136585607</ele>
        <time>2020-11-25T13:42:33.999+01:00</time>
      </trkpt>
      <trkpt lat="43.68211" lon="4.09026">
        <ele>77.414112678875</ele>
        <time>2020-11-25T13:42:34.999+01:00</time>
      </trkpt>
      <trkpt lat="43.68211" lon="4.09025">
        <ele>77.415002488557</ele>
        <time>2020-11-25T13:42:35.999+01:00</time>
      </trkpt>
      <trkpt lat="43.68212" lon="4.09024">
        <ele>77.415629246387</ele>
        <time>2020-11-25T13:42:36.999+01:00</time>
      </trkpt>
      <trkpt lat="43.68213" lon="4.09023">
        <ele>77.416165691844</ele>
        <time>2020-11-25T13:42:37.999+01:00</time>
      </trkpt>
      <trkpt lat="43.68214" lon="4.09022">
        <ele>77.416590667137</ele>
        <time>2020-11-25T13:42:38.999+01:00</time>
      </trkpt>
      <trkpt lat="43.68215" lon="4.09021">
        <ele>77.417222424692</ele>
        <time>2020-11-25T13:42:39.999+01:00</time>
      </trkpt>
      <trkpt lat="43.68216" lon="4.0902">
        <ele>77.418197290427</ele>
        <time>2020-11-25T13:42:40.999+01:00</time>
      </trkpt>
      <trkpt lat="43.68217" lon="4.09019">
        <ele>77.41936141336</ele>
        <time>2020-11-25T13:42:41.999+01:00</time>
      </trkpt>
      <trkpt lat="43.68218" lon="4.09018">
        <ele>77.420447993731</ele>
        <time>2020-11-25T13:42:42.999+01:00</time>
      </trkpt>
      <trkpt lat="43.68218" lon="4.09017">
        <ele>77.421345754856</ele>
        <time>2020-11-25T13:42:43.999+01:00</time>
      </trkpt>
      <trkpt lat="43.68219" lon="4.09016">
        <ele>77.42227807349</ele>
        <time>2020-11-25T13:42:44.999+01:00</time>
      </trkpt>
      <trkpt lat="43.6822" lon="4.09015">
        <ele>77.423280056538</ele>
        <time>2020-11-25T13:42:45.999+01:00</time>
      </trkpt>
      <trkpt lat="43.68221" lon="4.09014">
        <ele>77.42430536757</ele>
        <time>2020-11-25T13:42:46.999+01:00</time>
      </trkpt>
      <trkpt lat="43.68222" lon="4.09013">
        <ele>77.425370918349</ele>
        <time>2020-11-25T13:42:47.999+01:00</time>
      </trkpt>
      <trkpt lat="43.68222" lon="4.09012">
        <ele>77.426430294596</ele>
        <time>2020-11-25T13:42:48.999+01:00</time>
      </trkpt>
      <trkpt lat="43.68223" lon="4.09011">
        <ele>77.427506004924</ele>
        <time>2020-11-25T13:42:49.999+01:00</time>
      </trkpt>
      <trkpt lat="43.68223" lon="4.0901">
        <ele>77.428999312831</ele>
        <time>2020-11-25T13:42:50.999+01:00</time>
      </trkpt>
      <trkpt lat="43.68224" lon="4.09009">
        <ele>77.430682968492</ele>
        <time>2020-11-25T13:42:51.999+01:00</time>
      </trkpt>
      <trkpt lat="43.68225" lon="4.09009">
        <ele>77.432790524839</ele>
        <time>2020-11-25T13:42:52.999+01:00</time>
      </trkpt>
      <trkpt lat="43.68225" lon="4.09008">
        <ele>77.434998757708</ele>
        <time>2020-11-25T13:42:53.999+01:00</time>
      </trkpt>
      <trkpt lat="43.68226" lon="4.09007">
        <ele>77.43716109505</ele>
        <time>2020-11-25T13:42:54.999+01:00</time>
      </trkpt>
      <trkpt lat="43.68227" lon="4.09006">
        <ele>77.439346393859</ele>
        <time>2020-11-25T13:42:55.999+01:00</time>
      </trkpt>
      <trkpt lat="43.68228" lon="4.09004">
        <ele>77.441525977571</ele>
        <time>2020-11-25T13:42:56.999+01:00</time>
      </trkpt>
      <trkpt lat="43.68229" lon="4.09003">
        <ele>77.443943220695</ele>
        <time>2020-11-25T13:42:57.999+01:00</time>
      </trkpt>
      <trkpt lat="43.68231" lon="4.09002">
        <ele>77.447738858824</ele>
        <time>2020-11-25T13:42:58.999+01:00</time>
      </trkpt>
      <trkpt lat="43.68232" lon="4.09001">
        <ele>77.451887563364</ele>
        <time>2020-11-25T13:42:59.999+01:00</time>
      </trkpt>
      <trkpt lat="43.68232" lon="4.09">
        <ele>77.455982700312</ele>
        <time>2020-11-25T13:43:00.999+01:00</time>
      </trkpt>
      <trkpt lat="43.68233" lon="4.08999">
        <ele>77.4600684611</ele>
        <time>2020-11-25T13:43:01.999+01:00</time>
      </trkpt>
      <trkpt lat="43.68233" lon="4.08998">
        <ele>77.460499759864</ele>
        <time>2020-11-25T13:43:02.999+01:00</time>
      </trkpt>
      <trkpt lat="43.68234" lon="4.08998">
        <ele>77.465112484305</ele>
        <time>2020-11-25T13:43:03.999+01:00</time>
      </trkpt>
      <trkpt lat="43.68234" lon="4.08998">
        <ele>77.470052221579</ele>
        <time>2020-11-25T13:43:04.999+01:00</time>
      </trkpt>
      <trkpt lat="43.68235" lon="4.08997">
        <ele>77.47525465543</ele>
        <time>2020-11-25T13:43:05.999+01:00</time>
      </trkpt>
      <trkpt lat="43.68235" lon="4.08997">
        <ele>77.480753857448</ele>
        <time>2020-11-25T13:43:06.999+01:00</time>
      </trkpt>
      <trkpt lat="43.68236" lon="4.08996">
        <ele>77.486528051886</ele>
        <time>2020-11-25T13:43:07.999+01:00</time>
      </trkpt>
      <trkpt lat="43.68237" lon="4.08996">
        <ele>77.492798906994</ele>
        <time>2020-11-25T13:43:08.999+01:00</time>
      </trkpt>
      <trkpt lat="43.68237" lon="4.08995">
        <ele>77.498955879775</ele>
        <time>2020-11-25T13:43:09.999+01:00</time>
      </trkpt>
      <trkpt lat="43.68238" lon="4.08994">
        <ele>77.50551608587</ele>
        <time>2020-11-25T13:43:10.999+01:00</time>
      </trkpt>
      <trkpt lat="43.68238" lon="4.08994">
        <ele>77.511960958135</ele>
        <time>2020-11-25T13:43:11.999+01:00</time>
      </trkpt>
      <trkpt lat="43.6824" lon="4.08992">
        <ele>77.518734576676</ele>
        <time>2020-11-25T13:43:12.999+01:00</time>
      </trkpt>
      <trkpt lat="43.68241" lon="4.0899">
        <ele>77.526036660529</ele>
        <time>2020-11-25T13:43:13.999+01:00</time>
      </trkpt>
      <trkpt lat="43.68243" lon="4.08988">
        <ele>77.533728191038</ele>
        <time>2020-11-25T13:43:14.999+01:00</time>
      </trkpt>
      <trkpt lat="43.68244" lon="4.08986">
        <ele>77.541934091466</ele>
        <time>2020-11-25T13:43:15.999+01:00</time>
      </trkpt>
      <trkpt lat="43.68246" lon="4.08985">
        <ele>77.550633832743</ele>
        <time>2020-11-25T13:43:16.999+01:00</time>
      </trkpt>
      <trkpt lat="43.68247" lon="4.08984">
        <ele>77.559779059642</ele>
        <time>2020-11-25T13:43:17.999+01:00</time>
      </trkpt>
      <trkpt lat="43.68249" lon="4.08984">
        <ele>77.569749283163</ele>
        <time>2020-11-25T13:43:18.999+01:00</time>
      </trkpt>
      <trkpt lat="43.6825" lon="4.08982">
        <ele>77.580219488955</ele>
        <time>2020-11-25T13:43:19.999+01:00</time>
      </trkpt>
      <trkpt lat="43.68251" lon="4.08982">
        <ele>77.591112513177</ele>
        <time>2020-11-25T13:43:20.999+01:00</time>
      </trkpt>
      <trkpt lat="43.68253" lon="4.08981">
        <ele>77.602344452742</ele>
        <time>2020-11-25T13:43:21.999+01:00</time>
      </trkpt>
      <trkpt lat="43.68254" lon="4.0898">
        <ele>77.614026324245</ele>
        <time>2020-11-25T13:43:22.999+01:00</time>
      </trkpt>
      <trkpt lat="43.68255" lon="4.08978">
        <ele>77.626107301716</ele>
        <time>2020-11-25T13:43:23.999+01:00</time>
      </trkpt>
      <trkpt lat="43.68256" lon="4.08978">
        <ele>77.638570832107</ele>
        <time>2020-11-25T13:43:24.999+01:00</time>
      </trkpt>
      <trkpt lat="43.68258" lon="4.08977">
        <ele>77.65133252543</ele>
        <time>2020-11-25T13:43:25.999+01:00</time>
      </trkpt>
      <trkpt lat="43.68258" lon="4.08976">
        <ele>77.664206982853</ele>
        <time>2020-11-25T13:43:26.999+01:00</time>
      </trkpt>
      <trkpt lat="43.68259" lon="4.08975">
        <ele>77.677139657216</ele>
        <time>2020-11-25T13:43:27.999+01:00</time>
      </trkpt>
      <trkpt lat="43.6826" lon="4.08975">
        <ele>77.690161789547</ele>
        <time>2020-11-25T13:43:28.999+01:00</time>
      </trkpt>
      <trkpt lat="43.68261" lon="4.08974">
        <ele>77.703227096591</ele>
        <time>2020-11-25T13:43:29.999+01:00</time>
      </trkpt>
      <trkpt lat="43.68262" lon="4.08973">
        <ele>77.716407563601</ele>
        <time>2020-11-25T13:43:30.999+01:00</time>
      </trkpt>
      <trkpt lat="43.68263" lon="4.08971">
        <ele>77.729506915731</ele>
        <time>2020-11-25T13:43:31.999+01:00</time>
      </trkpt>
      <trkpt lat="43.68263" lon="4.0897">
        <ele>77.742360023431</ele>
        <time>2020-11-25T13:43:32.999+01:00</time>
      </trkpt>
      <trkpt lat="43.68264" lon="4.08969">
        <ele>77.755006301219</ele>
        <time>2020-11-25T13:43:33.999+01:00</time>
      </trkpt>
      <trkpt lat="43.68264" lon="4.08968">
        <ele>77.767444795151</ele>
        <time>2020-11-25T13:43:34.999+01:00</time>
      </trkpt>
      <trkpt lat="43.68265" lon="4.08967">
        <ele>77.780025483636</ele>
        <time>2020-11-25T13:43:35.999+01:00</time>
      </trkpt>
      <trkpt lat="43.68265" lon="4.08966">
        <ele>77.792780494817</ele>
        <time>2020-11-25T13:43:36.999+01:00</time>
      </trkpt>
      <trkpt lat="43.68266" lon="4.08965">
        <ele>77.805601927262</ele>
        <time>2020-11-25T13:43:37.999+01:00</time>
      </trkpt>
      <trkpt lat="43.68266" lon="4.08965">
        <ele>77.818444789274</ele>
        <time>2020-11-25T13:43:38.999+01:00</time>
      </trkpt>
      <trkpt lat="43.68267" lon="4.08963">
        <ele>77.83137295711</ele>
        <time>2020-11-25T13:43:39.999+01:00</time>
      </trkpt>
      <trkpt lat="43.68268" lon="4.08962">
        <ele>77.844066230814</ele>
        <time>2020-11-25T13:43:40.999+01:00</time>
      </trkpt>
      <trkpt lat="43.68269" lon="4.08961">
        <ele>77.856554815974</ele>
        <time>2020-11-25T13:43:41.999+01:00</time>
      </trkpt>
      <trkpt lat="43.68269" lon="4.08959">
        <ele>77.86849406909</ele>
        <time>2020-11-25T13:43:42.999+01:00</time>
      </trkpt>
      <trkpt lat="43.6827" lon="4.08958">
        <ele>77.879937763213</ele>
        <time>2020-11-25T13:43:43.999+01:00</time>
      </trkpt>
      <trkpt lat="43.68271" lon="4.08956">
        <ele>77.890999300273</ele>
        <time>2020-11-25T13:43:44.999+01:00</time>
      </trkpt>
      <trkpt lat="43.68272" lon="4.08955">
        <ele>77.901625785954</ele>
        <time>2020-11-25T13:43:45.999+01:00</time>
      </trkpt>
      <trkpt lat="43.68273" lon="4.08954">
        <ele>77.912009415292</ele>
        <time>2020-11-25T13:43:46.999+01:00</time>
      </trkpt>
      <trkpt lat="43.68273" lon="4.08952">
        <ele>77.922178012133</ele>
        <time>2020-11-25T13:43:47.999+01:00</time>
      </trkpt>
      <trkpt lat="43.68274" lon="4.08951">
        <ele>77.932154951004</ele>
        <time>2020-11-25T13:43:48.999+01:00</time>
      </trkpt>
      <trkpt lat="43.68275" lon="4.08949">
        <ele>77.941997709269</ele>
        <time>2020-11-25T13:43:49.999+01:00</time>
      </trkpt>
      <trkpt lat="43.68276" lon="4.08949">
        <ele>77.951939931819</ele>
        <time>2020-11-25T13:43:50.999+01:00</time>
      </trkpt>
      <trkpt lat="43.68276" lon="4.08948">
        <ele>77.961789354348</ele>
        <time>2020-11-25T13:43:51.999+01:00</time>
      </trkpt>
      <trkpt lat="43.68277" lon="4.08946">
        <ele>77.971625932661</ele>
        <time>2020-11-25T13:43:52.999+01:00</time>
      </trkpt>
      <trkpt lat="43.68278" lon="4.08945">
        <ele>77.981539072702</ele>
        <time>2020-11-25T13:43:53.999+01:00</time>
      </trkpt>
      <trkpt lat="43.68279" lon="4.08944">
        <ele>77.991598838752</ele>
        <time>2020-11-25T13:43:54.999+01:00</time>
      </trkpt>
      <trkpt lat="43.68279" lon="4.08943">
        <ele>78.001826794229</ele>
        <time>2020-11-25T13:43:55.999+01:00</time>
      </trkpt>
      <trkpt lat="43.6828" lon="4.08942">
        <ele>78.012258783702</ele>
        <time>2020-11-25T13:43:56.999+01:00</time>
      </trkpt>
      <trkpt lat="43.68281" lon="4.08941">
        <ele>78.023306351787</ele>
        <time>2020-11-25T13:43:57.999+01:00</time>
      </trkpt>
      <trkpt lat="43.68281" lon="4.0894">
        <ele>78.034712564939</ele>
        <time>2020-11-25T13:43:58.999+01:00</time>
      </trkpt>
      <trkpt lat="43.68282" lon="4.08939">
        <ele>78.046599615</ele>
        <time>2020-11-25T13:43:59.999+01:00</time>
      </trkpt>
      <trkpt lat="43.68283" lon="4.08938">
        <ele>78.058143274518</ele>
        <time>2020-11-25T13:44:00.999+01:00</time>
      </trkpt>
      <trkpt lat="43.68284" lon="4.08937">
        <ele>78.069491920586</ele>
        <time>2020-11-25T13:44:01.999+01:00</time>
      </trkpt>
      <trkpt lat="43.68285" lon="4.08936">
        <ele>78.080619161352</ele>
        <time>2020-11-25T13:44:02.999+01:00</time>
      </trkpt>
      <trkpt lat="43.68286" lon="4.08935">
        <ele>78.091633338444</ele>
        <time>2020-11-25T13:44:03.999+01:00</time>
      </trkpt>
      <trkpt lat="43.68286" lon="4.08934">
        <ele>78.102387224008</ele>
        <time>2020-11-25T13:44:04.999+01:00</time>
      </trkpt>
      <trkpt lat="43.68287" lon="4.08933">
        <ele>78.113105382695</ele>
        <time>2020-11-25T13:44:05.999+01:00</time>
      </trkpt>
      <trkpt lat="43.68288" lon="4.08932">
        <ele>78.123784162274</ele>
        <time>2020-11-25T13:44:06.999+01:00</time>
      </trkpt>
      <trkpt lat="43.68289" lon="4.08931">
        <ele>78.134432086801</ele>
        <time>2020-11-25T13:44:07.999+01:00</time>
      </trkpt>
      <trkpt lat="43.68289" lon="4.08929">
        <ele>78.145124190125</ele>
        <time>2020-11-25T13:44:08.999+01:00</time>
      </trkpt>
      <trkpt lat="43.6829" lon="4.08929">
        <ele>78.155961827411</ele>
        <time>2020-11-25T13:44:09.999+01:00</time>
      </trkpt>
      <trkpt lat="43.68291" lon="4.08928">
        <ele>78.166961586898</ele>
        <time>2020-11-25T13:44:10.999+01:00</time>
      </trkpt>
      <trkpt lat="43.68292" lon="4.08927">
        <ele>78.177826893425</ele>
        <time>2020-11-25T13:44:11.999+01:00</time>
      </trkpt>
      <trkpt lat="43.68292" lon="4.08926">
        <ele>78.188569796848</ele>
        <time>2020-11-25T13:44:12.999+01:00</time>
      </trkpt>
      <trkpt lat="43.68293" lon="4.08925">
        <ele>78.199391362102</ele>
        <time>2020-11-25T13:44:13.999+01:00</time>
      </trkpt>
      <trkpt lat="43.68293" lon="4.08924">
        <ele>78.21029743593</ele>
        <time>2020-11-25T13:44:14.999+01:00</time>
      </trkpt>
      <trkpt lat="43.68294" lon="4.08923">
        <ele>78.221131410566</ele>
        <time>2020-11-25T13:44:15.999+01:00</time>
      </trkpt>
      <trkpt lat="43.68295" lon="4.08922">
        <ele>78.231860544729</ele>
        <time>2020-11-25T13:44:16.999+01:00</time>
      </trkpt>
      <trkpt lat="43.68296" lon="4.08921">
        <ele>78.242528814903</ele>
        <time>2020-11-25T13:44:17.999+01:00</time>
      </trkpt>
      <trkpt lat="43.68297" lon="4.08921">
        <ele>78.253039613481</ele>
        <time>2020-11-25T13:44:18.999+01:00</time>
      </trkpt>
      <trkpt lat="43.68299" lon="4.0892">
        <ele>78.263827272685</ele>
        <time>2020-11-25T13:44:19.999+01:00</time>
      </trkpt>
      <trkpt lat="43.683" lon="4.08919">
        <ele>78.274599579093</ele>
        <time>2020-11-25T13:44:20.999+01:00</time>
      </trkpt>
      <trkpt lat="43.68301" lon="4.08918">
        <ele>78.285110636912</ele>
        <time>2020-11-25T13:44:21.999+01:00</time>
      </trkpt>
      <trkpt lat="43.68302" lon="4.08917">
        <ele>78.295406571172</ele>
        <time>2020-11-25T13:44:22.999+01:00</time>
      </trkpt>
      <trkpt lat="43.68303" lon="4.08916">
        <ele>78.305730614813</ele>
        <time>2020-11-25T13:44:23.999+01:00</time>
      </trkpt>
      <trkpt lat="43.68304" lon="4.08915">
        <ele>78.315875409797</ele>
        <time>2020-11-25T13:44:24.999+01:00</time>
      </trkpt>
      <trkpt lat="43.68305" lon="4.08915">
        <ele>78.325877994676</ele>
        <time>2020-11-25T13:44:25.999+01:00</time>
      </trkpt>
      <trkpt lat="43.68306" lon="4.08914">
        <ele>78.336054220031</ele>
        <time>2020-11-25T13:44:26.999+01:00</time>
      </trkpt>
      <trkpt lat="43.68307" lon="4.08914">
        <ele>78.346273510158</ele>
        <time>2020-11-25T13:44:27.999+01:00</time>
      </trkpt>
      <trkpt lat="43.68309" lon="4.08913">
        <ele>78.356646959784</ele>
        <time>2020-11-25T13:44:28.999+01:00</time>
      </trkpt>
      <trkpt lat="43.68311" lon="4.08912">
        <ele>78.367258666408</ele>
        <time>2020-11-25T13:44:29.999+01:00</time>
      </trkpt>
      <trkpt lat="43.68312" lon="4.08912">
        <ele>78.377869149957</ele>
        <time>2020-11-25T13:44:30.999+01:00</time>
      </trkpt>
      <trkpt lat="43.68313" lon="4.08912">
        <ele>78.388523154863</ele>
        <time>2020-11-25T13:44:31.999+01:00</time>
      </trkpt>
      <trkpt lat="43.68314" lon="4.08912">
        <ele>78.39919544818</ele>
        <time>2020-11-25T13:44:32.999+01:00</time>
      </trkpt>
      <trkpt lat="43.68315" lon="4.08911">
        <ele>78.40992175929</ele>
        <time>2020-11-25T13:44:33.999+01:00</time>
      </trkpt>
      <trkpt lat="43.68316" lon="4.08911">
        <ele>78.420712403651</ele>
        <time>2020-11-25T13:44:34.999+01:00</time>
      </trkpt>
      <trkpt lat="43.68317" lon="4.0891">
        <ele>78.431449515058</ele>
        <time>2020-11-25T13:44:35.999+01:00</time>
      </trkpt>
      <trkpt lat="43.68318" lon="4.08909">
        <ele>78.442084711901</ele>
        <time>2020-11-25T13:44:36.999+01:00</time>
      </trkpt>
      <trkpt lat="43.6832" lon="4.08909">
        <ele>78.452871917586</ele>
        <time>2020-11-25T13:44:37.999+01:00</time>
      </trkpt>
      <trkpt lat="43.6832" lon="4.08908">
        <ele>78.46369690831</ele>
        <time>2020-11-25T13:44:38.999+01:00</time>
      </trkpt>
      <trkpt lat="43.68321" lon="4.08907">
        <ele>78.474592893656</ele>
        <time>2020-11-25T13:44:39.999+01:00</time>
      </trkpt>
      <trkpt lat="43.68323" lon="4.08906">
        <ele>78.485283205861</ele>
        <time>2020-11-25T13:44:40.999+01:00</time>
      </trkpt>
      <trkpt lat="43.68324" lon="4.08904">
        <ele>78.495697015161</ele>
        <time>2020-11-25T13:44:41.999+01:00</time>
      </trkpt>
      <trkpt lat="43.68324" lon="4.08904">
        <ele>78.506025323306</ele>
        <time>2020-11-25T13:44:42.999+01:00</time>
      </trkpt>
      <trkpt lat="43.68325" lon="4.08903">
        <ele>78.516342197211</ele>
        <time>2020-11-25T13:44:43.999+01:00</time>
      </trkpt>
      <trkpt lat="43.68326" lon="4.08902">
        <ele>78.526643704556</ele>
        <time>2020-11-25T13:44:44.999+01:00</time>
      </trkpt>
      <trkpt lat="43.68326" lon="4.08901">
        <ele>78.53675291904</ele>
        <time>2020-11-25T13:44:45.999+01:00</time>
      </trkpt>
      <trkpt lat="43.68328" lon="4.08901">
        <ele>78.546736678348</ele>
        <time>2020-11-25T13:44:46.999+01:00</time>
      </trkpt>
      <trkpt lat="43.68329" lon="4.089">
        <ele>78.556440450099</ele>
        <time>2020-11-25T13:44:47.999+01:00</time>
      </trkpt>
      <trkpt lat="43.6833" lon="4.08899">
        <ele>78.565981425284</ele>
        <time>2020-11-25T13:44:48.999+01:00</time>
      </trkpt>
      <trkpt lat="43.68331" lon="4.08898">
        <ele>78.575324453417</ele>
        <time>2020-11-25T13:44:49.999+01:00</time>
      </trkpt>
      <trkpt lat="43.68331" lon="4.08898">
        <ele>78.584523170417</ele>
        <time>2020-11-25T13:44:50.999+01:00</time>
      </trkpt>
      <trkpt lat="43.68332" lon="4.08897">
        <ele>78.593666625532</ele>
        <time>2020-11-25T13:44:51.999+01:00</time>
      </trkpt>
      <trkpt lat="43.68333" lon="4.08897">
        <ele>78.602752630373</ele>
        <time>2020-11-25T13:44:52.999+01:00</time>
      </trkpt>
      <trkpt lat="43.68335" lon="4.08897">
        <ele>78.611855459226</ele>
        <time>2020-11-25T13:44:53.999+01:00</time>
      </trkpt>
      <trkpt lat="43.68336" lon="4.08897">
        <ele>78.620945262777</ele>
        <time>2020-11-25T13:44:54.999+01:00</time>
      </trkpt>
      <trkpt lat="43.68336" lon="4.08896">
        <ele>78.629937131351</ele>
        <time>2020-11-25T13:44:55.999+01:00</time>
      </trkpt>
      <trkpt lat="43.68337" lon="4.08896">
        <ele>78.638923849147</ele>
        <time>2020-11-25T13:44:56.999+01:00</time>
      </trkpt>
      <trkpt lat="43.68339" lon="4.08896">
        <ele>78.647872727859</ele>
        <time>2020-11-25T13:44:57.999+01:00</time>
      </trkpt>
      <trkpt lat="43.6834" lon="4.08895">
        <ele>78.656857439407</ele>
        <time>2020-11-25T13:44:58.999+01:00</time>
      </trkpt>
      <trkpt lat="43.68341" lon="4.08894">
        <ele>78.665858281188</ele>
        <time>2020-11-25T13:44:59.999+01:00</time>
      </trkpt>
      <trkpt lat="43.68342" lon="4.08894">
        <ele>78.674731372187</ele>
        <time>2020-11-25T13:45:00.999+01:00</time>
      </trkpt>
      <trkpt lat="43.68343" lon="4.08893">
        <ele>78.683594135694</ele>
        <time>2020-11-25T13:45:01.999+01:00</time>
      </trkpt>
      <trkpt lat="43.68345" lon="4.08892">
        <ele>78.692462109001</ele>
        <time>2020-11-25T13:45:02.999+01:00</time>
      </trkpt>
      <trkpt lat="43.68346" lon="4.08891">
        <ele>78.701235446695</ele>
        <time>2020-11-25T13:45:03.999+01:00</time>
      </trkpt>
      <trkpt lat="43.68347" lon="4.08891">
        <ele>78.709940262069</ele>
        <time>2020-11-25T13:45:04.999+01:00</time>
      </trkpt>
      <trkpt lat="43.68348" lon="4.0889">
        <ele>78.718593887491</ele>
        <time>2020-11-25T13:45:05.999+01:00</time>
      </trkpt>
      <trkpt lat="43.68349" lon="4.08889">
        <ele>78.727172002641</ele>
        <time>2020-11-25T13:45:06.999+01:00</time>
      </trkpt>
      <trkpt lat="43.6835" lon="4.08888">
        <ele>78.735660629853</ele>
        <time>2020-11-25T13:45:07.999+01:00</time>
      </trkpt>
      <trkpt lat="43.68351" lon="4.08888">
        <ele>78.744085508812</ele>
        <time>2020-11-25T13:45:08.999+01:00</time>
      </trkpt>
      <trkpt lat="43.68352" lon="4.08887">
        <ele>78.752405920343</ele>
        <time>2020-11-25T13:45:09.999+01:00</time>
      </trkpt>
      <trkpt lat="43.68353" lon="4.08885">
        <ele>78.760682134214</ele>
        <time>2020-11-25T13:45:10.999+01:00</time>
      </trkpt>
      <trkpt lat="43.68354" lon="4.08885">
        <ele>78.768954620626</ele>
        <time>2020-11-25T13:45:11.999+01:00</time>
      </trkpt>
      <trkpt lat="43.68355" lon="4.08884">
        <ele>78.777128752337</ele>
        <time>2020-11-25T13:45:12.999+01:00</time>
      </trkpt>
      <trkpt lat="43.68355" lon="4.08884">
        <ele>78.785213954562</ele>
        <time>2020-11-25T13:45:13.999+01:00</time>
      </trkpt>
      <trkpt lat="43.68356" lon="4.08883">
        <ele>78.793183283296</ele>
        <time>2020-11-25T13:45:14.999+01:00</time>
      </trkpt>
      <trkpt lat="43.68357" lon="4.08882">
        <ele>78.80099616408</ele>
        <time>2020-11-25T13:45:15.999+01:00</time>
      </trkpt>
      <trkpt lat="43.68358" lon="4.08881">
        <ele>78.808765219922</ele>
        <time>2020-11-25T13:45:16.999+01:00</time>
      </trkpt>
      <trkpt lat="43.6836" lon="4.08881">
        <ele>78.816487085917</ele>
        <time>2020-11-25T13:45:17.999+01:00</time>
      </trkpt>
      <trkpt lat="43.68361" lon="4.08881">
        <ele>78.824327905995</ele>
        <time>2020-11-25T13:45:18.999+01:00</time>
      </trkpt>
      <trkpt lat="43.68362" lon="4.0888">
        <ele>78.832215524234</ele>
        <time>2020-11-25T13:45:19.999+01:00</time>
      </trkpt>
      <trkpt lat="43.68363" lon="4.0888">
        <ele>78.840106730006</ele>
        <time>2020-11-25T13:45:20.999+01:00</time>
      </trkpt>
      <trkpt lat="43.68364" lon="4.0888">
        <ele>78.847969106013</ele>
        <time>2020-11-25T13:45:21.999+01:00</time>
      </trkpt>
      <trkpt lat="43.68366" lon="4.08879">
        <ele>78.855870174251</ele>
        <time>2020-11-25T13:45:22.999+01:00</time>
      </trkpt>
      <trkpt lat="43.68367" lon="4.08878">
        <ele>78.863873350206</ele>
        <time>2020-11-25T13:45:23.999+01:00</time>
      </trkpt>
      <trkpt lat="43.68369" lon="4.08877">
        <ele>78.871773786682</ele>
        <time>2020-11-25T13:45:24.999+01:00</time>
      </trkpt>
      <trkpt lat="43.68371" lon="4.08876">
        <ele>78.879499080238</ele>
        <time>2020-11-25T13:45:25.999+01:00</time>
      </trkpt>
      <trkpt lat="43.68372" lon="4.08876">
        <ele>78.887281238504</ele>
        <time>2020-11-25T13:45:26.999+01:00</time>
      </trkpt>
      <trkpt lat="43.68373" lon="4.08875">
        <ele>78.895197328001</ele>
        <time>2020-11-25T13:45:27.999+01:00</time>
      </trkpt>
      <trkpt lat="43.68374" lon="4.08875">
        <ele>78.903304673623</ele>
        <time>2020-11-25T13:45:28.999+01:00</time>
      </trkpt>
      <trkpt lat="43.68375" lon="4.08875">
        <ele>78.911473455271</ele>
        <time>2020-11-25T13:45:29.999+01:00</time>
      </trkpt>
      <trkpt lat="43.68376" lon="4.08874">
        <ele>78.919641145492</ele>
        <time>2020-11-25T13:45:30.999+01:00</time>
      </trkpt>
      <trkpt lat="43.68377" lon="4.08873">
        <ele>78.927716647022</ele>
        <time>2020-11-25T13:45:31.999+01:00</time>
      </trkpt>
      <trkpt lat="43.68378" lon="4.08873">
        <ele>78.935836430751</ele>
        <time>2020-11-25T13:45:32.999+01:00</time>
      </trkpt>
      <trkpt lat="43.68379" lon="4.08872">
        <ele>78.944053861145</ele>
        <time>2020-11-25T13:45:33.999+01:00</time>
      </trkpt>
      <trkpt lat="43.6838" lon="4.08871">
        <ele>78.95224534272</ele>
        <time>2020-11-25T13:45:34.999+01:00</time>
      </trkpt>
      <trkpt lat="43.68381" lon="4.08871">
        <ele>78.960371163594</ele>
        <time>2020-11-25T13:45:35.999+01:00</time>
      </trkpt>
      <trkpt lat="43.68381" lon="4.0887">
        <ele>78.968540744723</ele>
        <time>2020-11-25T13:45:36.999+01:00</time>
      </trkpt>
      <trkpt lat="43.68382" lon="4.08869">
        <ele>78.976682113183</ele>
        <time>2020-11-25T13:45:37.999+01:00</time>
      </trkpt>
      <trkpt lat="43.68384" lon="4.08868">
        <ele>78.985040852969</ele>
        <time>2020-11-25T13:45:38.999+01:00</time>
      </trkpt>
      <trkpt lat="43.68385" lon="4.08867">
        <ele>78.99354583312</ele>
        <time>2020-11-25T13:45:39.999+01:00</time>
      </trkpt>
      <trkpt lat="43.68386" lon="4.08867">
        <ele>79.001939073001</ele>
        <time>2020-11-25T13:45:40.999+01:00</time>
      </trkpt>
      <trkpt lat="43.68387" lon="4.08866">
        <ele>79.010389372203</ele>
        <time>2020-11-25T13:45:41.999+01:00</time>
      </trkpt>
      <trkpt lat="43.68388" lon="4.08865">
        <ele>79.018879696165</ele>
        <time>2020-11-25T13:45:42.999+01:00</time>
      </trkpt>
      <trkpt lat="43.68389" lon="4.08864">
        <ele>79.027410514441</ele>
        <time>2020-11-25T13:45:43.999+01:00</time>
      </trkpt>
      <trkpt lat="43.6839" lon="4.08864">
        <ele>79.035991881054</ele>
        <time>2020-11-25T13:45:44.999+01:00</time>
      </trkpt>
      <trkpt lat="43.68391" lon="4.08863">
        <ele>79.044596258857</ele>
        <time>2020-11-25T13:45:45.999+01:00</time>
      </trkpt>
      <trkpt lat="43.68392" lon="4.08862">
        <ele>79.053118057655</ele>
        <time>2020-11-25T13:45:46.999+01:00</time>
      </trkpt>
      <trkpt lat="43.68393" lon="4.08862">
        <ele>79.061646397922</ele>
        <time>2020-11-25T13:45:47.999+01:00</time>
      </trkpt>
      <trkpt lat="43.68393" lon="4.08862">
        <ele>79.070210397328</ele>
        <time>2020-11-25T13:45:48.999+01:00</time>
      </trkpt>
      <trkpt lat="43.68394" lon="4.08861">
        <ele>79.078834772797</ele>
        <time>2020-11-25T13:45:49.999+01:00</time>
      </trkpt>
      <trkpt lat="43.68394" lon="4.0886">
        <ele>79.087394385995</ele>
        <time>2020-11-25T13:45:50.999+01:00</time>
      </trkpt>
      <trkpt lat="43.68395" lon="4.0886">
        <ele>79.095881379725</ele>
        <time>2020-11-25T13:45:51.999+01:00</time>
      </trkpt>
      <trkpt lat="43.68396" lon="4.08859">
        <ele>79.104402217754</ele>
        <time>2020-11-25T13:45:52.999+01:00</time>
      </trkpt>
      <trkpt lat="43.68397" lon="4.08859">
        <ele>79.112793806429</ele>
        <time>2020-11-25T13:45:53.999+01:00</time>
      </trkpt>
      <trkpt lat="43.68398" lon="4.08857">
        <ele>79.121199574388</ele>
        <time>2020-11-25T13:45:54.999+01:00</time>
      </trkpt>
      <trkpt lat="43.684" lon="4.08856">
        <ele>79.129655547448</ele>
        <time>2020-11-25T13:45:55.999+01:00</time>
      </trkpt>
      <trkpt lat="43.68402" lon="4.08855">
        <ele>79.138258814403</ele>
        <time>2020-11-25T13:45:56.999+01:00</time>
      </trkpt>
      <trkpt lat="43.68403" lon="4.08854">
        <ele>79.146983614193</ele>
        <time>2020-11-25T13:45:57.999+01:00</time>
      </trkpt>
      <trkpt lat="43.68404" lon="4.08853">
        <ele>79.155705211765</ele>
        <time>2020-11-25T13:45:58.999+01:00</time>
      </trkpt>
      <trkpt lat="43.68405" lon="4.08852">
        <ele>79.164346306525</ele>
        <time>2020-11-25T13:45:59.999+01:00</time>
      </trkpt>
      <trkpt lat="43.68406" lon="4.08851">
        <ele>79.172890680569</ele>
        <time>2020-11-25T13:46:00.999+01:00</time>
      </trkpt>
      <trkpt lat="43.68407" lon="4.0885">
        <ele>79.181276184472</ele>
        <time>2020-11-25T13:46:01.999+01:00</time>
      </trkpt>
      <trkpt lat="43.68408" lon="4.08849">
        <ele>79.190055383786</ele>
        <time>2020-11-25T13:46:02.999+01:00</time>
      </trkpt>
      <trkpt lat="43.68408" lon="4.08848">
        <ele>79.198782532026</ele>
        <time>2020-11-25T13:46:03.999+01:00</time>
      </trkpt>
      <trkpt lat="43.68409" lon="4.08847">
        <ele>79.207310990386</ele>
        <time>2020-11-25T13:46:04.999+01:00</time>
      </trkpt>
      <trkpt lat="43.6841" lon="4.08846">
        <ele>79.215705476</ele>
        <time>2020-11-25T13:46:05.999+01:00</time>
      </trkpt>
      <trkpt lat="43.6841" lon="4.08846">
        <ele>79.224038953748</ele>
        <time>2020-11-25T13:46:06.999+01:00</time>
      </trkpt>
      <trkpt lat="43.68411" lon="4.08845">
        <ele>79.232185177484</ele>
        <time>2020-11-25T13:46:07.999+01:00</time>
      </trkpt>
      <trkpt lat="43.68412" lon="4.08844">
        <ele>79.240155156943</ele>
        <time>2020-11-25T13:46:08.999+01:00</time>
      </trkpt>
      <trkpt lat="43.68413" lon="4.08843">
        <ele>79.248097380497</ele>
        <time>2020-11-25T13:46:09.999+01:00</time>
      </trkpt>
      <trkpt lat="43.68414" lon="4.08843">
        <ele>79.255970525887</ele>
        <time>2020-11-25T13:46:10.999+01:00</time>
      </trkpt>
      <trkpt lat="43.68414" lon="4.08842">
        <ele>79.263840452049</ele>
        <time>2020-11-25T13:46:11.999+01:00</time>
      </trkpt>
      <trkpt lat="43.68415" lon="4.08841">
        <ele>79.27174145795</ele>
        <time>2020-11-25T13:46:12.999+01:00</time>
      </trkpt>
      <trkpt lat="43.68415" lon="4.08841">
        <ele>79.279512809132</ele>
        <time>2020-11-25T13:46:13.999+01:00</time>
      </trkpt>
      <trkpt lat="43.68416" lon="4.0884">
        <ele>79.287321173869</ele>
        <time>2020-11-25T13:46:14.999+01:00</time>
      </trkpt>
      <trkpt lat="43.68417" lon="4.08839">
        <ele>79.295107039121</ele>
        <time>2020-11-25T13:46:15.999+01:00</time>
      </trkpt>
      <trkpt lat="43.68418" lon="4.08838">
        <ele>79.302820977119</ele>
        <time>2020-11-25T13:46:16.999+01:00</time>
      </trkpt>
      <trkpt lat="43.68419" lon="4.08837">
        <ele>79.31055585656</ele>
        <time>2020-11-25T13:46:17.999+01:00</time>
      </trkpt>
      <trkpt lat="43.68421" lon="4.08836">
        <ele>79.318436466439</ele>
        <time>2020-11-25T13:46:18.999+01:00</time>
      </trkpt>
      <trkpt lat="43.68422" lon="4.08836">
        <ele>79.326655328281</ele>
        <time>2020-11-25T13:46:19.999+01:00</time>
      </trkpt>
      <trkpt lat="43.68424" lon="4.08835">
        <ele>79.335124651107</ele>
        <time>2020-11-25T13:46:20.999+01:00</time>
      </trkpt>
      <trkpt lat="43.68425" lon="4.08835">
        <ele>79.34370530853</ele>
        <time>2020-11-25T13:46:21.999+01:00</time>
      </trkpt>
      <trkpt lat="43.68426" lon="4.08834">
        <ele>79.352470991005</ele>
        <time>2020-11-25T13:46:22.999+01:00</time>
      </trkpt>
      <trkpt lat="43.68427" lon="4.08834">
        <ele>79.361413565061</ele>
        <time>2020-11-25T13:46:23.999+01:00</time>
      </trkpt>
      <trkpt lat="43.68428" lon="4.08834">
        <ele>79.370191338991</ele>
        <time>2020-11-25T13:46:24.999+01:00</time>
      </trkpt>
      <trkpt lat="43.68429" lon="4.08833">
        <ele>79.378980598737</ele>
        <time>2020-11-25T13:46:25.999+01:00</time>
      </trkpt>
      <trkpt lat="43.6843" lon="4.08832">
        <ele>79.387811439615</ele>
        <time>2020-11-25T13:46:26.999+01:00</time>
      </trkpt>
      <trkpt lat="43.68431" lon="4.08832">
        <ele>79.3967127495</ele>
        <time>2020-11-25T13:46:27.999+01:00</time>
      </trkpt>
      <trkpt lat="43.68432" lon="4.08831">
        <ele>79.4055384766</ele>
        <time>2020-11-25T13:46:28.999+01:00</time>
      </trkpt>
      <trkpt lat="43.68433" lon="4.0883">
        <ele>79.414419244997</ele>
        <time>2020-11-25T13:46:29.999+01:00</time>
      </trkpt>
      <trkpt lat="43.68434" lon="4.0883">
        <ele>79.423412989427</ele>
        <time>2020-11-25T13:46:30.999+01:00</time>
      </trkpt>
      <trkpt lat="43.68435" lon="4.08829">
        <ele>79.432388129542</ele>
        <time>2020-11-25T13:46:31.999+01:00</time>
      </trkpt>
      <trkpt lat="43.68435" lon="4.08829">
        <ele>79.441327211491</ele>
        <time>2020-11-25T13:46:32.999+01:00</time>
      </trkpt>
      <trkpt lat="43.68437" lon="4.08828">
        <ele>79.450197829856</ele>
        <time>2020-11-25T13:46:33.999+01:00</time>
      </trkpt>
      <trkpt lat="43.68437" lon="4.08828">
        <ele>79.459101127488</ele>
        <time>2020-11-25T13:46:34.999+01:00</time>
      </trkpt>
      <trkpt lat="43.68438" lon="4.08827">
        <ele>79.468144090222</ele>
        <time>2020-11-25T13:46:35.999+01:00</time>
      </trkpt>
      <trkpt lat="43.68439" lon="4.08826">
        <ele>79.477276550187</ele>
        <time>2020-11-25T13:46:36.999+01:00</time>
      </trkpt>
      <trkpt lat="43.6844" lon="4.08826">
        <ele>79.486620913543</ele>
        <time>2020-11-25T13:46:37.999+01:00</time>
      </trkpt>
      <trkpt lat="43.68441" lon="4.08825">
        <ele>79.496150718305</ele>
        <time>2020-11-25T13:46:38.999+01:00</time>
      </trkpt>
      <trkpt lat="43.68442" lon="4.08824">
        <ele>79.505755559767</ele>
        <time>2020-11-25T13:46:39.999+01:00</time>
      </trkpt>
      <trkpt lat="43.68444" lon="4.08823">
        <ele>79.515546079557</ele>
        <time>2020-11-25T13:46:40.999+01:00</time>
      </trkpt>
      <trkpt lat="43.68445" lon="4.08822">
        <ele>79.525415163694</ele>
        <time>2020-11-25T13:46:41.999+01:00</time>
      </trkpt>
      <trkpt lat="43.68445" lon="4.08821">
        <ele>79.53538897304</ele>
        <time>2020-11-25T13:46:42.999+01:00</time>
      </trkpt>
      <trkpt lat="43.68446" lon="4.08821">
        <ele>79.545182441827</ele>
        <time>2020-11-25T13:46:43.999+01:00</time>
      </trkpt>
      <trkpt lat="43.68447" lon="4.08821">
        <ele>79.554743488711</ele>
        <time>2020-11-25T13:46:44.999+01:00</time>
      </trkpt>
      <trkpt lat="43.68448" lon="4.0882">
        <ele>79.56428452425</ele>
        <time>2020-11-25T13:46:45.999+01:00</time>
      </trkpt>
      <trkpt lat="43.68449" lon="4.08819">
        <ele>79.57383047586</ele>
        <time>2020-11-25T13:46:46.999+01:00</time>
      </trkpt>
      <trkpt lat="43.6845" lon="4.08818">
        <ele>79.583406592106</ele>
        <time>2020-11-25T13:46:47.999+01:00</time>
      </trkpt>
      <trkpt lat="43.68451" lon="4.08816">
        <ele>79.592947189504</ele>
        <time>2020-11-25T13:46:48.999+01:00</time>
      </trkpt>
      <trkpt lat="43.68451" lon="4.08813">
        <ele>79.602446455973</ele>
        <time>2020-11-25T13:46:49.999+01:00</time>
      </trkpt>
      <trkpt lat="43.68451" lon="4.08812">
        <ele>79.611875774488</ele>
        <time>2020-11-25T13:46:50.999+01:00</time>
      </trkpt>
      <trkpt lat="43.68452" lon="4.08813">
        <ele>79.621278369868</ele>
        <time>2020-11-25T13:46:51.999+01:00</time>
      </trkpt>
      <trkpt lat="43.68452" lon="4.08812">
        <ele>79.630754954217</ele>
        <time>2020-11-25T13:46:52.999+01:00</time>
      </trkpt>
      <trkpt lat="43.68453" lon="4.08812">
        <ele>79.640348351165</ele>
        <time>2020-11-25T13:46:53.999+01:00</time>
      </trkpt>
      <trkpt lat="43.68454" lon="4.08811">
        <ele>79.649829834706</ele>
        <time>2020-11-25T13:46:54.999+01:00</time>
      </trkpt>
      <trkpt lat="43.68455" lon="4.0881">
        <ele>79.659236980951</ele>
        <time>2020-11-25T13:46:55.999+01:00</time>
      </trkpt>
      <trkpt lat="43.68457" lon="4.08809">
        <ele>79.668580434915</ele>
        <time>2020-11-25T13:46:56.999+01:00</time>
      </trkpt>
      <trkpt lat="43.68458" lon="4.08807">
        <ele>79.677806391415</ele>
        <time>2020-11-25T13:46:57.999+01:00</time>
      </trkpt>
      <trkpt lat="43.68459" lon="4.08806">
        <ele>79.687001103037</ele>
        <time>2020-11-25T13:46:58.999+01:00</time>
      </trkpt>
      <trkpt lat="43.6846" lon="4.08805">
        <ele>79.696225003007</ele>
        <time>2020-11-25T13:46:59.999+01:00</time>
      </trkpt>
      <trkpt lat="43.68461" lon="4.08804">
        <ele>79.705413614655</ele>
        <time>2020-11-25T13:47:00.999+01:00</time>
      </trkpt>
      <trkpt lat="43.68462" lon="4.08804">
        <ele>79.714527760613</ele>
        <time>2020-11-25T13:47:01.999+01:00</time>
      </trkpt>
      <trkpt lat="43.68463" lon="4.08804">
        <ele>79.723685883759</ele>
        <time>2020-11-25T13:47:02.999+01:00</time>
      </trkpt>
      <trkpt lat="43.68464" lon="4.08803">
        <ele>79.732884982664</ele>
        <time>2020-11-25T13:47:03.999+01:00</time>
      </trkpt>
      <trkpt lat="43.68465" lon="4.08803">
        <ele>79.742250192204</ele>
        <time>2020-11-25T13:47:04.999+01:00</time>
      </trkpt>
      <trkpt lat="43.68466" lon="4.08803">
        <ele>79.751801414203</ele>
        <time>2020-11-25T13:47:05.999+01:00</time>
      </trkpt>
      <trkpt lat="43.68466" lon="4.08803">
        <ele>79.761544666968</ele>
        <time>2020-11-25T13:47:06.999+01:00</time>
      </trkpt>
      <trkpt lat="43.68468" lon="4.08803">
        <ele>79.771415501746</ele>
        <time>2020-11-25T13:47:07.999+01:00</time>
      </trkpt>
      <trkpt lat="43.68469" lon="4.08802">
        <ele>79.781428105283</ele>
        <time>2020-11-25T13:47:08.999+01:00</time>
      </trkpt>
      <trkpt lat="43.6847" lon="4.08801">
        <ele>79.791503443649</ele>
        <time>2020-11-25T13:47:09.999+01:00</time>
      </trkpt>
      <trkpt lat="43.68471" lon="4.088">
        <ele>79.801606495165</ele>
        <time>2020-11-25T13:47:10.999+01:00</time>
      </trkpt>
      <trkpt lat="43.68472" lon="4.088">
        <ele>79.811722949028</ele>
        <time>2020-11-25T13:47:11.999+01:00</time>
      </trkpt>
      <trkpt lat="43.68473" lon="4.08799">
        <ele>79.821748878621</ele>
        <time>2020-11-25T13:47:12.999+01:00</time>
      </trkpt>
      <trkpt lat="43.68475" lon="4.08798">
        <ele>79.831728411963</ele>
        <time>2020-11-25T13:47:13.999+01:00</time>
      </trkpt>
      <trkpt lat="43.68476" lon="4.08798">
        <ele>79.841833511222</ele>
        <time>2020-11-25T13:47:14.999+01:00</time>
      </trkpt>
      <trkpt lat="43.68478" lon="4.08797">
        <ele>79.852139599471</ele>
        <time>2020-11-25T13:47:15.999+01:00</time>
      </trkpt>
      <trkpt lat="43.68479" lon="4.08796">
        <ele>79.862492340785</ele>
        <time>2020-11-25T13:47:16.999+01:00</time>
      </trkpt>
      <trkpt lat="43.68481" lon="4.08796">
        <ele>79.872856233906</ele>
        <time>2020-11-25T13:47:17.999+01:00</time>
      </trkpt>
      <trkpt lat="43.68483" lon="4.08795">
        <ele>79.883183278888</ele>
        <time>2020-11-25T13:47:18.999+01:00</time>
      </trkpt>
      <trkpt lat="43.68484" lon="4.08794">
        <ele>79.893369342122</ele>
        <time>2020-11-25T13:47:19.999+01:00</time>
      </trkpt>
      <trkpt lat="43.68485" lon="4.08793">
        <ele>79.903456706154</ele>
        <time>2020-11-25T13:47:20.999+01:00</time>
      </trkpt>
      <trkpt lat="43.68486" lon="4.08792">
        <ele>79.913411817787</ele>
        <time>2020-11-25T13:47:21.999+01:00</time>
      </trkpt>
      <trkpt lat="43.68487" lon="4.0879">
        <ele>79.923383113309</ele>
        <time>2020-11-25T13:47:22.999+01:00</time>
      </trkpt>
      <trkpt lat="43.68488" lon="4.0879">
        <ele>79.933267858917</ele>
        <time>2020-11-25T13:47:23.999+01:00</time>
      </trkpt>
      <trkpt lat="43.6849" lon="4.08788">
        <ele>79.943120027145</ele>
        <time>2020-11-25T13:47:24.999+01:00</time>
      </trkpt>
      <trkpt lat="43.68491" lon="4.08787">
        <ele>79.953010500688</ele>
        <time>2020-11-25T13:47:25.999+01:00</time>
      </trkpt>
      <trkpt lat="43.68493" lon="4.08787">
        <ele>79.962922699305</ele>
        <time>2020-11-25T13:47:26.999+01:00</time>
      </trkpt>
      <trkpt lat="43.68494" lon="4.08786">
        <ele>79.97284616604</ele>
        <time>2020-11-25T13:47:27.999+01:00</time>
      </trkpt>
      <trkpt lat="43.68496" lon="4.08785">
        <ele>79.982691029174</ele>
        <time>2020-11-25T13:47:28.999+01:00</time>
      </trkpt>
      <trkpt lat="43.68497" lon="4.08784">
        <ele>79.992546435711</ele>
        <time>2020-11-25T13:47:29.999+01:00</time>
      </trkpt>
      <trkpt lat="43.68498" lon="4.08784">
        <ele>80.002348924425</ele>
        <time>2020-11-25T13:47:30.999+01:00</time>
      </trkpt>
      <trkpt lat="43.68498" lon="4.08783">
        <ele>80.012111725158</ele>
        <time>2020-11-25T13:47:31.999+01:00</time>
      </trkpt>
      <trkpt lat="43.68499" lon="4.08783">
        <ele>80.022004458551</ele>
        <time>2020-11-25T13:47:32.999+01:00</time>
      </trkpt>
      <trkpt lat="43.685" lon="4.08783">
        <ele>80.031934090721</ele>
        <time>2020-11-25T13:47:33.999+01:00</time>
      </trkpt>
      <trkpt lat="43.68501" lon="4.08782">
        <ele>80.041827625326</ele>
        <time>2020-11-25T13:47:34.999+01:00</time>
      </trkpt>
      <trkpt lat="43.68502" lon="4.08782">
        <ele>80.051749752099</ele>
        <time>2020-11-25T13:47:35.999+01:00</time>
      </trkpt>
      <trkpt lat="43.68503" lon="4.08781">
        <ele>80.061623001067</ele>
        <time>2020-11-25T13:47:36.999+01:00</time>
      </trkpt>
      <trkpt lat="43.68503" lon="4.08781">
        <ele>80.071418207441</ele>
        <time>2020-11-25T13:47:37.999+01:00</time>
      </trkpt>
      <trkpt lat="43.68504" lon="4.0878">
        <ele>80.080933443735</ele>
        <time>2020-11-25T13:47:38.999+01:00</time>
      </trkpt>
      <trkpt lat="43.68505" lon="4.08779">
        <ele>80.090405914481</ele>
        <time>2020-11-25T13:47:39.999+01:00</time>
      </trkpt>
      <trkpt lat="43.68506" lon="4.08779">
        <ele>80.099850040161</ele>
        <time>2020-11-25T13:47:40.999+01:00</time>
      </trkpt>
      <trkpt lat="43.68507" lon="4.08778">
        <ele>80.109309250129</ele>
        <time>2020-11-25T13:47:41.999+01:00</time>
      </trkpt>
      <trkpt lat="43.68508" lon="4.08777">
        <ele>80.118808423506</ele>
        <time>2020-11-25T13:47:42.999+01:00</time>
      </trkpt>
      <trkpt lat="43.68509" lon="4.08777">
        <ele>80.128322105082</ele>
        <time>2020-11-25T13:47:43.999+01:00</time>
      </trkpt>
      <trkpt lat="43.6851" lon="4.08775">
        <ele>80.137894620029</ele>
        <time>2020-11-25T13:47:44.999+01:00</time>
      </trkpt>
      <trkpt lat="43.68511" lon="4.08774">
        <ele>80.147343956709</ele>
        <time>2020-11-25T13:47:45.999+01:00</time>
      </trkpt>
      <trkpt lat="43.68513" lon="4.08773">
        <ele>80.156809737229</ele>
        <time>2020-11-25T13:47:46.999+01:00</time>
      </trkpt>
      <trkpt lat="43.68513" lon="4.08772">
        <ele>80.166256100161</ele>
        <time>2020-11-25T13:47:47.999+01:00</time>
      </trkpt>
      <trkpt lat="43.68514" lon="4.08771">
        <ele>80.175794636484</ele>
        <time>2020-11-25T13:47:48.999+01:00</time>
      </trkpt>
      <trkpt lat="43.68515" lon="4.08771">
        <ele>80.18542550206</ele>
        <time>2020-11-25T13:47:49.999+01:00</time>
      </trkpt>
      <trkpt lat="43.68516" lon="4.0877">
        <ele>80.195068395012</ele>
        <time>2020-11-25T13:47:50.999+01:00</time>
      </trkpt>
      <trkpt lat="43.68517" lon="4.08769">
        <ele>80.204821807985</ele>
        <time>2020-11-25T13:47:51.999+01:00</time>
      </trkpt>
      <trkpt lat="43.68518" lon="4.08767">
        <ele>80.21456018769</ele>
        <time>2020-11-25T13:47:52.999+01:00</time>
      </trkpt>
      <trkpt lat="43.68519" lon="4.08766">
        <ele>80.224165322086</ele>
        <time>2020-11-25T13:47:53.999+01:00</time>
      </trkpt>
      <trkpt lat="43.6852" lon="4.08765">
        <ele>80.233791624736</ele>
        <time>2020-11-25T13:47:54.999+01:00</time>
      </trkpt>
      <trkpt lat="43.68521" lon="4.08765">
        <ele>80.243413601819</ele>
        <time>2020-11-25T13:47:55.999+01:00</time>
      </trkpt>
      <trkpt lat="43.68522" lon="4.08764">
        <ele>80.253071455549</ele>
        <time>2020-11-25T13:47:56.999+01:00</time>
      </trkpt>
      <trkpt lat="43.68523" lon="4.08764">
        <ele>80.262684833964</ele>
        <time>2020-11-25T13:47:57.999+01:00</time>
      </trkpt>
      <trkpt lat="43.68524" lon="4.08764">
        <ele>80.27230638702</ele>
        <time>2020-11-25T13:47:58.999+01:00</time>
      </trkpt>
      <trkpt lat="43.68524" lon="4.08764">
        <ele>80.281999772897</ele>
        <time>2020-11-25T13:47:59.999+01:00</time>
      </trkpt>
      <trkpt lat="43.68525" lon="4.08763">
        <ele>80.291813149016</ele>
        <time>2020-11-25T13:48:00.999+01:00</time>
      </trkpt>
      <trkpt lat="43.68526" lon="4.08762">
        <ele>80.30167037545</ele>
        <time>2020-11-25T13:48:01.999+01:00</time>
      </trkpt>
      <trkpt lat="43.68527" lon="4.08762">
        <ele>80.311399178538</ele>
        <time>2020-11-25T13:48:02.999+01:00</time>
      </trkpt>
      <trkpt lat="43.68528" lon="4.08762">
        <ele>80.32113581861</ele>
        <time>2020-11-25T13:48:03.999+01:00</time>
      </trkpt>
      <trkpt lat="43.68529" lon="4.08761">
        <ele>80.330926813217</ele>
        <time>2020-11-25T13:48:04.999+01:00</time>
      </trkpt>
      <trkpt lat="43.6853" lon="4.0876">
        <ele>80.340593105133</ele>
        <time>2020-11-25T13:48:05.999+01:00</time>
      </trkpt>
      <trkpt lat="43.68531" lon="4.0876">
        <ele>80.350264676246</ele>
        <time>2020-11-25T13:48:06.999+01:00</time>
      </trkpt>
      <trkpt lat="43.68532" lon="4.08759">
        <ele>80.359963383405</ele>
        <time>2020-11-25T13:48:07.999+01:00</time>
      </trkpt>
      <trkpt lat="43.68533" lon="4.08758">
        <ele>80.369690291139</ele>
        <time>2020-11-25T13:48:08.999+01:00</time>
      </trkpt>
      <trkpt lat="43.68534" lon="4.08758">
        <ele>80.379288782909</ele>
        <time>2020-11-25T13:48:09.999+01:00</time>
      </trkpt>
      <trkpt lat="43.68535" lon="4.08756">
        <ele>80.389016971671</ele>
        <time>2020-11-25T13:48:10.999+01:00</time>
      </trkpt>
      <trkpt lat="43.68536" lon="4.08756">
        <ele>80.39867001158</ele>
        <time>2020-11-25T13:48:11.999+01:00</time>
      </trkpt>
      <trkpt lat="43.68537" lon="4.08755">
        <ele>80.408397817052</ele>
        <time>2020-11-25T13:48:12.999+01:00</time>
      </trkpt>
      <trkpt lat="43.68538" lon="4.08754">
        <ele>80.41818478983</ele>
        <time>2020-11-25T13:48:13.999+01:00</time>
      </trkpt>
      <trkpt lat="43.68539" lon="4.08753">
        <ele>80.428028481632</ele>
        <time>2020-11-25T13:48:14.999+01:00</time>
      </trkpt>
      <trkpt lat="43.6854" lon="4.08753">
        <ele>80.437784930386</ele>
        <time>2020-11-25T13:48:15.999+01:00</time>
      </trkpt>
      <trkpt lat="43.68541" lon="4.08751">
        <ele>80.447625604366</ele>
        <time>2020-11-25T13:48:16.999+01:00</time>
      </trkpt>
      <trkpt lat="43.68543" lon="4.0875">
        <ele>80.457553367575</ele>
        <time>2020-11-25T13:48:17.999+01:00</time>
      </trkpt>
      <trkpt lat="43.68544" lon="4.08749">
        <ele>80.467778171307</ele>
        <time>2020-11-25T13:48:18.999+01:00</time>
      </trkpt>
      <trkpt lat="43.68544" lon="4.08749">
        <ele>80.478261772163</ele>
        <time>2020-11-25T13:48:19.999+01:00</time>
      </trkpt>
      <trkpt lat="43.68544" lon="4.08748">
        <ele>80.488951257455</ele>
        <time>2020-11-25T13:48:20.999+01:00</time>
      </trkpt>
      <trkpt lat="43.68545" lon="4.08747">
        <ele>80.500048102397</ele>
        <time>2020-11-25T13:48:21.999+01:00</time>
      </trkpt>
      <trkpt lat="43.68545" lon="4.08746">
        <ele>80.511593019668</ele>
        <time>2020-11-25T13:48:22.999+01:00</time>
      </trkpt>
      <trkpt lat="43.68546" lon="4.08743">
        <ele>80.523419941189</ele>
        <time>2020-11-25T13:48:23.999+01:00</time>
      </trkpt>
      <trkpt lat="43.68546" lon="4.08742">
        <ele>80.535406656393</ele>
        <time>2020-11-25T13:48:24.999+01:00</time>
      </trkpt>
      <trkpt lat="43.68545" lon="4.0874">
        <ele>80.547651104481</ele>
        <time>2020-11-25T13:48:25.999+01:00</time>
      </trkpt>
      <trkpt lat="43.68545" lon="4.08739">
        <ele>80.560018756927</ele>
        <time>2020-11-25T13:48:26.999+01:00</time>
      </trkpt>
      <trkpt lat="43.68544" lon="4.08736">
        <ele>80.572352180618</ele>
        <time>2020-11-25T13:48:27.999+01:00</time>
      </trkpt>
      <trkpt lat="43.68543" lon="4.08734">
        <ele>80.584602803343</ele>
        <time>2020-11-25T13:48:28.999+01:00</time>
      </trkpt>
      <trkpt lat="43.68543" lon="4.08733">
        <ele>80.596567666373</ele>
        <time>2020-11-25T13:48:29.999+01:00</time>
      </trkpt>
      <trkpt lat="43.68543" lon="4.08732">
        <ele>80.608221219323</ele>
        <time>2020-11-25T13:48:30.999+01:00</time>
      </trkpt>
      <trkpt lat="43.68542" lon="4.0873">
        <ele>80.619432912062</ele>
        <time>2020-11-25T13:48:31.999+01:00</time>
      </trkpt>
      <trkpt lat="43.68542" lon="4.08729">
        <ele>80.630150792037</ele>
        <time>2020-11-25T13:48:32.999+01:00</time>
      </trkpt>
      <trkpt lat="43.68542" lon="4.08728">
        <ele>80.640597924295</ele>
        <time>2020-11-25T13:48:33.999+01:00</time>
      </trkpt>
      <trkpt lat="43.68542" lon="4.08728">
        <ele>80.650902366552</ele>
        <time>2020-11-25T13:48:34.999+01:00</time>
      </trkpt>
      <trkpt lat="43.68541" lon="4.08728">
        <ele>80.661229936712</ele>
        <time>2020-11-25T13:48:35.999+01:00</time>
      </trkpt>
      <trkpt lat="43.68541" lon="4.08727">
        <ele>80.671507008889</ele>
        <time>2020-11-25T13:48:36.999+01:00</time>
      </trkpt>
      <trkpt lat="43.6854" lon="4.08727">
        <ele>80.681654573693</ele>
        <time>2020-11-25T13:48:37.999+01:00</time>
      </trkpt>
      <trkpt lat="43.6854" lon="4.08727">
        <ele>80.692095880279</ele>
        <time>2020-11-25T13:48:38.999+01:00</time>
      </trkpt>
      <trkpt lat="43.68539" lon="4.08727">
        <ele>80.702330141184</ele>
        <time>2020-11-25T13:48:39.999+01:00</time>
      </trkpt>
      <trkpt lat="43.68539" lon="4.08726">
        <ele>80.712459347227</ele>
        <time>2020-11-25T13:48:40.999+01:00</time>
      </trkpt>
      <trkpt lat="43.68538" lon="4.08726">
        <ele>80.722548814121</ele>
        <time>2020-11-25T13:48:41.999+01:00</time>
      </trkpt>
      <trkpt lat="43.68538" lon="4.08724">
        <ele>80.732358940847</ele>
        <time>2020-11-25T13:48:42.999+01:00</time>
      </trkpt>
      <trkpt lat="43.68537" lon="4.08722">
        <ele>80.742487895948</ele>
        <time>2020-11-25T13:48:43.999+01:00</time>
      </trkpt>
      <trkpt lat="43.68537" lon="4.0872">
        <ele>80.752862959169</ele>
        <time>2020-11-25T13:48:44.999+01:00</time>
      </trkpt>
      <trkpt lat="43.68537" lon="4.08719">
        <ele>80.763368942947</ele>
        <time>2020-11-25T13:48:45.999+01:00</time>
      </trkpt>
      <trkpt lat="43.68537" lon="4.08718">
        <ele>80.773925346531</ele>
        <time>2020-11-25T13:48:46.999+01:00</time>
      </trkpt>
      <trkpt lat="43.68536" lon="4.08716">
        <ele>80.784507587249</ele>
        <time>2020-11-25T13:48:47.999+01:00</time>
      </trkpt>
      <trkpt lat="43.68536" lon="4.08713">
        <ele>80.795589540266</ele>
        <time>2020-11-25T13:48:48.999+01:00</time>
      </trkpt>
      <trkpt lat="43.68535" lon="4.08711">
        <ele>80.806878876496</ele>
        <time>2020-11-25T13:48:49.999+01:00</time>
      </trkpt>
      <trkpt lat="43.68534" lon="4.08709">
        <ele>80.818769321928</ele>
        <time>2020-11-25T13:48:50.999+01:00</time>
      </trkpt>
      <trkpt lat="43.68534" lon="4.08708">
        <ele>80.83081558749</ele>
        <time>2020-11-25T13:48:51.999+01:00</time>
      </trkpt>
      <trkpt lat="43.68534" lon="4.08706">
        <ele>80.843536498813</ele>
        <time>2020-11-25T13:48:52.999+01:00</time>
      </trkpt>
      <trkpt lat="43.68533" lon="4.08704">
        <ele>80.856930194642</ele>
        <time>2020-11-25T13:48:53.999+01:00</time>
      </trkpt>
      <trkpt lat="43.68532" lon="4.08703">
        <ele>80.870775060544</ele>
        <time>2020-11-25T13:48:54.999+01:00</time>
      </trkpt>
      <trkpt lat="43.68532" lon="4.08701">
        <ele>80.88531408712</ele>
        <time>2020-11-25T13:48:55.999+01:00</time>
      </trkpt>
      <trkpt lat="43.68531" lon="4.087">
        <ele>80.900614487717</ele>
        <time>2020-11-25T13:48:56.999+01:00</time>
      </trkpt>
      <trkpt lat="43.6853" lon="4.08698">
        <ele>80.916485258357</ele>
        <time>2020-11-25T13:48:57.999+01:00</time>
      </trkpt>
      <trkpt lat="43.6853" lon="4.08697">
        <ele>80.932547105141</ele>
        <time>2020-11-25T13:48:58.999+01:00</time>
      </trkpt>
      <trkpt lat="43.68529" lon="4.08696">
        <ele>80.94923366689</ele>
        <time>2020-11-25T13:48:59.999+01:00</time>
      </trkpt>
      <trkpt lat="43.68529" lon="4.08694">
        <ele>80.966468022647</ele>
        <time>2020-11-25T13:49:00.999+01:00</time>
      </trkpt>
      <trkpt lat="43.68529" lon="4.08693">
        <ele>80.984237230026</ele>
        <time>2020-11-25T13:49:01.999+01:00</time>
      </trkpt>
      <trkpt lat="43.68529" lon="4.08692">
        <ele>81.002561871452</ele>
        <time>2020-11-25T13:49:02.999+01:00</time>
      </trkpt>
      <trkpt lat="43.68528" lon="4.08691">
        <ele>81.021545657811</ele>
        <time>2020-11-25T13:49:03.999+01:00</time>
      </trkpt>
      <trkpt lat="43.68528" lon="4.0869">
        <ele>81.040688170761</ele>
        <time>2020-11-25T13:49:04.999+01:00</time>
      </trkpt>
      <trkpt lat="43.68528" lon="4.08689">
        <ele>81.059876718483</ele>
        <time>2020-11-25T13:49:05.999+01:00</time>
      </trkpt>
      <trkpt lat="43.68527" lon="4.08688">
        <ele>81.079643633208</ele>
        <time>2020-11-25T13:49:06.999+01:00</time>
      </trkpt>
      <trkpt lat="43.68527" lon="4.08687">
        <ele>81.099993772389</ele>
        <time>2020-11-25T13:49:07.999+01:00</time>
      </trkpt>
      <trkpt lat="43.68526" lon="4.08685">
        <ele>81.121062203367</ele>
        <time>2020-11-25T13:49:08.999+01:00</time>
      </trkpt>
      <trkpt lat="43.68526" lon="4.08683">
        <ele>81.142908008044</ele>
        <time>2020-11-25T13:49:09.999+01:00</time>
      </trkpt>
      <trkpt lat="43.68525" lon="4.08682">
        <ele>81.165515756778</ele>
        <time>2020-11-25T13:49:10.999+01:00</time>
      </trkpt>
      <trkpt lat="43.68525" lon="4.0868">
        <ele>81.18857170827</ele>
        <time>2020-11-25T13:49:11.999+01:00</time>
      </trkpt>
      <trkpt lat="43.68524" lon="4.08679">
        <ele>81.211994291533</ele>
        <time>2020-11-25T13:49:12.999+01:00</time>
      </trkpt>
      <trkpt lat="43.68524" lon="4.08677">
        <ele>81.235717698068</ele>
        <time>2020-11-25T13:49:13.999+01:00</time>
      </trkpt>
      <trkpt lat="43.68523" lon="4.08674">
        <ele>81.259644540238</ele>
        <time>2020-11-25T13:49:14.999+01:00</time>
      </trkpt>
      <trkpt lat="43.68523" lon="4.08672">
        <ele>81.283774753477</ele>
        <time>2020-11-25T13:49:15.999+01:00</time>
      </trkpt>
      <trkpt lat="43.68522" lon="4.0867">
        <ele>81.307892660879</ele>
        <time>2020-11-25T13:49:16.999+01:00</time>
      </trkpt>
      <trkpt lat="43.68522" lon="4.08668">
        <ele>81.332088196121</ele>
        <time>2020-11-25T13:49:17.999+01:00</time>
      </trkpt>
      <trkpt lat="43.68521" lon="4.08667">
        <ele>81.35598624804</ele>
        <time>2020-11-25T13:49:18.999+01:00</time>
      </trkpt>
      <trkpt lat="43.68521" lon="4.08665">
        <ele>81.379827346933</ele>
        <time>2020-11-25T13:49:19.999+01:00</time>
      </trkpt>
      <trkpt lat="43.68521" lon="4.08663">
        <ele>81.403633888299</ele>
        <time>2020-11-25T13:49:20.999+01:00</time>
      </trkpt>
      <trkpt lat="43.68521" lon="4.08662">
        <ele>81.427370620551</ele>
        <time>2020-11-25T13:49:21.999+01:00</time>
      </trkpt>
      <trkpt lat="43.68521" lon="4.0866">
        <ele>81.450988377103</ele>
        <time>2020-11-25T13:49:22.999+01:00</time>
      </trkpt>
      <trkpt lat="43.68521" lon="4.08659">
        <ele>81.474309518195</ele>
        <time>2020-11-25T13:49:23.999+01:00</time>
      </trkpt>
      <trkpt lat="43.6852" lon="4.08657">
        <ele>81.497596622361</ele>
        <time>2020-11-25T13:49:24.999+01:00</time>
      </trkpt>
      <trkpt lat="43.6852" lon="4.08656">
        <ele>81.520918726634</ele>
        <time>2020-11-25T13:49:25.999+01:00</time>
      </trkpt>
      <trkpt lat="43.6852" lon="4.08655">
        <ele>81.544364411668</ele>
        <time>2020-11-25T13:49:26.999+01:00</time>
      </trkpt>
      <trkpt lat="43.6852" lon="4.08653">
        <ele>81.567932735099</ele>
        <time>2020-11-25T13:49:27.999+01:00</time>
      </trkpt>
      <trkpt lat="43.68519" lon="4.08652">
        <ele>81.591590655709</ele>
        <time>2020-11-25T13:49:28.999+01:00</time>
      </trkpt>
      <trkpt lat="43.68519" lon="4.0865">
        <ele>81.615061016076</ele>
        <time>2020-11-25T13:49:29.999+01:00</time>
      </trkpt>
      <trkpt lat="43.68518" lon="4.08649">
        <ele>81.638302477835</ele>
        <time>2020-11-25T13:49:30.999+01:00</time>
      </trkpt>
      <trkpt lat="43.68518" lon="4.08647">
        <ele>81.661633804276</ele>
        <time>2020-11-25T13:49:31.999+01:00</time>
      </trkpt>
      <trkpt lat="43.68517" lon="4.08646">
        <ele>81.684810566206</ele>
        <time>2020-11-25T13:49:32.999+01:00</time>
      </trkpt>
      <trkpt lat="43.68517" lon="4.08644">
        <ele>81.708065179908</ele>
        <time>2020-11-25T13:49:33.999+01:00</time>
      </trkpt>
      <trkpt lat="43.68517" lon="4.08642">
        <ele>81.731486083307</ele>
        <time>2020-11-25T13:49:34.999+01:00</time>
      </trkpt>
      <trkpt lat="43.68516" lon="4.08641">
        <ele>81.755107494842</ele>
        <time>2020-11-25T13:49:35.999+01:00</time>
      </trkpt>
      <trkpt lat="43.68516" lon="4.08639">
        <ele>81.778986313129</ele>
        <time>2020-11-25T13:49:36.999+01:00</time>
      </trkpt>
      <trkpt lat="43.68516" lon="4.08637">
        <ele>81.803135348593</ele>
        <time>2020-11-25T13:49:37.999+01:00</time>
      </trkpt>
      <trkpt lat="43.68516" lon="4.08636">
        <ele>81.827596802714</ele>
        <time>2020-11-25T13:49:38.999+01:00</time>
      </trkpt>
      <trkpt lat="43.68515" lon="4.08635">
        <ele>81.851990164384</ele>
        <time>2020-11-25T13:49:39.999+01:00</time>
      </trkpt>
      <trkpt lat="43.68515" lon="4.08634">
        <ele>81.876693099174</ele>
        <time>2020-11-25T13:49:40.999+01:00</time>
      </trkpt>
      <trkpt lat="43.68515" lon="4.08632">
        <ele>81.901418207576</ele>
        <time>2020-11-25T13:49:41.999+01:00</time>
      </trkpt>
      <trkpt lat="43.68515" lon="4.0863">
        <ele>81.926124051435</ele>
        <time>2020-11-25T13:49:42.999+01:00</time>
      </trkpt>
      <trkpt lat="43.68515" lon="4.08629">
        <ele>81.951027213932</ele>
        <time>2020-11-25T13:49:43.999+01:00</time>
      </trkpt>
      <trkpt lat="43.68514" lon="4.08628">
        <ele>81.976069715162</ele>
        <time>2020-11-25T13:49:44.999+01:00</time>
      </trkpt>
      <trkpt lat="43.68514" lon="4.08627">
        <ele>82.001065823576</ele>
        <time>2020-11-25T13:49:45.999+01:00</time>
      </trkpt>
      <trkpt lat="43.68513" lon="4.08625">
        <ele>82.026312704115</ele>
        <time>2020-11-25T13:49:46.999+01:00</time>
      </trkpt>
      <trkpt lat="43.68513" lon="4.08624">
        <ele>82.05178742662</ele>
        <time>2020-11-25T13:49:47.999+01:00</time>
      </trkpt>
      <trkpt lat="43.68512" lon="4.08621">
        <ele>82.077232342024</ele>
        <time>2020-11-25T13:49:48.999+01:00</time>
      </trkpt>
      <trkpt lat="43.68512" lon="4.0862">
        <ele>82.10260611522</ele>
        <time>2020-11-25T13:49:49.999+01:00</time>
      </trkpt>
      <trkpt lat="43.68511" lon="4.08618">
        <ele>82.127680245595</ele>
        <time>2020-11-25T13:49:50.999+01:00</time>
      </trkpt>
      <trkpt lat="43.68511" lon="4.08617">
        <ele>82.152857827569</ele>
        <time>2020-11-25T13:49:51.999+01:00</time>
      </trkpt>
      <trkpt lat="43.6851" lon="4.08614">
        <ele>82.177885024792</ele>
        <time>2020-11-25T13:49:52.999+01:00</time>
      </trkpt>
      <trkpt lat="43.6851" lon="4.08612">
        <ele>82.202635679001</ele>
        <time>2020-11-25T13:49:53.999+01:00</time>
      </trkpt>
      <trkpt lat="43.6851" lon="4.08611">
        <ele>82.227509421746</ele>
        <time>2020-11-25T13:49:54.999+01:00</time>
      </trkpt>
      <trkpt lat="43.6851" lon="4.0861">
        <ele>82.252196291469</ele>
        <time>2020-11-25T13:49:55.999+01:00</time>
      </trkpt>
      <trkpt lat="43.6851" lon="4.08609">
        <ele>82.276714880431</ele>
        <time>2020-11-25T13:49:56.999+01:00</time>
      </trkpt>
      <trkpt lat="43.68509" lon="4.08607">
        <ele>82.300989709094</ele>
        <time>2020-11-25T13:49:57.999+01:00</time>
      </trkpt>
      <trkpt lat="43.68509" lon="4.08605">
        <ele>82.324990817142</ele>
        <time>2020-11-25T13:49:58.999+01:00</time>
      </trkpt>
      <trkpt lat="43.68509" lon="4.08604">
        <ele>82.348787542482</ele>
        <time>2020-11-25T13:49:59.999+01:00</time>
      </trkpt>
      <trkpt lat="43.68508" lon="4.08602">
        <ele>82.372371227571</ele>
        <time>2020-11-25T13:50:00.999+01:00</time>
      </trkpt>
      <trkpt lat="43.68509" lon="4.08602">
        <ele>82.396365604492</ele>
        <time>2020-11-25T13:50:01.999+01:00</time>
      </trkpt>
      <trkpt lat="43.68509" lon="4.08601">
        <ele>82.42055208437</ele>
        <time>2020-11-25T13:50:02.999+01:00</time>
      </trkpt>
      <trkpt lat="43.68508" lon="4.08599">
        <ele>82.444557490957</ele>
        <time>2020-11-25T13:50:03.999+01:00</time>
      </trkpt>
      <trkpt lat="43.68508" lon="4.08598">
        <ele>82.468413689402</ele>
        <time>2020-11-25T13:50:04.999+01:00</time>
      </trkpt>
      <trkpt lat="43.68508" lon="4.08597">
        <ele>82.49176075835</ele>
        <time>2020-11-25T13:50:05.999+01:00</time>
      </trkpt>
      <trkpt lat="43.68507" lon="4.08596">
        <ele>82.514693171391</ele>
        <time>2020-11-25T13:50:06.999+01:00</time>
      </trkpt>
      <trkpt lat="43.68507" lon="4.08594">
        <ele>82.53719896236</ele>
        <time>2020-11-25T13:50:07.999+01:00</time>
      </trkpt>
      <trkpt lat="43.68507" lon="4.08593">
        <ele>82.559443000679</ele>
        <time>2020-11-25T13:50:08.999+01:00</time>
      </trkpt>
      <trkpt lat="43.68506" lon="4.08591">
        <ele>82.581274983407</ele>
        <time>2020-11-25T13:50:09.999+01:00</time>
      </trkpt>
      <trkpt lat="43.68505" lon="4.08589">
        <ele>82.60266250322</ele>
        <time>2020-11-25T13:50:10.999+01:00</time>
      </trkpt>
      <trkpt lat="43.68505" lon="4.08588">
        <ele>82.623715421432</ele>
        <time>2020-11-25T13:50:11.999+01:00</time>
      </trkpt>
      <trkpt lat="43.68504" lon="4.08586">
        <ele>82.644782618267</ele>
        <time>2020-11-25T13:50:12.999+01:00</time>
      </trkpt>
      <trkpt lat="43.68504" lon="4.08584">
        <ele>82.665845756656</ele>
        <time>2020-11-25T13:50:13.999+01:00</time>
      </trkpt>
      <trkpt lat="43.68503" lon="4.08583">
        <ele>82.686514729401</ele>
        <time>2020-11-25T13:50:14.999+01:00</time>
      </trkpt>
      <trkpt lat="43.68503" lon="4.08581">
        <ele>82.707001136463</ele>
        <time>2020-11-25T13:50:15.999+01:00</time>
      </trkpt>
      <trkpt lat="43.68502" lon="4.0858">
        <ele>82.727110103604</ele>
        <time>2020-11-25T13:50:16.999+01:00</time>
      </trkpt>
      <trkpt lat="43.68502" lon="4.08579">
        <ele>82.747465245506</ele>
        <time>2020-11-25T13:50:17.999+01:00</time>
      </trkpt>
      <trkpt lat="43.68502" lon="4.08577">
        <ele>82.767737966639</ele>
        <time>2020-11-25T13:50:18.999+01:00</time>
      </trkpt>
      <trkpt lat="43.68502" lon="4.08575">
        <ele>82.787792785244</ele>
        <time>2020-11-25T13:50:19.999+01:00</time>
      </trkpt>
      <trkpt lat="43.68502" lon="4.08574">
        <ele>82.807752960146</ele>
        <time>2020-11-25T13:50:20.999+01:00</time>
      </trkpt>
      <trkpt lat="43.68502" lon="4.08572">
        <ele>82.827627628347</ele>
        <time>2020-11-25T13:50:21.999+01:00</time>
      </trkpt>
      <trkpt lat="43.68501" lon="4.0857">
        <ele>82.847185604946</ele>
        <time>2020-11-25T13:50:22.999+01:00</time>
      </trkpt>
      <trkpt lat="43.68501" lon="4.08569">
        <ele>82.866457502253</ele>
        <time>2020-11-25T13:50:23.999+01:00</time>
      </trkpt>
      <trkpt lat="43.68501" lon="4.08568">
        <ele>82.885754950041</ele>
        <time>2020-11-25T13:50:24.999+01:00</time>
      </trkpt>
      <trkpt lat="43.68501" lon="4.08566">
        <ele>82.905105277389</ele>
        <time>2020-11-25T13:50:25.999+01:00</time>
      </trkpt>
      <trkpt lat="43.68501" lon="4.08564">
        <ele>82.924443934914</ele>
        <time>2020-11-25T13:50:26.999+01:00</time>
      </trkpt>
      <trkpt lat="43.68501" lon="4.08563">
        <ele>82.944077809615</ele>
        <time>2020-11-25T13:50:27.999+01:00</time>
      </trkpt>
      <trkpt lat="43.685" lon="4.08562">
        <ele>82.963885870546</ele>
        <time>2020-11-25T13:50:28.999+01:00</time>
      </trkpt>
      <trkpt lat="43.685" lon="4.0856">
        <ele>82.983916542558</ele>
        <time>2020-11-25T13:50:29.999+01:00</time>
      </trkpt>
      <trkpt lat="43.685" lon="4.08559">
        <ele>83.004029547485</ele>
        <time>2020-11-25T13:50:30.999+01:00</time>
      </trkpt>
      <trkpt lat="43.685" lon="4.08557">
        <ele>83.024344704583</ele>
        <time>2020-11-25T13:50:31.999+01:00</time>
      </trkpt>
      <trkpt lat="43.685" lon="4.08556">
        <ele>83.044261771673</ele>
        <time>2020-11-25T13:50:32.999+01:00</time>
      </trkpt>
      <trkpt lat="43.685" lon="4.08554">
        <ele>83.064412708375</ele>
        <time>2020-11-25T13:50:33.999+01:00</time>
      </trkpt>
      <trkpt lat="43.685" lon="4.08553">
        <ele>83.084769739305</ele>
        <time>2020-11-25T13:50:34.999+01:00</time>
      </trkpt>
      <trkpt lat="43.685" lon="4.08551">
        <ele>83.104710922447</ele>
        <time>2020-11-25T13:50:35.999+01:00</time>
      </trkpt>
      <trkpt lat="43.685" lon="4.0855">
        <ele>83.124883050323</ele>
        <time>2020-11-25T13:50:36.999+01:00</time>
      </trkpt>
      <trkpt lat="43.685" lon="4.08548">
        <ele>83.144962541853</ele>
        <time>2020-11-25T13:50:37.999+01:00</time>
      </trkpt>
      <trkpt lat="43.685" lon="4.08546">
        <ele>83.16533099909</ele>
        <time>2020-11-25T13:50:38.999+01:00</time>
      </trkpt>
      <trkpt lat="43.68501" lon="4.08545">
        <ele>83.186031215863</ele>
        <time>2020-11-25T13:50:39.999+01:00</time>
      </trkpt>
      <trkpt lat="43.68501" lon="4.08543">
        <ele>83.207040153809</ele>
        <time>2020-11-25T13:50:40.999+01:00</time>
      </trkpt>
      <trkpt lat="43.68502" lon="4.08542">
        <ele>83.228362148238</ele>
        <time>2020-11-25T13:50:41.999+01:00</time>
      </trkpt>
      <trkpt lat="43.68502" lon="4.08541">
        <ele>83.249882470173</ele>
        <time>2020-11-25T13:50:42.999+01:00</time>
      </trkpt>
      <trkpt lat="43.68502" lon="4.0854">
        <ele>83.271585112943</ele>
        <time>2020-11-25T13:50:43.999+01:00</time>
      </trkpt>
      <trkpt lat="43.68502" lon="4.08538">
        <ele>83.292966452237</ele>
        <time>2020-11-25T13:50:44.999+01:00</time>
      </trkpt>
      <trkpt lat="43.68502" lon="4.08538">
        <ele>83.314666061334</ele>
        <time>2020-11-25T13:50:45.999+01:00</time>
      </trkpt>
      <trkpt lat="43.68502" lon="4.08536">
        <ele>83.336709026469</ele>
        <time>2020-11-25T13:50:46.999+01:00</time>
      </trkpt>
      <trkpt lat="43.68502" lon="4.08535">
        <ele>83.358986276806</ele>
        <time>2020-11-25T13:50:47.999+01:00</time>
      </trkpt>
      <trkpt lat="43.68502" lon="4.08534">
        <ele>83.381213715565</ele>
        <time>2020-11-25T13:50:48.999+01:00</time>
      </trkpt>
      <trkpt lat="43.68502" lon="4.08533">
        <ele>83.403416785407</ele>
        <time>2020-11-25T13:50:49.999+01:00</time>
      </trkpt>
      <trkpt lat="43.68503" lon="4.08531">
        <ele>83.42594827327</ele>
        <time>2020-11-25T13:50:50.999+01:00</time>
      </trkpt>
      <trkpt lat="43.68503" lon="4.0853">
        <ele>83.448736597274</ele>
        <time>2020-11-25T13:50:51.999+01:00</time>
      </trkpt>
      <trkpt lat="43.68503" lon="4.08529">
        <ele>83.471404298377</ele>
        <time>2020-11-25T13:50:52.999+01:00</time>
      </trkpt>
      <trkpt lat="43.68504" lon="4.08527">
        <ele>83.494295791801</ele>
        <time>2020-11-25T13:50:53.999+01:00</time>
      </trkpt>
      <trkpt lat="43.68505" lon="4.08526">
        <ele>83.517410772373</ele>
        <time>2020-11-25T13:50:54.999+01:00</time>
      </trkpt>
      <trkpt lat="43.68505" lon="4.08524">
        <ele>83.540747584509</ele>
        <time>2020-11-25T13:50:55.999+01:00</time>
      </trkpt>
      <trkpt lat="43.68505" lon="4.08522">
        <ele>83.563987853169</ele>
        <time>2020-11-25T13:50:56.999+01:00</time>
      </trkpt>
      <trkpt lat="43.68505" lon="4.08521">
        <ele>83.587444289051</ele>
        <time>2020-11-25T13:50:57.999+01:00</time>
      </trkpt>
      <trkpt lat="43.68505" lon="4.0852">
        <ele>83.610782002205</ele>
        <time>2020-11-25T13:50:58.999+01:00</time>
      </trkpt>
      <trkpt lat="43.68505" lon="4.08519">
        <ele>83.634473191287</ele>
        <time>2020-11-25T13:50:59.999+01:00</time>
      </trkpt>
      <trkpt lat="43.68505" lon="4.08517">
        <ele>83.658539630294</ele>
        <time>2020-11-25T13:51:00.999+01:00</time>
      </trkpt>
      <trkpt lat="43.68506" lon="4.08515">
        <ele>83.682841346724</ele>
        <time>2020-11-25T13:51:01.999+01:00</time>
      </trkpt>
      <trkpt lat="43.68506" lon="4.08514">
        <ele>83.706968187392</ele>
        <time>2020-11-25T13:51:02.999+01:00</time>
      </trkpt>
      <trkpt lat="43.68506" lon="4.08513">
        <ele>83.730967869758</ele>
        <time>2020-11-25T13:51:03.999+01:00</time>
      </trkpt>
      <trkpt lat="43.68506" lon="4.08512">
        <ele>83.754800986363</ele>
        <time>2020-11-25T13:51:04.999+01:00</time>
      </trkpt>
      <trkpt lat="43.68507" lon="4.08511">
        <ele>83.778517491378</ele>
        <time>2020-11-25T13:51:05.999+01:00</time>
      </trkpt>
      <trkpt lat="43.68507" lon="4.0851">
        <ele>83.80207242894</ele>
        <time>2020-11-25T13:51:06.999+01:00</time>
      </trkpt>
      <trkpt lat="43.68507" lon="4.08509">
        <ele>83.825408247443</ele>
        <time>2020-11-25T13:51:07.999+01:00</time>
      </trkpt>
      <trkpt lat="43.68508" lon="4.08506">
        <ele>83.848863746116</ele>
        <time>2020-11-25T13:51:08.999+01:00</time>
      </trkpt>
      <trkpt lat="43.68508" lon="4.08504">
        <ele>83.872424684782</ele>
        <time>2020-11-25T13:51:09.999+01:00</time>
      </trkpt>
      <trkpt lat="43.68508" lon="4.08502">
        <ele>83.896059985826</ele>
        <time>2020-11-25T13:51:10.999+01:00</time>
      </trkpt>
      <trkpt lat="43.68508" lon="4.08501">
        <ele>83.919427007901</ele>
        <time>2020-11-25T13:51:11.999+01:00</time>
      </trkpt>
      <trkpt lat="43.68508" lon="4.08499">
        <ele>83.942382640831</ele>
        <time>2020-11-25T13:51:12.999+01:00</time>
      </trkpt>
      <trkpt lat="43.68509" lon="4.08498">
        <ele>83.965043275667</ele>
        <time>2020-11-25T13:51:13.999+01:00</time>
      </trkpt>
      <trkpt lat="43.68509" lon="4.08496">
        <ele>83.987770009467</ele>
        <time>2020-11-25T13:51:14.999+01:00</time>
      </trkpt>
      <trkpt lat="43.68509" lon="4.08494">
        <ele>84.010536113313</ele>
        <time>2020-11-25T13:51:15.999+01:00</time>
      </trkpt>
      <trkpt lat="43.6851" lon="4.08493">
        <ele>84.033023556212</ele>
        <time>2020-11-25T13:51:16.999+01:00</time>
      </trkpt>
      <trkpt lat="43.6851" lon="4.08491">
        <ele>84.055640831005</ele>
        <time>2020-11-25T13:51:17.999+01:00</time>
      </trkpt>
      <trkpt lat="43.6851" lon="4.08489">
        <ele>84.078362908969</ele>
        <time>2020-11-25T13:51:18.999+01:00</time>
      </trkpt>
      <trkpt lat="43.6851" lon="4.08487">
        <ele>84.101140766872</ele>
        <time>2020-11-25T13:51:19.999+01:00</time>
      </trkpt>
      <trkpt lat="43.6851" lon="4.08485">
        <ele>84.124037371654</ele>
        <time>2020-11-25T13:51:20.999+01:00</time>
      </trkpt>
      <trkpt lat="43.68511" lon="4.08484">
        <ele>84.146987045319</ele>
        <time>2020-11-25T13:51:21.999+01:00</time>
      </trkpt>
      <trkpt lat="43.68511" lon="4.08483">
        <ele>84.170092970491</ele>
        <time>2020-11-25T13:51:22.999+01:00</time>
      </trkpt>
      <trkpt lat="43.68511" lon="4.08482">
        <ele>84.193159194961</ele>
        <time>2020-11-25T13:51:23.999+01:00</time>
      </trkpt>
      <trkpt lat="43.68511" lon="4.0848">
        <ele>84.216276465915</ele>
        <time>2020-11-25T13:51:24.999+01:00</time>
      </trkpt>
      <trkpt lat="43.68511" lon="4.08479">
        <ele>84.239429346377</ele>
        <time>2020-11-25T13:51:25.999+01:00</time>
      </trkpt>
      <trkpt lat="43.68512" lon="4.08478">
        <ele>84.262657692707</ele>
        <time>2020-11-25T13:51:26.999+01:00</time>
      </trkpt>
      <trkpt lat="43.68512" lon="4.08476">
        <ele>84.285955994271</ele>
        <time>2020-11-25T13:51:27.999+01:00</time>
      </trkpt>
      <trkpt lat="43.68512" lon="4.08475">
        <ele>84.308962717498</ele>
        <time>2020-11-25T13:51:28.999+01:00</time>
      </trkpt>
      <trkpt lat="43.68512" lon="4.08475">
        <ele>84.331714798215</ele>
        <time>2020-11-25T13:51:29.999+01:00</time>
      </trkpt>
      <trkpt lat="43.68513" lon="4.08473">
        <ele>84.354591489289</ele>
        <time>2020-11-25T13:51:30.999+01:00</time>
      </trkpt>
      <trkpt lat="43.68513" lon="4.08472">
        <ele>84.377471378241</ele>
        <time>2020-11-25T13:51:31.999+01:00</time>
      </trkpt>
      <trkpt lat="43.68513" lon="4.08471">
        <ele>84.400085210847</ele>
        <time>2020-11-25T13:51:32.999+01:00</time>
      </trkpt>
      <trkpt lat="43.68513" lon="4.0847">
        <ele>84.422495267257</ele>
        <time>2020-11-25T13:51:33.999+01:00</time>
      </trkpt>
      <trkpt lat="43.68513" lon="4.08468">
        <ele>84.445129205362</ele>
        <time>2020-11-25T13:51:34.999+01:00</time>
      </trkpt>
      <trkpt lat="43.68514" lon="4.08467">
        <ele>84.467911118353</ele>
        <time>2020-11-25T13:51:35.999+01:00</time>
      </trkpt>
      <trkpt lat="43.68514" lon="4.08465">
        <ele>84.490756951737</ele>
        <time>2020-11-25T13:51:36.999+01:00</time>
      </trkpt>
      <trkpt lat="43.68514" lon="4.08463">
        <ele>84.51374440085</ele>
        <time>2020-11-25T13:51:37.999+01:00</time>
      </trkpt>
      <trkpt lat="43.68515" lon="4.08461">
        <ele>84.536848159406</ele>
        <time>2020-11-25T13:51:38.999+01:00</time>
      </trkpt>
      <trkpt lat="43.68516" lon="4.08459">
        <ele>84.560052989011</ele>
        <time>2020-11-25T13:51:39.999+01:00</time>
      </trkpt>
      <trkpt lat="43.68516" lon="4.08458">
        <ele>84.583315760402</ele>
        <time>2020-11-25T13:51:40.999+01:00</time>
      </trkpt>
      <trkpt lat="43.68517" lon="4.08457">
        <ele>84.606347721741</ele>
        <time>2020-11-25T13:51:41.999+01:00</time>
      </trkpt>
      <trkpt lat="43.68518" lon="4.08455">
        <ele>84.629397672195</ele>
        <time>2020-11-25T13:51:42.999+01:00</time>
      </trkpt>
      <trkpt lat="43.68518" lon="4.08453">
        <ele>84.652565406835</ele>
        <time>2020-11-25T13:51:43.999+01:00</time>
      </trkpt>
      <trkpt lat="43.68519" lon="4.08451">
        <ele>84.675908006095</ele>
        <time>2020-11-25T13:51:44.999+01:00</time>
      </trkpt>
      <trkpt lat="43.6852" lon="4.0845">
        <ele>84.699308335199</ele>
        <time>2020-11-25T13:51:45.999+01:00</time>
      </trkpt>
      <trkpt lat="43.6852" lon="4.08448">
        <ele>84.7227405865</ele>
        <time>2020-11-25T13:51:46.999+01:00</time>
      </trkpt>
      <trkpt lat="43.68521" lon="4.08447">
        <ele>84.746360964811</ele>
        <time>2020-11-25T13:51:47.999+01:00</time>
      </trkpt>
      <trkpt lat="43.68521" lon="4.08445">
        <ele>84.770084496346</ele>
        <time>2020-11-25T13:51:48.999+01:00</time>
      </trkpt>
      <trkpt lat="43.68522" lon="4.08444">
        <ele>84.79402351168</ele>
        <time>2020-11-25T13:51:49.999+01:00</time>
      </trkpt>
      <trkpt lat="43.68523" lon="4.08443">
        <ele>84.818047043833</ele>
        <time>2020-11-25T13:51:50.999+01:00</time>
      </trkpt>
      <trkpt lat="43.68523" lon="4.08442">
        <ele>84.842126672018</ele>
        <time>2020-11-25T13:51:51.999+01:00</time>
      </trkpt>
      <trkpt lat="43.68523" lon="4.08441">
        <ele>84.866120092589</ele>
        <time>2020-11-25T13:51:52.999+01:00</time>
      </trkpt>
      <trkpt lat="43.68524" lon="4.0844">
        <ele>84.889839139775</ele>
        <time>2020-11-25T13:51:53.999+01:00</time>
      </trkpt>
      <trkpt lat="43.68524" lon="4.0844">
        <ele>84.913450467634</ele>
        <time>2020-11-25T13:51:54.999+01:00</time>
      </trkpt>
      <trkpt lat="43.68524" lon="4.08438">
        <ele>84.936905280989</ele>
        <time>2020-11-25T13:51:55.999+01:00</time>
      </trkpt>
      <trkpt lat="43.68524" lon="4.08438">
        <ele>84.960161479774</ele>
        <time>2020-11-25T13:51:56.999+01:00</time>
      </trkpt>
      <trkpt lat="43.68525" lon="4.08437">
        <ele>84.983265118476</ele>
        <time>2020-11-25T13:51:57.999+01:00</time>
      </trkpt>
      <trkpt lat="43.68525" lon="4.08437">
        <ele>85.006132283699</ele>
        <time>2020-11-25T13:51:58.999+01:00</time>
      </trkpt>
      <trkpt lat="43.68526" lon="4.08436">
        <ele>85.028722509026</ele>
        <time>2020-11-25T13:51:59.999+01:00</time>
      </trkpt>
      <trkpt lat="43.68527" lon="4.08435">
        <ele>85.050981300266</ele>
        <time>2020-11-25T13:52:00.999+01:00</time>
      </trkpt>
      <trkpt lat="43.68528" lon="4.08435">
        <ele>85.073015800539</ele>
        <time>2020-11-25T13:52:01.999+01:00</time>
      </trkpt>
      <trkpt lat="43.68528" lon="4.08434">
        <ele>85.094873124182</ele>
        <time>2020-11-25T13:52:02.999+01:00</time>
      </trkpt>
      <trkpt lat="43.68529" lon="4.08433">
        <ele>85.116379372973</ele>
        <time>2020-11-25T13:52:03.999+01:00</time>
      </trkpt>
      <trkpt lat="43.6853" lon="4.08432">
        <ele>85.13762860132</ele>
        <time>2020-11-25T13:52:04.999+01:00</time>
      </trkpt>
      <trkpt lat="43.68531" lon="4.08431">
        <ele>85.158630931217</ele>
        <time>2020-11-25T13:52:05.999+01:00</time>
      </trkpt>
      <trkpt lat="43.68532" lon="4.08431">
        <ele>85.179324435358</ele>
        <time>2020-11-25T13:52:06.999+01:00</time>
      </trkpt>
      <trkpt lat="43.68533" lon="4.0843">
        <ele>85.199775464196</ele>
        <time>2020-11-25T13:52:07.999+01:00</time>
      </trkpt>
      <trkpt lat="43.68534" lon="4.08429">
        <ele>85.219902810255</ele>
        <time>2020-11-25T13:52:08.999+01:00</time>
      </trkpt>
      <trkpt lat="43.68535" lon="4.08428">
        <ele>85.23975523789</ele>
        <time>2020-11-25T13:52:09.999+01:00</time>
      </trkpt>
      <trkpt lat="43.68535" lon="4.08428">
        <ele>85.259257071775</ele>
        <time>2020-11-25T13:52:10.999+01:00</time>
      </trkpt>
      <trkpt lat="43.68536" lon="4.08428">
        <ele>85.27850389606</ele>
        <time>2020-11-25T13:52:11.999+01:00</time>
      </trkpt>
      <trkpt lat="43.68536" lon="4.08428">
        <ele>85.29754864721</ele>
        <time>2020-11-25T13:52:12.999+01:00</time>
      </trkpt>
      <trkpt lat="43.68537" lon="4.08427">
        <ele>85.316263650439</ele>
        <time>2020-11-25T13:52:13.999+01:00</time>
      </trkpt>
      <trkpt lat="43.6854" lon="4.08426">
        <ele>85.335069983047</ele>
        <time>2020-11-25T13:52:14.999+01:00</time>
      </trkpt>
      <trkpt lat="43.68542" lon="4.08426">
        <ele>85.35435737066</ele>
        <time>2020-11-25T13:52:15.999+01:00</time>
      </trkpt>
      <trkpt lat="43.68545" lon="4.08425">
        <ele>85.374189277155</ele>
        <time>2020-11-25T13:52:16.999+01:00</time>
      </trkpt>
      <trkpt lat="43.68547" lon="4.08425">
        <ele>85.394533230005</ele>
        <time>2020-11-25T13:52:17.999+01:00</time>
      </trkpt>
      <trkpt lat="43.68549" lon="4.08425">
        <ele>85.415240612543</ele>
        <time>2020-11-25T13:52:18.999+01:00</time>
      </trkpt>
      <trkpt lat="43.6855" lon="4.08425">
        <ele>85.436116089742</ele>
        <time>2020-11-25T13:52:19.999+01:00</time>
      </trkpt>
      <trkpt lat="43.68551" lon="4.08425">
        <ele>85.456715208906</ele>
        <time>2020-11-25T13:52:20.999+01:00</time>
      </trkpt>
      <trkpt lat="43.68552" lon="4.08425">
        <ele>85.476996102544</ele>
        <time>2020-11-25T13:52:21.999+01:00</time>
      </trkpt>
      <trkpt lat="43.68552" lon="4.08425">
        <ele>85.496864794993</ele>
        <time>2020-11-25T13:52:22.999+01:00</time>
      </trkpt>
      <trkpt lat="43.68554" lon="4.08426">
        <ele>85.516459687904</ele>
        <time>2020-11-25T13:52:23.999+01:00</time>
      </trkpt>
      <trkpt lat="43.68555" lon="4.08426">
        <ele>85.535822229843</ele>
        <time>2020-11-25T13:52:24.999+01:00</time>
      </trkpt>
      <trkpt lat="43.68555" lon="4.08426">
        <ele>85.554914206656</ele>
        <time>2020-11-25T13:52:25.999+01:00</time>
      </trkpt>
      <trkpt lat="43.68555" lon="4.08427">
        <ele>85.573718153694</ele>
        <time>2020-11-25T13:52:26.999+01:00</time>
      </trkpt>
      <trkpt lat="43.68556" lon="4.08426">
        <ele>85.592205854434</ele>
        <time>2020-11-25T13:52:27.999+01:00</time>
      </trkpt>
      <trkpt lat="43.68557" lon="4.08426">
        <ele>85.610333203928</ele>
        <time>2020-11-25T13:52:28.999+01:00</time>
      </trkpt>
      <trkpt lat="43.68558" lon="4.08426">
        <ele>85.628225193803</ele>
        <time>2020-11-25T13:52:29.999+01:00</time>
      </trkpt>
      <trkpt lat="43.68559" lon="4.08427">
        <ele>85.645815758514</ele>
        <time>2020-11-25T13:52:30.999+01:00</time>
      </trkpt>
      <trkpt lat="43.6856" lon="4.08427">
        <ele>85.663102668726</ele>
        <time>2020-11-25T13:52:31.999+01:00</time>
      </trkpt>
      <trkpt lat="43.68561" lon="4.08427">
        <ele>85.680024615367</ele>
        <time>2020-11-25T13:52:32.999+01:00</time>
      </trkpt>
      <trkpt lat="43.68563" lon="4.08427">
        <ele>85.696685779593</ele>
        <time>2020-11-25T13:52:33.999+01:00</time>
      </trkpt>
      <trkpt lat="43.68564" lon="4.08428">
        <ele>85.713035963502</ele>
        <time>2020-11-25T13:52:34.999+01:00</time>
      </trkpt>
      <trkpt lat="43.68565" lon="4.08428">
        <ele>85.729095549512</ele>
        <time>2020-11-25T13:52:35.999+01:00</time>
      </trkpt>
      <trkpt lat="43.68566" lon="4.08428">
        <ele>85.744916291321</ele>
        <time>2020-11-25T13:52:36.999+01:00</time>
      </trkpt>
      <trkpt lat="43.68567" lon="4.08427">
        <ele>85.760374961733</ele>
        <time>2020-11-25T13:52:37.999+01:00</time>
      </trkpt>
      <trkpt lat="43.68569" lon="4.08428">
        <ele>85.775542147032</ele>
        <time>2020-11-25T13:52:38.999+01:00</time>
      </trkpt>
      <trkpt lat="43.6857" lon="4.08428">
        <ele>85.790465189812</ele>
        <time>2020-11-25T13:52:39.999+01:00</time>
      </trkpt>
      <trkpt lat="43.68572" lon="4.08427">
        <ele>85.805176675859</ele>
        <time>2020-11-25T13:52:40.999+01:00</time>
      </trkpt>
      <trkpt lat="43.68574" lon="4.08427">
        <ele>85.819733367688</ele>
        <time>2020-11-25T13:52:41.999+01:00</time>
      </trkpt>
      <trkpt lat="43.68575" lon="4.08427">
        <ele>85.834130067786</ele>
        <time>2020-11-25T13:52:42.999+01:00</time>
      </trkpt>
      <trkpt lat="43.68576" lon="4.08427">
        <ele>85.848411770822</ele>
        <time>2020-11-25T13:52:43.999+01:00</time>
      </trkpt>
      <trkpt lat="43.68577" lon="4.08427">
        <ele>85.862523187262</ele>
        <time>2020-11-25T13:52:44.999+01:00</time>
      </trkpt>
      <trkpt lat="43.68578" lon="4.08428">
        <ele>85.876532085125</ele>
        <time>2020-11-25T13:52:45.999+01:00</time>
      </trkpt>
      <trkpt lat="43.68579" lon="4.08428">
        <ele>85.890433391991</ele>
        <time>2020-11-25T13:52:46.999+01:00</time>
      </trkpt>
      <trkpt lat="43.6858" lon="4.08428">
        <ele>85.904167352549</ele>
        <time>2020-11-25T13:52:47.999+01:00</time>
      </trkpt>
      <trkpt lat="43.68581" lon="4.08428">
        <ele>85.917851922295</ele>
        <time>2020-11-25T13:52:48.999+01:00</time>
      </trkpt>
      <trkpt lat="43.68582" lon="4.08428">
        <ele>85.931427983182</ele>
        <time>2020-11-25T13:52:49.999+01:00</time>
      </trkpt>
      <trkpt lat="43.68583" lon="4.08428">
        <ele>85.944905101943</ele>
        <time>2020-11-25T13:52:50.999+01:00</time>
      </trkpt>
      <trkpt lat="43.68583" lon="4.08428">
        <ele>85.958268418369</ele>
        <time>2020-11-25T13:52:51.999+01:00</time>
      </trkpt>
      <trkpt lat="43.68584" lon="4.08428">
        <ele>85.971577613834</ele>
        <time>2020-11-25T13:52:52.999+01:00</time>
      </trkpt>
      <trkpt lat="43.68585" lon="4.08428">
        <ele>85.984752194413</ele>
        <time>2020-11-25T13:52:53.999+01:00</time>
      </trkpt>
      <trkpt lat="43.68586" lon="4.08428">
        <ele>85.997766463037</ele>
        <time>2020-11-25T13:52:54.999+01:00</time>
      </trkpt>
      <trkpt lat="43.68587" lon="4.08429">
        <ele>86.01067456494</ele>
        <time>2020-11-25T13:52:55.999+01:00</time>
      </trkpt>
      <trkpt lat="43.68588" lon="4.08429">
        <ele>86.02343467308</ele>
        <time>2020-11-25T13:52:56.999+01:00</time>
      </trkpt>
      <trkpt lat="43.68589" lon="4.08429">
        <ele>86.03604586454</ele>
        <time>2020-11-25T13:52:57.999+01:00</time>
      </trkpt>
      <trkpt lat="43.68591" lon="4.08429">
        <ele>86.048642359537</ele>
        <time>2020-11-25T13:52:58.999+01:00</time>
      </trkpt>
      <trkpt lat="43.68591" lon="4.08429">
        <ele>86.06116602473</ele>
        <time>2020-11-25T13:52:59.999+01:00</time>
      </trkpt>
      <trkpt lat="43.68592" lon="4.08429">
        <ele>86.073554491431</ele>
        <time>2020-11-25T13:53:00.999+01:00</time>
      </trkpt>
      <trkpt lat="43.68593" lon="4.08429">
        <ele>86.085874064863</ele>
        <time>2020-11-25T13:53:01.999+01:00</time>
      </trkpt>
      <trkpt lat="43.68594" lon="4.08429">
        <ele>86.098152065792</ele>
        <time>2020-11-25T13:53:02.999+01:00</time>
      </trkpt>
      <trkpt lat="43.68594" lon="4.08429">
        <ele>86.110344336955</ele>
        <time>2020-11-25T13:53:03.999+01:00</time>
      </trkpt>
      <trkpt lat="43.68595" lon="4.08429">
        <ele>86.122396414253</ele>
        <time>2020-11-25T13:53:04.999+01:00</time>
      </trkpt>
      <trkpt lat="43.68597" lon="4.08428">
        <ele>86.134483299091</ele>
        <time>2020-11-25T13:53:05.999+01:00</time>
      </trkpt>
      <trkpt lat="43.68597" lon="4.08428">
        <ele>86.146459105713</ele>
        <time>2020-11-25T13:53:06.999+01:00</time>
      </trkpt>
      <trkpt lat="43.68599" lon="4.08427">
        <ele>86.158309241509</ele>
        <time>2020-11-25T13:53:07.999+01:00</time>
      </trkpt>
      <trkpt lat="43.686" lon="4.08427">
        <ele>86.169951254112</ele>
        <time>2020-11-25T13:53:08.999+01:00</time>
      </trkpt>
      <trkpt lat="43.68601" lon="4.08427">
        <ele>86.181326367923</ele>
        <time>2020-11-25T13:53:09.999+01:00</time>
      </trkpt>
      <trkpt lat="43.68602" lon="4.08427">
        <ele>86.192587481121</ele>
        <time>2020-11-25T13:53:10.999+01:00</time>
      </trkpt>
      <trkpt lat="43.68603" lon="4.08427">
        <ele>86.203648365912</ele>
        <time>2020-11-25T13:53:11.999+01:00</time>
      </trkpt>
      <trkpt lat="43.68605" lon="4.08427">
        <ele>86.214558260195</ele>
        <time>2020-11-25T13:53:12.999+01:00</time>
      </trkpt>
      <trkpt lat="43.68607" lon="4.08427">
        <ele>86.225375076683</ele>
        <time>2020-11-25T13:53:13.999+01:00</time>
      </trkpt>
      <trkpt lat="43.68608" lon="4.08427">
        <ele>86.236083169016</ele>
        <time>2020-11-25T13:53:14.999+01:00</time>
      </trkpt>
      <trkpt lat="43.68609" lon="4.08427">
        <ele>86.246618455578</ele>
        <time>2020-11-25T13:53:15.999+01:00</time>
      </trkpt>
      <trkpt lat="43.68611" lon="4.08427">
        <ele>86.257018554806</ele>
        <time>2020-11-25T13:53:16.999+01:00</time>
      </trkpt>
      <trkpt lat="43.68612" lon="4.08427">
        <ele>86.267296028133</ele>
        <time>2020-11-25T13:53:17.999+01:00</time>
      </trkpt>
      <trkpt lat="43.68612" lon="4.08427">
        <ele>86.277541607642</ele>
        <time>2020-11-25T13:53:18.999+01:00</time>
      </trkpt>
      <trkpt lat="43.68613" lon="4.08427">
        <ele>86.287779945842</ele>
        <time>2020-11-25T13:53:19.999+01:00</time>
      </trkpt>
      <trkpt lat="43.68614" lon="4.08427">
        <ele>86.297848073346</ele>
        <time>2020-11-25T13:53:20.999+01:00</time>
      </trkpt>
      <trkpt lat="43.68615" lon="4.08427">
        <ele>86.307827920186</ele>
        <time>2020-11-25T13:53:21.999+01:00</time>
      </trkpt>
      <trkpt lat="43.68616" lon="4.08426">
        <ele>86.317793346101</ele>
        <time>2020-11-25T13:53:22.999+01:00</time>
      </trkpt>
      <trkpt lat="43.68617" lon="4.08427">
        <ele>86.327574464175</ele>
        <time>2020-11-25T13:53:23.999+01:00</time>
      </trkpt>
      <trkpt lat="43.68618" lon="4.08427">
        <ele>86.337373633667</ele>
        <time>2020-11-25T13:53:24.999+01:00</time>
      </trkpt>
      <trkpt lat="43.68618" lon="4.08427">
        <ele>86.347143402038</ele>
        <time>2020-11-25T13:53:25.999+01:00</time>
      </trkpt>
      <trkpt lat="43.68619" lon="4.08427">
        <ele>86.356904304684</ele>
        <time>2020-11-25T13:53:26.999+01:00</time>
      </trkpt>
      <trkpt lat="43.6862" lon="4.08427">
        <ele>86.366628190989</ele>
        <time>2020-11-25T13:53:27.999+01:00</time>
      </trkpt>
      <trkpt lat="43.68621" lon="4.08428">
        <ele>86.376239620772</ele>
        <time>2020-11-25T13:53:28.999+01:00</time>
      </trkpt>
      <trkpt lat="43.68622" lon="4.08428">
        <ele>86.385800691255</ele>
        <time>2020-11-25T13:53:29.999+01:00</time>
      </trkpt>
      <trkpt lat="43.68623" lon="4.08428">
        <ele>86.395253429106</ele>
        <time>2020-11-25T13:53:30.999+01:00</time>
      </trkpt>
      <trkpt lat="43.68623" lon="4.08428">
        <ele>86.404614397085</ele>
        <time>2020-11-25T13:53:31.999+01:00</time>
      </trkpt>
      <trkpt lat="43.68625" lon="4.08427">
        <ele>86.413833971748</ele>
        <time>2020-11-25T13:53:32.999+01:00</time>
      </trkpt>
      <trkpt lat="43.68625" lon="4.08428">
        <ele>86.422933081793</ele>
        <time>2020-11-25T13:53:33.999+01:00</time>
      </trkpt>
      <trkpt lat="43.68626" lon="4.08428">
        <ele>86.431833486321</ele>
        <time>2020-11-25T13:53:34.999+01:00</time>
      </trkpt>
      <trkpt lat="43.68627" lon="4.08427">
        <ele>86.440616320058</ele>
        <time>2020-11-25T13:53:35.999+01:00</time>
      </trkpt>
      <trkpt lat="43.68628" lon="4.08426">
        <ele>86.449414622014</ele>
        <time>2020-11-25T13:53:36.999+01:00</time>
      </trkpt>
      <trkpt lat="43.68629" lon="4.08425">
        <ele>86.458277907967</ele>
        <time>2020-11-25T13:53:37.999+01:00</time>
      </trkpt>
      <trkpt lat="43.6863" lon="4.08425">
        <ele>86.467130108702</ele>
        <time>2020-11-25T13:53:38.999+01:00</time>
      </trkpt>
      <trkpt lat="43.68631" lon="4.08424">
        <ele>86.476045760202</ele>
        <time>2020-11-25T13:53:39.999+01:00</time>
      </trkpt>
      <trkpt lat="43.68632" lon="4.08423">
        <ele>86.485170608375</ele>
        <time>2020-11-25T13:53:40.999+01:00</time>
      </trkpt>
      <trkpt lat="43.68633" lon="4.08422">
        <ele>86.494292185802</ele>
        <time>2020-11-25T13:53:41.999+01:00</time>
      </trkpt>
      <trkpt lat="43.68634" lon="4.08421">
        <ele>86.503507908711</ele>
        <time>2020-11-25T13:53:42.999+01:00</time>
      </trkpt>
      <trkpt lat="43.68635" lon="4.0842">
        <ele>86.51262039912</ele>
        <time>2020-11-25T13:53:43.999+01:00</time>
      </trkpt>
      <trkpt lat="43.68636" lon="4.08419">
        <ele>86.521614975342</ele>
        <time>2020-11-25T13:53:44.999+01:00</time>
      </trkpt>
      <trkpt lat="43.68636" lon="4.08418">
        <ele>86.530494339444</ele>
        <time>2020-11-25T13:53:45.999+01:00</time>
      </trkpt>
      <trkpt lat="43.68637" lon="4.08417">
        <ele>86.539255055067</ele>
        <time>2020-11-25T13:53:46.999+01:00</time>
      </trkpt>
      <trkpt lat="43.68637" lon="4.08416">
        <ele>86.547865452297</ele>
        <time>2020-11-25T13:53:47.999+01:00</time>
      </trkpt>
      <trkpt lat="43.68638" lon="4.08414">
        <ele>86.556531551508</ele>
        <time>2020-11-25T13:53:48.999+01:00</time>
      </trkpt>
      <trkpt lat="43.68639" lon="4.08413">
        <ele>86.565268265882</ele>
        <time>2020-11-25T13:53:49.999+01:00</time>
      </trkpt>
      <trkpt lat="43.6864" lon="4.08412">
        <ele>86.573965859721</ele>
        <time>2020-11-25T13:53:50.999+01:00</time>
      </trkpt>
      <trkpt lat="43.68641" lon="4.08411">
        <ele>86.582550511087</ele>
        <time>2020-11-25T13:53:51.999+01:00</time>
      </trkpt>
      <trkpt lat="43.68641" lon="4.08409">
        <ele>86.591104875992</ele>
        <time>2020-11-25T13:53:52.999+01:00</time>
      </trkpt>
      <trkpt lat="43.68641" lon="4.08407">
        <ele>86.599630332245</ele>
        <time>2020-11-25T13:53:53.999+01:00</time>
      </trkpt>
      <trkpt lat="43.68641" lon="4.08405">
        <ele>86.608098658687</ele>
        <time>2020-11-25T13:53:54.999+01:00</time>
      </trkpt>
      <trkpt lat="43.68641" lon="4.08405">
        <ele>86.616481536581</ele>
        <time>2020-11-25T13:53:55.999+01:00</time>
      </trkpt>
      <trkpt lat="43.68642" lon="4.08404">
        <ele>86.624972908091</ele>
        <time>2020-11-25T13:53:56.999+01:00</time>
      </trkpt>
      <trkpt lat="43.68643" lon="4.08403">
        <ele>86.633557215239</ele>
        <time>2020-11-25T13:53:57.999+01:00</time>
      </trkpt>
      <trkpt lat="43.68643" lon="4.08402">
        <ele>86.642113579328</ele>
        <time>2020-11-25T13:53:58.999+01:00</time>
      </trkpt>
      <trkpt lat="43.68644" lon="4.084">
        <ele>86.650716364764</ele>
        <time>2020-11-25T13:53:59.999+01:00</time>
      </trkpt>
      <trkpt lat="43.68644" lon="4.08399">
        <ele>86.659331187952</ele>
        <time>2020-11-25T13:54:00.999+01:00</time>
      </trkpt>
      <trkpt lat="43.68645" lon="4.08398">
        <ele>86.667913028745</ele>
        <time>2020-11-25T13:54:01.999+01:00</time>
      </trkpt>
      <trkpt lat="43.68645" lon="4.08397">
        <ele>86.676511226833</ele>
        <time>2020-11-25T13:54:02.999+01:00</time>
      </trkpt>
      <trkpt lat="43.68646" lon="4.08396">
        <ele>86.685008716121</ele>
        <time>2020-11-25T13:54:03.999+01:00</time>
      </trkpt>
      <trkpt lat="43.68646" lon="4.08394">
        <ele>86.693523904459</ele>
        <time>2020-11-25T13:54:04.999+01:00</time>
      </trkpt>
      <trkpt lat="43.68647" lon="4.08393">
        <ele>86.70195158069</ele>
        <time>2020-11-25T13:54:05.999+01:00</time>
      </trkpt>
      <trkpt lat="43.68648" lon="4.08392">
        <ele>86.710729033894</ele>
        <time>2020-11-25T13:54:06.999+01:00</time>
      </trkpt>
      <trkpt lat="43.68649" lon="4.0839">
        <ele>86.719903776499</ele>
        <time>2020-11-25T13:54:07.999+01:00</time>
      </trkpt>
      <trkpt lat="43.6865" lon="4.08389">
        <ele>86.729490435728</ele>
        <time>2020-11-25T13:54:08.999+01:00</time>
      </trkpt>
      <trkpt lat="43.68651" lon="4.08388">
        <ele>86.739469260754</ele>
        <time>2020-11-25T13:54:09.999+01:00</time>
      </trkpt>
      <trkpt lat="43.68652" lon="4.08386">
        <ele>86.749805023769</ele>
        <time>2020-11-25T13:54:10.999+01:00</time>
      </trkpt>
      <trkpt lat="43.68653" lon="4.08385">
        <ele>86.760562513165</ele>
        <time>2020-11-25T13:54:11.999+01:00</time>
      </trkpt>
      <trkpt lat="43.68654" lon="4.08384">
        <ele>86.771753190557</ele>
        <time>2020-11-25T13:54:12.999+01:00</time>
      </trkpt>
      <trkpt lat="43.68654" lon="4.08382">
        <ele>86.783448377058</ele>
        <time>2020-11-25T13:54:13.999+01:00</time>
      </trkpt>
      <trkpt lat="43.68655" lon="4.08381">
        <ele>86.795582428066</ele>
        <time>2020-11-25T13:54:14.999+01:00</time>
      </trkpt>
      <trkpt lat="43.68656" lon="4.08379">
        <ele>86.808077399309</ele>
        <time>2020-11-25T13:54:15.999+01:00</time>
      </trkpt>
      <trkpt lat="43.68656" lon="4.08378">
        <ele>86.820910621106</ele>
        <time>2020-11-25T13:54:16.999+01:00</time>
      </trkpt>
      <trkpt lat="43.68657" lon="4.08377">
        <ele>86.834115954263</ele>
        <time>2020-11-25T13:54:17.999+01:00</time>
      </trkpt>
      <trkpt lat="43.68657" lon="4.08375">
        <ele>86.847634853149</ele>
        <time>2020-11-25T13:54:18.999+01:00</time>
      </trkpt>
      <trkpt lat="43.68658" lon="4.08374">
        <ele>86.861359269869</ele>
        <time>2020-11-25T13:54:19.999+01:00</time>
      </trkpt>
      <trkpt lat="43.68658" lon="4.08372">
        <ele>86.875340390518</ele>
        <time>2020-11-25T13:54:20.999+01:00</time>
      </trkpt>
      <trkpt lat="43.68658" lon="4.08371">
        <ele>86.889477145629</ele>
        <time>2020-11-25T13:54:21.999+01:00</time>
      </trkpt>
      <trkpt lat="43.68659" lon="4.0837">
        <ele>86.903851501578</ele>
        <time>2020-11-25T13:54:22.999+01:00</time>
      </trkpt>
      <trkpt lat="43.68659" lon="4.08369">
        <ele>86.918565935062</ele>
        <time>2020-11-25T13:54:23.999+01:00</time>
      </trkpt>
      <trkpt lat="43.68659" lon="4.08368">
        <ele>86.933514078524</ele>
        <time>2020-11-25T13:54:24.999+01:00</time>
      </trkpt>
      <trkpt lat="43.6866" lon="4.08367">
        <ele>86.948736732958</ele>
        <time>2020-11-25T13:54:25.999+01:00</time>
      </trkpt>
      <trkpt lat="43.68661" lon="4.08366">
        <ele>86.964124147782</ele>
        <time>2020-11-25T13:54:26.999+01:00</time>
      </trkpt>
      <trkpt lat="43.68661" lon="4.08365">
        <ele>86.979705371967</ele>
        <time>2020-11-25T13:54:27.999+01:00</time>
      </trkpt>
      <trkpt lat="43.68662" lon="4.08364">
        <ele>86.995590317633</ele>
        <time>2020-11-25T13:54:28.999+01:00</time>
      </trkpt>
      <trkpt lat="43.68662" lon="4.08362">
        <ele>87.01169345836</ele>
        <time>2020-11-25T13:54:29.999+01:00</time>
      </trkpt>
      <trkpt lat="43.68663" lon="4.0836">
        <ele>87.028019995806</ele>
        <time>2020-11-25T13:54:30.999+01:00</time>
      </trkpt>
      <trkpt lat="43.68663" lon="4.08358">
        <ele>87.044627932744</ele>
        <time>2020-11-25T13:54:31.999+01:00</time>
      </trkpt>
      <trkpt lat="43.68663" lon="4.08357">
        <ele>87.061409341115</ele>
        <time>2020-11-25T13:54:32.999+01:00</time>
      </trkpt>
      <trkpt lat="43.68664" lon="4.08356">
        <ele>87.078374022079</ele>
        <time>2020-11-25T13:54:33.999+01:00</time>
      </trkpt>
      <trkpt lat="43.68664" lon="4.08355">
        <ele>87.095481571019</ele>
        <time>2020-11-25T13:54:34.999+01:00</time>
      </trkpt>
      <trkpt lat="43.68665" lon="4.08354">
        <ele>87.112725043976</ele>
        <time>2020-11-25T13:54:35.999+01:00</time>
      </trkpt>
      <trkpt lat="43.68666" lon="4.08352">
        <ele>87.130090132159</ele>
        <time>2020-11-25T13:54:36.999+01:00</time>
      </trkpt>
      <trkpt lat="43.68666" lon="4.08351">
        <ele>87.14749365925</ele>
        <time>2020-11-25T13:54:37.999+01:00</time>
      </trkpt>
      <trkpt lat="43.68667" lon="4.0835">
        <ele>87.165136463846</ele>
        <time>2020-11-25T13:54:38.999+01:00</time>
      </trkpt>
      <trkpt lat="43.68667" lon="4.08349">
        <ele>87.182845083004</ele>
        <time>2020-11-25T13:54:39.999+01:00</time>
      </trkpt>
      <trkpt lat="43.68668" lon="4.08348">
        <ele>87.200640080459</ele>
        <time>2020-11-25T13:54:40.999+01:00</time>
      </trkpt>
      <trkpt lat="43.68668" lon="4.08347">
        <ele>87.218600629478</ele>
        <time>2020-11-25T13:54:41.999+01:00</time>
      </trkpt>
      <trkpt lat="43.68668" lon="4.08346">
        <ele>87.236680605399</ele>
        <time>2020-11-25T13:54:42.999+01:00</time>
      </trkpt>
      <trkpt lat="43.68669" lon="4.08344">
        <ele>87.25494359777</ele>
        <time>2020-11-25T13:54:43.999+01:00</time>
      </trkpt>
      <trkpt lat="43.6867" lon="4.08343">
        <ele>87.273249054915</ele>
        <time>2020-11-25T13:54:44.999+01:00</time>
      </trkpt>
      <trkpt lat="43.6867" lon="4.08342">
        <ele>87.291641665492</ele>
        <time>2020-11-25T13:54:45.999+01:00</time>
      </trkpt>
      <trkpt lat="43.68671" lon="4.08341">
        <ele>87.310136134108</ele>
        <time>2020-11-25T13:54:46.999+01:00</time>
      </trkpt>
      <trkpt lat="43.68672" lon="4.08339">
        <ele>87.328666054902</ele>
        <time>2020-11-25T13:54:47.999+01:00</time>
      </trkpt>
      <trkpt lat="43.68672" lon="4.08338">
        <ele>87.347247986731</ele>
        <time>2020-11-25T13:54:48.999+01:00</time>
      </trkpt>
      <trkpt lat="43.68673" lon="4.08337">
        <ele>87.365786430254</ele>
        <time>2020-11-25T13:54:49.999+01:00</time>
      </trkpt>
      <trkpt lat="43.68673" lon="4.08335">
        <ele>87.384364932</ele>
        <time>2020-11-25T13:54:50.999+01:00</time>
      </trkpt>
      <trkpt lat="43.68674" lon="4.08334">
        <ele>87.402935012588</ele>
        <time>2020-11-25T13:54:51.999+01:00</time>
      </trkpt>
      <trkpt lat="43.68674" lon="4.08333">
        <ele>87.421400445249</ele>
        <time>2020-11-25T13:54:52.999+01:00</time>
      </trkpt>
      <trkpt lat="43.68675" lon="4.08333">
        <ele>87.439862631683</ele>
        <time>2020-11-25T13:54:53.999+01:00</time>
      </trkpt>
      <trkpt lat="43.68675" lon="4.08332">
        <ele>87.458369531057</ele>
        <time>2020-11-25T13:54:54.999+01:00</time>
      </trkpt>
      <trkpt lat="43.68676" lon="4.0833">
        <ele>87.476907815132</ele>
        <time>2020-11-25T13:54:55.999+01:00</time>
      </trkpt>
      <trkpt lat="43.68677" lon="4.08329">
        <ele>87.495503003239</ele>
        <time>2020-11-25T13:54:56.999+01:00</time>
      </trkpt>
      <trkpt lat="43.68677" lon="4.08328">
        <ele>87.514109153921</ele>
        <time>2020-11-25T13:54:57.999+01:00</time>
      </trkpt>
      <trkpt lat="43.68678" lon="4.08327">
        <ele>87.532694855907</ele>
        <time>2020-11-25T13:54:58.999+01:00</time>
      </trkpt>
      <trkpt lat="43.68678" lon="4.08325">
        <ele>87.551191991707</ele>
        <time>2020-11-25T13:54:59.999+01:00</time>
      </trkpt>
      <trkpt lat="43.68679" lon="4.08324">
        <ele>87.569611231774</ele>
        <time>2020-11-25T13:55:00.999+01:00</time>
      </trkpt>
      <trkpt lat="43.68679" lon="4.08322">
        <ele>87.588021758885</ele>
        <time>2020-11-25T13:55:01.999+01:00</time>
      </trkpt>
      <trkpt lat="43.6868" lon="4.08321">
        <ele>87.606320939806</ele>
        <time>2020-11-25T13:55:02.999+01:00</time>
      </trkpt>
      <trkpt lat="43.6868" lon="4.0832">
        <ele>87.624652928688</ele>
        <time>2020-11-25T13:55:03.999+01:00</time>
      </trkpt>
      <trkpt lat="43.68681" lon="4.08318">
        <ele>87.642977373496</ele>
        <time>2020-11-25T13:55:04.999+01:00</time>
      </trkpt>
      <trkpt lat="43.68681" lon="4.08317">
        <ele>87.661251194713</ele>
        <time>2020-11-25T13:55:05.999+01:00</time>
      </trkpt>
      <trkpt lat="43.68682" lon="4.08315">
        <ele>87.679372109508</ele>
        <time>2020-11-25T13:55:06.999+01:00</time>
      </trkpt>
      <trkpt lat="43.68682" lon="4.08314">
        <ele>87.697410487643</ele>
        <time>2020-11-25T13:55:07.999+01:00</time>
      </trkpt>
      <trkpt lat="43.68683" lon="4.08312">
        <ele>87.715370276868</ele>
        <time>2020-11-25T13:55:08.999+01:00</time>
      </trkpt>
      <trkpt lat="43.68683" lon="4.08311">
        <ele>87.733151221387</ele>
        <time>2020-11-25T13:55:09.999+01:00</time>
      </trkpt>
      <trkpt lat="43.68684" lon="4.0831">
        <ele>87.750788466623</ele>
        <time>2020-11-25T13:55:10.999+01:00</time>
      </trkpt>
      <trkpt lat="43.68684" lon="4.08309">
        <ele>87.768298992645</ele>
        <time>2020-11-25T13:55:11.999+01:00</time>
      </trkpt>
      <trkpt lat="43.68685" lon="4.08308">
        <ele>87.785758598291</ele>
        <time>2020-11-25T13:55:12.999+01:00</time>
      </trkpt>
      <trkpt lat="43.68685" lon="4.08306">
        <ele>87.803172870001</ele>
        <time>2020-11-25T13:55:13.999+01:00</time>
      </trkpt>
      <trkpt lat="43.68686" lon="4.08305">
        <ele>87.820539291853</ele>
        <time>2020-11-25T13:55:14.999+01:00</time>
      </trkpt>
      <trkpt lat="43.68687" lon="4.08304">
        <ele>87.837978859673</ele>
        <time>2020-11-25T13:55:15.999+01:00</time>
      </trkpt>
      <trkpt lat="43.68688" lon="4.08302">
        <ele>87.855457083289</ele>
        <time>2020-11-25T13:55:16.999+01:00</time>
      </trkpt>
      <trkpt lat="43.68689" lon="4.08301">
        <ele>87.872918949707</ele>
        <time>2020-11-25T13:55:17.999+01:00</time>
      </trkpt>
      <trkpt lat="43.68689" lon="4.08299">
        <ele>87.890458796276</ele>
        <time>2020-11-25T13:55:18.999+01:00</time>
      </trkpt>
      <trkpt lat="43.6869" lon="4.08298">
        <ele>87.907961383255</ele>
        <time>2020-11-25T13:55:19.999+01:00</time>
      </trkpt>
      <trkpt lat="43.6869" lon="4.08297">
        <ele>87.925294923487</ele>
        <time>2020-11-25T13:55:20.999+01:00</time>
      </trkpt>
      <trkpt lat="43.68691" lon="4.08296">
        <ele>87.942595450477</ele>
        <time>2020-11-25T13:55:21.999+01:00</time>
      </trkpt>
      <trkpt lat="43.68692" lon="4.08295">
        <ele>87.959868859388</ele>
        <time>2020-11-25T13:55:22.999+01:00</time>
      </trkpt>
      <trkpt lat="43.68693" lon="4.08294">
        <ele>87.977143618633</ele>
        <time>2020-11-25T13:55:23.999+01:00</time>
      </trkpt>
      <trkpt lat="43.68694" lon="4.08292">
        <ele>87.99433329857</ele>
        <time>2020-11-25T13:55:24.999+01:00</time>
      </trkpt>
      <trkpt lat="43.68694" lon="4.08291">
        <ele>88.011403500634</ele>
        <time>2020-11-25T13:55:25.999+01:00</time>
      </trkpt>
      <trkpt lat="43.68695" lon="4.0829">
        <ele>88.028338128315</ele>
        <time>2020-11-25T13:55:26.999+01:00</time>
      </trkpt>
      <trkpt lat="43.68696" lon="4.08289">
        <ele>88.045223834981</ele>
        <time>2020-11-25T13:55:27.999+01:00</time>
      </trkpt>
      <trkpt lat="43.68696" lon="4.08287">
        <ele>88.062098887358</ele>
        <time>2020-11-25T13:55:28.999+01:00</time>
      </trkpt>
      <trkpt lat="43.68696" lon="4.08286">
        <ele>88.079029322514</ele>
        <time>2020-11-25T13:55:29.999+01:00</time>
      </trkpt>
      <trkpt lat="43.68697" lon="4.08285">
        <ele>88.096041348787</ele>
        <time>2020-11-25T13:55:30.999+01:00</time>
      </trkpt>
      <trkpt lat="43.68697" lon="4.08284">
        <ele>88.112821655848</ele>
        <time>2020-11-25T13:55:31.999+01:00</time>
      </trkpt>
      <trkpt lat="43.68697" lon="4.08283">
        <ele>88.129562027057</ele>
        <time>2020-11-25T13:55:32.999+01:00</time>
      </trkpt>
      <trkpt lat="43.68698" lon="4.08281">
        <ele>88.146256404601</ele>
        <time>2020-11-25T13:55:33.999+01:00</time>
      </trkpt>
      <trkpt lat="43.68698" lon="4.0828">
        <ele>88.162755438543</ele>
        <time>2020-11-25T13:55:34.999+01:00</time>
      </trkpt>
      <trkpt lat="43.68699" lon="4.08279">
        <ele>88.179122981041</ele>
        <time>2020-11-25T13:55:35.999+01:00</time>
      </trkpt>
      <trkpt lat="43.68699" lon="4.08278">
        <ele>88.195334008256</ele>
        <time>2020-11-25T13:55:36.999+01:00</time>
      </trkpt>
      <trkpt lat="43.687" lon="4.08276">
        <ele>88.211463260374</ele>
        <time>2020-11-25T13:55:37.999+01:00</time>
      </trkpt>
      <trkpt lat="43.687" lon="4.08275">
        <ele>88.227571275004</ele>
        <time>2020-11-25T13:55:38.999+01:00</time>
      </trkpt>
      <trkpt lat="43.687" lon="4.08273">
        <ele>88.243713173515</ele>
        <time>2020-11-25T13:55:39.999+01:00</time>
      </trkpt>
      <trkpt lat="43.68701" lon="4.08271">
        <ele>88.259855839751</ele>
        <time>2020-11-25T13:55:40.999+01:00</time>
      </trkpt>
      <trkpt lat="43.68701" lon="4.0827">
        <ele>88.275986731382</ele>
        <time>2020-11-25T13:55:41.999+01:00</time>
      </trkpt>
      <trkpt lat="43.68702" lon="4.08269">
        <ele>88.292111997987</ele>
        <time>2020-11-25T13:55:42.999+01:00</time>
      </trkpt>
      <trkpt lat="43.68702" lon="4.08268">
        <ele>88.308156566512</ele>
        <time>2020-11-25T13:55:43.999+01:00</time>
      </trkpt>
      <trkpt lat="43.68702" lon="4.08266">
        <ele>88.324146677574</ele>
        <time>2020-11-25T13:55:44.999+01:00</time>
      </trkpt>
      <trkpt lat="43.68702" lon="4.08265">
        <ele>88.340110423577</ele>
        <time>2020-11-25T13:55:45.999+01:00</time>
      </trkpt>
      <trkpt lat="43.68703" lon="4.08264">
        <ele>88.356086713066</ele>
        <time>2020-11-25T13:55:46.999+01:00</time>
      </trkpt>
      <trkpt lat="43.68703" lon="4.08262">
        <ele>88.372166645664</ele>
        <time>2020-11-25T13:55:47.999+01:00</time>
      </trkpt>
      <trkpt lat="43.68704" lon="4.08261">
        <ele>88.388092921422</ele>
        <time>2020-11-25T13:55:48.999+01:00</time>
      </trkpt>
      <trkpt lat="43.68704" lon="4.0826">
        <ele>88.403912660158</ele>
        <time>2020-11-25T13:55:49.999+01:00</time>
      </trkpt>
      <trkpt lat="43.68705" lon="4.08258">
        <ele>88.419798651685</ele>
        <time>2020-11-25T13:55:50.999+01:00</time>
      </trkpt>
      <trkpt lat="43.68705" lon="4.08257">
        <ele>88.435674658048</ele>
        <time>2020-11-25T13:55:51.999+01:00</time>
      </trkpt>
      <trkpt lat="43.68706" lon="4.08255">
        <ele>88.451348924242</ele>
        <time>2020-11-25T13:55:52.999+01:00</time>
      </trkpt>
      <trkpt lat="43.68706" lon="4.08254">
        <ele>88.466914732555</ele>
        <time>2020-11-25T13:55:53.999+01:00</time>
      </trkpt>
      <trkpt lat="43.68707" lon="4.08253">
        <ele>88.482668228237</ele>
        <time>2020-11-25T13:55:54.999+01:00</time>
      </trkpt>
      <trkpt lat="43.68707" lon="4.08252">
        <ele>88.498528452509</ele>
        <time>2020-11-25T13:55:55.999+01:00</time>
      </trkpt>
      <trkpt lat="43.68707" lon="4.08251">
        <ele>88.514388128858</ele>
        <time>2020-11-25T13:55:56.999+01:00</time>
      </trkpt>
      <trkpt lat="43.68708" lon="4.0825">
        <ele>88.530375571884</ele>
        <time>2020-11-25T13:55:57.999+01:00</time>
      </trkpt>
      <trkpt lat="43.68709" lon="4.08248">
        <ele>88.546541897031</ele>
        <time>2020-11-25T13:55:58.999+01:00</time>
      </trkpt>
      <trkpt lat="43.68709" lon="4.08247">
        <ele>88.56267052631</ele>
        <time>2020-11-25T13:55:59.999+01:00</time>
      </trkpt>
      <trkpt lat="43.6871" lon="4.08246">
        <ele>88.578936964301</ele>
        <time>2020-11-25T13:56:00.999+01:00</time>
      </trkpt>
      <trkpt lat="43.6871" lon="4.08244">
        <ele>88.595406705734</ele>
        <time>2020-11-25T13:56:01.999+01:00</time>
      </trkpt>
      <trkpt lat="43.68711" lon="4.08243">
        <ele>88.612093487485</ele>
        <time>2020-11-25T13:56:02.999+01:00</time>
      </trkpt>
      <trkpt lat="43.68711" lon="4.08242">
        <ele>88.628998933673</ele>
        <time>2020-11-25T13:56:03.999+01:00</time>
      </trkpt>
      <trkpt lat="43.68712" lon="4.08241">
        <ele>88.645786323841</ele>
        <time>2020-11-25T13:56:04.999+01:00</time>
      </trkpt>
      <trkpt lat="43.68713" lon="4.08239">
        <ele>88.662504720721</ele>
        <time>2020-11-25T13:56:05.999+01:00</time>
      </trkpt>
      <trkpt lat="43.68713" lon="4.08238">
        <ele>88.679214585576</ele>
        <time>2020-11-25T13:56:06.999+01:00</time>
      </trkpt>
      <trkpt lat="43.68714" lon="4.08236">
        <ele>88.695835846598</ele>
        <time>2020-11-25T13:56:07.999+01:00</time>
      </trkpt>
      <trkpt lat="43.68714" lon="4.08234">
        <ele>88.712348626998</ele>
        <time>2020-11-25T13:56:08.999+01:00</time>
      </trkpt>
      <trkpt lat="43.68715" lon="4.08233">
        <ele>88.728756540943</ele>
        <time>2020-11-25T13:56:09.999+01:00</time>
      </trkpt>
      <trkpt lat="43.68715" lon="4.08231">
        <ele>88.745104065037</ele>
        <time>2020-11-25T13:56:10.999+01:00</time>
      </trkpt>
      <trkpt lat="43.68716" lon="4.0823">
        <ele>88.761461019124</ele>
        <time>2020-11-25T13:56:11.999+01:00</time>
      </trkpt>
      <trkpt lat="43.68716" lon="4.08228">
        <ele>88.777766223301</ele>
        <time>2020-11-25T13:56:12.999+01:00</time>
      </trkpt>
      <trkpt lat="43.68716" lon="4.08228">
        <ele>88.793950244619</ele>
        <time>2020-11-25T13:56:13.999+01:00</time>
      </trkpt>
      <trkpt lat="43.68717" lon="4.08226">
        <ele>88.810130856039</ele>
        <time>2020-11-25T13:56:14.999+01:00</time>
      </trkpt>
      <trkpt lat="43.68718" lon="4.08225">
        <ele>88.826378134454</ele>
        <time>2020-11-25T13:56:15.999+01:00</time>
      </trkpt>
      <trkpt lat="43.68718" lon="4.08224">
        <ele>88.842661015473</ele>
        <time>2020-11-25T13:56:16.999+01:00</time>
      </trkpt>
      <trkpt lat="43.68719" lon="4.08222">
        <ele>88.859023719271</ele>
        <time>2020-11-25T13:56:17.999+01:00</time>
      </trkpt>
      <trkpt lat="43.68719" lon="4.08221">
        <ele>88.875434292427</ele>
        <time>2020-11-25T13:56:18.999+01:00</time>
      </trkpt>
      <trkpt lat="43.68719" lon="4.08219">
        <ele>88.891848375848</ele>
        <time>2020-11-25T13:56:19.999+01:00</time>
      </trkpt>
      <trkpt lat="43.6872" lon="4.08218">
        <ele>88.90833888889</ele>
        <time>2020-11-25T13:56:20.999+01:00</time>
      </trkpt>
      <trkpt lat="43.6872" lon="4.08217">
        <ele>88.924594921321</ele>
        <time>2020-11-25T13:56:21.999+01:00</time>
      </trkpt>
      <trkpt lat="43.6872" lon="4.08216">
        <ele>88.940655070723</ele>
        <time>2020-11-25T13:56:22.999+01:00</time>
      </trkpt>
      <trkpt lat="43.6872" lon="4.08215">
        <ele>88.956628666064</ele>
        <time>2020-11-25T13:56:23.999+01:00</time>
      </trkpt>
      <trkpt lat="43.68721" lon="4.08213">
        <ele>88.972609141576</ele>
        <time>2020-11-25T13:56:24.999+01:00</time>
      </trkpt>
      <trkpt lat="43.68721" lon="4.08212">
        <ele>88.98865359031</ele>
        <time>2020-11-25T13:56:25.999+01:00</time>
      </trkpt>
      <trkpt lat="43.68722" lon="4.08211">
        <ele>89.004804479067</ele>
        <time>2020-11-25T13:56:26.999+01:00</time>
      </trkpt>
      <trkpt lat="43.68722" lon="4.08209">
        <ele>89.020966217387</ele>
        <time>2020-11-25T13:56:27.999+01:00</time>
      </trkpt>
      <trkpt lat="43.68722" lon="4.08208">
        <ele>89.037164647331</ele>
        <time>2020-11-25T13:56:28.999+01:00</time>
      </trkpt>
      <trkpt lat="43.68722" lon="4.08206">
        <ele>89.053756566203</ele>
        <time>2020-11-25T13:56:29.999+01:00</time>
      </trkpt>
      <trkpt lat="43.68723" lon="4.08205">
        <ele>89.070377170665</ele>
        <time>2020-11-25T13:56:30.999+01:00</time>
      </trkpt>
      <trkpt lat="43.68723" lon="4.08204">
        <ele>89.086718873841</ele>
        <time>2020-11-25T13:56:31.999+01:00</time>
      </trkpt>
      <trkpt lat="43.68724" lon="4.08203">
        <ele>89.102932812911</ele>
        <time>2020-11-25T13:56:32.999+01:00</time>
      </trkpt>
      <trkpt lat="43.68725" lon="4.08202">
        <ele>89.118958486363</ele>
        <time>2020-11-25T13:56:33.999+01:00</time>
      </trkpt>
      <trkpt lat="43.68726" lon="4.082">
        <ele>89.134876713789</ele>
        <time>2020-11-25T13:56:34.999+01:00</time>
      </trkpt>
      <trkpt lat="43.68726" lon="4.08199">
        <ele>89.150626002676</ele>
        <time>2020-11-25T13:56:35.999+01:00</time>
      </trkpt>
      <trkpt lat="43.68727" lon="4.08198">
        <ele>89.166247294714</ele>
        <time>2020-11-25T13:56:36.999+01:00</time>
      </trkpt>
      <trkpt lat="43.68727" lon="4.08196">
        <ele>89.181737883769</ele>
        <time>2020-11-25T13:56:37.999+01:00</time>
      </trkpt>
      <trkpt lat="43.68727" lon="4.08195">
        <ele>89.197091937327</ele>
        <time>2020-11-25T13:56:38.999+01:00</time>
      </trkpt>
      <trkpt lat="43.68728" lon="4.08193">
        <ele>89.212357890043</ele>
        <time>2020-11-25T13:56:39.999+01:00</time>
      </trkpt>
      <trkpt lat="43.68728" lon="4.08192">
        <ele>89.227734222581</ele>
        <time>2020-11-25T13:56:40.999+01:00</time>
      </trkpt>
      <trkpt lat="43.68728" lon="4.0819">
        <ele>89.243260946886</ele>
        <time>2020-11-25T13:56:41.999+01:00</time>
      </trkpt>
      <trkpt lat="43.68729" lon="4.08189">
        <ele>89.258735304592</ele>
        <time>2020-11-25T13:56:42.999+01:00</time>
      </trkpt>
      <trkpt lat="43.68729" lon="4.08188">
        <ele>89.274117039324</ele>
        <time>2020-11-25T13:56:43.999+01:00</time>
      </trkpt>
      <trkpt lat="43.6873" lon="4.08187">
        <ele>89.289534655382</ele>
        <time>2020-11-25T13:56:44.999+01:00</time>
      </trkpt>
      <trkpt lat="43.6873" lon="4.08185">
        <ele>89.304949672593</ele>
        <time>2020-11-25T13:56:45.999+01:00</time>
      </trkpt>
      <trkpt lat="43.68731" lon="4.08184">
        <ele>89.320305052088</ele>
        <time>2020-11-25T13:56:46.999+01:00</time>
      </trkpt>
      <trkpt lat="43.68732" lon="4.08183">
        <ele>89.335626742854</ele>
        <time>2020-11-25T13:56:47.999+01:00</time>
      </trkpt>
      <trkpt lat="43.68732" lon="4.08182">
        <ele>89.350986720569</ele>
        <time>2020-11-25T13:56:48.999+01:00</time>
      </trkpt>
      <trkpt lat="43.68732" lon="4.08181">
        <ele>89.366219892742</ele>
        <time>2020-11-25T13:56:49.999+01:00</time>
      </trkpt>
      <trkpt lat="43.68733" lon="4.0818">
        <ele>89.381328738426</ele>
        <time>2020-11-25T13:56:50.999+01:00</time>
      </trkpt>
      <trkpt lat="43.68733" lon="4.08179">
        <ele>89.396391565203</ele>
        <time>2020-11-25T13:56:51.999+01:00</time>
      </trkpt>
      <trkpt lat="43.68733" lon="4.08177">
        <ele>89.41152300923</ele>
        <time>2020-11-25T13:56:52.999+01:00</time>
      </trkpt>
      <trkpt lat="43.68734" lon="4.08175">
        <ele>89.426862487191</ele>
        <time>2020-11-25T13:56:53.999+01:00</time>
      </trkpt>
      <trkpt lat="43.68735" lon="4.08173">
        <ele>89.442287552701</ele>
        <time>2020-11-25T13:56:54.999+01:00</time>
      </trkpt>
      <trkpt lat="43.68736" lon="4.08171">
        <ele>89.457808226922</ele>
        <time>2020-11-25T13:56:55.999+01:00</time>
      </trkpt>
      <trkpt lat="43.68736" lon="4.0817">
        <ele>89.47337892164</ele>
        <time>2020-11-25T13:56:56.999+01:00</time>
      </trkpt>
      <trkpt lat="43.68737" lon="4.08169">
        <ele>89.488894422969</ele>
        <time>2020-11-25T13:56:57.999+01:00</time>
      </trkpt>
      <trkpt lat="43.68737" lon="4.08167">
        <ele>89.504344991693</ele>
        <time>2020-11-25T13:56:58.999+01:00</time>
      </trkpt>
      <trkpt lat="43.68738" lon="4.08166">
        <ele>89.519577351971</ele>
        <time>2020-11-25T13:56:59.999+01:00</time>
      </trkpt>
      <trkpt lat="43.68738" lon="4.08165">
        <ele>89.534501406953</ele>
        <time>2020-11-25T13:57:00.999+01:00</time>
      </trkpt>
      <trkpt lat="43.68739" lon="4.08164">
        <ele>89.549136095676</ele>
        <time>2020-11-25T13:57:01.999+01:00</time>
      </trkpt>
      <trkpt lat="43.6874" lon="4.08162">
        <ele>89.563616589327</ele>
        <time>2020-11-25T13:57:02.999+01:00</time>
      </trkpt>
      <trkpt lat="43.6874" lon="4.08161">
        <ele>89.577874647784</ele>
        <time>2020-11-25T13:57:03.999+01:00</time>
      </trkpt>
      <trkpt lat="43.68741" lon="4.08158">
        <ele>89.592314015543</ele>
        <time>2020-11-25T13:57:04.999+01:00</time>
      </trkpt>
      <trkpt lat="43.68741" lon="4.08157">
        <ele>89.606702548115</ele>
        <time>2020-11-25T13:57:05.999+01:00</time>
      </trkpt>
      <trkpt lat="43.68741" lon="4.08156">
        <ele>89.621151854331</ele>
        <time>2020-11-25T13:57:06.999+01:00</time>
      </trkpt>
      <trkpt lat="43.68741" lon="4.08154">
        <ele>89.635606897511</ele>
        <time>2020-11-25T13:57:07.999+01:00</time>
      </trkpt>
      <trkpt lat="43.68742" lon="4.08152">
        <ele>89.650029206227</ele>
        <time>2020-11-25T13:57:08.999+01:00</time>
      </trkpt>
      <trkpt lat="43.68742" lon="4.08151">
        <ele>89.664282400431</ele>
        <time>2020-11-25T13:57:09.999+01:00</time>
      </trkpt>
      <trkpt lat="43.68743" lon="4.08149">
        <ele>89.678599740709</ele>
        <time>2020-11-25T13:57:10.999+01:00</time>
      </trkpt>
      <trkpt lat="43.68743" lon="4.08147">
        <ele>89.692968025437</ele>
        <time>2020-11-25T13:57:11.999+01:00</time>
      </trkpt>
      <trkpt lat="43.68744" lon="4.08146">
        <ele>89.707344315885</ele>
        <time>2020-11-25T13:57:12.999+01:00</time>
      </trkpt>
      <trkpt lat="43.68745" lon="4.08145">
        <ele>89.72154381011</ele>
        <time>2020-11-25T13:57:13.999+01:00</time>
      </trkpt>
      <trkpt lat="43.68745" lon="4.08143">
        <ele>89.735689563539</ele>
        <time>2020-11-25T13:57:14.999+01:00</time>
      </trkpt>
      <trkpt lat="43.68745" lon="4.08142">
        <ele>89.749788293594</ele>
        <time>2020-11-25T13:57:15.999+01:00</time>
      </trkpt>
      <trkpt lat="43.68745" lon="4.08141">
        <ele>89.763690527878</ele>
        <time>2020-11-25T13:57:16.999+01:00</time>
      </trkpt>
      <trkpt lat="43.68746" lon="4.08139">
        <ele>89.777327870349</ele>
        <time>2020-11-25T13:57:17.999+01:00</time>
      </trkpt>
      <trkpt lat="43.68746" lon="4.08138">
        <ele>89.790806880401</ele>
        <time>2020-11-25T13:57:18.999+01:00</time>
      </trkpt>
      <trkpt lat="43.68746" lon="4.08137">
        <ele>89.804007527438</ele>
        <time>2020-11-25T13:57:19.999+01:00</time>
      </trkpt>
      <trkpt lat="43.68747" lon="4.08135">
        <ele>89.816950605048</ele>
        <time>2020-11-25T13:57:20.999+01:00</time>
      </trkpt>
      <trkpt lat="43.68747" lon="4.08133">
        <ele>89.829782162138</ele>
        <time>2020-11-25T13:57:21.999+01:00</time>
      </trkpt>
      <trkpt lat="43.68748" lon="4.08132">
        <ele>89.842609494171</ele>
        <time>2020-11-25T13:57:22.999+01:00</time>
      </trkpt>
      <trkpt lat="43.68748" lon="4.0813">
        <ele>89.85555461613</ele>
        <time>2020-11-25T13:57:23.999+01:00</time>
      </trkpt>
      <trkpt lat="43.68747" lon="4.08129">
        <ele>89.868494158588</ele>
        <time>2020-11-25T13:57:24.999+01:00</time>
      </trkpt>
      <trkpt lat="43.68748" lon="4.08127">
        <ele>89.881447790573</ele>
        <time>2020-11-25T13:57:25.999+01:00</time>
      </trkpt>
      <trkpt lat="43.68748" lon="4.08126">
        <ele>89.894251891147</ele>
        <time>2020-11-25T13:57:26.999+01:00</time>
      </trkpt>
      <trkpt lat="43.68748" lon="4.08125">
        <ele>89.906902005884</ele>
        <time>2020-11-25T13:57:27.999+01:00</time>
      </trkpt>
      <trkpt lat="43.68748" lon="4.08124">
        <ele>89.919364905993</ele>
        <time>2020-11-25T13:57:28.999+01:00</time>
      </trkpt>
      <trkpt lat="43.68748" lon="4.08123">
        <ele>89.931601852616</ele>
        <time>2020-11-25T13:57:29.999+01:00</time>
      </trkpt>
      <trkpt lat="43.68749" lon="4.08122">
        <ele>89.943421527852</ele>
        <time>2020-11-25T13:57:30.999+01:00</time>
      </trkpt>
      <trkpt lat="43.68749" lon="4.08122">
        <ele>89.954950425768</ele>
        <time>2020-11-25T13:57:31.999+01:00</time>
      </trkpt>
      <trkpt lat="43.68749" lon="4.0812">
        <ele>89.966210862909</ele>
        <time>2020-11-25T13:57:32.999+01:00</time>
      </trkpt>
      <trkpt lat="43.6875" lon="4.08119">
        <ele>89.977316703793</ele>
        <time>2020-11-25T13:57:33.999+01:00</time>
      </trkpt>
      <trkpt lat="43.6875" lon="4.08117">
        <ele>89.988173055712</ele>
        <time>2020-11-25T13:57:34.999+01:00</time>
      </trkpt>
      <trkpt lat="43.6875" lon="4.08115">
        <ele>89.998820287403</ele>
        <time>2020-11-25T13:57:35.999+01:00</time>
      </trkpt>
      <trkpt lat="43.6875" lon="4.08114">
        <ele>90.009100372012</ele>
        <time>2020-11-25T13:57:36.999+01:00</time>
      </trkpt>
      <trkpt lat="43.6875" lon="4.08113">
        <ele>90.019058826631</ele>
        <time>2020-11-25T13:57:37.999+01:00</time>
      </trkpt>
      <trkpt lat="43.6875" lon="4.08112">
        <ele>90.028720018215</ele>
        <time>2020-11-25T13:57:38.999+01:00</time>
      </trkpt>
      <trkpt lat="43.68751" lon="4.08111">
        <ele>90.037968228168</ele>
        <time>2020-11-25T13:57:39.999+01:00</time>
      </trkpt>
      <trkpt lat="43.68751" lon="4.08109">
        <ele>90.046978861637</ele>
        <time>2020-11-25T13:57:40.999+01:00</time>
      </trkpt>
      <trkpt lat="43.68751" lon="4.08108">
        <ele>90.055787851657</ele>
        <time>2020-11-25T13:57:41.999+01:00</time>
      </trkpt>
      <trkpt lat="43.68751" lon="4.08107">
        <ele>90.064399503687</ele>
        <time>2020-11-25T13:57:42.999+01:00</time>
      </trkpt>
      <trkpt lat="43.68751" lon="4.08106">
        <ele>90.072829650955</ele>
        <time>2020-11-25T13:57:43.999+01:00</time>
      </trkpt>
      <trkpt lat="43.68751" lon="4.08105">
        <ele>90.081083987759</ele>
        <time>2020-11-25T13:57:44.999+01:00</time>
      </trkpt>
      <trkpt lat="43.68751" lon="4.08103">
        <ele>90.089219204066</ele>
        <time>2020-11-25T13:57:45.999+01:00</time>
      </trkpt>
      <trkpt lat="43.68751" lon="4.08102">
        <ele>90.097198872354</ele>
        <time>2020-11-25T13:57:46.999+01:00</time>
      </trkpt>
      <trkpt lat="43.68752" lon="4.081">
        <ele>90.105127300555</ele>
        <time>2020-11-25T13:57:47.999+01:00</time>
      </trkpt>
      <trkpt lat="43.68753" lon="4.08098">
        <ele>90.112848140607</ele>
        <time>2020-11-25T13:57:48.999+01:00</time>
      </trkpt>
      <trkpt lat="43.68753" lon="4.08097">
        <ele>90.120571502653</ele>
        <time>2020-11-25T13:57:49.999+01:00</time>
      </trkpt>
      <trkpt lat="43.68754" lon="4.08096">
        <ele>90.128213295157</ele>
        <time>2020-11-25T13:57:50.999+01:00</time>
      </trkpt>
      <trkpt lat="43.68755" lon="4.08094">
        <ele>90.135410182322</ele>
        <time>2020-11-25T13:57:51.999+01:00</time>
      </trkpt>
      <trkpt lat="43.68756" lon="4.08092">
        <ele>90.142206787856</ele>
        <time>2020-11-25T13:57:52.999+01:00</time>
      </trkpt>
      <trkpt lat="43.68757" lon="4.08091">
        <ele>90.149090954717</ele>
        <time>2020-11-25T13:57:53.999+01:00</time>
      </trkpt>
      <trkpt lat="43.68757" lon="4.08089">
        <ele>90.155993050219</ele>
        <time>2020-11-25T13:57:54.999+01:00</time>
      </trkpt>
      <trkpt lat="43.68757" lon="4.08089">
        <ele>90.16299032545</ele>
        <time>2020-11-25T13:57:55.999+01:00</time>
      </trkpt>
      <trkpt lat="43.68758" lon="4.08087">
        <ele>90.169854809763</ele>
        <time>2020-11-25T13:57:56.999+01:00</time>
      </trkpt>
      <trkpt lat="43.68758" lon="4.08087">
        <ele>90.176421729998</ele>
        <time>2020-11-25T13:57:57.999+01:00</time>
      </trkpt>
      <trkpt lat="43.68759" lon="4.08085">
        <ele>90.18301461484</ele>
        <time>2020-11-25T13:57:58.999+01:00</time>
      </trkpt>
      <trkpt lat="43.6876" lon="4.08084">
        <ele>90.189621265434</ele>
        <time>2020-11-25T13:57:59.999+01:00</time>
      </trkpt>
      <trkpt lat="43.68761" lon="4.08083">
        <ele>90.196283751259</ele>
        <time>2020-11-25T13:58:00.999+01:00</time>
      </trkpt>
      <trkpt lat="43.68762" lon="4.08082">
        <ele>90.202677352412</ele>
        <time>2020-11-25T13:58:01.999+01:00</time>
      </trkpt>
      <trkpt lat="43.68762" lon="4.08081">
        <ele>90.209136052473</ele>
        <time>2020-11-25T13:58:02.999+01:00</time>
      </trkpt>
      <trkpt lat="43.68763" lon="4.0808">
        <ele>90.215623666867</ele>
        <time>2020-11-25T13:58:03.999+01:00</time>
      </trkpt>
      <trkpt lat="43.68764" lon="4.08079">
        <ele>90.221875485146</ele>
        <time>2020-11-25T13:58:04.999+01:00</time>
      </trkpt>
      <trkpt lat="43.68765" lon="4.08078">
        <ele>90.228080370625</ele>
        <time>2020-11-25T13:58:05.999+01:00</time>
      </trkpt>
      <trkpt lat="43.68765" lon="4.08076">
        <ele>90.234080630791</ele>
        <time>2020-11-25T13:58:06.999+01:00</time>
      </trkpt>
      <trkpt lat="43.68766" lon="4.08075">
        <ele>90.239814298488</ele>
        <time>2020-11-25T13:58:07.999+01:00</time>
      </trkpt>
      <trkpt lat="43.68767" lon="4.08073">
        <ele>90.245416870804</ele>
        <time>2020-11-25T13:58:08.999+01:00</time>
      </trkpt>
      <trkpt lat="43.68768" lon="4.08072">
        <ele>90.251027159384</ele>
        <time>2020-11-25T13:58:09.999+01:00</time>
      </trkpt>
      <trkpt lat="43.68769" lon="4.08071">
        <ele>90.256690745646</ele>
        <time>2020-11-25T13:58:10.999+01:00</time>
      </trkpt>
      <trkpt lat="43.68769" lon="4.08069">
        <ele>90.262158638318</ele>
        <time>2020-11-25T13:58:11.999+01:00</time>
      </trkpt>
      <trkpt lat="43.6877" lon="4.08067">
        <ele>90.267464838302</ele>
        <time>2020-11-25T13:58:12.999+01:00</time>
      </trkpt>
      <trkpt lat="43.6877" lon="4.08066">
        <ele>90.272654392291</ele>
        <time>2020-11-25T13:58:13.999+01:00</time>
      </trkpt>
      <trkpt lat="43.68771" lon="4.08065">
        <ele>90.277780711632</ele>
        <time>2020-11-25T13:58:14.999+01:00</time>
      </trkpt>
      <trkpt lat="43.68772" lon="4.08063">
        <ele>90.28299265224</ele>
        <time>2020-11-25T13:58:15.999+01:00</time>
      </trkpt>
      <trkpt lat="43.68773" lon="4.08062">
        <ele>90.288174126302</ele>
        <time>2020-11-25T13:58:16.999+01:00</time>
      </trkpt>
      <trkpt lat="43.68774" lon="4.08061">
        <ele>90.293459307406</ele>
        <time>2020-11-25T13:58:17.999+01:00</time>
      </trkpt>
      <trkpt lat="43.68775" lon="4.0806">
        <ele>90.298674784294</ele>
        <time>2020-11-25T13:58:18.999+01:00</time>
      </trkpt>
      <trkpt lat="43.68775" lon="4.08059">
        <ele>90.303903957787</ele>
        <time>2020-11-25T13:58:19.999+01:00</time>
      </trkpt>
      <trkpt lat="43.68776" lon="4.08058">
        <ele>90.309185077917</ele>
        <time>2020-11-25T13:58:20.999+01:00</time>
      </trkpt>
      <trkpt lat="43.68778" lon="4.08057">
        <ele>90.314572201921</ele>
        <time>2020-11-25T13:58:21.999+01:00</time>
      </trkpt>
      <trkpt lat="43.68779" lon="4.08056">
        <ele>90.320111855131</ele>
        <time>2020-11-25T13:58:22.999+01:00</time>
      </trkpt>
      <trkpt lat="43.6878" lon="4.08055">
        <ele>90.325708266306</ele>
        <time>2020-11-25T13:58:23.999+01:00</time>
      </trkpt>
      <trkpt lat="43.68781" lon="4.08055">
        <ele>90.331148662005</ele>
        <time>2020-11-25T13:58:24.999+01:00</time>
      </trkpt>
      <trkpt lat="43.68782" lon="4.08054">
        <ele>90.336422424238</ele>
        <time>2020-11-25T13:58:25.999+01:00</time>
      </trkpt>
      <trkpt lat="43.68782" lon="4.08053">
        <ele>90.341474188548</ele>
        <time>2020-11-25T13:58:26.999+01:00</time>
      </trkpt>
      <trkpt lat="43.68783" lon="4.08053">
        <ele>90.346501177047</ele>
        <time>2020-11-25T13:58:27.999+01:00</time>
      </trkpt>
      <trkpt lat="43.68784" lon="4.08052">
        <ele>90.351423420678</ele>
        <time>2020-11-25T13:58:28.999+01:00</time>
      </trkpt>
      <trkpt lat="43.68785" lon="4.0805">
        <ele>90.356419193919</ele>
        <time>2020-11-25T13:58:29.999+01:00</time>
      </trkpt>
      <trkpt lat="43.68785" lon="4.08049">
        <ele>90.36125890734</ele>
        <time>2020-11-25T13:58:30.999+01:00</time>
      </trkpt>
      <trkpt lat="43.68787" lon="4.08048">
        <ele>90.366277562582</ele>
        <time>2020-11-25T13:58:31.999+01:00</time>
      </trkpt>
      <trkpt lat="43.68788" lon="4.08047">
        <ele>90.371193224289</ele>
        <time>2020-11-25T13:58:32.999+01:00</time>
      </trkpt>
      <trkpt lat="43.68788" lon="4.08045">
        <ele>90.376063005084</ele>
        <time>2020-11-25T13:58:33.999+01:00</time>
      </trkpt>
      <trkpt lat="43.68789" lon="4.08044">
        <ele>90.381129754476</ele>
        <time>2020-11-25T13:58:34.999+01:00</time>
      </trkpt>
      <trkpt lat="43.6879" lon="4.08043">
        <ele>90.38617291041</ele>
        <time>2020-11-25T13:58:35.999+01:00</time>
      </trkpt>
      <trkpt lat="43.68791" lon="4.08041">
        <ele>90.391363027812</ele>
        <time>2020-11-25T13:58:36.999+01:00</time>
      </trkpt>
      <trkpt lat="43.68791" lon="4.0804">
        <ele>90.396603016855</ele>
        <time>2020-11-25T13:58:37.999+01:00</time>
      </trkpt>
      <trkpt lat="43.68792" lon="4.08038">
        <ele>90.401684732024</ele>
        <time>2020-11-25T13:58:38.999+01:00</time>
      </trkpt>
      <trkpt lat="43.68793" lon="4.08037">
        <ele>90.40674566334</ele>
        <time>2020-11-25T13:58:39.999+01:00</time>
      </trkpt>
      <trkpt lat="43.68794" lon="4.08036">
        <ele>90.411688474837</ele>
        <time>2020-11-25T13:58:40.999+01:00</time>
      </trkpt>
      <trkpt lat="43.68795" lon="4.08035">
        <ele>90.416594653303</ele>
        <time>2020-11-25T13:58:41.999+01:00</time>
      </trkpt>
      <trkpt lat="43.68796" lon="4.08034">
        <ele>90.42158748371</ele>
        <time>2020-11-25T13:58:42.999+01:00</time>
      </trkpt>
      <trkpt lat="43.68796" lon="4.08032">
        <ele>90.426700674698</ele>
        <time>2020-11-25T13:58:43.999+01:00</time>
      </trkpt>
      <trkpt lat="43.68797" lon="4.08031">
        <ele>90.431885921964</ele>
        <time>2020-11-25T13:58:44.999+01:00</time>
      </trkpt>
      <trkpt lat="43.68798" lon="4.0803">
        <ele>90.437046930717</ele>
        <time>2020-11-25T13:58:45.999+01:00</time>
      </trkpt>
      <trkpt lat="43.68799" lon="4.08029">
        <ele>90.442097842143</ele>
        <time>2020-11-25T13:58:46.999+01:00</time>
      </trkpt>
      <trkpt lat="43.688" lon="4.08029">
        <ele>90.446785328789</ele>
        <time>2020-11-25T13:58:47.999+01:00</time>
      </trkpt>
      <trkpt lat="43.68801" lon="4.08028">
        <ele>90.451216663478</ele>
        <time>2020-11-25T13:58:48.999+01:00</time>
      </trkpt>
      <trkpt lat="43.68801" lon="4.08027">
        <ele>90.455437011137</ele>
        <time>2020-11-25T13:58:49.999+01:00</time>
      </trkpt>
      <trkpt lat="43.68802" lon="4.08027">
        <ele>90.459356274941</ele>
        <time>2020-11-25T13:58:50.999+01:00</time>
      </trkpt>
      <trkpt lat="43.68803" lon="4.08027">
        <ele>90.463208804169</ele>
        <time>2020-11-25T13:58:51.999+01:00</time>
      </trkpt>
      <trkpt lat="43.68805" lon="4.08026">
        <ele>90.46689191767</ele>
        <time>2020-11-25T13:58:52.999+01:00</time>
      </trkpt>
      <trkpt lat="43.68806" lon="4.08025">
        <ele>90.470356025889</ele>
        <time>2020-11-25T13:58:53.999+01:00</time>
      </trkpt>
      <trkpt lat="43.68807" lon="4.08024">
        <ele>90.473638840602</ele>
        <time>2020-11-25T13:58:54.999+01:00</time>
      </trkpt>
      <trkpt lat="43.68808" lon="4.08023">
        <ele>90.476647323759</ele>
        <time>2020-11-25T13:58:55.999+01:00</time>
      </trkpt>
      <trkpt lat="43.68809" lon="4.08022">
        <ele>90.479608494442</ele>
        <time>2020-11-25T13:58:56.999+01:00</time>
      </trkpt>
      <trkpt lat="43.6881" lon="4.08022">
        <ele>90.482581755604</ele>
        <time>2020-11-25T13:58:57.999+01:00</time>
      </trkpt>
      <trkpt lat="43.6881" lon="4.08021">
        <ele>90.485609619779</ele>
        <time>2020-11-25T13:58:58.999+01:00</time>
      </trkpt>
      <trkpt lat="43.68812" lon="4.0802">
        <ele>90.488817993901</ele>
        <time>2020-11-25T13:58:59.999+01:00</time>
      </trkpt>
      <trkpt lat="43.68813" lon="4.0802">
        <ele>90.491969828619</ele>
        <time>2020-11-25T13:59:00.999+01:00</time>
      </trkpt>
      <trkpt lat="43.68814" lon="4.08019">
        <ele>90.495089287422</ele>
        <time>2020-11-25T13:59:01.999+01:00</time>
      </trkpt>
      <trkpt lat="43.68815" lon="4.08018">
        <ele>90.498242569285</ele>
        <time>2020-11-25T13:59:02.999+01:00</time>
      </trkpt>
      <trkpt lat="43.68816" lon="4.08017">
        <ele>90.501357939989</ele>
        <time>2020-11-25T13:59:03.999+01:00</time>
      </trkpt>
      <trkpt lat="43.68817" lon="4.08016">
        <ele>90.504410831324</ele>
        <time>2020-11-25T13:59:04.999+01:00</time>
      </trkpt>
      <trkpt lat="43.68818" lon="4.08015">
        <ele>90.507318736125</ele>
        <time>2020-11-25T13:59:05.999+01:00</time>
      </trkpt>
      <trkpt lat="43.68819" lon="4.08014">
        <ele>90.510119284208</ele>
        <time>2020-11-25T13:59:06.999+01:00</time>
      </trkpt>
      <trkpt lat="43.6882" lon="4.08013">
        <ele>90.51287040211</ele>
        <time>2020-11-25T13:59:07.999+01:00</time>
      </trkpt>
      <trkpt lat="43.68822" lon="4.08011">
        <ele>90.515578202589</ele>
        <time>2020-11-25T13:59:08.999+01:00</time>
      </trkpt>
      <trkpt lat="43.68822" lon="4.0801">
        <ele>90.518172196873</ele>
        <time>2020-11-25T13:59:09.999+01:00</time>
      </trkpt>
      <trkpt lat="43.68824" lon="4.08008">
        <ele>90.520819963008</ele>
        <time>2020-11-25T13:59:10.999+01:00</time>
      </trkpt>
      <trkpt lat="43.68824" lon="4.08007">
        <ele>90.523533894872</ele>
        <time>2020-11-25T13:59:11.999+01:00</time>
      </trkpt>
      <trkpt lat="43.68825" lon="4.08006">
        <ele>90.526223210526</ele>
        <time>2020-11-25T13:59:12.999+01:00</time>
      </trkpt>
      <trkpt lat="43.68826" lon="4.08005">
        <ele>90.528890698842</ele>
        <time>2020-11-25T13:59:13.999+01:00</time>
      </trkpt>
      <trkpt lat="43.68826" lon="4.08003">
        <ele>90.531613949821</ele>
        <time>2020-11-25T13:59:14.999+01:00</time>
      </trkpt>
      <trkpt lat="43.68827" lon="4.08002">
        <ele>90.534367411407</ele>
        <time>2020-11-25T13:59:15.999+01:00</time>
      </trkpt>
      <trkpt lat="43.68828" lon="4.08001">
        <ele>90.537068228698</ele>
        <time>2020-11-25T13:59:16.999+01:00</time>
      </trkpt>
      <trkpt lat="43.68829" lon="4.08">
        <ele>90.539816540744</ele>
        <time>2020-11-25T13:59:17.999+01:00</time>
      </trkpt>
      <trkpt lat="43.68829" lon="4.07998">
        <ele>90.542497682014</ele>
        <time>2020-11-25T13:59:18.999+01:00</time>
      </trkpt>
      <trkpt lat="43.6883" lon="4.07997">
        <ele>90.545066383617</ele>
        <time>2020-11-25T13:59:19.999+01:00</time>
      </trkpt>
      <trkpt lat="43.6883" lon="4.07995">
        <ele>90.54780736105</ele>
        <time>2020-11-25T13:59:20.999+01:00</time>
      </trkpt>
      <trkpt lat="43.68831" lon="4.07994">
        <ele>90.550340296032</ele>
        <time>2020-11-25T13:59:21.999+01:00</time>
      </trkpt>
      <trkpt lat="43.68831" lon="4.07993">
        <ele>90.552852016201</ele>
        <time>2020-11-25T13:59:22.999+01:00</time>
      </trkpt>
      <trkpt lat="43.68832" lon="4.07991">
        <ele>90.555380514017</ele>
        <time>2020-11-25T13:59:23.999+01:00</time>
      </trkpt>
      <trkpt lat="43.68832" lon="4.0799">
        <ele>90.557902210853</ele>
        <time>2020-11-25T13:59:24.999+01:00</time>
      </trkpt>
      <trkpt lat="43.68833" lon="4.07988">
        <ele>90.560328270701</ele>
        <time>2020-11-25T13:59:25.999+01:00</time>
      </trkpt>
      <trkpt lat="43.68833" lon="4.07987">
        <ele>90.562625447735</ele>
        <time>2020-11-25T13:59:26.999+01:00</time>
      </trkpt>
      <trkpt lat="43.68833" lon="4.07986">
        <ele>90.564818347896</ele>
        <time>2020-11-25T13:59:27.999+01:00</time>
      </trkpt>
      <trkpt lat="43.68833" lon="4.07985">
        <ele>90.567097488666</ele>
        <time>2020-11-25T13:59:28.999+01:00</time>
      </trkpt>
      <trkpt lat="43.68833" lon="4.07983">
        <ele>90.569312665911</ele>
        <time>2020-11-25T13:59:29.999+01:00</time>
      </trkpt>
      <trkpt lat="43.68833" lon="4.07981">
        <ele>90.571556842517</ele>
        <time>2020-11-25T13:59:30.999+01:00</time>
      </trkpt>
      <trkpt lat="43.68833" lon="4.0798">
        <ele>90.573853427628</ele>
        <time>2020-11-25T13:59:31.999+01:00</time>
      </trkpt>
      <trkpt lat="43.68833" lon="4.07978">
        <ele>90.576049095088</ele>
        <time>2020-11-25T13:59:32.999+01:00</time>
      </trkpt>
      <trkpt lat="43.68833" lon="4.07977">
        <ele>90.578232265917</ele>
        <time>2020-11-25T13:59:33.999+01:00</time>
      </trkpt>
      <trkpt lat="43.68833" lon="4.07975">
        <ele>90.580347970665</ele>
        <time>2020-11-25T13:59:34.999+01:00</time>
      </trkpt>
      <trkpt lat="43.68833" lon="4.07973">
        <ele>90.582396157029</ele>
        <time>2020-11-25T13:59:35.999+01:00</time>
      </trkpt>
      <trkpt lat="43.68832" lon="4.07971">
        <ele>90.58430396948</ele>
        <time>2020-11-25T13:59:36.999+01:00</time>
      </trkpt>
      <trkpt lat="43.68831" lon="4.0797">
        <ele>90.586147079258</ele>
        <time>2020-11-25T13:59:37.999+01:00</time>
      </trkpt>
      <trkpt lat="43.68831" lon="4.07968">
        <ele>90.588037425634</ele>
        <time>2020-11-25T13:59:38.999+01:00</time>
      </trkpt>
      <trkpt lat="43.68831" lon="4.07967">
        <ele>90.589985450082</ele>
        <time>2020-11-25T13:59:39.999+01:00</time>
      </trkpt>
      <trkpt lat="43.6883" lon="4.07965">
        <ele>90.59212673868</ele>
        <time>2020-11-25T13:59:40.999+01:00</time>
      </trkpt>
      <trkpt lat="43.6883" lon="4.07964">
        <ele>90.594280330601</ele>
        <time>2020-11-25T13:59:41.999+01:00</time>
      </trkpt>
      <trkpt lat="43.68829" lon="4.07963">
        <ele>90.596360304341</ele>
        <time>2020-11-25T13:59:42.999+01:00</time>
      </trkpt>
      <trkpt lat="43.68828" lon="4.07962">
        <ele>90.598365246981</ele>
        <time>2020-11-25T13:59:43.999+01:00</time>
      </trkpt>
      <trkpt lat="43.68827" lon="4.0796">
        <ele>90.600426430585</ele>
        <time>2020-11-25T13:59:44.999+01:00</time>
      </trkpt>
      <trkpt lat="43.68827" lon="4.07959">
        <ele>90.602517673342</ele>
        <time>2020-11-25T13:59:45.999+01:00</time>
      </trkpt>
      <trkpt lat="43.68826" lon="4.07958">
        <ele>90.604561919592</ele>
        <time>2020-11-25T13:59:46.999+01:00</time>
      </trkpt>
      <trkpt lat="43.68826" lon="4.07956">
        <ele>90.606540404813</ele>
        <time>2020-11-25T13:59:47.999+01:00</time>
      </trkpt>
      <trkpt lat="43.68825" lon="4.07955">
        <ele>90.608419232078</ele>
        <time>2020-11-25T13:59:48.999+01:00</time>
      </trkpt>
      <trkpt lat="43.68824" lon="4.07954">
        <ele>90.610256377289</ele>
        <time>2020-11-25T13:59:49.999+01:00</time>
      </trkpt>
      <trkpt lat="43.68824" lon="4.07952">
        <ele>90.612132686028</ele>
        <time>2020-11-25T13:59:50.999+01:00</time>
      </trkpt>
      <trkpt lat="43.68823" lon="4.07951">
        <ele>90.614150907625</ele>
        <time>2020-11-25T13:59:51.999+01:00</time>
      </trkpt>
      <trkpt lat="43.68822" lon="4.07949">
        <ele>90.616258521224</ele>
        <time>2020-11-25T13:59:52.999+01:00</time>
      </trkpt>
      <trkpt lat="43.68822" lon="4.07948">
        <ele>90.618395301483</ele>
        <time>2020-11-25T13:59:53.999+01:00</time>
      </trkpt>
      <trkpt lat="43.68821" lon="4.07947">
        <ele>90.620621684543</ele>
        <time>2020-11-25T13:59:54.999+01:00</time>
      </trkpt>
      <trkpt lat="43.6882" lon="4.07945">
        <ele>90.622942147651</ele>
        <time>2020-11-25T13:59:55.999+01:00</time>
      </trkpt>
      <trkpt lat="43.68819" lon="4.07944">
        <ele>90.625381531739</ele>
        <time>2020-11-25T13:59:56.999+01:00</time>
      </trkpt>
      <trkpt lat="43.68818" lon="4.07943">
        <ele>90.62797494755</ele>
        <time>2020-11-25T13:59:57.999+01:00</time>
      </trkpt>
      <trkpt lat="43.68817" lon="4.07942">
        <ele>90.630716520811</ele>
        <time>2020-11-25T13:59:58.999+01:00</time>
      </trkpt>
      <trkpt lat="43.68817" lon="4.0794">
        <ele>90.633543421214</ele>
        <time>2020-11-25T13:59:59.999+01:00</time>
      </trkpt>
      <trkpt lat="43.68816" lon="4.07939">
        <ele>90.636383599778</ele>
        <time>2020-11-25T14:00:00.999+01:00</time>
      </trkpt>
      <trkpt lat="43.68815" lon="4.07938">
        <ele>90.639303950249</ele>
        <time>2020-11-25T14:00:01.999+01:00</time>
      </trkpt>
      <trkpt lat="43.68814" lon="4.07937">
        <ele>90.642110753042</ele>
        <time>2020-11-25T14:00:02.999+01:00</time>
      </trkpt>
      <trkpt lat="43.68813" lon="4.07935">
        <ele>90.644769046637</ele>
        <time>2020-11-25T14:00:03.999+01:00</time>
      </trkpt>
      <trkpt lat="43.68813" lon="4.07934">
        <ele>90.647194855458</ele>
        <time>2020-11-25T14:00:04.999+01:00</time>
      </trkpt>
      <trkpt lat="43.68812" lon="4.07932">
        <ele>90.649699069437</ele>
        <time>2020-11-25T14:00:05.999+01:00</time>
      </trkpt>
      <trkpt lat="43.68812" lon="4.07931">
        <ele>90.652172096638</ele>
        <time>2020-11-25T14:00:06.999+01:00</time>
      </trkpt>
      <trkpt lat="43.68811" lon="4.0793">
        <ele>90.654775618011</ele>
        <time>2020-11-25T14:00:07.999+01:00</time>
      </trkpt>
      <trkpt lat="43.6881" lon="4.07929">
        <ele>90.657390636838</ele>
        <time>2020-11-25T14:00:08.999+01:00</time>
      </trkpt>
      <trkpt lat="43.68809" lon="4.07927">
        <ele>90.659972771464</ele>
        <time>2020-11-25T14:00:09.999+01:00</time>
      </trkpt>
      <trkpt lat="43.68809" lon="4.07926">
        <ele>90.662551889956</ele>
        <time>2020-11-25T14:00:10.999+01:00</time>
      </trkpt>
      <trkpt lat="43.68808" lon="4.07924">
        <ele>90.665112524987</ele>
        <time>2020-11-25T14:00:11.999+01:00</time>
      </trkpt>
      <trkpt lat="43.68807" lon="4.07923">
        <ele>90.667713101436</ele>
        <time>2020-11-25T14:00:12.999+01:00</time>
      </trkpt>
      <trkpt lat="43.68806" lon="4.07922">
        <ele>90.670491200615</ele>
        <time>2020-11-25T14:00:13.999+01:00</time>
      </trkpt>
      <trkpt lat="43.68806" lon="4.07921">
        <ele>90.673338424477</ele>
        <time>2020-11-25T14:00:14.999+01:00</time>
      </trkpt>
      <trkpt lat="43.68805" lon="4.07919">
        <ele>90.676087815068</ele>
        <time>2020-11-25T14:00:15.999+01:00</time>
      </trkpt>
      <trkpt lat="43.68804" lon="4.07918">
        <ele>90.678875249355</ele>
        <time>2020-11-25T14:00:16.999+01:00</time>
      </trkpt>
      <trkpt lat="43.68803" lon="4.07917">
        <ele>90.681615924603</ele>
        <time>2020-11-25T14:00:17.999+01:00</time>
      </trkpt>
      <trkpt lat="43.68803" lon="4.07916">
        <ele>90.684314833292</ele>
        <time>2020-11-25T14:00:18.999+01:00</time>
      </trkpt>
      <trkpt lat="43.68802" lon="4.07915">
        <ele>90.686866849886</ele>
        <time>2020-11-25T14:00:19.999+01:00</time>
      </trkpt>
      <trkpt lat="43.68801" lon="4.07913">
        <ele>90.689209454578</ele>
        <time>2020-11-25T14:00:20.999+01:00</time>
      </trkpt>
      <trkpt lat="43.68801" lon="4.07912">
        <ele>90.691315013342</ele>
        <time>2020-11-25T14:00:21.999+01:00</time>
      </trkpt>
      <trkpt lat="43.688" lon="4.07911">
        <ele>90.693208347805</ele>
        <time>2020-11-25T14:00:22.999+01:00</time>
      </trkpt>
      <trkpt lat="43.68799" lon="4.0791">
        <ele>90.694847023933</ele>
        <time>2020-11-25T14:00:23.999+01:00</time>
      </trkpt>
      <trkpt lat="43.68799" lon="4.07908">
        <ele>90.696257838529</ele>
        <time>2020-11-25T14:00:24.999+01:00</time>
      </trkpt>
      <trkpt lat="43.68798" lon="4.07907">
        <ele>90.69737930876</ele>
        <time>2020-11-25T14:00:25.999+01:00</time>
      </trkpt>
      <trkpt lat="43.68798" lon="4.07906">
        <ele>90.698272110544</ele>
        <time>2020-11-25T14:00:26.999+01:00</time>
      </trkpt>
      <trkpt lat="43.68798" lon="4.07905">
        <ele>90.699319035196</ele>
        <time>2020-11-25T14:00:27.999+01:00</time>
      </trkpt>
      <trkpt lat="43.68797" lon="4.07904">
        <ele>90.700497690499</ele>
        <time>2020-11-25T14:00:28.999+01:00</time>
      </trkpt>
      <trkpt lat="43.68797" lon="4.07903">
        <ele>90.701714523284</ele>
        <time>2020-11-25T14:00:29.999+01:00</time>
      </trkpt>
      <trkpt lat="43.68796" lon="4.07901">
        <ele>90.70301073082</ele>
        <time>2020-11-25T14:00:30.999+01:00</time>
      </trkpt>
      <trkpt lat="43.68795" lon="4.079">
        <ele>90.704368396175</ele>
        <time>2020-11-25T14:00:31.999+01:00</time>
      </trkpt>
      <trkpt lat="43.68794" lon="4.07898">
        <ele>90.705810639555</ele>
        <time>2020-11-25T14:00:32.999+01:00</time>
      </trkpt>
      <trkpt lat="43.68794" lon="4.07897">
        <ele>90.707164820677</ele>
        <time>2020-11-25T14:00:33.999+01:00</time>
      </trkpt>
      <trkpt lat="43.68793" lon="4.07896">
        <ele>90.708507548873</ele>
        <time>2020-11-25T14:00:34.999+01:00</time>
      </trkpt>
      <trkpt lat="43.68792" lon="4.07895">
        <ele>90.70984575162</ele>
        <time>2020-11-25T14:00:35.999+01:00</time>
      </trkpt>
      <trkpt lat="43.68792" lon="4.07894">
        <ele>90.711157657388</ele>
        <time>2020-11-25T14:00:36.999+01:00</time>
      </trkpt>
      <trkpt lat="43.68791" lon="4.07892">
        <ele>90.712470943365</ele>
        <time>2020-11-25T14:00:37.999+01:00</time>
      </trkpt>
      <trkpt lat="43.6879" lon="4.07891">
        <ele>90.713781314876</ele>
        <time>2020-11-25T14:00:38.999+01:00</time>
      </trkpt>
      <trkpt lat="43.68789" lon="4.07889">
        <ele>90.715100521411</ele>
        <time>2020-11-25T14:00:39.999+01:00</time>
      </trkpt>
      <trkpt lat="43.68788" lon="4.07888">
        <ele>90.71639646684</ele>
        <time>2020-11-25T14:00:40.999+01:00</time>
      </trkpt>
      <trkpt lat="43.68788" lon="4.07887">
        <ele>90.717647619056</ele>
        <time>2020-11-25T14:00:41.999+01:00</time>
      </trkpt>
      <trkpt lat="43.68787" lon="4.07885">
        <ele>90.718885769593</ele>
        <time>2020-11-25T14:00:42.999+01:00</time>
      </trkpt>
      <trkpt lat="43.68786" lon="4.07884">
        <ele>90.720044418936</ele>
        <time>2020-11-25T14:00:43.999+01:00</time>
      </trkpt>
      <trkpt lat="43.68786" lon="4.07883">
        <ele>90.721225254052</ele>
        <time>2020-11-25T14:00:44.999+01:00</time>
      </trkpt>
      <trkpt lat="43.68785" lon="4.07882">
        <ele>90.722295852809</ele>
        <time>2020-11-25T14:00:45.999+01:00</time>
      </trkpt>
      <trkpt lat="43.68785" lon="4.07881">
        <ele>90.72322559026</ele>
        <time>2020-11-25T14:00:46.999+01:00</time>
      </trkpt>
      <trkpt lat="43.68784" lon="4.07879">
        <ele>90.72419393899</ele>
        <time>2020-11-25T14:00:47.999+01:00</time>
      </trkpt>
      <trkpt lat="43.68783" lon="4.07878">
        <ele>90.724989472893</ele>
        <time>2020-11-25T14:00:48.999+01:00</time>
      </trkpt>
      <trkpt lat="43.68783" lon="4.07876">
        <ele>90.725763737481</ele>
        <time>2020-11-25T14:00:49.999+01:00</time>
      </trkpt>
      <trkpt lat="43.68783" lon="4.07875">
        <ele>90.72654375535</ele>
        <time>2020-11-25T14:00:50.999+01:00</time>
      </trkpt>
      <trkpt lat="43.68782" lon="4.07874">
        <ele>90.727222151641</ele>
        <time>2020-11-25T14:00:51.999+01:00</time>
      </trkpt>
      <trkpt lat="43.68781" lon="4.07872">
        <ele>90.72797361284</ele>
        <time>2020-11-25T14:00:52.999+01:00</time>
      </trkpt>
      <trkpt lat="43.6878" lon="4.07871">
        <ele>90.728782314677</ele>
        <time>2020-11-25T14:00:53.999+01:00</time>
      </trkpt>
      <trkpt lat="43.6878" lon="4.07869">
        <ele>90.729645453317</ele>
        <time>2020-11-25T14:00:54.999+01:00</time>
      </trkpt>
      <trkpt lat="43.68779" lon="4.07868">
        <ele>90.730517676184</ele>
        <time>2020-11-25T14:00:55.999+01:00</time>
      </trkpt>
      <trkpt lat="43.68778" lon="4.07866">
        <ele>90.731303722508</ele>
        <time>2020-11-25T14:00:56.999+01:00</time>
      </trkpt>
      <trkpt lat="43.68778" lon="4.07865">
        <ele>90.732136778247</ele>
        <time>2020-11-25T14:00:57.999+01:00</time>
      </trkpt>
      <trkpt lat="43.68777" lon="4.07863">
        <ele>90.732958381454</ele>
        <time>2020-11-25T14:00:58.999+01:00</time>
      </trkpt>
      <trkpt lat="43.68776" lon="4.07862">
        <ele>90.733624361922</ele>
        <time>2020-11-25T14:00:59.999+01:00</time>
      </trkpt>
      <trkpt lat="43.68776" lon="4.07861">
        <ele>90.734132513567</ele>
        <time>2020-11-25T14:01:00.999+01:00</time>
      </trkpt>
      <trkpt lat="43.68775" lon="4.07859">
        <ele>90.734634935507</ele>
        <time>2020-11-25T14:01:01.999+01:00</time>
      </trkpt>
      <trkpt lat="43.68774" lon="4.07858">
        <ele>90.735166815672</ele>
        <time>2020-11-25T14:01:02.999+01:00</time>
      </trkpt>
      <trkpt lat="43.68774" lon="4.07856">
        <ele>90.735634577135</ele>
        <time>2020-11-25T14:01:03.999+01:00</time>
      </trkpt>
      <trkpt lat="43.68773" lon="4.07854">
        <ele>90.7359638563</ele>
        <time>2020-11-25T14:01:04.999+01:00</time>
      </trkpt>
      <trkpt lat="43.68773" lon="4.07853">
        <ele>90.736221022427</ele>
        <time>2020-11-25T14:01:05.999+01:00</time>
      </trkpt>
      <trkpt lat="43.68772" lon="4.07852">
        <ele>90.736322998727</ele>
        <time>2020-11-25T14:01:06.999+01:00</time>
      </trkpt>
      <trkpt lat="43.68772" lon="4.07851">
        <ele>90.736262570765</ele>
        <time>2020-11-25T14:01:07.999+01:00</time>
      </trkpt>
      <trkpt lat="43.68771" lon="4.07849">
        <ele>90.73610721716</ele>
        <time>2020-11-25T14:01:08.999+01:00</time>
      </trkpt>
      <trkpt lat="43.68771" lon="4.07848">
        <ele>90.735729643903</ele>
        <time>2020-11-25T14:01:09.999+01:00</time>
      </trkpt>
      <trkpt lat="43.68771" lon="4.07847">
        <ele>90.735259299514</ele>
        <time>2020-11-25T14:01:10.999+01:00</time>
      </trkpt>
      <trkpt lat="43.6877" lon="4.07845">
        <ele>90.734794688802</ele>
        <time>2020-11-25T14:01:11.999+01:00</time>
      </trkpt>
      <trkpt lat="43.6877" lon="4.07844">
        <ele>90.734342237613</ele>
        <time>2020-11-25T14:01:12.999+01:00</time>
      </trkpt>
      <trkpt lat="43.68769" lon="4.07842">
        <ele>90.733835532595</ele>
        <time>2020-11-25T14:01:13.999+01:00</time>
      </trkpt>
      <trkpt lat="43.68769" lon="4.07841">
        <ele>90.733343607301</ele>
        <time>2020-11-25T14:01:14.999+01:00</time>
      </trkpt>
      <trkpt lat="43.68768" lon="4.07839">
        <ele>90.733069222642</ele>
        <time>2020-11-25T14:01:15.999+01:00</time>
      </trkpt>
      <trkpt lat="43.68767" lon="4.07838">
        <ele>90.733005249944</ele>
        <time>2020-11-25T14:01:16.999+01:00</time>
      </trkpt>
      <trkpt lat="43.68767" lon="4.07836">
        <ele>90.733218607842</ele>
        <time>2020-11-25T14:01:17.999+01:00</time>
      </trkpt>
      <trkpt lat="43.68766" lon="4.07834">
        <ele>90.733644188472</ele>
        <time>2020-11-25T14:01:18.999+01:00</time>
      </trkpt>
      <trkpt lat="43.68766" lon="4.07833">
        <ele>90.733999296194</ele>
        <time>2020-11-25T14:01:19.999+01:00</time>
      </trkpt>
      <trkpt lat="43.68766" lon="4.07831">
        <ele>90.734303073032</ele>
        <time>2020-11-25T14:01:20.999+01:00</time>
      </trkpt>
      <trkpt lat="43.68766" lon="4.0783">
        <ele>90.734525754662</ele>
        <time>2020-11-25T14:01:21.999+01:00</time>
      </trkpt>
      <trkpt lat="43.68765" lon="4.07829">
        <ele>90.734549622743</ele>
        <time>2020-11-25T14:01:22.999+01:00</time>
      </trkpt>
      <trkpt lat="43.68765" lon="4.07828">
        <ele>90.734586076039</ele>
        <time>2020-11-25T14:01:23.999+01:00</time>
      </trkpt>
      <trkpt lat="43.68764" lon="4.07826">
        <ele>90.734765495465</ele>
        <time>2020-11-25T14:01:24.999+01:00</time>
      </trkpt>
      <trkpt lat="43.68764" lon="4.07825">
        <ele>90.735047394224</ele>
        <time>2020-11-25T14:01:25.999+01:00</time>
      </trkpt>
      <trkpt lat="43.68764" lon="4.07824">
        <ele>90.735134022617</ele>
        <time>2020-11-25T14:01:26.999+01:00</time>
      </trkpt>
      <trkpt lat="43.68763" lon="4.07823">
        <ele>90.735114492157</ele>
        <time>2020-11-25T14:01:27.999+01:00</time>
      </trkpt>
      <trkpt lat="43.68763" lon="4.07823">
        <ele>90.734996551724</ele>
        <time>2020-11-25T14:01:28.999+01:00</time>
      </trkpt>
      <trkpt lat="43.68762" lon="4.07823">
        <ele>90.734851177439</ele>
        <time>2020-11-25T14:01:29.999+01:00</time>
      </trkpt>
      <trkpt lat="43.68761" lon="4.07823">
        <ele>90.734188074115</ele>
        <time>2020-11-25T14:01:30.999+01:00</time>
      </trkpt>
      <trkpt lat="43.68761" lon="4.07823">
        <ele>90.733020899666</ele>
        <time>2020-11-25T14:01:31.999+01:00</time>
      </trkpt>
      <trkpt lat="43.68761" lon="4.07824">
        <ele>90.731327539848</ele>
        <time>2020-11-25T14:01:32.999+01:00</time>
      </trkpt>
      <trkpt lat="43.6876" lon="4.07824">
        <ele>90.730054633386</ele>
        <time>2020-11-25T14:01:33.999+01:00</time>
      </trkpt>
      <trkpt lat="43.68759" lon="4.07824">
        <ele>90.729033935646</ele>
        <time>2020-11-25T14:01:34.999+01:00</time>
      </trkpt>
      <trkpt lat="43.68758" lon="4.07824">
        <ele>90.728206557375</ele>
        <time>2020-11-25T14:01:35.999+01:00</time>
      </trkpt>
      <trkpt lat="43.68757" lon="4.07824">
        <ele>90.727559606147</ele>
        <time>2020-11-25T14:01:36.999+01:00</time>
      </trkpt>
      <trkpt lat="43.68756" lon="4.07824">
        <ele>90.726943625404</ele>
        <time>2020-11-25T14:01:37.999+01:00</time>
      </trkpt>
      <trkpt lat="43.68756" lon="4.07823">
        <ele>90.726400305874</ele>
        <time>2020-11-25T14:01:38.999+01:00</time>
      </trkpt>
      <trkpt lat="43.68756" lon="4.07821">
        <ele>90.72597999657</ele>
        <time>2020-11-25T14:01:39.999+01:00</time>
      </trkpt>
      <trkpt lat="43.68755" lon="4.0782">
        <ele>90.725626327883</ele>
        <time>2020-11-25T14:01:40.999+01:00</time>
      </trkpt>
      <trkpt lat="43.68755" lon="4.07819">
        <ele>90.725450015126</ele>
        <time>2020-11-25T14:01:41.999+01:00</time>
      </trkpt>
      <trkpt lat="43.68754" lon="4.07818">
        <ele>90.72533050941</ele>
        <time>2020-11-25T14:01:42.999+01:00</time>
      </trkpt>
      <trkpt lat="43.68753" lon="4.07817">
        <ele>90.725253374715</ele>
        <time>2020-11-25T14:01:43.999+01:00</time>
      </trkpt>
      <trkpt lat="43.68752" lon="4.07816">
        <ele>90.725253784889</ele>
        <time>2020-11-25T14:01:44.999+01:00</time>
      </trkpt>
      <trkpt lat="43.68751" lon="4.07816">
        <ele>90.7252237001</ele>
        <time>2020-11-25T14:01:45.999+01:00</time>
      </trkpt>
      <trkpt lat="43.6875" lon="4.07815">
        <ele>90.725282133616</ele>
        <time>2020-11-25T14:01:46.999+01:00</time>
      </trkpt>
      <trkpt lat="43.68749" lon="4.07814">
        <ele>90.725237450308</ele>
        <time>2020-11-25T14:01:47.999+01:00</time>
      </trkpt>
      <trkpt lat="43.68748" lon="4.07813">
        <ele>90.725178383009</ele>
        <time>2020-11-25T14:01:48.999+01:00</time>
      </trkpt>
      <trkpt lat="43.68747" lon="4.07813">
        <ele>90.725153198025</ele>
        <time>2020-11-25T14:01:49.999+01:00</time>
      </trkpt>
      <trkpt lat="43.68746" lon="4.07812">
        <ele>90.72514079684</ele>
        <time>2020-11-25T14:01:50.999+01:00</time>
      </trkpt>
      <trkpt lat="43.68744" lon="4.07811">
        <ele>90.725215187731</ele>
        <time>2020-11-25T14:01:51.999+01:00</time>
      </trkpt>
      <trkpt lat="43.68743" lon="4.0781">
        <ele>90.725219070981</ele>
        <time>2020-11-25T14:01:52.999+01:00</time>
      </trkpt>
      <trkpt lat="43.68742" lon="4.07809">
        <ele>90.725069426533</ele>
        <time>2020-11-25T14:01:53.999+01:00</time>
      </trkpt>
      <trkpt lat="43.68741" lon="4.07809">
        <ele>90.724814974328</ele>
        <time>2020-11-25T14:01:54.999+01:00</time>
      </trkpt>
      <trkpt lat="43.6874" lon="4.07808">
        <ele>90.724370787607</ele>
        <time>2020-11-25T14:01:55.999+01:00</time>
      </trkpt>
      <trkpt lat="43.68739" lon="4.07807">
        <ele>90.723828727047</ele>
        <time>2020-11-25T14:01:56.999+01:00</time>
      </trkpt>
      <trkpt lat="43.68738" lon="4.07807">
        <ele>90.723182630198</ele>
        <time>2020-11-25T14:01:57.999+01:00</time>
      </trkpt>
      <trkpt lat="43.68737" lon="4.07806">
        <ele>90.722354729233</ele>
        <time>2020-11-25T14:01:58.999+01:00</time>
      </trkpt>
      <trkpt lat="43.68736" lon="4.07806">
        <ele>90.721564281414</ele>
        <time>2020-11-25T14:01:59.999+01:00</time>
      </trkpt>
      <trkpt lat="43.68736" lon="4.07805">
        <ele>90.720590773355</ele>
        <time>2020-11-25T14:02:00.999+01:00</time>
      </trkpt>
      <trkpt lat="43.68735" lon="4.07805">
        <ele>90.719378077836</ele>
        <time>2020-11-25T14:02:01.999+01:00</time>
      </trkpt>
      <trkpt lat="43.68734" lon="4.07804">
        <ele>90.718109554743</ele>
        <time>2020-11-25T14:02:02.999+01:00</time>
      </trkpt>
      <trkpt lat="43.68733" lon="4.07803">
        <ele>90.716655879627</ele>
        <time>2020-11-25T14:02:03.999+01:00</time>
      </trkpt>
      <trkpt lat="43.68732" lon="4.07803">
        <ele>90.715149562813</ele>
        <time>2020-11-25T14:02:04.999+01:00</time>
      </trkpt>
      <trkpt lat="43.68732" lon="4.07802">
        <ele>90.713678595458</ele>
        <time>2020-11-25T14:02:05.999+01:00</time>
      </trkpt>
      <trkpt lat="43.68731" lon="4.07801">
        <ele>90.712204873022</ele>
        <time>2020-11-25T14:02:06.999+01:00</time>
      </trkpt>
      <trkpt lat="43.6873" lon="4.07801">
        <ele>90.710672941774</ele>
        <time>2020-11-25T14:02:07.999+01:00</time>
      </trkpt>
      <trkpt lat="43.68729" lon="4.078">
        <ele>90.709219128979</ele>
        <time>2020-11-25T14:02:08.999+01:00</time>
      </trkpt>
      <trkpt lat="43.68728" lon="4.078">
        <ele>90.707471717192</ele>
        <time>2020-11-25T14:02:09.999+01:00</time>
      </trkpt>
      <trkpt lat="43.68728" lon="4.078">
        <ele>90.705301308322</ele>
        <time>2020-11-25T14:02:10.999+01:00</time>
      </trkpt>
      <trkpt lat="43.68727" lon="4.07799">
        <ele>90.702646074218</ele>
        <time>2020-11-25T14:02:11.999+01:00</time>
      </trkpt>
      <trkpt lat="43.68727" lon="4.07799">
        <ele>90.699460860333</ele>
        <time>2020-11-25T14:02:12.999+01:00</time>
      </trkpt>
      <trkpt lat="43.68726" lon="4.07799">
        <ele>90.696020544189</ele>
        <time>2020-11-25T14:02:13.999+01:00</time>
      </trkpt>
      <trkpt lat="43.68726" lon="4.07798">
        <ele>90.692103975479</ele>
        <time>2020-11-25T14:02:14.999+01:00</time>
      </trkpt>
      <trkpt lat="43.68725" lon="4.07798">
        <ele>90.688044420551</ele>
        <time>2020-11-25T14:02:15.999+01:00</time>
      </trkpt>
      <trkpt lat="43.68724" lon="4.07797">
        <ele>90.683705512767</ele>
        <time>2020-11-25T14:02:16.999+01:00</time>
      </trkpt>
      <trkpt lat="43.68723" lon="4.07797">
        <ele>90.679085121369</ele>
        <time>2020-11-25T14:02:17.999+01:00</time>
      </trkpt>
      <trkpt lat="43.68722" lon="4.07797">
        <ele>90.673777347469</ele>
        <time>2020-11-25T14:02:18.999+01:00</time>
      </trkpt>
      <trkpt lat="43.68721" lon="4.07796">
        <ele>90.668135277589</ele>
        <time>2020-11-25T14:02:19.999+01:00</time>
      </trkpt>
      <trkpt lat="43.68721" lon="4.07796">
        <ele>90.662191934356</ele>
        <time>2020-11-25T14:02:21.000+01:00</time>
      </trkpt>
      <trkpt lat="43.6872" lon="4.07796">
        <ele>90.655701235265</ele>
        <time>2020-11-25T14:02:22.000+01:00</time>
      </trkpt>
      <trkpt lat="43.68719" lon="4.07795">
        <ele>90.648822408585</ele>
        <time>2020-11-25T14:02:23.000+01:00</time>
      </trkpt>
      <trkpt lat="43.68718" lon="4.07794">
        <ele>90.641780878948</ele>
        <time>2020-11-25T14:02:24.000+01:00</time>
      </trkpt>
      <trkpt lat="43.68717" lon="4.07794">
        <ele>90.634423416547</ele>
        <time>2020-11-25T14:02:25.000+01:00</time>
      </trkpt>
      <trkpt lat="43.68716" lon="4.07793">
        <ele>90.626688269634</ele>
        <time>2020-11-25T14:02:26.000+01:00</time>
      </trkpt>
      <trkpt lat="43.68715" lon="4.07793">
        <ele>90.618479204271</ele>
        <time>2020-11-25T14:02:27.000+01:00</time>
      </trkpt>
      <trkpt lat="43.68714" lon="4.07792">
        <ele>90.60984009673</ele>
        <time>2020-11-25T14:02:28.000+01:00</time>
      </trkpt>
      <trkpt lat="43.68713" lon="4.07792">
        <ele>90.600650562582</ele>
        <time>2020-11-25T14:02:29.000+01:00</time>
      </trkpt>
      <trkpt lat="43.68712" lon="4.07791">
        <ele>90.591005767515</ele>
        <time>2020-11-25T14:02:30.000+01:00</time>
      </trkpt>
      <trkpt lat="43.68711" lon="4.0779">
        <ele>90.581290932065</ele>
        <time>2020-11-25T14:02:31.000+01:00</time>
      </trkpt>
      <trkpt lat="43.6871" lon="4.07789">
        <ele>90.571222954231</ele>
        <time>2020-11-25T14:02:32.000+01:00</time>
      </trkpt>
      <trkpt lat="43.68709" lon="4.07788">
        <ele>90.560987008436</ele>
        <time>2020-11-25T14:02:33.000+01:00</time>
      </trkpt>
      <trkpt lat="43.68708" lon="4.07787">
        <ele>90.550437769513</ele>
        <time>2020-11-25T14:02:34.000+01:00</time>
      </trkpt>
      <trkpt lat="43.68706" lon="4.07786">
        <ele>90.539717078251</ele>
        <time>2020-11-25T14:02:35.000+01:00</time>
      </trkpt>
      <trkpt lat="43.68705" lon="4.07785">
        <ele>90.529062769952</ele>
        <time>2020-11-25T14:02:36.000+01:00</time>
      </trkpt>
      <trkpt lat="43.68704" lon="4.07784">
        <ele>90.518351229441</ele>
        <time>2020-11-25T14:02:37.000+01:00</time>
      </trkpt>
      <trkpt lat="43.68703" lon="4.07783">
        <ele>90.507512558565</ele>
        <time>2020-11-25T14:02:38.000+01:00</time>
      </trkpt>
      <trkpt lat="43.68702" lon="4.07782">
        <ele>90.496681742573</ele>
        <time>2020-11-25T14:02:39.000+01:00</time>
      </trkpt>
      <trkpt lat="43.687" lon="4.0778">
        <ele>90.486045495012</ele>
        <time>2020-11-25T14:02:40.000+01:00</time>
      </trkpt>
      <trkpt lat="43.687" lon="4.07779">
        <ele>90.47546702867</ele>
        <time>2020-11-25T14:02:41.000+01:00</time>
      </trkpt>
      <trkpt lat="43.68698" lon="4.07778">
        <ele>90.46478511905</ele>
        <time>2020-11-25T14:02:42.000+01:00</time>
      </trkpt>
      <trkpt lat="43.68697" lon="4.07776">
        <ele>90.453843472316</ele>
        <time>2020-11-25T14:02:43.000+01:00</time>
      </trkpt>
      <trkpt lat="43.68697" lon="4.07775">
        <ele>90.442663955324</ele>
        <time>2020-11-25T14:02:44.000+01:00</time>
      </trkpt>
      <trkpt lat="43.68696" lon="4.07774">
        <ele>90.431641611631</ele>
        <time>2020-11-25T14:02:45.000+01:00</time>
      </trkpt>
      <trkpt lat="43.68695" lon="4.07774">
        <ele>90.420669416057</ele>
        <time>2020-11-25T14:02:46.000+01:00</time>
      </trkpt>
      <trkpt lat="43.68695" lon="4.07774">
        <ele>90.4097311369</ele>
        <time>2020-11-25T14:02:47.000+01:00</time>
      </trkpt>
      <trkpt lat="43.68694" lon="4.07773">
        <ele>90.398940523361</ele>
        <time>2020-11-25T14:02:48.000+01:00</time>
      </trkpt>
      <trkpt lat="43.68693" lon="4.07773">
        <ele>90.388103605223</ele>
        <time>2020-11-25T14:02:49.000+01:00</time>
      </trkpt>
      <trkpt lat="43.68693" lon="4.07772">
        <ele>90.377155810404</ele>
        <time>2020-11-25T14:02:50.000+01:00</time>
      </trkpt>
      <trkpt lat="43.68692" lon="4.07772">
        <ele>90.366321253849</ele>
        <time>2020-11-25T14:02:51.000+01:00</time>
      </trkpt>
      <trkpt lat="43.68692" lon="4.0777">
        <ele>90.355272272543</ele>
        <time>2020-11-25T14:02:52.000+01:00</time>
      </trkpt>
      <trkpt lat="43.68691" lon="4.07769">
        <ele>90.343935495419</ele>
        <time>2020-11-25T14:02:53.000+01:00</time>
      </trkpt>
      <trkpt lat="43.6869" lon="4.07768">
        <ele>90.33242978068</ele>
        <time>2020-11-25T14:02:54.000+01:00</time>
      </trkpt>
      <trkpt lat="43.68689" lon="4.07768">
        <ele>90.320902238201</ele>
        <time>2020-11-25T14:02:55.000+01:00</time>
      </trkpt>
      <trkpt lat="43.68688" lon="4.07766">
        <ele>90.309356111702</ele>
        <time>2020-11-25T14:02:56.000+01:00</time>
      </trkpt>
      <trkpt lat="43.68687" lon="4.07766">
        <ele>90.297802595491</ele>
        <time>2020-11-25T14:02:57.000+01:00</time>
      </trkpt>
      <trkpt lat="43.68686" lon="4.07765">
        <ele>90.285922165724</ele>
        <time>2020-11-25T14:02:58.000+01:00</time>
      </trkpt>
      <trkpt lat="43.68685" lon="4.07764">
        <ele>90.273774090535</ele>
        <time>2020-11-25T14:02:59.000+01:00</time>
      </trkpt>
      <trkpt lat="43.68684" lon="4.07762">
        <ele>90.261327531594</ele>
        <time>2020-11-25T14:03:00.000+01:00</time>
      </trkpt>
      <trkpt lat="43.68683" lon="4.07761">
        <ele>90.248655382844</ele>
        <time>2020-11-25T14:03:01.000+01:00</time>
      </trkpt>
      <trkpt lat="43.68682" lon="4.07759">
        <ele>90.235844999228</ele>
        <time>2020-11-25T14:03:02.000+01:00</time>
      </trkpt>
      <trkpt lat="43.68681" lon="4.07758">
        <ele>90.222815034869</ele>
        <time>2020-11-25T14:03:03.000+01:00</time>
      </trkpt>
      <trkpt lat="43.68681" lon="4.07758">
        <ele>90.209702420331</ele>
        <time>2020-11-25T14:03:04.000+01:00</time>
      </trkpt>
      <trkpt lat="43.6868" lon="4.07757">
        <ele>90.19643973916</ele>
        <time>2020-11-25T14:03:05.000+01:00</time>
      </trkpt>
      <trkpt lat="43.68679" lon="4.07756">
        <ele>90.183131816139</ele>
        <time>2020-11-25T14:03:06.000+01:00</time>
      </trkpt>
      <trkpt lat="43.68678" lon="4.07755">
        <ele>90.170008031516</ele>
        <time>2020-11-25T14:03:07.000+01:00</time>
      </trkpt>
      <trkpt lat="43.68677" lon="4.07755">
        <ele>90.156813265484</ele>
        <time>2020-11-25T14:03:08.000+01:00</time>
      </trkpt>
      <trkpt lat="43.68676" lon="4.07754">
        <ele>90.143590055911</ele>
        <time>2020-11-25T14:03:09.000+01:00</time>
      </trkpt>
      <trkpt lat="43.68675" lon="4.07753">
        <ele>90.130345489397</ele>
        <time>2020-11-25T14:03:10.000+01:00</time>
      </trkpt>
      <trkpt lat="43.68674" lon="4.07752">
        <ele>90.116813992193</ele>
        <time>2020-11-25T14:03:11.000+01:00</time>
      </trkpt>
      <trkpt lat="43.68674" lon="4.07752">
        <ele>90.102855957017</ele>
        <time>2020-11-25T14:03:12.000+01:00</time>
      </trkpt>
      <trkpt lat="43.68673" lon="4.07751">
        <ele>90.088504169281</ele>
        <time>2020-11-25T14:03:13.000+01:00</time>
      </trkpt>
      <trkpt lat="43.68672" lon="4.0775">
        <ele>90.074068265538</ele>
        <time>2020-11-25T14:03:14.000+01:00</time>
      </trkpt>
      <trkpt lat="43.68671" lon="4.07749">
        <ele>90.059382482575</ele>
        <time>2020-11-25T14:03:15.000+01:00</time>
      </trkpt>
      <trkpt lat="43.68671" lon="4.07748">
        <ele>90.044462155427</ele>
        <time>2020-11-25T14:03:16.000+01:00</time>
      </trkpt>
      <trkpt lat="43.6867" lon="4.07747">
        <ele>90.029502071029</ele>
        <time>2020-11-25T14:03:17.000+01:00</time>
      </trkpt>
      <trkpt lat="43.68669" lon="4.07746">
        <ele>90.014577978036</ele>
        <time>2020-11-25T14:03:18.000+01:00</time>
      </trkpt>
      <trkpt lat="43.68668" lon="4.07745">
        <ele>89.999627831436</ele>
        <time>2020-11-25T14:03:19.000+01:00</time>
      </trkpt>
      <trkpt lat="43.68667" lon="4.07744">
        <ele>89.984543351536</ele>
        <time>2020-11-25T14:03:20.000+01:00</time>
      </trkpt>
      <trkpt lat="43.68666" lon="4.07743">
        <ele>89.96933165533</ele>
        <time>2020-11-25T14:03:21.000+01:00</time>
      </trkpt>
      <trkpt lat="43.68665" lon="4.07743">
        <ele>89.954084331798</ele>
        <time>2020-11-25T14:03:22.000+01:00</time>
      </trkpt>
      <trkpt lat="43.68664" lon="4.07741">
        <ele>89.938863186675</ele>
        <time>2020-11-25T14:03:23.000+01:00</time>
      </trkpt>
      <trkpt lat="43.68663" lon="4.0774">
        <ele>89.923650971455</ele>
        <time>2020-11-25T14:03:24.000+01:00</time>
      </trkpt>
      <trkpt lat="43.68662" lon="4.07739">
        <ele>89.908448716471</ele>
        <time>2020-11-25T14:03:25.000+01:00</time>
      </trkpt>
      <trkpt lat="43.68661" lon="4.07738">
        <ele>89.893525556242</ele>
        <time>2020-11-25T14:03:26.000+01:00</time>
      </trkpt>
      <trkpt lat="43.6866" lon="4.07737">
        <ele>89.878647791489</ele>
        <time>2020-11-25T14:03:27.000+01:00</time>
      </trkpt>
      <trkpt lat="43.6866" lon="4.07736">
        <ele>89.863731577026</ele>
        <time>2020-11-25T14:03:28.000+01:00</time>
      </trkpt>
      <trkpt lat="43.68659" lon="4.07735">
        <ele>89.848829856237</ele>
        <time>2020-11-25T14:03:29.000+01:00</time>
      </trkpt>
      <trkpt lat="43.68658" lon="4.07734">
        <ele>89.834007571629</ele>
        <time>2020-11-25T14:03:30.000+01:00</time>
      </trkpt>
      <trkpt lat="43.68657" lon="4.07733">
        <ele>89.819203837183</ele>
        <time>2020-11-25T14:03:31.000+01:00</time>
      </trkpt>
      <trkpt lat="43.68656" lon="4.07731">
        <ele>89.804600053072</ele>
        <time>2020-11-25T14:03:32.000+01:00</time>
      </trkpt>
      <trkpt lat="43.68655" lon="4.0773">
        <ele>89.790105803275</ele>
        <time>2020-11-25T14:03:33.000+01:00</time>
      </trkpt>
      <trkpt lat="43.68654" lon="4.07729">
        <ele>89.775726209789</ele>
        <time>2020-11-25T14:03:34.000+01:00</time>
      </trkpt>
      <trkpt lat="43.68653" lon="4.07727">
        <ele>89.761620708872</ele>
        <time>2020-11-25T14:03:35.000+01:00</time>
      </trkpt>
      <trkpt lat="43.68652" lon="4.07726">
        <ele>89.747741747753</ele>
        <time>2020-11-25T14:03:36.000+01:00</time>
      </trkpt>
      <trkpt lat="43.68652" lon="4.07726">
        <ele>89.734011218904</ele>
        <time>2020-11-25T14:03:37.000+01:00</time>
      </trkpt>
      <trkpt lat="43.68651" lon="4.07725">
        <ele>89.7204418769</ele>
        <time>2020-11-25T14:03:38.000+01:00</time>
      </trkpt>
      <trkpt lat="43.6865" lon="4.07724">
        <ele>89.706954559235</ele>
        <time>2020-11-25T14:03:39.000+01:00</time>
      </trkpt>
      <trkpt lat="43.6865" lon="4.07722">
        <ele>89.693659652856</ele>
        <time>2020-11-25T14:03:40.000+01:00</time>
      </trkpt>
      <trkpt lat="43.68649" lon="4.07722">
        <ele>89.680479323186</ele>
        <time>2020-11-25T14:03:41.000+01:00</time>
      </trkpt>
      <trkpt lat="43.68648" lon="4.07721">
        <ele>89.667562863945</ele>
        <time>2020-11-25T14:03:42.000+01:00</time>
      </trkpt>
      <trkpt lat="43.68648" lon="4.0772">
        <ele>89.654963043885</ele>
        <time>2020-11-25T14:03:43.000+01:00</time>
      </trkpt>
      <trkpt lat="43.68647" lon="4.07718">
        <ele>89.642648032694</ele>
        <time>2020-11-25T14:03:44.000+01:00</time>
      </trkpt>
      <trkpt lat="43.68646" lon="4.07716">
        <ele>89.630623773098</ele>
        <time>2020-11-25T14:03:45.000+01:00</time>
      </trkpt>
      <trkpt lat="43.68646" lon="4.07716">
        <ele>89.618306626734</ele>
        <time>2020-11-25T14:03:46.000+01:00</time>
      </trkpt>
      <trkpt lat="43.68646" lon="4.07715">
        <ele>89.605867551061</ele>
        <time>2020-11-25T14:03:47.000+01:00</time>
      </trkpt>
      <trkpt lat="43.68645" lon="4.07714">
        <ele>89.593668453594</ele>
        <time>2020-11-25T14:03:48.000+01:00</time>
      </trkpt>
      <trkpt lat="43.68645" lon="4.07713">
        <ele>89.58157264321</ele>
        <time>2020-11-25T14:03:49.000+01:00</time>
      </trkpt>
      <trkpt lat="43.68645" lon="4.07712">
        <ele>89.569689938048</ele>
        <time>2020-11-25T14:03:50.000+01:00</time>
      </trkpt>
      <trkpt lat="43.68644" lon="4.0771">
        <ele>89.557876865814</ele>
        <time>2020-11-25T14:03:51.000+01:00</time>
      </trkpt>
      <trkpt lat="43.68644" lon="4.07709">
        <ele>89.546330250805</ele>
        <time>2020-11-25T14:03:52.000+01:00</time>
      </trkpt>
      <trkpt lat="43.68643" lon="4.07707">
        <ele>89.534791586224</ele>
        <time>2020-11-25T14:03:53.000+01:00</time>
      </trkpt>
      <trkpt lat="43.68642" lon="4.07705">
        <ele>89.52349913992</ele>
        <time>2020-11-25T14:03:54.000+01:00</time>
      </trkpt>
      <trkpt lat="43.68641" lon="4.07703">
        <ele>89.512413404955</ele>
        <time>2020-11-25T14:03:55.000+01:00</time>
      </trkpt>
      <trkpt lat="43.6864" lon="4.07701">
        <ele>89.501510991042</ele>
        <time>2020-11-25T14:03:56.000+01:00</time>
      </trkpt>
      <trkpt lat="43.68639" lon="4.077">
        <ele>89.490637227708</ele>
        <time>2020-11-25T14:03:57.000+01:00</time>
      </trkpt>
      <trkpt lat="43.68639" lon="4.07698">
        <ele>89.479974070361</ele>
        <time>2020-11-25T14:03:58.000+01:00</time>
      </trkpt>
      <trkpt lat="43.68639" lon="4.07695">
        <ele>89.469197888446</ele>
        <time>2020-11-25T14:03:59.000+01:00</time>
      </trkpt>
      <trkpt lat="43.68638" lon="4.07694">
        <ele>89.458559888817</ele>
        <time>2020-11-25T14:04:00.000+01:00</time>
      </trkpt>
      <trkpt lat="43.68638" lon="4.07692">
        <ele>89.448168684014</ele>
        <time>2020-11-25T14:04:01.000+01:00</time>
      </trkpt>
      <trkpt lat="43.68638" lon="4.0769">
        <ele>89.438095119171</ele>
        <time>2020-11-25T14:04:02.000+01:00</time>
      </trkpt>
      <trkpt lat="43.68637" lon="4.07688">
        <ele>89.427960676424</ele>
        <time>2020-11-25T14:04:03.000+01:00</time>
      </trkpt>
      <trkpt lat="43.68637" lon="4.07686">
        <ele>89.417786916983</ele>
        <time>2020-11-25T14:04:04.000+01:00</time>
      </trkpt>
      <trkpt lat="43.68636" lon="4.07684">
        <ele>89.407481919725</ele>
        <time>2020-11-25T14:04:05.000+01:00</time>
      </trkpt>
      <trkpt lat="43.68636" lon="4.07682">
        <ele>89.397128741607</ele>
        <time>2020-11-25T14:04:06.000+01:00</time>
      </trkpt>
      <trkpt lat="43.68635" lon="4.07681">
        <ele>89.386807862701</ele>
        <time>2020-11-25T14:04:07.000+01:00</time>
      </trkpt>
      <trkpt lat="43.68635" lon="4.07679">
        <ele>89.376190579824</ele>
        <time>2020-11-25T14:04:08.000+01:00</time>
      </trkpt>
      <trkpt lat="43.68635" lon="4.07678">
        <ele>89.365535344494</ele>
        <time>2020-11-25T14:04:09.000+01:00</time>
      </trkpt>
      <trkpt lat="43.68635" lon="4.07676">
        <ele>89.354796497749</ele>
        <time>2020-11-25T14:04:10.000+01:00</time>
      </trkpt>
      <trkpt lat="43.68634" lon="4.07675">
        <ele>89.344147640424</ele>
        <time>2020-11-25T14:04:11.000+01:00</time>
      </trkpt>
      <trkpt lat="43.68633" lon="4.07674">
        <ele>89.333840788957</ele>
        <time>2020-11-25T14:04:12.000+01:00</time>
      </trkpt>
      <trkpt lat="43.68633" lon="4.07673">
        <ele>89.323782600903</ele>
        <time>2020-11-25T14:04:13.000+01:00</time>
      </trkpt>
      <trkpt lat="43.68633" lon="4.07672">
        <ele>89.313816195224</ele>
        <time>2020-11-25T14:04:14.000+01:00</time>
      </trkpt>
      <trkpt lat="43.68633" lon="4.07671">
        <ele>89.303936574912</ele>
        <time>2020-11-25T14:04:15.000+01:00</time>
      </trkpt>
      <trkpt lat="43.68632" lon="4.07669">
        <ele>89.294289841036</ele>
        <time>2020-11-25T14:04:16.000+01:00</time>
      </trkpt>
      <trkpt lat="43.68631" lon="4.07668">
        <ele>89.28488403937</ele>
        <time>2020-11-25T14:04:17.000+01:00</time>
      </trkpt>
      <trkpt lat="43.6863" lon="4.07666">
        <ele>89.275738321416</ele>
        <time>2020-11-25T14:04:18.000+01:00</time>
      </trkpt>
      <trkpt lat="43.6863" lon="4.07665">
        <ele>89.266690933067</ele>
        <time>2020-11-25T14:04:19.000+01:00</time>
      </trkpt>
      <trkpt lat="43.68629" lon="4.07663">
        <ele>89.257790223626</ele>
        <time>2020-11-25T14:04:20.000+01:00</time>
      </trkpt>
      <trkpt lat="43.6863" lon="4.07662">
        <ele>89.249051103367</ele>
        <time>2020-11-25T14:04:21.000+01:00</time>
      </trkpt>
      <trkpt lat="43.6863" lon="4.07661">
        <ele>89.240374759329</ele>
        <time>2020-11-25T14:04:22.000+01:00</time>
      </trkpt>
      <trkpt lat="43.6863" lon="4.07659">
        <ele>89.231766652192</ele>
        <time>2020-11-25T14:04:23.000+01:00</time>
      </trkpt>
      <trkpt lat="43.6863" lon="4.07658">
        <ele>89.223233408011</ele>
        <time>2020-11-25T14:04:24.000+01:00</time>
      </trkpt>
      <trkpt lat="43.68629" lon="4.07656">
        <ele>89.214921256091</ele>
        <time>2020-11-25T14:04:25.000+01:00</time>
      </trkpt>
      <trkpt lat="43.68629" lon="4.07655">
        <ele>89.206691285159</ele>
        <time>2020-11-25T14:04:26.000+01:00</time>
      </trkpt>
      <trkpt lat="43.68628" lon="4.07654">
        <ele>89.198582881869</ele>
        <time>2020-11-25T14:04:27.000+01:00</time>
      </trkpt>
      <trkpt lat="43.68628" lon="4.07652">
        <ele>89.190623514416</ele>
        <time>2020-11-25T14:04:28.000+01:00</time>
      </trkpt>
      <trkpt lat="43.68628" lon="4.07651">
        <ele>89.182636151902</ele>
        <time>2020-11-25T14:04:29.000+01:00</time>
      </trkpt>
      <trkpt lat="43.68627" lon="4.0765">
        <ele>89.174668436378</ele>
        <time>2020-11-25T14:04:30.000+01:00</time>
      </trkpt>
      <trkpt lat="43.68627" lon="4.07649">
        <ele>89.166522778953</ele>
        <time>2020-11-25T14:04:31.000+01:00</time>
      </trkpt>
      <trkpt lat="43.68626" lon="4.07648">
        <ele>89.15819989776</ele>
        <time>2020-11-25T14:04:32.000+01:00</time>
      </trkpt>
      <trkpt lat="43.68626" lon="4.07647">
        <ele>89.149828105145</ele>
        <time>2020-11-25T14:04:33.000+01:00</time>
      </trkpt>
      <trkpt lat="43.68626" lon="4.07647">
        <ele>89.141347846979</ele>
        <time>2020-11-25T14:04:34.000+01:00</time>
      </trkpt>
      <trkpt lat="43.68626" lon="4.07645">
        <ele>89.13265016453</ele>
        <time>2020-11-25T14:04:35.000+01:00</time>
      </trkpt>
      <trkpt lat="43.68625" lon="4.07644">
        <ele>89.123954022646</ele>
        <time>2020-11-25T14:04:36.000+01:00</time>
      </trkpt>
      <trkpt lat="43.68625" lon="4.07642">
        <ele>89.11523475119</ele>
        <time>2020-11-25T14:04:37.000+01:00</time>
      </trkpt>
      <trkpt lat="43.68625" lon="4.07641">
        <ele>89.106726206033</ele>
        <time>2020-11-25T14:04:38.000+01:00</time>
      </trkpt>
      <trkpt lat="43.68624" lon="4.07639">
        <ele>89.098396642143</ele>
        <time>2020-11-25T14:04:39.000+01:00</time>
      </trkpt>
      <trkpt lat="43.68624" lon="4.07638">
        <ele>89.090256803064</ele>
        <time>2020-11-25T14:04:40.000+01:00</time>
      </trkpt>
      <trkpt lat="43.68624" lon="4.07637">
        <ele>89.082263299903</ele>
        <time>2020-11-25T14:04:41.000+01:00</time>
      </trkpt>
      <trkpt lat="43.68624" lon="4.07635">
        <ele>89.074343370118</ele>
        <time>2020-11-25T14:04:42.000+01:00</time>
      </trkpt>
      <trkpt lat="43.68624" lon="4.07633">
        <ele>89.066668123745</ele>
        <time>2020-11-25T14:04:43.000+01:00</time>
      </trkpt>
      <trkpt lat="43.68624" lon="4.07632">
        <ele>89.059188600058</ele>
        <time>2020-11-25T14:04:44.000+01:00</time>
      </trkpt>
      <trkpt lat="43.68624" lon="4.0763">
        <ele>89.051638776934</ele>
        <time>2020-11-25T14:04:45.000+01:00</time>
      </trkpt>
      <trkpt lat="43.68624" lon="4.07628">
        <ele>89.044129399603</ele>
        <time>2020-11-25T14:04:46.000+01:00</time>
      </trkpt>
      <trkpt lat="43.68623" lon="4.07627">
        <ele>89.036735535973</ele>
        <time>2020-11-25T14:04:47.000+01:00</time>
      </trkpt>
      <trkpt lat="43.68623" lon="4.07625">
        <ele>89.029373072236</ele>
        <time>2020-11-25T14:04:48.000+01:00</time>
      </trkpt>
      <trkpt lat="43.68622" lon="4.07625">
        <ele>89.022143348586</ele>
        <time>2020-11-25T14:04:49.000+01:00</time>
      </trkpt>
      <trkpt lat="43.68622" lon="4.07624">
        <ele>89.014897826497</ele>
        <time>2020-11-25T14:04:50.000+01:00</time>
      </trkpt>
      <trkpt lat="43.68621" lon="4.07623">
        <ele>89.007530350542</ele>
        <time>2020-11-25T14:04:51.000+01:00</time>
      </trkpt>
      <trkpt lat="43.68621" lon="4.07622">
        <ele>89.000036095209</ele>
        <time>2020-11-25T14:04:52.000+01:00</time>
      </trkpt>
      <trkpt lat="43.6862" lon="4.0762">
        <ele>88.992311611356</ele>
        <time>2020-11-25T14:04:53.000+01:00</time>
      </trkpt>
      <trkpt lat="43.68619" lon="4.07619">
        <ele>88.984507065005</ele>
        <time>2020-11-25T14:04:54.000+01:00</time>
      </trkpt>
      <trkpt lat="43.68619" lon="4.07617">
        <ele>88.976404766576</ele>
        <time>2020-11-25T14:04:55.000+01:00</time>
      </trkpt>
      <trkpt lat="43.68619" lon="4.07616">
        <ele>88.968324255455</ele>
        <time>2020-11-25T14:04:56.000+01:00</time>
      </trkpt>
      <trkpt lat="43.68618" lon="4.07615">
        <ele>88.96001426785</ele>
        <time>2020-11-25T14:04:57.000+01:00</time>
      </trkpt>
      <trkpt lat="43.68618" lon="4.07614">
        <ele>88.951307995968</ele>
        <time>2020-11-25T14:04:58.000+01:00</time>
      </trkpt>
      <trkpt lat="43.68618" lon="4.07613">
        <ele>88.942698475849</ele>
        <time>2020-11-25T14:04:59.000+01:00</time>
      </trkpt>
      <trkpt lat="43.68618" lon="4.07611">
        <ele>88.934093895982</ele>
        <time>2020-11-25T14:05:00.000+01:00</time>
      </trkpt>
      <trkpt lat="43.68618" lon="4.0761">
        <ele>88.925396101055</ele>
        <time>2020-11-25T14:05:01.000+01:00</time>
      </trkpt>
      <trkpt lat="43.68619" lon="4.07608">
        <ele>88.916867279639</ele>
        <time>2020-11-25T14:05:02.000+01:00</time>
      </trkpt>
      <trkpt lat="43.68619" lon="4.07607">
        <ele>88.908343299626</ele>
        <time>2020-11-25T14:05:03.000+01:00</time>
      </trkpt>
      <trkpt lat="43.68619" lon="4.07605">
        <ele>88.899906577167</ele>
        <time>2020-11-25T14:05:04.000+01:00</time>
      </trkpt>
      <trkpt lat="43.68619" lon="4.07604">
        <ele>88.89175993727</ele>
        <time>2020-11-25T14:05:05.000+01:00</time>
      </trkpt>
      <trkpt lat="43.6862" lon="4.07603">
        <ele>88.883946177634</ele>
        <time>2020-11-25T14:05:06.000+01:00</time>
      </trkpt>
      <trkpt lat="43.6862" lon="4.07602">
        <ele>88.883178963875</ele>
        <time>2020-11-25T14:05:07.000+01:00</time>
      </trkpt>
      <trkpt lat="43.68621" lon="4.07603">
        <ele>88.882414583993</ele>
        <time>2020-11-25T14:05:08.000+01:00</time>
      </trkpt>
      <trkpt lat="43.68622" lon="4.07603">
        <ele>88.874806744861</ele>
        <time>2020-11-25T14:05:09.000+01:00</time>
      </trkpt>
      <trkpt lat="43.68623" lon="4.07603">
        <ele>88.867417995307</ele>
        <time>2020-11-25T14:05:10.000+01:00</time>
      </trkpt>
      <trkpt lat="43.68623" lon="4.07602">
        <ele>88.860289650666</ele>
        <time>2020-11-25T14:05:11.000+01:00</time>
      </trkpt>
      <trkpt lat="43.68623" lon="4.07602">
        <ele>88.853358296906</ele>
        <time>2020-11-25T14:05:12.000+01:00</time>
      </trkpt>
      <trkpt lat="43.68624" lon="4.07601">
        <ele>88.846549136327</ele>
        <time>2020-11-25T14:05:13.000+01:00</time>
      </trkpt>
      <trkpt lat="43.68624" lon="4.076">
        <ele>88.839788272544</ele>
        <time>2020-11-25T14:05:14.000+01:00</time>
      </trkpt>
      <trkpt lat="43.68625" lon="4.07599">
        <ele>88.832956365823</ele>
        <time>2020-11-25T14:05:15.000+01:00</time>
      </trkpt>
      <trkpt lat="43.68625" lon="4.07598">
        <ele>88.826023009246</ele>
        <time>2020-11-25T14:05:16.000+01:00</time>
      </trkpt>
      <trkpt lat="43.68626" lon="4.07596">
        <ele>88.819264573536</ele>
        <time>2020-11-25T14:05:17.000+01:00</time>
      </trkpt>
      <trkpt lat="43.68626" lon="4.07595">
        <ele>88.812809617394</ele>
        <time>2020-11-25T14:05:18.000+01:00</time>
      </trkpt>
      <trkpt lat="43.68627" lon="4.07593">
        <ele>88.806500289883</ele>
        <time>2020-11-25T14:05:19.000+01:00</time>
      </trkpt>
      <trkpt lat="43.68627" lon="4.07591">
        <ele>88.800390747108</ele>
        <time>2020-11-25T14:05:20.000+01:00</time>
      </trkpt>
      <trkpt lat="43.68627" lon="4.0759">
        <ele>88.794388469859</ele>
        <time>2020-11-25T14:05:21.000+01:00</time>
      </trkpt>
      <trkpt lat="43.68628" lon="4.07588">
        <ele>88.788426235908</ele>
        <time>2020-11-25T14:05:22.000+01:00</time>
      </trkpt>
      <trkpt lat="43.68628" lon="4.07586">
        <ele>88.782568370275</ele>
        <time>2020-11-25T14:05:23.000+01:00</time>
      </trkpt>
      <trkpt lat="43.68628" lon="4.07585">
        <ele>88.776680775128</ele>
        <time>2020-11-25T14:05:24.000+01:00</time>
      </trkpt>
      <trkpt lat="43.68628" lon="4.07583">
        <ele>88.770910157129</ele>
        <time>2020-11-25T14:05:25.000+01:00</time>
      </trkpt>
      <trkpt lat="43.68629" lon="4.07582">
        <ele>88.765152302238</ele>
        <time>2020-11-25T14:05:26.000+01:00</time>
      </trkpt>
      <trkpt lat="43.6863" lon="4.0758">
        <ele>88.759512948233</ele>
        <time>2020-11-25T14:05:27.000+01:00</time>
      </trkpt>
      <trkpt lat="43.6863" lon="4.07579">
        <ele>88.754062777926</ele>
        <time>2020-11-25T14:05:28.000+01:00</time>
      </trkpt>
      <trkpt lat="43.68631" lon="4.07578">
        <ele>88.748761062643</ele>
        <time>2020-11-25T14:05:29.000+01:00</time>
      </trkpt>
      <trkpt lat="43.68632" lon="4.07576">
        <ele>88.743475885299</ele>
        <time>2020-11-25T14:05:30.000+01:00</time>
      </trkpt>
      <trkpt lat="43.68632" lon="4.07575">
        <ele>88.738240729045</ele>
        <time>2020-11-25T14:05:31.000+01:00</time>
      </trkpt>
      <trkpt lat="43.68633" lon="4.07574">
        <ele>88.733101963316</ele>
        <time>2020-11-25T14:05:32.000+01:00</time>
      </trkpt>
      <trkpt lat="43.68634" lon="4.07573">
        <ele>88.728049051085</ele>
        <time>2020-11-25T14:05:33.000+01:00</time>
      </trkpt>
      <trkpt lat="43.68635" lon="4.07572">
        <ele>88.723170581174</ele>
        <time>2020-11-25T14:05:34.000+01:00</time>
      </trkpt>
      <trkpt lat="43.68636" lon="4.0757">
        <ele>88.718460991404</ele>
        <time>2020-11-25T14:05:35.000+01:00</time>
      </trkpt>
      <trkpt lat="43.68637" lon="4.07569">
        <ele>88.713828451351</ele>
        <time>2020-11-25T14:05:36.000+01:00</time>
      </trkpt>
      <trkpt lat="43.68638" lon="4.07568">
        <ele>88.709212742088</ele>
        <time>2020-11-25T14:05:37.000+01:00</time>
      </trkpt>
      <trkpt lat="43.68638" lon="4.07566">
        <ele>88.704481688591</ele>
        <time>2020-11-25T14:05:38.000+01:00</time>
      </trkpt>
      <trkpt lat="43.68639" lon="4.07565">
        <ele>88.69972291159</ele>
        <time>2020-11-25T14:05:39.000+01:00</time>
      </trkpt>
      <trkpt lat="43.68639" lon="4.07564">
        <ele>88.694998671855</ele>
        <time>2020-11-25T14:05:40.000+01:00</time>
      </trkpt>
      <trkpt lat="43.6864" lon="4.07562">
        <ele>88.690319093803</ele>
        <time>2020-11-25T14:05:41.000+01:00</time>
      </trkpt>
      <trkpt lat="43.6864" lon="4.07561">
        <ele>88.685728548564</ele>
        <time>2020-11-25T14:05:42.000+01:00</time>
      </trkpt>
      <trkpt lat="43.6864" lon="4.07559">
        <ele>88.681161899344</ele>
        <time>2020-11-25T14:05:43.000+01:00</time>
      </trkpt>
      <trkpt lat="43.68641" lon="4.07558">
        <ele>88.676576954002</ele>
        <time>2020-11-25T14:05:44.000+01:00</time>
      </trkpt>
      <trkpt lat="43.68642" lon="4.07558">
        <ele>88.672119493451</ele>
        <time>2020-11-25T14:05:45.000+01:00</time>
      </trkpt>
      <trkpt lat="43.68643" lon="4.07557">
        <ele>88.667778206656</ele>
        <time>2020-11-25T14:05:46.000+01:00</time>
      </trkpt>
      <trkpt lat="43.68644" lon="4.07556">
        <ele>88.663577763761</ele>
        <time>2020-11-25T14:05:47.000+01:00</time>
      </trkpt>
      <trkpt lat="43.68645" lon="4.07555">
        <ele>88.65963657903</ele>
        <time>2020-11-25T14:05:48.000+01:00</time>
      </trkpt>
      <trkpt lat="43.68646" lon="4.07553">
        <ele>88.655906828654</ele>
        <time>2020-11-25T14:05:49.000+01:00</time>
      </trkpt>
      <trkpt lat="43.68646" lon="4.07552">
        <ele>88.652450427927</ele>
        <time>2020-11-25T14:05:50.000+01:00</time>
      </trkpt>
      <trkpt lat="43.68647" lon="4.07551">
        <ele>88.64917582482</ele>
        <time>2020-11-25T14:05:51.000+01:00</time>
      </trkpt>
      <trkpt lat="43.68648" lon="4.0755">
        <ele>88.64606971517</ele>
        <time>2020-11-25T14:05:52.000+01:00</time>
      </trkpt>
      <trkpt lat="43.68649" lon="4.07549">
        <ele>88.643139694994</ele>
        <time>2020-11-25T14:05:53.000+01:00</time>
      </trkpt>
      <trkpt lat="43.68649" lon="4.07547">
        <ele>88.640326101518</ele>
        <time>2020-11-25T14:05:54.000+01:00</time>
      </trkpt>
      <trkpt lat="43.6865" lon="4.07546">
        <ele>88.637695562311</ele>
        <time>2020-11-25T14:05:55.000+01:00</time>
      </trkpt>
      <trkpt lat="43.6865" lon="4.07545">
        <ele>88.635261853842</ele>
        <time>2020-11-25T14:05:56.000+01:00</time>
      </trkpt>
      <trkpt lat="43.6865" lon="4.07546">
        <ele>88.633086411044</ele>
        <time>2020-11-25T14:05:57.000+01:00</time>
      </trkpt>
      <trkpt lat="43.68649" lon="4.07548">
        <ele>88.631232687498</ele>
        <time>2020-11-25T14:05:58.000+01:00</time>
      </trkpt>
      <trkpt lat="43.6865" lon="4.07547">
        <ele>88.629614222947</ele>
        <time>2020-11-25T14:05:59.000+01:00</time>
      </trkpt>
      <trkpt lat="43.68651" lon="4.07547">
        <ele>88.628224366003</ele>
        <time>2020-11-25T14:06:00.000+01:00</time>
      </trkpt>
      <trkpt lat="43.68652" lon="4.07547">
        <ele>88.627075911587</ele>
        <time>2020-11-25T14:06:01.000+01:00</time>
      </trkpt>
      <trkpt lat="43.68654" lon="4.0754">
        <ele>88.626159952144</ele>
        <time>2020-11-25T14:06:02.000+01:00</time>
      </trkpt>
      <trkpt lat="43.68656" lon="4.07537">
        <ele>88.624518808908</ele>
        <time>2020-11-25T14:06:03.000+01:00</time>
      </trkpt>
      <trkpt lat="43.68657" lon="4.07535">
        <ele>88.622242548144</ele>
        <time>2020-11-25T14:06:04.000+01:00</time>
      </trkpt>
      <trkpt lat="43.68658" lon="4.07533">
        <ele>88.619285328973</ele>
        <time>2020-11-25T14:06:05.000+01:00</time>
      </trkpt>
      <trkpt lat="43.68659" lon="4.0753">
        <ele>88.616958671609</ele>
        <time>2020-11-25T14:06:06.000+01:00</time>
      </trkpt>
      <trkpt lat="43.68659" lon="4.07529">
        <ele>88.6126781475</ele>
        <time>2020-11-25T14:06:07.000+01:00</time>
      </trkpt>
      <trkpt lat="43.68661" lon="4.07527">
        <ele>88.60773558346</ele>
        <time>2020-11-25T14:06:08.000+01:00</time>
      </trkpt>
      <trkpt lat="43.68662" lon="4.07526">
        <ele>88.601991036023</ele>
        <time>2020-11-25T14:06:09.000+01:00</time>
      </trkpt>
      <trkpt lat="43.68663" lon="4.07525">
        <ele>88.59552445871</ele>
        <time>2020-11-25T14:06:10.000+01:00</time>
      </trkpt>
      <trkpt lat="43.68662" lon="4.07522">
        <ele>88.586086759608</ele>
        <time>2020-11-25T14:06:11.000+01:00</time>
      </trkpt>
      <trkpt lat="43.68662" lon="4.0752">
        <ele>88.57444795822</ele>
        <time>2020-11-25T14:06:12.000+01:00</time>
      </trkpt>
      <trkpt lat="43.68661" lon="4.07518">
        <ele>88.560137027356</ele>
        <time>2020-11-25T14:06:13.000+01:00</time>
      </trkpt>
      <trkpt lat="43.68662" lon="4.07516">
        <ele>88.54440519206</ele>
        <time>2020-11-25T14:06:14.000+01:00</time>
      </trkpt>
      <trkpt lat="43.68663" lon="4.07516">
        <ele>88.528199934335</ele>
        <time>2020-11-25T14:06:15.000+01:00</time>
      </trkpt>
      <trkpt lat="43.68664" lon="4.07515">
        <ele>88.51184796632</ele>
        <time>2020-11-25T14:06:16.000+01:00</time>
      </trkpt>
      <trkpt lat="43.68664" lon="4.07513">
        <ele>88.495426763286</ele>
        <time>2020-11-25T14:06:17.000+01:00</time>
      </trkpt>
      <trkpt lat="43.68664" lon="4.0751">
        <ele>88.478268068912</ele>
        <time>2020-11-25T14:06:18.000+01:00</time>
      </trkpt>
      <trkpt lat="43.68665" lon="4.07508">
        <ele>88.460695661006</ele>
        <time>2020-11-25T14:06:19.000+01:00</time>
      </trkpt>
      <trkpt lat="43.68663" lon="4.07506">
        <ele>88.445057794176</ele>
        <time>2020-11-25T14:06:20.000+01:00</time>
      </trkpt>
      <trkpt lat="43.68664" lon="4.07505">
        <ele>88.429693745898</ele>
        <time>2020-11-25T14:06:21.000+01:00</time>
      </trkpt>
      <trkpt lat="43.68664" lon="4.07505">
        <ele>88.413245576469</ele>
        <time>2020-11-25T14:06:22.000+01:00</time>
      </trkpt>
      <trkpt lat="43.68665" lon="4.07504">
        <ele>88.395270979232</ele>
        <time>2020-11-25T14:06:23.000+01:00</time>
      </trkpt>
      <trkpt lat="43.68666" lon="4.07504">
        <ele>88.3761788581</ele>
        <time>2020-11-25T14:06:24.000+01:00</time>
      </trkpt>
      <trkpt lat="43.68667" lon="4.07504">
        <ele>88.355469476053</ele>
        <time>2020-11-25T14:06:25.000+01:00</time>
      </trkpt>
      <trkpt lat="43.68668" lon="4.07503">
        <ele>88.334670043363</ele>
        <time>2020-11-25T14:06:26.000+01:00</time>
      </trkpt>
      <trkpt lat="43.68668" lon="4.07503">
        <ele>88.313704926705</ele>
        <time>2020-11-25T14:06:27.000+01:00</time>
      </trkpt>
      <trkpt lat="43.68668" lon="4.07503">
        <ele>88.311616779761</ele>
        <time>2020-11-25T14:06:28.000+01:00</time>
      </trkpt>
      <trkpt lat="43.68668" lon="4.07504">
        <ele>88.309498860897</ele>
        <time>2020-11-25T14:06:29.000+01:00</time>
      </trkpt>
      <trkpt lat="43.68668" lon="4.07504">
        <ele>88.307309383661</ele>
        <time>2020-11-25T14:06:30.000+01:00</time>
      </trkpt>
      <trkpt lat="43.68668" lon="4.07504">
        <ele>88.28488748945</ele>
        <time>2020-11-25T14:06:31.000+01:00</time>
      </trkpt>
      <trkpt lat="43.68668" lon="4.07504">
        <ele>88.260291155081</ele>
        <time>2020-11-25T14:06:32.000+01:00</time>
      </trkpt>
      <trkpt lat="43.68668" lon="4.07503">
        <ele>88.257601084204</ele>
        <time>2020-11-25T14:06:33.000+01:00</time>
      </trkpt>
      <trkpt lat="43.68669" lon="4.07504">
        <ele>88.254609907891</ele>
        <time>2020-11-25T14:06:34.000+01:00</time>
      </trkpt>
      <trkpt lat="43.68669" lon="4.07504">
        <ele>88.251592506473</ele>
        <time>2020-11-25T14:06:35.000+01:00</time>
      </trkpt>
      <trkpt lat="43.68669" lon="4.07504">
        <ele>88.248429719206</ele>
        <time>2020-11-25T14:06:36.000+01:00</time>
      </trkpt>
      <trkpt lat="43.68669" lon="4.07504">
        <ele>88.245127889332</ele>
        <time>2020-11-25T14:06:37.000+01:00</time>
      </trkpt>
      <trkpt lat="43.68669" lon="4.07503">
        <ele>88.211075528972</ele>
        <time>2020-11-25T14:06:38.000+01:00</time>
      </trkpt>
      <trkpt lat="43.68669" lon="4.07503">
        <ele>88.207628781417</ele>
        <time>2020-11-25T14:06:39.000+01:00</time>
      </trkpt>
      <trkpt lat="43.68669" lon="4.07503">
        <ele>88.173620148353</ele>
        <time>2020-11-25T14:06:40.000+01:00</time>
      </trkpt>
      <trkpt lat="43.6867" lon="4.07502">
        <ele>88.140028137031</ele>
        <time>2020-11-25T14:06:41.000+01:00</time>
      </trkpt>
      <trkpt lat="43.6867" lon="4.07502">
        <ele>88.106751324944</ele>
        <time>2020-11-25T14:06:42.000+01:00</time>
      </trkpt>
      <trkpt lat="43.68671" lon="4.07501">
        <ele>88.074238211797</ele>
        <time>2020-11-25T14:06:43.000+01:00</time>
      </trkpt>
      <trkpt lat="43.68671" lon="4.075">
        <ele>88.042197191021</ele>
        <time>2020-11-25T14:06:44.000+01:00</time>
      </trkpt>
      <trkpt lat="43.68671" lon="4.07499">
        <ele>88.010691633096</ele>
        <time>2020-11-25T14:06:45.000+01:00</time>
      </trkpt>
      <trkpt lat="43.68672" lon="4.07497">
        <ele>87.980165884755</ele>
        <time>2020-11-25T14:06:46.000+01:00</time>
      </trkpt>
      <trkpt lat="43.68673" lon="4.07495">
        <ele>87.950911001523</ele>
        <time>2020-11-25T14:06:47.000+01:00</time>
      </trkpt>
      <trkpt lat="43.68674" lon="4.07494">
        <ele>87.922394480911</ele>
        <time>2020-11-25T14:06:48.000+01:00</time>
      </trkpt>
      <trkpt lat="43.68674" lon="4.07493">
        <ele>87.894354669964</ele>
        <time>2020-11-25T14:06:49.000+01:00</time>
      </trkpt>
      <trkpt lat="43.68675" lon="4.07492">
        <ele>87.866732747153</ele>
        <time>2020-11-25T14:06:50.000+01:00</time>
      </trkpt>
      <trkpt lat="43.68675" lon="4.07491">
        <ele>87.838962163504</ele>
        <time>2020-11-25T14:06:51.000+01:00</time>
      </trkpt>
      <trkpt lat="43.68676" lon="4.07491">
        <ele>87.836134979733</ele>
        <time>2020-11-25T14:06:52.000+01:00</time>
      </trkpt>
      <trkpt lat="43.68676" lon="4.07491">
        <ele>87.805695937384</ele>
        <time>2020-11-25T14:06:53.000+01:00</time>
      </trkpt>
      <trkpt lat="43.68676" lon="4.0749">
        <ele>87.774959394858</ele>
        <time>2020-11-25T14:06:54.000+01:00</time>
      </trkpt>
      <trkpt lat="43.68676" lon="4.0749">
        <ele>87.744711289781</ele>
        <time>2020-11-25T14:06:55.000+01:00</time>
      </trkpt>
      <trkpt lat="43.68677" lon="4.07489">
        <ele>87.714707816667</ele>
        <time>2020-11-25T14:06:56.000+01:00</time>
      </trkpt>
      <trkpt lat="43.68677" lon="4.07487">
        <ele>87.685583846905</ele>
        <time>2020-11-25T14:06:57.000+01:00</time>
      </trkpt>
      <trkpt lat="43.68677" lon="4.07486">
        <ele>87.657049383872</ele>
        <time>2020-11-25T14:06:58.000+01:00</time>
      </trkpt>
      <trkpt lat="43.68679" lon="4.07482">
        <ele>87.626183900172</ele>
        <time>2020-11-25T14:06:59.000+01:00</time>
      </trkpt>
      <trkpt lat="43.68679" lon="4.0748">
        <ele>87.595436544629</ele>
        <time>2020-11-25T14:07:00.000+01:00</time>
      </trkpt>
      <trkpt lat="43.68679" lon="4.07479">
        <ele>87.565228010061</ele>
        <time>2020-11-25T14:07:01.000+01:00</time>
      </trkpt>
      <trkpt lat="43.6868" lon="4.07477">
        <ele>87.534615898684</ele>
        <time>2020-11-25T14:07:02.000+01:00</time>
      </trkpt>
      <trkpt lat="43.6868" lon="4.07475">
        <ele>87.504806099541</ele>
        <time>2020-11-25T14:07:03.000+01:00</time>
      </trkpt>
      <trkpt lat="43.68681" lon="4.07474">
        <ele>87.475147462901</ele>
        <time>2020-11-25T14:07:04.000+01:00</time>
      </trkpt>
      <trkpt lat="43.68681" lon="4.07474">
        <ele>87.445388387631</ele>
        <time>2020-11-25T14:07:05.000+01:00</time>
      </trkpt>
      <trkpt lat="43.68682" lon="4.07473">
        <ele>87.415100509013</ele>
        <time>2020-11-25T14:07:06.000+01:00</time>
      </trkpt>
      <trkpt lat="43.68683" lon="4.07471">
        <ele>87.382805515609</ele>
        <time>2020-11-25T14:07:07.000+01:00</time>
      </trkpt>
      <trkpt lat="43.68683" lon="4.07471">
        <ele>87.348524859732</ele>
        <time>2020-11-25T14:07:08.000+01:00</time>
      </trkpt>
      <trkpt lat="43.68684" lon="4.07471">
        <ele>87.313076457197</ele>
        <time>2020-11-25T14:07:09.000+01:00</time>
      </trkpt>
      <trkpt lat="43.68685" lon="4.0747">
        <ele>87.277208273369</ele>
        <time>2020-11-25T14:07:10.000+01:00</time>
      </trkpt>
      <trkpt lat="43.68685" lon="4.0747">
        <ele>87.240717799338</ele>
        <time>2020-11-25T14:07:11.000+01:00</time>
      </trkpt>
      <trkpt lat="43.68686" lon="4.07469">
        <ele>87.203099541944</ele>
        <time>2020-11-25T14:07:12.000+01:00</time>
      </trkpt>
      <trkpt lat="43.68687" lon="4.07469">
        <ele>87.164539552612</ele>
        <time>2020-11-25T14:07:13.000+01:00</time>
      </trkpt>
      <trkpt lat="43.68688" lon="4.07469">
        <ele>87.124883852158</ele>
        <time>2020-11-25T14:07:14.000+01:00</time>
      </trkpt>
      <trkpt lat="43.68689" lon="4.07468">
        <ele>87.083786922224</ele>
        <time>2020-11-25T14:07:15.000+01:00</time>
      </trkpt>
      <trkpt lat="43.68689" lon="4.07468">
        <ele>87.041960661443</ele>
        <time>2020-11-25T14:07:16.000+01:00</time>
      </trkpt>
      <trkpt lat="43.6869" lon="4.07467">
        <ele>86.999827368677</ele>
        <time>2020-11-25T14:07:17.000+01:00</time>
      </trkpt>
      <trkpt lat="43.68691" lon="4.07467">
        <ele>86.957100926108</ele>
        <time>2020-11-25T14:07:18.000+01:00</time>
      </trkpt>
      <trkpt lat="43.68692" lon="4.07466">
        <ele>86.914471470262</ele>
        <time>2020-11-25T14:07:19.000+01:00</time>
      </trkpt>
      <trkpt lat="43.68692" lon="4.07465">
        <ele>86.871541513814</ele>
        <time>2020-11-25T14:07:20.000+01:00</time>
      </trkpt>
      <trkpt lat="43.68694" lon="4.07464">
        <ele>86.828548044357</ele>
        <time>2020-11-25T14:07:21.000+01:00</time>
      </trkpt>
      <trkpt lat="43.68695" lon="4.07463">
        <ele>86.784110698859</ele>
        <time>2020-11-25T14:07:22.000+01:00</time>
      </trkpt>
      <trkpt lat="43.68696" lon="4.07463">
        <ele>86.738202582806</ele>
        <time>2020-11-25T14:07:23.000+01:00</time>
      </trkpt>
      <trkpt lat="43.68697" lon="4.07462">
        <ele>86.691920307066</ele>
        <time>2020-11-25T14:07:24.000+01:00</time>
      </trkpt>
      <trkpt lat="43.68698" lon="4.07461">
        <ele>86.644708413938</ele>
        <time>2020-11-25T14:07:25.000+01:00</time>
      </trkpt>
      <trkpt lat="43.68699" lon="4.0746">
        <ele>86.598982631571</ele>
        <time>2020-11-25T14:07:26.000+01:00</time>
      </trkpt>
      <trkpt lat="43.687" lon="4.0746">
        <ele>86.552728328087</ele>
        <time>2020-11-25T14:07:27.000+01:00</time>
      </trkpt>
      <trkpt lat="43.68701" lon="4.07459">
        <ele>86.506204596627</ele>
        <time>2020-11-25T14:07:28.000+01:00</time>
      </trkpt>
      <trkpt lat="43.68702" lon="4.07459">
        <ele>86.459345395545</ele>
        <time>2020-11-25T14:07:29.000+01:00</time>
      </trkpt>
      <trkpt lat="43.68703" lon="4.07458">
        <ele>86.412111366097</ele>
        <time>2020-11-25T14:07:30.000+01:00</time>
      </trkpt>
      <trkpt lat="43.68704" lon="4.07458">
        <ele>86.364250187674</ele>
        <time>2020-11-25T14:07:31.000+01:00</time>
      </trkpt>
      <trkpt lat="43.68705" lon="4.07457">
        <ele>86.315358257751</ele>
        <time>2020-11-25T14:07:32.000+01:00</time>
      </trkpt>
      <trkpt lat="43.68707" lon="4.07456">
        <ele>86.266409962308</ele>
        <time>2020-11-25T14:07:33.000+01:00</time>
      </trkpt>
      <trkpt lat="43.68708" lon="4.07455">
        <ele>86.217250364747</ele>
        <time>2020-11-25T14:07:34.000+01:00</time>
      </trkpt>
      <trkpt lat="43.68709" lon="4.07454">
        <ele>86.167619555836</ele>
        <time>2020-11-25T14:07:35.000+01:00</time>
      </trkpt>
      <trkpt lat="43.6871" lon="4.07453">
        <ele>86.117306685938</ele>
        <time>2020-11-25T14:07:36.000+01:00</time>
      </trkpt>
      <trkpt lat="43.68711" lon="4.07452">
        <ele>86.067417936559</ele>
        <time>2020-11-25T14:07:37.000+01:00</time>
      </trkpt>
      <trkpt lat="43.68712" lon="4.07451">
        <ele>86.017990006738</ele>
        <time>2020-11-25T14:07:38.000+01:00</time>
      </trkpt>
      <trkpt lat="43.68712" lon="4.0745">
        <ele>85.968815870014</ele>
        <time>2020-11-25T14:07:39.000+01:00</time>
      </trkpt>
      <trkpt lat="43.68713" lon="4.07449">
        <ele>85.919649147299</ele>
        <time>2020-11-25T14:07:40.000+01:00</time>
      </trkpt>
      <trkpt lat="43.68713" lon="4.07449">
        <ele>85.870121674467</ele>
        <time>2020-11-25T14:07:41.000+01:00</time>
      </trkpt>
      <trkpt lat="43.68714" lon="4.07448">
        <ele>85.820365636505</ele>
        <time>2020-11-25T14:07:42.000+01:00</time>
      </trkpt>
      <trkpt lat="43.68715" lon="4.07448">
        <ele>85.770990509739</ele>
        <time>2020-11-25T14:07:43.000+01:00</time>
      </trkpt>
      <trkpt lat="43.68716" lon="4.07447">
        <ele>85.722394600848</ele>
        <time>2020-11-25T14:07:44.000+01:00</time>
      </trkpt>
      <trkpt lat="43.68717" lon="4.07447">
        <ele>85.674382369938</ele>
        <time>2020-11-25T14:07:45.000+01:00</time>
      </trkpt>
      <trkpt lat="43.68719" lon="4.07445">
        <ele>85.627394588742</ele>
        <time>2020-11-25T14:07:46.000+01:00</time>
      </trkpt>
      <trkpt lat="43.68719" lon="4.07445">
        <ele>85.580523081064</ele>
        <time>2020-11-25T14:07:47.000+01:00</time>
      </trkpt>
      <trkpt lat="43.68721" lon="4.07444">
        <ele>85.5337832304</ele>
        <time>2020-11-25T14:07:48.000+01:00</time>
      </trkpt>
      <trkpt lat="43.68723" lon="4.07443">
        <ele>85.486993028697</ele>
        <time>2020-11-25T14:07:49.000+01:00</time>
      </trkpt>
      <trkpt lat="43.68724" lon="4.07443">
        <ele>85.439819260309</ele>
        <time>2020-11-25T14:07:50.000+01:00</time>
      </trkpt>
      <trkpt lat="43.68725" lon="4.07442">
        <ele>85.391817673068</ele>
        <time>2020-11-25T14:07:51.000+01:00</time>
      </trkpt>
      <trkpt lat="43.68726" lon="4.07442">
        <ele>85.343513870856</ele>
        <time>2020-11-25T14:07:52.000+01:00</time>
      </trkpt>
      <trkpt lat="43.68728" lon="4.07441">
        <ele>85.29554264834</ele>
        <time>2020-11-25T14:07:53.000+01:00</time>
      </trkpt>
      <trkpt lat="43.68728" lon="4.07441">
        <ele>85.248921850537</ele>
        <time>2020-11-25T14:07:54.000+01:00</time>
      </trkpt>
      <trkpt lat="43.68729" lon="4.0744">
        <ele>85.20351305696</ele>
        <time>2020-11-25T14:07:55.000+01:00</time>
      </trkpt>
      <trkpt lat="43.68731" lon="4.0744">
        <ele>85.159761456519</ele>
        <time>2020-11-25T14:07:56.000+01:00</time>
      </trkpt>
      <trkpt lat="43.68732" lon="4.07439">
        <ele>85.117466743624</ele>
        <time>2020-11-25T14:07:57.000+01:00</time>
      </trkpt>
      <trkpt lat="43.68733" lon="4.07438">
        <ele>85.076403158032</ele>
        <time>2020-11-25T14:07:58.000+01:00</time>
      </trkpt>
      <trkpt lat="43.68734" lon="4.07438">
        <ele>85.036007959084</ele>
        <time>2020-11-25T14:07:59.000+01:00</time>
      </trkpt>
      <trkpt lat="43.68735" lon="4.07437">
        <ele>84.99639763013</ele>
        <time>2020-11-25T14:08:00.000+01:00</time>
      </trkpt>
      <trkpt lat="43.68736" lon="4.07437">
        <ele>84.957401707735</ele>
        <time>2020-11-25T14:08:01.000+01:00</time>
      </trkpt>
      <trkpt lat="43.68737" lon="4.07436">
        <ele>84.918839161321</ele>
        <time>2020-11-25T14:08:02.000+01:00</time>
      </trkpt>
      <trkpt lat="43.68738" lon="4.07435">
        <ele>84.880802654188</ele>
        <time>2020-11-25T14:08:03.000+01:00</time>
      </trkpt>
      <trkpt lat="43.68739" lon="4.07434">
        <ele>84.843388818013</ele>
        <time>2020-11-25T14:08:04.000+01:00</time>
      </trkpt>
      <trkpt lat="43.6874" lon="4.07433">
        <ele>84.806781216115</ele>
        <time>2020-11-25T14:08:05.000+01:00</time>
      </trkpt>
      <trkpt lat="43.68741" lon="4.07432">
        <ele>84.771164435726</ele>
        <time>2020-11-25T14:08:06.000+01:00</time>
      </trkpt>
      <trkpt lat="43.68742" lon="4.07431">
        <ele>84.735363514706</ele>
        <time>2020-11-25T14:08:07.000+01:00</time>
      </trkpt>
      <trkpt lat="43.68743" lon="4.07431">
        <ele>84.699913081703</ele>
        <time>2020-11-25T14:08:08.000+01:00</time>
      </trkpt>
      <trkpt lat="43.68745" lon="4.07429">
        <ele>84.665266907845</ele>
        <time>2020-11-25T14:08:09.000+01:00</time>
      </trkpt>
      <trkpt lat="43.68746" lon="4.07429">
        <ele>84.630896836601</ele>
        <time>2020-11-25T14:08:10.000+01:00</time>
      </trkpt>
      <trkpt lat="43.68748" lon="4.07429">
        <ele>84.596213192474</ele>
        <time>2020-11-25T14:08:11.000+01:00</time>
      </trkpt>
      <trkpt lat="43.68749" lon="4.07428">
        <ele>84.561959107329</ele>
        <time>2020-11-25T14:08:12.000+01:00</time>
      </trkpt>
      <trkpt lat="43.68751" lon="4.07428">
        <ele>84.527674866805</ele>
        <time>2020-11-25T14:08:13.000+01:00</time>
      </trkpt>
      <trkpt lat="43.68752" lon="4.07428">
        <ele>84.492530618314</ele>
        <time>2020-11-25T14:08:14.000+01:00</time>
      </trkpt>
      <trkpt lat="43.68753" lon="4.07428">
        <ele>84.456818520932</ele>
        <time>2020-11-25T14:08:15.000+01:00</time>
      </trkpt>
      <trkpt lat="43.68755" lon="4.07428">
        <ele>84.420632579525</ele>
        <time>2020-11-25T14:08:16.000+01:00</time>
      </trkpt>
      <trkpt lat="43.68756" lon="4.07428">
        <ele>84.383682855521</ele>
        <time>2020-11-25T14:08:17.000+01:00</time>
      </trkpt>
      <trkpt lat="43.68757" lon="4.07428">
        <ele>84.346016244356</ele>
        <time>2020-11-25T14:08:18.000+01:00</time>
      </trkpt>
      <trkpt lat="43.68758" lon="4.07428">
        <ele>84.307513221787</ele>
        <time>2020-11-25T14:08:19.000+01:00</time>
      </trkpt>
      <trkpt lat="43.68759" lon="4.07428">
        <ele>84.268704361668</ele>
        <time>2020-11-25T14:08:20.000+01:00</time>
      </trkpt>
      <trkpt lat="43.6876" lon="4.07428">
        <ele>84.229753579324</ele>
        <time>2020-11-25T14:08:21.000+01:00</time>
      </trkpt>
      <trkpt lat="43.68761" lon="4.07428">
        <ele>84.190575642153</ele>
        <time>2020-11-25T14:08:22.000+01:00</time>
      </trkpt>
      <trkpt lat="43.68762" lon="4.07428">
        <ele>84.151146604724</ele>
        <time>2020-11-25T14:08:23.000+01:00</time>
      </trkpt>
      <trkpt lat="43.68763" lon="4.07427">
        <ele>84.111559229526</ele>
        <time>2020-11-25T14:08:24.000+01:00</time>
      </trkpt>
      <trkpt lat="43.68764" lon="4.07427">
        <ele>84.072204056136</ele>
        <time>2020-11-25T14:08:25.000+01:00</time>
      </trkpt>
      <trkpt lat="43.68766" lon="4.07427">
        <ele>84.032674733449</ele>
        <time>2020-11-25T14:08:26.000+01:00</time>
      </trkpt>
      <trkpt lat="43.68768" lon="4.07426">
        <ele>83.993438143831</ele>
        <time>2020-11-25T14:08:27.000+01:00</time>
      </trkpt>
      <trkpt lat="43.68769" lon="4.07426">
        <ele>83.954219245687</ele>
        <time>2020-11-25T14:08:28.000+01:00</time>
      </trkpt>
      <trkpt lat="43.68769" lon="4.07426">
        <ele>83.914743453582</ele>
        <time>2020-11-25T14:08:29.000+01:00</time>
      </trkpt>
      <trkpt lat="43.6877" lon="4.07426">
        <ele>83.875309866671</ele>
        <time>2020-11-25T14:08:30.000+01:00</time>
      </trkpt>
      <trkpt lat="43.68771" lon="4.07426">
        <ele>83.835795566127</ele>
        <time>2020-11-25T14:08:31.000+01:00</time>
      </trkpt>
      <trkpt lat="43.68772" lon="4.07425">
        <ele>83.795788587598</ele>
        <time>2020-11-25T14:08:32.000+01:00</time>
      </trkpt>
      <trkpt lat="43.68774" lon="4.07425">
        <ele>83.755309550026</ele>
        <time>2020-11-25T14:08:33.000+01:00</time>
      </trkpt>
      <trkpt lat="43.68775" lon="4.07424">
        <ele>83.714391327198</ele>
        <time>2020-11-25T14:08:34.000+01:00</time>
      </trkpt>
      <trkpt lat="43.68776" lon="4.07424">
        <ele>83.672830528238</ele>
        <time>2020-11-25T14:08:35.000+01:00</time>
      </trkpt>
      <trkpt lat="43.68778" lon="4.07424">
        <ele>83.630540560784</ele>
        <time>2020-11-25T14:08:36.000+01:00</time>
      </trkpt>
      <trkpt lat="43.68779" lon="4.07424">
        <ele>83.58783120371</ele>
        <time>2020-11-25T14:08:37.000+01:00</time>
      </trkpt>
      <trkpt lat="43.6878" lon="4.07423">
        <ele>83.545163402257</ele>
        <time>2020-11-25T14:08:38.000+01:00</time>
      </trkpt>
      <trkpt lat="43.68781" lon="4.07423">
        <ele>83.502289306836</ele>
        <time>2020-11-25T14:08:39.000+01:00</time>
      </trkpt>
      <trkpt lat="43.68782" lon="4.07422">
        <ele>83.458947914239</ele>
        <time>2020-11-25T14:08:40.000+01:00</time>
      </trkpt>
      <trkpt lat="43.68783" lon="4.07421">
        <ele>83.415671962163</ele>
        <time>2020-11-25T14:08:41.000+01:00</time>
      </trkpt>
      <trkpt lat="43.68784" lon="4.07421">
        <ele>83.372376324493</ele>
        <time>2020-11-25T14:08:42.000+01:00</time>
      </trkpt>
      <trkpt lat="43.68785" lon="4.07421">
        <ele>83.328991820202</ele>
        <time>2020-11-25T14:08:43.000+01:00</time>
      </trkpt>
      <trkpt lat="43.68786" lon="4.0742">
        <ele>83.285427484143</ele>
        <time>2020-11-25T14:08:44.000+01:00</time>
      </trkpt>
      <trkpt lat="43.68787" lon="4.0742">
        <ele>83.241509827344</ele>
        <time>2020-11-25T14:08:45.000+01:00</time>
      </trkpt>
      <trkpt lat="43.68789" lon="4.0742">
        <ele>83.19716195648</ele>
        <time>2020-11-25T14:08:46.000+01:00</time>
      </trkpt>
      <trkpt lat="43.6879" lon="4.0742">
        <ele>83.152543504077</ele>
        <time>2020-11-25T14:08:47.000+01:00</time>
      </trkpt>
      <trkpt lat="43.6879" lon="4.0742">
        <ele>83.108112830961</ele>
        <time>2020-11-25T14:08:48.000+01:00</time>
      </trkpt>
      <trkpt lat="43.68791" lon="4.0742">
        <ele>83.063975954124</ele>
        <time>2020-11-25T14:08:49.000+01:00</time>
      </trkpt>
      <trkpt lat="43.68793" lon="4.07419">
        <ele>83.020123130495</ele>
        <time>2020-11-25T14:08:50.000+01:00</time>
      </trkpt>
      <trkpt lat="43.68794" lon="4.07418">
        <ele>82.976494442867</ele>
        <time>2020-11-25T14:08:51.000+01:00</time>
      </trkpt>
      <trkpt lat="43.68795" lon="4.07418">
        <ele>82.933109976979</ele>
        <time>2020-11-25T14:08:52.000+01:00</time>
      </trkpt>
      <trkpt lat="43.68795" lon="4.07418">
        <ele>82.889648248876</ele>
        <time>2020-11-25T14:08:53.000+01:00</time>
      </trkpt>
      <trkpt lat="43.68796" lon="4.07417">
        <ele>82.846582247798</ele>
        <time>2020-11-25T14:08:54.000+01:00</time>
      </trkpt>
      <trkpt lat="43.68797" lon="4.07416">
        <ele>82.804302169945</ele>
        <time>2020-11-25T14:08:55.000+01:00</time>
      </trkpt>
      <trkpt lat="43.68798" lon="4.07416">
        <ele>82.762979625749</ele>
        <time>2020-11-25T14:08:56.000+01:00</time>
      </trkpt>
      <trkpt lat="43.68799" lon="4.07415">
        <ele>82.722194527615</ele>
        <time>2020-11-25T14:08:57.000+01:00</time>
      </trkpt>
      <trkpt lat="43.688" lon="4.07415">
        <ele>82.682087043936</ele>
        <time>2020-11-25T14:08:58.000+01:00</time>
      </trkpt>
      <trkpt lat="43.688" lon="4.07414">
        <ele>82.642510302184</ele>
        <time>2020-11-25T14:08:59.000+01:00</time>
      </trkpt>
      <trkpt lat="43.68801" lon="4.07413">
        <ele>82.603384591181</ele>
        <time>2020-11-25T14:09:00.000+01:00</time>
      </trkpt>
      <trkpt lat="43.68802" lon="4.07412">
        <ele>82.564695384068</ele>
        <time>2020-11-25T14:09:01.000+01:00</time>
      </trkpt>
      <trkpt lat="43.68803" lon="4.07412">
        <ele>82.526634373915</ele>
        <time>2020-11-25T14:09:02.000+01:00</time>
      </trkpt>
      <trkpt lat="43.68804" lon="4.07412">
        <ele>82.489411788724</ele>
        <time>2020-11-25T14:09:03.000+01:00</time>
      </trkpt>
      <trkpt lat="43.68805" lon="4.07411">
        <ele>82.453931668495</ele>
        <time>2020-11-25T14:09:04.000+01:00</time>
      </trkpt>
      <trkpt lat="43.68806" lon="4.0741">
        <ele>82.42013252289</ele>
        <time>2020-11-25T14:09:05.000+01:00</time>
      </trkpt>
      <trkpt lat="43.68806" lon="4.0741">
        <ele>82.387085081545</ele>
        <time>2020-11-25T14:09:06.000+01:00</time>
      </trkpt>
      <trkpt lat="43.68807" lon="4.07409">
        <ele>82.355058625177</ele>
        <time>2020-11-25T14:09:07.000+01:00</time>
      </trkpt>
      <trkpt lat="43.68807" lon="4.07408">
        <ele>82.324104612971</ele>
        <time>2020-11-25T14:09:08.000+01:00</time>
      </trkpt>
      <trkpt lat="43.68808" lon="4.07408">
        <ele>82.293900224497</ele>
        <time>2020-11-25T14:09:09.000+01:00</time>
      </trkpt>
      <trkpt lat="43.68808" lon="4.07407">
        <ele>82.264143451477</ele>
        <time>2020-11-25T14:09:10.000+01:00</time>
      </trkpt>
      <trkpt lat="43.68809" lon="4.07407">
        <ele>82.234853677398</ele>
        <time>2020-11-25T14:09:11.000+01:00</time>
      </trkpt>
      <trkpt lat="43.6881" lon="4.07407">
        <ele>82.205947451651</ele>
        <time>2020-11-25T14:09:12.000+01:00</time>
      </trkpt>
      <trkpt lat="43.68811" lon="4.07406">
        <ele>82.177287848077</ele>
        <time>2020-11-25T14:09:13.000+01:00</time>
      </trkpt>
      <trkpt lat="43.68812" lon="4.07406">
        <ele>82.148280799045</ele>
        <time>2020-11-25T14:09:14.000+01:00</time>
      </trkpt>
      <trkpt lat="43.68813" lon="4.07405">
        <ele>82.118965844472</ele>
        <time>2020-11-25T14:09:15.000+01:00</time>
      </trkpt>
      <trkpt lat="43.68814" lon="4.07405">
        <ele>82.089739956281</ele>
        <time>2020-11-25T14:09:16.000+01:00</time>
      </trkpt>
      <trkpt lat="43.68815" lon="4.07404">
        <ele>82.060394297096</ele>
        <time>2020-11-25T14:09:17.000+01:00</time>
      </trkpt>
      <trkpt lat="43.68816" lon="4.07404">
        <ele>82.031058798012</ele>
        <time>2020-11-25T14:09:18.000+01:00</time>
      </trkpt>
      <trkpt lat="43.68818" lon="4.07403">
        <ele>82.002093942556</ele>
        <time>2020-11-25T14:09:19.000+01:00</time>
      </trkpt>
      <trkpt lat="43.68819" lon="4.07403">
        <ele>81.97288854785</ele>
        <time>2020-11-25T14:09:20.000+01:00</time>
      </trkpt>
      <trkpt lat="43.68821" lon="4.07402">
        <ele>81.944214026435</ele>
        <time>2020-11-25T14:09:21.000+01:00</time>
      </trkpt>
      <trkpt lat="43.68822" lon="4.07402">
        <ele>81.915627227374</ele>
        <time>2020-11-25T14:09:22.000+01:00</time>
      </trkpt>
      <trkpt lat="43.68823" lon="4.07402">
        <ele>81.887099681329</ele>
        <time>2020-11-25T14:09:23.000+01:00</time>
      </trkpt>
      <trkpt lat="43.68824" lon="4.07401">
        <ele>81.858648408072</ele>
        <time>2020-11-25T14:09:24.000+01:00</time>
      </trkpt>
      <trkpt lat="43.68824" lon="4.07401">
        <ele>81.830168372652</ele>
        <time>2020-11-25T14:09:25.000+01:00</time>
      </trkpt>
      <trkpt lat="43.68826" lon="4.074">
        <ele>81.801466411309</ele>
        <time>2020-11-25T14:09:26.000+01:00</time>
      </trkpt>
      <trkpt lat="43.68827" lon="4.074">
        <ele>81.773150057205</ele>
        <time>2020-11-25T14:09:27.000+01:00</time>
      </trkpt>
      <trkpt lat="43.68829" lon="4.07399">
        <ele>81.745965885557</ele>
        <time>2020-11-25T14:09:28.000+01:00</time>
      </trkpt>
      <trkpt lat="43.6883" lon="4.07398">
        <ele>81.718934553253</ele>
        <time>2020-11-25T14:09:29.000+01:00</time>
      </trkpt>
      <trkpt lat="43.68831" lon="4.07397">
        <ele>81.692059276903</ele>
        <time>2020-11-25T14:09:30.000+01:00</time>
      </trkpt>
      <trkpt lat="43.68833" lon="4.07396">
        <ele>81.665441859928</ele>
        <time>2020-11-25T14:09:31.000+01:00</time>
      </trkpt>
      <trkpt lat="43.68834" lon="4.07395">
        <ele>81.639233118439</ele>
        <time>2020-11-25T14:09:32.000+01:00</time>
      </trkpt>
      <trkpt lat="43.68835" lon="4.07395">
        <ele>81.613379958374</ele>
        <time>2020-11-25T14:09:33.000+01:00</time>
      </trkpt>
      <trkpt lat="43.68836" lon="4.07394">
        <ele>81.588143309662</ele>
        <time>2020-11-25T14:09:34.000+01:00</time>
      </trkpt>
      <trkpt lat="43.68837" lon="4.07394">
        <ele>81.563146950558</ele>
        <time>2020-11-25T14:09:35.000+01:00</time>
      </trkpt>
      <trkpt lat="43.68838" lon="4.07393">
        <ele>81.537968443166</ele>
        <time>2020-11-25T14:09:36.000+01:00</time>
      </trkpt>
      <trkpt lat="43.68839" lon="4.07392">
        <ele>81.512748261695</ele>
        <time>2020-11-25T14:09:37.000+01:00</time>
      </trkpt>
      <trkpt lat="43.68839" lon="4.07392">
        <ele>81.487462600476</ele>
        <time>2020-11-25T14:09:38.000+01:00</time>
      </trkpt>
      <trkpt lat="43.68841" lon="4.07391">
        <ele>81.46242069272</ele>
        <time>2020-11-25T14:09:39.000+01:00</time>
      </trkpt>
      <trkpt lat="43.68842" lon="4.0739">
        <ele>81.437470539081</ele>
        <time>2020-11-25T14:09:40.000+01:00</time>
      </trkpt>
      <trkpt lat="43.68842" lon="4.07389">
        <ele>81.41260828472</ele>
        <time>2020-11-25T14:09:41.000+01:00</time>
      </trkpt>
      <trkpt lat="43.68843" lon="4.07388">
        <ele>81.388008841619</ele>
        <time>2020-11-25T14:09:42.000+01:00</time>
      </trkpt>
      <trkpt lat="43.68844" lon="4.07387">
        <ele>81.364005040724</ele>
        <time>2020-11-25T14:09:43.000+01:00</time>
      </trkpt>
      <trkpt lat="43.68845" lon="4.07386">
        <ele>81.34052940998</ele>
        <time>2020-11-25T14:09:44.000+01:00</time>
      </trkpt>
      <trkpt lat="43.68846" lon="4.07385">
        <ele>81.316945970083</ele>
        <time>2020-11-25T14:09:45.000+01:00</time>
      </trkpt>
      <trkpt lat="43.68847" lon="4.07385">
        <ele>81.293622063719</ele>
        <time>2020-11-25T14:09:46.000+01:00</time>
      </trkpt>
      <trkpt lat="43.68847" lon="4.07384">
        <ele>81.270404425908</ele>
        <time>2020-11-25T14:09:47.000+01:00</time>
      </trkpt>
      <trkpt lat="43.68848" lon="4.07384">
        <ele>81.247273569209</ele>
        <time>2020-11-25T14:09:48.000+01:00</time>
      </trkpt>
      <trkpt lat="43.68849" lon="4.07383">
        <ele>81.224436350917</ele>
        <time>2020-11-25T14:09:49.000+01:00</time>
      </trkpt>
      <trkpt lat="43.6885" lon="4.07383">
        <ele>81.201648465984</ele>
        <time>2020-11-25T14:09:50.000+01:00</time>
      </trkpt>
      <trkpt lat="43.68851" lon="4.07382">
        <ele>81.178593034305</ele>
        <time>2020-11-25T14:09:51.000+01:00</time>
      </trkpt>
      <trkpt lat="43.68853" lon="4.07381">
        <ele>81.155570882703</ele>
        <time>2020-11-25T14:09:52.000+01:00</time>
      </trkpt>
      <trkpt lat="43.68854" lon="4.0738">
        <ele>81.132282564893</ele>
        <time>2020-11-25T14:09:53.000+01:00</time>
      </trkpt>
      <trkpt lat="43.68855" lon="4.0738">
        <ele>81.10912296369</ele>
        <time>2020-11-25T14:09:54.000+01:00</time>
      </trkpt>
      <trkpt lat="43.68856" lon="4.07379">
        <ele>81.085740487035</ele>
        <time>2020-11-25T14:09:55.000+01:00</time>
      </trkpt>
      <trkpt lat="43.68857" lon="4.07378">
        <ele>81.062615999048</ele>
        <time>2020-11-25T14:09:56.000+01:00</time>
      </trkpt>
      <trkpt lat="43.68857" lon="4.07378">
        <ele>81.03942457882</ele>
        <time>2020-11-25T14:09:57.000+01:00</time>
      </trkpt>
      <trkpt lat="43.68858" lon="4.07377">
        <ele>81.016467944267</ele>
        <time>2020-11-25T14:09:58.000+01:00</time>
      </trkpt>
      <trkpt lat="43.68857" lon="4.07375">
        <ele>80.993642446931</ele>
        <time>2020-11-25T14:09:59.000+01:00</time>
      </trkpt>
      <trkpt lat="43.68858" lon="4.07374">
        <ele>80.97081122356</ele>
        <time>2020-11-25T14:10:00.000+01:00</time>
      </trkpt>
      <trkpt lat="43.68859" lon="4.07374">
        <ele>80.9482976024</ele>
        <time>2020-11-25T14:10:01.000+01:00</time>
      </trkpt>
      <trkpt lat="43.6886" lon="4.07373">
        <ele>80.925789525851</ele>
        <time>2020-11-25T14:10:02.000+01:00</time>
      </trkpt>
      <trkpt lat="43.68861" lon="4.07372">
        <ele>80.9036160205</ele>
        <time>2020-11-25T14:10:03.000+01:00</time>
      </trkpt>
      <trkpt lat="43.68862" lon="4.07372">
        <ele>80.881753434065</ele>
        <time>2020-11-25T14:10:04.000+01:00</time>
      </trkpt>
      <trkpt lat="43.68864" lon="4.07371">
        <ele>80.859890956358</ele>
        <time>2020-11-25T14:10:05.000+01:00</time>
      </trkpt>
      <trkpt lat="43.68866" lon="4.0737">
        <ele>80.838525542993</ele>
        <time>2020-11-25T14:10:06.000+01:00</time>
      </trkpt>
      <trkpt lat="43.68867" lon="4.07368">
        <ele>80.816834613838</ele>
        <time>2020-11-25T14:10:07.000+01:00</time>
      </trkpt>
      <trkpt lat="43.68867" lon="4.07367">
        <ele>80.795069037495</ele>
        <time>2020-11-25T14:10:08.000+01:00</time>
      </trkpt>
      <trkpt lat="43.68868" lon="4.07366">
        <ele>80.773336195613</ele>
        <time>2020-11-25T14:10:09.000+01:00</time>
      </trkpt>
      <trkpt lat="43.68869" lon="4.07365">
        <ele>80.751513283326</ele>
        <time>2020-11-25T14:10:10.000+01:00</time>
      </trkpt>
      <trkpt lat="43.68869" lon="4.07364">
        <ele>80.729686349344</ele>
        <time>2020-11-25T14:10:11.000+01:00</time>
      </trkpt>
      <trkpt lat="43.68868" lon="4.07361">
        <ele>80.707965632531</ele>
        <time>2020-11-25T14:10:12.000+01:00</time>
      </trkpt>
      <trkpt lat="43.68869" lon="4.0736">
        <ele>80.686321791767</ele>
        <time>2020-11-25T14:10:13.000+01:00</time>
      </trkpt>
      <trkpt lat="43.6887" lon="4.07359">
        <ele>80.664595271738</ele>
        <time>2020-11-25T14:10:14.000+01:00</time>
      </trkpt>
      <trkpt lat="43.68871" lon="4.07358">
        <ele>80.642571932783</ele>
        <time>2020-11-25T14:10:15.000+01:00</time>
      </trkpt>
      <trkpt lat="43.68872" lon="4.07357">
        <ele>80.620493975771</ele>
        <time>2020-11-25T14:10:16.000+01:00</time>
      </trkpt>
      <trkpt lat="43.68874" lon="4.07357">
        <ele>80.598364296163</ele>
        <time>2020-11-25T14:10:17.000+01:00</time>
      </trkpt>
      <trkpt lat="43.68875" lon="4.07356">
        <ele>80.57629893769</ele>
        <time>2020-11-25T14:10:18.000+01:00</time>
      </trkpt>
      <trkpt lat="43.68876" lon="4.07356">
        <ele>80.554511030255</ele>
        <time>2020-11-25T14:10:19.000+01:00</time>
      </trkpt>
      <trkpt lat="43.68877" lon="4.07355">
        <ele>80.533165424833</ele>
        <time>2020-11-25T14:10:20.000+01:00</time>
      </trkpt>
      <trkpt lat="43.68878" lon="4.07354">
        <ele>80.512025576525</ele>
        <time>2020-11-25T14:10:21.000+01:00</time>
      </trkpt>
      <trkpt lat="43.68878" lon="4.07354">
        <ele>80.491272851096</ele>
        <time>2020-11-25T14:10:22.000+01:00</time>
      </trkpt>
      <trkpt lat="43.68879" lon="4.07353">
        <ele>80.470976815682</ele>
        <time>2020-11-25T14:10:23.000+01:00</time>
      </trkpt>
      <trkpt lat="43.6888" lon="4.07353">
        <ele>80.450774070965</ele>
        <time>2020-11-25T14:10:24.000+01:00</time>
      </trkpt>
      <trkpt lat="43.68881" lon="4.07352">
        <ele>80.430716844447</ele>
        <time>2020-11-25T14:10:25.000+01:00</time>
      </trkpt>
      <trkpt lat="43.68881" lon="4.07352">
        <ele>80.41040186201</ele>
        <time>2020-11-25T14:10:26.000+01:00</time>
      </trkpt>
      <trkpt lat="43.68882" lon="4.07351">
        <ele>80.389554769074</ele>
        <time>2020-11-25T14:10:27.000+01:00</time>
      </trkpt>
      <trkpt lat="43.68883" lon="4.07351">
        <ele>80.368280031512</ele>
        <time>2020-11-25T14:10:28.000+01:00</time>
      </trkpt>
      <trkpt lat="43.68884" lon="4.0735">
        <ele>80.347094250217</ele>
        <time>2020-11-25T14:10:29.000+01:00</time>
      </trkpt>
      <trkpt lat="43.68885" lon="4.0735">
        <ele>80.32573102452</ele>
        <time>2020-11-25T14:10:30.000+01:00</time>
      </trkpt>
      <trkpt lat="43.68885" lon="4.07349">
        <ele>80.30419944382</ele>
        <time>2020-11-25T14:10:31.000+01:00</time>
      </trkpt>
      <trkpt lat="43.68887" lon="4.07349">
        <ele>80.28291438504</ele>
        <time>2020-11-25T14:10:32.000+01:00</time>
      </trkpt>
      <trkpt lat="43.68888" lon="4.07348">
        <ele>80.261481137</ele>
        <time>2020-11-25T14:10:33.000+01:00</time>
      </trkpt>
      <trkpt lat="43.68889" lon="4.07347">
        <ele>80.240298270101</ele>
        <time>2020-11-25T14:10:34.000+01:00</time>
      </trkpt>
      <trkpt lat="43.6889" lon="4.07347">
        <ele>80.219077468231</ele>
        <time>2020-11-25T14:10:35.000+01:00</time>
      </trkpt>
      <trkpt lat="43.68891" lon="4.07346">
        <ele>80.198010063719</ele>
        <time>2020-11-25T14:10:36.000+01:00</time>
      </trkpt>
      <trkpt lat="43.68892" lon="4.07345">
        <ele>80.177314409909</ele>
        <time>2020-11-25T14:10:37.000+01:00</time>
      </trkpt>
      <trkpt lat="43.68893" lon="4.07344">
        <ele>80.1569578982</ele>
        <time>2020-11-25T14:10:38.000+01:00</time>
      </trkpt>
      <trkpt lat="43.68894" lon="4.07344">
        <ele>80.137267958564</ele>
        <time>2020-11-25T14:10:39.000+01:00</time>
      </trkpt>
      <trkpt lat="43.68894" lon="4.07343">
        <ele>80.117723408847</ele>
        <time>2020-11-25T14:10:40.000+01:00</time>
      </trkpt>
      <trkpt lat="43.68895" lon="4.07342">
        <ele>80.098541125706</ele>
        <time>2020-11-25T14:10:41.000+01:00</time>
      </trkpt>
      <trkpt lat="43.68897" lon="4.07341">
        <ele>80.08001872539</ele>
        <time>2020-11-25T14:10:42.000+01:00</time>
      </trkpt>
      <trkpt lat="43.68898" lon="4.07339">
        <ele>80.062008591157</ele>
        <time>2020-11-25T14:10:43.000+01:00</time>
      </trkpt>
      <trkpt lat="43.689" lon="4.07339">
        <ele>80.044454062132</ele>
        <time>2020-11-25T14:10:44.000+01:00</time>
      </trkpt>
      <trkpt lat="43.68901" lon="4.07338">
        <ele>80.026934479682</ele>
        <time>2020-11-25T14:10:45.000+01:00</time>
      </trkpt>
      <trkpt lat="43.68902" lon="4.07338">
        <ele>80.00983701833</ele>
        <time>2020-11-25T14:10:46.000+01:00</time>
      </trkpt>
      <trkpt lat="43.68903" lon="4.07337">
        <ele>79.993399671998</ele>
        <time>2020-11-25T14:10:47.000+01:00</time>
      </trkpt>
      <trkpt lat="43.68904" lon="4.07337">
        <ele>79.977771084749</ele>
        <time>2020-11-25T14:10:48.000+01:00</time>
      </trkpt>
      <trkpt lat="43.68905" lon="4.07336">
        <ele>79.962952470289</ele>
        <time>2020-11-25T14:10:49.000+01:00</time>
      </trkpt>
      <trkpt lat="43.68907" lon="4.07335">
        <ele>79.948952491574</ele>
        <time>2020-11-25T14:10:50.000+01:00</time>
      </trkpt>
      <trkpt lat="43.68908" lon="4.07334">
        <ele>79.935783714923</ele>
        <time>2020-11-25T14:10:51.000+01:00</time>
      </trkpt>
      <trkpt lat="43.68909" lon="4.07334">
        <ele>79.922864701163</ele>
        <time>2020-11-25T14:10:52.000+01:00</time>
      </trkpt>
      <trkpt lat="43.6891" lon="4.07333">
        <ele>79.910103386961</ele>
        <time>2020-11-25T14:10:53.000+01:00</time>
      </trkpt>
      <trkpt lat="43.68911" lon="4.07333">
        <ele>79.897438554148</ele>
        <time>2020-11-25T14:10:54.000+01:00</time>
      </trkpt>
      <trkpt lat="43.68912" lon="4.07333">
        <ele>79.885031264062</ele>
        <time>2020-11-25T14:10:55.000+01:00</time>
      </trkpt>
      <trkpt lat="43.68913" lon="4.07332">
        <ele>79.872698903197</ele>
        <time>2020-11-25T14:10:56.000+01:00</time>
      </trkpt>
      <trkpt lat="43.68914" lon="4.07332">
        <ele>79.860610061629</ele>
        <time>2020-11-25T14:10:57.000+01:00</time>
      </trkpt>
      <trkpt lat="43.68915" lon="4.07331">
        <ele>79.848986290381</ele>
        <time>2020-11-25T14:10:58.000+01:00</time>
      </trkpt>
      <trkpt lat="43.68916" lon="4.07331">
        <ele>79.837402622706</ele>
        <time>2020-11-25T14:10:59.000+01:00</time>
      </trkpt>
      <trkpt lat="43.68917" lon="4.07331">
        <ele>79.825665199322</ele>
        <time>2020-11-25T14:11:00.000+01:00</time>
      </trkpt>
      <trkpt lat="43.68918" lon="4.0733">
        <ele>79.813687662023</ele>
        <time>2020-11-25T14:11:01.000+01:00</time>
      </trkpt>
      <trkpt lat="43.68919" lon="4.0733">
        <ele>79.801963255547</ele>
        <time>2020-11-25T14:11:02.000+01:00</time>
      </trkpt>
      <trkpt lat="43.6892" lon="4.07329">
        <ele>79.790182029714</ele>
        <time>2020-11-25T14:11:03.000+01:00</time>
      </trkpt>
      <trkpt lat="43.68922" lon="4.07329">
        <ele>79.77805513853</ele>
        <time>2020-11-25T14:11:04.000+01:00</time>
      </trkpt>
      <trkpt lat="43.68923" lon="4.07328">
        <ele>79.765868678891</ele>
        <time>2020-11-25T14:11:05.000+01:00</time>
      </trkpt>
      <trkpt lat="43.68924" lon="4.07328">
        <ele>79.753298732987</ele>
        <time>2020-11-25T14:11:06.000+01:00</time>
      </trkpt>
      <trkpt lat="43.68924" lon="4.07328">
        <ele>79.740401404633</ele>
        <time>2020-11-25T14:11:07.000+01:00</time>
      </trkpt>
      <trkpt lat="43.68925" lon="4.07327">
        <ele>79.727220310701</ele>
        <time>2020-11-25T14:11:08.000+01:00</time>
      </trkpt>
      <trkpt lat="43.68926" lon="4.07327">
        <ele>79.713840919435</ele>
        <time>2020-11-25T14:11:09.000+01:00</time>
      </trkpt>
      <trkpt lat="43.68927" lon="4.07326">
        <ele>79.700342401659</ele>
        <time>2020-11-25T14:11:10.000+01:00</time>
      </trkpt>
      <trkpt lat="43.68928" lon="4.07326">
        <ele>79.686812290821</ele>
        <time>2020-11-25T14:11:11.000+01:00</time>
      </trkpt>
      <trkpt lat="43.68929" lon="4.07326">
        <ele>79.673217629463</ele>
        <time>2020-11-25T14:11:12.000+01:00</time>
      </trkpt>
      <trkpt lat="43.6893" lon="4.07326">
        <ele>79.659806306735</ele>
        <time>2020-11-25T14:11:13.000+01:00</time>
      </trkpt>
      <trkpt lat="43.68931" lon="4.07325">
        <ele>79.646191527396</ele>
        <time>2020-11-25T14:11:14.000+01:00</time>
      </trkpt>
      <trkpt lat="43.68933" lon="4.07325">
        <ele>79.63307738195</ele>
        <time>2020-11-25T14:11:15.000+01:00</time>
      </trkpt>
      <trkpt lat="43.68934" lon="4.07324">
        <ele>79.620390855276</ele>
        <time>2020-11-25T14:11:16.000+01:00</time>
      </trkpt>
      <trkpt lat="43.68935" lon="4.07323">
        <ele>79.607766890414</ele>
        <time>2020-11-25T14:11:17.000+01:00</time>
      </trkpt>
      <trkpt lat="43.68936" lon="4.07322">
        <ele>79.595435414988</ele>
        <time>2020-11-25T14:11:18.000+01:00</time>
      </trkpt>
      <trkpt lat="43.68937" lon="4.07322">
        <ele>79.583039003911</ele>
        <time>2020-11-25T14:11:19.000+01:00</time>
      </trkpt>
      <trkpt lat="43.68938" lon="4.07321">
        <ele>79.57045413072</ele>
        <time>2020-11-25T14:11:20.000+01:00</time>
      </trkpt>
      <trkpt lat="43.6894" lon="4.07321">
        <ele>79.558175458167</ele>
        <time>2020-11-25T14:11:21.000+01:00</time>
      </trkpt>
      <trkpt lat="43.68941" lon="4.07321">
        <ele>79.545762601551</ele>
        <time>2020-11-25T14:11:22.000+01:00</time>
      </trkpt>
      <trkpt lat="43.68942" lon="4.07321">
        <ele>79.533283939632</ele>
        <time>2020-11-25T14:11:23.000+01:00</time>
      </trkpt>
      <trkpt lat="43.68943" lon="4.0732">
        <ele>79.520893359777</ele>
        <time>2020-11-25T14:11:24.000+01:00</time>
      </trkpt>
      <trkpt lat="43.68944" lon="4.0732">
        <ele>79.508810102723</ele>
        <time>2020-11-25T14:11:25.000+01:00</time>
      </trkpt>
      <trkpt lat="43.68945" lon="4.07319">
        <ele>79.496694178641</ele>
        <time>2020-11-25T14:11:26.000+01:00</time>
      </trkpt>
      <trkpt lat="43.68947" lon="4.07319">
        <ele>79.484498799586</ele>
        <time>2020-11-25T14:11:27.000+01:00</time>
      </trkpt>
      <trkpt lat="43.68948" lon="4.07319">
        <ele>79.472168932513</ele>
        <time>2020-11-25T14:11:28.000+01:00</time>
      </trkpt>
      <trkpt lat="43.6895" lon="4.07318">
        <ele>79.459821296244</ele>
        <time>2020-11-25T14:11:29.000+01:00</time>
      </trkpt>
      <trkpt lat="43.68951" lon="4.07318">
        <ele>79.44731454112</ele>
        <time>2020-11-25T14:11:30.000+01:00</time>
      </trkpt>
      <trkpt lat="43.68952" lon="4.07317">
        <ele>79.434656963906</ele>
        <time>2020-11-25T14:11:31.000+01:00</time>
      </trkpt>
      <trkpt lat="43.68953" lon="4.07317">
        <ele>79.422255230944</ele>
        <time>2020-11-25T14:11:32.000+01:00</time>
      </trkpt>
      <trkpt lat="43.68955" lon="4.07316">
        <ele>79.40974158968</ele>
        <time>2020-11-25T14:11:33.000+01:00</time>
      </trkpt>
      <trkpt lat="43.68956" lon="4.07316">
        <ele>79.397201680326</ele>
        <time>2020-11-25T14:11:34.000+01:00</time>
      </trkpt>
      <trkpt lat="43.68957" lon="4.07315">
        <ele>79.384611215528</ele>
        <time>2020-11-25T14:11:35.000+01:00</time>
      </trkpt>
      <trkpt lat="43.68958" lon="4.07315">
        <ele>79.37203592364</ele>
        <time>2020-11-25T14:11:36.000+01:00</time>
      </trkpt>
      <trkpt lat="43.68959" lon="4.07315">
        <ele>79.359540343896</ele>
        <time>2020-11-25T14:11:37.000+01:00</time>
      </trkpt>
      <trkpt lat="43.6896" lon="4.07314">
        <ele>79.346972805493</ele>
        <time>2020-11-25T14:11:38.000+01:00</time>
      </trkpt>
      <trkpt lat="43.68961" lon="4.07314">
        <ele>79.334536098246</ele>
        <time>2020-11-25T14:11:39.000+01:00</time>
      </trkpt>
      <trkpt lat="43.68962" lon="4.07314">
        <ele>79.322174948201</ele>
        <time>2020-11-25T14:11:40.000+01:00</time>
      </trkpt>
      <trkpt lat="43.68963" lon="4.07313">
        <ele>79.309857984008</ele>
        <time>2020-11-25T14:11:41.000+01:00</time>
      </trkpt>
      <trkpt lat="43.68964" lon="4.07313">
        <ele>79.29738197948</ele>
        <time>2020-11-25T14:11:42.000+01:00</time>
      </trkpt>
      <trkpt lat="43.68965" lon="4.07313">
        <ele>79.284799251316</ele>
        <time>2020-11-25T14:11:43.000+01:00</time>
      </trkpt>
      <trkpt lat="43.68966" lon="4.07313">
        <ele>79.272123764102</ele>
        <time>2020-11-25T14:11:44.000+01:00</time>
      </trkpt>
      <trkpt lat="43.68967" lon="4.07312">
        <ele>79.259676961935</ele>
        <time>2020-11-25T14:11:45.000+01:00</time>
      </trkpt>
      <trkpt lat="43.68967" lon="4.07312">
        <ele>79.247383875679</ele>
        <time>2020-11-25T14:11:46.000+01:00</time>
      </trkpt>
      <trkpt lat="43.68968" lon="4.07311">
        <ele>79.235218918408</ele>
        <time>2020-11-25T14:11:47.000+01:00</time>
      </trkpt>
      <trkpt lat="43.68969" lon="4.0731">
        <ele>79.223117117011</ele>
        <time>2020-11-25T14:11:48.000+01:00</time>
      </trkpt>
      <trkpt lat="43.68969" lon="4.07309">
        <ele>79.210909610728</ele>
        <time>2020-11-25T14:11:49.000+01:00</time>
      </trkpt>
      <trkpt lat="43.6897" lon="4.07309">
        <ele>79.198652716269</ele>
        <time>2020-11-25T14:11:50.000+01:00</time>
      </trkpt>
      <trkpt lat="43.68972" lon="4.07308">
        <ele>79.186545731421</ele>
        <time>2020-11-25T14:11:51.000+01:00</time>
      </trkpt>
      <trkpt lat="43.68972" lon="4.07307">
        <ele>79.174201107729</ele>
        <time>2020-11-25T14:11:52.000+01:00</time>
      </trkpt>
      <trkpt lat="43.68973" lon="4.07306">
        <ele>79.162248704064</ele>
        <time>2020-11-25T14:11:53.000+01:00</time>
      </trkpt>
      <trkpt lat="43.68974" lon="4.07306">
        <ele>79.150357882362</ele>
        <time>2020-11-25T14:11:54.000+01:00</time>
      </trkpt>
      <trkpt lat="43.68974" lon="4.07305">
        <ele>79.138608563503</ele>
        <time>2020-11-25T14:11:55.000+01:00</time>
      </trkpt>
      <trkpt lat="43.68975" lon="4.07304">
        <ele>79.126830130287</ele>
        <time>2020-11-25T14:11:56.000+01:00</time>
      </trkpt>
      <trkpt lat="43.68976" lon="4.07304">
        <ele>79.11503516894</ele>
        <time>2020-11-25T14:11:57.000+01:00</time>
      </trkpt>
      <trkpt lat="43.68977" lon="4.07303">
        <ele>79.103119496135</ele>
        <time>2020-11-25T14:11:58.000+01:00</time>
      </trkpt>
      <trkpt lat="43.68979" lon="4.07302">
        <ele>79.091142026363</ele>
        <time>2020-11-25T14:11:59.000+01:00</time>
      </trkpt>
      <trkpt lat="43.6898" lon="4.07302">
        <ele>79.079172317306</ele>
        <time>2020-11-25T14:12:00.000+01:00</time>
      </trkpt>
      <trkpt lat="43.68981" lon="4.07301">
        <ele>79.067209770649</ele>
        <time>2020-11-25T14:12:01.000+01:00</time>
      </trkpt>
      <trkpt lat="43.68982" lon="4.07301">
        <ele>79.05538270835</ele>
        <time>2020-11-25T14:12:02.000+01:00</time>
      </trkpt>
      <trkpt lat="43.68983" lon="4.073">
        <ele>79.043590030175</ele>
        <time>2020-11-25T14:12:03.000+01:00</time>
      </trkpt>
      <trkpt lat="43.68983" lon="4.073">
        <ele>79.03183161803</ele>
        <time>2020-11-25T14:12:04.000+01:00</time>
      </trkpt>
      <trkpt lat="43.68984" lon="4.07299">
        <ele>79.020447435138</ele>
        <time>2020-11-25T14:12:05.000+01:00</time>
      </trkpt>
      <trkpt lat="43.68985" lon="4.07298">
        <ele>79.009615632509</ele>
        <time>2020-11-25T14:12:06.000+01:00</time>
      </trkpt>
      <trkpt lat="43.68986" lon="4.07298">
        <ele>78.999284843007</ele>
        <time>2020-11-25T14:12:07.000+01:00</time>
      </trkpt>
      <trkpt lat="43.68986" lon="4.07298">
        <ele>78.989207206323</ele>
        <time>2020-11-25T14:12:08.000+01:00</time>
      </trkpt>
      <trkpt lat="43.68987" lon="4.07298">
        <ele>78.979200888839</ele>
        <time>2020-11-25T14:12:09.000+01:00</time>
      </trkpt>
      <trkpt lat="43.68987" lon="4.07297">
        <ele>78.969101412545</ele>
        <time>2020-11-25T14:12:10.000+01:00</time>
      </trkpt>
      <trkpt lat="43.68988" lon="4.07297">
        <ele>78.95949138132</ele>
        <time>2020-11-25T14:12:11.000+01:00</time>
      </trkpt>
      <trkpt lat="43.68989" lon="4.07297">
        <ele>78.950473698989</ele>
        <time>2020-11-25T14:12:12.000+01:00</time>
      </trkpt>
      <trkpt lat="43.6899" lon="4.07296">
        <ele>78.941991561947</ele>
        <time>2020-11-25T14:12:13.000+01:00</time>
      </trkpt>
      <trkpt lat="43.68991" lon="4.07296">
        <ele>78.933676716845</ele>
        <time>2020-11-25T14:12:14.000+01:00</time>
      </trkpt>
      <trkpt lat="43.68991" lon="4.07295">
        <ele>78.925507086948</ele>
        <time>2020-11-25T14:12:15.000+01:00</time>
      </trkpt>
      <trkpt lat="43.68992" lon="4.07295">
        <ele>78.917641244407</ele>
        <time>2020-11-25T14:12:16.000+01:00</time>
      </trkpt>
      <trkpt lat="43.68992" lon="4.07294">
        <ele>78.916938885163</ele>
        <time>2020-11-25T14:12:17.000+01:00</time>
      </trkpt>
      <trkpt lat="43.68993" lon="4.07294">
        <ele>78.916308129089</ele>
        <time>2020-11-25T14:12:18.000+01:00</time>
      </trkpt>
      <trkpt lat="43.68993" lon="4.07294">
        <ele>78.915734634755</ele>
        <time>2020-11-25T14:12:19.000+01:00</time>
      </trkpt>
      <trkpt lat="43.68993" lon="4.07294">
        <ele>78.915202019438</ele>
        <time>2020-11-25T14:12:20.000+01:00</time>
      </trkpt>
      <trkpt lat="43.68993" lon="4.07294">
        <ele>78.914710428691</ele>
        <time>2020-11-25T14:12:21.000+01:00</time>
      </trkpt>
      <trkpt lat="43.68993" lon="4.07294">
        <ele>78.91426038049</ele>
        <time>2020-11-25T14:12:22.000+01:00</time>
      </trkpt>
      <trkpt lat="43.68993" lon="4.07294">
        <ele>78.913857051564</ele>
        <time>2020-11-25T14:12:23.000+01:00</time>
      </trkpt>
      <trkpt lat="43.68993" lon="4.07294">
        <ele>78.913495427857</ele>
        <time>2020-11-25T14:12:24.000+01:00</time>
      </trkpt>
      <trkpt lat="43.68993" lon="4.07294">
        <ele>78.913141177769</ele>
        <time>2020-11-25T14:12:25.000+01:00</time>
      </trkpt>
      <trkpt lat="43.68993" lon="4.07294">
        <ele>78.912768893312</ele>
        <time>2020-11-25T14:12:26.000+01:00</time>
      </trkpt>
      <trkpt lat="43.68994" lon="4.07294">
        <ele>78.912374268636</ele>
        <time>2020-11-25T14:12:27.000+01:00</time>
      </trkpt>
      <trkpt lat="43.68994" lon="4.07294">
        <ele>78.911969657177</ele>
        <time>2020-11-25T14:12:28.000+01:00</time>
      </trkpt>
      <trkpt lat="43.68994" lon="4.07294">
        <ele>78.90786408522</ele>
        <time>2020-11-25T14:12:29.000+01:00</time>
      </trkpt>
      <trkpt lat="43.68994" lon="4.07293">
        <ele>78.907455740842</ele>
        <time>2020-11-25T14:12:30.000+01:00</time>
      </trkpt>
      <trkpt lat="43.68994" lon="4.07293">
        <ele>78.907052892119</ele>
        <time>2020-11-25T14:12:31.000+01:00</time>
      </trkpt>
      <trkpt lat="43.68994" lon="4.07293">
        <ele>78.906655377704</ele>
        <time>2020-11-25T14:12:32.000+01:00</time>
      </trkpt>
      <trkpt lat="43.68994" lon="4.07293">
        <ele>78.906267426922</ele>
        <time>2020-11-25T14:12:33.000+01:00</time>
      </trkpt>
      <trkpt lat="43.68994" lon="4.07293">
        <ele>78.905887218777</ele>
        <time>2020-11-25T14:12:34.000+01:00</time>
      </trkpt>
      <trkpt lat="43.68994" lon="4.07293">
        <ele>78.902176695305</ele>
        <time>2020-11-25T14:12:35.000+01:00</time>
      </trkpt>
      <trkpt lat="43.68994" lon="4.07293">
        <ele>78.898638349111</ele>
        <time>2020-11-25T14:12:36.000+01:00</time>
      </trkpt>
      <trkpt lat="43.68994" lon="4.07293">
        <ele>78.898301791976</ele>
        <time>2020-11-25T14:12:37.000+01:00</time>
      </trkpt>
      <trkpt lat="43.68994" lon="4.07293">
        <ele>78.897965086182</ele>
        <time>2020-11-25T14:12:38.000+01:00</time>
      </trkpt>
      <trkpt lat="43.68994" lon="4.07293">
        <ele>78.897649523639</ele>
        <time>2020-11-25T14:12:39.000+01:00</time>
      </trkpt>
      <trkpt lat="43.68994" lon="4.07293">
        <ele>78.89731706627</ele>
        <time>2020-11-25T14:12:40.000+01:00</time>
      </trkpt>
      <trkpt lat="43.68994" lon="4.07293">
        <ele>78.896965876587</ele>
        <time>2020-11-25T14:12:41.000+01:00</time>
      </trkpt>
      <trkpt lat="43.68994" lon="4.07292">
        <ele>78.89662383925</ele>
        <time>2020-11-25T14:12:42.000+01:00</time>
      </trkpt>
      <trkpt lat="43.68994" lon="4.07292">
        <ele>78.896287963271</ele>
        <time>2020-11-25T14:12:43.000+01:00</time>
      </trkpt>
      <trkpt lat="43.68994" lon="4.07292">
        <ele>78.895956861309</ele>
        <time>2020-11-25T14:12:44.000+01:00</time>
      </trkpt>
      <trkpt lat="43.68994" lon="4.07292">
        <ele>78.895630775407</ele>
        <time>2020-11-25T14:12:45.000+01:00</time>
      </trkpt>
      <trkpt lat="43.68994" lon="4.07292">
        <ele>78.895330771101</ele>
        <time>2020-11-25T14:12:46.000+01:00</time>
      </trkpt>
      <trkpt lat="43.68994" lon="4.07292">
        <ele>78.895024405152</ele>
        <time>2020-11-25T14:12:47.000+01:00</time>
      </trkpt>
      <trkpt lat="43.68994" lon="4.07292">
        <ele>78.894711108116</ele>
        <time>2020-11-25T14:12:48.000+01:00</time>
      </trkpt>
      <trkpt lat="43.68994" lon="4.07292">
        <ele>78.894392301559</ele>
        <time>2020-11-25T14:12:49.000+01:00</time>
      </trkpt>
      <trkpt lat="43.68994" lon="4.07292">
        <ele>78.894090905987</ele>
        <time>2020-11-25T14:12:50.000+01:00</time>
      </trkpt>
      <trkpt lat="43.68994" lon="4.07293">
        <ele>78.893806952858</ele>
        <time>2020-11-25T14:12:51.000+01:00</time>
      </trkpt>
      <trkpt lat="43.68994" lon="4.07293">
        <ele>78.893551892612</ele>
        <time>2020-11-25T14:12:52.000+01:00</time>
      </trkpt>
      <trkpt lat="43.68994" lon="4.07293">
        <ele>78.893330664476</ele>
        <time>2020-11-25T14:12:53.000+01:00</time>
      </trkpt>
      <trkpt lat="43.68994" lon="4.07293">
        <ele>78.893111814534</ele>
        <time>2020-11-25T14:12:54.000+01:00</time>
      </trkpt>
      <trkpt lat="43.68994" lon="4.07293">
        <ele>78.892899585429</ele>
        <time>2020-11-25T14:12:55.000+01:00</time>
      </trkpt>
      <trkpt lat="43.68994" lon="4.07293">
        <ele>78.892704238138</ele>
        <time>2020-11-25T14:12:56.000+01:00</time>
      </trkpt>
      <trkpt lat="43.68994" lon="4.07293">
        <ele>78.8925049282</ele>
        <time>2020-11-25T14:12:57.000+01:00</time>
      </trkpt>
      <trkpt lat="43.68994" lon="4.07293">
        <ele>78.892333029282</ele>
        <time>2020-11-25T14:12:58.000+01:00</time>
      </trkpt>
      <trkpt lat="43.68994" lon="4.07293">
        <ele>78.892192529751</ele>
        <time>2020-11-25T14:12:59.000+01:00</time>
      </trkpt>
      <trkpt lat="43.68994" lon="4.07293">
        <ele>78.892075087125</ele>
        <time>2020-11-25T14:13:00.000+01:00</time>
      </trkpt>
      <trkpt lat="43.68994" lon="4.07293">
        <ele>78.891989584923</ele>
        <time>2020-11-25T14:13:01.000+01:00</time>
      </trkpt>
      <trkpt lat="43.68994" lon="4.07293">
        <ele>78.891951956111</ele>
        <time>2020-11-25T14:13:02.000+01:00</time>
      </trkpt>
      <trkpt lat="43.68994" lon="4.07292">
        <ele>78.891941662562</ele>
        <time>2020-11-25T14:13:03.000+01:00</time>
      </trkpt>
      <trkpt lat="43.68994" lon="4.07292">
        <ele>78.891969346886</ele>
        <time>2020-11-25T14:13:04.000+01:00</time>
      </trkpt>
      <trkpt lat="43.68994" lon="4.07292">
        <ele>78.892023393385</ele>
        <time>2020-11-25T14:13:05.000+01:00</time>
      </trkpt>
      <trkpt lat="43.68994" lon="4.07292">
        <ele>78.892100668678</ele>
        <time>2020-11-25T14:13:06.000+01:00</time>
      </trkpt>
      <trkpt lat="43.68994" lon="4.07292">
        <ele>78.892205275582</ele>
        <time>2020-11-25T14:13:07.000+01:00</time>
      </trkpt>
      <trkpt lat="43.68994" lon="4.07292">
        <ele>78.892338334819</ele>
        <time>2020-11-25T14:13:08.000+01:00</time>
      </trkpt>
      <trkpt lat="43.68994" lon="4.07292">
        <ele>78.892507949837</ele>
        <time>2020-11-25T14:13:09.000+01:00</time>
      </trkpt>
      <trkpt lat="43.68994" lon="4.07292">
        <ele>78.892720644438</ele>
        <time>2020-11-25T14:13:10.000+01:00</time>
      </trkpt>
      <trkpt lat="43.68994" lon="4.07292">
        <ele>78.89295668508</ele>
        <time>2020-11-25T14:13:11.000+01:00</time>
      </trkpt>
      <trkpt lat="43.68994" lon="4.07292">
        <ele>78.893212762095</ele>
        <time>2020-11-25T14:13:12.000+01:00</time>
      </trkpt>
      <trkpt lat="43.68995" lon="4.07292">
        <ele>78.893488922413</ele>
        <time>2020-11-25T14:13:13.000+01:00</time>
      </trkpt>
      <trkpt lat="43.68995" lon="4.07292">
        <ele>78.893773360952</ele>
        <time>2020-11-25T14:13:14.000+01:00</time>
      </trkpt>
      <trkpt lat="43.68995" lon="4.07292">
        <ele>78.894056973129</ele>
        <time>2020-11-25T14:13:15.000+01:00</time>
      </trkpt>
      <trkpt lat="43.68995" lon="4.07292">
        <ele>78.894344284534</ele>
        <time>2020-11-25T14:13:16.000+01:00</time>
      </trkpt>
      <trkpt lat="43.68995" lon="4.07292">
        <ele>78.894637057548</ele>
        <time>2020-11-25T14:13:17.000+01:00</time>
      </trkpt>
      <trkpt lat="43.68995" lon="4.07292">
        <ele>78.894927233481</ele>
        <time>2020-11-25T14:13:18.000+01:00</time>
      </trkpt>
      <trkpt lat="43.68995" lon="4.07292">
        <ele>78.89523593377</ele>
        <time>2020-11-25T14:13:19.000+01:00</time>
      </trkpt>
      <trkpt lat="43.68995" lon="4.07292">
        <ele>78.895568625207</ele>
        <time>2020-11-25T14:13:20.000+01:00</time>
      </trkpt>
      <trkpt lat="43.68995" lon="4.07292">
        <ele>78.895918140236</ele>
        <time>2020-11-25T14:13:21.000+01:00</time>
      </trkpt>
      <trkpt lat="43.68995" lon="4.07292">
        <ele>78.896274680552</ele>
        <time>2020-11-25T14:13:22.000+01:00</time>
      </trkpt>
      <trkpt lat="43.68995" lon="4.07292">
        <ele>78.896630412085</ele>
        <time>2020-11-25T14:13:23.000+01:00</time>
      </trkpt>
      <trkpt lat="43.68995" lon="4.07292">
        <ele>78.896999422064</ele>
        <time>2020-11-25T14:13:24.000+01:00</time>
      </trkpt>
      <trkpt lat="43.68995" lon="4.07292">
        <ele>78.897380888049</ele>
        <time>2020-11-25T14:13:25.000+01:00</time>
      </trkpt>
      <trkpt lat="43.68995" lon="4.07292">
        <ele>78.897780888561</ele>
        <time>2020-11-25T14:13:26.000+01:00</time>
      </trkpt>
      <trkpt lat="43.68995" lon="4.07292">
        <ele>78.898186286731</ele>
        <time>2020-11-25T14:13:27.000+01:00</time>
      </trkpt>
      <trkpt lat="43.68995" lon="4.07292">
        <ele>78.898597051511</ele>
        <time>2020-11-25T14:13:28.000+01:00</time>
      </trkpt>
      <trkpt lat="43.68995" lon="4.07292">
        <ele>78.899022692375</ele>
        <time>2020-11-25T14:13:29.000+01:00</time>
      </trkpt>
      <trkpt lat="43.68995" lon="4.07292">
        <ele>78.899470660443</ele>
        <time>2020-11-25T14:13:30.000+01:00</time>
      </trkpt>
      <trkpt lat="43.68995" lon="4.07292">
        <ele>78.899927835161</ele>
        <time>2020-11-25T14:13:31.000+01:00</time>
      </trkpt>
      <trkpt lat="43.68995" lon="4.07292">
        <ele>78.904311291481</ele>
        <time>2020-11-25T14:13:32.000+01:00</time>
      </trkpt>
      <trkpt lat="43.68995" lon="4.07292">
        <ele>78.908313008014</ele>
        <time>2020-11-25T14:13:33.000+01:00</time>
      </trkpt>
      <trkpt lat="43.68995" lon="4.07292">
        <ele>78.912087894636</ele>
        <time>2020-11-25T14:13:34.000+01:00</time>
      </trkpt>
      <trkpt lat="43.68995" lon="4.07292">
        <ele>78.915766695869</ele>
        <time>2020-11-25T14:13:35.000+01:00</time>
      </trkpt>
      <trkpt lat="43.68995" lon="4.07292">
        <ele>78.919549809586</ele>
        <time>2020-11-25T14:13:36.000+01:00</time>
      </trkpt>
      <trkpt lat="43.68996" lon="4.07291">
        <ele>78.923255196333</ele>
        <time>2020-11-25T14:13:37.000+01:00</time>
      </trkpt>
      <trkpt lat="43.68998" lon="4.0729">
        <ele>78.92681158934</ele>
        <time>2020-11-25T14:13:38.000+01:00</time>
      </trkpt>
      <trkpt lat="43.68999" lon="4.0729">
        <ele>78.93009466559</ele>
        <time>2020-11-25T14:13:39.000+01:00</time>
      </trkpt>
      <trkpt lat="43.69" lon="4.07291">
        <ele>78.933137451701</ele>
        <time>2020-11-25T14:13:40.000+01:00</time>
      </trkpt>
      <trkpt lat="43.69001" lon="4.07291">
        <ele>78.936164713886</ele>
        <time>2020-11-25T14:13:41.000+01:00</time>
      </trkpt>
      <trkpt lat="43.69001" lon="4.07291">
        <ele>78.936481585699</ele>
        <time>2020-11-25T14:13:42.000+01:00</time>
      </trkpt>
      <trkpt lat="43.69001" lon="4.07291">
        <ele>78.936817744391</ele>
        <time>2020-11-25T14:13:43.000+01:00</time>
      </trkpt>
      <trkpt lat="43.69001" lon="4.0729">
        <ele>78.937187037648</ele>
        <time>2020-11-25T14:13:44.000+01:00</time>
      </trkpt>
      <trkpt lat="43.69001" lon="4.0729">
        <ele>78.940873196071</ele>
        <time>2020-11-25T14:13:45.000+01:00</time>
      </trkpt>
      <trkpt lat="43.69002" lon="4.0729">
        <ele>78.9448039543</ele>
        <time>2020-11-25T14:13:46.000+01:00</time>
      </trkpt>
      <trkpt lat="43.69001" lon="4.0729">
        <ele>78.948808055614</ele>
        <time>2020-11-25T14:13:47.000+01:00</time>
      </trkpt>
      <trkpt lat="43.69001" lon="4.07289">
        <ele>78.952861632091</ele>
        <time>2020-11-25T14:13:48.000+01:00</time>
      </trkpt>
      <trkpt lat="43.69002" lon="4.07289">
        <ele>78.956734381849</ele>
        <time>2020-11-25T14:13:49.000+01:00</time>
      </trkpt>
      <trkpt lat="43.69002" lon="4.07288">
        <ele>78.957129796208</ele>
        <time>2020-11-25T14:13:50.000+01:00</time>
      </trkpt>
      <trkpt lat="43.69001" lon="4.07288">
        <ele>78.957533602572</ele>
        <time>2020-11-25T14:13:51.000+01:00</time>
      </trkpt>
      <trkpt lat="43.69001" lon="4.07288">
        <ele>78.957981988353</ele>
        <time>2020-11-25T14:13:52.000+01:00</time>
      </trkpt>
      <trkpt lat="43.69001" lon="4.07288">
        <ele>78.958482862463</ele>
        <time>2020-11-25T14:13:53.000+01:00</time>
      </trkpt>
      <trkpt lat="43.69001" lon="4.07288">
        <ele>78.959056989396</ele>
        <time>2020-11-25T14:13:54.000+01:00</time>
      </trkpt>
      <trkpt lat="43.69002" lon="4.07288">
        <ele>78.965214891092</ele>
        <time>2020-11-25T14:13:55.000+01:00</time>
      </trkpt>
      <trkpt lat="43.69002" lon="4.07288">
        <ele>78.971624545237</ele>
        <time>2020-11-25T14:13:56.000+01:00</time>
      </trkpt>
      <trkpt lat="43.69002" lon="4.07288">
        <ele>78.978493845378</ele>
        <time>2020-11-25T14:13:57.000+01:00</time>
      </trkpt>
      <trkpt lat="43.69002" lon="4.07288">
        <ele>78.985810305093</ele>
        <time>2020-11-25T14:13:58.000+01:00</time>
      </trkpt>
      <trkpt lat="43.69002" lon="4.07287">
        <ele>78.993162963658</ele>
        <time>2020-11-25T14:13:59.000+01:00</time>
      </trkpt>
      <trkpt lat="43.69002" lon="4.07287">
        <ele>79.000410165964</ele>
        <time>2020-11-25T14:14:00.000+01:00</time>
      </trkpt>
      <trkpt lat="43.69001" lon="4.07286">
        <ele>79.001122089958</ele>
        <time>2020-11-25T14:14:01.000+01:00</time>
      </trkpt>
      <trkpt lat="43.69002" lon="4.07286">
        <ele>79.008309349856</ele>
        <time>2020-11-25T14:14:02.000+01:00</time>
      </trkpt>
      <trkpt lat="43.69002" lon="4.07285">
        <ele>79.015348609224</ele>
        <time>2020-11-25T14:14:03.000+01:00</time>
      </trkpt>
      <trkpt lat="43.69001" lon="4.07286">
        <ele>79.022105071711</ele>
        <time>2020-11-25T14:14:04.000+01:00</time>
      </trkpt>
      <trkpt lat="43.69001" lon="4.07286">
        <ele>79.029026012394</ele>
        <time>2020-11-25T14:14:05.000+01:00</time>
      </trkpt>
      <trkpt lat="43.69" lon="4.07286">
        <ele>79.035891884854</ele>
        <time>2020-11-25T14:14:06.000+01:00</time>
      </trkpt>
      <trkpt lat="43.69" lon="4.07286">
        <ele>79.042527620043</ele>
        <time>2020-11-25T14:14:07.000+01:00</time>
      </trkpt>
      <trkpt lat="43.69" lon="4.07287">
        <ele>79.049178538861</ele>
        <time>2020-11-25T14:14:08.000+01:00</time>
      </trkpt>
      <trkpt lat="43.69" lon="4.07287">
        <ele>79.055597606367</ele>
        <time>2020-11-25T14:14:09.000+01:00</time>
      </trkpt>
      <trkpt lat="43.69" lon="4.07287">
        <ele>79.061987334848</ele>
        <time>2020-11-25T14:14:10.000+01:00</time>
      </trkpt>
      <trkpt lat="43.69" lon="4.07287">
        <ele>79.068015129726</ele>
        <time>2020-11-25T14:14:11.000+01:00</time>
      </trkpt>
      <trkpt lat="43.69" lon="4.07287">
        <ele>79.074125180737</ele>
        <time>2020-11-25T14:14:12.000+01:00</time>
      </trkpt>
      <trkpt lat="43.69" lon="4.07287">
        <ele>79.080747273017</ele>
        <time>2020-11-25T14:14:13.000+01:00</time>
      </trkpt>
      <trkpt lat="43.68999" lon="4.07288">
        <ele>79.087492907333</ele>
        <time>2020-11-25T14:14:14.000+01:00</time>
      </trkpt>
      <trkpt lat="43.69" lon="4.07288">
        <ele>79.094392967905</ele>
        <time>2020-11-25T14:14:15.000+01:00</time>
      </trkpt>
      <trkpt lat="43.69001" lon="4.07288">
        <ele>79.101237238115</ele>
        <time>2020-11-25T14:14:16.000+01:00</time>
      </trkpt>
      <trkpt lat="43.69002" lon="4.07288">
        <ele>79.107765202368</ele>
        <time>2020-11-25T14:14:17.000+01:00</time>
      </trkpt>
      <trkpt lat="43.69004" lon="4.07289">
        <ele>79.11370566361</ele>
        <time>2020-11-25T14:14:18.000+01:00</time>
      </trkpt>
      <trkpt lat="43.69005" lon="4.07289">
        <ele>79.119103033912</ele>
        <time>2020-11-25T14:14:19.000+01:00</time>
      </trkpt>
      <trkpt lat="43.69006" lon="4.07289">
        <ele>79.124239983615</ele>
        <time>2020-11-25T14:14:20.000+01:00</time>
      </trkpt>
      <trkpt lat="43.69006" lon="4.07289">
        <ele>79.129029823475</ele>
        <time>2020-11-25T14:14:21.000+01:00</time>
      </trkpt>
      <trkpt lat="43.69008" lon="4.07288">
        <ele>79.133729702643</ele>
        <time>2020-11-25T14:14:22.000+01:00</time>
      </trkpt>
      <trkpt lat="43.69008" lon="4.07288">
        <ele>79.138077398399</ele>
        <time>2020-11-25T14:14:23.000+01:00</time>
      </trkpt>
      <trkpt lat="43.69009" lon="4.07288">
        <ele>79.141947428391</ele>
        <time>2020-11-25T14:14:24.000+01:00</time>
      </trkpt>
      <trkpt lat="43.6901" lon="4.07288">
        <ele>79.145379988611</ele>
        <time>2020-11-25T14:14:25.000+01:00</time>
      </trkpt>
      <trkpt lat="43.69011" lon="4.07288">
        <ele>79.148779299983</ele>
        <time>2020-11-25T14:14:26.000+01:00</time>
      </trkpt>
      <trkpt lat="43.69013" lon="4.07287">
        <ele>79.1521628646</ele>
        <time>2020-11-25T14:14:27.000+01:00</time>
      </trkpt>
      <trkpt lat="43.69014" lon="4.07286">
        <ele>79.155154533248</ele>
        <time>2020-11-25T14:14:28.000+01:00</time>
      </trkpt>
      <trkpt lat="43.69015" lon="4.07286">
        <ele>79.157600409445</ele>
        <time>2020-11-25T14:14:29.000+01:00</time>
      </trkpt>
      <trkpt lat="43.69016" lon="4.07285">
        <ele>79.15958439669</ele>
        <time>2020-11-25T14:14:30.000+01:00</time>
      </trkpt>
      <trkpt lat="43.69017" lon="4.07285">
        <ele>79.161136065833</ele>
        <time>2020-11-25T14:14:31.000+01:00</time>
      </trkpt>
      <trkpt lat="43.69018" lon="4.07284">
        <ele>79.162120192996</ele>
        <time>2020-11-25T14:14:32.000+01:00</time>
      </trkpt>
      <trkpt lat="43.69019" lon="4.07283">
        <ele>79.162565873006</ele>
        <time>2020-11-25T14:14:33.000+01:00</time>
      </trkpt>
      <trkpt lat="43.6902" lon="4.07282">
        <ele>79.162596727297</ele>
        <time>2020-11-25T14:14:34.000+01:00</time>
      </trkpt>
      <trkpt lat="43.69022" lon="4.07282">
        <ele>79.162283858367</ele>
        <time>2020-11-25T14:14:35.000+01:00</time>
      </trkpt>
      <trkpt lat="43.69023" lon="4.07281">
        <ele>79.161481103634</ele>
        <time>2020-11-25T14:14:36.000+01:00</time>
      </trkpt>
      <trkpt lat="43.69024" lon="4.0728">
        <ele>79.160262771984</ele>
        <time>2020-11-25T14:14:37.000+01:00</time>
      </trkpt>
      <trkpt lat="43.69025" lon="4.0728">
        <ele>79.158605382972</ele>
        <time>2020-11-25T14:14:38.000+01:00</time>
      </trkpt>
      <trkpt lat="43.69026" lon="4.0728">
        <ele>79.156733661745</ele>
        <time>2020-11-25T14:14:39.000+01:00</time>
      </trkpt>
      <trkpt lat="43.69027" lon="4.07279">
        <ele>79.154713495784</ele>
        <time>2020-11-25T14:14:40.000+01:00</time>
      </trkpt>
      <trkpt lat="43.69028" lon="4.07279">
        <ele>79.15256594691</ele>
        <time>2020-11-25T14:14:41.000+01:00</time>
      </trkpt>
      <trkpt lat="43.69029" lon="4.07278">
        <ele>79.150222289187</ele>
        <time>2020-11-25T14:14:42.000+01:00</time>
      </trkpt>
      <trkpt lat="43.69029" lon="4.07278">
        <ele>79.147663367194</ele>
        <time>2020-11-25T14:14:43.000+01:00</time>
      </trkpt>
      <trkpt lat="43.6903" lon="4.07278">
        <ele>79.145130860415</ele>
        <time>2020-11-25T14:14:44.000+01:00</time>
      </trkpt>
      <trkpt lat="43.6903" lon="4.07277">
        <ele>79.142536207198</ele>
        <time>2020-11-25T14:14:45.000+01:00</time>
      </trkpt>
      <trkpt lat="43.69031" lon="4.07277">
        <ele>79.139531005058</ele>
        <time>2020-11-25T14:14:46.000+01:00</time>
      </trkpt>
      <trkpt lat="43.69031" lon="4.07277">
        <ele>79.136296156545</ele>
        <time>2020-11-25T14:14:47.000+01:00</time>
      </trkpt>
      <trkpt lat="43.69032" lon="4.07277">
        <ele>79.132725490657</ele>
        <time>2020-11-25T14:14:48.000+01:00</time>
      </trkpt>
      <trkpt lat="43.69033" lon="4.07276">
        <ele>79.128801407892</ele>
        <time>2020-11-25T14:14:49.000+01:00</time>
      </trkpt>
      <trkpt lat="43.69033" lon="4.07276">
        <ele>79.124547389058</ele>
        <time>2020-11-25T14:14:50.000+01:00</time>
      </trkpt>
      <trkpt lat="43.69034" lon="4.07275">
        <ele>79.119900068312</ele>
        <time>2020-11-25T14:14:51.000+01:00</time>
      </trkpt>
      <trkpt lat="43.69035" lon="4.07275">
        <ele>79.1148814486</ele>
        <time>2020-11-25T14:14:52.000+01:00</time>
      </trkpt>
      <trkpt lat="43.69036" lon="4.07274">
        <ele>79.109545869262</ele>
        <time>2020-11-25T14:14:53.000+01:00</time>
      </trkpt>
      <trkpt lat="43.69037" lon="4.07274">
        <ele>79.104059663032</ele>
        <time>2020-11-25T14:14:54.000+01:00</time>
      </trkpt>
      <trkpt lat="43.69038" lon="4.07273">
        <ele>79.098288515987</ele>
        <time>2020-11-25T14:14:55.000+01:00</time>
      </trkpt>
      <trkpt lat="43.69039" lon="4.07272">
        <ele>79.092186010658</ele>
        <time>2020-11-25T14:14:56.000+01:00</time>
      </trkpt>
      <trkpt lat="43.6904" lon="4.07271">
        <ele>79.08598359006</ele>
        <time>2020-11-25T14:14:57.000+01:00</time>
      </trkpt>
      <trkpt lat="43.69042" lon="4.0727">
        <ele>79.079572841201</ele>
        <time>2020-11-25T14:14:58.000+01:00</time>
      </trkpt>
      <trkpt lat="43.69043" lon="4.07269">
        <ele>79.072675228907</ele>
        <time>2020-11-25T14:14:59.000+01:00</time>
      </trkpt>
      <trkpt lat="43.69044" lon="4.07269">
        <ele>79.065718782565</ele>
        <time>2020-11-25T14:15:00.000+01:00</time>
      </trkpt>
      <trkpt lat="43.69045" lon="4.07268">
        <ele>79.058621190464</ele>
        <time>2020-11-25T14:15:01.000+01:00</time>
      </trkpt>
      <trkpt lat="43.69046" lon="4.07267">
        <ele>79.05129789597</ele>
        <time>2020-11-25T14:15:02.000+01:00</time>
      </trkpt>
      <trkpt lat="43.69046" lon="4.07267">
        <ele>79.043905340303</ele>
        <time>2020-11-25T14:15:03.000+01:00</time>
      </trkpt>
      <trkpt lat="43.69047" lon="4.07267">
        <ele>79.036695338535</ele>
        <time>2020-11-25T14:15:04.000+01:00</time>
      </trkpt>
      <trkpt lat="43.69048" lon="4.07267">
        <ele>79.029653867717</ele>
        <time>2020-11-25T14:15:05.000+01:00</time>
      </trkpt>
      <trkpt lat="43.69049" lon="4.07266">
        <ele>79.022744738824</ele>
        <time>2020-11-25T14:15:06.000+01:00</time>
      </trkpt>
      <trkpt lat="43.69049" lon="4.07265">
        <ele>79.015905576281</ele>
        <time>2020-11-25T14:15:07.000+01:00</time>
      </trkpt>
      <trkpt lat="43.6905" lon="4.07264">
        <ele>79.008992867947</ele>
        <time>2020-11-25T14:15:08.000+01:00</time>
      </trkpt>
      <trkpt lat="43.69051" lon="4.07264">
        <ele>79.001964649816</ele>
        <time>2020-11-25T14:15:09.000+01:00</time>
      </trkpt>
      <trkpt lat="43.69052" lon="4.07263">
        <ele>78.994864437383</ele>
        <time>2020-11-25T14:15:10.000+01:00</time>
      </trkpt>
      <trkpt lat="43.69052" lon="4.07262">
        <ele>78.987649498808</ele>
        <time>2020-11-25T14:15:11.000+01:00</time>
      </trkpt>
      <trkpt lat="43.69053" lon="4.07262">
        <ele>78.980308164937</ele>
        <time>2020-11-25T14:15:12.000+01:00</time>
      </trkpt>
      <trkpt lat="43.69054" lon="4.07261">
        <ele>78.972677087161</ele>
        <time>2020-11-25T14:15:13.000+01:00</time>
      </trkpt>
      <trkpt lat="43.69054" lon="4.0726">
        <ele>78.964901152916</ele>
        <time>2020-11-25T14:15:14.000+01:00</time>
      </trkpt>
      <trkpt lat="43.69054" lon="4.07259">
        <ele>78.957192447165</ele>
        <time>2020-11-25T14:15:15.000+01:00</time>
      </trkpt>
      <trkpt lat="43.69055" lon="4.07258">
        <ele>78.949669542598</ele>
        <time>2020-11-25T14:15:16.000+01:00</time>
      </trkpt>
      <trkpt lat="43.69056" lon="4.07257">
        <ele>78.942382736783</ele>
        <time>2020-11-25T14:15:17.000+01:00</time>
      </trkpt>
      <trkpt lat="43.69057" lon="4.07256">
        <ele>78.935548803355</ele>
        <time>2020-11-25T14:15:18.000+01:00</time>
      </trkpt>
      <trkpt lat="43.69057" lon="4.07255">
        <ele>78.928957313201</ele>
        <time>2020-11-25T14:15:19.000+01:00</time>
      </trkpt>
      <trkpt lat="43.69058" lon="4.07254">
        <ele>78.922820648405</ele>
        <time>2020-11-25T14:15:20.000+01:00</time>
      </trkpt>
      <trkpt lat="43.69059" lon="4.07253">
        <ele>78.916851450559</ele>
        <time>2020-11-25T14:15:21.000+01:00</time>
      </trkpt>
      <trkpt lat="43.69059" lon="4.07251">
        <ele>78.911063391498</ele>
        <time>2020-11-25T14:15:22.000+01:00</time>
      </trkpt>
      <trkpt lat="43.6906" lon="4.0725">
        <ele>78.905323937002</ele>
        <time>2020-11-25T14:15:23.000+01:00</time>
      </trkpt>
      <trkpt lat="43.69061" lon="4.07249">
        <ele>78.899521918377</ele>
        <time>2020-11-25T14:15:24.000+01:00</time>
      </trkpt>
      <trkpt lat="43.69062" lon="4.07247">
        <ele>78.894138168166</ele>
        <time>2020-11-25T14:15:25.000+01:00</time>
      </trkpt>
      <trkpt lat="43.69063" lon="4.07245">
        <ele>78.889234877761</ele>
        <time>2020-11-25T14:15:26.000+01:00</time>
      </trkpt>
      <trkpt lat="43.69063" lon="4.07244">
        <ele>78.884427064927</ele>
        <time>2020-11-25T14:15:27.000+01:00</time>
      </trkpt>
      <trkpt lat="43.69064" lon="4.07243">
        <ele>78.880338836593</ele>
        <time>2020-11-25T14:15:28.000+01:00</time>
      </trkpt>
      <trkpt lat="43.69065" lon="4.07242">
        <ele>78.877084601041</ele>
        <time>2020-11-25T14:15:29.000+01:00</time>
      </trkpt>
      <trkpt lat="43.69066" lon="4.0724">
        <ele>78.874691711028</ele>
        <time>2020-11-25T14:15:30.000+01:00</time>
      </trkpt>
      <trkpt lat="43.69066" lon="4.07238">
        <ele>78.873022848939</ele>
        <time>2020-11-25T14:15:31.000+01:00</time>
      </trkpt>
      <trkpt lat="43.69066" lon="4.07236">
        <ele>78.872265400331</ele>
        <time>2020-11-25T14:15:32.000+01:00</time>
      </trkpt>
      <trkpt lat="43.69066" lon="4.07235">
        <ele>78.872427244866</ele>
        <time>2020-11-25T14:15:33.000+01:00</time>
      </trkpt>
      <trkpt lat="43.69065" lon="4.07233">
        <ele>78.873076745419</ele>
        <time>2020-11-25T14:15:34.000+01:00</time>
      </trkpt>
      <trkpt lat="43.69065" lon="4.07231">
        <ele>78.874703529541</ele>
        <time>2020-11-25T14:15:35.000+01:00</time>
      </trkpt>
      <trkpt lat="43.69065" lon="4.0723">
        <ele>78.877188548827</ele>
        <time>2020-11-25T14:15:36.000+01:00</time>
      </trkpt>
      <trkpt lat="43.69065" lon="4.07229">
        <ele>78.880521930121</ele>
        <time>2020-11-25T14:15:37.000+01:00</time>
      </trkpt>
      <trkpt lat="43.69065" lon="4.07227">
        <ele>78.88461440255</ele>
        <time>2020-11-25T14:15:38.000+01:00</time>
      </trkpt>
      <trkpt lat="43.69065" lon="4.07226">
        <ele>78.889471205687</ele>
        <time>2020-11-25T14:15:39.000+01:00</time>
      </trkpt>
      <trkpt lat="43.69064" lon="4.07224">
        <ele>78.895007110359</ele>
        <time>2020-11-25T14:15:40.000+01:00</time>
      </trkpt>
      <trkpt lat="43.69064" lon="4.07223">
        <ele>78.901169515592</ele>
        <time>2020-11-25T14:15:41.000+01:00</time>
      </trkpt>
      <trkpt lat="43.69064" lon="4.07221">
        <ele>78.907811185181</ele>
        <time>2020-11-25T14:15:42.000+01:00</time>
      </trkpt>
      <trkpt lat="43.69063" lon="4.0722">
        <ele>78.914681357864</ele>
        <time>2020-11-25T14:15:43.000+01:00</time>
      </trkpt>
      <trkpt lat="43.69063" lon="4.07218">
        <ele>78.92205600902</ele>
        <time>2020-11-25T14:15:44.000+01:00</time>
      </trkpt>
      <trkpt lat="43.69062" lon="4.07217">
        <ele>78.929989549453</ele>
        <time>2020-11-25T14:15:45.000+01:00</time>
      </trkpt>
      <trkpt lat="43.69062" lon="4.07215">
        <ele>78.938418317697</ele>
        <time>2020-11-25T14:15:46.000+01:00</time>
      </trkpt>
      <trkpt lat="43.69061" lon="4.07214">
        <ele>78.947314268617</ele>
        <time>2020-11-25T14:15:47.000+01:00</time>
      </trkpt>
      <trkpt lat="43.69061" lon="4.07212">
        <ele>78.956550030506</ele>
        <time>2020-11-25T14:15:48.000+01:00</time>
      </trkpt>
      <trkpt lat="43.69061" lon="4.07211">
        <ele>78.966144959989</ele>
        <time>2020-11-25T14:15:49.000+01:00</time>
      </trkpt>
      <trkpt lat="43.69061" lon="4.0721">
        <ele>78.976142266746</ele>
        <time>2020-11-25T14:15:50.000+01:00</time>
      </trkpt>
      <trkpt lat="43.6906" lon="4.07208">
        <ele>78.98649130578</ele>
        <time>2020-11-25T14:15:51.000+01:00</time>
      </trkpt>
      <trkpt lat="43.6906" lon="4.07207">
        <ele>78.997112819565</ele>
        <time>2020-11-25T14:15:52.000+01:00</time>
      </trkpt>
      <trkpt lat="43.69059" lon="4.07206">
        <ele>79.0080360867</ele>
        <time>2020-11-25T14:15:53.000+01:00</time>
      </trkpt>
      <trkpt lat="43.69059" lon="4.07204">
        <ele>79.019114916604</ele>
        <time>2020-11-25T14:15:54.000+01:00</time>
      </trkpt>
      <trkpt lat="43.69058" lon="4.07203">
        <ele>79.030325687255</ele>
        <time>2020-11-25T14:15:55.000+01:00</time>
      </trkpt>
      <trkpt lat="43.69058" lon="4.07201">
        <ele>79.041950888051</ele>
        <time>2020-11-25T14:15:56.000+01:00</time>
      </trkpt>
      <trkpt lat="43.69057" lon="4.072">
        <ele>79.053876174168</ele>
        <time>2020-11-25T14:15:57.000+01:00</time>
      </trkpt>
      <trkpt lat="43.69057" lon="4.07199">
        <ele>79.066031915913</ele>
        <time>2020-11-25T14:15:58.000+01:00</time>
      </trkpt>
      <trkpt lat="43.69057" lon="4.07197">
        <ele>79.078353440939</ele>
        <time>2020-11-25T14:15:59.000+01:00</time>
      </trkpt>
      <trkpt lat="43.69056" lon="4.07196">
        <ele>79.090771752652</ele>
        <time>2020-11-25T14:16:00.000+01:00</time>
      </trkpt>
      <trkpt lat="43.69055" lon="4.07195">
        <ele>79.103307959078</ele>
        <time>2020-11-25T14:16:01.000+01:00</time>
      </trkpt>
      <trkpt lat="43.69055" lon="4.07193">
        <ele>79.115752937251</ele>
        <time>2020-11-25T14:16:02.000+01:00</time>
      </trkpt>
      <trkpt lat="43.69054" lon="4.07192">
        <ele>79.128256008636</ele>
        <time>2020-11-25T14:16:03.000+01:00</time>
      </trkpt>
      <trkpt lat="43.69054" lon="4.0719">
        <ele>79.140853593028</ele>
        <time>2020-11-25T14:16:04.000+01:00</time>
      </trkpt>
      <trkpt lat="43.69054" lon="4.07189">
        <ele>79.153496039806</ele>
        <time>2020-11-25T14:16:05.000+01:00</time>
      </trkpt>
      <trkpt lat="43.69054" lon="4.07189">
        <ele>79.166033728573</ele>
        <time>2020-11-25T14:16:06.000+01:00</time>
      </trkpt>
      <trkpt lat="43.69053" lon="4.07188">
        <ele>79.178555482704</ele>
        <time>2020-11-25T14:16:07.000+01:00</time>
      </trkpt>
      <trkpt lat="43.69053" lon="4.07187">
        <ele>79.191338304315</ele>
        <time>2020-11-25T14:16:08.000+01:00</time>
      </trkpt>
      <trkpt lat="43.69053" lon="4.07185">
        <ele>79.2040645796</ele>
        <time>2020-11-25T14:16:09.000+01:00</time>
      </trkpt>
      <trkpt lat="43.69052" lon="4.07184">
        <ele>79.216903361757</ele>
        <time>2020-11-25T14:16:10.000+01:00</time>
      </trkpt>
      <trkpt lat="43.69052" lon="4.07182">
        <ele>79.229725064501</ele>
        <time>2020-11-25T14:16:11.000+01:00</time>
      </trkpt>
      <trkpt lat="43.69051" lon="4.07181">
        <ele>79.242495841107</ele>
        <time>2020-11-25T14:16:12.000+01:00</time>
      </trkpt>
      <trkpt lat="43.69051" lon="4.0718">
        <ele>79.255200520646</ele>
        <time>2020-11-25T14:16:13.000+01:00</time>
      </trkpt>
      <trkpt lat="43.6905" lon="4.07178">
        <ele>79.267892790965</ele>
        <time>2020-11-25T14:16:14.000+01:00</time>
      </trkpt>
      <trkpt lat="43.69049" lon="4.07177">
        <ele>79.280544862123</ele>
        <time>2020-11-25T14:16:15.000+01:00</time>
      </trkpt>
      <trkpt lat="43.69049" lon="4.07176">
        <ele>79.293020221902</ele>
        <time>2020-11-25T14:16:16.000+01:00</time>
      </trkpt>
      <trkpt lat="43.69049" lon="4.07175">
        <ele>79.305431447724</ele>
        <time>2020-11-25T14:16:17.000+01:00</time>
      </trkpt>
      <trkpt lat="43.69048" lon="4.07174">
        <ele>79.317811436794</ele>
        <time>2020-11-25T14:16:18.000+01:00</time>
      </trkpt>
      <trkpt lat="43.69048" lon="4.07173">
        <ele>79.330199337797</ele>
        <time>2020-11-25T14:16:19.000+01:00</time>
      </trkpt>
      <trkpt lat="43.69048" lon="4.07172">
        <ele>79.34268527194</ele>
        <time>2020-11-25T14:16:20.000+01:00</time>
      </trkpt>
      <trkpt lat="43.69048" lon="4.07171">
        <ele>79.355194981794</ele>
        <time>2020-11-25T14:16:21.000+01:00</time>
      </trkpt>
      <trkpt lat="43.69048" lon="4.0717">
        <ele>79.367765566684</ele>
        <time>2020-11-25T14:16:22.000+01:00</time>
      </trkpt>
      <trkpt lat="43.69047" lon="4.07169">
        <ele>79.380301203074</ele>
        <time>2020-11-25T14:16:23.000+01:00</time>
      </trkpt>
      <trkpt lat="43.69047" lon="4.07167">
        <ele>79.393062371516</ele>
        <time>2020-11-25T14:16:24.000+01:00</time>
      </trkpt>
      <trkpt lat="43.69047" lon="4.07167">
        <ele>79.405874470552</ele>
        <time>2020-11-25T14:16:25.000+01:00</time>
      </trkpt>
      <trkpt lat="43.69046" lon="4.07166">
        <ele>79.418725069683</ele>
        <time>2020-11-25T14:16:26.000+01:00</time>
      </trkpt>
      <trkpt lat="43.69045" lon="4.07164">
        <ele>79.431371319718</ele>
        <time>2020-11-25T14:16:27.000+01:00</time>
      </trkpt>
      <trkpt lat="43.69045" lon="4.07163">
        <ele>79.44384241716</ele>
        <time>2020-11-25T14:16:28.000+01:00</time>
      </trkpt>
      <trkpt lat="43.69044" lon="4.07162">
        <ele>79.456288514728</ele>
        <time>2020-11-25T14:16:29.000+01:00</time>
      </trkpt>
      <trkpt lat="43.69044" lon="4.07161">
        <ele>79.468549566361</ele>
        <time>2020-11-25T14:16:30.000+01:00</time>
      </trkpt>
      <trkpt lat="43.69043" lon="4.07161">
        <ele>79.480696228237</ele>
        <time>2020-11-25T14:16:31.000+01:00</time>
      </trkpt>
      <trkpt lat="43.69043" lon="4.0716">
        <ele>79.492949370375</ele>
        <time>2020-11-25T14:16:32.000+01:00</time>
      </trkpt>
      <trkpt lat="43.69042" lon="4.07159">
        <ele>79.505271817396</ele>
        <time>2020-11-25T14:16:33.000+01:00</time>
      </trkpt>
      <trkpt lat="43.69041" lon="4.07158">
        <ele>79.517614112434</ele>
        <time>2020-11-25T14:16:34.000+01:00</time>
      </trkpt>
      <trkpt lat="43.6904" lon="4.07157">
        <ele>79.529738737405</ele>
        <time>2020-11-25T14:16:35.000+01:00</time>
      </trkpt>
      <trkpt lat="43.6904" lon="4.07156">
        <ele>79.541777440943</ele>
        <time>2020-11-25T14:16:36.000+01:00</time>
      </trkpt>
      <trkpt lat="43.69039" lon="4.07155">
        <ele>79.553585798055</ele>
        <time>2020-11-25T14:16:37.000+01:00</time>
      </trkpt>
      <trkpt lat="43.69038" lon="4.07154">
        <ele>79.565384507943</ele>
        <time>2020-11-25T14:16:38.000+01:00</time>
      </trkpt>
      <trkpt lat="43.69038" lon="4.07153">
        <ele>79.577191453476</ele>
        <time>2020-11-25T14:16:39.000+01:00</time>
      </trkpt>
      <trkpt lat="43.69037" lon="4.07152">
        <ele>79.588852837029</ele>
        <time>2020-11-25T14:16:40.000+01:00</time>
      </trkpt>
      <trkpt lat="43.69036" lon="4.07151">
        <ele>79.600503341402</ele>
        <time>2020-11-25T14:16:41.000+01:00</time>
      </trkpt>
      <trkpt lat="43.69036" lon="4.0715">
        <ele>79.612469679291</ele>
        <time>2020-11-25T14:16:42.000+01:00</time>
      </trkpt>
      <trkpt lat="43.69035" lon="4.07149">
        <ele>79.624089455932</ele>
        <time>2020-11-25T14:16:43.000+01:00</time>
      </trkpt>
      <trkpt lat="43.69035" lon="4.07148">
        <ele>79.635511476184</ele>
        <time>2020-11-25T14:16:44.000+01:00</time>
      </trkpt>
      <trkpt lat="43.69034" lon="4.07147">
        <ele>79.646806435234</ele>
        <time>2020-11-25T14:16:45.000+01:00</time>
      </trkpt>
      <trkpt lat="43.69034" lon="4.07146">
        <ele>79.657890897737</ele>
        <time>2020-11-25T14:16:46.000+01:00</time>
      </trkpt>
      <trkpt lat="43.69033" lon="4.07145">
        <ele>79.668856832773</ele>
        <time>2020-11-25T14:16:47.000+01:00</time>
      </trkpt>
      <trkpt lat="43.69032" lon="4.07144">
        <ele>79.679785569705</ele>
        <time>2020-11-25T14:16:48.000+01:00</time>
      </trkpt>
      <trkpt lat="43.69032" lon="4.07143">
        <ele>79.690411677221</ele>
        <time>2020-11-25T14:16:49.000+01:00</time>
      </trkpt>
      <trkpt lat="43.69032" lon="4.07142">
        <ele>79.700998327608</ele>
        <time>2020-11-25T14:16:50.000+01:00</time>
      </trkpt>
      <trkpt lat="43.69031" lon="4.07141">
        <ele>79.711465436568</ele>
        <time>2020-11-25T14:16:51.000+01:00</time>
      </trkpt>
      <trkpt lat="43.69031" lon="4.07139">
        <ele>79.721862232502</ele>
        <time>2020-11-25T14:16:52.000+01:00</time>
      </trkpt>
      <trkpt lat="43.69031" lon="4.07138">
        <ele>79.732157292729</ele>
        <time>2020-11-25T14:16:53.000+01:00</time>
      </trkpt>
      <trkpt lat="43.69031" lon="4.07137">
        <ele>79.742422132344</ele>
        <time>2020-11-25T14:16:54.000+01:00</time>
      </trkpt>
      <trkpt lat="43.6903" lon="4.07136">
        <ele>79.752428792995</ele>
        <time>2020-11-25T14:16:55.000+01:00</time>
      </trkpt>
      <trkpt lat="43.6903" lon="4.07134">
        <ele>79.762240130468</ele>
        <time>2020-11-25T14:16:56.000+01:00</time>
      </trkpt>
      <trkpt lat="43.6903" lon="4.07133">
        <ele>79.772040358351</ele>
        <time>2020-11-25T14:16:57.000+01:00</time>
      </trkpt>
      <trkpt lat="43.6903" lon="4.07132">
        <ele>79.781825145852</ele>
        <time>2020-11-25T14:16:58.000+01:00</time>
      </trkpt>
      <trkpt lat="43.6903" lon="4.0713">
        <ele>79.791513298984</ele>
        <time>2020-11-25T14:16:59.000+01:00</time>
      </trkpt>
      <trkpt lat="43.69029" lon="4.07129">
        <ele>79.801196675924</ele>
        <time>2020-11-25T14:17:00.000+01:00</time>
      </trkpt>
      <trkpt lat="43.69029" lon="4.07127">
        <ele>79.81091978439</ele>
        <time>2020-11-25T14:17:01.000+01:00</time>
      </trkpt>
      <trkpt lat="43.69029" lon="4.07126">
        <ele>79.820584275019</ele>
        <time>2020-11-25T14:17:02.000+01:00</time>
      </trkpt>
      <trkpt lat="43.69028" lon="4.07125">
        <ele>79.830184406785</ele>
        <time>2020-11-25T14:17:03.000+01:00</time>
      </trkpt>
      <trkpt lat="43.69028" lon="4.07123">
        <ele>79.839654730815</ele>
        <time>2020-11-25T14:17:04.000+01:00</time>
      </trkpt>
      <trkpt lat="43.69027" lon="4.07122">
        <ele>79.848817913601</ele>
        <time>2020-11-25T14:17:05.000+01:00</time>
      </trkpt>
      <trkpt lat="43.69027" lon="4.0712">
        <ele>79.857939528131</ele>
        <time>2020-11-25T14:17:06.000+01:00</time>
      </trkpt>
      <trkpt lat="43.69027" lon="4.07119">
        <ele>79.867212911027</ele>
        <time>2020-11-25T14:17:07.000+01:00</time>
      </trkpt>
      <trkpt lat="43.69026" lon="4.07118">
        <ele>79.876377600703</ele>
        <time>2020-11-25T14:17:08.000+01:00</time>
      </trkpt>
      <trkpt lat="43.69026" lon="4.07116">
        <ele>79.885475087624</ele>
        <time>2020-11-25T14:17:09.000+01:00</time>
      </trkpt>
      <trkpt lat="43.69025" lon="4.07115">
        <ele>79.894470365061</ele>
        <time>2020-11-25T14:17:10.000+01:00</time>
      </trkpt>
      <trkpt lat="43.69025" lon="4.07114">
        <ele>79.903479782793</ele>
        <time>2020-11-25T14:17:11.000+01:00</time>
      </trkpt>
      <trkpt lat="43.69025" lon="4.07112">
        <ele>79.912562440678</ele>
        <time>2020-11-25T14:17:12.000+01:00</time>
      </trkpt>
      <trkpt lat="43.69025" lon="4.07111">
        <ele>79.921693720502</ele>
        <time>2020-11-25T14:17:13.000+01:00</time>
      </trkpt>
      <trkpt lat="43.69024" lon="4.0711">
        <ele>79.93065271751</ele>
        <time>2020-11-25T14:17:14.000+01:00</time>
      </trkpt>
      <trkpt lat="43.69024" lon="4.07108">
        <ele>79.939595786252</ele>
        <time>2020-11-25T14:17:15.000+01:00</time>
      </trkpt>
      <trkpt lat="43.69024" lon="4.07107">
        <ele>79.94853187258</ele>
        <time>2020-11-25T14:17:16.000+01:00</time>
      </trkpt>
      <trkpt lat="43.69024" lon="4.07106">
        <ele>79.957531528475</ele>
        <time>2020-11-25T14:17:17.000+01:00</time>
      </trkpt>
      <trkpt lat="43.69023" lon="4.07105">
        <ele>79.966280560273</ele>
        <time>2020-11-25T14:17:18.000+01:00</time>
      </trkpt>
      <trkpt lat="43.69023" lon="4.07103">
        <ele>79.975223627516</ele>
        <time>2020-11-25T14:17:19.000+01:00</time>
      </trkpt>
      <trkpt lat="43.69022" lon="4.07101">
        <ele>79.984380096949</ele>
        <time>2020-11-25T14:17:20.000+01:00</time>
      </trkpt>
      <trkpt lat="43.69021" lon="4.071">
        <ele>79.993661085424</ele>
        <time>2020-11-25T14:17:21.000+01:00</time>
      </trkpt>
      <trkpt lat="43.69021" lon="4.07099">
        <ele>80.003064102402</ele>
        <time>2020-11-25T14:17:22.000+01:00</time>
      </trkpt>
      <trkpt lat="43.6902" lon="4.07097">
        <ele>80.012550045519</ele>
        <time>2020-11-25T14:17:23.000+01:00</time>
      </trkpt>
      <trkpt lat="43.6902" lon="4.07096">
        <ele>80.022049068892</ele>
        <time>2020-11-25T14:17:24.000+01:00</time>
      </trkpt>
      <trkpt lat="43.6902" lon="4.07094">
        <ele>80.031574577539</ele>
        <time>2020-11-25T14:17:25.000+01:00</time>
      </trkpt>
      <trkpt lat="43.69019" lon="4.07093">
        <ele>80.040923370135</ele>
        <time>2020-11-25T14:17:26.000+01:00</time>
      </trkpt>
      <trkpt lat="43.69019" lon="4.07091">
        <ele>80.050304336163</ele>
        <time>2020-11-25T14:17:27.000+01:00</time>
      </trkpt>
      <trkpt lat="43.69018" lon="4.0709">
        <ele>80.059621999696</ele>
        <time>2020-11-25T14:17:28.000+01:00</time>
      </trkpt>
      <trkpt lat="43.69018" lon="4.07089">
        <ele>80.068834857961</ele>
        <time>2020-11-25T14:17:29.000+01:00</time>
      </trkpt>
      <trkpt lat="43.69018" lon="4.07088">
        <ele>80.077806650104</ele>
        <time>2020-11-25T14:17:30.000+01:00</time>
      </trkpt>
      <trkpt lat="43.69018" lon="4.07086">
        <ele>80.086604576183</ele>
        <time>2020-11-25T14:17:31.000+01:00</time>
      </trkpt>
      <trkpt lat="43.69017" lon="4.07085">
        <ele>80.095288168055</ele>
        <time>2020-11-25T14:17:32.000+01:00</time>
      </trkpt>
      <trkpt lat="43.69017" lon="4.07084">
        <ele>80.103967591183</ele>
        <time>2020-11-25T14:17:33.000+01:00</time>
      </trkpt>
      <trkpt lat="43.69017" lon="4.07082">
        <ele>80.112400967225</ele>
        <time>2020-11-25T14:17:34.000+01:00</time>
      </trkpt>
      <trkpt lat="43.69017" lon="4.07081">
        <ele>80.120774847695</ele>
        <time>2020-11-25T14:17:35.000+01:00</time>
      </trkpt>
      <trkpt lat="43.69017" lon="4.0708">
        <ele>80.129113650915</ele>
        <time>2020-11-25T14:17:36.000+01:00</time>
      </trkpt>
      <trkpt lat="43.69016" lon="4.07079">
        <ele>80.137305504748</ele>
        <time>2020-11-25T14:17:37.000+01:00</time>
      </trkpt>
      <trkpt lat="43.69016" lon="4.07077">
        <ele>80.145527038543</ele>
        <time>2020-11-25T14:17:38.000+01:00</time>
      </trkpt>
      <trkpt lat="43.69016" lon="4.07076">
        <ele>80.153773475974</ele>
        <time>2020-11-25T14:17:39.000+01:00</time>
      </trkpt>
      <trkpt lat="43.69016" lon="4.07075">
        <ele>80.162104609648</ele>
        <time>2020-11-25T14:17:40.000+01:00</time>
      </trkpt>
      <trkpt lat="43.69016" lon="4.07074">
        <ele>80.170346963759</ele>
        <time>2020-11-25T14:17:41.000+01:00</time>
      </trkpt>
      <trkpt lat="43.69015" lon="4.07072">
        <ele>80.178662878502</ele>
        <time>2020-11-25T14:17:42.000+01:00</time>
      </trkpt>
      <trkpt lat="43.69014" lon="4.07071">
        <ele>80.186948467425</ele>
        <time>2020-11-25T14:17:43.000+01:00</time>
      </trkpt>
      <trkpt lat="43.69014" lon="4.07069">
        <ele>80.195188227511</ele>
        <time>2020-11-25T14:17:44.000+01:00</time>
      </trkpt>
      <trkpt lat="43.69013" lon="4.07067">
        <ele>80.20337071102</ele>
        <time>2020-11-25T14:17:45.000+01:00</time>
      </trkpt>
      <trkpt lat="43.69013" lon="4.07066">
        <ele>80.211475395316</ele>
        <time>2020-11-25T14:17:46.000+01:00</time>
      </trkpt>
      <trkpt lat="43.69012" lon="4.07065">
        <ele>80.219476866494</ele>
        <time>2020-11-25T14:17:47.000+01:00</time>
      </trkpt>
      <trkpt lat="43.69012" lon="4.07063">
        <ele>80.227438996606</ele>
        <time>2020-11-25T14:17:48.000+01:00</time>
      </trkpt>
      <trkpt lat="43.69011" lon="4.07061">
        <ele>80.235339537587</ele>
        <time>2020-11-25T14:17:49.000+01:00</time>
      </trkpt>
      <trkpt lat="43.69011" lon="4.0706">
        <ele>80.24332693182</ele>
        <time>2020-11-25T14:17:50.000+01:00</time>
      </trkpt>
      <trkpt lat="43.69011" lon="4.07059">
        <ele>80.251499653922</ele>
        <time>2020-11-25T14:17:51.000+01:00</time>
      </trkpt>
      <trkpt lat="43.6901" lon="4.07057">
        <ele>80.25959242186</ele>
        <time>2020-11-25T14:17:52.000+01:00</time>
      </trkpt>
      <trkpt lat="43.6901" lon="4.07055">
        <ele>80.267737641002</ele>
        <time>2020-11-25T14:17:53.000+01:00</time>
      </trkpt>
      <trkpt lat="43.69009" lon="4.07054">
        <ele>80.27592389345</ele>
        <time>2020-11-25T14:17:54.000+01:00</time>
      </trkpt>
      <trkpt lat="43.69009" lon="4.07052">
        <ele>80.284066326398</ele>
        <time>2020-11-25T14:17:55.000+01:00</time>
      </trkpt>
      <trkpt lat="43.69008" lon="4.07051">
        <ele>80.292062368712</ele>
        <time>2020-11-25T14:17:56.000+01:00</time>
      </trkpt>
      <trkpt lat="43.69008" lon="4.0705">
        <ele>80.300007707669</ele>
        <time>2020-11-25T14:17:57.000+01:00</time>
      </trkpt>
      <trkpt lat="43.69008" lon="4.07048">
        <ele>80.307877538958</ele>
        <time>2020-11-25T14:17:58.000+01:00</time>
      </trkpt>
      <trkpt lat="43.69008" lon="4.07046">
        <ele>80.31574193507</ele>
        <time>2020-11-25T14:17:59.000+01:00</time>
      </trkpt>
      <trkpt lat="43.69007" lon="4.07045">
        <ele>80.323607052879</ele>
        <time>2020-11-25T14:18:00.000+01:00</time>
      </trkpt>
      <trkpt lat="43.69007" lon="4.07043">
        <ele>80.331321119726</ele>
        <time>2020-11-25T14:18:01.000+01:00</time>
      </trkpt>
      <trkpt lat="43.69006" lon="4.07042">
        <ele>80.33900159743</ele>
        <time>2020-11-25T14:18:02.000+01:00</time>
      </trkpt>
      <trkpt lat="43.69006" lon="4.07041">
        <ele>80.346741242078</ele>
        <time>2020-11-25T14:18:03.000+01:00</time>
      </trkpt>
      <trkpt lat="43.69006" lon="4.07039">
        <ele>80.354329714073</ele>
        <time>2020-11-25T14:18:04.000+01:00</time>
      </trkpt>
      <trkpt lat="43.69005" lon="4.07038">
        <ele>80.361728237032</ele>
        <time>2020-11-25T14:18:05.000+01:00</time>
      </trkpt>
      <trkpt lat="43.69005" lon="4.07036">
        <ele>80.369007458506</ele>
        <time>2020-11-25T14:18:06.000+01:00</time>
      </trkpt>
      <trkpt lat="43.69004" lon="4.07035">
        <ele>80.376110237623</ele>
        <time>2020-11-25T14:18:07.000+01:00</time>
      </trkpt>
      <trkpt lat="43.69004" lon="4.07033">
        <ele>80.382998112043</ele>
        <time>2020-11-25T14:18:08.000+01:00</time>
      </trkpt>
      <trkpt lat="43.69004" lon="4.07032">
        <ele>80.389718673229</ele>
        <time>2020-11-25T14:18:09.000+01:00</time>
      </trkpt>
      <trkpt lat="43.69004" lon="4.0703">
        <ele>80.396404873831</ele>
        <time>2020-11-25T14:18:10.000+01:00</time>
      </trkpt>
      <trkpt lat="43.69003" lon="4.07029">
        <ele>80.402827886637</ele>
        <time>2020-11-25T14:18:11.000+01:00</time>
      </trkpt>
      <trkpt lat="43.69003" lon="4.07028">
        <ele>80.40901061941</ele>
        <time>2020-11-25T14:18:12.000+01:00</time>
      </trkpt>
      <trkpt lat="43.69003" lon="4.07026">
        <ele>80.415073243312</ele>
        <time>2020-11-25T14:18:13.000+01:00</time>
      </trkpt>
      <trkpt lat="43.69002" lon="4.07025">
        <ele>80.421183639823</ele>
        <time>2020-11-25T14:18:14.000+01:00</time>
      </trkpt>
      <trkpt lat="43.69002" lon="4.07024">
        <ele>80.427432037348</ele>
        <time>2020-11-25T14:18:15.000+01:00</time>
      </trkpt>
      <trkpt lat="43.69002" lon="4.07023">
        <ele>80.433658167835</ele>
        <time>2020-11-25T14:18:16.000+01:00</time>
      </trkpt>
      <trkpt lat="43.69001" lon="4.07022">
        <ele>80.439889671988</ele>
        <time>2020-11-25T14:18:17.000+01:00</time>
      </trkpt>
      <trkpt lat="43.69001" lon="4.07021">
        <ele>80.446099516193</ele>
        <time>2020-11-25T14:18:18.000+01:00</time>
      </trkpt>
      <trkpt lat="43.69001" lon="4.07019">
        <ele>80.45233884798</ele>
        <time>2020-11-25T14:18:19.000+01:00</time>
      </trkpt>
      <trkpt lat="43.69" lon="4.07018">
        <ele>80.458621738296</ele>
        <time>2020-11-25T14:18:20.000+01:00</time>
      </trkpt>
      <trkpt lat="43.68999" lon="4.07017">
        <ele>80.465061906055</ele>
        <time>2020-11-25T14:18:21.000+01:00</time>
      </trkpt>
      <trkpt lat="43.68999" lon="4.07015">
        <ele>80.471666724625</ele>
        <time>2020-11-25T14:18:22.000+01:00</time>
      </trkpt>
      <trkpt lat="43.68999" lon="4.07014">
        <ele>80.47843085963</ele>
        <time>2020-11-25T14:18:23.000+01:00</time>
      </trkpt>
      <trkpt lat="43.68999" lon="4.07013">
        <ele>80.485276274223</ele>
        <time>2020-11-25T14:18:24.000+01:00</time>
      </trkpt>
      <trkpt lat="43.68998" lon="4.07012">
        <ele>80.49207847329</ele>
        <time>2020-11-25T14:18:25.000+01:00</time>
      </trkpt>
      <trkpt lat="43.68997" lon="4.07011">
        <ele>80.498964410623</ele>
        <time>2020-11-25T14:18:26.000+01:00</time>
      </trkpt>
      <trkpt lat="43.68997" lon="4.07009">
        <ele>80.505911940614</ele>
        <time>2020-11-25T14:18:27.000+01:00</time>
      </trkpt>
      <trkpt lat="43.68996" lon="4.07008">
        <ele>80.512905109544</ele>
        <time>2020-11-25T14:18:28.000+01:00</time>
      </trkpt>
      <trkpt lat="43.68996" lon="4.07007">
        <ele>80.520099353643</ele>
        <time>2020-11-25T14:18:29.000+01:00</time>
      </trkpt>
      <trkpt lat="43.68996" lon="4.07006">
        <ele>80.527455217586</ele>
        <time>2020-11-25T14:18:30.000+01:00</time>
      </trkpt>
      <trkpt lat="43.68996" lon="4.07005">
        <ele>80.534865692174</ele>
        <time>2020-11-25T14:18:31.000+01:00</time>
      </trkpt>
      <trkpt lat="43.68996" lon="4.07004">
        <ele>80.54242487195</ele>
        <time>2020-11-25T14:18:32.000+01:00</time>
      </trkpt>
      <trkpt lat="43.68996" lon="4.07003">
        <ele>80.550056006506</ele>
        <time>2020-11-25T14:18:33.000+01:00</time>
      </trkpt>
      <trkpt lat="43.68996" lon="4.07002">
        <ele>80.557652901011</ele>
        <time>2020-11-25T14:18:34.000+01:00</time>
      </trkpt>
      <trkpt lat="43.68996" lon="4.07">
        <ele>80.565306852336</ele>
        <time>2020-11-25T14:18:35.000+01:00</time>
      </trkpt>
      <trkpt lat="43.68996" lon="4.06999">
        <ele>80.572770689501</ele>
        <time>2020-11-25T14:18:36.000+01:00</time>
      </trkpt>
      <trkpt lat="43.68995" lon="4.06998">
        <ele>80.580073960786</ele>
        <time>2020-11-25T14:18:37.000+01:00</time>
      </trkpt>
      <trkpt lat="43.68995" lon="4.06997">
        <ele>80.587264194186</ele>
        <time>2020-11-25T14:18:38.000+01:00</time>
      </trkpt>
      <trkpt lat="43.68995" lon="4.06995">
        <ele>80.594439475301</ele>
        <time>2020-11-25T14:18:39.000+01:00</time>
      </trkpt>
      <trkpt lat="43.68995" lon="4.06994">
        <ele>80.601532589397</ele>
        <time>2020-11-25T14:18:40.000+01:00</time>
      </trkpt>
      <trkpt lat="43.68994" lon="4.06993">
        <ele>80.608599925575</ele>
        <time>2020-11-25T14:18:41.000+01:00</time>
      </trkpt>
      <trkpt lat="43.68994" lon="4.06991">
        <ele>80.615777525281</ele>
        <time>2020-11-25T14:18:42.000+01:00</time>
      </trkpt>
      <trkpt lat="43.68994" lon="4.0699">
        <ele>80.623074080257</ele>
        <time>2020-11-25T14:18:43.000+01:00</time>
      </trkpt>
      <trkpt lat="43.68993" lon="4.06989">
        <ele>80.630519227062</ele>
        <time>2020-11-25T14:18:44.000+01:00</time>
      </trkpt>
      <trkpt lat="43.68993" lon="4.06988">
        <ele>80.637907794025</ele>
        <time>2020-11-25T14:18:45.000+01:00</time>
      </trkpt>
      <trkpt lat="43.68993" lon="4.06986">
        <ele>80.645287912286</ele>
        <time>2020-11-25T14:18:46.000+01:00</time>
      </trkpt>
      <trkpt lat="43.68992" lon="4.06985">
        <ele>80.652713328317</ele>
        <time>2020-11-25T14:18:47.000+01:00</time>
      </trkpt>
      <trkpt lat="43.68992" lon="4.06984">
        <ele>80.66020357783</ele>
        <time>2020-11-25T14:18:48.000+01:00</time>
      </trkpt>
      <trkpt lat="43.68992" lon="4.06983">
        <ele>80.667681175279</ele>
        <time>2020-11-25T14:18:49.000+01:00</time>
      </trkpt>
      <trkpt lat="43.68991" lon="4.06981">
        <ele>80.675088475465</ele>
        <time>2020-11-25T14:18:50.000+01:00</time>
      </trkpt>
      <trkpt lat="43.6899" lon="4.0698">
        <ele>80.682295000371</ele>
        <time>2020-11-25T14:18:51.000+01:00</time>
      </trkpt>
      <trkpt lat="43.6899" lon="4.06979">
        <ele>80.689442642213</ele>
        <time>2020-11-25T14:18:52.000+01:00</time>
      </trkpt>
      <trkpt lat="43.6899" lon="4.06978">
        <ele>80.696607263504</ele>
        <time>2020-11-25T14:18:53.000+01:00</time>
      </trkpt>
      <trkpt lat="43.68989" lon="4.06977">
        <ele>80.703718938465</ele>
        <time>2020-11-25T14:18:54.000+01:00</time>
      </trkpt>
      <trkpt lat="43.68988" lon="4.06976">
        <ele>80.71075644592</ele>
        <time>2020-11-25T14:18:55.000+01:00</time>
      </trkpt>
      <trkpt lat="43.68988" lon="4.06975">
        <ele>80.717822510781</ele>
        <time>2020-11-25T14:18:56.000+01:00</time>
      </trkpt>
      <trkpt lat="43.68987" lon="4.06973">
        <ele>80.725015298184</ele>
        <time>2020-11-25T14:18:57.000+01:00</time>
      </trkpt>
      <trkpt lat="43.68987" lon="4.06972">
        <ele>80.73223780429</ele>
        <time>2020-11-25T14:18:58.000+01:00</time>
      </trkpt>
      <trkpt lat="43.68986" lon="4.06971">
        <ele>80.739440918549</ele>
        <time>2020-11-25T14:18:59.000+01:00</time>
      </trkpt>
      <trkpt lat="43.68986" lon="4.0697">
        <ele>80.746910383559</ele>
        <time>2020-11-25T14:19:00.000+01:00</time>
      </trkpt>
      <trkpt lat="43.68985" lon="4.06968">
        <ele>80.754468331862</ele>
        <time>2020-11-25T14:19:01.000+01:00</time>
      </trkpt>
      <trkpt lat="43.68985" lon="4.06967">
        <ele>80.762028814317</ele>
        <time>2020-11-25T14:19:02.000+01:00</time>
      </trkpt>
      <trkpt lat="43.68984" lon="4.06965">
        <ele>80.769551939765</ele>
        <time>2020-11-25T14:19:03.000+01:00</time>
      </trkpt>
      <trkpt lat="43.68984" lon="4.06964">
        <ele>80.777297708635</ele>
        <time>2020-11-25T14:19:04.000+01:00</time>
      </trkpt>
      <trkpt lat="43.68983" lon="4.06963">
        <ele>80.785141701292</ele>
        <time>2020-11-25T14:19:05.000+01:00</time>
      </trkpt>
      <trkpt lat="43.68983" lon="4.06962">
        <ele>80.79280800588</ele>
        <time>2020-11-25T14:19:06.000+01:00</time>
      </trkpt>
      <trkpt lat="43.68982" lon="4.06961">
        <ele>80.80037443697</ele>
        <time>2020-11-25T14:19:07.000+01:00</time>
      </trkpt>
      <trkpt lat="43.68982" lon="4.0696">
        <ele>80.80800032153</ele>
        <time>2020-11-25T14:19:08.000+01:00</time>
      </trkpt>
      <trkpt lat="43.68982" lon="4.06959">
        <ele>80.815513694354</ele>
        <time>2020-11-25T14:19:09.000+01:00</time>
      </trkpt>
      <trkpt lat="43.68981" lon="4.06958">
        <ele>80.822972867167</ele>
        <time>2020-11-25T14:19:10.000+01:00</time>
      </trkpt>
      <trkpt lat="43.68981" lon="4.06957">
        <ele>80.83043685817</ele>
        <time>2020-11-25T14:19:11.000+01:00</time>
      </trkpt>
      <trkpt lat="43.68981" lon="4.06956">
        <ele>80.837593227786</ele>
        <time>2020-11-25T14:19:12.000+01:00</time>
      </trkpt>
      <trkpt lat="43.68981" lon="4.06955">
        <ele>80.844867979084</ele>
        <time>2020-11-25T14:19:13.000+01:00</time>
      </trkpt>
      <trkpt lat="43.68981" lon="4.06954">
        <ele>80.851943862737</ele>
        <time>2020-11-25T14:19:14.000+01:00</time>
      </trkpt>
      <trkpt lat="43.68981" lon="4.06953">
        <ele>80.85904833429</ele>
        <time>2020-11-25T14:19:15.000+01:00</time>
      </trkpt>
      <trkpt lat="43.68981" lon="4.06952">
        <ele>80.866041737419</ele>
        <time>2020-11-25T14:19:16.000+01:00</time>
      </trkpt>
      <trkpt lat="43.6898" lon="4.0695">
        <ele>80.872916138323</ele>
        <time>2020-11-25T14:19:17.000+01:00</time>
      </trkpt>
      <trkpt lat="43.68979" lon="4.06949">
        <ele>80.879801028698</ele>
        <time>2020-11-25T14:19:18.000+01:00</time>
      </trkpt>
      <trkpt lat="43.68979" lon="4.06948">
        <ele>80.886801614299</ele>
        <time>2020-11-25T14:19:19.000+01:00</time>
      </trkpt>
      <trkpt lat="43.68978" lon="4.06947">
        <ele>80.893753742006</ele>
        <time>2020-11-25T14:19:20.000+01:00</time>
      </trkpt>
      <trkpt lat="43.68978" lon="4.06945">
        <ele>80.900733728293</ele>
        <time>2020-11-25T14:19:21.000+01:00</time>
      </trkpt>
      <trkpt lat="43.68978" lon="4.06945">
        <ele>80.907705014957</ele>
        <time>2020-11-25T14:19:22.000+01:00</time>
      </trkpt>
      <trkpt lat="43.68978" lon="4.06944">
        <ele>80.91463998244</ele>
        <time>2020-11-25T14:19:23.000+01:00</time>
      </trkpt>
      <trkpt lat="43.68978" lon="4.06944">
        <ele>80.921563348145</ele>
        <time>2020-11-25T14:19:24.000+01:00</time>
      </trkpt>
      <trkpt lat="43.68978" lon="4.06943">
        <ele>80.928516849519</ele>
        <time>2020-11-25T14:19:25.000+01:00</time>
      </trkpt>
      <trkpt lat="43.68978" lon="4.06942">
        <ele>80.935505895442</ele>
        <time>2020-11-25T14:19:26.000+01:00</time>
      </trkpt>
      <trkpt lat="43.68978" lon="4.06941">
        <ele>80.942508437364</ele>
        <time>2020-11-25T14:19:27.000+01:00</time>
      </trkpt>
      <trkpt lat="43.68978" lon="4.0694">
        <ele>80.949282999095</ele>
        <time>2020-11-25T14:19:28.000+01:00</time>
      </trkpt>
      <trkpt lat="43.68977" lon="4.06938">
        <ele>80.955991180158</ele>
        <time>2020-11-25T14:19:29.000+01:00</time>
      </trkpt>
      <trkpt lat="43.68977" lon="4.06936">
        <ele>80.962700773213</ele>
        <time>2020-11-25T14:19:30.000+01:00</time>
      </trkpt>
      <trkpt lat="43.68976" lon="4.06934">
        <ele>80.969405978565</ele>
        <time>2020-11-25T14:19:31.000+01:00</time>
      </trkpt>
      <trkpt lat="43.68976" lon="4.06933">
        <ele>80.976153038467</ele>
        <time>2020-11-25T14:19:32.000+01:00</time>
      </trkpt>
      <trkpt lat="43.68975" lon="4.06931">
        <ele>80.98282285076</ele>
        <time>2020-11-25T14:19:33.000+01:00</time>
      </trkpt>
      <trkpt lat="43.68975" lon="4.06931">
        <ele>80.989318585458</ele>
        <time>2020-11-25T14:19:34.000+01:00</time>
      </trkpt>
      <trkpt lat="43.68974" lon="4.0693">
        <ele>80.995601913674</ele>
        <time>2020-11-25T14:19:35.000+01:00</time>
      </trkpt>
      <trkpt lat="43.68974" lon="4.06929">
        <ele>81.001740944793</ele>
        <time>2020-11-25T14:19:36.000+01:00</time>
      </trkpt>
      <trkpt lat="43.68973" lon="4.06927">
        <ele>81.007794634379</ele>
        <time>2020-11-25T14:19:37.000+01:00</time>
      </trkpt>
      <trkpt lat="43.68973" lon="4.06925">
        <ele>81.013777906558</ele>
        <time>2020-11-25T14:19:38.000+01:00</time>
      </trkpt>
      <trkpt lat="43.68972" lon="4.06922">
        <ele>81.019529567831</ele>
        <time>2020-11-25T14:19:39.000+01:00</time>
      </trkpt>
      <trkpt lat="43.68972" lon="4.06921">
        <ele>81.025198754498</ele>
        <time>2020-11-25T14:19:40.000+01:00</time>
      </trkpt>
      <trkpt lat="43.68971" lon="4.0692">
        <ele>81.030738327729</ele>
        <time>2020-11-25T14:19:41.000+01:00</time>
      </trkpt>
      <trkpt lat="43.68971" lon="4.06919">
        <ele>81.036143451789</ele>
        <time>2020-11-25T14:19:42.000+01:00</time>
      </trkpt>
      <trkpt lat="43.68971" lon="4.06917">
        <ele>81.041455003824</ele>
        <time>2020-11-25T14:19:43.000+01:00</time>
      </trkpt>
      <trkpt lat="43.6897" lon="4.06915">
        <ele>81.046892493144</ele>
        <time>2020-11-25T14:19:44.000+01:00</time>
      </trkpt>
      <trkpt lat="43.6897" lon="4.06913">
        <ele>81.052546783418</ele>
        <time>2020-11-25T14:19:45.000+01:00</time>
      </trkpt>
      <trkpt lat="43.6897" lon="4.06912">
        <ele>81.058436389838</ele>
        <time>2020-11-25T14:19:46.000+01:00</time>
      </trkpt>
      <trkpt lat="43.6897" lon="4.0691">
        <ele>81.064734855951</ele>
        <time>2020-11-25T14:19:47.000+01:00</time>
      </trkpt>
      <trkpt lat="43.6897" lon="4.06908">
        <ele>81.071409696652</ele>
        <time>2020-11-25T14:19:48.000+01:00</time>
      </trkpt>
      <trkpt lat="43.6897" lon="4.06907">
        <ele>81.078318030069</ele>
        <time>2020-11-25T14:19:49.000+01:00</time>
      </trkpt>
      <trkpt lat="43.6897" lon="4.06905">
        <ele>81.085483276902</ele>
        <time>2020-11-25T14:19:50.000+01:00</time>
      </trkpt>
      <trkpt lat="43.6897" lon="4.06904">
        <ele>81.092892998034</ele>
        <time>2020-11-25T14:19:51.000+01:00</time>
      </trkpt>
      <trkpt lat="43.6897" lon="4.06902">
        <ele>81.100565996732</ele>
        <time>2020-11-25T14:19:52.000+01:00</time>
      </trkpt>
      <trkpt lat="43.68969" lon="4.06901">
        <ele>81.108489181968</ele>
        <time>2020-11-25T14:19:53.000+01:00</time>
      </trkpt>
      <trkpt lat="43.68969" lon="4.06899">
        <ele>81.116669657344</ele>
        <time>2020-11-25T14:19:54.000+01:00</time>
      </trkpt>
      <trkpt lat="43.68968" lon="4.06897">
        <ele>81.125076818223</ele>
        <time>2020-11-25T14:19:55.000+01:00</time>
      </trkpt>
      <trkpt lat="43.68968" lon="4.06896">
        <ele>81.133710454145</ele>
        <time>2020-11-25T14:19:56.000+01:00</time>
      </trkpt>
      <trkpt lat="43.68967" lon="4.06894">
        <ele>81.142538791348</ele>
        <time>2020-11-25T14:19:57.000+01:00</time>
      </trkpt>
      <trkpt lat="43.68967" lon="4.06893">
        <ele>81.151536367681</ele>
        <time>2020-11-25T14:19:58.000+01:00</time>
      </trkpt>
      <trkpt lat="43.68966" lon="4.06892">
        <ele>81.160703978329</ele>
        <time>2020-11-25T14:19:59.000+01:00</time>
      </trkpt>
      <trkpt lat="43.68966" lon="4.0689">
        <ele>81.170106860971</ele>
        <time>2020-11-25T14:20:00.000+01:00</time>
      </trkpt>
      <trkpt lat="43.68965" lon="4.06889">
        <ele>81.179803027153</ele>
        <time>2020-11-25T14:20:01.000+01:00</time>
      </trkpt>
      <trkpt lat="43.68964" lon="4.06888">
        <ele>81.189862176035</ele>
        <time>2020-11-25T14:20:02.000+01:00</time>
      </trkpt>
      <trkpt lat="43.68964" lon="4.06886">
        <ele>81.200213293678</ele>
        <time>2020-11-25T14:20:03.000+01:00</time>
      </trkpt>
      <trkpt lat="43.68964" lon="4.06885">
        <ele>81.210817433045</ele>
        <time>2020-11-25T14:20:04.000+01:00</time>
      </trkpt>
      <trkpt lat="43.68963" lon="4.06884">
        <ele>81.221748083681</ele>
        <time>2020-11-25T14:20:05.000+01:00</time>
      </trkpt>
      <trkpt lat="43.68963" lon="4.06883">
        <ele>81.232894142916</ele>
        <time>2020-11-25T14:20:06.000+01:00</time>
      </trkpt>
      <trkpt lat="43.68963" lon="4.06882">
        <ele>81.244222819719</ele>
        <time>2020-11-25T14:20:07.000+01:00</time>
      </trkpt>
      <trkpt lat="43.68962" lon="4.06881">
        <ele>81.255706051282</ele>
        <time>2020-11-25T14:20:08.000+01:00</time>
      </trkpt>
      <trkpt lat="43.68962" lon="4.0688">
        <ele>81.267366163696</ele>
        <time>2020-11-25T14:20:09.000+01:00</time>
      </trkpt>
      <trkpt lat="43.68962" lon="4.06879">
        <ele>81.279264243887</ele>
        <time>2020-11-25T14:20:10.000+01:00</time>
      </trkpt>
      <trkpt lat="43.68961" lon="4.06878">
        <ele>81.291268256873</ele>
        <time>2020-11-25T14:20:11.000+01:00</time>
      </trkpt>
      <trkpt lat="43.68961" lon="4.06876">
        <ele>81.303445820715</ele>
        <time>2020-11-25T14:20:12.000+01:00</time>
      </trkpt>
      <trkpt lat="43.68961" lon="4.06875">
        <ele>81.315830835385</ele>
        <time>2020-11-25T14:20:13.000+01:00</time>
      </trkpt>
      <trkpt lat="43.6896" lon="4.06874">
        <ele>81.328381146001</ele>
        <time>2020-11-25T14:20:14.000+01:00</time>
      </trkpt>
      <trkpt lat="43.6896" lon="4.06873">
        <ele>81.341118052972</ele>
        <time>2020-11-25T14:20:15.000+01:00</time>
      </trkpt>
      <trkpt lat="43.6896" lon="4.06872">
        <ele>81.35390712275</ele>
        <time>2020-11-25T14:20:16.000+01:00</time>
      </trkpt>
      <trkpt lat="43.68959" lon="4.06871">
        <ele>81.366699916626</ele>
        <time>2020-11-25T14:20:17.000+01:00</time>
      </trkpt>
      <trkpt lat="43.68959" lon="4.06869">
        <ele>81.37961349093</ele>
        <time>2020-11-25T14:20:18.000+01:00</time>
      </trkpt>
      <trkpt lat="43.68959" lon="4.06869">
        <ele>81.392592425801</ele>
        <time>2020-11-25T14:20:19.000+01:00</time>
      </trkpt>
      <trkpt lat="43.68958" lon="4.06867">
        <ele>81.405539720318</ele>
        <time>2020-11-25T14:20:20.000+01:00</time>
      </trkpt>
      <trkpt lat="43.68958" lon="4.06866">
        <ele>81.418587837823</ele>
        <time>2020-11-25T14:20:21.000+01:00</time>
      </trkpt>
      <trkpt lat="43.68957" lon="4.06864">
        <ele>81.431756118492</ele>
        <time>2020-11-25T14:20:22.000+01:00</time>
      </trkpt>
      <trkpt lat="43.68956" lon="4.06862">
        <ele>81.445121988719</ele>
        <time>2020-11-25T14:20:23.000+01:00</time>
      </trkpt>
      <trkpt lat="43.68956" lon="4.06861">
        <ele>81.458509694273</ele>
        <time>2020-11-25T14:20:24.000+01:00</time>
      </trkpt>
      <trkpt lat="43.68955" lon="4.0686">
        <ele>81.47201393339</ele>
        <time>2020-11-25T14:20:25.000+01:00</time>
      </trkpt>
      <trkpt lat="43.68955" lon="4.06859">
        <ele>81.485495821969</ele>
        <time>2020-11-25T14:20:26.000+01:00</time>
      </trkpt>
      <trkpt lat="43.68955" lon="4.06858">
        <ele>81.498905613221</ele>
        <time>2020-11-25T14:20:27.000+01:00</time>
      </trkpt>
      <trkpt lat="43.68955" lon="4.06857">
        <ele>81.51224253546</ele>
        <time>2020-11-25T14:20:28.000+01:00</time>
      </trkpt>
      <trkpt lat="43.68955" lon="4.06856">
        <ele>81.525655240385</ele>
        <time>2020-11-25T14:20:29.000+01:00</time>
      </trkpt>
      <trkpt lat="43.68954" lon="4.06854">
        <ele>81.539130528833</ele>
        <time>2020-11-25T14:20:30.000+01:00</time>
      </trkpt>
      <trkpt lat="43.68955" lon="4.06853">
        <ele>81.55273705516</ele>
        <time>2020-11-25T14:20:31.000+01:00</time>
      </trkpt>
      <trkpt lat="43.68954" lon="4.06852">
        <ele>81.566506840381</ele>
        <time>2020-11-25T14:20:32.000+01:00</time>
      </trkpt>
      <trkpt lat="43.68954" lon="4.0685">
        <ele>81.58050551182</ele>
        <time>2020-11-25T14:20:33.000+01:00</time>
      </trkpt>
      <trkpt lat="43.68954" lon="4.06849">
        <ele>81.594716647777</ele>
        <time>2020-11-25T14:20:34.000+01:00</time>
      </trkpt>
      <trkpt lat="43.68954" lon="4.06847">
        <ele>81.609161275013</ele>
        <time>2020-11-25T14:20:35.000+01:00</time>
      </trkpt>
      <trkpt lat="43.68953" lon="4.06845">
        <ele>81.623792350842</ele>
        <time>2020-11-25T14:20:36.000+01:00</time>
      </trkpt>
      <trkpt lat="43.68953" lon="4.06844">
        <ele>81.638681166056</ele>
        <time>2020-11-25T14:20:37.000+01:00</time>
      </trkpt>
      <trkpt lat="43.68953" lon="4.06842">
        <ele>81.653772210765</ele>
        <time>2020-11-25T14:20:38.000+01:00</time>
      </trkpt>
      <trkpt lat="43.68952" lon="4.06841">
        <ele>81.668961837631</ele>
        <time>2020-11-25T14:20:39.000+01:00</time>
      </trkpt>
      <trkpt lat="43.68952" lon="4.06839">
        <ele>81.684224656778</ele>
        <time>2020-11-25T14:20:40.000+01:00</time>
      </trkpt>
      <trkpt lat="43.68952" lon="4.06838">
        <ele>81.699554658683</ele>
        <time>2020-11-25T14:20:41.000+01:00</time>
      </trkpt>
      <trkpt lat="43.68951" lon="4.06837">
        <ele>81.715006679625</ele>
        <time>2020-11-25T14:20:42.000+01:00</time>
      </trkpt>
      <trkpt lat="43.68951" lon="4.06835">
        <ele>81.730523816015</ele>
        <time>2020-11-25T14:20:43.000+01:00</time>
      </trkpt>
      <trkpt lat="43.6895" lon="4.06834">
        <ele>81.746123467266</ele>
        <time>2020-11-25T14:20:44.000+01:00</time>
      </trkpt>
      <trkpt lat="43.6895" lon="4.06832">
        <ele>81.761809746549</ele>
        <time>2020-11-25T14:20:45.000+01:00</time>
      </trkpt>
      <trkpt lat="43.6895" lon="4.06831">
        <ele>81.777552015811</ele>
        <time>2020-11-25T14:20:46.000+01:00</time>
      </trkpt>
      <trkpt lat="43.6895" lon="4.0683">
        <ele>81.793366452316</ele>
        <time>2020-11-25T14:20:47.000+01:00</time>
      </trkpt>
      <trkpt lat="43.68949" lon="4.06829">
        <ele>81.809313419904</ele>
        <time>2020-11-25T14:20:48.000+01:00</time>
      </trkpt>
      <trkpt lat="43.68949" lon="4.06828">
        <ele>81.82533069299</ele>
        <time>2020-11-25T14:20:49.000+01:00</time>
      </trkpt>
      <trkpt lat="43.68949" lon="4.06828">
        <ele>81.841343765778</ele>
        <time>2020-11-25T14:20:50.000+01:00</time>
      </trkpt>
      <trkpt lat="43.68948" lon="4.06826">
        <ele>81.857385598887</ele>
        <time>2020-11-25T14:20:51.000+01:00</time>
      </trkpt>
      <trkpt lat="43.68948" lon="4.06825">
        <ele>81.873448205586</ele>
        <time>2020-11-25T14:20:52.000+01:00</time>
      </trkpt>
      <trkpt lat="43.68947" lon="4.06824">
        <ele>81.889514572941</ele>
        <time>2020-11-25T14:20:53.000+01:00</time>
      </trkpt>
      <trkpt lat="43.68947" lon="4.06823">
        <ele>81.905582398242</ele>
        <time>2020-11-25T14:20:54.000+01:00</time>
      </trkpt>
      <trkpt lat="43.68946" lon="4.06822">
        <ele>81.921625720962</ele>
        <time>2020-11-25T14:20:55.000+01:00</time>
      </trkpt>
      <trkpt lat="43.68945" lon="4.06821">
        <ele>81.937719654291</ele>
        <time>2020-11-25T14:20:56.000+01:00</time>
      </trkpt>
      <trkpt lat="43.68944" lon="4.06819">
        <ele>81.953779387572</ele>
        <time>2020-11-25T14:20:57.000+01:00</time>
      </trkpt>
      <trkpt lat="43.68943" lon="4.06818">
        <ele>81.96989711235</ele>
        <time>2020-11-25T14:20:58.000+01:00</time>
      </trkpt>
      <trkpt lat="43.68943" lon="4.06816">
        <ele>81.986105052351</ele>
        <time>2020-11-25T14:20:59.000+01:00</time>
      </trkpt>
      <trkpt lat="43.68942" lon="4.06814">
        <ele>82.002367566036</ele>
        <time>2020-11-25T14:21:00.000+01:00</time>
      </trkpt>
      <trkpt lat="43.68942" lon="4.06812">
        <ele>82.018733224204</ele>
        <time>2020-11-25T14:21:01.000+01:00</time>
      </trkpt>
      <trkpt lat="43.68941" lon="4.06811">
        <ele>82.035241326278</ele>
        <time>2020-11-25T14:21:02.000+01:00</time>
      </trkpt>
      <trkpt lat="43.68941" lon="4.0681">
        <ele>82.051868206614</ele>
        <time>2020-11-25T14:21:03.000+01:00</time>
      </trkpt>
      <trkpt lat="43.6894" lon="4.06808">
        <ele>82.068700110456</ele>
        <time>2020-11-25T14:21:04.000+01:00</time>
      </trkpt>
      <trkpt lat="43.6894" lon="4.06807">
        <ele>82.085685312168</ele>
        <time>2020-11-25T14:21:05.000+01:00</time>
      </trkpt>
      <trkpt lat="43.6894" lon="4.06806">
        <ele>82.102839089937</ele>
        <time>2020-11-25T14:21:06.000+01:00</time>
      </trkpt>
      <trkpt lat="43.68939" lon="4.06805">
        <ele>82.120158917529</ele>
        <time>2020-11-25T14:21:07.000+01:00</time>
      </trkpt>
      <trkpt lat="43.68939" lon="4.06804">
        <ele>82.137653817926</ele>
        <time>2020-11-25T14:21:08.000+01:00</time>
      </trkpt>
      <trkpt lat="43.68939" lon="4.06802">
        <ele>82.15528204486</ele>
        <time>2020-11-25T14:21:09.000+01:00</time>
      </trkpt>
      <trkpt lat="43.68938" lon="4.068">
        <ele>82.173180491625</ele>
        <time>2020-11-25T14:21:10.000+01:00</time>
      </trkpt>
      <trkpt lat="43.68937" lon="4.06799">
        <ele>82.191181590758</ele>
        <time>2020-11-25T14:21:11.000+01:00</time>
      </trkpt>
      <trkpt lat="43.68937" lon="4.06798">
        <ele>82.209277401137</ele>
        <time>2020-11-25T14:21:12.000+01:00</time>
      </trkpt>
      <trkpt lat="43.68937" lon="4.06797">
        <ele>82.227436487205</ele>
        <time>2020-11-25T14:21:13.000+01:00</time>
      </trkpt>
      <trkpt lat="43.68937" lon="4.06796">
        <ele>82.245715197935</ele>
        <time>2020-11-25T14:21:14.000+01:00</time>
      </trkpt>
      <trkpt lat="43.68936" lon="4.06795">
        <ele>82.264027090296</ele>
        <time>2020-11-25T14:21:15.000+01:00</time>
      </trkpt>
      <trkpt lat="43.68936" lon="4.06794">
        <ele>82.282340100331</ele>
        <time>2020-11-25T14:21:16.000+01:00</time>
      </trkpt>
      <trkpt lat="43.68935" lon="4.06792">
        <ele>82.300628818389</ele>
        <time>2020-11-25T14:21:17.000+01:00</time>
      </trkpt>
      <trkpt lat="43.68934" lon="4.06791">
        <ele>82.318976557233</ele>
        <time>2020-11-25T14:21:18.000+01:00</time>
      </trkpt>
      <trkpt lat="43.68933" lon="4.0679">
        <ele>82.337382977931</ele>
        <time>2020-11-25T14:21:19.000+01:00</time>
      </trkpt>
      <trkpt lat="43.68933" lon="4.06789">
        <ele>82.355936726143</ele>
        <time>2020-11-25T14:21:20.000+01:00</time>
      </trkpt>
      <trkpt lat="43.68932" lon="4.06788">
        <ele>82.374471846616</ele>
        <time>2020-11-25T14:21:21.000+01:00</time>
      </trkpt>
      <trkpt lat="43.68932" lon="4.06786">
        <ele>82.39291532779</ele>
        <time>2020-11-25T14:21:22.000+01:00</time>
      </trkpt>
      <trkpt lat="43.68931" lon="4.06785">
        <ele>82.411233475143</ele>
        <time>2020-11-25T14:21:23.000+01:00</time>
      </trkpt>
      <trkpt lat="43.68931" lon="4.06784">
        <ele>82.429395009326</ele>
        <time>2020-11-25T14:21:24.000+01:00</time>
      </trkpt>
      <trkpt lat="43.68931" lon="4.06784">
        <ele>82.44752257544</ele>
        <time>2020-11-25T14:21:25.000+01:00</time>
      </trkpt>
      <trkpt lat="43.68931" lon="4.06783">
        <ele>82.465488974848</ele>
        <time>2020-11-25T14:21:26.000+01:00</time>
      </trkpt>
      <trkpt lat="43.6893" lon="4.06782">
        <ele>82.48321925957</ele>
        <time>2020-11-25T14:21:27.000+01:00</time>
      </trkpt>
      <trkpt lat="43.6893" lon="4.06781">
        <ele>82.50090281782</ele>
        <time>2020-11-25T14:21:28.000+01:00</time>
      </trkpt>
      <trkpt lat="43.68929" lon="4.0678">
        <ele>82.518626046864</ele>
        <time>2020-11-25T14:21:29.000+01:00</time>
      </trkpt>
      <trkpt lat="43.68928" lon="4.06778">
        <ele>82.536433331464</ele>
        <time>2020-11-25T14:21:30.000+01:00</time>
      </trkpt>
      <trkpt lat="43.68928" lon="4.06777">
        <ele>82.554393315233</ele>
        <time>2020-11-25T14:21:31.000+01:00</time>
      </trkpt>
      <trkpt lat="43.68927" lon="4.06776">
        <ele>82.572441548656</ele>
        <time>2020-11-25T14:21:32.000+01:00</time>
      </trkpt>
      <trkpt lat="43.68927" lon="4.06774">
        <ele>82.590581433701</ele>
        <time>2020-11-25T14:21:33.000+01:00</time>
      </trkpt>
      <trkpt lat="43.68927" lon="4.06773">
        <ele>82.608747165831</ele>
        <time>2020-11-25T14:21:34.000+01:00</time>
      </trkpt>
      <trkpt lat="43.68926" lon="4.06772">
        <ele>82.626932864468</ele>
        <time>2020-11-25T14:21:35.000+01:00</time>
      </trkpt>
      <trkpt lat="43.68925" lon="4.06771">
        <ele>82.645060503511</ele>
        <time>2020-11-25T14:21:36.000+01:00</time>
      </trkpt>
      <trkpt lat="43.68924" lon="4.0677">
        <ele>82.66316310511</ele>
        <time>2020-11-25T14:21:37.000+01:00</time>
      </trkpt>
      <trkpt lat="43.68924" lon="4.06768">
        <ele>82.681342820345</ele>
        <time>2020-11-25T14:21:38.000+01:00</time>
      </trkpt>
      <trkpt lat="43.68923" lon="4.06767">
        <ele>82.699650723332</ele>
        <time>2020-11-25T14:21:39.000+01:00</time>
      </trkpt>
      <trkpt lat="43.68922" lon="4.06766">
        <ele>82.717985511666</ele>
        <time>2020-11-25T14:21:40.000+01:00</time>
      </trkpt>
      <trkpt lat="43.68921" lon="4.06765">
        <ele>82.736447440172</ele>
        <time>2020-11-25T14:21:41.000+01:00</time>
      </trkpt>
      <trkpt lat="43.6892" lon="4.06763">
        <ele>82.755017524726</ele>
        <time>2020-11-25T14:21:42.000+01:00</time>
      </trkpt>
      <trkpt lat="43.68919" lon="4.06762">
        <ele>82.773730475383</ele>
        <time>2020-11-25T14:21:43.000+01:00</time>
      </trkpt>
      <trkpt lat="43.68919" lon="4.0676">
        <ele>82.79249793896</ele>
        <time>2020-11-25T14:21:44.000+01:00</time>
      </trkpt>
      <trkpt lat="43.68918" lon="4.06759">
        <ele>82.811402690185</ele>
        <time>2020-11-25T14:21:45.000+01:00</time>
      </trkpt>
      <trkpt lat="43.68917" lon="4.06758">
        <ele>82.830466538276</ele>
        <time>2020-11-25T14:21:46.000+01:00</time>
      </trkpt>
      <trkpt lat="43.68917" lon="4.06756">
        <ele>82.849717256361</ele>
        <time>2020-11-25T14:21:47.000+01:00</time>
      </trkpt>
      <trkpt lat="43.68916" lon="4.06754">
        <ele>82.869063790492</ele>
        <time>2020-11-25T14:21:48.000+01:00</time>
      </trkpt>
      <trkpt lat="43.68915" lon="4.06753">
        <ele>82.888385609303</ele>
        <time>2020-11-25T14:21:49.000+01:00</time>
      </trkpt>
      <trkpt lat="43.68915" lon="4.06751">
        <ele>82.907614973378</ele>
        <time>2020-11-25T14:21:50.000+01:00</time>
      </trkpt>
      <trkpt lat="43.68914" lon="4.0675">
        <ele>82.92674710009</ele>
        <time>2020-11-25T14:21:51.000+01:00</time>
      </trkpt>
      <trkpt lat="43.68914" lon="4.06749">
        <ele>82.945853709258</ele>
        <time>2020-11-25T14:21:52.000+01:00</time>
      </trkpt>
      <trkpt lat="43.68913" lon="4.06747">
        <ele>82.964978396485</ele>
        <time>2020-11-25T14:21:53.000+01:00</time>
      </trkpt>
      <trkpt lat="43.68912" lon="4.06745">
        <ele>82.98411834655</ele>
        <time>2020-11-25T14:21:54.000+01:00</time>
      </trkpt>
      <trkpt lat="43.68911" lon="4.06744">
        <ele>83.003355968635</ele>
        <time>2020-11-25T14:21:55.000+01:00</time>
      </trkpt>
      <trkpt lat="43.68911" lon="4.06742">
        <ele>83.022737767123</ele>
        <time>2020-11-25T14:21:56.000+01:00</time>
      </trkpt>
      <trkpt lat="43.6891" lon="4.06741">
        <ele>83.042183023214</ele>
        <time>2020-11-25T14:21:57.000+01:00</time>
      </trkpt>
      <trkpt lat="43.68909" lon="4.0674">
        <ele>83.061762746231</ele>
        <time>2020-11-25T14:21:58.000+01:00</time>
      </trkpt>
      <trkpt lat="43.68908" lon="4.06738">
        <ele>83.081258101723</ele>
        <time>2020-11-25T14:21:59.000+01:00</time>
      </trkpt>
      <trkpt lat="43.68907" lon="4.06737">
        <ele>83.100710224807</ele>
        <time>2020-11-25T14:22:00.000+01:00</time>
      </trkpt>
      <trkpt lat="43.68907" lon="4.06735">
        <ele>83.120160078706</ele>
        <time>2020-11-25T14:22:01.000+01:00</time>
      </trkpt>
      <trkpt lat="43.68906" lon="4.06734">
        <ele>83.139637448114</ele>
        <time>2020-11-25T14:22:02.000+01:00</time>
      </trkpt>
      <trkpt lat="43.68905" lon="4.06732">
        <ele>83.159039164888</ele>
        <time>2020-11-25T14:22:03.000+01:00</time>
      </trkpt>
      <trkpt lat="43.68905" lon="4.0673">
        <ele>83.178449279463</ele>
        <time>2020-11-25T14:22:04.000+01:00</time>
      </trkpt>
      <trkpt lat="43.68905" lon="4.06728">
        <ele>83.197858195569</ele>
        <time>2020-11-25T14:22:05.000+01:00</time>
      </trkpt>
      <trkpt lat="43.68904" lon="4.06727">
        <ele>83.217247708968</ele>
        <time>2020-11-25T14:22:06.000+01:00</time>
      </trkpt>
      <trkpt lat="43.68904" lon="4.06726">
        <ele>83.236597353604</ele>
        <time>2020-11-25T14:22:07.000+01:00</time>
      </trkpt>
      <trkpt lat="43.68905" lon="4.06727">
        <ele>83.255721244926</ele>
        <time>2020-11-25T14:22:08.000+01:00</time>
      </trkpt>
      <trkpt lat="43.68905" lon="4.06727">
        <ele>83.274725870179</ele>
        <time>2020-11-25T14:22:09.000+01:00</time>
      </trkpt>
      <trkpt lat="43.68905" lon="4.06727">
        <ele>83.293600929674</ele>
        <time>2020-11-25T14:22:10.000+01:00</time>
      </trkpt>
      <trkpt lat="43.68905" lon="4.06726">
        <ele>83.312430653268</ele>
        <time>2020-11-25T14:22:11.000+01:00</time>
      </trkpt>
      <trkpt lat="43.68904" lon="4.06726">
        <ele>83.33114697489</ele>
        <time>2020-11-25T14:22:12.000+01:00</time>
      </trkpt>
      <trkpt lat="43.68904" lon="4.06725">
        <ele>83.349996768443</ele>
        <time>2020-11-25T14:22:13.000+01:00</time>
      </trkpt>
      <trkpt lat="43.68904" lon="4.06725">
        <ele>83.368932447004</ele>
        <time>2020-11-25T14:22:14.000+01:00</time>
      </trkpt>
      <trkpt lat="43.68904" lon="4.06725">
        <ele>83.388070486115</ele>
        <time>2020-11-25T14:22:15.000+01:00</time>
      </trkpt>
      <trkpt lat="43.68903" lon="4.06724">
        <ele>83.407214198061</ele>
        <time>2020-11-25T14:22:16.000+01:00</time>
      </trkpt>
      <trkpt lat="43.68903" lon="4.06723">
        <ele>83.426492121109</ele>
        <time>2020-11-25T14:22:17.000+01:00</time>
      </trkpt>
      <trkpt lat="43.68902" lon="4.06722">
        <ele>83.445987142887</ele>
        <time>2020-11-25T14:22:18.000+01:00</time>
      </trkpt>
      <trkpt lat="43.68902" lon="4.06721">
        <ele>83.465654130243</ele>
        <time>2020-11-25T14:22:19.000+01:00</time>
      </trkpt>
      <trkpt lat="43.68901" lon="4.0672">
        <ele>83.485502777111</ele>
        <time>2020-11-25T14:22:20.000+01:00</time>
      </trkpt>
      <trkpt lat="43.68901" lon="4.06718">
        <ele>83.505580529007</ele>
        <time>2020-11-25T14:22:21.000+01:00</time>
      </trkpt>
      <trkpt lat="43.689" lon="4.06716">
        <ele>83.525891304154</ele>
        <time>2020-11-25T14:22:22.000+01:00</time>
      </trkpt>
      <trkpt lat="43.689" lon="4.06714">
        <ele>83.546318544998</ele>
        <time>2020-11-25T14:22:23.000+01:00</time>
      </trkpt>
      <trkpt lat="43.68899" lon="4.06712">
        <ele>83.566866466034</ele>
        <time>2020-11-25T14:22:24.000+01:00</time>
      </trkpt>
      <trkpt lat="43.68899" lon="4.06711">
        <ele>83.587472690931</ele>
        <time>2020-11-25T14:22:25.000+01:00</time>
      </trkpt>
      <trkpt lat="43.68899" lon="4.06709">
        <ele>83.608254373183</ele>
        <time>2020-11-25T14:22:26.000+01:00</time>
      </trkpt>
      <trkpt lat="43.68898" lon="4.06708">
        <ele>83.629258901212</ele>
        <time>2020-11-25T14:22:27.000+01:00</time>
      </trkpt>
      <trkpt lat="43.68898" lon="4.06706">
        <ele>83.650376768766</ele>
        <time>2020-11-25T14:22:28.000+01:00</time>
      </trkpt>
      <trkpt lat="43.68898" lon="4.06704">
        <ele>83.671615906652</ele>
        <time>2020-11-25T14:22:29.000+01:00</time>
      </trkpt>
      <trkpt lat="43.68898" lon="4.06703">
        <ele>83.692926506762</ele>
        <time>2020-11-25T14:22:30.000+01:00</time>
      </trkpt>
      <trkpt lat="43.68898" lon="4.06701">
        <ele>83.714372552203</ele>
        <time>2020-11-25T14:22:31.000+01:00</time>
      </trkpt>
      <trkpt lat="43.68898" lon="4.067">
        <ele>83.735936098757</ele>
        <time>2020-11-25T14:22:32.000+01:00</time>
      </trkpt>
      <trkpt lat="43.68898" lon="4.06698">
        <ele>83.757560020835</ele>
        <time>2020-11-25T14:22:33.000+01:00</time>
      </trkpt>
      <trkpt lat="43.68898" lon="4.06697">
        <ele>83.779246753777</ele>
        <time>2020-11-25T14:22:34.000+01:00</time>
      </trkpt>
      <trkpt lat="43.68897" lon="4.06695">
        <ele>83.801029996515</ele>
        <time>2020-11-25T14:22:35.000+01:00</time>
      </trkpt>
      <trkpt lat="43.68897" lon="4.06694">
        <ele>83.822972952855</ele>
        <time>2020-11-25T14:22:36.000+01:00</time>
      </trkpt>
      <trkpt lat="43.68897" lon="4.06693">
        <ele>83.844977732629</ele>
        <time>2020-11-25T14:22:37.000+01:00</time>
      </trkpt>
      <trkpt lat="43.68897" lon="4.06693">
        <ele>83.866937169632</ele>
        <time>2020-11-25T14:22:38.000+01:00</time>
      </trkpt>
      <trkpt lat="43.68897" lon="4.06692">
        <ele>83.88887211733</ele>
        <time>2020-11-25T14:22:39.000+01:00</time>
      </trkpt>
      <trkpt lat="43.68897" lon="4.06692">
        <ele>83.910845537595</ele>
        <time>2020-11-25T14:22:40.000+01:00</time>
      </trkpt>
      <trkpt lat="43.68896" lon="4.06691">
        <ele>83.932853749588</ele>
        <time>2020-11-25T14:22:41.000+01:00</time>
      </trkpt>
      <trkpt lat="43.68895" lon="4.06689">
        <ele>83.954751694429</ele>
        <time>2020-11-25T14:22:42.000+01:00</time>
      </trkpt>
      <trkpt lat="43.68895" lon="4.06688">
        <ele>83.976576172893</ele>
        <time>2020-11-25T14:22:43.000+01:00</time>
      </trkpt>
      <trkpt lat="43.68894" lon="4.06687">
        <ele>83.998328910561</ele>
        <time>2020-11-25T14:22:44.000+01:00</time>
      </trkpt>
      <trkpt lat="43.68893" lon="4.06686">
        <ele>84.020060068147</ele>
        <time>2020-11-25T14:22:45.000+01:00</time>
      </trkpt>
      <trkpt lat="43.68893" lon="4.06685">
        <ele>84.041750299396</ele>
        <time>2020-11-25T14:22:46.000+01:00</time>
      </trkpt>
      <trkpt lat="43.68892" lon="4.06684">
        <ele>84.063469743277</ele>
        <time>2020-11-25T14:22:47.000+01:00</time>
      </trkpt>
      <trkpt lat="43.68892" lon="4.06683">
        <ele>84.085262313366</ele>
        <time>2020-11-25T14:22:48.000+01:00</time>
      </trkpt>
      <trkpt lat="43.68891" lon="4.06682">
        <ele>84.107129853447</ele>
        <time>2020-11-25T14:22:49.000+01:00</time>
      </trkpt>
      <trkpt lat="43.68891" lon="4.0668">
        <ele>84.129140029538</ele>
        <time>2020-11-25T14:22:50.000+01:00</time>
      </trkpt>
      <trkpt lat="43.68891" lon="4.06679">
        <ele>84.151294905344</ele>
        <time>2020-11-25T14:22:51.000+01:00</time>
      </trkpt>
      <trkpt lat="43.68891" lon="4.06678">
        <ele>84.173543908366</ele>
        <time>2020-11-25T14:22:52.000+01:00</time>
      </trkpt>
      <trkpt lat="43.68891" lon="4.06677">
        <ele>84.195887853108</ele>
        <time>2020-11-25T14:22:53.000+01:00</time>
      </trkpt>
      <trkpt lat="43.6889" lon="4.06675">
        <ele>84.218332650268</ele>
        <time>2020-11-25T14:22:54.000+01:00</time>
      </trkpt>
      <trkpt lat="43.68891" lon="4.06674">
        <ele>84.240825274581</ele>
        <time>2020-11-25T14:22:55.000+01:00</time>
      </trkpt>
      <trkpt lat="43.68891" lon="4.06672">
        <ele>84.263351254456</ele>
        <time>2020-11-25T14:22:56.000+01:00</time>
      </trkpt>
      <trkpt lat="43.68891" lon="4.0667">
        <ele>84.285888430526</ele>
        <time>2020-11-25T14:22:57.000+01:00</time>
      </trkpt>
      <trkpt lat="43.68891" lon="4.06668">
        <ele>84.308470553228</ele>
        <time>2020-11-25T14:22:58.000+01:00</time>
      </trkpt>
      <trkpt lat="43.68891" lon="4.06667">
        <ele>84.331036897831</ele>
        <time>2020-11-25T14:22:59.000+01:00</time>
      </trkpt>
      <trkpt lat="43.68891" lon="4.06665">
        <ele>84.353465512662</ele>
        <time>2020-11-25T14:23:00.000+01:00</time>
      </trkpt>
      <trkpt lat="43.68892" lon="4.06664">
        <ele>84.375783988741</ele>
        <time>2020-11-25T14:23:01.000+01:00</time>
      </trkpt>
      <trkpt lat="43.68891" lon="4.06662">
        <ele>84.397895085753</ele>
        <time>2020-11-25T14:23:02.000+01:00</time>
      </trkpt>
      <trkpt lat="43.68891" lon="4.0666">
        <ele>84.419907622673</ele>
        <time>2020-11-25T14:23:03.000+01:00</time>
      </trkpt>
      <trkpt lat="43.68892" lon="4.06658">
        <ele>84.441884067563</ele>
        <time>2020-11-25T14:23:04.000+01:00</time>
      </trkpt>
      <trkpt lat="43.68892" lon="4.06657">
        <ele>84.463879892641</ele>
        <time>2020-11-25T14:23:05.000+01:00</time>
      </trkpt>
      <trkpt lat="43.68892" lon="4.06656">
        <ele>84.485800257059</ele>
        <time>2020-11-25T14:23:06.000+01:00</time>
      </trkpt>
      <trkpt lat="43.68892" lon="4.06655">
        <ele>84.507513821951</ele>
        <time>2020-11-25T14:23:07.000+01:00</time>
      </trkpt>
      <trkpt lat="43.68892" lon="4.06653">
        <ele>84.52911859991</ele>
        <time>2020-11-25T14:23:08.000+01:00</time>
      </trkpt>
      <trkpt lat="43.68892" lon="4.06651">
        <ele>84.550838787571</ele>
        <time>2020-11-25T14:23:09.000+01:00</time>
      </trkpt>
      <trkpt lat="43.68892" lon="4.0665">
        <ele>84.572549598257</ele>
        <time>2020-11-25T14:23:10.000+01:00</time>
      </trkpt>
      <trkpt lat="43.68892" lon="4.06648">
        <ele>84.594160728411</ele>
        <time>2020-11-25T14:23:11.000+01:00</time>
      </trkpt>
      <trkpt lat="43.68892" lon="4.06646">
        <ele>84.615780541764</ele>
        <time>2020-11-25T14:23:12.000+01:00</time>
      </trkpt>
      <trkpt lat="43.68892" lon="4.06645">
        <ele>84.637342773753</ele>
        <time>2020-11-25T14:23:13.000+01:00</time>
      </trkpt>
      <trkpt lat="43.68892" lon="4.06643">
        <ele>84.658916375071</ele>
        <time>2020-11-25T14:23:14.000+01:00</time>
      </trkpt>
      <trkpt lat="43.68892" lon="4.06643">
        <ele>84.680291731534</ele>
        <time>2020-11-25T14:23:15.000+01:00</time>
      </trkpt>
      <trkpt lat="43.68891" lon="4.06642">
        <ele>84.701840991621</ele>
        <time>2020-11-25T14:23:16.000+01:00</time>
      </trkpt>
      <trkpt lat="43.68891" lon="4.0664">
        <ele>84.723504185147</ele>
        <time>2020-11-25T14:23:17.000+01:00</time>
      </trkpt>
      <trkpt lat="43.68891" lon="4.06639">
        <ele>84.745371493567</ele>
        <time>2020-11-25T14:23:18.000+01:00</time>
      </trkpt>
      <trkpt lat="43.68891" lon="4.06638">
        <ele>84.767128443145</ele>
        <time>2020-11-25T14:23:19.000+01:00</time>
      </trkpt>
      <trkpt lat="43.68891" lon="4.06637">
        <ele>84.788891039128</ele>
        <time>2020-11-25T14:23:20.000+01:00</time>
      </trkpt>
      <trkpt lat="43.68892" lon="4.06635">
        <ele>84.810636118465</ele>
        <time>2020-11-25T14:23:21.000+01:00</time>
      </trkpt>
      <trkpt lat="43.68892" lon="4.06634">
        <ele>84.832215142701</ele>
        <time>2020-11-25T14:23:22.000+01:00</time>
      </trkpt>
      <trkpt lat="43.68892" lon="4.06634">
        <ele>84.853576818936</ele>
        <time>2020-11-25T14:23:23.000+01:00</time>
      </trkpt>
      <trkpt lat="43.68892" lon="4.06633">
        <ele>84.874708166373</ele>
        <time>2020-11-25T14:23:24.000+01:00</time>
      </trkpt>
      <trkpt lat="43.68892" lon="4.06631">
        <ele>84.895941527111</ele>
        <time>2020-11-25T14:23:25.000+01:00</time>
      </trkpt>
      <trkpt lat="43.68893" lon="4.0663">
        <ele>84.917266889772</ele>
        <time>2020-11-25T14:23:26.000+01:00</time>
      </trkpt>
      <trkpt lat="43.68893" lon="4.06628">
        <ele>84.938579180835</ele>
        <time>2020-11-25T14:23:27.000+01:00</time>
      </trkpt>
      <trkpt lat="43.68893" lon="4.06627">
        <ele>84.960030862426</ele>
        <time>2020-11-25T14:23:28.000+01:00</time>
      </trkpt>
      <trkpt lat="43.68893" lon="4.06626">
        <ele>84.98124759614</ele>
        <time>2020-11-25T14:23:29.000+01:00</time>
      </trkpt>
      <trkpt lat="43.68893" lon="4.06625">
        <ele>85.002278365969</ele>
        <time>2020-11-25T14:23:30.000+01:00</time>
      </trkpt>
      <trkpt lat="43.68893" lon="4.06624">
        <ele>85.023393196279</ele>
        <time>2020-11-25T14:23:31.000+01:00</time>
      </trkpt>
      <trkpt lat="43.68893" lon="4.06623">
        <ele>85.044585709374</ele>
        <time>2020-11-25T14:23:32.000+01:00</time>
      </trkpt>
      <trkpt lat="43.68893" lon="4.06621">
        <ele>85.065823752482</ele>
        <time>2020-11-25T14:23:33.000+01:00</time>
      </trkpt>
      <trkpt lat="43.68894" lon="4.0662">
        <ele>85.087137257737</ele>
        <time>2020-11-25T14:23:34.000+01:00</time>
      </trkpt>
      <trkpt lat="43.68893" lon="4.06617">
        <ele>85.108737603439</ele>
        <time>2020-11-25T14:23:35.000+01:00</time>
      </trkpt>
      <trkpt lat="43.68893" lon="4.06615">
        <ele>85.130511923077</ele>
        <time>2020-11-25T14:23:36.000+01:00</time>
      </trkpt>
      <trkpt lat="43.68893" lon="4.06613">
        <ele>85.15255460505</ele>
        <time>2020-11-25T14:23:37.000+01:00</time>
      </trkpt>
      <trkpt lat="43.68892" lon="4.0661">
        <ele>85.174805448877</ele>
        <time>2020-11-25T14:23:38.000+01:00</time>
      </trkpt>
      <trkpt lat="43.68892" lon="4.06608">
        <ele>85.197081314722</ele>
        <time>2020-11-25T14:23:39.000+01:00</time>
      </trkpt>
      <trkpt lat="43.68892" lon="4.06607">
        <ele>85.219432325241</ele>
        <time>2020-11-25T14:23:40.000+01:00</time>
      </trkpt>
      <trkpt lat="43.68892" lon="4.06605">
        <ele>85.241803323843</ele>
        <time>2020-11-25T14:23:41.000+01:00</time>
      </trkpt>
      <trkpt lat="43.68892" lon="4.06604">
        <ele>85.264207585524</ele>
        <time>2020-11-25T14:23:42.000+01:00</time>
      </trkpt>
      <trkpt lat="43.68892" lon="4.06602">
        <ele>85.286639652049</ele>
        <time>2020-11-25T14:23:43.000+01:00</time>
      </trkpt>
      <trkpt lat="43.68892" lon="4.06601">
        <ele>85.309011060817</ele>
        <time>2020-11-25T14:23:44.000+01:00</time>
      </trkpt>
      <trkpt lat="43.68892" lon="4.066">
        <ele>85.331425804574</ele>
        <time>2020-11-25T14:23:45.000+01:00</time>
      </trkpt>
      <trkpt lat="43.68892" lon="4.066">
        <ele>85.353875367373</ele>
        <time>2020-11-25T14:23:46.000+01:00</time>
      </trkpt>
      <trkpt lat="43.68892" lon="4.06599">
        <ele>85.376479715326</ele>
        <time>2020-11-25T14:23:47.000+01:00</time>
      </trkpt>
      <trkpt lat="43.68891" lon="4.06598">
        <ele>85.399317439418</ele>
        <time>2020-11-25T14:23:48.000+01:00</time>
      </trkpt>
      <trkpt lat="43.6889" lon="4.06596">
        <ele>85.422364785699</ele>
        <time>2020-11-25T14:23:49.000+01:00</time>
      </trkpt>
      <trkpt lat="43.68889" lon="4.06595">
        <ele>85.44559223574</ele>
        <time>2020-11-25T14:23:50.000+01:00</time>
      </trkpt>
      <trkpt lat="43.68889" lon="4.06594">
        <ele>85.46885657526</ele>
        <time>2020-11-25T14:23:51.000+01:00</time>
      </trkpt>
      <trkpt lat="43.68888" lon="4.06594">
        <ele>85.4921701964</ele>
        <time>2020-11-25T14:23:52.000+01:00</time>
      </trkpt>
      <trkpt lat="43.68887" lon="4.06592">
        <ele>85.515667964825</ele>
        <time>2020-11-25T14:23:53.000+01:00</time>
      </trkpt>
      <trkpt lat="43.68886" lon="4.06591">
        <ele>85.539384648923</ele>
        <time>2020-11-25T14:23:54.000+01:00</time>
      </trkpt>
      <trkpt lat="43.68885" lon="4.0659">
        <ele>85.563089375311</ele>
        <time>2020-11-25T14:23:55.000+01:00</time>
      </trkpt>
      <trkpt lat="43.68885" lon="4.0659">
        <ele>85.586768212644</ele>
        <time>2020-11-25T14:23:56.000+01:00</time>
      </trkpt>
      <trkpt lat="43.68884" lon="4.06589">
        <ele>85.610644430098</ele>
        <time>2020-11-25T14:23:57.000+01:00</time>
      </trkpt>
      <trkpt lat="43.68883" lon="4.06588">
        <ele>85.634536929063</ele>
        <time>2020-11-25T14:23:58.000+01:00</time>
      </trkpt>
      <trkpt lat="43.68883" lon="4.06587">
        <ele>85.658292924664</ele>
        <time>2020-11-25T14:23:59.000+01:00</time>
      </trkpt>
      <trkpt lat="43.68883" lon="4.06586">
        <ele>85.681973767238</ele>
        <time>2020-11-25T14:24:00.000+01:00</time>
      </trkpt>
      <trkpt lat="43.68882" lon="4.06585">
        <ele>85.705681930827</ele>
        <time>2020-11-25T14:24:01.000+01:00</time>
      </trkpt>
      <trkpt lat="43.68882" lon="4.06584">
        <ele>85.729245074238</ele>
        <time>2020-11-25T14:24:02.000+01:00</time>
      </trkpt>
      <trkpt lat="43.68882" lon="4.06583">
        <ele>85.752612065412</ele>
        <time>2020-11-25T14:24:03.000+01:00</time>
      </trkpt>
      <trkpt lat="43.68881" lon="4.06582">
        <ele>85.775896083607</ele>
        <time>2020-11-25T14:24:04.000+01:00</time>
      </trkpt>
      <trkpt lat="43.6888" lon="4.06579">
        <ele>85.799125145314</ele>
        <time>2020-11-25T14:24:05.000+01:00</time>
      </trkpt>
      <trkpt lat="43.6888" lon="4.06578">
        <ele>85.822152069392</ele>
        <time>2020-11-25T14:24:06.000+01:00</time>
      </trkpt>
      <trkpt lat="43.6888" lon="4.06577">
        <ele>85.845124048441</ele>
        <time>2020-11-25T14:24:07.000+01:00</time>
      </trkpt>
      <trkpt lat="43.68879" lon="4.06576">
        <ele>85.868024120729</ele>
        <time>2020-11-25T14:24:08.000+01:00</time>
      </trkpt>
      <trkpt lat="43.68879" lon="4.06575">
        <ele>85.890811253133</ele>
        <time>2020-11-25T14:24:09.000+01:00</time>
      </trkpt>
      <trkpt lat="43.68879" lon="4.06575">
        <ele>85.91371721146</ele>
        <time>2020-11-25T14:24:10.000+01:00</time>
      </trkpt>
      <trkpt lat="43.68878" lon="4.06573">
        <ele>85.936955214562</ele>
        <time>2020-11-25T14:24:11.000+01:00</time>
      </trkpt>
      <trkpt lat="43.68877" lon="4.06571">
        <ele>85.960633849076</ele>
        <time>2020-11-25T14:24:12.000+01:00</time>
      </trkpt>
      <trkpt lat="43.68876" lon="4.06569">
        <ele>85.984531208242</ele>
        <time>2020-11-25T14:24:13.000+01:00</time>
      </trkpt>
      <trkpt lat="43.68875" lon="4.06567">
        <ele>86.008374735258</ele>
        <time>2020-11-25T14:24:14.000+01:00</time>
      </trkpt>
      <trkpt lat="43.68875" lon="4.06566">
        <ele>86.032073690367</ele>
        <time>2020-11-25T14:24:15.000+01:00</time>
      </trkpt>
      <trkpt lat="43.68874" lon="4.06564">
        <ele>86.055747569717</ele>
        <time>2020-11-25T14:24:16.000+01:00</time>
      </trkpt>
      <trkpt lat="43.68873" lon="4.06562">
        <ele>86.079474944097</ele>
        <time>2020-11-25T14:24:17.000+01:00</time>
      </trkpt>
      <trkpt lat="43.68873" lon="4.06561">
        <ele>86.103254695561</ele>
        <time>2020-11-25T14:24:18.000+01:00</time>
      </trkpt>
      <trkpt lat="43.68872" lon="4.0656">
        <ele>86.127018758871</ele>
        <time>2020-11-25T14:24:19.000+01:00</time>
      </trkpt>
      <trkpt lat="43.68872" lon="4.06559">
        <ele>86.15078230956</ele>
        <time>2020-11-25T14:24:20.000+01:00</time>
      </trkpt>
      <trkpt lat="43.68872" lon="4.06558">
        <ele>86.174526238653</ele>
        <time>2020-11-25T14:24:21.000+01:00</time>
      </trkpt>
      <trkpt lat="43.68871" lon="4.06557">
        <ele>86.198276597076</ele>
        <time>2020-11-25T14:24:22.000+01:00</time>
      </trkpt>
      <trkpt lat="43.68871" lon="4.06557">
        <ele>86.222029059812</ele>
        <time>2020-11-25T14:24:23.000+01:00</time>
      </trkpt>
      <trkpt lat="43.68871" lon="4.06556">
        <ele>86.245639960328</ele>
        <time>2020-11-25T14:24:24.000+01:00</time>
      </trkpt>
      <trkpt lat="43.68871" lon="4.06556">
        <ele>86.269214654941</ele>
        <time>2020-11-25T14:24:25.000+01:00</time>
      </trkpt>
      <trkpt lat="43.68871" lon="4.06555">
        <ele>86.292802393366</ele>
        <time>2020-11-25T14:24:26.000+01:00</time>
      </trkpt>
      <trkpt lat="43.6887" lon="4.06554">
        <ele>86.316267943811</ele>
        <time>2020-11-25T14:24:27.000+01:00</time>
      </trkpt>
      <trkpt lat="43.6887" lon="4.06553">
        <ele>86.339489226912</ele>
        <time>2020-11-25T14:24:28.000+01:00</time>
      </trkpt>
      <trkpt lat="43.6887" lon="4.06552">
        <ele>86.362443587468</ele>
        <time>2020-11-25T14:24:29.000+01:00</time>
      </trkpt>
      <trkpt lat="43.6887" lon="4.0655">
        <ele>86.385092137807</ele>
        <time>2020-11-25T14:24:30.000+01:00</time>
      </trkpt>
      <trkpt lat="43.6887" lon="4.06549">
        <ele>86.407474945516</ele>
        <time>2020-11-25T14:24:31.000+01:00</time>
      </trkpt>
      <trkpt lat="43.68869" lon="4.06547">
        <ele>86.429576339627</ele>
        <time>2020-11-25T14:24:32.000+01:00</time>
      </trkpt>
      <trkpt lat="43.68869" lon="4.06546">
        <ele>86.451406705873</ele>
        <time>2020-11-25T14:24:33.000+01:00</time>
      </trkpt>
      <trkpt lat="43.68869" lon="4.06544">
        <ele>86.473074475296</ele>
        <time>2020-11-25T14:24:34.000+01:00</time>
      </trkpt>
      <trkpt lat="43.68868" lon="4.06542">
        <ele>86.494713650933</ele>
        <time>2020-11-25T14:24:35.000+01:00</time>
      </trkpt>
      <trkpt lat="43.68868" lon="4.06542">
        <ele>86.516064573759</ele>
        <time>2020-11-25T14:24:36.000+01:00</time>
      </trkpt>
      <trkpt lat="43.68868" lon="4.06541">
        <ele>86.537123653436</ele>
        <time>2020-11-25T14:24:37.000+01:00</time>
      </trkpt>
      <trkpt lat="43.68867" lon="4.0654">
        <ele>86.557976400392</ele>
        <time>2020-11-25T14:24:38.000+01:00</time>
      </trkpt>
      <trkpt lat="43.68867" lon="4.06539">
        <ele>86.57858455219</ele>
        <time>2020-11-25T14:24:39.000+01:00</time>
      </trkpt>
      <trkpt lat="43.68866" lon="4.06537">
        <ele>86.599055140769</ele>
        <time>2020-11-25T14:24:40.000+01:00</time>
      </trkpt>
      <trkpt lat="43.68866" lon="4.06536">
        <ele>86.619272368258</ele>
        <time>2020-11-25T14:24:41.000+01:00</time>
      </trkpt>
      <trkpt lat="43.68865" lon="4.06535">
        <ele>86.639440842265</ele>
        <time>2020-11-25T14:24:42.000+01:00</time>
      </trkpt>
      <trkpt lat="43.68864" lon="4.06534">
        <ele>86.65936278089</ele>
        <time>2020-11-25T14:24:43.000+01:00</time>
      </trkpt>
      <trkpt lat="43.68863" lon="4.06531">
        <ele>86.679064312118</ele>
        <time>2020-11-25T14:24:44.000+01:00</time>
      </trkpt>
      <trkpt lat="43.68862" lon="4.06528">
        <ele>86.698649863292</ele>
        <time>2020-11-25T14:24:45.000+01:00</time>
      </trkpt>
      <trkpt lat="43.6886" lon="4.06524">
        <ele>86.718241118441</ele>
        <time>2020-11-25T14:24:46.000+01:00</time>
      </trkpt>
      <trkpt lat="43.68859" lon="4.06522">
        <ele>86.737742424348</ele>
        <time>2020-11-25T14:24:47.000+01:00</time>
      </trkpt>
      <trkpt lat="43.68858" lon="4.06521">
        <ele>86.757133558989</ele>
        <time>2020-11-25T14:24:48.000+01:00</time>
      </trkpt>
      <trkpt lat="43.68858" lon="4.06519">
        <ele>86.77645877609</ele>
        <time>2020-11-25T14:24:49.000+01:00</time>
      </trkpt>
      <trkpt lat="43.68857" lon="4.06518">
        <ele>86.795862482986</ele>
        <time>2020-11-25T14:24:50.000+01:00</time>
      </trkpt>
      <trkpt lat="43.68856" lon="4.06517">
        <ele>86.815413765427</ele>
        <time>2020-11-25T14:24:51.000+01:00</time>
      </trkpt>
      <trkpt lat="43.68856" lon="4.06517">
        <ele>86.835264379304</ele>
        <time>2020-11-25T14:24:52.000+01:00</time>
      </trkpt>
      <trkpt lat="43.68855" lon="4.06515">
        <ele>86.855406168346</ele>
        <time>2020-11-25T14:24:53.000+01:00</time>
      </trkpt>
      <trkpt lat="43.68855" lon="4.06513">
        <ele>86.875795297733</ele>
        <time>2020-11-25T14:24:54.000+01:00</time>
      </trkpt>
      <trkpt lat="43.68855" lon="4.06512">
        <ele>86.8962396763</ele>
        <time>2020-11-25T14:24:55.000+01:00</time>
      </trkpt>
      <trkpt lat="43.68855" lon="4.06511">
        <ele>86.916762370527</ele>
        <time>2020-11-25T14:24:56.000+01:00</time>
      </trkpt>
      <trkpt lat="43.68855" lon="4.06511">
        <ele>86.937335130729</ele>
        <time>2020-11-25T14:24:57.000+01:00</time>
      </trkpt>
      <trkpt lat="43.68855" lon="4.0651">
        <ele>86.957976036451</ele>
        <time>2020-11-25T14:24:58.000+01:00</time>
      </trkpt>
      <trkpt lat="43.68854" lon="4.06509">
        <ele>86.97859838959</ele>
        <time>2020-11-25T14:24:59.000+01:00</time>
      </trkpt>
      <trkpt lat="43.68854" lon="4.06508">
        <ele>86.999251890442</ele>
        <time>2020-11-25T14:25:00.000+01:00</time>
      </trkpt>
      <trkpt lat="43.68853" lon="4.06507">
        <ele>87.020030206535</ele>
        <time>2020-11-25T14:25:01.000+01:00</time>
      </trkpt>
      <trkpt lat="43.68853" lon="4.06506">
        <ele>87.040732246977</ele>
        <time>2020-11-25T14:25:02.000+01:00</time>
      </trkpt>
      <trkpt lat="43.68853" lon="4.06506">
        <ele>87.061436505883</ele>
        <time>2020-11-25T14:25:03.000+01:00</time>
      </trkpt>
      <trkpt lat="43.68853" lon="4.06505">
        <ele>87.082060646631</ele>
        <time>2020-11-25T14:25:04.000+01:00</time>
      </trkpt>
      <trkpt lat="43.68852" lon="4.06504">
        <ele>87.102766095445</ele>
        <time>2020-11-25T14:25:05.000+01:00</time>
      </trkpt>
      <trkpt lat="43.68852" lon="4.06503">
        <ele>87.123652695505</ele>
        <time>2020-11-25T14:25:06.000+01:00</time>
      </trkpt>
      <trkpt lat="43.68852" lon="4.06502">
        <ele>87.144665263139</ele>
        <time>2020-11-25T14:25:07.000+01:00</time>
      </trkpt>
      <trkpt lat="43.68852" lon="4.065">
        <ele>87.165725412402</ele>
        <time>2020-11-25T14:25:08.000+01:00</time>
      </trkpt>
      <trkpt lat="43.68851" lon="4.06499">
        <ele>87.186758115866</ele>
        <time>2020-11-25T14:25:09.000+01:00</time>
      </trkpt>
      <trkpt lat="43.68851" lon="4.06498">
        <ele>87.20779521906</ele>
        <time>2020-11-25T14:25:10.000+01:00</time>
      </trkpt>
      <trkpt lat="43.6885" lon="4.06496">
        <ele>87.2288511148</ele>
        <time>2020-11-25T14:25:11.000+01:00</time>
      </trkpt>
      <trkpt lat="43.68849" lon="4.06494">
        <ele>87.249980762138</ele>
        <time>2020-11-25T14:25:12.000+01:00</time>
      </trkpt>
      <trkpt lat="43.68848" lon="4.06493">
        <ele>87.271235380731</ele>
        <time>2020-11-25T14:25:13.000+01:00</time>
      </trkpt>
      <trkpt lat="43.68847" lon="4.06492">
        <ele>87.292643100092</ele>
        <time>2020-11-25T14:25:14.000+01:00</time>
      </trkpt>
      <trkpt lat="43.68847" lon="4.06491">
        <ele>87.314082738582</ele>
        <time>2020-11-25T14:25:15.000+01:00</time>
      </trkpt>
      <trkpt lat="43.68846" lon="4.06489">
        <ele>87.33563513552</ele>
        <time>2020-11-25T14:25:16.000+01:00</time>
      </trkpt>
      <trkpt lat="43.68844" lon="4.06488">
        <ele>87.357288139425</ele>
        <time>2020-11-25T14:25:17.000+01:00</time>
      </trkpt>
      <trkpt lat="43.68844" lon="4.06486">
        <ele>87.379087711215</ele>
        <time>2020-11-25T14:25:18.000+01:00</time>
      </trkpt>
      <trkpt lat="43.68843" lon="4.06484">
        <ele>87.400914138112</ele>
        <time>2020-11-25T14:25:19.000+01:00</time>
      </trkpt>
      <trkpt lat="43.68842" lon="4.06482">
        <ele>87.42294513094</ele>
        <time>2020-11-25T14:25:20.000+01:00</time>
      </trkpt>
      <trkpt lat="43.68842" lon="4.06481">
        <ele>87.445072679585</ele>
        <time>2020-11-25T14:25:21.000+01:00</time>
      </trkpt>
      <trkpt lat="43.6884" lon="4.06479">
        <ele>87.467096148398</ele>
        <time>2020-11-25T14:25:22.000+01:00</time>
      </trkpt>
      <trkpt lat="43.6884" lon="4.06477">
        <ele>87.489050929751</ele>
        <time>2020-11-25T14:25:23.000+01:00</time>
      </trkpt>
      <trkpt lat="43.68839" lon="4.06476">
        <ele>87.510991190472</ele>
        <time>2020-11-25T14:25:24.000+01:00</time>
      </trkpt>
      <trkpt lat="43.68838" lon="4.06474">
        <ele>87.532922650645</ele>
        <time>2020-11-25T14:25:25.000+01:00</time>
      </trkpt>
      <trkpt lat="43.68837" lon="4.06472">
        <ele>87.554891498653</ele>
        <time>2020-11-25T14:25:26.000+01:00</time>
      </trkpt>
      <trkpt lat="43.68837" lon="4.0647">
        <ele>87.576824248254</ele>
        <time>2020-11-25T14:25:27.000+01:00</time>
      </trkpt>
      <trkpt lat="43.68836" lon="4.06469">
        <ele>87.598683480339</ele>
        <time>2020-11-25T14:25:28.000+01:00</time>
      </trkpt>
      <trkpt lat="43.68835" lon="4.06467">
        <ele>87.620406918366</ele>
        <time>2020-11-25T14:25:29.000+01:00</time>
      </trkpt>
      <trkpt lat="43.68835" lon="4.06465">
        <ele>87.64212577369</ele>
        <time>2020-11-25T14:25:30.000+01:00</time>
      </trkpt>
      <trkpt lat="43.68834" lon="4.06464">
        <ele>87.663921522946</ele>
        <time>2020-11-25T14:25:31.000+01:00</time>
      </trkpt>
      <trkpt lat="43.68834" lon="4.06462">
        <ele>87.685671862965</ele>
        <time>2020-11-25T14:25:32.000+01:00</time>
      </trkpt>
      <trkpt lat="43.68834" lon="4.06461">
        <ele>87.707615412723</ele>
        <time>2020-11-25T14:25:33.000+01:00</time>
      </trkpt>
      <trkpt lat="43.68833" lon="4.06459">
        <ele>87.72976177407</ele>
        <time>2020-11-25T14:25:34.000+01:00</time>
      </trkpt>
      <trkpt lat="43.68833" lon="4.06459">
        <ele>87.752000999015</ele>
        <time>2020-11-25T14:25:35.000+01:00</time>
      </trkpt>
      <trkpt lat="43.68833" lon="4.06458">
        <ele>87.774218656251</ele>
        <time>2020-11-25T14:25:36.000+01:00</time>
      </trkpt>
      <trkpt lat="43.68833" lon="4.06457">
        <ele>87.796404982775</ele>
        <time>2020-11-25T14:25:37.000+01:00</time>
      </trkpt>
      <trkpt lat="43.68833" lon="4.06456">
        <ele>87.818520994679</ele>
        <time>2020-11-25T14:25:38.000+01:00</time>
      </trkpt>
      <trkpt lat="43.68832" lon="4.06455">
        <ele>87.840536996997</ele>
        <time>2020-11-25T14:25:39.000+01:00</time>
      </trkpt>
      <trkpt lat="43.68832" lon="4.06454">
        <ele>87.862481409485</ele>
        <time>2020-11-25T14:25:40.000+01:00</time>
      </trkpt>
      <trkpt lat="43.68831" lon="4.06453">
        <ele>87.884422046747</ele>
        <time>2020-11-25T14:25:41.000+01:00</time>
      </trkpt>
      <trkpt lat="43.6883" lon="4.06452">
        <ele>87.906224342249</ele>
        <time>2020-11-25T14:25:42.000+01:00</time>
      </trkpt>
      <trkpt lat="43.6883" lon="4.06451">
        <ele>87.927761174633</ele>
        <time>2020-11-25T14:25:43.000+01:00</time>
      </trkpt>
      <trkpt lat="43.68829" lon="4.06451">
        <ele>87.949130422574</ele>
        <time>2020-11-25T14:25:44.000+01:00</time>
      </trkpt>
      <trkpt lat="43.68829" lon="4.06449">
        <ele>87.970385362571</ele>
        <time>2020-11-25T14:25:45.000+01:00</time>
      </trkpt>
      <trkpt lat="43.68828" lon="4.06448">
        <ele>87.991657853556</ele>
        <time>2020-11-25T14:25:46.000+01:00</time>
      </trkpt>
      <trkpt lat="43.68827" lon="4.06447">
        <ele>88.012919692312</ele>
        <time>2020-11-25T14:25:47.000+01:00</time>
      </trkpt>
      <trkpt lat="43.68827" lon="4.06446">
        <ele>88.034167175874</ele>
        <time>2020-11-25T14:25:48.000+01:00</time>
      </trkpt>
      <trkpt lat="43.68826" lon="4.06445">
        <ele>88.05531909953</ele>
        <time>2020-11-25T14:25:49.000+01:00</time>
      </trkpt>
      <trkpt lat="43.68826" lon="4.06444">
        <ele>88.076528414638</ele>
        <time>2020-11-25T14:25:50.000+01:00</time>
      </trkpt>
      <trkpt lat="43.68826" lon="4.06443">
        <ele>88.097492715221</ele>
        <time>2020-11-25T14:25:51.000+01:00</time>
      </trkpt>
      <trkpt lat="43.68825" lon="4.06442">
        <ele>88.118412149381</ele>
        <time>2020-11-25T14:25:52.000+01:00</time>
      </trkpt>
      <trkpt lat="43.68825" lon="4.06441">
        <ele>88.13903681778</ele>
        <time>2020-11-25T14:25:53.000+01:00</time>
      </trkpt>
      <trkpt lat="43.68825" lon="4.06441">
        <ele>88.159314146949</ele>
        <time>2020-11-25T14:25:54.000+01:00</time>
      </trkpt>
      <trkpt lat="43.68824" lon="4.0644">
        <ele>88.179174674283</ele>
        <time>2020-11-25T14:25:55.000+01:00</time>
      </trkpt>
      <trkpt lat="43.68824" lon="4.06441">
        <ele>88.19892914286</ele>
        <time>2020-11-25T14:25:56.000+01:00</time>
      </trkpt>
      <trkpt lat="43.68824" lon="4.0644">
        <ele>88.218521329519</ele>
        <time>2020-11-25T14:25:57.000+01:00</time>
      </trkpt>
      <trkpt lat="43.68824" lon="4.06439">
        <ele>88.237794592222</ele>
        <time>2020-11-25T14:25:58.000+01:00</time>
      </trkpt>
      <trkpt lat="43.68823" lon="4.06439">
        <ele>88.256946782866</ele>
        <time>2020-11-25T14:25:59.000+01:00</time>
      </trkpt>
      <trkpt lat="43.68823" lon="4.06438">
        <ele>88.275759486703</ele>
        <time>2020-11-25T14:26:00.000+01:00</time>
      </trkpt>
      <trkpt lat="43.68823" lon="4.06438">
        <ele>88.294292006004</ele>
        <time>2020-11-25T14:26:01.000+01:00</time>
      </trkpt>
      <trkpt lat="43.68823" lon="4.06438">
        <ele>88.312844097694</ele>
        <time>2020-11-25T14:26:02.000+01:00</time>
      </trkpt>
      <trkpt lat="43.68823" lon="4.06437">
        <ele>88.331253240792</ele>
        <time>2020-11-25T14:26:03.000+01:00</time>
      </trkpt>
      <trkpt lat="43.68823" lon="4.06437">
        <ele>88.333068905191</ele>
        <time>2020-11-25T14:26:04.000+01:00</time>
      </trkpt>
      <trkpt lat="43.68822" lon="4.06437">
        <ele>88.351588146723</ele>
        <time>2020-11-25T14:26:05.000+01:00</time>
      </trkpt>
      <trkpt lat="43.68822" lon="4.06435">
        <ele>88.369773315916</ele>
        <time>2020-11-25T14:26:06.000+01:00</time>
      </trkpt>
      <trkpt lat="43.68821" lon="4.06435">
        <ele>88.371581169169</ele>
        <time>2020-11-25T14:26:07.000+01:00</time>
      </trkpt>
      <trkpt lat="43.68821" lon="4.06434">
        <ele>88.389551902378</ele>
        <time>2020-11-25T14:26:08.000+01:00</time>
      </trkpt>
      <trkpt lat="43.68821" lon="4.06434">
        <ele>88.40715244942</ele>
        <time>2020-11-25T14:26:09.000+01:00</time>
      </trkpt>
      <trkpt lat="43.6882" lon="4.06434">
        <ele>88.408874700743</ele>
        <time>2020-11-25T14:26:10.000+01:00</time>
      </trkpt>
      <trkpt lat="43.6882" lon="4.06434">
        <ele>88.410601082276</ele>
        <time>2020-11-25T14:26:11.000+01:00</time>
      </trkpt>
      <trkpt lat="43.6882" lon="4.06433">
        <ele>88.428011753782</ele>
        <time>2020-11-25T14:26:12.000+01:00</time>
      </trkpt>
      <trkpt lat="43.6882" lon="4.06432">
        <ele>88.445323218136</ele>
        <time>2020-11-25T14:26:13.000+01:00</time>
      </trkpt>
      <trkpt lat="43.6882" lon="4.06431">
        <ele>88.462634765723</ele>
        <time>2020-11-25T14:26:14.000+01:00</time>
      </trkpt>
      <trkpt lat="43.68821" lon="4.0643">
        <ele>88.479898256393</ele>
        <time>2020-11-25T14:26:15.000+01:00</time>
      </trkpt>
      <trkpt lat="43.68821" lon="4.06429">
        <ele>88.497204308746</ele>
        <time>2020-11-25T14:26:16.000+01:00</time>
      </trkpt>
      <trkpt lat="43.68821" lon="4.06428">
        <ele>88.514269162431</ele>
        <time>2020-11-25T14:26:17.000+01:00</time>
      </trkpt>
      <trkpt lat="43.68821" lon="4.06427">
        <ele>88.531266963475</ele>
        <time>2020-11-25T14:26:18.000+01:00</time>
      </trkpt>
      <trkpt lat="43.6882" lon="4.06426">
        <ele>88.547890299531</ele>
        <time>2020-11-25T14:26:19.000+01:00</time>
      </trkpt>
      <trkpt lat="43.6882" lon="4.06424">
        <ele>88.564211586275</ele>
        <time>2020-11-25T14:26:20.000+01:00</time>
      </trkpt>
      <trkpt lat="43.6882" lon="4.06424">
        <ele>88.580291408559</ele>
        <time>2020-11-25T14:26:21.000+01:00</time>
      </trkpt>
      <trkpt lat="43.68819" lon="4.06423">
        <ele>88.59623027271</ele>
        <time>2020-11-25T14:26:22.000+01:00</time>
      </trkpt>
      <trkpt lat="43.68819" lon="4.06422">
        <ele>88.612080170541</ele>
        <time>2020-11-25T14:26:23.000+01:00</time>
      </trkpt>
      <trkpt lat="43.68818" lon="4.06421">
        <ele>88.627978166691</ele>
        <time>2020-11-25T14:26:24.000+01:00</time>
      </trkpt>
      <trkpt lat="43.68818" lon="4.06419">
        <ele>88.643683812607</ele>
        <time>2020-11-25T14:26:25.000+01:00</time>
      </trkpt>
      <trkpt lat="43.68817" lon="4.06418">
        <ele>88.659225281541</ele>
        <time>2020-11-25T14:26:26.000+01:00</time>
      </trkpt>
      <trkpt lat="43.68816" lon="4.06416">
        <ele>88.674531342757</ele>
        <time>2020-11-25T14:26:27.000+01:00</time>
      </trkpt>
      <trkpt lat="43.68816" lon="4.06414">
        <ele>88.689600149442</ele>
        <time>2020-11-25T14:26:28.000+01:00</time>
      </trkpt>
      <trkpt lat="43.68815" lon="4.06413">
        <ele>88.70438985599</ele>
        <time>2020-11-25T14:26:29.000+01:00</time>
      </trkpt>
      <trkpt lat="43.68815" lon="4.06412">
        <ele>88.718815056369</ele>
        <time>2020-11-25T14:26:30.000+01:00</time>
      </trkpt>
      <trkpt lat="43.68814" lon="4.0641">
        <ele>88.732981398755</ele>
        <time>2020-11-25T14:26:31.000+01:00</time>
      </trkpt>
      <trkpt lat="43.68814" lon="4.06409">
        <ele>88.746800868892</ele>
        <time>2020-11-25T14:26:32.000+01:00</time>
      </trkpt>
      <trkpt lat="43.68813" lon="4.06408">
        <ele>88.760195723088</ele>
        <time>2020-11-25T14:26:33.000+01:00</time>
      </trkpt>
      <trkpt lat="43.68813" lon="4.06407">
        <ele>88.773063562805</ele>
        <time>2020-11-25T14:26:34.000+01:00</time>
      </trkpt>
      <trkpt lat="43.68813" lon="4.06406">
        <ele>88.785703764698</ele>
        <time>2020-11-25T14:26:35.000+01:00</time>
      </trkpt>
      <trkpt lat="43.68812" lon="4.06405">
        <ele>88.798308740961</ele>
        <time>2020-11-25T14:26:36.000+01:00</time>
      </trkpt>
      <trkpt lat="43.68812" lon="4.06404">
        <ele>88.810820367547</ele>
        <time>2020-11-25T14:26:37.000+01:00</time>
      </trkpt>
      <trkpt lat="43.68813" lon="4.06403">
        <ele>88.82319501613</ele>
        <time>2020-11-25T14:26:38.000+01:00</time>
      </trkpt>
      <trkpt lat="43.68813" lon="4.06402">
        <ele>88.835349747219</ele>
        <time>2020-11-25T14:26:39.000+01:00</time>
      </trkpt>
      <trkpt lat="43.68812" lon="4.06401">
        <ele>88.847284352574</ele>
        <time>2020-11-25T14:26:40.000+01:00</time>
      </trkpt>
      <trkpt lat="43.68811" lon="4.064">
        <ele>88.858724199752</ele>
        <time>2020-11-25T14:26:41.000+01:00</time>
      </trkpt>
      <trkpt lat="43.68811" lon="4.06399">
        <ele>88.869800402548</ele>
        <time>2020-11-25T14:26:42.000+01:00</time>
      </trkpt>
      <trkpt lat="43.68811" lon="4.06398">
        <ele>88.881116591745</ele>
        <time>2020-11-25T14:26:43.000+01:00</time>
      </trkpt>
      <trkpt lat="43.6881" lon="4.06397">
        <ele>88.892448845421</ele>
        <time>2020-11-25T14:26:44.000+01:00</time>
      </trkpt>
      <trkpt lat="43.68809" lon="4.06396">
        <ele>88.903759737879</ele>
        <time>2020-11-25T14:26:45.000+01:00</time>
      </trkpt>
      <trkpt lat="43.68808" lon="4.06396">
        <ele>88.915126944492</ele>
        <time>2020-11-25T14:26:46.000+01:00</time>
      </trkpt>
      <trkpt lat="43.68807" lon="4.06396">
        <ele>88.926515047088</ele>
        <time>2020-11-25T14:26:47.000+01:00</time>
      </trkpt>
      <trkpt lat="43.68806" lon="4.06396">
        <ele>88.93779224018</ele>
        <time>2020-11-25T14:26:48.000+01:00</time>
      </trkpt>
      <trkpt lat="43.68805" lon="4.06397">
        <ele>88.949158255122</ele>
        <time>2020-11-25T14:26:49.000+01:00</time>
      </trkpt>
      <trkpt lat="43.68804" lon="4.06399">
        <ele>88.960923117685</ele>
        <time>2020-11-25T14:26:50.000+01:00</time>
      </trkpt>
      <trkpt lat="43.68804" lon="4.064">
        <ele>88.972812056885</ele>
        <time>2020-11-25T14:26:51.000+01:00</time>
      </trkpt>
      <trkpt lat="43.68804" lon="4.06401">
        <ele>88.984840048705</ele>
        <time>2020-11-25T14:26:52.000+01:00</time>
      </trkpt>
      <trkpt lat="43.68803" lon="4.06402">
        <ele>88.997139027073</ele>
        <time>2020-11-25T14:26:53.000+01:00</time>
      </trkpt>
      <trkpt lat="43.68803" lon="4.06403">
        <ele>89.009560241658</ele>
        <time>2020-11-25T14:26:54.000+01:00</time>
      </trkpt>
      <trkpt lat="43.68803" lon="4.06405">
        <ele>89.022239996002</ele>
        <time>2020-11-25T14:26:55.000+01:00</time>
      </trkpt>
      <trkpt lat="43.68803" lon="4.06407">
        <ele>89.035283443821</ele>
        <time>2020-11-25T14:26:56.000+01:00</time>
      </trkpt>
      <trkpt lat="43.68802" lon="4.06409">
        <ele>89.048629094706</ele>
        <time>2020-11-25T14:26:57.000+01:00</time>
      </trkpt>
      <trkpt lat="43.68802" lon="4.0641">
        <ele>89.062294316022</ele>
        <time>2020-11-25T14:26:58.000+01:00</time>
      </trkpt>
      <trkpt lat="43.68802" lon="4.06412">
        <ele>89.076094454979</ele>
        <time>2020-11-25T14:26:59.000+01:00</time>
      </trkpt>
      <trkpt lat="43.68802" lon="4.06413">
        <ele>89.090141481446</ele>
        <time>2020-11-25T14:27:00.000+01:00</time>
      </trkpt>
      <trkpt lat="43.68802" lon="4.06414">
        <ele>89.104394706723</ele>
        <time>2020-11-25T14:27:01.000+01:00</time>
      </trkpt>
      <trkpt lat="43.68802" lon="4.06416">
        <ele>89.118867091704</ele>
        <time>2020-11-25T14:27:02.000+01:00</time>
      </trkpt>
      <trkpt lat="43.68801" lon="4.06417">
        <ele>89.133553408965</ele>
        <time>2020-11-25T14:27:03.000+01:00</time>
      </trkpt>
      <trkpt lat="43.68801" lon="4.06419">
        <ele>89.148465831956</ele>
        <time>2020-11-25T14:27:04.000+01:00</time>
      </trkpt>
      <trkpt lat="43.68801" lon="4.0642">
        <ele>89.163585511163</ele>
        <time>2020-11-25T14:27:05.000+01:00</time>
      </trkpt>
      <trkpt lat="43.688" lon="4.06421">
        <ele>89.179000188222</ele>
        <time>2020-11-25T14:27:06.000+01:00</time>
      </trkpt>
      <trkpt lat="43.688" lon="4.06423">
        <ele>89.194534019283</ele>
        <time>2020-11-25T14:27:07.000+01:00</time>
      </trkpt>
      <trkpt lat="43.688" lon="4.06424">
        <ele>89.210315652862</ele>
        <time>2020-11-25T14:27:08.000+01:00</time>
      </trkpt>
      <trkpt lat="43.68799" lon="4.06426">
        <ele>89.226213635705</ele>
        <time>2020-11-25T14:27:09.000+01:00</time>
      </trkpt>
      <trkpt lat="43.68799" lon="4.06427">
        <ele>89.24219523043</ele>
        <time>2020-11-25T14:27:10.000+01:00</time>
      </trkpt>
      <trkpt lat="43.68799" lon="4.06429">
        <ele>89.258290488989</ele>
        <time>2020-11-25T14:27:11.000+01:00</time>
      </trkpt>
      <trkpt lat="43.68799" lon="4.0643">
        <ele>89.274386061547</ele>
        <time>2020-11-25T14:27:12.000+01:00</time>
      </trkpt>
      <trkpt lat="43.68799" lon="4.06432">
        <ele>89.29052072409</ele>
        <time>2020-11-25T14:27:13.000+01:00</time>
      </trkpt>
      <trkpt lat="43.68798" lon="4.06433">
        <ele>89.306663411411</ele>
        <time>2020-11-25T14:27:14.000+01:00</time>
      </trkpt>
      <trkpt lat="43.68798" lon="4.06434">
        <ele>89.3228482172</ele>
        <time>2020-11-25T14:27:15.000+01:00</time>
      </trkpt>
      <trkpt lat="43.68798" lon="4.06436">
        <ele>89.339188876689</ele>
        <time>2020-11-25T14:27:16.000+01:00</time>
      </trkpt>
      <trkpt lat="43.68798" lon="4.06438">
        <ele>89.355645663488</ele>
        <time>2020-11-25T14:27:17.000+01:00</time>
      </trkpt>
      <trkpt lat="43.68798" lon="4.06439">
        <ele>89.372255108631</ele>
        <time>2020-11-25T14:27:18.000+01:00</time>
      </trkpt>
      <trkpt lat="43.68798" lon="4.06441">
        <ele>89.38898143637</ele>
        <time>2020-11-25T14:27:19.000+01:00</time>
      </trkpt>
      <trkpt lat="43.68798" lon="4.06442">
        <ele>89.405802926459</ele>
        <time>2020-11-25T14:27:20.000+01:00</time>
      </trkpt>
      <trkpt lat="43.68798" lon="4.06444">
        <ele>89.422775808616</ele>
        <time>2020-11-25T14:27:21.000+01:00</time>
      </trkpt>
      <trkpt lat="43.68798" lon="4.06446">
        <ele>89.439736076661</ele>
        <time>2020-11-25T14:27:22.000+01:00</time>
      </trkpt>
      <trkpt lat="43.68797" lon="4.06448">
        <ele>89.456760568084</ele>
        <time>2020-11-25T14:27:23.000+01:00</time>
      </trkpt>
      <trkpt lat="43.68797" lon="4.06449">
        <ele>89.47386162008</ele>
        <time>2020-11-25T14:27:24.000+01:00</time>
      </trkpt>
      <trkpt lat="43.68797" lon="4.06451">
        <ele>89.490915385199</ele>
        <time>2020-11-25T14:27:25.000+01:00</time>
      </trkpt>
      <trkpt lat="43.68797" lon="4.06452">
        <ele>89.507875922962</ele>
        <time>2020-11-25T14:27:26.000+01:00</time>
      </trkpt>
      <trkpt lat="43.68797" lon="4.06454">
        <ele>89.524809322237</ele>
        <time>2020-11-25T14:27:27.000+01:00</time>
      </trkpt>
      <trkpt lat="43.68797" lon="4.06455">
        <ele>89.541818837979</ele>
        <time>2020-11-25T14:27:28.000+01:00</time>
      </trkpt>
      <trkpt lat="43.68797" lon="4.06456">
        <ele>89.558835938009</ele>
        <time>2020-11-25T14:27:29.000+01:00</time>
      </trkpt>
      <trkpt lat="43.68797" lon="4.06458">
        <ele>89.575778385531</ele>
        <time>2020-11-25T14:27:30.000+01:00</time>
      </trkpt>
      <trkpt lat="43.68797" lon="4.06459">
        <ele>89.592759239922</ele>
        <time>2020-11-25T14:27:31.000+01:00</time>
      </trkpt>
      <trkpt lat="43.68797" lon="4.06461">
        <ele>89.609761139142</ele>
        <time>2020-11-25T14:27:32.000+01:00</time>
      </trkpt>
      <trkpt lat="43.68797" lon="4.06462">
        <ele>89.626608527857</ele>
        <time>2020-11-25T14:27:33.000+01:00</time>
      </trkpt>
      <trkpt lat="43.68797" lon="4.06463">
        <ele>89.643425677717</ele>
        <time>2020-11-25T14:27:34.000+01:00</time>
      </trkpt>
      <trkpt lat="43.68797" lon="4.06465">
        <ele>89.660195280768</ele>
        <time>2020-11-25T14:27:35.000+01:00</time>
      </trkpt>
      <trkpt lat="43.68797" lon="4.06467">
        <ele>89.676919036591</ele>
        <time>2020-11-25T14:27:36.000+01:00</time>
      </trkpt>
      <trkpt lat="43.68797" lon="4.06468">
        <ele>89.693651317451</ele>
        <time>2020-11-25T14:27:37.000+01:00</time>
      </trkpt>
      <trkpt lat="43.68797" lon="4.0647">
        <ele>89.710281646031</ele>
        <time>2020-11-25T14:27:38.000+01:00</time>
      </trkpt>
      <trkpt lat="43.68797" lon="4.06471">
        <ele>89.726779500208</ele>
        <time>2020-11-25T14:27:39.000+01:00</time>
      </trkpt>
      <trkpt lat="43.68798" lon="4.06473">
        <ele>89.743166474617</ele>
        <time>2020-11-25T14:27:40.000+01:00</time>
      </trkpt>
      <trkpt lat="43.68798" lon="4.06474">
        <ele>89.759612825125</ele>
        <time>2020-11-25T14:27:41.000+01:00</time>
      </trkpt>
      <trkpt lat="43.68798" lon="4.06475">
        <ele>89.776002224515</ele>
        <time>2020-11-25T14:27:42.000+01:00</time>
      </trkpt>
      <trkpt lat="43.68798" lon="4.06477">
        <ele>89.792301961684</ele>
        <time>2020-11-25T14:27:43.000+01:00</time>
      </trkpt>
      <trkpt lat="43.68799" lon="4.06478">
        <ele>89.808455783154</ele>
        <time>2020-11-25T14:27:44.000+01:00</time>
      </trkpt>
      <trkpt lat="43.68799" lon="4.0648">
        <ele>89.824438746945</ele>
        <time>2020-11-25T14:27:45.000+01:00</time>
      </trkpt>
      <trkpt lat="43.68799" lon="4.06481">
        <ele>89.840256343352</ele>
        <time>2020-11-25T14:27:46.000+01:00</time>
      </trkpt>
      <trkpt lat="43.68799" lon="4.06482">
        <ele>89.85588303155</ele>
        <time>2020-11-25T14:27:47.000+01:00</time>
      </trkpt>
      <trkpt lat="43.688" lon="4.06483">
        <ele>89.871439652431</ele>
        <time>2020-11-25T14:27:48.000+01:00</time>
      </trkpt>
      <trkpt lat="43.688" lon="4.06485">
        <ele>89.886946796776</ele>
        <time>2020-11-25T14:27:49.000+01:00</time>
      </trkpt>
      <trkpt lat="43.688" lon="4.06486">
        <ele>89.902418695413</ele>
        <time>2020-11-25T14:27:50.000+01:00</time>
      </trkpt>
      <trkpt lat="43.688" lon="4.06488">
        <ele>89.917987476166</ele>
        <time>2020-11-25T14:27:51.000+01:00</time>
      </trkpt>
      <trkpt lat="43.688" lon="4.06489">
        <ele>89.933546153011</ele>
        <time>2020-11-25T14:27:52.000+01:00</time>
      </trkpt>
      <trkpt lat="43.688" lon="4.06491">
        <ele>89.949034556845</ele>
        <time>2020-11-25T14:27:53.000+01:00</time>
      </trkpt>
      <trkpt lat="43.688" lon="4.06492">
        <ele>89.964391446518</ele>
        <time>2020-11-25T14:27:54.000+01:00</time>
      </trkpt>
      <trkpt lat="43.688" lon="4.06494">
        <ele>89.979652275096</ele>
        <time>2020-11-25T14:27:55.000+01:00</time>
      </trkpt>
      <trkpt lat="43.688" lon="4.06495">
        <ele>89.994719647026</ele>
        <time>2020-11-25T14:27:56.000+01:00</time>
      </trkpt>
      <trkpt lat="43.688" lon="4.06497">
        <ele>90.009742419525</ele>
        <time>2020-11-25T14:27:57.000+01:00</time>
      </trkpt>
      <trkpt lat="43.688" lon="4.06498">
        <ele>90.024676259601</ele>
        <time>2020-11-25T14:27:58.000+01:00</time>
      </trkpt>
      <trkpt lat="43.688" lon="4.06499">
        <ele>90.039515588813</ele>
        <time>2020-11-25T14:27:59.000+01:00</time>
      </trkpt>
      <trkpt lat="43.688" lon="4.065">
        <ele>90.054286283247</ele>
        <time>2020-11-25T14:28:00.000+01:00</time>
      </trkpt>
      <trkpt lat="43.688" lon="4.06502">
        <ele>90.06890909851</ele>
        <time>2020-11-25T14:28:01.000+01:00</time>
      </trkpt>
      <trkpt lat="43.688" lon="4.06503">
        <ele>90.083446218813</ele>
        <time>2020-11-25T14:28:02.000+01:00</time>
      </trkpt>
      <trkpt lat="43.688" lon="4.06504">
        <ele>90.097888356754</ele>
        <time>2020-11-25T14:28:03.000+01:00</time>
      </trkpt>
      <trkpt lat="43.688" lon="4.06506">
        <ele>90.112266378463</ele>
        <time>2020-11-25T14:28:04.000+01:00</time>
      </trkpt>
      <trkpt lat="43.688" lon="4.06508">
        <ele>90.126471813157</ele>
        <time>2020-11-25T14:28:05.000+01:00</time>
      </trkpt>
      <trkpt lat="43.68801" lon="4.06509">
        <ele>90.14048450915</ele>
        <time>2020-11-25T14:28:06.000+01:00</time>
      </trkpt>
      <trkpt lat="43.68801" lon="4.06511">
        <ele>90.15418534825</ele>
        <time>2020-11-25T14:28:07.000+01:00</time>
      </trkpt>
      <trkpt lat="43.68801" lon="4.06512">
        <ele>90.167658382011</ele>
        <time>2020-11-25T14:28:08.000+01:00</time>
      </trkpt>
      <trkpt lat="43.68801" lon="4.06513">
        <ele>90.180903241356</ele>
        <time>2020-11-25T14:28:09.000+01:00</time>
      </trkpt>
      <trkpt lat="43.68801" lon="4.06515">
        <ele>90.193962416361</ele>
        <time>2020-11-25T14:28:10.000+01:00</time>
      </trkpt>
      <trkpt lat="43.688" lon="4.06516">
        <ele>90.206866996186</ele>
        <time>2020-11-25T14:28:11.000+01:00</time>
      </trkpt>
      <trkpt lat="43.688" lon="4.06518">
        <ele>90.219702820906</ele>
        <time>2020-11-25T14:28:12.000+01:00</time>
      </trkpt>
      <trkpt lat="43.688" lon="4.0652">
        <ele>90.232431667925</ele>
        <time>2020-11-25T14:28:13.000+01:00</time>
      </trkpt>
      <trkpt lat="43.688" lon="4.06521">
        <ele>90.245122569746</ele>
        <time>2020-11-25T14:28:14.000+01:00</time>
      </trkpt>
      <trkpt lat="43.688" lon="4.06522">
        <ele>90.257753313186</ele>
        <time>2020-11-25T14:28:15.000+01:00</time>
      </trkpt>
      <trkpt lat="43.688" lon="4.06524">
        <ele>90.270312683537</ele>
        <time>2020-11-25T14:28:16.000+01:00</time>
      </trkpt>
      <trkpt lat="43.688" lon="4.06525">
        <ele>90.282737765822</ele>
        <time>2020-11-25T14:28:17.000+01:00</time>
      </trkpt>
      <trkpt lat="43.688" lon="4.06527">
        <ele>90.295025543609</ele>
        <time>2020-11-25T14:28:18.000+01:00</time>
      </trkpt>
      <trkpt lat="43.688" lon="4.06529">
        <ele>90.307167621007</ele>
        <time>2020-11-25T14:28:19.000+01:00</time>
      </trkpt>
      <trkpt lat="43.688" lon="4.0653">
        <ele>90.319279046817</ele>
        <time>2020-11-25T14:28:20.000+01:00</time>
      </trkpt>
      <trkpt lat="43.688" lon="4.06531">
        <ele>90.331455807531</ele>
        <time>2020-11-25T14:28:21.000+01:00</time>
      </trkpt>
      <trkpt lat="43.688" lon="4.06532">
        <ele>90.343797037703</ele>
        <time>2020-11-25T14:28:22.000+01:00</time>
      </trkpt>
      <trkpt lat="43.68801" lon="4.06534">
        <ele>90.356293289602</ele>
        <time>2020-11-25T14:28:23.000+01:00</time>
      </trkpt>
      <trkpt lat="43.68801" lon="4.06535">
        <ele>90.368962285633</ele>
        <time>2020-11-25T14:28:24.000+01:00</time>
      </trkpt>
      <trkpt lat="43.68802" lon="4.06537">
        <ele>90.381704299474</ele>
        <time>2020-11-25T14:28:25.000+01:00</time>
      </trkpt>
      <trkpt lat="43.68802" lon="4.06538">
        <ele>90.394560066375</ele>
        <time>2020-11-25T14:28:26.000+01:00</time>
      </trkpt>
      <trkpt lat="43.68802" lon="4.06539">
        <ele>90.407418439396</ele>
        <time>2020-11-25T14:28:27.000+01:00</time>
      </trkpt>
      <trkpt lat="43.68802" lon="4.06541">
        <ele>90.420344554969</ele>
        <time>2020-11-25T14:28:28.000+01:00</time>
      </trkpt>
      <trkpt lat="43.68802" lon="4.06542">
        <ele>90.433280421015</ele>
        <time>2020-11-25T14:28:29.000+01:00</time>
      </trkpt>
      <trkpt lat="43.68802" lon="4.06544">
        <ele>90.446128746651</ele>
        <time>2020-11-25T14:28:30.000+01:00</time>
      </trkpt>
      <trkpt lat="43.68803" lon="4.06546">
        <ele>90.459086495272</ele>
        <time>2020-11-25T14:28:31.000+01:00</time>
      </trkpt>
      <trkpt lat="43.68803" lon="4.06548">
        <ele>90.472142439417</ele>
        <time>2020-11-25T14:28:32.000+01:00</time>
      </trkpt>
      <trkpt lat="43.68803" lon="4.0655">
        <ele>90.485235135062</ele>
        <time>2020-11-25T14:28:33.000+01:00</time>
      </trkpt>
      <trkpt lat="43.68803" lon="4.06551">
        <ele>90.49836740992</ele>
        <time>2020-11-25T14:28:34.000+01:00</time>
      </trkpt>
      <trkpt lat="43.68803" lon="4.06553">
        <ele>90.511615856936</ele>
        <time>2020-11-25T14:28:35.000+01:00</time>
      </trkpt>
      <trkpt lat="43.68803" lon="4.06555">
        <ele>90.524948723082</ele>
        <time>2020-11-25T14:28:36.000+01:00</time>
      </trkpt>
      <trkpt lat="43.68803" lon="4.06557">
        <ele>90.538307793821</ele>
        <time>2020-11-25T14:28:37.000+01:00</time>
      </trkpt>
      <trkpt lat="43.68803" lon="4.06558">
        <ele>90.551779404571</ele>
        <time>2020-11-25T14:28:38.000+01:00</time>
      </trkpt>
      <trkpt lat="43.68803" lon="4.0656">
        <ele>90.565371073314</ele>
        <time>2020-11-25T14:28:39.000+01:00</time>
      </trkpt>
      <trkpt lat="43.68803" lon="4.06561">
        <ele>90.579163303828</ele>
        <time>2020-11-25T14:28:40.000+01:00</time>
      </trkpt>
      <trkpt lat="43.68803" lon="4.06563">
        <ele>90.593181511326</ele>
        <time>2020-11-25T14:28:41.000+01:00</time>
      </trkpt>
      <trkpt lat="43.68803" lon="4.06564">
        <ele>90.607390721357</ele>
        <time>2020-11-25T14:28:42.000+01:00</time>
      </trkpt>
      <trkpt lat="43.68803" lon="4.06566">
        <ele>90.621838226174</ele>
        <time>2020-11-25T14:28:43.000+01:00</time>
      </trkpt>
      <trkpt lat="43.68803" lon="4.06568">
        <ele>90.636457556317</ele>
        <time>2020-11-25T14:28:44.000+01:00</time>
      </trkpt>
      <trkpt lat="43.68803" lon="4.06569">
        <ele>90.651269834991</ele>
        <time>2020-11-25T14:28:45.000+01:00</time>
      </trkpt>
      <trkpt lat="43.68803" lon="4.0657">
        <ele>90.666272500352</ele>
        <time>2020-11-25T14:28:46.000+01:00</time>
      </trkpt>
      <trkpt lat="43.68803" lon="4.06572">
        <ele>90.681400984396</ele>
        <time>2020-11-25T14:28:47.000+01:00</time>
      </trkpt>
      <trkpt lat="43.68803" lon="4.06573">
        <ele>90.696718336085</ele>
        <time>2020-11-25T14:28:48.000+01:00</time>
      </trkpt>
      <trkpt lat="43.68803" lon="4.06575">
        <ele>90.712349083607</ele>
        <time>2020-11-25T14:28:49.000+01:00</time>
      </trkpt>
      <trkpt lat="43.68803" lon="4.06576">
        <ele>90.728203685452</ele>
        <time>2020-11-25T14:28:50.000+01:00</time>
      </trkpt>
      <trkpt lat="43.68804" lon="4.06578">
        <ele>90.744300278575</ele>
        <time>2020-11-25T14:28:51.000+01:00</time>
      </trkpt>
      <trkpt lat="43.68804" lon="4.06579">
        <ele>90.760602655819</ele>
        <time>2020-11-25T14:28:52.000+01:00</time>
      </trkpt>
      <trkpt lat="43.68804" lon="4.06581">
        <ele>90.777007648639</ele>
        <time>2020-11-25T14:28:53.000+01:00</time>
      </trkpt>
      <trkpt lat="43.68804" lon="4.06583">
        <ele>90.793511965542</ele>
        <time>2020-11-25T14:28:54.000+01:00</time>
      </trkpt>
      <trkpt lat="43.68803" lon="4.06584">
        <ele>90.81012269463</ele>
        <time>2020-11-25T14:28:55.000+01:00</time>
      </trkpt>
      <trkpt lat="43.68803" lon="4.06586">
        <ele>90.826816023867</ele>
        <time>2020-11-25T14:28:56.000+01:00</time>
      </trkpt>
      <trkpt lat="43.68803" lon="4.06587">
        <ele>90.843532884775</ele>
        <time>2020-11-25T14:28:57.000+01:00</time>
      </trkpt>
      <trkpt lat="43.68802" lon="4.06588">
        <ele>90.860287127544</ele>
        <time>2020-11-25T14:28:58.000+01:00</time>
      </trkpt>
      <trkpt lat="43.68802" lon="4.0659">
        <ele>90.877070084851</ele>
        <time>2020-11-25T14:28:59.000+01:00</time>
      </trkpt>
      <trkpt lat="43.68802" lon="4.06591">
        <ele>90.893872774991</ele>
        <time>2020-11-25T14:29:00.000+01:00</time>
      </trkpt>
      <trkpt lat="43.68802" lon="4.06593">
        <ele>90.910700321403</ele>
        <time>2020-11-25T14:29:01.000+01:00</time>
      </trkpt>
      <trkpt lat="43.68802" lon="4.06595">
        <ele>90.927581978982</ele>
        <time>2020-11-25T14:29:02.000+01:00</time>
      </trkpt>
      <trkpt lat="43.68802" lon="4.06596">
        <ele>90.944516759671</ele>
        <time>2020-11-25T14:29:03.000+01:00</time>
      </trkpt>
      <trkpt lat="43.68803" lon="4.06598">
        <ele>90.961514134643</ele>
        <time>2020-11-25T14:29:04.000+01:00</time>
      </trkpt>
      <trkpt lat="43.68803" lon="4.066">
        <ele>90.978493659106</ele>
        <time>2020-11-25T14:29:05.000+01:00</time>
      </trkpt>
      <trkpt lat="43.68803" lon="4.06601">
        <ele>90.995457606608</ele>
        <time>2020-11-25T14:29:06.000+01:00</time>
      </trkpt>
      <trkpt lat="43.68803" lon="4.06603">
        <ele>91.012455328934</ele>
        <time>2020-11-25T14:29:07.000+01:00</time>
      </trkpt>
      <trkpt lat="43.68804" lon="4.06604">
        <ele>91.02940950172</ele>
        <time>2020-11-25T14:29:08.000+01:00</time>
      </trkpt>
      <trkpt lat="43.68804" lon="4.06606">
        <ele>91.046488491136</ele>
        <time>2020-11-25T14:29:09.000+01:00</time>
      </trkpt>
      <trkpt lat="43.68804" lon="4.06607">
        <ele>91.063658136576</ele>
        <time>2020-11-25T14:29:10.000+01:00</time>
      </trkpt>
      <trkpt lat="43.68804" lon="4.06608">
        <ele>91.080935960762</ele>
        <time>2020-11-25T14:29:11.000+01:00</time>
      </trkpt>
      <trkpt lat="43.68804" lon="4.0661">
        <ele>91.09832990522</ele>
        <time>2020-11-25T14:29:12.000+01:00</time>
      </trkpt>
      <trkpt lat="43.68805" lon="4.06611">
        <ele>91.115695380524</ele>
        <time>2020-11-25T14:29:13.000+01:00</time>
      </trkpt>
      <trkpt lat="43.68805" lon="4.06613">
        <ele>91.133064481151</ele>
        <time>2020-11-25T14:29:14.000+01:00</time>
      </trkpt>
      <trkpt lat="43.68805" lon="4.06614">
        <ele>91.150506248225</ele>
        <time>2020-11-25T14:29:15.000+01:00</time>
      </trkpt>
      <trkpt lat="43.68805" lon="4.06616">
        <ele>91.167924163178</ele>
        <time>2020-11-25T14:29:16.000+01:00</time>
      </trkpt>
      <trkpt lat="43.68805" lon="4.06618">
        <ele>91.185364330676</ele>
        <time>2020-11-25T14:29:17.000+01:00</time>
      </trkpt>
      <trkpt lat="43.68805" lon="4.06619">
        <ele>91.202814432472</ele>
        <time>2020-11-25T14:29:18.000+01:00</time>
      </trkpt>
      <trkpt lat="43.68806" lon="4.06621">
        <ele>91.220384038997</ele>
        <time>2020-11-25T14:29:19.000+01:00</time>
      </trkpt>
      <trkpt lat="43.68806" lon="4.06622">
        <ele>91.237953277128</ele>
        <time>2020-11-25T14:29:20.000+01:00</time>
      </trkpt>
      <trkpt lat="43.68806" lon="4.06624">
        <ele>91.25550052816</ele>
        <time>2020-11-25T14:29:21.000+01:00</time>
      </trkpt>
      <trkpt lat="43.68806" lon="4.06626">
        <ele>91.27285238428</ele>
        <time>2020-11-25T14:29:22.000+01:00</time>
      </trkpt>
      <trkpt lat="43.68806" lon="4.06627">
        <ele>91.289960632925</ele>
        <time>2020-11-25T14:29:23.000+01:00</time>
      </trkpt>
      <trkpt lat="43.68806" lon="4.06629">
        <ele>91.306941289097</ele>
        <time>2020-11-25T14:29:24.000+01:00</time>
      </trkpt>
      <trkpt lat="43.68806" lon="4.0663">
        <ele>91.323916218664</ele>
        <time>2020-11-25T14:29:25.000+01:00</time>
      </trkpt>
      <trkpt lat="43.68806" lon="4.0663">
        <ele>91.325598640832</ele>
        <time>2020-11-25T14:29:26.000+01:00</time>
      </trkpt>
      <trkpt lat="43.68806" lon="4.0663">
        <ele>91.342629735978</ele>
        <time>2020-11-25T14:29:27.000+01:00</time>
      </trkpt>
      <trkpt lat="43.68806" lon="4.06631">
        <ele>91.344319205772</ele>
        <time>2020-11-25T14:29:28.000+01:00</time>
      </trkpt>
      <trkpt lat="43.68806" lon="4.06631">
        <ele>91.3460576592</ele>
        <time>2020-11-25T14:29:29.000+01:00</time>
      </trkpt>
      <trkpt lat="43.68806" lon="4.0663">
        <ele>91.347809582424</ele>
        <time>2020-11-25T14:29:30.000+01:00</time>
      </trkpt>
      <trkpt lat="43.68806" lon="4.0663">
        <ele>91.349557129565</ele>
        <time>2020-11-25T14:29:31.000+01:00</time>
      </trkpt>
      <trkpt lat="43.68806" lon="4.06631">
        <ele>91.351304863399</ele>
        <time>2020-11-25T14:29:32.000+01:00</time>
      </trkpt>
      <trkpt lat="43.68806" lon="4.06631">
        <ele>91.35302208146</ele>
        <time>2020-11-25T14:29:33.000+01:00</time>
      </trkpt>
      <trkpt lat="43.68806" lon="4.06631">
        <ele>91.354719582705</ele>
        <time>2020-11-25T14:29:34.000+01:00</time>
      </trkpt>
      <trkpt lat="43.68805" lon="4.06631">
        <ele>91.356416070334</ele>
        <time>2020-11-25T14:29:35.000+01:00</time>
      </trkpt>
      <trkpt lat="43.68805" lon="4.06631">
        <ele>91.358097788042</ele>
        <time>2020-11-25T14:29:36.000+01:00</time>
      </trkpt>
      <trkpt lat="43.68805" lon="4.06631">
        <ele>91.359793693653</ele>
        <time>2020-11-25T14:29:37.000+01:00</time>
      </trkpt>
      <trkpt lat="43.68805" lon="4.06631">
        <ele>91.361507487193</ele>
        <time>2020-11-25T14:29:38.000+01:00</time>
      </trkpt>
      <trkpt lat="43.68805" lon="4.06631">
        <ele>91.363221050084</ele>
        <time>2020-11-25T14:29:39.000+01:00</time>
      </trkpt>
      <trkpt lat="43.68805" lon="4.06631">
        <ele>91.3649115261</ele>
        <time>2020-11-25T14:29:40.000+01:00</time>
      </trkpt>
      <trkpt lat="43.68805" lon="4.06631">
        <ele>91.36659590077</ele>
        <time>2020-11-25T14:29:41.000+01:00</time>
      </trkpt>
      <trkpt lat="43.68806" lon="4.06631">
        <ele>91.368269767843</ele>
        <time>2020-11-25T14:29:42.000+01:00</time>
      </trkpt>
      <trkpt lat="43.68806" lon="4.06632">
        <ele>91.369941341593</ele>
        <time>2020-11-25T14:29:43.000+01:00</time>
      </trkpt>
      <trkpt lat="43.68806" lon="4.06632">
        <ele>91.371618700813</ele>
        <time>2020-11-25T14:29:44.000+01:00</time>
      </trkpt>
      <trkpt lat="43.68806" lon="4.06633">
        <ele>91.388363958206</ele>
        <time>2020-11-25T14:29:45.000+01:00</time>
      </trkpt>
      <trkpt lat="43.68806" lon="4.06635">
        <ele>91.405058477188</ele>
        <time>2020-11-25T14:29:46.000+01:00</time>
      </trkpt>
      <trkpt lat="43.68806" lon="4.06636">
        <ele>91.421338617921</ele>
        <time>2020-11-25T14:29:47.000+01:00</time>
      </trkpt>
      <trkpt lat="43.68806" lon="4.06638">
        <ele>91.43717149882</ele>
        <time>2020-11-25T14:29:48.000+01:00</time>
      </trkpt>
      <trkpt lat="43.68806" lon="4.0664">
        <ele>91.452614374155</ele>
        <time>2020-11-25T14:29:49.000+01:00</time>
      </trkpt>
      <trkpt lat="43.68806" lon="4.06641">
        <ele>91.467725592633</ele>
        <time>2020-11-25T14:29:50.000+01:00</time>
      </trkpt>
      <trkpt lat="43.68806" lon="4.06643">
        <ele>91.482544489259</ele>
        <time>2020-11-25T14:29:51.000+01:00</time>
      </trkpt>
      <trkpt lat="43.68806" lon="4.06646">
        <ele>91.49727114037</ele>
        <time>2020-11-25T14:29:52.000+01:00</time>
      </trkpt>
      <trkpt lat="43.68805" lon="4.06648">
        <ele>91.511807287032</ele>
        <time>2020-11-25T14:29:53.000+01:00</time>
      </trkpt>
      <trkpt lat="43.68805" lon="4.06649">
        <ele>91.526229252971</ele>
        <time>2020-11-25T14:29:54.000+01:00</time>
      </trkpt>
      <trkpt lat="43.68805" lon="4.06651">
        <ele>91.540500206577</ele>
        <time>2020-11-25T14:29:55.000+01:00</time>
      </trkpt>
      <trkpt lat="43.68805" lon="4.06652">
        <ele>91.554646334247</ele>
        <time>2020-11-25T14:29:56.000+01:00</time>
      </trkpt>
      <trkpt lat="43.68805" lon="4.06653">
        <ele>91.568666568919</ele>
        <time>2020-11-25T14:29:57.000+01:00</time>
      </trkpt>
      <trkpt lat="43.68805" lon="4.06655">
        <ele>91.582599956977</ele>
        <time>2020-11-25T14:29:58.000+01:00</time>
      </trkpt>
      <trkpt lat="43.68805" lon="4.06656">
        <ele>91.596315634862</ele>
        <time>2020-11-25T14:29:59.000+01:00</time>
      </trkpt>
      <trkpt lat="43.68805" lon="4.06658">
        <ele>91.609924262919</ele>
        <time>2020-11-25T14:30:00.000+01:00</time>
      </trkpt>
      <trkpt lat="43.68805" lon="4.06659">
        <ele>91.62346782878</ele>
        <time>2020-11-25T14:30:01.000+01:00</time>
      </trkpt>
      <trkpt lat="43.68805" lon="4.06661">
        <ele>91.636854146909</ele>
        <time>2020-11-25T14:30:02.000+01:00</time>
      </trkpt>
      <trkpt lat="43.68805" lon="4.06663">
        <ele>91.650038708684</ele>
        <time>2020-11-25T14:30:03.000+01:00</time>
      </trkpt>
      <trkpt lat="43.68804" lon="4.06664">
        <ele>91.663043633568</ele>
        <time>2020-11-25T14:30:04.000+01:00</time>
      </trkpt>
      <trkpt lat="43.68804" lon="4.06666">
        <ele>91.67594616187</ele>
        <time>2020-11-25T14:30:05.000+01:00</time>
      </trkpt>
      <trkpt lat="43.68804" lon="4.06667">
        <ele>91.688780063695</ele>
        <time>2020-11-25T14:30:06.000+01:00</time>
      </trkpt>
      <trkpt lat="43.68803" lon="4.06668">
        <ele>91.701534308904</ele>
        <time>2020-11-25T14:30:07.000+01:00</time>
      </trkpt>
      <trkpt lat="43.68803" lon="4.06669">
        <ele>91.71422780674</ele>
        <time>2020-11-25T14:30:08.000+01:00</time>
      </trkpt>
      <trkpt lat="43.68802" lon="4.0667">
        <ele>91.726966338846</ele>
        <time>2020-11-25T14:30:09.000+01:00</time>
      </trkpt>
      <trkpt lat="43.68802" lon="4.06672">
        <ele>91.739749323537</ele>
        <time>2020-11-25T14:30:10.000+01:00</time>
      </trkpt>
      <trkpt lat="43.68801" lon="4.06673">
        <ele>91.752575283286</ele>
        <time>2020-11-25T14:30:11.000+01:00</time>
      </trkpt>
      <trkpt lat="43.688" lon="4.06673">
        <ele>91.765496742364</ele>
        <time>2020-11-25T14:30:12.000+01:00</time>
      </trkpt>
      <trkpt lat="43.688" lon="4.06674">
        <ele>91.778650041471</ele>
        <time>2020-11-25T14:30:13.000+01:00</time>
      </trkpt>
      <trkpt lat="43.688" lon="4.06675">
        <ele>91.792026651218</ele>
        <time>2020-11-25T14:30:14.000+01:00</time>
      </trkpt>
      <trkpt lat="43.68799" lon="4.06676">
        <ele>91.805550110166</ele>
        <time>2020-11-25T14:30:15.000+01:00</time>
      </trkpt>
      <trkpt lat="43.68799" lon="4.06678">
        <ele>91.819166806906</ele>
        <time>2020-11-25T14:30:16.000+01:00</time>
      </trkpt>
      <trkpt lat="43.68799" lon="4.06679">
        <ele>91.832808599905</ele>
        <time>2020-11-25T14:30:17.000+01:00</time>
      </trkpt>
      <trkpt lat="43.68799" lon="4.0668">
        <ele>91.846337658287</ele>
        <time>2020-11-25T14:30:18.000+01:00</time>
      </trkpt>
      <trkpt lat="43.68798" lon="4.06681">
        <ele>91.859826558147</ele>
        <time>2020-11-25T14:30:19.000+01:00</time>
      </trkpt>
      <trkpt lat="43.68798" lon="4.06682">
        <ele>91.873479234665</ele>
        <time>2020-11-25T14:30:20.000+01:00</time>
      </trkpt>
      <trkpt lat="43.68798" lon="4.06683">
        <ele>91.886994587485</ele>
        <time>2020-11-25T14:30:21.000+01:00</time>
      </trkpt>
      <trkpt lat="43.68797" lon="4.06684">
        <ele>91.900336248698</ele>
        <time>2020-11-25T14:30:22.000+01:00</time>
      </trkpt>
      <trkpt lat="43.68797" lon="4.06685">
        <ele>91.913638646946</ele>
        <time>2020-11-25T14:30:23.000+01:00</time>
      </trkpt>
      <trkpt lat="43.68796" lon="4.06686">
        <ele>91.926973018657</ele>
        <time>2020-11-25T14:30:24.000+01:00</time>
      </trkpt>
      <trkpt lat="43.68796" lon="4.06688">
        <ele>91.940376491837</ele>
        <time>2020-11-25T14:30:25.000+01:00</time>
      </trkpt>
      <trkpt lat="43.68796" lon="4.06689">
        <ele>91.953738720747</ele>
        <time>2020-11-25T14:30:26.000+01:00</time>
      </trkpt>
      <trkpt lat="43.68796" lon="4.0669">
        <ele>91.967038688761</ele>
        <time>2020-11-25T14:30:27.000+01:00</time>
      </trkpt>
      <trkpt lat="43.68795" lon="4.06692">
        <ele>91.980273763178</ele>
        <time>2020-11-25T14:30:28.000+01:00</time>
      </trkpt>
      <trkpt lat="43.68795" lon="4.06693">
        <ele>91.993359315839</ele>
        <time>2020-11-25T14:30:29.000+01:00</time>
      </trkpt>
      <trkpt lat="43.68795" lon="4.06695">
        <ele>92.006344319697</ele>
        <time>2020-11-25T14:30:30.000+01:00</time>
      </trkpt>
      <trkpt lat="43.68794" lon="4.06696">
        <ele>92.01934998239</ele>
        <time>2020-11-25T14:30:31.000+01:00</time>
      </trkpt>
      <trkpt lat="43.68794" lon="4.06698">
        <ele>92.032400572109</ele>
        <time>2020-11-25T14:30:32.000+01:00</time>
      </trkpt>
      <trkpt lat="43.68794" lon="4.067">
        <ele>92.045577951122</ele>
        <time>2020-11-25T14:30:33.000+01:00</time>
      </trkpt>
      <trkpt lat="43.68794" lon="4.06703">
        <ele>92.058845061323</ele>
        <time>2020-11-25T14:30:34.000+01:00</time>
      </trkpt>
      <trkpt lat="43.68793" lon="4.06704">
        <ele>92.072269354867</ele>
        <time>2020-11-25T14:30:35.000+01:00</time>
      </trkpt>
      <trkpt lat="43.68793" lon="4.06706">
        <ele>92.085854126411</ele>
        <time>2020-11-25T14:30:36.000+01:00</time>
      </trkpt>
      <trkpt lat="43.68792" lon="4.06707">
        <ele>92.099684762756</ele>
        <time>2020-11-25T14:30:37.000+01:00</time>
      </trkpt>
      <trkpt lat="43.68792" lon="4.06709">
        <ele>92.113814090076</ele>
        <time>2020-11-25T14:30:38.000+01:00</time>
      </trkpt>
      <trkpt lat="43.68791" lon="4.0671">
        <ele>92.128265975754</ele>
        <time>2020-11-25T14:30:39.000+01:00</time>
      </trkpt>
      <trkpt lat="43.68791" lon="4.06711">
        <ele>92.142933612234</ele>
        <time>2020-11-25T14:30:40.000+01:00</time>
      </trkpt>
      <trkpt lat="43.6879" lon="4.06713">
        <ele>92.157805645883</ele>
        <time>2020-11-25T14:30:41.000+01:00</time>
      </trkpt>
      <trkpt lat="43.6879" lon="4.06714">
        <ele>92.172836153563</ele>
        <time>2020-11-25T14:30:42.000+01:00</time>
      </trkpt>
      <trkpt lat="43.68789" lon="4.06716">
        <ele>92.188009138188</ele>
        <time>2020-11-25T14:30:43.000+01:00</time>
      </trkpt>
      <trkpt lat="43.68789" lon="4.06717">
        <ele>92.203367354375</ele>
        <time>2020-11-25T14:30:44.000+01:00</time>
      </trkpt>
      <trkpt lat="43.68788" lon="4.06718">
        <ele>92.21888601462</ele>
        <time>2020-11-25T14:30:45.000+01:00</time>
      </trkpt>
      <trkpt lat="43.68788" lon="4.0672">
        <ele>92.23460070971</ele>
        <time>2020-11-25T14:30:46.000+01:00</time>
      </trkpt>
      <trkpt lat="43.68787" lon="4.06721">
        <ele>92.250461236675</ele>
        <time>2020-11-25T14:30:47.000+01:00</time>
      </trkpt>
      <trkpt lat="43.68786" lon="4.06722">
        <ele>92.266363183217</ele>
        <time>2020-11-25T14:30:48.000+01:00</time>
      </trkpt>
      <trkpt lat="43.68785" lon="4.06723">
        <ele>92.282493881308</ele>
        <time>2020-11-25T14:30:49.000+01:00</time>
      </trkpt>
      <trkpt lat="43.68784" lon="4.06724">
        <ele>92.298708424514</ele>
        <time>2020-11-25T14:30:50.000+01:00</time>
      </trkpt>
      <trkpt lat="43.68783" lon="4.06725">
        <ele>92.315054798889</ele>
        <time>2020-11-25T14:30:51.000+01:00</time>
      </trkpt>
      <trkpt lat="43.68782" lon="4.06727">
        <ele>92.331487577797</ele>
        <time>2020-11-25T14:30:52.000+01:00</time>
      </trkpt>
      <trkpt lat="43.68782" lon="4.06727">
        <ele>92.348001184054</ele>
        <time>2020-11-25T14:30:53.000+01:00</time>
      </trkpt>
      <trkpt lat="43.68781" lon="4.06728">
        <ele>92.364566846136</ele>
        <time>2020-11-25T14:30:54.000+01:00</time>
      </trkpt>
      <trkpt lat="43.6878" lon="4.06729">
        <ele>92.381078152455</ele>
        <time>2020-11-25T14:30:55.000+01:00</time>
      </trkpt>
      <trkpt lat="43.68779" lon="4.0673">
        <ele>92.397571463018</ele>
        <time>2020-11-25T14:30:56.000+01:00</time>
      </trkpt>
      <trkpt lat="43.68778" lon="4.06731">
        <ele>92.414026760144</ele>
        <time>2020-11-25T14:30:57.000+01:00</time>
      </trkpt>
      <trkpt lat="43.68778" lon="4.06732">
        <ele>92.430522712907</ele>
        <time>2020-11-25T14:30:58.000+01:00</time>
      </trkpt>
      <trkpt lat="43.68777" lon="4.06733">
        <ele>92.447098012957</ele>
        <time>2020-11-25T14:30:59.000+01:00</time>
      </trkpt>
      <trkpt lat="43.68776" lon="4.06734">
        <ele>92.463777381659</ele>
        <time>2020-11-25T14:31:00.000+01:00</time>
      </trkpt>
      <trkpt lat="43.68775" lon="4.06735">
        <ele>92.480385933321</ele>
        <time>2020-11-25T14:31:01.000+01:00</time>
      </trkpt>
      <trkpt lat="43.68774" lon="4.06736">
        <ele>92.497021634382</ele>
        <time>2020-11-25T14:31:02.000+01:00</time>
      </trkpt>
      <trkpt lat="43.68773" lon="4.06738">
        <ele>92.513416477307</ele>
        <time>2020-11-25T14:31:03.000+01:00</time>
      </trkpt>
      <trkpt lat="43.68772" lon="4.06739">
        <ele>92.529806613583</ele>
        <time>2020-11-25T14:31:04.000+01:00</time>
      </trkpt>
      <trkpt lat="43.68772" lon="4.0674">
        <ele>92.546114445218</ele>
        <time>2020-11-25T14:31:05.000+01:00</time>
      </trkpt>
      <trkpt lat="43.68771" lon="4.06741">
        <ele>92.562306772404</ele>
        <time>2020-11-25T14:31:06.000+01:00</time>
      </trkpt>
      <trkpt lat="43.6877" lon="4.06741">
        <ele>92.57845717957</ele>
        <time>2020-11-25T14:31:07.000+01:00</time>
      </trkpt>
      <trkpt lat="43.68769" lon="4.06742">
        <ele>92.594561190936</ele>
        <time>2020-11-25T14:31:08.000+01:00</time>
      </trkpt>
      <trkpt lat="43.68768" lon="4.06743">
        <ele>92.61045078961</ele>
        <time>2020-11-25T14:31:09.000+01:00</time>
      </trkpt>
      <trkpt lat="43.68767" lon="4.06744">
        <ele>92.626178005825</ele>
        <time>2020-11-25T14:31:10.000+01:00</time>
      </trkpt>
      <trkpt lat="43.68766" lon="4.06745">
        <ele>92.641811310589</ele>
        <time>2020-11-25T14:31:11.000+01:00</time>
      </trkpt>
      <trkpt lat="43.68765" lon="4.06746">
        <ele>92.657387849029</ele>
        <time>2020-11-25T14:31:12.000+01:00</time>
      </trkpt>
      <trkpt lat="43.68764" lon="4.06746">
        <ele>92.67282313003</ele>
        <time>2020-11-25T14:31:13.000+01:00</time>
      </trkpt>
      <trkpt lat="43.68764" lon="4.06747">
        <ele>92.688170733903</ele>
        <time>2020-11-25T14:31:14.000+01:00</time>
      </trkpt>
      <trkpt lat="43.68763" lon="4.06748">
        <ele>92.703492379388</ele>
        <time>2020-11-25T14:31:15.000+01:00</time>
      </trkpt>
      <trkpt lat="43.68762" lon="4.06749">
        <ele>92.718738642614</ele>
        <time>2020-11-25T14:31:16.000+01:00</time>
      </trkpt>
      <trkpt lat="43.68761" lon="4.06749">
        <ele>92.733912719028</ele>
        <time>2020-11-25T14:31:17.000+01:00</time>
      </trkpt>
      <trkpt lat="43.6876" lon="4.0675">
        <ele>92.749018994446</ele>
        <time>2020-11-25T14:31:18.000+01:00</time>
      </trkpt>
      <trkpt lat="43.68759" lon="4.06751">
        <ele>92.76408597508</ele>
        <time>2020-11-25T14:31:19.000+01:00</time>
      </trkpt>
      <trkpt lat="43.68758" lon="4.06752">
        <ele>92.779142361014</ele>
        <time>2020-11-25T14:31:20.000+01:00</time>
      </trkpt>
      <trkpt lat="43.68757" lon="4.06753">
        <ele>92.794238189128</ele>
        <time>2020-11-25T14:31:21.000+01:00</time>
      </trkpt>
      <trkpt lat="43.68756" lon="4.06754">
        <ele>92.809228247025</ele>
        <time>2020-11-25T14:31:22.000+01:00</time>
      </trkpt>
      <trkpt lat="43.68755" lon="4.06754">
        <ele>92.824041449142</ele>
        <time>2020-11-25T14:31:23.000+01:00</time>
      </trkpt>
      <trkpt lat="43.68755" lon="4.06755">
        <ele>92.838847813477</ele>
        <time>2020-11-25T14:31:24.000+01:00</time>
      </trkpt>
      <trkpt lat="43.68754" lon="4.06756">
        <ele>92.853816417911</ele>
        <time>2020-11-25T14:31:25.000+01:00</time>
      </trkpt>
      <trkpt lat="43.68753" lon="4.06757">
        <ele>92.868961246421</ele>
        <time>2020-11-25T14:31:26.000+01:00</time>
      </trkpt>
      <trkpt lat="43.68752" lon="4.06758">
        <ele>92.884344070635</ele>
        <time>2020-11-25T14:31:27.000+01:00</time>
      </trkpt>
      <trkpt lat="43.68752" lon="4.06759">
        <ele>92.899894000106</ele>
        <time>2020-11-25T14:31:28.000+01:00</time>
      </trkpt>
      <trkpt lat="43.68751" lon="4.0676">
        <ele>92.915391837677</ele>
        <time>2020-11-25T14:31:29.000+01:00</time>
      </trkpt>
      <trkpt lat="43.6875" lon="4.06761">
        <ele>92.931117847478</ele>
        <time>2020-11-25T14:31:30.000+01:00</time>
      </trkpt>
      <trkpt lat="43.68749" lon="4.06761">
        <ele>92.946721000479</ele>
        <time>2020-11-25T14:31:31.000+01:00</time>
      </trkpt>
      <trkpt lat="43.68749" lon="4.06762">
        <ele>92.962101351383</ele>
        <time>2020-11-25T14:31:32.000+01:00</time>
      </trkpt>
      <trkpt lat="43.68749" lon="4.06762">
        <ele>92.977281079851</ele>
        <time>2020-11-25T14:31:33.000+01:00</time>
      </trkpt>
      <trkpt lat="43.68748" lon="4.06763">
        <ele>92.992286256805</ele>
        <time>2020-11-25T14:31:34.000+01:00</time>
      </trkpt>
      <trkpt lat="43.68748" lon="4.06764">
        <ele>93.006963420218</ele>
        <time>2020-11-25T14:31:35.000+01:00</time>
      </trkpt>
      <trkpt lat="43.68747" lon="4.06764">
        <ele>93.021444006903</ele>
        <time>2020-11-25T14:31:36.000+01:00</time>
      </trkpt>
      <trkpt lat="43.68747" lon="4.06765">
        <ele>93.0357307311</ele>
        <time>2020-11-25T14:31:37.000+01:00</time>
      </trkpt>
      <trkpt lat="43.68746" lon="4.06766">
        <ele>93.049865108756</ele>
        <time>2020-11-25T14:31:38.000+01:00</time>
      </trkpt>
      <trkpt lat="43.68745" lon="4.06767">
        <ele>93.063865798504</ele>
        <time>2020-11-25T14:31:39.000+01:00</time>
      </trkpt>
      <trkpt lat="43.68745" lon="4.06768">
        <ele>93.077823381267</ele>
        <time>2020-11-25T14:31:40.000+01:00</time>
      </trkpt>
      <trkpt lat="43.68744" lon="4.0677">
        <ele>93.091704601896</ele>
        <time>2020-11-25T14:31:41.000+01:00</time>
      </trkpt>
      <trkpt lat="43.68743" lon="4.06771">
        <ele>93.105417086164</ele>
        <time>2020-11-25T14:31:42.000+01:00</time>
      </trkpt>
      <trkpt lat="43.68742" lon="4.06772">
        <ele>93.118946167575</ele>
        <time>2020-11-25T14:31:43.000+01:00</time>
      </trkpt>
      <trkpt lat="43.68741" lon="4.06773">
        <ele>93.132138627129</ele>
        <time>2020-11-25T14:31:44.000+01:00</time>
      </trkpt>
      <trkpt lat="43.6874" lon="4.06774">
        <ele>93.145132119654</ele>
        <time>2020-11-25T14:31:45.000+01:00</time>
      </trkpt>
      <trkpt lat="43.68739" lon="4.06774">
        <ele>93.157912215797</ele>
        <time>2020-11-25T14:31:46.000+01:00</time>
      </trkpt>
      <trkpt lat="43.68738" lon="4.06775">
        <ele>93.170421387308</ele>
        <time>2020-11-25T14:31:47.000+01:00</time>
      </trkpt>
      <trkpt lat="43.68738" lon="4.06776">
        <ele>93.18279207996</ele>
        <time>2020-11-25T14:31:48.000+01:00</time>
      </trkpt>
      <trkpt lat="43.68737" lon="4.06777">
        <ele>93.195110448714</ele>
        <time>2020-11-25T14:31:49.000+01:00</time>
      </trkpt>
      <trkpt lat="43.68735" lon="4.06778">
        <ele>93.207527165822</ele>
        <time>2020-11-25T14:31:50.000+01:00</time>
      </trkpt>
      <trkpt lat="43.68734" lon="4.06778">
        <ele>93.220030388593</ele>
        <time>2020-11-25T14:31:51.000+01:00</time>
      </trkpt>
      <trkpt lat="43.68733" lon="4.06779">
        <ele>93.232667854861</ele>
        <time>2020-11-25T14:31:52.000+01:00</time>
      </trkpt>
      <trkpt lat="43.68732" lon="4.06779">
        <ele>93.245569879641</ele>
        <time>2020-11-25T14:31:53.000+01:00</time>
      </trkpt>
      <trkpt lat="43.68731" lon="4.0678">
        <ele>93.25843254028</ele>
        <time>2020-11-25T14:31:54.000+01:00</time>
      </trkpt>
      <trkpt lat="43.6873" lon="4.0678">
        <ele>93.271184092</ele>
        <time>2020-11-25T14:31:55.000+01:00</time>
      </trkpt>
      <trkpt lat="43.68729" lon="4.0678">
        <ele>93.283903396949</ele>
        <time>2020-11-25T14:31:56.000+01:00</time>
      </trkpt>
      <trkpt lat="43.68728" lon="4.06781">
        <ele>93.296583486551</ele>
        <time>2020-11-25T14:31:57.000+01:00</time>
      </trkpt>
      <trkpt lat="43.68727" lon="4.06781">
        <ele>93.309282578877</ele>
        <time>2020-11-25T14:31:58.000+01:00</time>
      </trkpt>
      <trkpt lat="43.68726" lon="4.06782">
        <ele>93.321984271645</ele>
        <time>2020-11-25T14:31:59.000+01:00</time>
      </trkpt>
      <trkpt lat="43.68725" lon="4.06782">
        <ele>93.334747928029</ele>
        <time>2020-11-25T14:32:00.000+01:00</time>
      </trkpt>
      <trkpt lat="43.68724" lon="4.06783">
        <ele>93.347652911165</ele>
        <time>2020-11-25T14:32:01.000+01:00</time>
      </trkpt>
      <trkpt lat="43.68723" lon="4.06783">
        <ele>93.36100736846</ele>
        <time>2020-11-25T14:32:02.000+01:00</time>
      </trkpt>
      <trkpt lat="43.68722" lon="4.06783">
        <ele>93.374627874404</ele>
        <time>2020-11-25T14:32:03.000+01:00</time>
      </trkpt>
      <trkpt lat="43.68721" lon="4.06783">
        <ele>93.388367256231</ele>
        <time>2020-11-25T14:32:04.000+01:00</time>
      </trkpt>
      <trkpt lat="43.6872" lon="4.06783">
        <ele>93.402194277473</ele>
        <time>2020-11-25T14:32:05.000+01:00</time>
      </trkpt>
      <trkpt lat="43.68719" lon="4.06783">
        <ele>93.416130712424</ele>
        <time>2020-11-25T14:32:06.000+01:00</time>
      </trkpt>
      <trkpt lat="43.68717" lon="4.06783">
        <ele>93.430100356692</ele>
        <time>2020-11-25T14:32:07.000+01:00</time>
      </trkpt>
      <trkpt lat="43.68716" lon="4.06783">
        <ele>93.44409563431</ele>
        <time>2020-11-25T14:32:08.000+01:00</time>
      </trkpt>
      <trkpt lat="43.68715" lon="4.06784">
        <ele>93.458280573201</ele>
        <time>2020-11-25T14:32:09.000+01:00</time>
      </trkpt>
      <trkpt lat="43.68714" lon="4.06784">
        <ele>93.472540921711</ele>
        <time>2020-11-25T14:32:10.000+01:00</time>
      </trkpt>
      <trkpt lat="43.68713" lon="4.06784">
        <ele>93.486997550869</ele>
        <time>2020-11-25T14:32:11.000+01:00</time>
      </trkpt>
      <trkpt lat="43.68712" lon="4.06784">
        <ele>93.501721624937</ele>
        <time>2020-11-25T14:32:12.000+01:00</time>
      </trkpt>
      <trkpt lat="43.68711" lon="4.06784">
        <ele>93.516758297072</ele>
        <time>2020-11-25T14:32:13.000+01:00</time>
      </trkpt>
      <trkpt lat="43.6871" lon="4.06784">
        <ele>93.531891884497</ele>
        <time>2020-11-25T14:32:14.000+01:00</time>
      </trkpt>
      <trkpt lat="43.68709" lon="4.06784">
        <ele>93.547156763382</ele>
        <time>2020-11-25T14:32:15.000+01:00</time>
      </trkpt>
      <trkpt lat="43.68707" lon="4.06784">
        <ele>93.562491702042</ele>
        <time>2020-11-25T14:32:16.000+01:00</time>
      </trkpt>
      <trkpt lat="43.68706" lon="4.06784">
        <ele>93.577934560338</ele>
        <time>2020-11-25T14:32:17.000+01:00</time>
      </trkpt>
      <trkpt lat="43.68705" lon="4.06785">
        <ele>93.593642227067</ele>
        <time>2020-11-25T14:32:18.000+01:00</time>
      </trkpt>
      <trkpt lat="43.68704" lon="4.06785">
        <ele>93.609463568943</ele>
        <time>2020-11-25T14:32:19.000+01:00</time>
      </trkpt>
      <trkpt lat="43.68703" lon="4.06785">
        <ele>93.625374013607</ele>
        <time>2020-11-25T14:32:20.000+01:00</time>
      </trkpt>
      <trkpt lat="43.68702" lon="4.06786">
        <ele>93.641326376607</ele>
        <time>2020-11-25T14:32:21.000+01:00</time>
      </trkpt>
      <trkpt lat="43.68701" lon="4.06786">
        <ele>93.657258488785</ele>
        <time>2020-11-25T14:32:22.000+01:00</time>
      </trkpt>
      <trkpt lat="43.687" lon="4.06786">
        <ele>93.673231925162</ele>
        <time>2020-11-25T14:32:23.000+01:00</time>
      </trkpt>
      <trkpt lat="43.687" lon="4.06786">
        <ele>93.68910292672</ele>
        <time>2020-11-25T14:32:24.000+01:00</time>
      </trkpt>
      <trkpt lat="43.68699" lon="4.06786">
        <ele>93.704828244193</ele>
        <time>2020-11-25T14:32:25.000+01:00</time>
      </trkpt>
      <trkpt lat="43.68698" lon="4.06787">
        <ele>93.720437783451</ele>
        <time>2020-11-25T14:32:26.000+01:00</time>
      </trkpt>
      <trkpt lat="43.68697" lon="4.06787">
        <ele>93.736074948086</ele>
        <time>2020-11-25T14:32:27.000+01:00</time>
      </trkpt>
      <trkpt lat="43.68696" lon="4.06788">
        <ele>93.751924384012</ele>
        <time>2020-11-25T14:32:28.000+01:00</time>
      </trkpt>
      <trkpt lat="43.68695" lon="4.06788">
        <ele>93.767701165022</ele>
        <time>2020-11-25T14:32:29.000+01:00</time>
      </trkpt>
      <trkpt lat="43.68694" lon="4.06789">
        <ele>93.783388840595</ele>
        <time>2020-11-25T14:32:30.000+01:00</time>
      </trkpt>
      <trkpt lat="43.68693" lon="4.06789">
        <ele>93.798957836664</ele>
        <time>2020-11-25T14:32:31.000+01:00</time>
      </trkpt>
      <trkpt lat="43.68692" lon="4.06789">
        <ele>93.814359679389</ele>
        <time>2020-11-25T14:32:32.000+01:00</time>
      </trkpt>
      <trkpt lat="43.68691" lon="4.0679">
        <ele>93.829588023593</ele>
        <time>2020-11-25T14:32:33.000+01:00</time>
      </trkpt>
      <trkpt lat="43.6869" lon="4.0679">
        <ele>93.844637267563</ele>
        <time>2020-11-25T14:32:34.000+01:00</time>
      </trkpt>
      <trkpt lat="43.6869" lon="4.0679">
        <ele>93.859470844285</ele>
        <time>2020-11-25T14:32:35.000+01:00</time>
      </trkpt>
      <trkpt lat="43.68689" lon="4.0679">
        <ele>93.874117785101</ele>
        <time>2020-11-25T14:32:36.000+01:00</time>
      </trkpt>
      <trkpt lat="43.68688" lon="4.0679">
        <ele>93.888577627908</ele>
        <time>2020-11-25T14:32:37.000+01:00</time>
      </trkpt>
      <trkpt lat="43.68686" lon="4.06789">
        <ele>93.902894008384</ele>
        <time>2020-11-25T14:32:38.000+01:00</time>
      </trkpt>
      <trkpt lat="43.68685" lon="4.06789">
        <ele>93.917138734072</ele>
        <time>2020-11-25T14:32:39.000+01:00</time>
      </trkpt>
      <trkpt lat="43.68684" lon="4.0679">
        <ele>93.931338899236</ele>
        <time>2020-11-25T14:32:40.000+01:00</time>
      </trkpt>
      <trkpt lat="43.68683" lon="4.0679">
        <ele>93.945585323693</ele>
        <time>2020-11-25T14:32:41.000+01:00</time>
      </trkpt>
      <trkpt lat="43.68682" lon="4.0679">
        <ele>93.959817895046</ele>
        <time>2020-11-25T14:32:42.000+01:00</time>
      </trkpt>
      <trkpt lat="43.68681" lon="4.06791">
        <ele>93.974031130427</ele>
        <time>2020-11-25T14:32:43.000+01:00</time>
      </trkpt>
      <trkpt lat="43.6868" lon="4.06791">
        <ele>93.988158161253</ele>
        <time>2020-11-25T14:32:44.000+01:00</time>
      </trkpt>
      <trkpt lat="43.68679" lon="4.06791">
        <ele>94.002162477266</ele>
        <time>2020-11-25T14:32:45.000+01:00</time>
      </trkpt>
      <trkpt lat="43.68678" lon="4.06791">
        <ele>94.016212036697</ele>
        <time>2020-11-25T14:32:46.000+01:00</time>
      </trkpt>
      <trkpt lat="43.68677" lon="4.06791">
        <ele>94.030247422573</ele>
        <time>2020-11-25T14:32:47.000+01:00</time>
      </trkpt>
      <trkpt lat="43.68675" lon="4.06791">
        <ele>94.04427290636</ele>
        <time>2020-11-25T14:32:48.000+01:00</time>
      </trkpt>
      <trkpt lat="43.68674" lon="4.06791">
        <ele>94.058320393078</ele>
        <time>2020-11-25T14:32:49.000+01:00</time>
      </trkpt>
      <trkpt lat="43.68673" lon="4.06791">
        <ele>94.072235332895</ele>
        <time>2020-11-25T14:32:50.000+01:00</time>
      </trkpt>
      <trkpt lat="43.68672" lon="4.06791">
        <ele>94.086026457125</ele>
        <time>2020-11-25T14:32:51.000+01:00</time>
      </trkpt>
      <trkpt lat="43.68671" lon="4.06791">
        <ele>94.099967716358</ele>
        <time>2020-11-25T14:32:52.000+01:00</time>
      </trkpt>
      <trkpt lat="43.6867" lon="4.06792">
        <ele>94.113715151999</ele>
        <time>2020-11-25T14:32:53.000+01:00</time>
      </trkpt>
      <trkpt lat="43.68669" lon="4.06792">
        <ele>94.127245248399</ele>
        <time>2020-11-25T14:32:54.000+01:00</time>
      </trkpt>
      <trkpt lat="43.68668" lon="4.06791">
        <ele>94.140574284687</ele>
        <time>2020-11-25T14:32:55.000+01:00</time>
      </trkpt>
      <trkpt lat="43.68667" lon="4.06791">
        <ele>94.153770160518</ele>
        <time>2020-11-25T14:32:56.000+01:00</time>
      </trkpt>
      <trkpt lat="43.68666" lon="4.06791">
        <ele>94.166831833685</ele>
        <time>2020-11-25T14:32:57.000+01:00</time>
      </trkpt>
      <trkpt lat="43.68665" lon="4.06791">
        <ele>94.179767241938</ele>
        <time>2020-11-25T14:32:58.000+01:00</time>
      </trkpt>
      <trkpt lat="43.68664" lon="4.06791">
        <ele>94.192641781535</ele>
        <time>2020-11-25T14:32:59.000+01:00</time>
      </trkpt>
      <trkpt lat="43.68663" lon="4.06791">
        <ele>94.205483030413</ele>
        <time>2020-11-25T14:33:00.000+01:00</time>
      </trkpt>
      <trkpt lat="43.68663" lon="4.0679">
        <ele>94.218213684232</ele>
        <time>2020-11-25T14:33:01.000+01:00</time>
      </trkpt>
      <trkpt lat="43.68662" lon="4.0679">
        <ele>94.23086381734</ele>
        <time>2020-11-25T14:33:02.000+01:00</time>
      </trkpt>
      <trkpt lat="43.68661" lon="4.0679">
        <ele>94.243501578841</ele>
        <time>2020-11-25T14:33:03.000+01:00</time>
      </trkpt>
      <trkpt lat="43.6866" lon="4.0679">
        <ele>94.256137873928</ele>
        <time>2020-11-25T14:33:04.000+01:00</time>
      </trkpt>
      <trkpt lat="43.68659" lon="4.0679">
        <ele>94.268865643399</ele>
        <time>2020-11-25T14:33:05.000+01:00</time>
      </trkpt>
      <trkpt lat="43.68657" lon="4.0679">
        <ele>94.281628274895</ele>
        <time>2020-11-25T14:33:06.000+01:00</time>
      </trkpt>
      <trkpt lat="43.68656" lon="4.06791">
        <ele>94.294446644476</ele>
        <time>2020-11-25T14:33:07.000+01:00</time>
      </trkpt>
      <trkpt lat="43.68655" lon="4.06792">
        <ele>94.307543654796</ele>
        <time>2020-11-25T14:33:08.000+01:00</time>
      </trkpt>
      <trkpt lat="43.68654" lon="4.06793">
        <ele>94.320951993984</ele>
        <time>2020-11-25T14:33:09.000+01:00</time>
      </trkpt>
      <trkpt lat="43.68653" lon="4.06794">
        <ele>94.334618530652</ele>
        <time>2020-11-25T14:33:10.000+01:00</time>
      </trkpt>
      <trkpt lat="43.68651" lon="4.06795">
        <ele>94.348589656517</ele>
        <time>2020-11-25T14:33:11.000+01:00</time>
      </trkpt>
      <trkpt lat="43.6865" lon="4.06795">
        <ele>94.362579392422</ele>
        <time>2020-11-25T14:33:12.000+01:00</time>
      </trkpt>
      <trkpt lat="43.68649" lon="4.06795">
        <ele>94.37655136017</ele>
        <time>2020-11-25T14:33:13.000+01:00</time>
      </trkpt>
      <trkpt lat="43.68648" lon="4.06796">
        <ele>94.390554616571</ele>
        <time>2020-11-25T14:33:14.000+01:00</time>
      </trkpt>
      <trkpt lat="43.68647" lon="4.06795">
        <ele>94.404557366283</ele>
        <time>2020-11-25T14:33:15.000+01:00</time>
      </trkpt>
      <trkpt lat="43.68646" lon="4.06795">
        <ele>94.418582478727</ele>
        <time>2020-11-25T14:33:16.000+01:00</time>
      </trkpt>
      <trkpt lat="43.68645" lon="4.06795">
        <ele>94.432653031364</ele>
        <time>2020-11-25T14:33:17.000+01:00</time>
      </trkpt>
      <trkpt lat="43.68643" lon="4.06795">
        <ele>94.446531760598</ele>
        <time>2020-11-25T14:33:18.000+01:00</time>
      </trkpt>
      <trkpt lat="43.68642" lon="4.06795">
        <ele>94.460239304736</ele>
        <time>2020-11-25T14:33:19.000+01:00</time>
      </trkpt>
      <trkpt lat="43.68641" lon="4.06795">
        <ele>94.473793682533</ele>
        <time>2020-11-25T14:33:20.000+01:00</time>
      </trkpt>
      <trkpt lat="43.6864" lon="4.06795">
        <ele>94.487061025669</ele>
        <time>2020-11-25T14:33:21.000+01:00</time>
      </trkpt>
      <trkpt lat="43.68639" lon="4.06795">
        <ele>94.500114978585</ele>
        <time>2020-11-25T14:33:22.000+01:00</time>
      </trkpt>
      <trkpt lat="43.68638" lon="4.06795">
        <ele>94.512960909236</ele>
        <time>2020-11-25T14:33:23.000+01:00</time>
      </trkpt>
      <trkpt lat="43.68637" lon="4.06796">
        <ele>94.526119284083</ele>
        <time>2020-11-25T14:33:24.000+01:00</time>
      </trkpt>
      <trkpt lat="43.68636" lon="4.06796">
        <ele>94.539095286184</ele>
        <time>2020-11-25T14:33:25.000+01:00</time>
      </trkpt>
      <trkpt lat="43.68635" lon="4.06796">
        <ele>94.551929127064</ele>
        <time>2020-11-25T14:33:26.000+01:00</time>
      </trkpt>
      <trkpt lat="43.68634" lon="4.06796">
        <ele>94.564751948329</ele>
        <time>2020-11-25T14:33:27.000+01:00</time>
      </trkpt>
      <trkpt lat="43.68633" lon="4.06797">
        <ele>94.57751959866</ele>
        <time>2020-11-25T14:33:28.000+01:00</time>
      </trkpt>
      <trkpt lat="43.68632" lon="4.06797">
        <ele>94.590104085998</ele>
        <time>2020-11-25T14:33:29.000+01:00</time>
      </trkpt>
      <trkpt lat="43.68631" lon="4.06798">
        <ele>94.602581940995</ele>
        <time>2020-11-25T14:33:30.000+01:00</time>
      </trkpt>
      <trkpt lat="43.6863" lon="4.06799">
        <ele>94.615217745888</ele>
        <time>2020-11-25T14:33:31.000+01:00</time>
      </trkpt>
      <trkpt lat="43.68629" lon="4.06799">
        <ele>94.627829704871</ele>
        <time>2020-11-25T14:33:32.000+01:00</time>
      </trkpt>
      <trkpt lat="43.68628" lon="4.068">
        <ele>94.640649662806</ele>
        <time>2020-11-25T14:33:33.000+01:00</time>
      </trkpt>
      <trkpt lat="43.68626" lon="4.068">
        <ele>94.653336642233</ele>
        <time>2020-11-25T14:33:34.000+01:00</time>
      </trkpt>
      <trkpt lat="43.68625" lon="4.068">
        <ele>94.666014315183</ele>
        <time>2020-11-25T14:33:35.000+01:00</time>
      </trkpt>
      <trkpt lat="43.68625" lon="4.06801">
        <ele>94.678543748959</ele>
        <time>2020-11-25T14:33:36.000+01:00</time>
      </trkpt>
      <trkpt lat="43.68623" lon="4.06801">
        <ele>94.690983239471</ele>
        <time>2020-11-25T14:33:37.000+01:00</time>
      </trkpt>
      <trkpt lat="43.68622" lon="4.068">
        <ele>94.703343173361</ele>
        <time>2020-11-25T14:33:38.000+01:00</time>
      </trkpt>
      <trkpt lat="43.68621" lon="4.06801">
        <ele>94.715585812256</ele>
        <time>2020-11-25T14:33:39.000+01:00</time>
      </trkpt>
      <trkpt lat="43.6862" lon="4.06801">
        <ele>94.727802189654</ele>
        <time>2020-11-25T14:33:40.000+01:00</time>
      </trkpt>
      <trkpt lat="43.68619" lon="4.06801">
        <ele>94.739882941191</ele>
        <time>2020-11-25T14:33:41.000+01:00</time>
      </trkpt>
      <trkpt lat="43.68618" lon="4.06801">
        <ele>94.752178754935</ele>
        <time>2020-11-25T14:33:42.000+01:00</time>
      </trkpt>
      <trkpt lat="43.68616" lon="4.06801">
        <ele>94.764283186763</ele>
        <time>2020-11-25T14:33:43.000+01:00</time>
      </trkpt>
      <trkpt lat="43.68615" lon="4.06802">
        <ele>94.776410703096</ele>
        <time>2020-11-25T14:33:44.000+01:00</time>
      </trkpt>
      <trkpt lat="43.68614" lon="4.06802">
        <ele>94.7887108986</ele>
        <time>2020-11-25T14:33:45.000+01:00</time>
      </trkpt>
      <trkpt lat="43.68613" lon="4.06803">
        <ele>94.80106069144</ele>
        <time>2020-11-25T14:33:46.000+01:00</time>
      </trkpt>
      <trkpt lat="43.68612" lon="4.06803">
        <ele>94.813713947789</ele>
        <time>2020-11-25T14:33:47.000+01:00</time>
      </trkpt>
      <trkpt lat="43.68611" lon="4.06804">
        <ele>94.82654294858</ele>
        <time>2020-11-25T14:33:48.000+01:00</time>
      </trkpt>
      <trkpt lat="43.6861" lon="4.06805">
        <ele>94.83939854323</ele>
        <time>2020-11-25T14:33:49.000+01:00</time>
      </trkpt>
      <trkpt lat="43.68609" lon="4.06806">
        <ele>94.852075052876</ele>
        <time>2020-11-25T14:33:50.000+01:00</time>
      </trkpt>
      <trkpt lat="43.68608" lon="4.06807">
        <ele>94.864863023624</ele>
        <time>2020-11-25T14:33:51.000+01:00</time>
      </trkpt>
      <trkpt lat="43.68607" lon="4.06808">
        <ele>94.877921680868</ele>
        <time>2020-11-25T14:33:52.000+01:00</time>
      </trkpt>
      <trkpt lat="43.68605" lon="4.06808">
        <ele>94.89139057708</ele>
        <time>2020-11-25T14:33:53.000+01:00</time>
      </trkpt>
      <trkpt lat="43.68605" lon="4.06809">
        <ele>94.904895917233</ele>
        <time>2020-11-25T14:33:54.000+01:00</time>
      </trkpt>
      <trkpt lat="43.68604" lon="4.06811">
        <ele>94.918517453473</ele>
        <time>2020-11-25T14:33:55.000+01:00</time>
      </trkpt>
      <trkpt lat="43.68603" lon="4.06812">
        <ele>94.931858308446</ele>
        <time>2020-11-25T14:33:56.000+01:00</time>
      </trkpt>
      <trkpt lat="43.68603" lon="4.06812">
        <ele>94.944871384576</ele>
        <time>2020-11-25T14:33:57.000+01:00</time>
      </trkpt>
      <trkpt lat="43.68602" lon="4.06814">
        <ele>94.957818098102</ele>
        <time>2020-11-25T14:33:58.000+01:00</time>
      </trkpt>
      <trkpt lat="43.68601" lon="4.06815">
        <ele>94.970967957947</ele>
        <time>2020-11-25T14:33:59.000+01:00</time>
      </trkpt>
      <trkpt lat="43.686" lon="4.06817">
        <ele>94.984059198155</ele>
        <time>2020-11-25T14:34:00.000+01:00</time>
      </trkpt>
      <trkpt lat="43.68599" lon="4.06817">
        <ele>94.996916479964</ele>
        <time>2020-11-25T14:34:01.000+01:00</time>
      </trkpt>
      <trkpt lat="43.68598" lon="4.06818">
        <ele>95.009655738733</ele>
        <time>2020-11-25T14:34:02.000+01:00</time>
      </trkpt>
      <trkpt lat="43.68597" lon="4.06819">
        <ele>95.022523879974</ele>
        <time>2020-11-25T14:34:03.000+01:00</time>
      </trkpt>
      <trkpt lat="43.68596" lon="4.06819">
        <ele>95.035366665265</ele>
        <time>2020-11-25T14:34:04.000+01:00</time>
      </trkpt>
      <trkpt lat="43.68595" lon="4.06819">
        <ele>95.0480680447</ele>
        <time>2020-11-25T14:34:05.000+01:00</time>
      </trkpt>
      <trkpt lat="43.68595" lon="4.0682">
        <ele>95.060668793028</ele>
        <time>2020-11-25T14:34:06.000+01:00</time>
      </trkpt>
      <trkpt lat="43.68594" lon="4.0682">
        <ele>95.073054532046</ele>
        <time>2020-11-25T14:34:07.000+01:00</time>
      </trkpt>
      <trkpt lat="43.68593" lon="4.06821">
        <ele>95.085235741507</ele>
        <time>2020-11-25T14:34:08.000+01:00</time>
      </trkpt>
      <trkpt lat="43.68592" lon="4.06821">
        <ele>95.097232469683</ele>
        <time>2020-11-25T14:34:09.000+01:00</time>
      </trkpt>
      <trkpt lat="43.68592" lon="4.06822">
        <ele>95.109121088871</ele>
        <time>2020-11-25T14:34:10.000+01:00</time>
      </trkpt>
      <trkpt lat="43.68591" lon="4.06822">
        <ele>95.120919134878</ele>
        <time>2020-11-25T14:34:11.000+01:00</time>
      </trkpt>
      <trkpt lat="43.6859" lon="4.06823">
        <ele>95.132610179272</ele>
        <time>2020-11-25T14:34:12.000+01:00</time>
      </trkpt>
      <trkpt lat="43.68589" lon="4.06823">
        <ele>95.144165879362</ele>
        <time>2020-11-25T14:34:13.000+01:00</time>
      </trkpt>
      <trkpt lat="43.68588" lon="4.06825">
        <ele>95.155723504576</ele>
        <time>2020-11-25T14:34:14.000+01:00</time>
      </trkpt>
      <trkpt lat="43.68587" lon="4.06826">
        <ele>95.167052651238</ele>
        <time>2020-11-25T14:34:15.000+01:00</time>
      </trkpt>
      <trkpt lat="43.68586" lon="4.06828">
        <ele>95.178707278395</ele>
        <time>2020-11-25T14:34:16.000+01:00</time>
      </trkpt>
      <trkpt lat="43.68585" lon="4.06829">
        <ele>95.190432971261</ele>
        <time>2020-11-25T14:34:17.000+01:00</time>
      </trkpt>
      <trkpt lat="43.68584" lon="4.0683">
        <ele>95.202215897552</ele>
        <time>2020-11-25T14:34:18.000+01:00</time>
      </trkpt>
      <trkpt lat="43.68583" lon="4.06832">
        <ele>95.21404830462</ele>
        <time>2020-11-25T14:34:19.000+01:00</time>
      </trkpt>
      <trkpt lat="43.68583" lon="4.06833">
        <ele>95.225775238486</ele>
        <time>2020-11-25T14:34:20.000+01:00</time>
      </trkpt>
      <trkpt lat="43.68582" lon="4.06834">
        <ele>95.23734050683</ele>
        <time>2020-11-25T14:34:21.000+01:00</time>
      </trkpt>
      <trkpt lat="43.68582" lon="4.06835">
        <ele>95.248911112111</ele>
        <time>2020-11-25T14:34:22.000+01:00</time>
      </trkpt>
      <trkpt lat="43.68581" lon="4.06837">
        <ele>95.260555178958</ele>
        <time>2020-11-25T14:34:23.000+01:00</time>
      </trkpt>
      <trkpt lat="43.68581" lon="4.06838">
        <ele>95.272276069472</ele>
        <time>2020-11-25T14:34:24.000+01:00</time>
      </trkpt>
      <trkpt lat="43.6858" lon="4.06838">
        <ele>95.283878232196</ele>
        <time>2020-11-25T14:34:25.000+01:00</time>
      </trkpt>
      <trkpt lat="43.68579" lon="4.06839">
        <ele>95.295203443452</ele>
        <time>2020-11-25T14:34:26.000+01:00</time>
      </trkpt>
      <trkpt lat="43.68578" lon="4.0684">
        <ele>95.306272109323</ele>
        <time>2020-11-25T14:34:27.000+01:00</time>
      </trkpt>
      <trkpt lat="43.68577" lon="4.06841">
        <ele>95.317137030213</ele>
        <time>2020-11-25T14:34:28.000+01:00</time>
      </trkpt>
      <trkpt lat="43.68576" lon="4.06842">
        <ele>95.327774384891</ele>
        <time>2020-11-25T14:34:29.000+01:00</time>
      </trkpt>
      <trkpt lat="43.68575" lon="4.06843">
        <ele>95.338209240479</ele>
        <time>2020-11-25T14:34:30.000+01:00</time>
      </trkpt>
      <trkpt lat="43.68574" lon="4.06844">
        <ele>95.348541195207</ele>
        <time>2020-11-25T14:34:31.000+01:00</time>
      </trkpt>
      <trkpt lat="43.68573" lon="4.06845">
        <ele>95.358672832366</ele>
        <time>2020-11-25T14:34:32.000+01:00</time>
      </trkpt>
      <trkpt lat="43.68572" lon="4.06846">
        <ele>95.368758279703</ele>
        <time>2020-11-25T14:34:33.000+01:00</time>
      </trkpt>
      <trkpt lat="43.68571" lon="4.06847">
        <ele>95.378847243327</ele>
        <time>2020-11-25T14:34:34.000+01:00</time>
      </trkpt>
      <trkpt lat="43.6857" lon="4.06848">
        <ele>95.388786464165</ele>
        <time>2020-11-25T14:34:35.000+01:00</time>
      </trkpt>
      <trkpt lat="43.68569" lon="4.06849">
        <ele>95.398662703615</ele>
        <time>2020-11-25T14:34:36.000+01:00</time>
      </trkpt>
      <trkpt lat="43.68568" lon="4.06849">
        <ele>95.408487406939</ele>
        <time>2020-11-25T14:34:37.000+01:00</time>
      </trkpt>
      <trkpt lat="43.68567" lon="4.0685">
        <ele>95.418231407334</ele>
        <time>2020-11-25T14:34:38.000+01:00</time>
      </trkpt>
      <trkpt lat="43.68566" lon="4.06852">
        <ele>95.427925858161</ele>
        <time>2020-11-25T14:34:39.000+01:00</time>
      </trkpt>
      <trkpt lat="43.68565" lon="4.06852">
        <ele>95.437434383606</ele>
        <time>2020-11-25T14:34:40.000+01:00</time>
      </trkpt>
      <trkpt lat="43.68564" lon="4.06853">
        <ele>95.446913901833</ele>
        <time>2020-11-25T14:34:41.000+01:00</time>
      </trkpt>
      <trkpt lat="43.68563" lon="4.06854">
        <ele>95.456281434063</ele>
        <time>2020-11-25T14:34:42.000+01:00</time>
      </trkpt>
      <trkpt lat="43.68562" lon="4.06855">
        <ele>95.465591004598</ele>
        <time>2020-11-25T14:34:43.000+01:00</time>
      </trkpt>
      <trkpt lat="43.68561" lon="4.06856">
        <ele>95.474808391481</ele>
        <time>2020-11-25T14:34:44.000+01:00</time>
      </trkpt>
      <trkpt lat="43.68561" lon="4.06857">
        <ele>95.483862530252</ele>
        <time>2020-11-25T14:34:45.000+01:00</time>
      </trkpt>
      <trkpt lat="43.68561" lon="4.06858">
        <ele>95.492862990743</ele>
        <time>2020-11-25T14:34:46.000+01:00</time>
      </trkpt>
      <trkpt lat="43.6856" lon="4.06859">
        <ele>95.501757096856</ele>
        <time>2020-11-25T14:34:47.000+01:00</time>
      </trkpt>
      <trkpt lat="43.68559" lon="4.0686">
        <ele>95.510729692635</ele>
        <time>2020-11-25T14:34:48.000+01:00</time>
      </trkpt>
      <trkpt lat="43.68558" lon="4.06861">
        <ele>95.519739859297</ele>
        <time>2020-11-25T14:34:49.000+01:00</time>
      </trkpt>
      <trkpt lat="43.68557" lon="4.06862">
        <ele>95.528903429761</ele>
        <time>2020-11-25T14:34:50.000+01:00</time>
      </trkpt>
      <trkpt lat="43.68557" lon="4.06864">
        <ele>95.538118280011</ele>
        <time>2020-11-25T14:34:51.000+01:00</time>
      </trkpt>
      <trkpt lat="43.68556" lon="4.06865">
        <ele>95.547235864288</ele>
        <time>2020-11-25T14:34:52.000+01:00</time>
      </trkpt>
      <trkpt lat="43.68556" lon="4.06866">
        <ele>95.556275001936</ele>
        <time>2020-11-25T14:34:53.000+01:00</time>
      </trkpt>
      <trkpt lat="43.68555" lon="4.06867">
        <ele>95.565341776246</ele>
        <time>2020-11-25T14:34:54.000+01:00</time>
      </trkpt>
      <trkpt lat="43.68554" lon="4.06869">
        <ele>95.574332858386</ele>
        <time>2020-11-25T14:34:55.000+01:00</time>
      </trkpt>
      <trkpt lat="43.68554" lon="4.0687">
        <ele>95.583240535003</ele>
        <time>2020-11-25T14:34:56.000+01:00</time>
      </trkpt>
      <trkpt lat="43.68554" lon="4.06871">
        <ele>95.592113962687</ele>
        <time>2020-11-25T14:34:57.000+01:00</time>
      </trkpt>
      <trkpt lat="43.68553" lon="4.06873">
        <ele>95.601053273059</ele>
        <time>2020-11-25T14:34:58.000+01:00</time>
      </trkpt>
      <trkpt lat="43.68553" lon="4.06874">
        <ele>95.610034192241</ele>
        <time>2020-11-25T14:34:59.000+01:00</time>
      </trkpt>
      <trkpt lat="43.68552" lon="4.06875">
        <ele>95.618979468032</ele>
        <time>2020-11-25T14:35:00.000+01:00</time>
      </trkpt>
      <trkpt lat="43.68552" lon="4.06878">
        <ele>95.627882173793</ele>
        <time>2020-11-25T14:35:01.000+01:00</time>
      </trkpt>
      <trkpt lat="43.68551" lon="4.06879">
        <ele>95.636828793736</ele>
        <time>2020-11-25T14:35:02.000+01:00</time>
      </trkpt>
      <trkpt lat="43.68551" lon="4.06881">
        <ele>95.645754348519</ele>
        <time>2020-11-25T14:35:03.000+01:00</time>
      </trkpt>
      <trkpt lat="43.68551" lon="4.06883">
        <ele>95.654784417813</ele>
        <time>2020-11-25T14:35:04.000+01:00</time>
      </trkpt>
      <trkpt lat="43.68551" lon="4.06884">
        <ele>95.663713499937</ele>
        <time>2020-11-25T14:35:05.000+01:00</time>
      </trkpt>
      <trkpt lat="43.68551" lon="4.06885">
        <ele>95.672700161871</ele>
        <time>2020-11-25T14:35:06.000+01:00</time>
      </trkpt>
      <trkpt lat="43.6855" lon="4.06886">
        <ele>95.681668437292</ele>
        <time>2020-11-25T14:35:07.000+01:00</time>
      </trkpt>
      <trkpt lat="43.68549" lon="4.06888">
        <ele>95.690721146385</ele>
        <time>2020-11-25T14:35:08.000+01:00</time>
      </trkpt>
      <trkpt lat="43.68549" lon="4.06889">
        <ele>95.699824587315</ele>
        <time>2020-11-25T14:35:09.000+01:00</time>
      </trkpt>
      <trkpt lat="43.68548" lon="4.06891">
        <ele>95.708850023149</ele>
        <time>2020-11-25T14:35:10.000+01:00</time>
      </trkpt>
      <trkpt lat="43.68548" lon="4.06892">
        <ele>95.717830591416</ele>
        <time>2020-11-25T14:35:11.000+01:00</time>
      </trkpt>
      <trkpt lat="43.68548" lon="4.06893">
        <ele>95.726733738977</ele>
        <time>2020-11-25T14:35:12.000+01:00</time>
      </trkpt>
      <trkpt lat="43.68548" lon="4.06895">
        <ele>95.735556219789</ele>
        <time>2020-11-25T14:35:13.000+01:00</time>
      </trkpt>
      <trkpt lat="43.68548" lon="4.06896">
        <ele>95.744336437178</ele>
        <time>2020-11-25T14:35:14.000+01:00</time>
      </trkpt>
      <trkpt lat="43.68547" lon="4.06898">
        <ele>95.753138507595</ele>
        <time>2020-11-25T14:35:15.000+01:00</time>
      </trkpt>
      <trkpt lat="43.68547" lon="4.06899">
        <ele>95.762013865761</ele>
        <time>2020-11-25T14:35:16.000+01:00</time>
      </trkpt>
      <trkpt lat="43.68547" lon="4.06901">
        <ele>95.770798464469</ele>
        <time>2020-11-25T14:35:17.000+01:00</time>
      </trkpt>
      <trkpt lat="43.68547" lon="4.06902">
        <ele>95.779615328231</ele>
        <time>2020-11-25T14:35:18.000+01:00</time>
      </trkpt>
      <trkpt lat="43.68547" lon="4.06903">
        <ele>95.788365977954</ele>
        <time>2020-11-25T14:35:19.000+01:00</time>
      </trkpt>
      <trkpt lat="43.68547" lon="4.06904">
        <ele>95.797037002946</ele>
        <time>2020-11-25T14:35:20.000+01:00</time>
      </trkpt>
      <trkpt lat="43.68547" lon="4.06905">
        <ele>95.805701734789</ele>
        <time>2020-11-25T14:35:21.000+01:00</time>
      </trkpt>
      <trkpt lat="43.68547" lon="4.06907">
        <ele>95.814323150533</ele>
        <time>2020-11-25T14:35:22.000+01:00</time>
      </trkpt>
      <trkpt lat="43.68547" lon="4.06908">
        <ele>95.822776628881</ele>
        <time>2020-11-25T14:35:23.000+01:00</time>
      </trkpt>
      <trkpt lat="43.68546" lon="4.0691">
        <ele>95.831075841671</ele>
        <time>2020-11-25T14:35:24.000+01:00</time>
      </trkpt>
      <trkpt lat="43.68546" lon="4.06912">
        <ele>95.839226148661</ele>
        <time>2020-11-25T14:35:25.000+01:00</time>
      </trkpt>
      <trkpt lat="43.68546" lon="4.06913">
        <ele>95.847172124908</ele>
        <time>2020-11-25T14:35:26.000+01:00</time>
      </trkpt>
      <trkpt lat="43.68546" lon="4.06914">
        <ele>95.854954630637</ele>
        <time>2020-11-25T14:35:27.000+01:00</time>
      </trkpt>
      <trkpt lat="43.68546" lon="4.06915">
        <ele>95.862501082379</ele>
        <time>2020-11-25T14:35:28.000+01:00</time>
      </trkpt>
      <trkpt lat="43.68545" lon="4.06916">
        <ele>95.869900364773</ele>
        <time>2020-11-25T14:35:29.000+01:00</time>
      </trkpt>
      <trkpt lat="43.68545" lon="4.06917">
        <ele>95.877041119831</ele>
        <time>2020-11-25T14:35:30.000+01:00</time>
      </trkpt>
      <trkpt lat="43.68545" lon="4.06918">
        <ele>95.884144780638</ele>
        <time>2020-11-25T14:35:31.000+01:00</time>
      </trkpt>
      <trkpt lat="43.68544" lon="4.06919">
        <ele>95.891033778143</ele>
        <time>2020-11-25T14:35:32.000+01:00</time>
      </trkpt>
      <trkpt lat="43.68544" lon="4.0692">
        <ele>95.897768585286</ele>
        <time>2020-11-25T14:35:33.000+01:00</time>
      </trkpt>
      <trkpt lat="43.68544" lon="4.06921">
        <ele>95.904439656495</ele>
        <time>2020-11-25T14:35:34.000+01:00</time>
      </trkpt>
      <trkpt lat="43.68544" lon="4.06921">
        <ele>95.911061605174</ele>
        <time>2020-11-25T14:35:35.000+01:00</time>
      </trkpt>
      <trkpt lat="43.68544" lon="4.06922">
        <ele>95.917564441046</ele>
        <time>2020-11-25T14:35:36.000+01:00</time>
      </trkpt>
      <trkpt lat="43.68544" lon="4.06922">
        <ele>95.923978307692</ele>
        <time>2020-11-25T14:35:37.000+01:00</time>
      </trkpt>
      <trkpt lat="43.68544" lon="4.06923">
        <ele>95.930219487108</ele>
        <time>2020-11-25T14:35:38.000+01:00</time>
      </trkpt>
      <trkpt lat="43.68543" lon="4.06923">
        <ele>95.936356079873</ele>
        <time>2020-11-25T14:35:39.000+01:00</time>
      </trkpt>
      <trkpt lat="43.68543" lon="4.06924">
        <ele>95.942364167836</ele>
        <time>2020-11-25T14:35:40.000+01:00</time>
      </trkpt>
      <trkpt lat="43.68543" lon="4.06923">
        <ele>95.948177352318</ele>
        <time>2020-11-25T14:35:41.000+01:00</time>
      </trkpt>
      <trkpt lat="43.68543" lon="4.06924">
        <ele>95.948782239547</ele>
        <time>2020-11-25T14:35:42.000+01:00</time>
      </trkpt>
      <trkpt lat="43.68542" lon="4.06924">
        <ele>95.949390785313</ele>
        <time>2020-11-25T14:35:43.000+01:00</time>
      </trkpt>
      <trkpt lat="43.68542" lon="4.06924">
        <ele>95.950012543742</ele>
        <time>2020-11-25T14:35:44.000+01:00</time>
      </trkpt>
      <trkpt lat="43.68542" lon="4.06924">
        <ele>95.950655939203</ele>
        <time>2020-11-25T14:35:45.000+01:00</time>
      </trkpt>
      <trkpt lat="43.68542" lon="4.06924">
        <ele>95.951312308206</ele>
        <time>2020-11-25T14:35:46.000+01:00</time>
      </trkpt>
      <trkpt lat="43.68542" lon="4.06925">
        <ele>95.951995126322</ele>
        <time>2020-11-25T14:35:47.000+01:00</time>
      </trkpt>
      <trkpt lat="43.68542" lon="4.06925">
        <ele>95.952690756044</ele>
        <time>2020-11-25T14:35:48.000+01:00</time>
      </trkpt>
      <trkpt lat="43.68542" lon="4.06925">
        <ele>95.953393363916</ele>
        <time>2020-11-25T14:35:49.000+01:00</time>
      </trkpt>
      <trkpt lat="43.68542" lon="4.06925">
        <ele>95.954120724461</ele>
        <time>2020-11-25T14:35:50.000+01:00</time>
      </trkpt>
      <trkpt lat="43.68542" lon="4.06925">
        <ele>95.954889830372</ele>
        <time>2020-11-25T14:35:51.000+01:00</time>
      </trkpt>
      <trkpt lat="43.68542" lon="4.06925">
        <ele>95.962923871451</ele>
        <time>2020-11-25T14:35:52.000+01:00</time>
      </trkpt>
      <trkpt lat="43.68542" lon="4.06925">
        <ele>95.963731610288</ele>
        <time>2020-11-25T14:35:53.000+01:00</time>
      </trkpt>
      <trkpt lat="43.68542" lon="4.06924">
        <ele>95.964562376271</ele>
        <time>2020-11-25T14:35:54.000+01:00</time>
      </trkpt>
      <trkpt lat="43.68543" lon="4.06923">
        <ele>95.965437546794</ele>
        <time>2020-11-25T14:35:55.000+01:00</time>
      </trkpt>
      <trkpt lat="43.68543" lon="4.06923">
        <ele>95.966349714865</ele>
        <time>2020-11-25T14:35:56.000+01:00</time>
      </trkpt>
      <trkpt lat="43.68542" lon="4.06923">
        <ele>95.967283433582</ele>
        <time>2020-11-25T14:35:57.000+01:00</time>
      </trkpt>
      <trkpt lat="43.68542" lon="4.06923">
        <ele>95.968245444957</ele>
        <time>2020-11-25T14:35:58.000+01:00</time>
      </trkpt>
      <trkpt lat="43.68542" lon="4.06923">
        <ele>95.969226523289</ele>
        <time>2020-11-25T14:35:59.000+01:00</time>
      </trkpt>
      <trkpt lat="43.68542" lon="4.06923">
        <ele>95.970214977851</ele>
        <time>2020-11-25T14:36:00.000+01:00</time>
      </trkpt>
      <trkpt lat="43.68542" lon="4.06923">
        <ele>95.971206549119</ele>
        <time>2020-11-25T14:36:01.000+01:00</time>
      </trkpt>
      <trkpt lat="43.68542" lon="4.06923">
        <ele>95.972215784468</ele>
        <time>2020-11-25T14:36:02.000+01:00</time>
      </trkpt>
      <trkpt lat="43.68542" lon="4.06923">
        <ele>95.97323587403</ele>
        <time>2020-11-25T14:36:03.000+01:00</time>
      </trkpt>
      <trkpt lat="43.68542" lon="4.06923">
        <ele>95.974294496124</ele>
        <time>2020-11-25T14:36:04.000+01:00</time>
      </trkpt>
      <trkpt lat="43.68542" lon="4.06923">
        <ele>95.975364576567</ele>
        <time>2020-11-25T14:36:05.000+01:00</time>
      </trkpt>
      <trkpt lat="43.68542" lon="4.06923">
        <ele>95.976452570447</ele>
        <time>2020-11-25T14:36:06.000+01:00</time>
      </trkpt>
      <trkpt lat="43.68542" lon="4.06923">
        <ele>95.977558220414</ele>
        <time>2020-11-25T14:36:07.000+01:00</time>
      </trkpt>
      <trkpt lat="43.68542" lon="4.06923">
        <ele>95.978688885482</ele>
        <time>2020-11-25T14:36:08.000+01:00</time>
      </trkpt>
      <trkpt lat="43.68542" lon="4.06923">
        <ele>95.979845305227</ele>
        <time>2020-11-25T14:36:09.000+01:00</time>
      </trkpt>
      <trkpt lat="43.68542" lon="4.06923">
        <ele>95.9811138475</ele>
        <time>2020-11-25T14:36:10.000+01:00</time>
      </trkpt>
      <trkpt lat="43.68542" lon="4.06923">
        <ele>95.982488929516</ele>
        <time>2020-11-25T14:36:11.000+01:00</time>
      </trkpt>
      <trkpt lat="43.68543" lon="4.06923">
        <ele>95.983961501664</ele>
        <time>2020-11-25T14:36:12.000+01:00</time>
      </trkpt>
      <trkpt lat="43.68543" lon="4.06922">
        <ele>95.985512494106</ele>
        <time>2020-11-25T14:36:13.000+01:00</time>
      </trkpt>
      <trkpt lat="43.68543" lon="4.06922">
        <ele>96.001869471055</ele>
        <time>2020-11-25T14:36:14.000+01:00</time>
      </trkpt>
      <trkpt lat="43.68543" lon="4.06922">
        <ele>96.003553410437</ele>
        <time>2020-11-25T14:36:15.000+01:00</time>
      </trkpt>
      <trkpt lat="43.68544" lon="4.06922">
        <ele>96.005311291445</ele>
        <time>2020-11-25T14:36:16.000+01:00</time>
      </trkpt>
      <trkpt lat="43.68544" lon="4.06922">
        <ele>96.007132913296</ele>
        <time>2020-11-25T14:36:17.000+01:00</time>
      </trkpt>
      <trkpt lat="43.68544" lon="4.06922">
        <ele>96.009008521414</ele>
        <time>2020-11-25T14:36:18.000+01:00</time>
      </trkpt>
      <trkpt lat="43.68544" lon="4.06922">
        <ele>96.010928970314</ele>
        <time>2020-11-25T14:36:19.000+01:00</time>
      </trkpt>
      <trkpt lat="43.68544" lon="4.06922">
        <ele>96.012889062196</ele>
        <time>2020-11-25T14:36:20.000+01:00</time>
      </trkpt>
      <trkpt lat="43.68544" lon="4.06922">
        <ele>96.014878530711</ele>
        <time>2020-11-25T14:36:21.000+01:00</time>
      </trkpt>
      <trkpt lat="43.68544" lon="4.06922">
        <ele>96.016898956702</ele>
        <time>2020-11-25T14:36:22.000+01:00</time>
      </trkpt>
      <trkpt lat="43.68544" lon="4.06922">
        <ele>96.018940409709</ele>
        <time>2020-11-25T14:36:23.000+01:00</time>
      </trkpt>
      <trkpt lat="43.68544" lon="4.06922">
        <ele>96.02098408891</ele>
        <time>2020-11-25T14:36:24.000+01:00</time>
      </trkpt>
      <trkpt lat="43.68544" lon="4.06922">
        <ele>96.023034453456</ele>
        <time>2020-11-25T14:36:25.000+01:00</time>
      </trkpt>
      <trkpt lat="43.68544" lon="4.06922">
        <ele>96.043397704336</ele>
        <time>2020-11-25T14:36:26.000+01:00</time>
      </trkpt>
      <trkpt lat="43.68544" lon="4.06922">
        <ele>96.063397785635</ele>
        <time>2020-11-25T14:36:27.000+01:00</time>
      </trkpt>
      <trkpt lat="43.68544" lon="4.06922">
        <ele>96.083062938288</ele>
        <time>2020-11-25T14:36:28.000+01:00</time>
      </trkpt>
      <trkpt lat="43.68543" lon="4.06921">
        <ele>96.102283695291</ele>
        <time>2020-11-25T14:36:29.000+01:00</time>
      </trkpt>
      <trkpt lat="43.68543" lon="4.06921">
        <ele>96.104180993129</ele>
        <time>2020-11-25T14:36:30.000+01:00</time>
      </trkpt>
      <trkpt lat="43.68543" lon="4.0692">
        <ele>96.106093166403</ele>
        <time>2020-11-25T14:36:31.000+01:00</time>
      </trkpt>
      <trkpt lat="43.68543" lon="4.0692">
        <ele>96.108024035055</ele>
        <time>2020-11-25T14:36:32.000+01:00</time>
      </trkpt>
      <trkpt lat="43.68543" lon="4.0692">
        <ele>96.109980057278</ele>
        <time>2020-11-25T14:36:33.000+01:00</time>
      </trkpt>
      <trkpt lat="43.68542" lon="4.0692">
        <ele>96.111965778539</ele>
        <time>2020-11-25T14:36:34.000+01:00</time>
      </trkpt>
      <trkpt lat="43.68542" lon="4.0692">
        <ele>96.113982576749</ele>
        <time>2020-11-25T14:36:35.000+01:00</time>
      </trkpt>
      <trkpt lat="43.68542" lon="4.0692">
        <ele>96.11602304356</ele>
        <time>2020-11-25T14:36:36.000+01:00</time>
      </trkpt>
      <trkpt lat="43.68542" lon="4.0692">
        <ele>96.118092824431</ele>
        <time>2020-11-25T14:36:37.000+01:00</time>
      </trkpt>
      <trkpt lat="43.68542" lon="4.0692">
        <ele>96.120188012677</ele>
        <time>2020-11-25T14:36:38.000+01:00</time>
      </trkpt>
      <trkpt lat="43.68542" lon="4.0692">
        <ele>96.122304676889</ele>
        <time>2020-11-25T14:36:39.000+01:00</time>
      </trkpt>
      <trkpt lat="43.68542" lon="4.06919">
        <ele>96.124439201472</ele>
        <time>2020-11-25T14:36:40.000+01:00</time>
      </trkpt>
      <trkpt lat="43.68542" lon="4.06919">
        <ele>96.126584993579</ele>
        <time>2020-11-25T14:36:41.000+01:00</time>
      </trkpt>
      <trkpt lat="43.68542" lon="4.06919">
        <ele>96.128747515219</ele>
        <time>2020-11-25T14:36:42.000+01:00</time>
      </trkpt>
      <trkpt lat="43.68542" lon="4.06919">
        <ele>96.130937875595</ele>
        <time>2020-11-25T14:36:43.000+01:00</time>
      </trkpt>
      <trkpt lat="43.68542" lon="4.06919">
        <ele>96.133142584109</ele>
        <time>2020-11-25T14:36:44.000+01:00</time>
      </trkpt>
      <trkpt lat="43.68542" lon="4.06919">
        <ele>96.135358613713</ele>
        <time>2020-11-25T14:36:45.000+01:00</time>
      </trkpt>
      <trkpt lat="43.68542" lon="4.06919">
        <ele>96.157597996905</ele>
        <time>2020-11-25T14:36:46.000+01:00</time>
      </trkpt>
      <trkpt lat="43.68542" lon="4.06919">
        <ele>96.179479568912</ele>
        <time>2020-11-25T14:36:47.000+01:00</time>
      </trkpt>
      <trkpt lat="43.68542" lon="4.06919">
        <ele>96.181631233817</ele>
        <time>2020-11-25T14:36:48.000+01:00</time>
      </trkpt>
      <trkpt lat="43.68542" lon="4.06919">
        <ele>96.183786571827</ele>
        <time>2020-11-25T14:36:49.000+01:00</time>
      </trkpt>
      <trkpt lat="43.68542" lon="4.06919">
        <ele>96.185945896711</ele>
        <time>2020-11-25T14:36:50.000+01:00</time>
      </trkpt>
      <trkpt lat="43.68542" lon="4.06919">
        <ele>96.188105830907</ele>
        <time>2020-11-25T14:36:51.000+01:00</time>
      </trkpt>
      <trkpt lat="43.68542" lon="4.06919">
        <ele>96.190264479842</ele>
        <time>2020-11-25T14:36:52.000+01:00</time>
      </trkpt>
      <trkpt lat="43.68542" lon="4.06919">
        <ele>96.192396397881</ele>
        <time>2020-11-25T14:36:53.000+01:00</time>
      </trkpt>
      <trkpt lat="43.68542" lon="4.0692">
        <ele>96.194506875587</ele>
        <time>2020-11-25T14:36:54.000+01:00</time>
      </trkpt>
      <trkpt lat="43.68543" lon="4.0692">
        <ele>96.215526497763</ele>
        <time>2020-11-25T14:36:55.000+01:00</time>
      </trkpt>
      <trkpt lat="43.68543" lon="4.06921">
        <ele>96.236414840864</ele>
        <time>2020-11-25T14:36:56.000+01:00</time>
      </trkpt>
      <trkpt lat="43.68543" lon="4.06923">
        <ele>96.257078325213</ele>
        <time>2020-11-25T14:36:57.000+01:00</time>
      </trkpt>
      <trkpt lat="43.68543" lon="4.06924">
        <ele>96.277576246383</ele>
        <time>2020-11-25T14:36:58.000+01:00</time>
      </trkpt>
      <trkpt lat="43.68543" lon="4.06926">
        <ele>96.297618192083</ele>
        <time>2020-11-25T14:36:59.000+01:00</time>
      </trkpt>
      <trkpt lat="43.68543" lon="4.06928">
        <ele>96.317310357679</ele>
        <time>2020-11-25T14:37:00.000+01:00</time>
      </trkpt>
      <trkpt lat="43.68543" lon="4.06929">
        <ele>96.336587579396</ele>
        <time>2020-11-25T14:37:01.000+01:00</time>
      </trkpt>
      <trkpt lat="43.68543" lon="4.06931">
        <ele>96.355332338425</ele>
        <time>2020-11-25T14:37:02.000+01:00</time>
      </trkpt>
      <trkpt lat="43.68543" lon="4.06932">
        <ele>96.373588624931</ele>
        <time>2020-11-25T14:37:03.000+01:00</time>
      </trkpt>
      <trkpt lat="43.68543" lon="4.06933">
        <ele>96.391413654053</ele>
        <time>2020-11-25T14:37:04.000+01:00</time>
      </trkpt>
      <trkpt lat="43.68543" lon="4.06935">
        <ele>96.4087683618</ele>
        <time>2020-11-25T14:37:05.000+01:00</time>
      </trkpt>
      <trkpt lat="43.68542" lon="4.06936">
        <ele>96.425656855763</ele>
        <time>2020-11-25T14:37:06.000+01:00</time>
      </trkpt>
      <trkpt lat="43.68542" lon="4.06937">
        <ele>96.442308950628</ele>
        <time>2020-11-25T14:37:07.000+01:00</time>
      </trkpt>
      <trkpt lat="43.68543" lon="4.06938">
        <ele>96.458734971522</ele>
        <time>2020-11-25T14:37:08.000+01:00</time>
      </trkpt>
      <trkpt lat="43.68542" lon="4.06941">
        <ele>96.474903851733</ele>
        <time>2020-11-25T14:37:09.000+01:00</time>
      </trkpt>
      <trkpt lat="43.68542" lon="4.06943">
        <ele>96.490812183669</ele>
        <time>2020-11-25T14:37:10.000+01:00</time>
      </trkpt>
      <trkpt lat="43.68543" lon="4.06944">
        <ele>96.506578544498</ele>
        <time>2020-11-25T14:37:11.000+01:00</time>
      </trkpt>
      <trkpt lat="43.68543" lon="4.06946">
        <ele>96.522034335336</ele>
        <time>2020-11-25T14:37:12.000+01:00</time>
      </trkpt>
      <trkpt lat="43.68543" lon="4.06948">
        <ele>96.537227450047</ele>
        <time>2020-11-25T14:37:13.000+01:00</time>
      </trkpt>
      <trkpt lat="43.68543" lon="4.06949">
        <ele>96.552062080883</ele>
        <time>2020-11-25T14:37:14.000+01:00</time>
      </trkpt>
      <trkpt lat="43.68544" lon="4.06951">
        <ele>96.56657413132</ele>
        <time>2020-11-25T14:37:15.000+01:00</time>
      </trkpt>
      <trkpt lat="43.68544" lon="4.06953">
        <ele>96.580720211242</ele>
        <time>2020-11-25T14:37:16.000+01:00</time>
      </trkpt>
      <trkpt lat="43.68544" lon="4.06955">
        <ele>96.59458322247</ele>
        <time>2020-11-25T14:37:17.000+01:00</time>
      </trkpt>
      <trkpt lat="43.68545" lon="4.06956">
        <ele>96.608294953102</ele>
        <time>2020-11-25T14:37:18.000+01:00</time>
      </trkpt>
      <trkpt lat="43.68545" lon="4.06958">
        <ele>96.62178722062</ele>
        <time>2020-11-25T14:37:19.000+01:00</time>
      </trkpt>
      <trkpt lat="43.68546" lon="4.0696">
        <ele>96.635026241468</ele>
        <time>2020-11-25T14:37:20.000+01:00</time>
      </trkpt>
      <trkpt lat="43.68546" lon="4.06962">
        <ele>96.648070056232</ele>
        <time>2020-11-25T14:37:21.000+01:00</time>
      </trkpt>
      <trkpt lat="43.68547" lon="4.06963">
        <ele>96.66077179745</ele>
        <time>2020-11-25T14:37:22.000+01:00</time>
      </trkpt>
      <trkpt lat="43.68547" lon="4.06965">
        <ele>96.673111162299</ele>
        <time>2020-11-25T14:37:23.000+01:00</time>
      </trkpt>
      <trkpt lat="43.68548" lon="4.06966">
        <ele>96.685035703714</ele>
        <time>2020-11-25T14:37:24.000+01:00</time>
      </trkpt>
      <trkpt lat="43.68548" lon="4.06968">
        <ele>96.696480229884</ele>
        <time>2020-11-25T14:37:25.000+01:00</time>
      </trkpt>
      <trkpt lat="43.68549" lon="4.06969">
        <ele>96.707693098877</ele>
        <time>2020-11-25T14:37:26.000+01:00</time>
      </trkpt>
      <trkpt lat="43.68549" lon="4.06971">
        <ele>96.718630947988</ele>
        <time>2020-11-25T14:37:27.000+01:00</time>
      </trkpt>
      <trkpt lat="43.68549" lon="4.06972">
        <ele>96.729398099048</ele>
        <time>2020-11-25T14:37:28.000+01:00</time>
      </trkpt>
      <trkpt lat="43.6855" lon="4.06974">
        <ele>96.740039909589</ele>
        <time>2020-11-25T14:37:29.000+01:00</time>
      </trkpt>
      <trkpt lat="43.6855" lon="4.06975">
        <ele>96.750470109807</ele>
        <time>2020-11-25T14:37:30.000+01:00</time>
      </trkpt>
      <trkpt lat="43.6855" lon="4.06976">
        <ele>96.760729112784</ele>
        <time>2020-11-25T14:37:31.000+01:00</time>
      </trkpt>
      <trkpt lat="43.6855" lon="4.06977">
        <ele>96.770907435272</ele>
        <time>2020-11-25T14:37:32.000+01:00</time>
      </trkpt>
      <trkpt lat="43.6855" lon="4.06979">
        <ele>96.781041374958</ele>
        <time>2020-11-25T14:37:33.000+01:00</time>
      </trkpt>
      <trkpt lat="43.68551" lon="4.0698">
        <ele>96.790980334341</ele>
        <time>2020-11-25T14:37:34.000+01:00</time>
      </trkpt>
      <trkpt lat="43.68551" lon="4.06982">
        <ele>96.800783953662</ele>
        <time>2020-11-25T14:37:35.000+01:00</time>
      </trkpt>
      <trkpt lat="43.68552" lon="4.06983">
        <ele>96.81043273958</ele>
        <time>2020-11-25T14:37:36.000+01:00</time>
      </trkpt>
      <trkpt lat="43.68552" lon="4.06984">
        <ele>96.819973542687</ele>
        <time>2020-11-25T14:37:37.000+01:00</time>
      </trkpt>
      <trkpt lat="43.68553" lon="4.06985">
        <ele>96.829397875438</ele>
        <time>2020-11-25T14:37:38.000+01:00</time>
      </trkpt>
      <trkpt lat="43.68553" lon="4.06987">
        <ele>96.838715989693</ele>
        <time>2020-11-25T14:37:39.000+01:00</time>
      </trkpt>
      <trkpt lat="43.68553" lon="4.06988">
        <ele>96.847898127481</ele>
        <time>2020-11-25T14:37:40.000+01:00</time>
      </trkpt>
      <trkpt lat="43.68553" lon="4.06988">
        <ele>96.856895807976</ele>
        <time>2020-11-25T14:37:41.000+01:00</time>
      </trkpt>
      <trkpt lat="43.68553" lon="4.06989">
        <ele>96.865724187257</ele>
        <time>2020-11-25T14:37:42.000+01:00</time>
      </trkpt>
      <trkpt lat="43.68554" lon="4.0699">
        <ele>96.874407295332</ele>
        <time>2020-11-25T14:37:43.000+01:00</time>
      </trkpt>
      <trkpt lat="43.68555" lon="4.06991">
        <ele>96.88289422762</ele>
        <time>2020-11-25T14:37:44.000+01:00</time>
      </trkpt>
      <trkpt lat="43.68555" lon="4.06992">
        <ele>96.891174643467</ele>
        <time>2020-11-25T14:37:45.000+01:00</time>
      </trkpt>
      <trkpt lat="43.68556" lon="4.06994">
        <ele>96.89929662958</ele>
        <time>2020-11-25T14:37:46.000+01:00</time>
      </trkpt>
      <trkpt lat="43.68557" lon="4.06995">
        <ele>96.907166769101</ele>
        <time>2020-11-25T14:37:47.000+01:00</time>
      </trkpt>
      <trkpt lat="43.68558" lon="4.06996">
        <ele>96.914990001252</ele>
        <time>2020-11-25T14:37:48.000+01:00</time>
      </trkpt>
      <trkpt lat="43.68558" lon="4.06997">
        <ele>96.9226286137</ele>
        <time>2020-11-25T14:37:49.000+01:00</time>
      </trkpt>
      <trkpt lat="43.68559" lon="4.06998">
        <ele>96.930137266125</ele>
        <time>2020-11-25T14:37:50.000+01:00</time>
      </trkpt>
      <trkpt lat="43.6856" lon="4.07">
        <ele>96.937722669892</ele>
        <time>2020-11-25T14:37:51.000+01:00</time>
      </trkpt>
      <trkpt lat="43.6856" lon="4.07001">
        <ele>96.945330487571</ele>
        <time>2020-11-25T14:37:52.000+01:00</time>
      </trkpt>
      <trkpt lat="43.68561" lon="4.07002">
        <ele>96.952834531036</ele>
        <time>2020-11-25T14:37:53.000+01:00</time>
      </trkpt>
      <trkpt lat="43.68561" lon="4.07003">
        <ele>96.960281099154</ele>
        <time>2020-11-25T14:37:54.000+01:00</time>
      </trkpt>
      <trkpt lat="43.68562" lon="4.07005">
        <ele>96.967808651336</ele>
        <time>2020-11-25T14:37:55.000+01:00</time>
      </trkpt>
      <trkpt lat="43.68563" lon="4.07006">
        <ele>96.975539215829</ele>
        <time>2020-11-25T14:37:56.000+01:00</time>
      </trkpt>
      <trkpt lat="43.68564" lon="4.07008">
        <ele>96.98335477883</ele>
        <time>2020-11-25T14:37:57.000+01:00</time>
      </trkpt>
      <trkpt lat="43.68564" lon="4.07009">
        <ele>96.991146228822</ele>
        <time>2020-11-25T14:37:58.000+01:00</time>
      </trkpt>
      <trkpt lat="43.68565" lon="4.0701">
        <ele>96.998858183166</ele>
        <time>2020-11-25T14:37:59.000+01:00</time>
      </trkpt>
      <trkpt lat="43.68566" lon="4.07011">
        <ele>97.006612340247</ele>
        <time>2020-11-25T14:38:00.000+01:00</time>
      </trkpt>
      <trkpt lat="43.68566" lon="4.07012">
        <ele>97.014262663587</ele>
        <time>2020-11-25T14:38:01.000+01:00</time>
      </trkpt>
      <trkpt lat="43.68567" lon="4.07013">
        <ele>97.021780270953</ele>
        <time>2020-11-25T14:38:02.000+01:00</time>
      </trkpt>
      <trkpt lat="43.68568" lon="4.07014">
        <ele>97.029180190473</ele>
        <time>2020-11-25T14:38:03.000+01:00</time>
      </trkpt>
      <trkpt lat="43.68568" lon="4.07016">
        <ele>97.036702412215</ele>
        <time>2020-11-25T14:38:04.000+01:00</time>
      </trkpt>
      <trkpt lat="43.68568" lon="4.07017">
        <ele>97.044376668004</ele>
        <time>2020-11-25T14:38:05.000+01:00</time>
      </trkpt>
      <trkpt lat="43.68569" lon="4.07019">
        <ele>97.051905092524</ele>
        <time>2020-11-25T14:38:06.000+01:00</time>
      </trkpt>
      <trkpt lat="43.68569" lon="4.0702">
        <ele>97.05953834383</ele>
        <time>2020-11-25T14:38:07.000+01:00</time>
      </trkpt>
      <trkpt lat="43.68569" lon="4.07022">
        <ele>97.067270284326</ele>
        <time>2020-11-25T14:38:08.000+01:00</time>
      </trkpt>
      <trkpt lat="43.68569" lon="4.07023">
        <ele>97.07497389357</ele>
        <time>2020-11-25T14:38:09.000+01:00</time>
      </trkpt>
      <trkpt lat="43.6857" lon="4.07025">
        <ele>97.082567774572</ele>
        <time>2020-11-25T14:38:10.000+01:00</time>
      </trkpt>
      <trkpt lat="43.6857" lon="4.07026">
        <ele>97.090138139337</ele>
        <time>2020-11-25T14:38:11.000+01:00</time>
      </trkpt>
      <trkpt lat="43.6857" lon="4.07028">
        <ele>97.09774161652</ele>
        <time>2020-11-25T14:38:12.000+01:00</time>
      </trkpt>
      <trkpt lat="43.68571" lon="4.0703">
        <ele>97.105326718581</ele>
        <time>2020-11-25T14:38:13.000+01:00</time>
      </trkpt>
      <trkpt lat="43.68571" lon="4.07031">
        <ele>97.11283503934</ele>
        <time>2020-11-25T14:38:14.000+01:00</time>
      </trkpt>
      <trkpt lat="43.68572" lon="4.07033">
        <ele>97.120256698676</ele>
        <time>2020-11-25T14:38:15.000+01:00</time>
      </trkpt>
      <trkpt lat="43.68572" lon="4.07034">
        <ele>97.127507118563</ele>
        <time>2020-11-25T14:38:16.000+01:00</time>
      </trkpt>
      <trkpt lat="43.68573" lon="4.07036">
        <ele>97.134567509747</ele>
        <time>2020-11-25T14:38:17.000+01:00</time>
      </trkpt>
      <trkpt lat="43.68573" lon="4.07037">
        <ele>97.141484197362</ele>
        <time>2020-11-25T14:38:18.000+01:00</time>
      </trkpt>
      <trkpt lat="43.68573" lon="4.07039">
        <ele>97.14813153536</ele>
        <time>2020-11-25T14:38:19.000+01:00</time>
      </trkpt>
      <trkpt lat="43.68573" lon="4.07041">
        <ele>97.154579392467</ele>
        <time>2020-11-25T14:38:20.000+01:00</time>
      </trkpt>
      <trkpt lat="43.68573" lon="4.07042">
        <ele>97.160820186292</ele>
        <time>2020-11-25T14:38:21.000+01:00</time>
      </trkpt>
      <trkpt lat="43.68574" lon="4.07043">
        <ele>97.166971369121</ele>
        <time>2020-11-25T14:38:22.000+01:00</time>
      </trkpt>
      <trkpt lat="43.68574" lon="4.07045">
        <ele>97.172916989774</ele>
        <time>2020-11-25T14:38:23.000+01:00</time>
      </trkpt>
      <trkpt lat="43.68574" lon="4.07046">
        <ele>97.178687632834</ele>
        <time>2020-11-25T14:38:24.000+01:00</time>
      </trkpt>
      <trkpt lat="43.68574" lon="4.07047">
        <ele>97.184200092998</ele>
        <time>2020-11-25T14:38:25.000+01:00</time>
      </trkpt>
      <trkpt lat="43.68574" lon="4.07049">
        <ele>97.189293782511</ele>
        <time>2020-11-25T14:38:26.000+01:00</time>
      </trkpt>
      <trkpt lat="43.68574" lon="4.07051">
        <ele>97.19402383306</ele>
        <time>2020-11-25T14:38:27.000+01:00</time>
      </trkpt>
      <trkpt lat="43.68573" lon="4.07052">
        <ele>97.198421635741</ele>
        <time>2020-11-25T14:38:28.000+01:00</time>
      </trkpt>
      <trkpt lat="43.68573" lon="4.07053">
        <ele>97.202397666294</ele>
        <time>2020-11-25T14:38:29.000+01:00</time>
      </trkpt>
      <trkpt lat="43.68573" lon="4.07054">
        <ele>97.20608640616</ele>
        <time>2020-11-25T14:38:30.000+01:00</time>
      </trkpt>
      <trkpt lat="43.68573" lon="4.07056">
        <ele>97.209550966637</ele>
        <time>2020-11-25T14:38:31.000+01:00</time>
      </trkpt>
      <trkpt lat="43.68573" lon="4.07057">
        <ele>97.212774844411</ele>
        <time>2020-11-25T14:38:32.000+01:00</time>
      </trkpt>
      <trkpt lat="43.68572" lon="4.07059">
        <ele>97.215731845129</ele>
        <time>2020-11-25T14:38:33.000+01:00</time>
      </trkpt>
      <trkpt lat="43.68572" lon="4.0706">
        <ele>97.218436432346</ele>
        <time>2020-11-25T14:38:34.000+01:00</time>
      </trkpt>
      <trkpt lat="43.68572" lon="4.07062">
        <ele>97.220984888094</ele>
        <time>2020-11-25T14:38:35.000+01:00</time>
      </trkpt>
      <trkpt lat="43.68572" lon="4.07063">
        <ele>97.223479138393</ele>
        <time>2020-11-25T14:38:36.000+01:00</time>
      </trkpt>
      <trkpt lat="43.68572" lon="4.07064">
        <ele>97.225672161581</ele>
        <time>2020-11-25T14:38:37.000+01:00</time>
      </trkpt>
      <trkpt lat="43.68572" lon="4.07065">
        <ele>97.227746330429</ele>
        <time>2020-11-25T14:38:38.000+01:00</time>
      </trkpt>
      <trkpt lat="43.68572" lon="4.07066">
        <ele>97.229646724622</ele>
        <time>2020-11-25T14:38:39.000+01:00</time>
      </trkpt>
      <trkpt lat="43.68572" lon="4.07067">
        <ele>97.231466814672</ele>
        <time>2020-11-25T14:38:40.000+01:00</time>
      </trkpt>
      <trkpt lat="43.68572" lon="4.07068">
        <ele>97.233250710612</ele>
        <time>2020-11-25T14:38:41.000+01:00</time>
      </trkpt>
      <trkpt lat="43.68572" lon="4.07068">
        <ele>97.235023239715</ele>
        <time>2020-11-25T14:38:42.000+01:00</time>
      </trkpt>
      <trkpt lat="43.68572" lon="4.07068">
        <ele>97.236759277463</ele>
        <time>2020-11-25T14:38:43.000+01:00</time>
      </trkpt>
      <trkpt lat="43.68572" lon="4.07069">
        <ele>97.236929125575</ele>
        <time>2020-11-25T14:38:44.000+01:00</time>
      </trkpt>
      <trkpt lat="43.68572" lon="4.07069">
        <ele>97.237101151668</ele>
        <time>2020-11-25T14:38:45.000+01:00</time>
      </trkpt>
      <trkpt lat="43.68571" lon="4.07069">
        <ele>97.237275676119</ele>
        <time>2020-11-25T14:38:46.000+01:00</time>
      </trkpt>
      <trkpt lat="43.68571" lon="4.0707">
        <ele>97.238961228262</ele>
        <time>2020-11-25T14:38:47.000+01:00</time>
      </trkpt>
      <trkpt lat="43.6857" lon="4.0707">
        <ele>97.240569475981</ele>
        <time>2020-11-25T14:38:48.000+01:00</time>
      </trkpt>
      <trkpt lat="43.68569" lon="4.07071">
        <ele>97.242209908353</ele>
        <time>2020-11-25T14:38:49.000+01:00</time>
      </trkpt>
      <trkpt lat="43.68568" lon="4.07072">
        <ele>97.243925436396</ele>
        <time>2020-11-25T14:38:50.000+01:00</time>
      </trkpt>
      <trkpt lat="43.68566" lon="4.07072">
        <ele>97.245624426678</ele>
        <time>2020-11-25T14:38:51.000+01:00</time>
      </trkpt>
      <trkpt lat="43.68565" lon="4.07073">
        <ele>97.247284000623</ele>
        <time>2020-11-25T14:38:52.000+01:00</time>
      </trkpt>
      <trkpt lat="43.68564" lon="4.07073">
        <ele>97.248837227334</ele>
        <time>2020-11-25T14:38:53.000+01:00</time>
      </trkpt>
      <trkpt lat="43.68563" lon="4.07074">
        <ele>97.250409378445</ele>
        <time>2020-11-25T14:38:54.000+01:00</time>
      </trkpt>
      <trkpt lat="43.68562" lon="4.07075">
        <ele>97.251993517518</ele>
        <time>2020-11-25T14:38:55.000+01:00</time>
      </trkpt>
      <trkpt lat="43.68561" lon="4.07076">
        <ele>97.25364958275</ele>
        <time>2020-11-25T14:38:56.000+01:00</time>
      </trkpt>
      <trkpt lat="43.68561" lon="4.07077">
        <ele>97.255372370046</ele>
        <time>2020-11-25T14:38:57.000+01:00</time>
      </trkpt>
      <trkpt lat="43.6856" lon="4.07079">
        <ele>97.256976844874</ele>
        <time>2020-11-25T14:38:58.000+01:00</time>
      </trkpt>
      <trkpt lat="43.6856" lon="4.0708">
        <ele>97.258566453104</ele>
        <time>2020-11-25T14:38:59.000+01:00</time>
      </trkpt>
      <trkpt lat="43.68559" lon="4.07081">
        <ele>97.260118851309</ele>
        <time>2020-11-25T14:39:00.000+01:00</time>
      </trkpt>
      <trkpt lat="43.68559" lon="4.07082">
        <ele>97.261532347008</ele>
        <time>2020-11-25T14:39:01.000+01:00</time>
      </trkpt>
      <trkpt lat="43.68559" lon="4.07083">
        <ele>97.262984765063</ele>
        <time>2020-11-25T14:39:02.000+01:00</time>
      </trkpt>
      <trkpt lat="43.68559" lon="4.07085">
        <ele>97.264452404852</ele>
        <time>2020-11-25T14:39:03.000+01:00</time>
      </trkpt>
      <trkpt lat="43.68559" lon="4.07086">
        <ele>97.26580043154</ele>
        <time>2020-11-25T14:39:04.000+01:00</time>
      </trkpt>
      <trkpt lat="43.68559" lon="4.07087">
        <ele>97.266994640279</ele>
        <time>2020-11-25T14:39:05.000+01:00</time>
      </trkpt>
      <trkpt lat="43.68559" lon="4.07087">
        <ele>97.268303765201</ele>
        <time>2020-11-25T14:39:06.000+01:00</time>
      </trkpt>
      <trkpt lat="43.68559" lon="4.07089">
        <ele>97.269815162989</ele>
        <time>2020-11-25T14:39:07.000+01:00</time>
      </trkpt>
      <trkpt lat="43.68558" lon="4.0709">
        <ele>97.271465834093</ele>
        <time>2020-11-25T14:39:08.000+01:00</time>
      </trkpt>
      <trkpt lat="43.68558" lon="4.07091">
        <ele>97.273254645817</ele>
        <time>2020-11-25T14:39:09.000+01:00</time>
      </trkpt>
      <trkpt lat="43.68557" lon="4.07092">
        <ele>97.27513827047</ele>
        <time>2020-11-25T14:39:10.000+01:00</time>
      </trkpt>
      <trkpt lat="43.68556" lon="4.07093">
        <ele>97.276960129451</ele>
        <time>2020-11-25T14:39:11.000+01:00</time>
      </trkpt>
      <trkpt lat="43.68555" lon="4.07095">
        <ele>97.278650991385</ele>
        <time>2020-11-25T14:39:12.000+01:00</time>
      </trkpt>
      <trkpt lat="43.68554" lon="4.07096">
        <ele>97.280335444587</ele>
        <time>2020-11-25T14:39:13.000+01:00</time>
      </trkpt>
      <trkpt lat="43.68553" lon="4.07098">
        <ele>97.281909639168</ele>
        <time>2020-11-25T14:39:14.000+01:00</time>
      </trkpt>
      <trkpt lat="43.68552" lon="4.07099">
        <ele>97.283349168101</ele>
        <time>2020-11-25T14:39:15.000+01:00</time>
      </trkpt>
      <trkpt lat="43.68552" lon="4.071">
        <ele>97.28450275607</ele>
        <time>2020-11-25T14:39:16.000+01:00</time>
      </trkpt>
      <trkpt lat="43.68551" lon="4.07101">
        <ele>97.285386296165</ele>
        <time>2020-11-25T14:39:17.000+01:00</time>
      </trkpt>
      <trkpt lat="43.68551" lon="4.07103">
        <ele>97.285890431198</ele>
        <time>2020-11-25T14:39:18.000+01:00</time>
      </trkpt>
      <trkpt lat="43.68551" lon="4.07104">
        <ele>97.28650286336</ele>
        <time>2020-11-25T14:39:19.000+01:00</time>
      </trkpt>
      <trkpt lat="43.6855" lon="4.07106">
        <ele>97.287302301682</ele>
        <time>2020-11-25T14:39:20.000+01:00</time>
      </trkpt>
      <trkpt lat="43.6855" lon="4.07107">
        <ele>97.288383408344</ele>
        <time>2020-11-25T14:39:21.000+01:00</time>
      </trkpt>
      <trkpt lat="43.68549" lon="4.07109">
        <ele>97.289568522315</ele>
        <time>2020-11-25T14:39:22.000+01:00</time>
      </trkpt>
      <trkpt lat="43.68549" lon="4.0711">
        <ele>97.290740584821</ele>
        <time>2020-11-25T14:39:23.000+01:00</time>
      </trkpt>
      <trkpt lat="43.68548" lon="4.07112">
        <ele>97.291829890298</ele>
        <time>2020-11-25T14:39:24.000+01:00</time>
      </trkpt>
      <trkpt lat="43.68548" lon="4.07113">
        <ele>97.292873849746</ele>
        <time>2020-11-25T14:39:25.000+01:00</time>
      </trkpt>
      <trkpt lat="43.68547" lon="4.07115">
        <ele>97.293932381383</ele>
        <time>2020-11-25T14:39:26.000+01:00</time>
      </trkpt>
      <trkpt lat="43.68547" lon="4.07117">
        <ele>97.295020434158</ele>
        <time>2020-11-25T14:39:27.000+01:00</time>
      </trkpt>
      <trkpt lat="43.68546" lon="4.07118">
        <ele>97.296181231666</ele>
        <time>2020-11-25T14:39:28.000+01:00</time>
      </trkpt>
      <trkpt lat="43.68545" lon="4.0712">
        <ele>97.297300805916</ele>
        <time>2020-11-25T14:39:29.000+01:00</time>
      </trkpt>
      <trkpt lat="43.68545" lon="4.07121">
        <ele>97.298350134325</ele>
        <time>2020-11-25T14:39:30.000+01:00</time>
      </trkpt>
      <trkpt lat="43.68544" lon="4.07122">
        <ele>97.299343783177</ele>
        <time>2020-11-25T14:39:31.000+01:00</time>
      </trkpt>
      <trkpt lat="43.68543" lon="4.07123">
        <ele>97.300346919688</ele>
        <time>2020-11-25T14:39:32.000+01:00</time>
      </trkpt>
      <trkpt lat="43.68542" lon="4.07125">
        <ele>97.301362352096</ele>
        <time>2020-11-25T14:39:33.000+01:00</time>
      </trkpt>
      <trkpt lat="43.68541" lon="4.07126">
        <ele>97.302405493185</ele>
        <time>2020-11-25T14:39:34.000+01:00</time>
      </trkpt>
      <trkpt lat="43.68541" lon="4.07127">
        <ele>97.303478155662</ele>
        <time>2020-11-25T14:39:35.000+01:00</time>
      </trkpt>
      <trkpt lat="43.6854" lon="4.07127">
        <ele>97.304519068672</ele>
        <time>2020-11-25T14:39:36.000+01:00</time>
      </trkpt>
      <trkpt lat="43.6854" lon="4.07129">
        <ele>97.305494473986</ele>
        <time>2020-11-25T14:39:37.000+01:00</time>
      </trkpt>
      <trkpt lat="43.68539" lon="4.0713">
        <ele>97.306346835393</ele>
        <time>2020-11-25T14:39:38.000+01:00</time>
      </trkpt>
      <trkpt lat="43.68538" lon="4.07132">
        <ele>97.307152824265</ele>
        <time>2020-11-25T14:39:39.000+01:00</time>
      </trkpt>
      <trkpt lat="43.68537" lon="4.07133">
        <ele>97.307939639043</ele>
        <time>2020-11-25T14:39:40.000+01:00</time>
      </trkpt>
      <trkpt lat="43.68536" lon="4.07134">
        <ele>97.308653250458</ele>
        <time>2020-11-25T14:39:41.000+01:00</time>
      </trkpt>
      <trkpt lat="43.68536" lon="4.07135">
        <ele>97.309391850648</ele>
        <time>2020-11-25T14:39:42.000+01:00</time>
      </trkpt>
      <trkpt lat="43.68535" lon="4.07137">
        <ele>97.310145334168</ele>
        <time>2020-11-25T14:39:43.000+01:00</time>
      </trkpt>
      <trkpt lat="43.68535" lon="4.07138">
        <ele>97.310963356172</ele>
        <time>2020-11-25T14:39:44.000+01:00</time>
      </trkpt>
      <trkpt lat="43.68534" lon="4.07139">
        <ele>97.311753259782</ele>
        <time>2020-11-25T14:39:45.000+01:00</time>
      </trkpt>
      <trkpt lat="43.68533" lon="4.07141">
        <ele>97.312583416126</ele>
        <time>2020-11-25T14:39:46.000+01:00</time>
      </trkpt>
      <trkpt lat="43.68533" lon="4.07142">
        <ele>97.313289987246</ele>
        <time>2020-11-25T14:39:47.000+01:00</time>
      </trkpt>
      <trkpt lat="43.68532" lon="4.07143">
        <ele>97.313974135645</ele>
        <time>2020-11-25T14:39:48.000+01:00</time>
      </trkpt>
      <trkpt lat="43.68532" lon="4.07144">
        <ele>97.314634542744</ele>
        <time>2020-11-25T14:39:49.000+01:00</time>
      </trkpt>
      <trkpt lat="43.68531" lon="4.07146">
        <ele>97.315169250615</ele>
        <time>2020-11-25T14:39:50.000+01:00</time>
      </trkpt>
      <trkpt lat="43.6853" lon="4.07147">
        <ele>97.315732410639</ele>
        <time>2020-11-25T14:39:51.000+01:00</time>
      </trkpt>
      <trkpt lat="43.6853" lon="4.07148">
        <ele>97.316297425669</ele>
        <time>2020-11-25T14:39:52.000+01:00</time>
      </trkpt>
      <trkpt lat="43.68529" lon="4.07149">
        <ele>97.316771578904</ele>
        <time>2020-11-25T14:39:53.000+01:00</time>
      </trkpt>
      <trkpt lat="43.68529" lon="4.07151">
        <ele>97.317178367401</ele>
        <time>2020-11-25T14:39:54.000+01:00</time>
      </trkpt>
      <trkpt lat="43.68529" lon="4.07152">
        <ele>97.317687876864</ele>
        <time>2020-11-25T14:39:55.000+01:00</time>
      </trkpt>
      <trkpt lat="43.68528" lon="4.07154">
        <ele>97.318233934535</ele>
        <time>2020-11-25T14:39:56.000+01:00</time>
      </trkpt>
      <trkpt lat="43.68528" lon="4.07156">
        <ele>97.318763622615</ele>
        <time>2020-11-25T14:39:57.000+01:00</time>
      </trkpt>
      <trkpt lat="43.68527" lon="4.07157">
        <ele>97.319306523732</ele>
        <time>2020-11-25T14:39:58.000+01:00</time>
      </trkpt>
      <trkpt lat="43.68527" lon="4.07159">
        <ele>97.319837659347</ele>
        <time>2020-11-25T14:39:59.000+01:00</time>
      </trkpt>
      <trkpt lat="43.68526" lon="4.0716">
        <ele>97.320393644603</ele>
        <time>2020-11-25T14:40:00.000+01:00</time>
      </trkpt>
      <trkpt lat="43.68526" lon="4.07162">
        <ele>97.320989594936</ele>
        <time>2020-11-25T14:40:01.000+01:00</time>
      </trkpt>
      <trkpt lat="43.68525" lon="4.07164">
        <ele>97.321592071057</ele>
        <time>2020-11-25T14:40:02.000+01:00</time>
      </trkpt>
      <trkpt lat="43.68525" lon="4.07166">
        <ele>97.322215142411</ele>
        <time>2020-11-25T14:40:03.000+01:00</time>
      </trkpt>
      <trkpt lat="43.68525" lon="4.07168">
        <ele>97.322819740278</ele>
        <time>2020-11-25T14:40:04.000+01:00</time>
      </trkpt>
      <trkpt lat="43.68524" lon="4.07169">
        <ele>97.323449996307</ele>
        <time>2020-11-25T14:40:05.000+01:00</time>
      </trkpt>
      <trkpt lat="43.68524" lon="4.07171">
        <ele>97.324091633053</ele>
        <time>2020-11-25T14:40:06.000+01:00</time>
      </trkpt>
      <trkpt lat="43.68523" lon="4.07173">
        <ele>97.324774762764</ele>
        <time>2020-11-25T14:40:07.000+01:00</time>
      </trkpt>
      <trkpt lat="43.68523" lon="4.07174">
        <ele>97.325525942957</ele>
        <time>2020-11-25T14:40:08.000+01:00</time>
      </trkpt>
      <trkpt lat="43.68523" lon="4.07176">
        <ele>97.326293672051</ele>
        <time>2020-11-25T14:40:09.000+01:00</time>
      </trkpt>
      <trkpt lat="43.68523" lon="4.07177">
        <ele>97.327092889608</ele>
        <time>2020-11-25T14:40:10.000+01:00</time>
      </trkpt>
      <trkpt lat="43.68523" lon="4.07178">
        <ele>97.327892740493</ele>
        <time>2020-11-25T14:40:11.000+01:00</time>
      </trkpt>
      <trkpt lat="43.68523" lon="4.0718">
        <ele>97.328668455346</ele>
        <time>2020-11-25T14:40:12.000+01:00</time>
      </trkpt>
      <trkpt lat="43.68523" lon="4.07182">
        <ele>97.329418505484</ele>
        <time>2020-11-25T14:40:13.000+01:00</time>
      </trkpt>
      <trkpt lat="43.68523" lon="4.07183">
        <ele>97.330120200889</ele>
        <time>2020-11-25T14:40:14.000+01:00</time>
      </trkpt>
      <trkpt lat="43.68524" lon="4.07184">
        <ele>97.330863795994</ele>
        <time>2020-11-25T14:40:15.000+01:00</time>
      </trkpt>
      <trkpt lat="43.68524" lon="4.07186">
        <ele>97.331665324607</ele>
        <time>2020-11-25T14:40:16.000+01:00</time>
      </trkpt>
      <trkpt lat="43.68525" lon="4.07187">
        <ele>97.33243493552</ele>
        <time>2020-11-25T14:40:17.000+01:00</time>
      </trkpt>
      <trkpt lat="43.68526" lon="4.07189">
        <ele>97.333165251843</ele>
        <time>2020-11-25T14:40:18.000+01:00</time>
      </trkpt>
      <trkpt lat="43.68526" lon="4.0719">
        <ele>97.333801739519</ele>
        <time>2020-11-25T14:40:19.000+01:00</time>
      </trkpt>
      <trkpt lat="43.68527" lon="4.07191">
        <ele>97.334434816503</ele>
        <time>2020-11-25T14:40:20.000+01:00</time>
      </trkpt>
      <trkpt lat="43.68527" lon="4.07192">
        <ele>97.335018757086</ele>
        <time>2020-11-25T14:40:21.000+01:00</time>
      </trkpt>
      <trkpt lat="43.68528" lon="4.07193">
        <ele>97.335516738172</ele>
        <time>2020-11-25T14:40:22.000+01:00</time>
      </trkpt>
      <trkpt lat="43.68528" lon="4.07194">
        <ele>97.335999426548</ele>
        <time>2020-11-25T14:40:23.000+01:00</time>
      </trkpt>
      <trkpt lat="43.68529" lon="4.07196">
        <ele>97.336418395023</ele>
        <time>2020-11-25T14:40:24.000+01:00</time>
      </trkpt>
      <trkpt lat="43.6853" lon="4.07197">
        <ele>97.336752344992</ele>
        <time>2020-11-25T14:40:25.000+01:00</time>
      </trkpt>
      <trkpt lat="43.68531" lon="4.07198">
        <ele>97.337089916268</ele>
        <time>2020-11-25T14:40:26.000+01:00</time>
      </trkpt>
      <trkpt lat="43.68531" lon="4.07199">
        <ele>97.337327228448</ele>
        <time>2020-11-25T14:40:27.000+01:00</time>
      </trkpt>
      <trkpt lat="43.68532" lon="4.072">
        <ele>97.337444273376</ele>
        <time>2020-11-25T14:40:28.000+01:00</time>
      </trkpt>
      <trkpt lat="43.68533" lon="4.07201">
        <ele>97.337577454862</ele>
        <time>2020-11-25T14:40:29.000+01:00</time>
      </trkpt>
      <trkpt lat="43.68534" lon="4.07203">
        <ele>97.337626521492</ele>
        <time>2020-11-25T14:40:30.000+01:00</time>
      </trkpt>
      <trkpt lat="43.68535" lon="4.07204">
        <ele>97.337518937926</ele>
        <time>2020-11-25T14:40:31.000+01:00</time>
      </trkpt>
      <trkpt lat="43.68536" lon="4.07205">
        <ele>97.337259519374</ele>
        <time>2020-11-25T14:40:32.000+01:00</time>
      </trkpt>
      <trkpt lat="43.68537" lon="4.07206">
        <ele>97.336898487885</ele>
        <time>2020-11-25T14:40:33.000+01:00</time>
      </trkpt>
      <trkpt lat="43.68537" lon="4.07207">
        <ele>97.336265339186</ele>
        <time>2020-11-25T14:40:34.000+01:00</time>
      </trkpt>
      <trkpt lat="43.68538" lon="4.07208">
        <ele>97.335583711656</ele>
        <time>2020-11-25T14:40:35.000+01:00</time>
      </trkpt>
      <trkpt lat="43.68539" lon="4.07209">
        <ele>97.334560576867</ele>
        <time>2020-11-25T14:40:36.000+01:00</time>
      </trkpt>
      <trkpt lat="43.6854" lon="4.0721">
        <ele>97.333391410707</ele>
        <time>2020-11-25T14:40:37.000+01:00</time>
      </trkpt>
      <trkpt lat="43.6854" lon="4.07211">
        <ele>97.331922036471</ele>
        <time>2020-11-25T14:40:38.000+01:00</time>
      </trkpt>
      <trkpt lat="43.68541" lon="4.07212">
        <ele>97.330285123274</ele>
        <time>2020-11-25T14:40:39.000+01:00</time>
      </trkpt>
      <trkpt lat="43.68542" lon="4.07213">
        <ele>97.328483288803</ele>
        <time>2020-11-25T14:40:40.000+01:00</time>
      </trkpt>
      <trkpt lat="43.68543" lon="4.07214">
        <ele>97.32646007243</ele>
        <time>2020-11-25T14:40:41.000+01:00</time>
      </trkpt>
      <trkpt lat="43.68544" lon="4.07214">
        <ele>97.324323055587</ele>
        <time>2020-11-25T14:40:42.000+01:00</time>
      </trkpt>
      <trkpt lat="43.68545" lon="4.07215">
        <ele>97.321780899244</ele>
        <time>2020-11-25T14:40:43.000+01:00</time>
      </trkpt>
      <trkpt lat="43.68546" lon="4.07215">
        <ele>97.318988548769</ele>
        <time>2020-11-25T14:40:44.000+01:00</time>
      </trkpt>
      <trkpt lat="43.68547" lon="4.07216">
        <ele>97.315815047215</ele>
        <time>2020-11-25T14:40:45.000+01:00</time>
      </trkpt>
      <trkpt lat="43.68548" lon="4.07216">
        <ele>97.312335816448</ele>
        <time>2020-11-25T14:40:46.000+01:00</time>
      </trkpt>
      <trkpt lat="43.68549" lon="4.07216">
        <ele>97.308628150542</ele>
        <time>2020-11-25T14:40:47.000+01:00</time>
      </trkpt>
      <trkpt lat="43.6855" lon="4.07216">
        <ele>97.304533973543</ele>
        <time>2020-11-25T14:40:48.000+01:00</time>
      </trkpt>
      <trkpt lat="43.68551" lon="4.07217">
        <ele>97.300092501824</ele>
        <time>2020-11-25T14:40:49.000+01:00</time>
      </trkpt>
      <trkpt lat="43.68553" lon="4.07217">
        <ele>97.295422033583</ele>
        <time>2020-11-25T14:40:50.000+01:00</time>
      </trkpt>
      <trkpt lat="43.68554" lon="4.07217">
        <ele>97.290532226529</ele>
        <time>2020-11-25T14:40:51.000+01:00</time>
      </trkpt>
      <trkpt lat="43.68555" lon="4.07217">
        <ele>97.285460382046</ele>
        <time>2020-11-25T14:40:52.000+01:00</time>
      </trkpt>
      <trkpt lat="43.68557" lon="4.07217">
        <ele>97.280254808471</ele>
        <time>2020-11-25T14:40:53.000+01:00</time>
      </trkpt>
      <trkpt lat="43.68558" lon="4.07217">
        <ele>97.275011931515</ele>
        <time>2020-11-25T14:40:54.000+01:00</time>
      </trkpt>
      <trkpt lat="43.68559" lon="4.07217">
        <ele>97.26976963043</ele>
        <time>2020-11-25T14:40:55.000+01:00</time>
      </trkpt>
      <trkpt lat="43.6856" lon="4.07217">
        <ele>97.264503441476</ele>
        <time>2020-11-25T14:40:56.000+01:00</time>
      </trkpt>
      <trkpt lat="43.68561" lon="4.07217">
        <ele>97.259235296052</ele>
        <time>2020-11-25T14:40:57.000+01:00</time>
      </trkpt>
      <trkpt lat="43.68562" lon="4.07217">
        <ele>97.254016919232</ele>
        <time>2020-11-25T14:40:58.000+01:00</time>
      </trkpt>
      <trkpt lat="43.68563" lon="4.07217">
        <ele>97.248471636643</ele>
        <time>2020-11-25T14:40:59.000+01:00</time>
      </trkpt>
      <trkpt lat="43.68564" lon="4.07217">
        <ele>97.242954798496</ele>
        <time>2020-11-25T14:41:00.000+01:00</time>
      </trkpt>
      <trkpt lat="43.68565" lon="4.07217">
        <ele>97.237208970962</ele>
        <time>2020-11-25T14:41:01.000+01:00</time>
      </trkpt>
      <trkpt lat="43.68566" lon="4.07217">
        <ele>97.231254090617</ele>
        <time>2020-11-25T14:41:02.000+01:00</time>
      </trkpt>
      <trkpt lat="43.68567" lon="4.07217">
        <ele>97.225393549864</ele>
        <time>2020-11-25T14:41:03.000+01:00</time>
      </trkpt>
      <trkpt lat="43.68569" lon="4.07217">
        <ele>97.219522983404</ele>
        <time>2020-11-25T14:41:04.000+01:00</time>
      </trkpt>
      <trkpt lat="43.6857" lon="4.07217">
        <ele>97.213625848904</ele>
        <time>2020-11-25T14:41:05.000+01:00</time>
      </trkpt>
      <trkpt lat="43.68572" lon="4.07216">
        <ele>97.207484914158</ele>
        <time>2020-11-25T14:41:06.000+01:00</time>
      </trkpt>
      <trkpt lat="43.68573" lon="4.07216">
        <ele>97.201383351422</ele>
        <time>2020-11-25T14:41:07.000+01:00</time>
      </trkpt>
      <trkpt lat="43.68574" lon="4.07216">
        <ele>97.195360439469</ele>
        <time>2020-11-25T14:41:08.000+01:00</time>
      </trkpt>
      <trkpt lat="43.68576" lon="4.07216">
        <ele>97.189422434174</ele>
        <time>2020-11-25T14:41:09.000+01:00</time>
      </trkpt>
      <trkpt lat="43.68577" lon="4.07215">
        <ele>97.183454484052</ele>
        <time>2020-11-25T14:41:10.000+01:00</time>
      </trkpt>
      <trkpt lat="43.68578" lon="4.07215">
        <ele>97.177353478794</ele>
        <time>2020-11-25T14:41:11.000+01:00</time>
      </trkpt>
      <trkpt lat="43.68579" lon="4.07215">
        <ele>97.171104595535</ele>
        <time>2020-11-25T14:41:12.000+01:00</time>
      </trkpt>
      <trkpt lat="43.6858" lon="4.07215">
        <ele>97.164980483017</ele>
        <time>2020-11-25T14:41:13.000+01:00</time>
      </trkpt>
      <trkpt lat="43.68581" lon="4.07215">
        <ele>97.158988238171</ele>
        <time>2020-11-25T14:41:14.000+01:00</time>
      </trkpt>
      <trkpt lat="43.68582" lon="4.07215">
        <ele>97.152892300799</ele>
        <time>2020-11-25T14:41:15.000+01:00</time>
      </trkpt>
      <trkpt lat="43.68583" lon="4.07216">
        <ele>97.146868003321</ele>
        <time>2020-11-25T14:41:16.000+01:00</time>
      </trkpt>
      <trkpt lat="43.68584" lon="4.07216">
        <ele>97.140852279844</ele>
        <time>2020-11-25T14:41:17.000+01:00</time>
      </trkpt>
      <trkpt lat="43.68585" lon="4.07216">
        <ele>97.134745888365</ele>
        <time>2020-11-25T14:41:18.000+01:00</time>
      </trkpt>
      <trkpt lat="43.68586" lon="4.07216">
        <ele>97.128741286048</ele>
        <time>2020-11-25T14:41:19.000+01:00</time>
      </trkpt>
      <trkpt lat="43.68587" lon="4.07217">
        <ele>97.122774279558</ele>
        <time>2020-11-25T14:41:20.000+01:00</time>
      </trkpt>
      <trkpt lat="43.68588" lon="4.07217">
        <ele>97.116619454437</ele>
        <time>2020-11-25T14:41:21.000+01:00</time>
      </trkpt>
      <trkpt lat="43.68589" lon="4.07217">
        <ele>97.11058790331</ele>
        <time>2020-11-25T14:41:22.000+01:00</time>
      </trkpt>
      <trkpt lat="43.6859" lon="4.07217">
        <ele>97.104605646399</ele>
        <time>2020-11-25T14:41:23.000+01:00</time>
      </trkpt>
      <trkpt lat="43.68591" lon="4.07217">
        <ele>97.098656214239</ele>
        <time>2020-11-25T14:41:24.000+01:00</time>
      </trkpt>
      <trkpt lat="43.68592" lon="4.07218">
        <ele>97.092825294205</ele>
        <time>2020-11-25T14:41:25.000+01:00</time>
      </trkpt>
      <trkpt lat="43.68593" lon="4.07218">
        <ele>97.086870493045</ele>
        <time>2020-11-25T14:41:26.000+01:00</time>
      </trkpt>
      <trkpt lat="43.68594" lon="4.07218">
        <ele>97.080910252522</ele>
        <time>2020-11-25T14:41:27.000+01:00</time>
      </trkpt>
      <trkpt lat="43.68595" lon="4.07218">
        <ele>97.074711590071</ele>
        <time>2020-11-25T14:41:28.000+01:00</time>
      </trkpt>
      <trkpt lat="43.68597" lon="4.07218">
        <ele>97.068604321886</ele>
        <time>2020-11-25T14:41:29.000+01:00</time>
      </trkpt>
      <trkpt lat="43.68598" lon="4.07219">
        <ele>97.062601837137</ele>
        <time>2020-11-25T14:41:30.000+01:00</time>
      </trkpt>
      <trkpt lat="43.68599" lon="4.07219">
        <ele>97.056595873877</ele>
        <time>2020-11-25T14:41:31.000+01:00</time>
      </trkpt>
      <trkpt lat="43.68599" lon="4.07219">
        <ele>97.050581780738</ele>
        <time>2020-11-25T14:41:32.000+01:00</time>
      </trkpt>
      <trkpt lat="43.686" lon="4.07219">
        <ele>97.044598094261</ele>
        <time>2020-11-25T14:41:33.000+01:00</time>
      </trkpt>
      <trkpt lat="43.68601" lon="4.0722">
        <ele>97.038658284499</ele>
        <time>2020-11-25T14:41:34.000+01:00</time>
      </trkpt>
      <trkpt lat="43.68601" lon="4.0722">
        <ele>97.032752693586</ele>
        <time>2020-11-25T14:41:35.000+01:00</time>
      </trkpt>
      <trkpt lat="43.68602" lon="4.0722">
        <ele>97.026866306069</ele>
        <time>2020-11-25T14:41:36.000+01:00</time>
      </trkpt>
      <trkpt lat="43.68603" lon="4.07221">
        <ele>97.021038920943</ele>
        <time>2020-11-25T14:41:37.000+01:00</time>
      </trkpt>
      <trkpt lat="43.68604" lon="4.07221">
        <ele>97.015214564857</ele>
        <time>2020-11-25T14:41:38.000+01:00</time>
      </trkpt>
      <trkpt lat="43.68605" lon="4.07222">
        <ele>97.009409799847</ele>
        <time>2020-11-25T14:41:39.000+01:00</time>
      </trkpt>
      <trkpt lat="43.68606" lon="4.07222">
        <ele>97.003597130186</ele>
        <time>2020-11-25T14:41:40.000+01:00</time>
      </trkpt>
      <trkpt lat="43.68606" lon="4.07222">
        <ele>96.997772724076</ele>
        <time>2020-11-25T14:41:41.000+01:00</time>
      </trkpt>
      <trkpt lat="43.68607" lon="4.07222">
        <ele>96.991941315896</ele>
        <time>2020-11-25T14:41:42.000+01:00</time>
      </trkpt>
      <trkpt lat="43.68608" lon="4.07222">
        <ele>96.985648296209</ele>
        <time>2020-11-25T14:41:43.000+01:00</time>
      </trkpt>
      <trkpt lat="43.6861" lon="4.07223">
        <ele>96.979035575797</ele>
        <time>2020-11-25T14:41:44.000+01:00</time>
      </trkpt>
      <trkpt lat="43.68611" lon="4.07223">
        <ele>96.972099373115</ele>
        <time>2020-11-25T14:41:45.000+01:00</time>
      </trkpt>
      <trkpt lat="43.68612" lon="4.07223">
        <ele>96.964918055882</ele>
        <time>2020-11-25T14:41:46.000+01:00</time>
      </trkpt>
      <trkpt lat="43.68613" lon="4.07223">
        <ele>96.95784267228</ele>
        <time>2020-11-25T14:41:47.000+01:00</time>
      </trkpt>
      <trkpt lat="43.68614" lon="4.07224">
        <ele>96.950791937688</ele>
        <time>2020-11-25T14:41:48.000+01:00</time>
      </trkpt>
      <trkpt lat="43.68615" lon="4.07224">
        <ele>96.943761526395</ele>
        <time>2020-11-25T14:41:49.000+01:00</time>
      </trkpt>
      <trkpt lat="43.68616" lon="4.07225">
        <ele>96.936693131229</ele>
        <time>2020-11-25T14:41:50.000+01:00</time>
      </trkpt>
      <trkpt lat="43.68616" lon="4.07225">
        <ele>96.929297866195</ele>
        <time>2020-11-25T14:41:51.000+01:00</time>
      </trkpt>
      <trkpt lat="43.68617" lon="4.07226">
        <ele>96.921539594772</ele>
        <time>2020-11-25T14:41:52.000+01:00</time>
      </trkpt>
      <trkpt lat="43.68618" lon="4.07226">
        <ele>96.913529166182</ele>
        <time>2020-11-25T14:41:53.000+01:00</time>
      </trkpt>
      <trkpt lat="43.68619" lon="4.07227">
        <ele>96.905618932424</ele>
        <time>2020-11-25T14:41:54.000+01:00</time>
      </trkpt>
      <trkpt lat="43.6862" lon="4.07227">
        <ele>96.897418320407</ele>
        <time>2020-11-25T14:41:55.000+01:00</time>
      </trkpt>
      <trkpt lat="43.68621" lon="4.07228">
        <ele>96.88883597623</ele>
        <time>2020-11-25T14:41:56.000+01:00</time>
      </trkpt>
      <trkpt lat="43.68622" lon="4.07229">
        <ele>96.88024126263</ele>
        <time>2020-11-25T14:41:57.000+01:00</time>
      </trkpt>
      <trkpt lat="43.68623" lon="4.0723">
        <ele>96.871638949034</ele>
        <time>2020-11-25T14:41:58.000+01:00</time>
      </trkpt>
      <trkpt lat="43.68624" lon="4.07231">
        <ele>96.863021770528</ele>
        <time>2020-11-25T14:41:59.000+01:00</time>
      </trkpt>
      <trkpt lat="43.68625" lon="4.07231">
        <ele>96.85442663321</ele>
        <time>2020-11-25T14:42:00.000+01:00</time>
      </trkpt>
      <trkpt lat="43.68626" lon="4.07232">
        <ele>96.845815542768</ele>
        <time>2020-11-25T14:42:01.000+01:00</time>
      </trkpt>
      <trkpt lat="43.68627" lon="4.07233">
        <ele>96.837193814688</ele>
        <time>2020-11-25T14:42:02.000+01:00</time>
      </trkpt>
      <trkpt lat="43.68628" lon="4.07233">
        <ele>96.828498441084</ele>
        <time>2020-11-25T14:42:03.000+01:00</time>
      </trkpt>
      <trkpt lat="43.68629" lon="4.07234">
        <ele>96.81977462405</ele>
        <time>2020-11-25T14:42:04.000+01:00</time>
      </trkpt>
      <trkpt lat="43.6863" lon="4.07235">
        <ele>96.810998725447</ele>
        <time>2020-11-25T14:42:05.000+01:00</time>
      </trkpt>
      <trkpt lat="43.6863" lon="4.07236">
        <ele>96.801861159074</ele>
        <time>2020-11-25T14:42:06.000+01:00</time>
      </trkpt>
      <trkpt lat="43.68631" lon="4.07238">
        <ele>96.792632995298</ele>
        <time>2020-11-25T14:42:07.000+01:00</time>
      </trkpt>
      <trkpt lat="43.68632" lon="4.07239">
        <ele>96.783306026467</ele>
        <time>2020-11-25T14:42:08.000+01:00</time>
      </trkpt>
      <trkpt lat="43.68632" lon="4.07241">
        <ele>96.773980978841</ele>
        <time>2020-11-25T14:42:09.000+01:00</time>
      </trkpt>
      <trkpt lat="43.68633" lon="4.07241">
        <ele>96.764636403042</ele>
        <time>2020-11-25T14:42:10.000+01:00</time>
      </trkpt>
      <trkpt lat="43.68634" lon="4.07242">
        <ele>96.75534318017</ele>
        <time>2020-11-25T14:42:11.000+01:00</time>
      </trkpt>
      <trkpt lat="43.68635" lon="4.07243">
        <ele>96.745737530645</ele>
        <time>2020-11-25T14:42:12.000+01:00</time>
      </trkpt>
      <trkpt lat="43.68635" lon="4.07243">
        <ele>96.735837979337</ele>
        <time>2020-11-25T14:42:13.000+01:00</time>
      </trkpt>
      <trkpt lat="43.68636" lon="4.07245">
        <ele>96.72612469972</ele>
        <time>2020-11-25T14:42:14.000+01:00</time>
      </trkpt>
      <trkpt lat="43.68637" lon="4.07246">
        <ele>96.71658012751</ele>
        <time>2020-11-25T14:42:15.000+01:00</time>
      </trkpt>
      <trkpt lat="43.68637" lon="4.07247">
        <ele>96.707174307406</ele>
        <time>2020-11-25T14:42:16.000+01:00</time>
      </trkpt>
      <trkpt lat="43.68637" lon="4.07247">
        <ele>96.697390956681</ele>
        <time>2020-11-25T14:42:17.000+01:00</time>
      </trkpt>
      <trkpt lat="43.68638" lon="4.07248">
        <ele>96.687683880829</ele>
        <time>2020-11-25T14:42:18.000+01:00</time>
      </trkpt>
      <trkpt lat="43.68638" lon="4.0725">
        <ele>96.678075231318</ele>
        <time>2020-11-25T14:42:19.000+01:00</time>
      </trkpt>
      <trkpt lat="43.68639" lon="4.07251">
        <ele>96.668684499304</ele>
        <time>2020-11-25T14:42:20.000+01:00</time>
      </trkpt>
      <trkpt lat="43.6864" lon="4.07253">
        <ele>96.659355870979</ele>
        <time>2020-11-25T14:42:21.000+01:00</time>
      </trkpt>
      <trkpt lat="43.6864" lon="4.07254">
        <ele>96.650144669473</ele>
        <time>2020-11-25T14:42:22.000+01:00</time>
      </trkpt>
      <trkpt lat="43.68641" lon="4.07256">
        <ele>96.641011640108</ele>
        <time>2020-11-25T14:42:23.000+01:00</time>
      </trkpt>
      <trkpt lat="43.68641" lon="4.07257">
        <ele>96.63194280796</ele>
        <time>2020-11-25T14:42:24.000+01:00</time>
      </trkpt>
      <trkpt lat="43.68641" lon="4.07259">
        <ele>96.622577075117</ele>
        <time>2020-11-25T14:42:25.000+01:00</time>
      </trkpt>
      <trkpt lat="43.68641" lon="4.07261">
        <ele>96.61336559003</ele>
        <time>2020-11-25T14:42:26.000+01:00</time>
      </trkpt>
      <trkpt lat="43.68642" lon="4.07262">
        <ele>96.604301985962</ele>
        <time>2020-11-25T14:42:27.000+01:00</time>
      </trkpt>
      <trkpt lat="43.68642" lon="4.07264">
        <ele>96.595419354269</ele>
        <time>2020-11-25T14:42:28.000+01:00</time>
      </trkpt>
      <trkpt lat="43.68642" lon="4.07266">
        <ele>96.586740877578</ele>
        <time>2020-11-25T14:42:29.000+01:00</time>
      </trkpt>
      <trkpt lat="43.68643" lon="4.07267">
        <ele>96.578197711606</ele>
        <time>2020-11-25T14:42:30.000+01:00</time>
      </trkpt>
      <trkpt lat="43.68644" lon="4.07269">
        <ele>96.569802667318</ele>
        <time>2020-11-25T14:42:31.000+01:00</time>
      </trkpt>
      <trkpt lat="43.68644" lon="4.0727">
        <ele>96.5614468087</ele>
        <time>2020-11-25T14:42:32.000+01:00</time>
      </trkpt>
      <trkpt lat="43.68644" lon="4.07272">
        <ele>96.553124458899</ele>
        <time>2020-11-25T14:42:33.000+01:00</time>
      </trkpt>
      <trkpt lat="43.68644" lon="4.07273">
        <ele>96.544800887668</ele>
        <time>2020-11-25T14:42:34.000+01:00</time>
      </trkpt>
      <trkpt lat="43.68645" lon="4.07274">
        <ele>96.536463450866</ele>
        <time>2020-11-25T14:42:35.000+01:00</time>
      </trkpt>
      <trkpt lat="43.68645" lon="4.07276">
        <ele>96.528125119388</ele>
        <time>2020-11-25T14:42:36.000+01:00</time>
      </trkpt>
      <trkpt lat="43.68646" lon="4.07277">
        <ele>96.519788730617</ele>
        <time>2020-11-25T14:42:37.000+01:00</time>
      </trkpt>
      <trkpt lat="43.68646" lon="4.07278">
        <ele>96.511457633449</ele>
        <time>2020-11-25T14:42:38.000+01:00</time>
      </trkpt>
      <trkpt lat="43.68646" lon="4.07279">
        <ele>96.503113878624</ele>
        <time>2020-11-25T14:42:39.000+01:00</time>
      </trkpt>
      <trkpt lat="43.68647" lon="4.07281">
        <ele>96.494736188138</ele>
        <time>2020-11-25T14:42:40.000+01:00</time>
      </trkpt>
      <trkpt lat="43.68647" lon="4.07282">
        <ele>96.486337034158</ele>
        <time>2020-11-25T14:42:41.000+01:00</time>
      </trkpt>
      <trkpt lat="43.68648" lon="4.07284">
        <ele>96.477929658698</ele>
        <time>2020-11-25T14:42:42.000+01:00</time>
      </trkpt>
      <trkpt lat="43.68648" lon="4.07285">
        <ele>96.469473721302</ele>
        <time>2020-11-25T14:42:43.000+01:00</time>
      </trkpt>
      <trkpt lat="43.68648" lon="4.07286">
        <ele>96.461015838507</ele>
        <time>2020-11-25T14:42:44.000+01:00</time>
      </trkpt>
      <trkpt lat="43.68648" lon="4.07288">
        <ele>96.452498263405</ele>
        <time>2020-11-25T14:42:45.000+01:00</time>
      </trkpt>
      <trkpt lat="43.68648" lon="4.0729">
        <ele>96.443943178743</ele>
        <time>2020-11-25T14:42:46.000+01:00</time>
      </trkpt>
      <trkpt lat="43.68648" lon="4.07292">
        <ele>96.435283258925</ele>
        <time>2020-11-25T14:42:47.000+01:00</time>
      </trkpt>
      <trkpt lat="43.68647" lon="4.07293">
        <ele>96.426668474621</ele>
        <time>2020-11-25T14:42:48.000+01:00</time>
      </trkpt>
      <trkpt lat="43.68647" lon="4.07294">
        <ele>96.418042759623</ele>
        <time>2020-11-25T14:42:49.000+01:00</time>
      </trkpt>
      <trkpt lat="43.68646" lon="4.07295">
        <ele>96.408784043898</ele>
        <time>2020-11-25T14:42:50.000+01:00</time>
      </trkpt>
      <trkpt lat="43.68645" lon="4.07296">
        <ele>96.398962798917</ele>
        <time>2020-11-25T14:42:51.000+01:00</time>
      </trkpt>
      <trkpt lat="43.68644" lon="4.07298">
        <ele>96.389236073972</ele>
        <time>2020-11-25T14:42:52.000+01:00</time>
      </trkpt>
      <trkpt lat="43.68643" lon="4.07299">
        <ele>96.379609317024</ele>
        <time>2020-11-25T14:42:53.000+01:00</time>
      </trkpt>
      <trkpt lat="43.68642" lon="4.073">
        <ele>96.370036355865</ele>
        <time>2020-11-25T14:42:54.000+01:00</time>
      </trkpt>
      <trkpt lat="43.68641" lon="4.07302">
        <ele>96.360631642868</ele>
        <time>2020-11-25T14:42:55.000+01:00</time>
      </trkpt>
      <trkpt lat="43.68639" lon="4.07304">
        <ele>96.351335546391</ele>
        <time>2020-11-25T14:42:56.000+01:00</time>
      </trkpt>
      <trkpt lat="43.68638" lon="4.07305">
        <ele>96.342089207831</ele>
        <time>2020-11-25T14:42:57.000+01:00</time>
      </trkpt>
      <trkpt lat="43.68637" lon="4.07307">
        <ele>96.332866478765</ele>
        <time>2020-11-25T14:42:58.000+01:00</time>
      </trkpt>
      <trkpt lat="43.68636" lon="4.07308">
        <ele>96.323747139613</ele>
        <time>2020-11-25T14:42:59.000+01:00</time>
      </trkpt>
      <trkpt lat="43.68635" lon="4.07308">
        <ele>96.3146097954</ele>
        <time>2020-11-25T14:43:00.000+01:00</time>
      </trkpt>
      <trkpt lat="43.68634" lon="4.07308">
        <ele>96.304763516239</ele>
        <time>2020-11-25T14:43:01.000+01:00</time>
      </trkpt>
      <trkpt lat="43.68633" lon="4.07308">
        <ele>96.295007937278</ele>
        <time>2020-11-25T14:43:02.000+01:00</time>
      </trkpt>
      <trkpt lat="43.68632" lon="4.07309">
        <ele>96.285405089128</ele>
        <time>2020-11-25T14:43:03.000+01:00</time>
      </trkpt>
      <trkpt lat="43.68631" lon="4.07309">
        <ele>96.275837446383</ele>
        <time>2020-11-25T14:43:04.000+01:00</time>
      </trkpt>
      <trkpt lat="43.6863" lon="4.0731">
        <ele>96.266428889234</ele>
        <time>2020-11-25T14:43:05.000+01:00</time>
      </trkpt>
      <trkpt lat="43.68629" lon="4.0731">
        <ele>96.256967007143</ele>
        <time>2020-11-25T14:43:06.000+01:00</time>
      </trkpt>
      <trkpt lat="43.68628" lon="4.07311">
        <ele>96.247607332678</ele>
        <time>2020-11-25T14:43:07.000+01:00</time>
      </trkpt>
      <trkpt lat="43.68628" lon="4.07311">
        <ele>96.238410221302</ele>
        <time>2020-11-25T14:43:08.000+01:00</time>
      </trkpt>
      <trkpt lat="43.68627" lon="4.07311">
        <ele>96.228521931279</ele>
        <time>2020-11-25T14:43:09.000+01:00</time>
      </trkpt>
      <trkpt lat="43.68626" lon="4.07311">
        <ele>96.218646661682</ele>
        <time>2020-11-25T14:43:10.000+01:00</time>
      </trkpt>
      <trkpt lat="43.68625" lon="4.07311">
        <ele>96.208138986309</ele>
        <time>2020-11-25T14:43:11.000+01:00</time>
      </trkpt>
      <trkpt lat="43.68624" lon="4.07312">
        <ele>96.197037214515</ele>
        <time>2020-11-25T14:43:12.000+01:00</time>
      </trkpt>
      <trkpt lat="43.68623" lon="4.07313">
        <ele>96.186001714345</ele>
        <time>2020-11-25T14:43:13.000+01:00</time>
      </trkpt>
      <trkpt lat="43.68622" lon="4.07313">
        <ele>96.175017514111</ele>
        <time>2020-11-25T14:43:14.000+01:00</time>
      </trkpt>
      <trkpt lat="43.68621" lon="4.07313">
        <ele>96.164154720537</ele>
        <time>2020-11-25T14:43:15.000+01:00</time>
      </trkpt>
      <trkpt lat="43.68621" lon="4.07314">
        <ele>96.153377794764</ele>
        <time>2020-11-25T14:43:16.000+01:00</time>
      </trkpt>
      <trkpt lat="43.6862" lon="4.07314">
        <ele>96.142711506292</ele>
        <time>2020-11-25T14:43:17.000+01:00</time>
      </trkpt>
      <trkpt lat="43.68619" lon="4.07314">
        <ele>96.132151654601</ele>
        <time>2020-11-25T14:43:18.000+01:00</time>
      </trkpt>
      <trkpt lat="43.68618" lon="4.07315">
        <ele>96.121745664155</ele>
        <time>2020-11-25T14:43:19.000+01:00</time>
      </trkpt>
      <trkpt lat="43.68618" lon="4.07316">
        <ele>96.110579333965</ele>
        <time>2020-11-25T14:43:20.000+01:00</time>
      </trkpt>
      <trkpt lat="43.68617" lon="4.07316">
        <ele>96.099443602003</ele>
        <time>2020-11-25T14:43:21.000+01:00</time>
      </trkpt>
      <trkpt lat="43.68616" lon="4.07317">
        <ele>96.087679297422</ele>
        <time>2020-11-25T14:43:22.000+01:00</time>
      </trkpt>
      <trkpt lat="43.68615" lon="4.07318">
        <ele>96.075266849534</ele>
        <time>2020-11-25T14:43:23.000+01:00</time>
      </trkpt>
      <trkpt lat="43.68614" lon="4.07319">
        <ele>96.062352573359</ele>
        <time>2020-11-25T14:43:24.000+01:00</time>
      </trkpt>
      <trkpt lat="43.68613" lon="4.0732">
        <ele>96.049552266001</ele>
        <time>2020-11-25T14:43:25.000+01:00</time>
      </trkpt>
      <trkpt lat="43.68612" lon="4.07321">
        <ele>96.037022417444</ele>
        <time>2020-11-25T14:43:26.000+01:00</time>
      </trkpt>
      <trkpt lat="43.68611" lon="4.07322">
        <ele>96.024061732653</ele>
        <time>2020-11-25T14:43:27.000+01:00</time>
      </trkpt>
      <trkpt lat="43.6861" lon="4.07323">
        <ele>96.011246573412</ele>
        <time>2020-11-25T14:43:28.000+01:00</time>
      </trkpt>
      <trkpt lat="43.6861" lon="4.07324">
        <ele>95.998063121098</ele>
        <time>2020-11-25T14:43:29.000+01:00</time>
      </trkpt>
      <trkpt lat="43.68609" lon="4.07325">
        <ele>95.985122212396</ele>
        <time>2020-11-25T14:43:30.000+01:00</time>
      </trkpt>
      <trkpt lat="43.68609" lon="4.07326">
        <ele>95.972371124335</ele>
        <time>2020-11-25T14:43:31.000+01:00</time>
      </trkpt>
      <trkpt lat="43.68608" lon="4.07327">
        <ele>95.959809812123</ele>
        <time>2020-11-25T14:43:32.000+01:00</time>
      </trkpt>
      <trkpt lat="43.68607" lon="4.07328">
        <ele>95.947324959024</ele>
        <time>2020-11-25T14:43:33.000+01:00</time>
      </trkpt>
      <trkpt lat="43.68606" lon="4.07329">
        <ele>95.935030890002</ele>
        <time>2020-11-25T14:43:34.000+01:00</time>
      </trkpt>
      <trkpt lat="43.68606" lon="4.0733">
        <ele>95.922947708776</ele>
        <time>2020-11-25T14:43:35.000+01:00</time>
      </trkpt>
      <trkpt lat="43.68605" lon="4.07331">
        <ele>95.911024344243</ele>
        <time>2020-11-25T14:43:36.000+01:00</time>
      </trkpt>
      <trkpt lat="43.68604" lon="4.07332">
        <ele>95.898689059961</ele>
        <time>2020-11-25T14:43:37.000+01:00</time>
      </trkpt>
      <trkpt lat="43.68604" lon="4.07333">
        <ele>95.885977334789</ele>
        <time>2020-11-25T14:43:38.000+01:00</time>
      </trkpt>
      <trkpt lat="43.68603" lon="4.07334">
        <ele>95.873551442259</ele>
        <time>2020-11-25T14:43:39.000+01:00</time>
      </trkpt>
      <trkpt lat="43.68602" lon="4.07336">
        <ele>95.861293172676</ele>
        <time>2020-11-25T14:43:40.000+01:00</time>
      </trkpt>
      <trkpt lat="43.68601" lon="4.07337">
        <ele>95.849266976072</ele>
        <time>2020-11-25T14:43:41.000+01:00</time>
      </trkpt>
      <trkpt lat="43.68601" lon="4.07338">
        <ele>95.836925695638</ele>
        <time>2020-11-25T14:43:42.000+01:00</time>
      </trkpt>
      <trkpt lat="43.686" lon="4.07339">
        <ele>95.824909582989</ele>
        <time>2020-11-25T14:43:43.000+01:00</time>
      </trkpt>
      <trkpt lat="43.68599" lon="4.07341">
        <ele>95.813160237464</ele>
        <time>2020-11-25T14:43:44.000+01:00</time>
      </trkpt>
      <trkpt lat="43.68599" lon="4.07342">
        <ele>95.801043721458</ele>
        <time>2020-11-25T14:43:45.000+01:00</time>
      </trkpt>
      <trkpt lat="43.68598" lon="4.07344">
        <ele>95.789214615427</ele>
        <time>2020-11-25T14:43:46.000+01:00</time>
      </trkpt>
      <trkpt lat="43.68597" lon="4.07345">
        <ele>95.777615698792</ele>
        <time>2020-11-25T14:43:47.000+01:00</time>
      </trkpt>
      <trkpt lat="43.68597" lon="4.07346">
        <ele>95.766296655007</ele>
        <time>2020-11-25T14:43:48.000+01:00</time>
      </trkpt>
      <trkpt lat="43.68596" lon="4.07347">
        <ele>95.755213866855</ele>
        <time>2020-11-25T14:43:49.000+01:00</time>
      </trkpt>
      <trkpt lat="43.68595" lon="4.07349">
        <ele>95.744352393842</ele>
        <time>2020-11-25T14:43:50.000+01:00</time>
      </trkpt>
      <trkpt lat="43.68594" lon="4.0735">
        <ele>95.733696644674</ele>
        <time>2020-11-25T14:43:51.000+01:00</time>
      </trkpt>
      <trkpt lat="43.68594" lon="4.07351">
        <ele>95.723247078688</ele>
        <time>2020-11-25T14:43:52.000+01:00</time>
      </trkpt>
      <trkpt lat="43.68593" lon="4.07353">
        <ele>95.713030137846</ele>
        <time>2020-11-25T14:43:53.000+01:00</time>
      </trkpt>
      <trkpt lat="43.68592" lon="4.07354">
        <ele>95.703005653596</ele>
        <time>2020-11-25T14:43:54.000+01:00</time>
      </trkpt>
      <trkpt lat="43.68592" lon="4.07355">
        <ele>95.692618387143</ele>
        <time>2020-11-25T14:43:55.000+01:00</time>
      </trkpt>
      <trkpt lat="43.68591" lon="4.07356">
        <ele>95.682422532898</ele>
        <time>2020-11-25T14:43:56.000+01:00</time>
      </trkpt>
      <trkpt lat="43.6859" lon="4.07357">
        <ele>95.672473166727</ele>
        <time>2020-11-25T14:43:57.000+01:00</time>
      </trkpt>
      <trkpt lat="43.68589" lon="4.07358">
        <ele>95.662642501324</ele>
        <time>2020-11-25T14:43:58.000+01:00</time>
      </trkpt>
      <trkpt lat="43.68589" lon="4.0736">
        <ele>95.652367466395</ele>
        <time>2020-11-25T14:43:59.000+01:00</time>
      </trkpt>
      <trkpt lat="43.68588" lon="4.07361">
        <ele>95.642306796191</ele>
        <time>2020-11-25T14:44:00.000+01:00</time>
      </trkpt>
      <trkpt lat="43.68588" lon="4.07362">
        <ele>95.632448817081</ele>
        <time>2020-11-25T14:44:01.000+01:00</time>
      </trkpt>
      <trkpt lat="43.68587" lon="4.07362">
        <ele>95.622236508007</ele>
        <time>2020-11-25T14:44:02.000+01:00</time>
      </trkpt>
      <trkpt lat="43.68587" lon="4.07363">
        <ele>95.611812737979</ele>
        <time>2020-11-25T14:44:03.000+01:00</time>
      </trkpt>
      <trkpt lat="43.68586" lon="4.07364">
        <ele>95.601237045337</ele>
        <time>2020-11-25T14:44:04.000+01:00</time>
      </trkpt>
      <trkpt lat="43.68586" lon="4.07364">
        <ele>95.590472362257</ele>
        <time>2020-11-25T14:44:05.000+01:00</time>
      </trkpt>
      <trkpt lat="43.68585" lon="4.07365">
        <ele>95.579529466947</ele>
        <time>2020-11-25T14:44:06.000+01:00</time>
      </trkpt>
      <trkpt lat="43.68584" lon="4.07365">
        <ele>95.56864138315</ele>
        <time>2020-11-25T14:44:07.000+01:00</time>
      </trkpt>
      <trkpt lat="43.68584" lon="4.07366">
        <ele>95.557917389241</ele>
        <time>2020-11-25T14:44:08.000+01:00</time>
      </trkpt>
      <trkpt lat="43.68583" lon="4.07366">
        <ele>95.547414266903</ele>
        <time>2020-11-25T14:44:09.000+01:00</time>
      </trkpt>
      <trkpt lat="43.68582" lon="4.07367">
        <ele>95.53714271778</ele>
        <time>2020-11-25T14:44:10.000+01:00</time>
      </trkpt>
      <trkpt lat="43.6858" lon="4.07369">
        <ele>95.527058766182</ele>
        <time>2020-11-25T14:44:11.000+01:00</time>
      </trkpt>
      <trkpt lat="43.68579" lon="4.0737">
        <ele>95.517175624976</ele>
        <time>2020-11-25T14:44:12.000+01:00</time>
      </trkpt>
      <trkpt lat="43.68578" lon="4.07371">
        <ele>95.507505564369</ele>
        <time>2020-11-25T14:44:13.000+01:00</time>
      </trkpt>
      <trkpt lat="43.68579" lon="4.0737">
        <ele>95.412965230666</ele>
        <time>2020-11-25T14:44:14.000+01:00</time>
      </trkpt>
      <trkpt lat="43.68578" lon="4.07371">
        <ele>95.337598170961</ele>
        <time>2020-11-25T14:44:15.000+01:00</time>
      </trkpt>
      <trkpt lat="43.68576" lon="4.07372">
        <ele>95.331598014189</ele>
        <time>2020-11-25T14:44:16.000+01:00</time>
      </trkpt>
      <trkpt lat="43.68572" lon="4.07374">
        <ele>95.177023508978</ele>
        <time>2020-11-25T14:44:19.000+01:00</time>
      </trkpt>
      <trkpt lat="43.6857" lon="4.07373">
        <ele>95.231274829239</ele>
        <time>2020-11-25T14:44:20.000+01:00</time>
      </trkpt>
      <trkpt lat="43.68567" lon="4.07372">
        <ele>95.262294406597</ele>
        <time>2020-11-25T14:44:22.000+01:00</time>
      </trkpt>
      <trkpt lat="43.68564" lon="4.07367">
        <ele>94.903055925241</ele>
        <time>2020-11-25T14:44:23.000+01:00</time>
      </trkpt>
      <trkpt lat="43.68565" lon="4.0737">
        <ele>94.973529837707</ele>
        <time>2020-11-25T14:44:24.000+01:00</time>
      </trkpt>
      <trkpt lat="43.68564" lon="4.07369">
        <ele>94.883103245772</ele>
        <time>2020-11-25T14:44:25.000+01:00</time>
      </trkpt>
      <trkpt lat="43.68566" lon="4.07375">
        <ele>94.466031352829</ele>
        <time>2020-11-25T14:44:26.000+01:00</time>
      </trkpt>
      <trkpt lat="43.68568" lon="4.07385">
        <ele>95.225071657221</ele>
        <time>2020-11-25T14:44:30.000+01:00</time>
      </trkpt>
      <trkpt lat="43.68565" lon="4.07387">
        <ele>95.192046841278</ele>
        <time>2020-11-25T14:44:31.000+01:00</time>
      </trkpt>
      <trkpt lat="43.68561" lon="4.07386">
        <ele>95.202957558889</ele>
        <time>2020-11-25T14:44:32.000+01:00</time>
      </trkpt>
      <trkpt lat="43.6856" lon="4.07388">
        <ele>95.194641327995</ele>
        <time>2020-11-25T14:44:33.000+01:00</time>
      </trkpt>
      <trkpt lat="43.68559" lon="4.0739">
        <ele>95.184161736271</ele>
        <time>2020-11-25T14:44:34.000+01:00</time>
      </trkpt>
      <trkpt lat="43.68558" lon="4.0739">
        <ele>95.19845617654</ele>
        <time>2020-11-25T14:44:35.000+01:00</time>
      </trkpt>
      <trkpt lat="43.68558" lon="4.07389">
        <ele>95.26659960633</ele>
        <time>2020-11-25T14:44:36.000+01:00</time>
      </trkpt>
      <trkpt lat="43.68559" lon="4.0739">
        <ele>95.319967426734</ele>
        <time>2020-11-25T14:44:37.000+01:00</time>
      </trkpt>
      <trkpt lat="43.68558" lon="4.07391">
        <ele>95.348906037434</ele>
        <time>2020-11-25T14:44:38.000+01:00</time>
      </trkpt>
      <trkpt lat="43.68556" lon="4.07391">
        <ele>95.353374378753</ele>
        <time>2020-11-25T14:44:39.000+01:00</time>
      </trkpt>
      <trkpt lat="43.68555" lon="4.07391">
        <ele>95.352054319036</ele>
        <time>2020-11-25T14:44:40.000+01:00</time>
      </trkpt>
      <trkpt lat="43.68554" lon="4.07391">
        <ele>95.343866710613</ele>
        <time>2020-11-25T14:44:41.000+01:00</time>
      </trkpt>
      <trkpt lat="43.68553" lon="4.07391">
        <ele>95.330359340929</ele>
        <time>2020-11-25T14:44:42.000+01:00</time>
      </trkpt>
      <trkpt lat="43.68552" lon="4.07391">
        <ele>95.302136126792</ele>
        <time>2020-11-25T14:44:43.000+01:00</time>
      </trkpt>
      <trkpt lat="43.68551" lon="4.07391">
        <ele>95.265621536992</ele>
        <time>2020-11-25T14:44:44.000+01:00</time>
      </trkpt>
      <trkpt lat="43.6855" lon="4.07391">
        <ele>95.217299533778</ele>
        <time>2020-11-25T14:44:45.000+01:00</time>
      </trkpt>
      <trkpt lat="43.6855" lon="4.07392">
        <ele>95.163451927266</ele>
        <time>2020-11-25T14:44:46.000+01:00</time>
      </trkpt>
      <trkpt lat="43.68549" lon="4.07393">
        <ele>95.104756365806</ele>
        <time>2020-11-25T14:44:47.000+01:00</time>
      </trkpt>
      <trkpt lat="43.68548" lon="4.07393">
        <ele>95.046575390904</ele>
        <time>2020-11-25T14:44:48.000+01:00</time>
      </trkpt>
      <trkpt lat="43.68547" lon="4.07394">
        <ele>94.988808230392</ele>
        <time>2020-11-25T14:44:49.000+01:00</time>
      </trkpt>
      <trkpt lat="43.68546" lon="4.07394">
        <ele>94.932696084858</ele>
        <time>2020-11-25T14:44:50.000+01:00</time>
      </trkpt>
      <trkpt lat="43.68545" lon="4.07394">
        <ele>94.872563945623</ele>
        <time>2020-11-25T14:44:51.000+01:00</time>
      </trkpt>
      <trkpt lat="43.68545" lon="4.07394">
        <ele>94.811985229322</ele>
        <time>2020-11-25T14:44:52.000+01:00</time>
      </trkpt>
      <trkpt lat="43.68544" lon="4.07395">
        <ele>94.751055080749</ele>
        <time>2020-11-25T14:44:53.000+01:00</time>
      </trkpt>
      <trkpt lat="43.68543" lon="4.07395">
        <ele>94.682016762622</ele>
        <time>2020-11-25T14:44:54.000+01:00</time>
      </trkpt>
      <trkpt lat="43.68542" lon="4.07395">
        <ele>94.614289769202</ele>
        <time>2020-11-25T14:44:55.000+01:00</time>
      </trkpt>
      <trkpt lat="43.6854" lon="4.07396">
        <ele>94.536937102513</ele>
        <time>2020-11-25T14:44:56.000+01:00</time>
      </trkpt>
      <trkpt lat="43.68539" lon="4.07396">
        <ele>94.457376755726</ele>
        <time>2020-11-25T14:44:57.000+01:00</time>
      </trkpt>
      <trkpt lat="43.68538" lon="4.07397">
        <ele>94.38095319879</ele>
        <time>2020-11-25T14:44:58.000+01:00</time>
      </trkpt>
      <trkpt lat="43.68537" lon="4.07397">
        <ele>94.300027392693</ele>
        <time>2020-11-25T14:44:59.000+01:00</time>
      </trkpt>
      <trkpt lat="43.68535" lon="4.07397">
        <ele>94.22131139924</ele>
        <time>2020-11-25T14:45:00.000+01:00</time>
      </trkpt>
      <trkpt lat="43.68534" lon="4.07398">
        <ele>94.138277707716</ele>
        <time>2020-11-25T14:45:01.000+01:00</time>
      </trkpt>
      <trkpt lat="43.68533" lon="4.07398">
        <ele>94.054430634121</ele>
        <time>2020-11-25T14:45:02.000+01:00</time>
      </trkpt>
      <trkpt lat="43.68531" lon="4.07399">
        <ele>93.969520731785</ele>
        <time>2020-11-25T14:45:03.000+01:00</time>
      </trkpt>
      <trkpt lat="43.6853" lon="4.074">
        <ele>93.881759742448</ele>
        <time>2020-11-25T14:45:04.000+01:00</time>
      </trkpt>
      <trkpt lat="43.68528" lon="4.07401">
        <ele>93.791509602053</ele>
        <time>2020-11-25T14:45:05.000+01:00</time>
      </trkpt>
      <trkpt lat="43.68527" lon="4.07401">
        <ele>93.70065127683</ele>
        <time>2020-11-25T14:45:06.000+01:00</time>
      </trkpt>
      <trkpt lat="43.68526" lon="4.07402">
        <ele>93.611322980865</ele>
        <time>2020-11-25T14:45:07.000+01:00</time>
      </trkpt>
      <trkpt lat="43.68525" lon="4.07402">
        <ele>93.521752772223</ele>
        <time>2020-11-25T14:45:08.000+01:00</time>
      </trkpt>
      <trkpt lat="43.68524" lon="4.07402">
        <ele>93.432542811314</ele>
        <time>2020-11-25T14:45:09.000+01:00</time>
      </trkpt>
      <trkpt lat="43.68523" lon="4.07402">
        <ele>93.343258751669</ele>
        <time>2020-11-25T14:45:10.000+01:00</time>
      </trkpt>
      <trkpt lat="43.68523" lon="4.07402">
        <ele>93.255663500817</ele>
        <time>2020-11-25T14:45:11.000+01:00</time>
      </trkpt>
      <trkpt lat="43.68522" lon="4.07402">
        <ele>93.167181680185</ele>
        <time>2020-11-25T14:45:12.000+01:00</time>
      </trkpt>
      <trkpt lat="43.68522" lon="4.07402">
        <ele>93.077143731893</ele>
        <time>2020-11-25T14:45:13.000+01:00</time>
      </trkpt>
      <trkpt lat="43.68521" lon="4.07402">
        <ele>92.986904658719</ele>
        <time>2020-11-25T14:45:14.000+01:00</time>
      </trkpt>
      <trkpt lat="43.68521" lon="4.07402">
        <ele>92.897051027251</ele>
        <time>2020-11-25T14:45:15.000+01:00</time>
      </trkpt>
      <trkpt lat="43.6852" lon="4.07402">
        <ele>92.808307993338</ele>
        <time>2020-11-25T14:45:16.000+01:00</time>
      </trkpt>
      <trkpt lat="43.68519" lon="4.07402">
        <ele>92.720159340999</ele>
        <time>2020-11-25T14:45:17.000+01:00</time>
      </trkpt>
      <trkpt lat="43.68518" lon="4.07402">
        <ele>92.633286203217</ele>
        <time>2020-11-25T14:45:18.000+01:00</time>
      </trkpt>
      <trkpt lat="43.68517" lon="4.07402">
        <ele>92.548087714122</ele>
        <time>2020-11-25T14:45:19.000+01:00</time>
      </trkpt>
      <trkpt lat="43.68516" lon="4.07402">
        <ele>92.46240581832</ele>
        <time>2020-11-25T14:45:20.000+01:00</time>
      </trkpt>
      <trkpt lat="43.68515" lon="4.07402">
        <ele>92.378452864954</ele>
        <time>2020-11-25T14:45:21.000+01:00</time>
      </trkpt>
      <trkpt lat="43.68513" lon="4.07402">
        <ele>92.295451017978</ele>
        <time>2020-11-25T14:45:22.000+01:00</time>
      </trkpt>
      <trkpt lat="43.68512" lon="4.07402">
        <ele>92.212942862332</ele>
        <time>2020-11-25T14:45:23.000+01:00</time>
      </trkpt>
      <trkpt lat="43.68511" lon="4.07403">
        <ele>92.131369725512</ele>
        <time>2020-11-25T14:45:24.000+01:00</time>
      </trkpt>
      <trkpt lat="43.68509" lon="4.07404">
        <ele>92.050421683406</ele>
        <time>2020-11-25T14:45:25.000+01:00</time>
      </trkpt>
      <trkpt lat="43.68508" lon="4.07404">
        <ele>91.971448297314</ele>
        <time>2020-11-25T14:45:26.000+01:00</time>
      </trkpt>
      <trkpt lat="43.68507" lon="4.07405">
        <ele>91.89462317095</ele>
        <time>2020-11-25T14:45:27.000+01:00</time>
      </trkpt>
      <trkpt lat="43.68505" lon="4.07406">
        <ele>91.819519192461</ele>
        <time>2020-11-25T14:45:28.000+01:00</time>
      </trkpt>
      <trkpt lat="43.68504" lon="4.07406">
        <ele>91.74629368917</ele>
        <time>2020-11-25T14:45:29.000+01:00</time>
      </trkpt>
      <trkpt lat="43.68503" lon="4.07407">
        <ele>91.674798227162</ele>
        <time>2020-11-25T14:45:30.000+01:00</time>
      </trkpt>
      <trkpt lat="43.68502" lon="4.07408">
        <ele>91.604983105625</ele>
        <time>2020-11-25T14:45:31.000+01:00</time>
      </trkpt>
      <trkpt lat="43.68501" lon="4.07408">
        <ele>91.536256466197</ele>
        <time>2020-11-25T14:45:32.000+01:00</time>
      </trkpt>
      <trkpt lat="43.68499" lon="4.07409">
        <ele>91.469239697532</ele>
        <time>2020-11-25T14:45:33.000+01:00</time>
      </trkpt>
      <trkpt lat="43.68498" lon="4.07409">
        <ele>91.403717279834</ele>
        <time>2020-11-25T14:45:34.000+01:00</time>
      </trkpt>
      <trkpt lat="43.68497" lon="4.07409">
        <ele>91.338977197612</ele>
        <time>2020-11-25T14:45:35.000+01:00</time>
      </trkpt>
      <trkpt lat="43.68496" lon="4.0741">
        <ele>91.275730759615</ele>
        <time>2020-11-25T14:45:36.000+01:00</time>
      </trkpt>
      <trkpt lat="43.68495" lon="4.0741">
        <ele>91.213358497088</ele>
        <time>2020-11-25T14:45:37.000+01:00</time>
      </trkpt>
      <trkpt lat="43.68494" lon="4.07411">
        <ele>91.152002481086</ele>
        <time>2020-11-25T14:45:38.000+01:00</time>
      </trkpt>
      <trkpt lat="43.68492" lon="4.07412">
        <ele>91.091166147355</ele>
        <time>2020-11-25T14:45:39.000+01:00</time>
      </trkpt>
      <trkpt lat="43.68491" lon="4.07412">
        <ele>91.031205551645</ele>
        <time>2020-11-25T14:45:40.000+01:00</time>
      </trkpt>
      <trkpt lat="43.6849" lon="4.07413">
        <ele>90.972686745472</ele>
        <time>2020-11-25T14:45:41.000+01:00</time>
      </trkpt>
      <trkpt lat="43.68489" lon="4.07413">
        <ele>90.915017804141</ele>
        <time>2020-11-25T14:45:42.000+01:00</time>
      </trkpt>
      <trkpt lat="43.68488" lon="4.07414">
        <ele>90.859024292442</ele>
        <time>2020-11-25T14:45:43.000+01:00</time>
      </trkpt>
      <trkpt lat="43.68487" lon="4.07414">
        <ele>90.803580313715</ele>
        <time>2020-11-25T14:45:44.000+01:00</time>
      </trkpt>
      <trkpt lat="43.68486" lon="4.07415">
        <ele>90.748639423669</ele>
        <time>2020-11-25T14:45:45.000+01:00</time>
      </trkpt>
      <trkpt lat="43.68484" lon="4.07415">
        <ele>90.694236512932</ele>
        <time>2020-11-25T14:45:46.000+01:00</time>
      </trkpt>
      <trkpt lat="43.68483" lon="4.07416">
        <ele>90.640490861221</ele>
        <time>2020-11-25T14:45:47.000+01:00</time>
      </trkpt>
      <trkpt lat="43.68482" lon="4.07417">
        <ele>90.587152246315</ele>
        <time>2020-11-25T14:45:48.000+01:00</time>
      </trkpt>
      <trkpt lat="43.68481" lon="4.07417">
        <ele>90.535449627036</ele>
        <time>2020-11-25T14:45:49.000+01:00</time>
      </trkpt>
      <trkpt lat="43.6848" lon="4.07418">
        <ele>90.484226577326</ele>
        <time>2020-11-25T14:45:50.000+01:00</time>
      </trkpt>
      <trkpt lat="43.68479" lon="4.07418">
        <ele>90.433550592703</ele>
        <time>2020-11-25T14:45:51.000+01:00</time>
      </trkpt>
      <trkpt lat="43.68478" lon="4.07419">
        <ele>90.383017961973</ele>
        <time>2020-11-25T14:45:52.000+01:00</time>
      </trkpt>
      <trkpt lat="43.68477" lon="4.07419">
        <ele>90.333652108765</ele>
        <time>2020-11-25T14:45:53.000+01:00</time>
      </trkpt>
      <trkpt lat="43.68476" lon="4.0742">
        <ele>90.284519638078</ele>
        <time>2020-11-25T14:45:54.000+01:00</time>
      </trkpt>
      <trkpt lat="43.68475" lon="4.07421">
        <ele>90.235714504747</ele>
        <time>2020-11-25T14:45:55.000+01:00</time>
      </trkpt>
      <trkpt lat="43.68474" lon="4.07421">
        <ele>90.187190622934</ele>
        <time>2020-11-25T14:45:56.000+01:00</time>
      </trkpt>
      <trkpt lat="43.68472" lon="4.07422">
        <ele>90.139309357441</ele>
        <time>2020-11-25T14:45:57.000+01:00</time>
      </trkpt>
      <trkpt lat="43.68471" lon="4.07422">
        <ele>90.092544437628</ele>
        <time>2020-11-25T14:45:58.000+01:00</time>
      </trkpt>
      <trkpt lat="43.6847" lon="4.07423">
        <ele>90.045669778097</ele>
        <time>2020-11-25T14:45:59.000+01:00</time>
      </trkpt>
      <trkpt lat="43.68469" lon="4.07423">
        <ele>89.999675713197</ele>
        <time>2020-11-25T14:46:00.000+01:00</time>
      </trkpt>
      <trkpt lat="43.68468" lon="4.07424">
        <ele>89.954796621173</ele>
        <time>2020-11-25T14:46:01.000+01:00</time>
      </trkpt>
      <trkpt lat="43.68467" lon="4.07425">
        <ele>89.909756070381</ele>
        <time>2020-11-25T14:46:02.000+01:00</time>
      </trkpt>
      <trkpt lat="43.68466" lon="4.07425">
        <ele>89.864691133675</ele>
        <time>2020-11-25T14:46:03.000+01:00</time>
      </trkpt>
      <trkpt lat="43.68465" lon="4.07426">
        <ele>89.81959824357</ele>
        <time>2020-11-25T14:46:04.000+01:00</time>
      </trkpt>
      <trkpt lat="43.68464" lon="4.07426">
        <ele>89.775751064021</ele>
        <time>2020-11-25T14:46:05.000+01:00</time>
      </trkpt>
      <trkpt lat="43.68462" lon="4.07427">
        <ele>89.733128630808</ele>
        <time>2020-11-25T14:46:06.000+01:00</time>
      </trkpt>
      <trkpt lat="43.68461" lon="4.07428">
        <ele>89.690552748726</ele>
        <time>2020-11-25T14:46:07.000+01:00</time>
      </trkpt>
      <trkpt lat="43.6846" lon="4.07429">
        <ele>89.6478871335</ele>
        <time>2020-11-25T14:46:08.000+01:00</time>
      </trkpt>
      <trkpt lat="43.68459" lon="4.07429">
        <ele>89.60636453342</ele>
        <time>2020-11-25T14:46:09.000+01:00</time>
      </trkpt>
      <trkpt lat="43.68458" lon="4.0743">
        <ele>89.565063999432</ele>
        <time>2020-11-25T14:46:10.000+01:00</time>
      </trkpt>
      <trkpt lat="43.68457" lon="4.07431">
        <ele>89.524383255357</ele>
        <time>2020-11-25T14:46:11.000+01:00</time>
      </trkpt>
      <trkpt lat="43.68456" lon="4.07431">
        <ele>89.484225627785</ele>
        <time>2020-11-25T14:46:12.000+01:00</time>
      </trkpt>
      <trkpt lat="43.68455" lon="4.07432">
        <ele>89.44471504335</ele>
        <time>2020-11-25T14:46:13.000+01:00</time>
      </trkpt>
      <trkpt lat="43.68454" lon="4.07433">
        <ele>89.406197130771</ele>
        <time>2020-11-25T14:46:14.000+01:00</time>
      </trkpt>
      <trkpt lat="43.68453" lon="4.07433">
        <ele>89.368190754986</ele>
        <time>2020-11-25T14:46:15.000+01:00</time>
      </trkpt>
      <trkpt lat="43.68452" lon="4.07434">
        <ele>89.330311662298</ele>
        <time>2020-11-25T14:46:16.000+01:00</time>
      </trkpt>
      <trkpt lat="43.6845" lon="4.07434">
        <ele>89.293212616711</ele>
        <time>2020-11-25T14:46:17.000+01:00</time>
      </trkpt>
      <trkpt lat="43.68449" lon="4.07435">
        <ele>89.25619349587</ele>
        <time>2020-11-25T14:46:18.000+01:00</time>
      </trkpt>
      <trkpt lat="43.68448" lon="4.07435">
        <ele>89.220154817041</ele>
        <time>2020-11-25T14:46:19.000+01:00</time>
      </trkpt>
      <trkpt lat="43.68447" lon="4.07435">
        <ele>89.185458206972</ele>
        <time>2020-11-25T14:46:20.000+01:00</time>
      </trkpt>
      <trkpt lat="43.68445" lon="4.07435">
        <ele>89.151655125913</ele>
        <time>2020-11-25T14:46:21.000+01:00</time>
      </trkpt>
      <trkpt lat="43.68444" lon="4.07435">
        <ele>89.118449448609</ele>
        <time>2020-11-25T14:46:22.000+01:00</time>
      </trkpt>
      <trkpt lat="43.68443" lon="4.07436">
        <ele>89.085468853522</ele>
        <time>2020-11-25T14:46:23.000+01:00</time>
      </trkpt>
      <trkpt lat="43.68442" lon="4.07436">
        <ele>89.052450286719</ele>
        <time>2020-11-25T14:46:24.000+01:00</time>
      </trkpt>
      <trkpt lat="43.68441" lon="4.07436">
        <ele>89.01980580125</ele>
        <time>2020-11-25T14:46:25.000+01:00</time>
      </trkpt>
      <trkpt lat="43.6844" lon="4.07437">
        <ele>88.987214974132</ele>
        <time>2020-11-25T14:46:26.000+01:00</time>
      </trkpt>
      <trkpt lat="43.6844" lon="4.07438">
        <ele>88.953632477093</ele>
        <time>2020-11-25T14:46:27.000+01:00</time>
      </trkpt>
      <trkpt lat="43.68438" lon="4.07438">
        <ele>88.921156020361</ele>
        <time>2020-11-25T14:46:28.000+01:00</time>
      </trkpt>
      <trkpt lat="43.68437" lon="4.07438">
        <ele>88.888656743755</ele>
        <time>2020-11-25T14:46:29.000+01:00</time>
      </trkpt>
      <trkpt lat="43.68436" lon="4.07439">
        <ele>88.856915577061</ele>
        <time>2020-11-25T14:46:30.000+01:00</time>
      </trkpt>
      <trkpt lat="43.68435" lon="4.07439">
        <ele>88.825117720765</ele>
        <time>2020-11-25T14:46:31.000+01:00</time>
      </trkpt>
      <trkpt lat="43.68434" lon="4.0744">
        <ele>88.793542309462</ele>
        <time>2020-11-25T14:46:32.000+01:00</time>
      </trkpt>
      <trkpt lat="43.68433" lon="4.0744">
        <ele>88.761611111502</ele>
        <time>2020-11-25T14:46:33.000+01:00</time>
      </trkpt>
      <trkpt lat="43.68431" lon="4.0744">
        <ele>88.72982522511</ele>
        <time>2020-11-25T14:46:34.000+01:00</time>
      </trkpt>
      <trkpt lat="43.6843" lon="4.0744">
        <ele>88.698253546492</ele>
        <time>2020-11-25T14:46:35.000+01:00</time>
      </trkpt>
      <trkpt lat="43.68429" lon="4.0744">
        <ele>88.667496364408</ele>
        <time>2020-11-25T14:46:36.000+01:00</time>
      </trkpt>
      <trkpt lat="43.68428" lon="4.0744">
        <ele>88.636820553731</ele>
        <time>2020-11-25T14:46:37.000+01:00</time>
      </trkpt>
      <trkpt lat="43.68427" lon="4.0744">
        <ele>88.60645537671</ele>
        <time>2020-11-25T14:46:38.000+01:00</time>
      </trkpt>
      <trkpt lat="43.68425" lon="4.07441">
        <ele>88.576219469338</ele>
        <time>2020-11-25T14:46:39.000+01:00</time>
      </trkpt>
      <trkpt lat="43.68425" lon="4.07441">
        <ele>88.546128252998</ele>
        <time>2020-11-25T14:46:40.000+01:00</time>
      </trkpt>
      <trkpt lat="43.68424" lon="4.07441">
        <ele>88.516535619782</ele>
        <time>2020-11-25T14:46:41.000+01:00</time>
      </trkpt>
      <trkpt lat="43.68423" lon="4.07442">
        <ele>88.487362485498</ele>
        <time>2020-11-25T14:46:42.000+01:00</time>
      </trkpt>
      <trkpt lat="43.68422" lon="4.07442">
        <ele>88.458133859322</ele>
        <time>2020-11-25T14:46:43.000+01:00</time>
      </trkpt>
      <trkpt lat="43.68422" lon="4.07442">
        <ele>88.429182547184</ele>
        <time>2020-11-25T14:46:44.000+01:00</time>
      </trkpt>
      <trkpt lat="43.68421" lon="4.07442">
        <ele>88.400541868451</ele>
        <time>2020-11-25T14:46:45.000+01:00</time>
      </trkpt>
      <trkpt lat="43.6842" lon="4.07442">
        <ele>88.371950857557</ele>
        <time>2020-11-25T14:46:46.000+01:00</time>
      </trkpt>
      <trkpt lat="43.68419" lon="4.07442">
        <ele>88.343715889076</ele>
        <time>2020-11-25T14:46:47.000+01:00</time>
      </trkpt>
      <trkpt lat="43.68417" lon="4.07442">
        <ele>88.315889013533</ele>
        <time>2020-11-25T14:46:48.000+01:00</time>
      </trkpt>
      <trkpt lat="43.68416" lon="4.07442">
        <ele>88.288484863794</ele>
        <time>2020-11-25T14:46:49.000+01:00</time>
      </trkpt>
      <trkpt lat="43.68415" lon="4.07443">
        <ele>88.261828914049</ele>
        <time>2020-11-25T14:46:50.000+01:00</time>
      </trkpt>
      <trkpt lat="43.68413" lon="4.07443">
        <ele>88.235382629426</ele>
        <time>2020-11-25T14:46:51.000+01:00</time>
      </trkpt>
      <trkpt lat="43.68412" lon="4.07443">
        <ele>88.209764580294</ele>
        <time>2020-11-25T14:46:52.000+01:00</time>
      </trkpt>
      <trkpt lat="43.68411" lon="4.07443">
        <ele>88.18492958802</ele>
        <time>2020-11-25T14:46:53.000+01:00</time>
      </trkpt>
      <trkpt lat="43.6841" lon="4.07442">
        <ele>88.160088464205</ele>
        <time>2020-11-25T14:46:54.000+01:00</time>
      </trkpt>
      <trkpt lat="43.68409" lon="4.07442">
        <ele>88.135592472041</ele>
        <time>2020-11-25T14:46:55.000+01:00</time>
      </trkpt>
      <trkpt lat="43.68407" lon="4.07442">
        <ele>88.111722242434</ele>
        <time>2020-11-25T14:46:56.000+01:00</time>
      </trkpt>
      <trkpt lat="43.68406" lon="4.07442">
        <ele>88.088123862647</ele>
        <time>2020-11-25T14:46:57.000+01:00</time>
      </trkpt>
      <trkpt lat="43.68405" lon="4.07442">
        <ele>88.064740046756</ele>
        <time>2020-11-25T14:46:58.000+01:00</time>
      </trkpt>
      <trkpt lat="43.68404" lon="4.07442">
        <ele>88.0420503949</ele>
        <time>2020-11-25T14:46:59.000+01:00</time>
      </trkpt>
      <trkpt lat="43.68403" lon="4.07442">
        <ele>88.019836053778</ele>
        <time>2020-11-25T14:47:00.000+01:00</time>
      </trkpt>
      <trkpt lat="43.68402" lon="4.07441">
        <ele>87.998197217083</ele>
        <time>2020-11-25T14:47:01.000+01:00</time>
      </trkpt>
      <trkpt lat="43.68401" lon="4.07441">
        <ele>87.976913443516</ele>
        <time>2020-11-25T14:47:02.000+01:00</time>
      </trkpt>
      <trkpt lat="43.684" lon="4.0744">
        <ele>87.95657944297</ele>
        <time>2020-11-25T14:47:03.000+01:00</time>
      </trkpt>
      <trkpt lat="43.68399" lon="4.07439">
        <ele>87.936685050403</ele>
        <time>2020-11-25T14:47:04.000+01:00</time>
      </trkpt>
      <trkpt lat="43.68398" lon="4.07438">
        <ele>87.917394784023</ele>
        <time>2020-11-25T14:47:05.000+01:00</time>
      </trkpt>
      <trkpt lat="43.68397" lon="4.07436">
        <ele>87.898503214564</ele>
        <time>2020-11-25T14:47:06.000+01:00</time>
      </trkpt>
      <trkpt lat="43.68397" lon="4.07435">
        <ele>87.880229183597</ele>
        <time>2020-11-25T14:47:07.000+01:00</time>
      </trkpt>
      <trkpt lat="43.68396" lon="4.07433">
        <ele>87.862683906039</ele>
        <time>2020-11-25T14:47:08.000+01:00</time>
      </trkpt>
      <trkpt lat="43.68395" lon="4.07432">
        <ele>87.845933916364</ele>
        <time>2020-11-25T14:47:09.000+01:00</time>
      </trkpt>
      <trkpt lat="43.68395" lon="4.0743">
        <ele>87.830012278649</ele>
        <time>2020-11-25T14:47:10.000+01:00</time>
      </trkpt>
      <trkpt lat="43.68395" lon="4.07429">
        <ele>87.815041488069</ele>
        <time>2020-11-25T14:47:11.000+01:00</time>
      </trkpt>
      <trkpt lat="43.68394" lon="4.07427">
        <ele>87.800872357256</ele>
        <time>2020-11-25T14:47:12.000+01:00</time>
      </trkpt>
      <trkpt lat="43.68394" lon="4.07426">
        <ele>87.787583614049</ele>
        <time>2020-11-25T14:47:13.000+01:00</time>
      </trkpt>
      <trkpt lat="43.68394" lon="4.07424">
        <ele>87.775405720782</ele>
        <time>2020-11-25T14:47:14.000+01:00</time>
      </trkpt>
      <trkpt lat="43.68394" lon="4.07423">
        <ele>87.763971698552</ele>
        <time>2020-11-25T14:47:15.000+01:00</time>
      </trkpt>
      <trkpt lat="43.68393" lon="4.07422">
        <ele>87.753532479025</ele>
        <time>2020-11-25T14:47:16.000+01:00</time>
      </trkpt>
      <trkpt lat="43.68393" lon="4.0742">
        <ele>87.743965697544</ele>
        <time>2020-11-25T14:47:17.000+01:00</time>
      </trkpt>
      <trkpt lat="43.68393" lon="4.07418">
        <ele>87.735272314166</ele>
        <time>2020-11-25T14:47:18.000+01:00</time>
      </trkpt>
      <trkpt lat="43.68393" lon="4.07416">
        <ele>87.727352359008</ele>
        <time>2020-11-25T14:47:19.000+01:00</time>
      </trkpt>
      <trkpt lat="43.68392" lon="4.07415">
        <ele>87.720132083807</ele>
        <time>2020-11-25T14:47:20.000+01:00</time>
      </trkpt>
      <trkpt lat="43.68392" lon="4.07413">
        <ele>87.713944300567</ele>
        <time>2020-11-25T14:47:21.000+01:00</time>
      </trkpt>
      <trkpt lat="43.68391" lon="4.07411">
        <ele>87.708693830084</ele>
        <time>2020-11-25T14:47:22.000+01:00</time>
      </trkpt>
      <trkpt lat="43.68391" lon="4.0741">
        <ele>87.704201377101</ele>
        <time>2020-11-25T14:47:23.000+01:00</time>
      </trkpt>
      <trkpt lat="43.68391" lon="4.07408">
        <ele>87.700471596089</ele>
        <time>2020-11-25T14:47:24.000+01:00</time>
      </trkpt>
      <trkpt lat="43.6839" lon="4.07407">
        <ele>87.697587729294</ele>
        <time>2020-11-25T14:47:25.000+01:00</time>
      </trkpt>
      <trkpt lat="43.6839" lon="4.07405">
        <ele>87.695334288355</ele>
        <time>2020-11-25T14:47:26.000+01:00</time>
      </trkpt>
      <trkpt lat="43.6839" lon="4.07404">
        <ele>87.693281296535</ele>
        <time>2020-11-25T14:47:27.000+01:00</time>
      </trkpt>
      <trkpt lat="43.6839" lon="4.07403">
        <ele>87.691764454047</ele>
        <time>2020-11-25T14:47:28.000+01:00</time>
      </trkpt>
      <trkpt lat="43.6839" lon="4.07401">
        <ele>87.690628109677</ele>
        <time>2020-11-25T14:47:29.000+01:00</time>
      </trkpt>
      <trkpt lat="43.68389" lon="4.074">
        <ele>87.689947496481</ele>
        <time>2020-11-25T14:47:30.000+01:00</time>
      </trkpt>
      <trkpt lat="43.68389" lon="4.07398">
        <ele>87.689654627437</ele>
        <time>2020-11-25T14:47:31.000+01:00</time>
      </trkpt>
      <trkpt lat="43.68389" lon="4.07397">
        <ele>87.689919043846</ele>
        <time>2020-11-25T14:47:32.000+01:00</time>
      </trkpt>
      <trkpt lat="43.68388" lon="4.07395">
        <ele>87.690562557045</ele>
        <time>2020-11-25T14:47:33.000+01:00</time>
      </trkpt>
      <trkpt lat="43.68387" lon="4.07393">
        <ele>87.69229834198</ele>
        <time>2020-11-25T14:47:34.000+01:00</time>
      </trkpt>
      <trkpt lat="43.68387" lon="4.07391">
        <ele>87.694471325855</ele>
        <time>2020-11-25T14:47:35.000+01:00</time>
      </trkpt>
      <trkpt lat="43.68387" lon="4.07389">
        <ele>87.697040894434</ele>
        <time>2020-11-25T14:47:36.000+01:00</time>
      </trkpt>
      <trkpt lat="43.68387" lon="4.07388">
        <ele>87.700247834318</ele>
        <time>2020-11-25T14:47:37.000+01:00</time>
      </trkpt>
      <trkpt lat="43.68386" lon="4.07386">
        <ele>87.704075892712</ele>
        <time>2020-11-25T14:47:38.000+01:00</time>
      </trkpt>
      <trkpt lat="43.68386" lon="4.07384">
        <ele>87.708420341678</ele>
        <time>2020-11-25T14:47:39.000+01:00</time>
      </trkpt>
      <trkpt lat="43.68386" lon="4.07382">
        <ele>87.71301543834</ele>
        <time>2020-11-25T14:47:40.000+01:00</time>
      </trkpt>
      <trkpt lat="43.68385" lon="4.07381">
        <ele>87.718274769427</ele>
        <time>2020-11-25T14:47:41.000+01:00</time>
      </trkpt>
      <trkpt lat="43.68385" lon="4.07379">
        <ele>87.723815884899</ele>
        <time>2020-11-25T14:47:42.000+01:00</time>
      </trkpt>
      <trkpt lat="43.68385" lon="4.07378">
        <ele>87.729619914775</ele>
        <time>2020-11-25T14:47:43.000+01:00</time>
      </trkpt>
      <trkpt lat="43.68384" lon="4.07377">
        <ele>87.735667164431</ele>
        <time>2020-11-25T14:47:44.000+01:00</time>
      </trkpt>
      <trkpt lat="43.68384" lon="4.07375">
        <ele>87.742201513451</ele>
        <time>2020-11-25T14:47:45.000+01:00</time>
      </trkpt>
      <trkpt lat="43.68384" lon="4.07374">
        <ele>87.749213367638</ele>
        <time>2020-11-25T14:47:46.000+01:00</time>
      </trkpt>
      <trkpt lat="43.68383" lon="4.07373">
        <ele>87.756815112368</ele>
        <time>2020-11-25T14:47:47.000+01:00</time>
      </trkpt>
      <trkpt lat="43.68383" lon="4.07371">
        <ele>87.7649347313</ele>
        <time>2020-11-25T14:47:48.000+01:00</time>
      </trkpt>
      <trkpt lat="43.68383" lon="4.0737">
        <ele>87.773213859907</ele>
        <time>2020-11-25T14:47:49.000+01:00</time>
      </trkpt>
      <trkpt lat="43.68382" lon="4.07368">
        <ele>87.782009587635</ele>
        <time>2020-11-25T14:47:50.000+01:00</time>
      </trkpt>
      <trkpt lat="43.68382" lon="4.07367">
        <ele>87.791298941028</ele>
        <time>2020-11-25T14:47:51.000+01:00</time>
      </trkpt>
      <trkpt lat="43.68382" lon="4.07365">
        <ele>87.800829675036</ele>
        <time>2020-11-25T14:47:52.000+01:00</time>
      </trkpt>
      <trkpt lat="43.68382" lon="4.07363">
        <ele>87.810696061349</ele>
        <time>2020-11-25T14:47:53.000+01:00</time>
      </trkpt>
      <trkpt lat="43.68381" lon="4.07362">
        <ele>87.820883774592</ele>
        <time>2020-11-25T14:47:54.000+01:00</time>
      </trkpt>
      <trkpt lat="43.68381" lon="4.07361">
        <ele>87.831485013291</ele>
        <time>2020-11-25T14:47:55.000+01:00</time>
      </trkpt>
      <trkpt lat="43.68381" lon="4.0736">
        <ele>87.842586143922</ele>
        <time>2020-11-25T14:47:56.000+01:00</time>
      </trkpt>
      <trkpt lat="43.68381" lon="4.07358">
        <ele>87.854346636899</ele>
        <time>2020-11-25T14:47:57.000+01:00</time>
      </trkpt>
      <trkpt lat="43.6838" lon="4.07357">
        <ele>87.866609258558</ele>
        <time>2020-11-25T14:47:58.000+01:00</time>
      </trkpt>
      <trkpt lat="43.6838" lon="4.07356">
        <ele>87.879346036714</ele>
        <time>2020-11-25T14:47:59.000+01:00</time>
      </trkpt>
      <trkpt lat="43.68379" lon="4.07354">
        <ele>87.892466728988</ele>
        <time>2020-11-25T14:48:00.000+01:00</time>
      </trkpt>
      <trkpt lat="43.68379" lon="4.07353">
        <ele>87.90589821778</ele>
        <time>2020-11-25T14:48:01.000+01:00</time>
      </trkpt>
      <trkpt lat="43.68379" lon="4.07351">
        <ele>87.919461585044</ele>
        <time>2020-11-25T14:48:02.000+01:00</time>
      </trkpt>
      <trkpt lat="43.68378" lon="4.07349">
        <ele>87.933293442247</ele>
        <time>2020-11-25T14:48:03.000+01:00</time>
      </trkpt>
      <trkpt lat="43.68378" lon="4.07347">
        <ele>87.947586013087</ele>
        <time>2020-11-25T14:48:04.000+01:00</time>
      </trkpt>
      <trkpt lat="43.68378" lon="4.07346">
        <ele>87.962299325271</ele>
        <time>2020-11-25T14:48:05.000+01:00</time>
      </trkpt>
      <trkpt lat="43.68377" lon="4.07344">
        <ele>87.977343173374</ele>
        <time>2020-11-25T14:48:06.000+01:00</time>
      </trkpt>
      <trkpt lat="43.68377" lon="4.07343">
        <ele>87.992890455253</ele>
        <time>2020-11-25T14:48:07.000+01:00</time>
      </trkpt>
      <trkpt lat="43.68377" lon="4.07341">
        <ele>88.008582778914</ele>
        <time>2020-11-25T14:48:08.000+01:00</time>
      </trkpt>
      <trkpt lat="43.68377" lon="4.0734">
        <ele>88.024472411483</ele>
        <time>2020-11-25T14:48:09.000+01:00</time>
      </trkpt>
      <trkpt lat="43.68377" lon="4.07339">
        <ele>88.040828781813</ele>
        <time>2020-11-25T14:48:10.000+01:00</time>
      </trkpt>
      <trkpt lat="43.68376" lon="4.07337">
        <ele>88.057499312444</ele>
        <time>2020-11-25T14:48:11.000+01:00</time>
      </trkpt>
      <trkpt lat="43.68376" lon="4.07336">
        <ele>88.074414461877</ele>
        <time>2020-11-25T14:48:12.000+01:00</time>
      </trkpt>
      <trkpt lat="43.68376" lon="4.07335">
        <ele>88.091652959146</ele>
        <time>2020-11-25T14:48:13.000+01:00</time>
      </trkpt>
      <trkpt lat="43.68376" lon="4.07334">
        <ele>88.10930998095</ele>
        <time>2020-11-25T14:48:14.000+01:00</time>
      </trkpt>
      <trkpt lat="43.68376" lon="4.07332">
        <ele>88.127281688119</ele>
        <time>2020-11-25T14:48:15.000+01:00</time>
      </trkpt>
      <trkpt lat="43.68375" lon="4.0733">
        <ele>88.145181790051</ele>
        <time>2020-11-25T14:48:16.000+01:00</time>
      </trkpt>
      <trkpt lat="43.68375" lon="4.07329">
        <ele>88.163149909321</ele>
        <time>2020-11-25T14:48:17.000+01:00</time>
      </trkpt>
      <trkpt lat="43.68375" lon="4.07327">
        <ele>88.18113720875</ele>
        <time>2020-11-25T14:48:18.000+01:00</time>
      </trkpt>
      <trkpt lat="43.68374" lon="4.07326">
        <ele>88.19935775658</ele>
        <time>2020-11-25T14:48:19.000+01:00</time>
      </trkpt>
      <trkpt lat="43.68374" lon="4.07324">
        <ele>88.217331351115</ele>
        <time>2020-11-25T14:48:20.000+01:00</time>
      </trkpt>
      <trkpt lat="43.68373" lon="4.07323">
        <ele>88.235239058234</ele>
        <time>2020-11-25T14:48:21.000+01:00</time>
      </trkpt>
      <trkpt lat="43.68373" lon="4.07321">
        <ele>88.252905451633</ele>
        <time>2020-11-25T14:48:22.000+01:00</time>
      </trkpt>
      <trkpt lat="43.68372" lon="4.07319">
        <ele>88.270347653036</ele>
        <time>2020-11-25T14:48:23.000+01:00</time>
      </trkpt>
      <trkpt lat="43.68371" lon="4.07317">
        <ele>88.287482481808</ele>
        <time>2020-11-25T14:48:24.000+01:00</time>
      </trkpt>
      <trkpt lat="43.68371" lon="4.07316">
        <ele>88.304313155227</ele>
        <time>2020-11-25T14:48:25.000+01:00</time>
      </trkpt>
      <trkpt lat="43.6837" lon="4.07315">
        <ele>88.321040572328</ele>
        <time>2020-11-25T14:48:26.000+01:00</time>
      </trkpt>
      <trkpt lat="43.68369" lon="4.07313">
        <ele>88.337504201218</ele>
        <time>2020-11-25T14:48:27.000+01:00</time>
      </trkpt>
      <trkpt lat="43.68369" lon="4.07312">
        <ele>88.353717619663</ele>
        <time>2020-11-25T14:48:28.000+01:00</time>
      </trkpt>
      <trkpt lat="43.68368" lon="4.07311">
        <ele>88.369818193013</ele>
        <time>2020-11-25T14:48:29.000+01:00</time>
      </trkpt>
      <trkpt lat="43.68367" lon="4.07309">
        <ele>88.385417116023</ele>
        <time>2020-11-25T14:48:30.000+01:00</time>
      </trkpt>
      <trkpt lat="43.68367" lon="4.07308">
        <ele>88.400906045298</ele>
        <time>2020-11-25T14:48:31.000+01:00</time>
      </trkpt>
      <trkpt lat="43.68367" lon="4.07306">
        <ele>88.416092670208</ele>
        <time>2020-11-25T14:48:32.000+01:00</time>
      </trkpt>
      <trkpt lat="43.68366" lon="4.07304">
        <ele>88.431095534914</ele>
        <time>2020-11-25T14:48:33.000+01:00</time>
      </trkpt>
      <trkpt lat="43.68366" lon="4.07302">
        <ele>88.445982715481</ele>
        <time>2020-11-25T14:48:34.000+01:00</time>
      </trkpt>
      <trkpt lat="43.68366" lon="4.07301">
        <ele>88.460758768428</ele>
        <time>2020-11-25T14:48:35.000+01:00</time>
      </trkpt>
      <trkpt lat="43.68366" lon="4.073">
        <ele>88.475064027639</ele>
        <time>2020-11-25T14:48:36.000+01:00</time>
      </trkpt>
      <trkpt lat="43.68366" lon="4.07298">
        <ele>88.489154774398</ele>
        <time>2020-11-25T14:48:37.000+01:00</time>
      </trkpt>
      <trkpt lat="43.68365" lon="4.07296">
        <ele>88.503182152019</ele>
        <time>2020-11-25T14:48:38.000+01:00</time>
      </trkpt>
      <trkpt lat="43.68365" lon="4.07294">
        <ele>88.517351786027</ele>
        <time>2020-11-25T14:48:39.000+01:00</time>
      </trkpt>
      <trkpt lat="43.68365" lon="4.07293">
        <ele>88.531340451064</ele>
        <time>2020-11-25T14:48:40.000+01:00</time>
      </trkpt>
      <trkpt lat="43.68365" lon="4.07292">
        <ele>88.545126230665</ele>
        <time>2020-11-25T14:48:41.000+01:00</time>
      </trkpt>
      <trkpt lat="43.68364" lon="4.07291">
        <ele>88.558776386348</ele>
        <time>2020-11-25T14:48:42.000+01:00</time>
      </trkpt>
      <trkpt lat="43.68364" lon="4.07289">
        <ele>88.572363475587</ele>
        <time>2020-11-25T14:48:43.000+01:00</time>
      </trkpt>
      <trkpt lat="43.68364" lon="4.07288">
        <ele>88.586073538653</ele>
        <time>2020-11-25T14:48:44.000+01:00</time>
      </trkpt>
      <trkpt lat="43.68363" lon="4.07287">
        <ele>88.599952372816</ele>
        <time>2020-11-25T14:48:45.000+01:00</time>
      </trkpt>
      <trkpt lat="43.68363" lon="4.07286">
        <ele>88.613899454258</ele>
        <time>2020-11-25T14:48:46.000+01:00</time>
      </trkpt>
      <trkpt lat="43.68363" lon="4.07284">
        <ele>88.628030627436</ele>
        <time>2020-11-25T14:48:47.000+01:00</time>
      </trkpt>
      <trkpt lat="43.68363" lon="4.07283">
        <ele>88.642186588647</ele>
        <time>2020-11-25T14:48:48.000+01:00</time>
      </trkpt>
      <trkpt lat="43.68362" lon="4.07281">
        <ele>88.656178987608</ele>
        <time>2020-11-25T14:48:49.000+01:00</time>
      </trkpt>
      <trkpt lat="43.68362" lon="4.07278">
        <ele>88.670220369834</ele>
        <time>2020-11-25T14:48:50.000+01:00</time>
      </trkpt>
      <trkpt lat="43.68361" lon="4.07276">
        <ele>88.684594137027</ele>
        <time>2020-11-25T14:48:51.000+01:00</time>
      </trkpt>
      <trkpt lat="43.68361" lon="4.07275">
        <ele>88.698989413053</ele>
        <time>2020-11-25T14:48:52.000+01:00</time>
      </trkpt>
      <trkpt lat="43.68361" lon="4.07274">
        <ele>88.713778602723</ele>
        <time>2020-11-25T14:48:53.000+01:00</time>
      </trkpt>
      <trkpt lat="43.68361" lon="4.07273">
        <ele>88.728718735139</ele>
        <time>2020-11-25T14:48:54.000+01:00</time>
      </trkpt>
      <trkpt lat="43.68361" lon="4.07273">
        <ele>88.743852828931</ele>
        <time>2020-11-25T14:48:55.000+01:00</time>
      </trkpt>
      <trkpt lat="43.68362" lon="4.07272">
        <ele>88.759082185927</ele>
        <time>2020-11-25T14:48:56.000+01:00</time>
      </trkpt>
      <trkpt lat="43.68362" lon="4.07271">
        <ele>88.774554693078</ele>
        <time>2020-11-25T14:48:57.000+01:00</time>
      </trkpt>
      <trkpt lat="43.68362" lon="4.0727">
        <ele>88.790439151345</ele>
        <time>2020-11-25T14:48:58.000+01:00</time>
      </trkpt>
      <trkpt lat="43.68361" lon="4.07267">
        <ele>88.806537070034</ele>
        <time>2020-11-25T14:48:59.000+01:00</time>
      </trkpt>
      <trkpt lat="43.6836" lon="4.07264">
        <ele>88.822876673772</ele>
        <time>2020-11-25T14:49:00.000+01:00</time>
      </trkpt>
      <trkpt lat="43.6836" lon="4.07261">
        <ele>88.839294455697</ele>
        <time>2020-11-25T14:49:01.000+01:00</time>
      </trkpt>
      <trkpt lat="43.6836" lon="4.07257">
        <ele>88.855757891221</ele>
        <time>2020-11-25T14:49:02.000+01:00</time>
      </trkpt>
      <trkpt lat="43.68359" lon="4.07254">
        <ele>88.872454000172</ele>
        <time>2020-11-25T14:49:03.000+01:00</time>
      </trkpt>
      <trkpt lat="43.6836" lon="4.07253">
        <ele>88.888780534077</ele>
        <time>2020-11-25T14:49:04.000+01:00</time>
      </trkpt>
      <trkpt lat="43.6836" lon="4.07251">
        <ele>88.904643327731</ele>
        <time>2020-11-25T14:49:05.000+01:00</time>
      </trkpt>
      <trkpt lat="43.68361" lon="4.0725">
        <ele>88.92022130455</ele>
        <time>2020-11-25T14:49:06.000+01:00</time>
      </trkpt>
      <trkpt lat="43.68362" lon="4.07249">
        <ele>88.935527884153</ele>
        <time>2020-11-25T14:49:07.000+01:00</time>
      </trkpt>
      <trkpt lat="43.68362" lon="4.07248">
        <ele>88.950673627955</ele>
        <time>2020-11-25T14:49:08.000+01:00</time>
      </trkpt>
      <trkpt lat="43.68363" lon="4.07247">
        <ele>88.965190648756</ele>
        <time>2020-11-25T14:49:09.000+01:00</time>
      </trkpt>
      <trkpt lat="43.68364" lon="4.07246">
        <ele>88.979533512537</ele>
        <time>2020-11-25T14:49:10.000+01:00</time>
      </trkpt>
      <trkpt lat="43.68365" lon="4.07245">
        <ele>88.993488650924</ele>
        <time>2020-11-25T14:49:11.000+01:00</time>
      </trkpt>
      <trkpt lat="43.68366" lon="4.07244">
        <ele>89.006925759654</ele>
        <time>2020-11-25T14:49:12.000+01:00</time>
      </trkpt>
      <trkpt lat="43.68366" lon="4.07243">
        <ele>89.019877661844</ele>
        <time>2020-11-25T14:49:13.000+01:00</time>
      </trkpt>
      <trkpt lat="43.68367" lon="4.07243">
        <ele>89.032622777582</ele>
        <time>2020-11-25T14:49:14.000+01:00</time>
      </trkpt>
      <trkpt lat="43.68368" lon="4.07242">
        <ele>89.045111510833</ele>
        <time>2020-11-25T14:49:15.000+01:00</time>
      </trkpt>
      <trkpt lat="43.68369" lon="4.07241">
        <ele>89.057516579958</ele>
        <time>2020-11-25T14:49:16.000+01:00</time>
      </trkpt>
      <trkpt lat="43.6837" lon="4.0724">
        <ele>89.069771295189</ele>
        <time>2020-11-25T14:49:17.000+01:00</time>
      </trkpt>
      <trkpt lat="43.6837" lon="4.07239">
        <ele>89.081966187203</ele>
        <time>2020-11-25T14:49:18.000+01:00</time>
      </trkpt>
      <trkpt lat="43.68372" lon="4.07238">
        <ele>89.093929034533</ele>
        <time>2020-11-25T14:49:19.000+01:00</time>
      </trkpt>
      <trkpt lat="43.68373" lon="4.07238">
        <ele>89.105857103446</ele>
        <time>2020-11-25T14:49:20.000+01:00</time>
      </trkpt>
      <trkpt lat="43.68373" lon="4.07237">
        <ele>89.11760305612</ele>
        <time>2020-11-25T14:49:21.000+01:00</time>
      </trkpt>
      <trkpt lat="43.68374" lon="4.07236">
        <ele>89.12900209296</ele>
        <time>2020-11-25T14:49:22.000+01:00</time>
      </trkpt>
      <trkpt lat="43.68375" lon="4.07235">
        <ele>89.140585040808</ele>
        <time>2020-11-25T14:49:23.000+01:00</time>
      </trkpt>
      <trkpt lat="43.68375" lon="4.07235">
        <ele>89.152096688481</ele>
        <time>2020-11-25T14:49:24.000+01:00</time>
      </trkpt>
      <trkpt lat="43.68375" lon="4.07234">
        <ele>89.163178895892</ele>
        <time>2020-11-25T14:49:25.000+01:00</time>
      </trkpt>
      <trkpt lat="43.68375" lon="4.07233">
        <ele>89.17399436709</ele>
        <time>2020-11-25T14:49:26.000+01:00</time>
      </trkpt>
      <trkpt lat="43.68376" lon="4.07232">
        <ele>89.184687260721</ele>
        <time>2020-11-25T14:49:27.000+01:00</time>
      </trkpt>
      <trkpt lat="43.68377" lon="4.07232">
        <ele>89.195234959534</ele>
        <time>2020-11-25T14:49:28.000+01:00</time>
      </trkpt>
      <trkpt lat="43.68378" lon="4.0723">
        <ele>89.205554590124</ele>
        <time>2020-11-25T14:49:29.000+01:00</time>
      </trkpt>
      <trkpt lat="43.68379" lon="4.0723">
        <ele>89.215798981272</ele>
        <time>2020-11-25T14:49:30.000+01:00</time>
      </trkpt>
      <trkpt lat="43.68379" lon="4.07229">
        <ele>89.225918672375</ele>
        <time>2020-11-25T14:49:31.000+01:00</time>
      </trkpt>
      <trkpt lat="43.6838" lon="4.07228">
        <ele>89.236160745592</ele>
        <time>2020-11-25T14:49:32.000+01:00</time>
      </trkpt>
      <trkpt lat="43.68381" lon="4.07227">
        <ele>89.24648524054</ele>
        <time>2020-11-25T14:49:33.000+01:00</time>
      </trkpt>
      <trkpt lat="43.68381" lon="4.07226">
        <ele>89.25657770006</ele>
        <time>2020-11-25T14:49:34.000+01:00</time>
      </trkpt>
      <trkpt lat="43.68382" lon="4.07226">
        <ele>89.266630171698</ele>
        <time>2020-11-25T14:49:35.000+01:00</time>
      </trkpt>
      <trkpt lat="43.68382" lon="4.07225">
        <ele>89.27687648191</ele>
        <time>2020-11-25T14:49:36.000+01:00</time>
      </trkpt>
      <trkpt lat="43.68383" lon="4.07224">
        <ele>89.287484026159</ele>
        <time>2020-11-25T14:49:37.000+01:00</time>
      </trkpt>
      <trkpt lat="43.68384" lon="4.07223">
        <ele>89.299021430562</ele>
        <time>2020-11-25T14:49:38.000+01:00</time>
      </trkpt>
      <trkpt lat="43.68385" lon="4.07221">
        <ele>89.310751500945</ele>
        <time>2020-11-25T14:49:39.000+01:00</time>
      </trkpt>
      <trkpt lat="43.68385" lon="4.0722">
        <ele>89.322546869012</ele>
        <time>2020-11-25T14:49:40.000+01:00</time>
      </trkpt>
      <trkpt lat="43.68386" lon="4.07219">
        <ele>89.334420517233</ele>
        <time>2020-11-25T14:49:41.000+01:00</time>
      </trkpt>
      <trkpt lat="43.68386" lon="4.07219">
        <ele>89.346159752557</ele>
        <time>2020-11-25T14:49:42.000+01:00</time>
      </trkpt>
      <trkpt lat="43.68387" lon="4.07218">
        <ele>89.358085556832</ele>
        <time>2020-11-25T14:49:43.000+01:00</time>
      </trkpt>
      <trkpt lat="43.68388" lon="4.07216">
        <ele>89.370009824873</ele>
        <time>2020-11-25T14:49:44.000+01:00</time>
      </trkpt>
      <trkpt lat="43.68388" lon="4.07215">
        <ele>89.381795894251</ele>
        <time>2020-11-25T14:49:45.000+01:00</time>
      </trkpt>
      <trkpt lat="43.68389" lon="4.07214">
        <ele>89.393487127655</ele>
        <time>2020-11-25T14:49:46.000+01:00</time>
      </trkpt>
      <trkpt lat="43.68389" lon="4.07213">
        <ele>89.404969681889</ele>
        <time>2020-11-25T14:49:47.000+01:00</time>
      </trkpt>
      <trkpt lat="43.6839" lon="4.07212">
        <ele>89.416463113175</ele>
        <time>2020-11-25T14:49:48.000+01:00</time>
      </trkpt>
      <trkpt lat="43.6839" lon="4.07211">
        <ele>89.427965494297</ele>
        <time>2020-11-25T14:49:49.000+01:00</time>
      </trkpt>
      <trkpt lat="43.6839" lon="4.0721">
        <ele>89.439284223394</ele>
        <time>2020-11-25T14:49:50.000+01:00</time>
      </trkpt>
      <trkpt lat="43.68391" lon="4.07209">
        <ele>89.450563341896</ele>
        <time>2020-11-25T14:49:51.000+01:00</time>
      </trkpt>
      <trkpt lat="43.68391" lon="4.07208">
        <ele>89.461678668608</ele>
        <time>2020-11-25T14:49:52.000+01:00</time>
      </trkpt>
      <trkpt lat="43.68392" lon="4.07207">
        <ele>89.472679163461</ele>
        <time>2020-11-25T14:49:53.000+01:00</time>
      </trkpt>
      <trkpt lat="43.68393" lon="4.07205">
        <ele>89.483913264291</ele>
        <time>2020-11-25T14:49:54.000+01:00</time>
      </trkpt>
      <trkpt lat="43.68393" lon="4.07204">
        <ele>89.494736548692</ele>
        <time>2020-11-25T14:49:55.000+01:00</time>
      </trkpt>
      <trkpt lat="43.68395" lon="4.07202">
        <ele>89.507491157617</ele>
        <time>2020-11-25T14:49:56.000+01:00</time>
      </trkpt>
      <trkpt lat="43.68396" lon="4.07201">
        <ele>89.521751575719</ele>
        <time>2020-11-25T14:49:57.000+01:00</time>
      </trkpt>
      <trkpt lat="43.68397" lon="4.072">
        <ele>89.53747618075</ele>
        <time>2020-11-25T14:49:58.000+01:00</time>
      </trkpt>
      <trkpt lat="43.68397" lon="4.07198">
        <ele>89.553477753932</ele>
        <time>2020-11-25T14:49:59.000+01:00</time>
      </trkpt>
      <trkpt lat="43.68397" lon="4.07197">
        <ele>89.569546808932</ele>
        <time>2020-11-25T14:50:00.000+01:00</time>
      </trkpt>
      <trkpt lat="43.68397" lon="4.07195">
        <ele>89.585782353866</ele>
        <time>2020-11-25T14:50:01.000+01:00</time>
      </trkpt>
      <trkpt lat="43.68397" lon="4.07194">
        <ele>89.602246146778</ele>
        <time>2020-11-25T14:50:02.000+01:00</time>
      </trkpt>
      <trkpt lat="43.68397" lon="4.07192">
        <ele>89.618785888192</ele>
        <time>2020-11-25T14:50:03.000+01:00</time>
      </trkpt>
      <trkpt lat="43.68397" lon="4.0719">
        <ele>89.635427981814</ele>
        <time>2020-11-25T14:50:04.000+01:00</time>
      </trkpt>
      <trkpt lat="43.68398" lon="4.07188">
        <ele>89.652321144787</ele>
        <time>2020-11-25T14:50:05.000+01:00</time>
      </trkpt>
      <trkpt lat="43.68398" lon="4.07187">
        <ele>89.669389363649</ele>
        <time>2020-11-25T14:50:06.000+01:00</time>
      </trkpt>
      <trkpt lat="43.68398" lon="4.07185">
        <ele>89.686371356517</ele>
        <time>2020-11-25T14:50:07.000+01:00</time>
      </trkpt>
      <trkpt lat="43.68399" lon="4.07184">
        <ele>89.703630868407</ele>
        <time>2020-11-25T14:50:08.000+01:00</time>
      </trkpt>
      <trkpt lat="43.68399" lon="4.07183">
        <ele>89.721099622884</ele>
        <time>2020-11-25T14:50:09.000+01:00</time>
      </trkpt>
      <trkpt lat="43.68399" lon="4.07181">
        <ele>89.738718346228</ele>
        <time>2020-11-25T14:50:10.000+01:00</time>
      </trkpt>
      <trkpt lat="43.68399" lon="4.0718">
        <ele>89.75685545413</ele>
        <time>2020-11-25T14:50:11.000+01:00</time>
      </trkpt>
      <trkpt lat="43.684" lon="4.07179">
        <ele>89.776260267885</ele>
        <time>2020-11-25T14:50:12.000+01:00</time>
      </trkpt>
      <trkpt lat="43.684" lon="4.07178">
        <ele>89.796445279026</ele>
        <time>2020-11-25T14:50:13.000+01:00</time>
      </trkpt>
      <trkpt lat="43.684" lon="4.07177">
        <ele>89.817281853596</ele>
        <time>2020-11-25T14:50:14.000+01:00</time>
      </trkpt>
      <trkpt lat="43.68401" lon="4.07176">
        <ele>89.838724002023</ele>
        <time>2020-11-25T14:50:15.000+01:00</time>
      </trkpt>
      <trkpt lat="43.684" lon="4.07174">
        <ele>89.860299552896</ele>
        <time>2020-11-25T14:50:16.000+01:00</time>
      </trkpt>
      <trkpt lat="43.68399" lon="4.07173">
        <ele>89.881987942071</ele>
        <time>2020-11-25T14:50:17.000+01:00</time>
      </trkpt>
      <trkpt lat="43.68399" lon="4.07172">
        <ele>89.903631784258</ele>
        <time>2020-11-25T14:50:18.000+01:00</time>
      </trkpt>
      <trkpt lat="43.68398" lon="4.0717">
        <ele>89.925216337564</ele>
        <time>2020-11-25T14:50:19.000+01:00</time>
      </trkpt>
      <trkpt lat="43.68398" lon="4.07169">
        <ele>89.947246301229</ele>
        <time>2020-11-25T14:50:20.000+01:00</time>
      </trkpt>
      <trkpt lat="43.68398" lon="4.07168">
        <ele>89.969370628736</ele>
        <time>2020-11-25T14:50:21.000+01:00</time>
      </trkpt>
      <trkpt lat="43.68397" lon="4.07167">
        <ele>89.99167339341</ele>
        <time>2020-11-25T14:50:22.000+01:00</time>
      </trkpt>
      <trkpt lat="43.68396" lon="4.07165">
        <ele>90.014113788153</ele>
        <time>2020-11-25T14:50:23.000+01:00</time>
      </trkpt>
      <trkpt lat="43.68396" lon="4.07164">
        <ele>90.036637732398</ele>
        <time>2020-11-25T14:50:24.000+01:00</time>
      </trkpt>
      <trkpt lat="43.68395" lon="4.07163">
        <ele>90.059094430524</ele>
        <time>2020-11-25T14:50:25.000+01:00</time>
      </trkpt>
      <trkpt lat="43.68395" lon="4.07163">
        <ele>90.082294520964</ele>
        <time>2020-11-25T14:50:26.000+01:00</time>
      </trkpt>
      <trkpt lat="43.68394" lon="4.07162">
        <ele>90.105381882149</ele>
        <time>2020-11-25T14:50:27.000+01:00</time>
      </trkpt>
      <trkpt lat="43.68393" lon="4.07161">
        <ele>90.128590040392</ele>
        <time>2020-11-25T14:50:28.000+01:00</time>
      </trkpt>
      <trkpt lat="43.68392" lon="4.0716">
        <ele>90.151807661448</ele>
        <time>2020-11-25T14:50:29.000+01:00</time>
      </trkpt>
      <trkpt lat="43.68391" lon="4.0716">
        <ele>90.175868590434</ele>
        <time>2020-11-25T14:50:30.000+01:00</time>
      </trkpt>
      <trkpt lat="43.68391" lon="4.07159">
        <ele>90.200755868231</ele>
        <time>2020-11-25T14:50:31.000+01:00</time>
      </trkpt>
      <trkpt lat="43.6839" lon="4.07158">
        <ele>90.225850380375</ele>
        <time>2020-11-25T14:50:32.000+01:00</time>
      </trkpt>
      <trkpt lat="43.6839" lon="4.07157">
        <ele>90.251166208293</ele>
        <time>2020-11-25T14:50:33.000+01:00</time>
      </trkpt>
      <trkpt lat="43.68389" lon="4.07157">
        <ele>90.27722986715</ele>
        <time>2020-11-25T14:50:34.000+01:00</time>
      </trkpt>
      <trkpt lat="43.68389" lon="4.07157">
        <ele>90.303741811815</ele>
        <time>2020-11-25T14:50:35.000+01:00</time>
      </trkpt>
      <trkpt lat="43.68388" lon="4.07156">
        <ele>90.330650929804</ele>
        <time>2020-11-25T14:50:36.000+01:00</time>
      </trkpt>
      <trkpt lat="43.68387" lon="4.07156">
        <ele>90.358281636731</ele>
        <time>2020-11-25T14:50:37.000+01:00</time>
      </trkpt>
      <trkpt lat="43.68386" lon="4.07155">
        <ele>90.386096118106</ele>
        <time>2020-11-25T14:50:38.000+01:00</time>
      </trkpt>
      <trkpt lat="43.68385" lon="4.07154">
        <ele>90.414688000807</ele>
        <time>2020-11-25T14:50:39.000+01:00</time>
      </trkpt>
      <trkpt lat="43.68385" lon="4.07153">
        <ele>90.443440308441</ele>
        <time>2020-11-25T14:50:40.000+01:00</time>
      </trkpt>
      <trkpt lat="43.68384" lon="4.07153">
        <ele>90.472397724964</ele>
        <time>2020-11-25T14:50:41.000+01:00</time>
      </trkpt>
      <trkpt lat="43.68383" lon="4.07152">
        <ele>90.501798893982</ele>
        <time>2020-11-25T14:50:42.000+01:00</time>
      </trkpt>
      <trkpt lat="43.68383" lon="4.07151">
        <ele>90.531507746186</ele>
        <time>2020-11-25T14:50:43.000+01:00</time>
      </trkpt>
      <trkpt lat="43.68382" lon="4.07151">
        <ele>90.561547800997</ele>
        <time>2020-11-25T14:50:44.000+01:00</time>
      </trkpt>
      <trkpt lat="43.68381" lon="4.0715">
        <ele>90.591946010192</ele>
        <time>2020-11-25T14:50:45.000+01:00</time>
      </trkpt>
      <trkpt lat="43.68381" lon="4.0715">
        <ele>90.62269684001</ele>
        <time>2020-11-25T14:50:46.000+01:00</time>
      </trkpt>
      <trkpt lat="43.6838" lon="4.07149">
        <ele>90.653810736863</ele>
        <time>2020-11-25T14:50:47.000+01:00</time>
      </trkpt>
      <trkpt lat="43.6838" lon="4.07148">
        <ele>90.685738483128</ele>
        <time>2020-11-25T14:50:48.000+01:00</time>
      </trkpt>
      <trkpt lat="43.6838" lon="4.07147">
        <ele>90.717889892676</ele>
        <time>2020-11-25T14:50:49.000+01:00</time>
      </trkpt>
      <trkpt lat="43.6838" lon="4.07146">
        <ele>90.750334764073</ele>
        <time>2020-11-25T14:50:50.000+01:00</time>
      </trkpt>
      <trkpt lat="43.68379" lon="4.07146">
        <ele>90.783154908761</ele>
        <time>2020-11-25T14:50:51.000+01:00</time>
      </trkpt>
      <trkpt lat="43.68378" lon="4.07144">
        <ele>90.816136680037</ele>
        <time>2020-11-25T14:50:52.000+01:00</time>
      </trkpt>
      <trkpt lat="43.68378" lon="4.07142">
        <ele>90.84902401778</ele>
        <time>2020-11-25T14:50:53.000+01:00</time>
      </trkpt>
      <trkpt lat="43.68377" lon="4.07141">
        <ele>90.88215143556</ele>
        <time>2020-11-25T14:50:54.000+01:00</time>
      </trkpt>
      <trkpt lat="43.68376" lon="4.0714">
        <ele>90.915437774396</ele>
        <time>2020-11-25T14:50:55.000+01:00</time>
      </trkpt>
      <trkpt lat="43.68374" lon="4.07139">
        <ele>90.949083836273</ele>
        <time>2020-11-25T14:50:56.000+01:00</time>
      </trkpt>
      <trkpt lat="43.68373" lon="4.07138">
        <ele>90.982996832892</ele>
        <time>2020-11-25T14:50:57.000+01:00</time>
      </trkpt>
      <trkpt lat="43.68372" lon="4.07137">
        <ele>91.016946586595</ele>
        <time>2020-11-25T14:50:58.000+01:00</time>
      </trkpt>
      <trkpt lat="43.68371" lon="4.07137">
        <ele>91.050897425187</ele>
        <time>2020-11-25T14:50:59.000+01:00</time>
      </trkpt>
      <trkpt lat="43.68371" lon="4.07136">
        <ele>91.084811003733</ele>
        <time>2020-11-25T14:51:00.000+01:00</time>
      </trkpt>
      <trkpt lat="43.6837" lon="4.07135">
        <ele>91.118883109087</ele>
        <time>2020-11-25T14:51:01.000+01:00</time>
      </trkpt>
      <trkpt lat="43.68369" lon="4.07134">
        <ele>91.153242029386</ele>
        <time>2020-11-25T14:51:02.000+01:00</time>
      </trkpt>
      <trkpt lat="43.68367" lon="4.07133">
        <ele>91.187867685452</ele>
        <time>2020-11-25T14:51:03.000+01:00</time>
      </trkpt>
      <trkpt lat="43.68366" lon="4.07133">
        <ele>91.222674377185</ele>
        <time>2020-11-25T14:51:04.000+01:00</time>
      </trkpt>
      <trkpt lat="43.68365" lon="4.07132">
        <ele>91.257936486499</ele>
        <time>2020-11-25T14:51:05.000+01:00</time>
      </trkpt>
      <trkpt lat="43.68364" lon="4.07131">
        <ele>91.293578560014</ele>
        <time>2020-11-25T14:51:06.000+01:00</time>
      </trkpt>
      <trkpt lat="43.68363" lon="4.07129">
        <ele>91.330105789085</ele>
        <time>2020-11-25T14:51:07.000+01:00</time>
      </trkpt>
      <trkpt lat="43.68362" lon="4.07128">
        <ele>91.367226037477</ele>
        <time>2020-11-25T14:51:08.000+01:00</time>
      </trkpt>
      <trkpt lat="43.68362" lon="4.07127">
        <ele>91.404424095517</ele>
        <time>2020-11-25T14:51:09.000+01:00</time>
      </trkpt>
      <trkpt lat="43.6836" lon="4.07126">
        <ele>91.442265034142</ele>
        <time>2020-11-25T14:51:10.000+01:00</time>
      </trkpt>
      <trkpt lat="43.68359" lon="4.07125">
        <ele>91.480480247282</ele>
        <time>2020-11-25T14:51:11.000+01:00</time>
      </trkpt>
      <trkpt lat="43.68359" lon="4.07124">
        <ele>91.519034530778</ele>
        <time>2020-11-25T14:51:12.000+01:00</time>
      </trkpt>
      <trkpt lat="43.68358" lon="4.07122">
        <ele>91.557957626875</ele>
        <time>2020-11-25T14:51:13.000+01:00</time>
      </trkpt>
      <trkpt lat="43.68357" lon="4.07122">
        <ele>91.597118406723</ele>
        <time>2020-11-25T14:51:14.000+01:00</time>
      </trkpt>
      <trkpt lat="43.68356" lon="4.07121">
        <ele>91.636726535211</ele>
        <time>2020-11-25T14:51:15.000+01:00</time>
      </trkpt>
      <trkpt lat="43.68355" lon="4.0712">
        <ele>91.676770035284</ele>
        <time>2020-11-25T14:51:16.000+01:00</time>
      </trkpt>
      <trkpt lat="43.68354" lon="4.0712">
        <ele>91.717160642813</ele>
        <time>2020-11-25T14:51:17.000+01:00</time>
      </trkpt>
      <trkpt lat="43.68353" lon="4.07119">
        <ele>91.757930046591</ele>
        <time>2020-11-25T14:51:18.000+01:00</time>
      </trkpt>
      <trkpt lat="43.68352" lon="4.07119">
        <ele>91.799103794608</ele>
        <time>2020-11-25T14:51:19.000+01:00</time>
      </trkpt>
      <trkpt lat="43.6835" lon="4.07118">
        <ele>91.841002376514</ele>
        <time>2020-11-25T14:51:20.000+01:00</time>
      </trkpt>
      <trkpt lat="43.6835" lon="4.07117">
        <ele>91.883152386402</ele>
        <time>2020-11-25T14:51:21.000+01:00</time>
      </trkpt>
      <trkpt lat="43.68349" lon="4.07116">
        <ele>91.92560679411</ele>
        <time>2020-11-25T14:51:22.000+01:00</time>
      </trkpt>
      <trkpt lat="43.68348" lon="4.07116">
        <ele>91.968602541784</ele>
        <time>2020-11-25T14:51:23.000+01:00</time>
      </trkpt>
      <trkpt lat="43.68347" lon="4.07115">
        <ele>92.012201509973</ele>
        <time>2020-11-25T14:51:24.000+01:00</time>
      </trkpt>
      <trkpt lat="43.68346" lon="4.07115">
        <ele>92.056419085227</ele>
        <time>2020-11-25T14:51:25.000+01:00</time>
      </trkpt>
      <trkpt lat="43.68344" lon="4.07114">
        <ele>92.101085319449</ele>
        <time>2020-11-25T14:51:26.000+01:00</time>
      </trkpt>
      <trkpt lat="43.68344" lon="4.07114">
        <ele>92.145975868545</ele>
        <time>2020-11-25T14:51:27.000+01:00</time>
      </trkpt>
      <trkpt lat="43.68343" lon="4.07113">
        <ele>92.191087336866</ele>
        <time>2020-11-25T14:51:28.000+01:00</time>
      </trkpt>
      <trkpt lat="43.68342" lon="4.07113">
        <ele>92.2364905733</ele>
        <time>2020-11-25T14:51:29.000+01:00</time>
      </trkpt>
      <trkpt lat="43.68341" lon="4.07113">
        <ele>92.282103141357</ele>
        <time>2020-11-25T14:51:30.000+01:00</time>
      </trkpt>
      <trkpt lat="43.6834" lon="4.07112">
        <ele>92.327953186166</ele>
        <time>2020-11-25T14:51:31.000+01:00</time>
      </trkpt>
      <trkpt lat="43.68339" lon="4.07112">
        <ele>92.374095191579</ele>
        <time>2020-11-25T14:51:32.000+01:00</time>
      </trkpt>
      <trkpt lat="43.68338" lon="4.07112">
        <ele>92.420560346599</ele>
        <time>2020-11-25T14:51:33.000+01:00</time>
      </trkpt>
      <trkpt lat="43.68337" lon="4.07112">
        <ele>92.467434031983</ele>
        <time>2020-11-25T14:51:34.000+01:00</time>
      </trkpt>
      <trkpt lat="43.68336" lon="4.07112">
        <ele>92.51464699215</ele>
        <time>2020-11-25T14:51:35.000+01:00</time>
      </trkpt>
      <trkpt lat="43.68335" lon="4.07112">
        <ele>92.562154610439</ele>
        <time>2020-11-25T14:51:36.000+01:00</time>
      </trkpt>
      <trkpt lat="43.68334" lon="4.07113">
        <ele>92.60996435237</ele>
        <time>2020-11-25T14:51:37.000+01:00</time>
      </trkpt>
      <trkpt lat="43.68333" lon="4.07113">
        <ele>92.657669439421</ele>
        <time>2020-11-25T14:51:38.000+01:00</time>
      </trkpt>
      <trkpt lat="43.68332" lon="4.07113">
        <ele>92.704936021584</ele>
        <time>2020-11-25T14:51:39.000+01:00</time>
      </trkpt>
      <trkpt lat="43.68332" lon="4.07114">
        <ele>92.709637422664</ele>
        <time>2020-11-25T14:51:40.000+01:00</time>
      </trkpt>
      <trkpt lat="43.68332" lon="4.07114">
        <ele>92.714380676629</ele>
        <time>2020-11-25T14:51:41.000+01:00</time>
      </trkpt>
      <trkpt lat="43.68332" lon="4.07114">
        <ele>92.719153597088</ele>
        <time>2020-11-25T14:51:42.000+01:00</time>
      </trkpt>
      <trkpt lat="43.68332" lon="4.07114">
        <ele>92.723952277142</ele>
        <time>2020-11-25T14:51:43.000+01:00</time>
      </trkpt>
      <trkpt lat="43.68331" lon="4.07114">
        <ele>92.772532163983</ele>
        <time>2020-11-25T14:51:44.000+01:00</time>
      </trkpt>
      <trkpt lat="43.6833" lon="4.07115">
        <ele>92.820942428365</ele>
        <time>2020-11-25T14:51:45.000+01:00</time>
      </trkpt>
      <trkpt lat="43.68329" lon="4.07115">
        <ele>92.868801274614</ele>
        <time>2020-11-25T14:51:46.000+01:00</time>
      </trkpt>
      <trkpt lat="43.68329" lon="4.07115">
        <ele>92.916449671548</ele>
        <time>2020-11-25T14:51:47.000+01:00</time>
      </trkpt>
      <trkpt lat="43.68328" lon="4.07116">
        <ele>92.963712525664</ele>
        <time>2020-11-25T14:51:48.000+01:00</time>
      </trkpt>
      <trkpt lat="43.68327" lon="4.07116">
        <ele>93.010300232129</ele>
        <time>2020-11-25T14:51:49.000+01:00</time>
      </trkpt>
      <trkpt lat="43.68326" lon="4.07116">
        <ele>93.056327323725</ele>
        <time>2020-11-25T14:51:50.000+01:00</time>
      </trkpt>
      <trkpt lat="43.68325" lon="4.07117">
        <ele>93.101801563977</ele>
        <time>2020-11-25T14:51:51.000+01:00</time>
      </trkpt>
      <trkpt lat="43.68324" lon="4.07117">
        <ele>93.146867157311</ele>
        <time>2020-11-25T14:51:52.000+01:00</time>
      </trkpt>
      <trkpt lat="43.68323" lon="4.07118">
        <ele>93.191524064982</ele>
        <time>2020-11-25T14:51:53.000+01:00</time>
      </trkpt>
      <trkpt lat="43.68322" lon="4.07118">
        <ele>93.235601609271</ele>
        <time>2020-11-25T14:51:54.000+01:00</time>
      </trkpt>
      <trkpt lat="43.68321" lon="4.07119">
        <ele>93.279419296738</ele>
        <time>2020-11-25T14:51:55.000+01:00</time>
      </trkpt>
      <trkpt lat="43.68319" lon="4.07119">
        <ele>93.322814782746</ele>
        <time>2020-11-25T14:51:56.000+01:00</time>
      </trkpt>
      <trkpt lat="43.68318" lon="4.0712">
        <ele>93.366241735248</ele>
        <time>2020-11-25T14:51:57.000+01:00</time>
      </trkpt>
      <trkpt lat="43.68317" lon="4.0712">
        <ele>93.409802447148</ele>
        <time>2020-11-25T14:51:58.000+01:00</time>
      </trkpt>
      <trkpt lat="43.68316" lon="4.07121">
        <ele>93.452958533393</ele>
        <time>2020-11-25T14:51:59.000+01:00</time>
      </trkpt>
      <trkpt lat="43.68315" lon="4.07121">
        <ele>93.495580747397</ele>
        <time>2020-11-25T14:52:00.000+01:00</time>
      </trkpt>
      <trkpt lat="43.68313" lon="4.07122">
        <ele>93.537713600144</ele>
        <time>2020-11-25T14:52:01.000+01:00</time>
      </trkpt>
      <trkpt lat="43.68313" lon="4.07123">
        <ele>93.580011594007</ele>
        <time>2020-11-25T14:52:02.000+01:00</time>
      </trkpt>
      <trkpt lat="43.68313" lon="4.07123">
        <ele>93.622357462382</ele>
        <time>2020-11-25T14:52:03.000+01:00</time>
      </trkpt>
      <trkpt lat="43.68312" lon="4.07123">
        <ele>93.664673808913</ele>
        <time>2020-11-25T14:52:04.000+01:00</time>
      </trkpt>
      <trkpt lat="43.68312" lon="4.07124">
        <ele>93.70707301511</ele>
        <time>2020-11-25T14:52:05.000+01:00</time>
      </trkpt>
      <trkpt lat="43.68311" lon="4.07125">
        <ele>93.749361818244</ele>
        <time>2020-11-25T14:52:06.000+01:00</time>
      </trkpt>
      <trkpt lat="43.6831" lon="4.07125">
        <ele>93.791528157033</ele>
        <time>2020-11-25T14:52:07.000+01:00</time>
      </trkpt>
      <trkpt lat="43.68309" lon="4.07125">
        <ele>93.833478807661</ele>
        <time>2020-11-25T14:52:08.000+01:00</time>
      </trkpt>
      <trkpt lat="43.68308" lon="4.07125">
        <ele>93.875310174938</ele>
        <time>2020-11-25T14:52:09.000+01:00</time>
      </trkpt>
      <trkpt lat="43.68307" lon="4.07126">
        <ele>93.917155419569</ele>
        <time>2020-11-25T14:52:10.000+01:00</time>
      </trkpt>
      <trkpt lat="43.68305" lon="4.07126">
        <ele>93.959048236655</ele>
        <time>2020-11-25T14:52:11.000+01:00</time>
      </trkpt>
      <trkpt lat="43.68304" lon="4.07127">
        <ele>94.001126849348</ele>
        <time>2020-11-25T14:52:12.000+01:00</time>
      </trkpt>
      <trkpt lat="43.68302" lon="4.07127">
        <ele>94.043308254883</ele>
        <time>2020-11-25T14:52:13.000+01:00</time>
      </trkpt>
      <trkpt lat="43.68301" lon="4.07127">
        <ele>94.085637666156</ele>
        <time>2020-11-25T14:52:14.000+01:00</time>
      </trkpt>
      <trkpt lat="43.683" lon="4.07127">
        <ele>94.1283084511</ele>
        <time>2020-11-25T14:52:15.000+01:00</time>
      </trkpt>
      <trkpt lat="43.68299" lon="4.07128">
        <ele>94.171253121624</ele>
        <time>2020-11-25T14:52:16.000+01:00</time>
      </trkpt>
      <trkpt lat="43.68297" lon="4.07128">
        <ele>94.214366750769</ele>
        <time>2020-11-25T14:52:17.000+01:00</time>
      </trkpt>
      <trkpt lat="43.68295" lon="4.07128">
        <ele>94.25709969182</ele>
        <time>2020-11-25T14:52:18.000+01:00</time>
      </trkpt>
      <trkpt lat="43.68294" lon="4.07129">
        <ele>94.300077235223</ele>
        <time>2020-11-25T14:52:19.000+01:00</time>
      </trkpt>
      <trkpt lat="43.68293" lon="4.07129">
        <ele>94.343133601847</ele>
        <time>2020-11-25T14:52:20.000+01:00</time>
      </trkpt>
      <trkpt lat="43.68292" lon="4.0713">
        <ele>94.386341828139</ele>
        <time>2020-11-25T14:52:21.000+01:00</time>
      </trkpt>
      <trkpt lat="43.68291" lon="4.07131">
        <ele>94.429525433101</ele>
        <time>2020-11-25T14:52:22.000+01:00</time>
      </trkpt>
      <trkpt lat="43.6829" lon="4.07131">
        <ele>94.472690466124</ele>
        <time>2020-11-25T14:52:23.000+01:00</time>
      </trkpt>
      <trkpt lat="43.68289" lon="4.07132">
        <ele>94.515741983947</ele>
        <time>2020-11-25T14:52:24.000+01:00</time>
      </trkpt>
      <trkpt lat="43.68288" lon="4.07133">
        <ele>94.558679688718</ele>
        <time>2020-11-25T14:52:25.000+01:00</time>
      </trkpt>
      <trkpt lat="43.68287" lon="4.07133">
        <ele>94.601629725389</ele>
        <time>2020-11-25T14:52:26.000+01:00</time>
      </trkpt>
      <trkpt lat="43.68285" lon="4.07133">
        <ele>94.644541516605</ele>
        <time>2020-11-25T14:52:27.000+01:00</time>
      </trkpt>
      <trkpt lat="43.68284" lon="4.07133">
        <ele>94.687389618589</ele>
        <time>2020-11-25T14:52:28.000+01:00</time>
      </trkpt>
      <trkpt lat="43.68283" lon="4.07133">
        <ele>94.730208630548</ele>
        <time>2020-11-25T14:52:29.000+01:00</time>
      </trkpt>
      <trkpt lat="43.68282" lon="4.07134">
        <ele>94.772935021538</ele>
        <time>2020-11-25T14:52:30.000+01:00</time>
      </trkpt>
      <trkpt lat="43.68281" lon="4.07134">
        <ele>94.8156666814</ele>
        <time>2020-11-25T14:52:31.000+01:00</time>
      </trkpt>
      <trkpt lat="43.6828" lon="4.07134">
        <ele>94.858522697445</ele>
        <time>2020-11-25T14:52:32.000+01:00</time>
      </trkpt>
      <trkpt lat="43.68279" lon="4.07133">
        <ele>94.90139316295</ele>
        <time>2020-11-25T14:52:33.000+01:00</time>
      </trkpt>
      <trkpt lat="43.68278" lon="4.07133">
        <ele>94.944368724341</ele>
        <time>2020-11-25T14:52:34.000+01:00</time>
      </trkpt>
      <trkpt lat="43.68276" lon="4.07132">
        <ele>94.987059108444</ele>
        <time>2020-11-25T14:52:35.000+01:00</time>
      </trkpt>
      <trkpt lat="43.68275" lon="4.07132">
        <ele>95.030074865537</ele>
        <time>2020-11-25T14:52:36.000+01:00</time>
      </trkpt>
      <trkpt lat="43.68273" lon="4.07132">
        <ele>95.072695308443</ele>
        <time>2020-11-25T14:52:37.000+01:00</time>
      </trkpt>
      <trkpt lat="43.68273" lon="4.07133">
        <ele>95.115561818901</ele>
        <time>2020-11-25T14:52:38.000+01:00</time>
      </trkpt>
      <trkpt lat="43.68272" lon="4.07133">
        <ele>95.158401586024</ele>
        <time>2020-11-25T14:52:39.000+01:00</time>
      </trkpt>
      <trkpt lat="43.6827" lon="4.07134">
        <ele>95.20055493504</ele>
        <time>2020-11-25T14:52:40.000+01:00</time>
      </trkpt>
      <trkpt lat="43.6827" lon="4.07135">
        <ele>95.242759077688</ele>
        <time>2020-11-25T14:52:41.000+01:00</time>
      </trkpt>
      <trkpt lat="43.68269" lon="4.07136">
        <ele>95.28485921975</ele>
        <time>2020-11-25T14:52:42.000+01:00</time>
      </trkpt>
      <trkpt lat="43.68268" lon="4.07136">
        <ele>95.32672439159</ele>
        <time>2020-11-25T14:52:43.000+01:00</time>
      </trkpt>
      <trkpt lat="43.68267" lon="4.07137">
        <ele>95.368523956386</ele>
        <time>2020-11-25T14:52:44.000+01:00</time>
      </trkpt>
      <trkpt lat="43.68266" lon="4.07138">
        <ele>95.409745467354</ele>
        <time>2020-11-25T14:52:45.000+01:00</time>
      </trkpt>
      <trkpt lat="43.68264" lon="4.07138">
        <ele>95.45058679497</ele>
        <time>2020-11-25T14:52:46.000+01:00</time>
      </trkpt>
      <trkpt lat="43.68263" lon="4.07138">
        <ele>95.490989150192</ele>
        <time>2020-11-25T14:52:47.000+01:00</time>
      </trkpt>
      <trkpt lat="43.68261" lon="4.07138">
        <ele>95.531091840106</ele>
        <time>2020-11-25T14:52:48.000+01:00</time>
      </trkpt>
      <trkpt lat="43.6826" lon="4.07138">
        <ele>95.570987419132</ele>
        <time>2020-11-25T14:52:49.000+01:00</time>
      </trkpt>
      <trkpt lat="43.68258" lon="4.07138">
        <ele>95.610603530461</ele>
        <time>2020-11-25T14:52:50.000+01:00</time>
      </trkpt>
      <trkpt lat="43.68257" lon="4.07138">
        <ele>95.649977047544</ele>
        <time>2020-11-25T14:52:51.000+01:00</time>
      </trkpt>
      <trkpt lat="43.68255" lon="4.07137">
        <ele>95.689200935025</ele>
        <time>2020-11-25T14:52:52.000+01:00</time>
      </trkpt>
      <trkpt lat="43.68254" lon="4.07137">
        <ele>95.728299799416</ele>
        <time>2020-11-25T14:52:53.000+01:00</time>
      </trkpt>
      <trkpt lat="43.68253" lon="4.07137">
        <ele>95.767321563201</ele>
        <time>2020-11-25T14:52:54.000+01:00</time>
      </trkpt>
      <trkpt lat="43.68252" lon="4.07137">
        <ele>95.80596160776</ele>
        <time>2020-11-25T14:52:55.000+01:00</time>
      </trkpt>
      <trkpt lat="43.6825" lon="4.07137">
        <ele>95.844318433966</ele>
        <time>2020-11-25T14:52:56.000+01:00</time>
      </trkpt>
      <trkpt lat="43.68249" lon="4.07136">
        <ele>95.882222860594</ele>
        <time>2020-11-25T14:52:57.000+01:00</time>
      </trkpt>
      <trkpt lat="43.68249" lon="4.07136">
        <ele>95.920276476569</ele>
        <time>2020-11-25T14:52:58.000+01:00</time>
      </trkpt>
      <trkpt lat="43.68248" lon="4.07136">
        <ele>95.958498548525</ele>
        <time>2020-11-25T14:52:59.000+01:00</time>
      </trkpt>
      <trkpt lat="43.68247" lon="4.07137">
        <ele>95.996845824806</ele>
        <time>2020-11-25T14:53:00.000+01:00</time>
      </trkpt>
      <trkpt lat="43.68246" lon="4.07136">
        <ele>96.035463441574</ele>
        <time>2020-11-25T14:53:01.000+01:00</time>
      </trkpt>
      <trkpt lat="43.68245" lon="4.07137">
        <ele>96.074410541281</ele>
        <time>2020-11-25T14:53:02.000+01:00</time>
      </trkpt>
      <trkpt lat="43.68244" lon="4.07137">
        <ele>96.113638444854</ele>
        <time>2020-11-25T14:53:03.000+01:00</time>
      </trkpt>
      <trkpt lat="43.68243" lon="4.07137">
        <ele>96.15332297778</ele>
        <time>2020-11-25T14:53:04.000+01:00</time>
      </trkpt>
      <trkpt lat="43.68242" lon="4.07137">
        <ele>96.19344339312</ele>
        <time>2020-11-25T14:53:05.000+01:00</time>
      </trkpt>
      <trkpt lat="43.6824" lon="4.07137">
        <ele>96.233188176582</ele>
        <time>2020-11-25T14:53:06.000+01:00</time>
      </trkpt>
      <trkpt lat="43.68239" lon="4.07136">
        <ele>96.272375985979</ele>
        <time>2020-11-25T14:53:07.000+01:00</time>
      </trkpt>
      <trkpt lat="43.68237" lon="4.07136">
        <ele>96.311024318108</ele>
        <time>2020-11-25T14:53:08.000+01:00</time>
      </trkpt>
      <trkpt lat="43.68237" lon="4.07136">
        <ele>96.350089926919</ele>
        <time>2020-11-25T14:53:09.000+01:00</time>
      </trkpt>
      <trkpt lat="43.68236" lon="4.07137">
        <ele>96.38947652893</ele>
        <time>2020-11-25T14:53:10.000+01:00</time>
      </trkpt>
      <trkpt lat="43.68235" lon="4.07137">
        <ele>96.429121099981</ele>
        <time>2020-11-25T14:53:11.000+01:00</time>
      </trkpt>
      <trkpt lat="43.68234" lon="4.07137">
        <ele>96.469112605294</ele>
        <time>2020-11-25T14:53:12.000+01:00</time>
      </trkpt>
      <trkpt lat="43.68232" lon="4.07137">
        <ele>96.508439495047</ele>
        <time>2020-11-25T14:53:13.000+01:00</time>
      </trkpt>
      <trkpt lat="43.68231" lon="4.07138">
        <ele>96.548218362065</ele>
        <time>2020-11-25T14:53:14.000+01:00</time>
      </trkpt>
      <trkpt lat="43.6823" lon="4.0714">
        <ele>96.588359585363</ele>
        <time>2020-11-25T14:53:15.000+01:00</time>
      </trkpt>
      <trkpt lat="43.68229" lon="4.0714">
        <ele>96.628852672677</ele>
        <time>2020-11-25T14:53:16.000+01:00</time>
      </trkpt>
      <trkpt lat="43.68228" lon="4.07141">
        <ele>96.669804006596</ele>
        <time>2020-11-25T14:53:17.000+01:00</time>
      </trkpt>
      <trkpt lat="43.68226" lon="4.0714">
        <ele>96.710357376643</ele>
        <time>2020-11-25T14:53:18.000+01:00</time>
      </trkpt>
      <trkpt lat="43.68224" lon="4.0714">
        <ele>96.750447417773</ele>
        <time>2020-11-25T14:53:19.000+01:00</time>
      </trkpt>
      <trkpt lat="43.68222" lon="4.0714">
        <ele>96.790016734233</ele>
        <time>2020-11-25T14:53:20.000+01:00</time>
      </trkpt>
      <trkpt lat="43.68221" lon="4.0714">
        <ele>96.829107473281</ele>
        <time>2020-11-25T14:53:21.000+01:00</time>
      </trkpt>
      <trkpt lat="43.6822" lon="4.0714">
        <ele>96.867661495465</ele>
        <time>2020-11-25T14:53:22.000+01:00</time>
      </trkpt>
      <trkpt lat="43.68219" lon="4.0714">
        <ele>96.905734360981</ele>
        <time>2020-11-25T14:53:23.000+01:00</time>
      </trkpt>
      <trkpt lat="43.68218" lon="4.0714">
        <ele>96.94352415989</ele>
        <time>2020-11-25T14:53:24.000+01:00</time>
      </trkpt>
      <trkpt lat="43.68218" lon="4.07141">
        <ele>96.982297282286</ele>
        <time>2020-11-25T14:53:25.000+01:00</time>
      </trkpt>
      <trkpt lat="43.68217" lon="4.07142">
        <ele>97.021756612712</ele>
        <time>2020-11-25T14:53:26.000+01:00</time>
      </trkpt>
      <trkpt lat="43.68216" lon="4.07142">
        <ele>97.061807700236</ele>
        <time>2020-11-25T14:53:27.000+01:00</time>
      </trkpt>
      <trkpt lat="43.68215" lon="4.07143">
        <ele>97.102424437359</ele>
        <time>2020-11-25T14:53:28.000+01:00</time>
      </trkpt>
      <trkpt lat="43.68214" lon="4.07143">
        <ele>97.143608278831</ele>
        <time>2020-11-25T14:53:29.000+01:00</time>
      </trkpt>
      <trkpt lat="43.68213" lon="4.07144">
        <ele>97.185168600297</ele>
        <time>2020-11-25T14:53:30.000+01:00</time>
      </trkpt>
      <trkpt lat="43.68212" lon="4.07144">
        <ele>97.226877156392</ele>
        <time>2020-11-25T14:53:31.000+01:00</time>
      </trkpt>
      <trkpt lat="43.68211" lon="4.07145">
        <ele>97.268976057706</ele>
        <time>2020-11-25T14:53:32.000+01:00</time>
      </trkpt>
      <trkpt lat="43.6821" lon="4.07145">
        <ele>97.31089642018</ele>
        <time>2020-11-25T14:53:33.000+01:00</time>
      </trkpt>
      <trkpt lat="43.68209" lon="4.07145">
        <ele>97.352626927926</ele>
        <time>2020-11-25T14:53:34.000+01:00</time>
      </trkpt>
      <trkpt lat="43.68208" lon="4.07145">
        <ele>97.394274804302</ele>
        <time>2020-11-25T14:53:35.000+01:00</time>
      </trkpt>
      <trkpt lat="43.68206" lon="4.07146">
        <ele>97.435987397989</ele>
        <time>2020-11-25T14:53:36.000+01:00</time>
      </trkpt>
      <trkpt lat="43.68205" lon="4.07146">
        <ele>97.477672474118</ele>
        <time>2020-11-25T14:53:37.000+01:00</time>
      </trkpt>
      <trkpt lat="43.68204" lon="4.07146">
        <ele>97.519298134032</ele>
        <time>2020-11-25T14:53:38.000+01:00</time>
      </trkpt>
      <trkpt lat="43.68203" lon="4.07147">
        <ele>97.560779100236</ele>
        <time>2020-11-25T14:53:39.000+01:00</time>
      </trkpt>
      <trkpt lat="43.68201" lon="4.07147">
        <ele>97.602207160249</ele>
        <time>2020-11-25T14:53:40.000+01:00</time>
      </trkpt>
      <trkpt lat="43.682" lon="4.07147">
        <ele>97.643523590762</ele>
        <time>2020-11-25T14:53:41.000+01:00</time>
      </trkpt>
      <trkpt lat="43.68199" lon="4.07147">
        <ele>97.684342158</ele>
        <time>2020-11-25T14:53:42.000+01:00</time>
      </trkpt>
      <trkpt lat="43.68198" lon="4.07147">
        <ele>97.725045986764</ele>
        <time>2020-11-25T14:53:43.000+01:00</time>
      </trkpt>
      <trkpt lat="43.68197" lon="4.07147">
        <ele>97.765856159929</ele>
        <time>2020-11-25T14:53:44.000+01:00</time>
      </trkpt>
      <trkpt lat="43.68196" lon="4.07148">
        <ele>97.806883268126</ele>
        <time>2020-11-25T14:53:45.000+01:00</time>
      </trkpt>
      <trkpt lat="43.68195" lon="4.07148">
        <ele>97.848060965148</ele>
        <time>2020-11-25T14:53:46.000+01:00</time>
      </trkpt>
      <trkpt lat="43.68194" lon="4.07148">
        <ele>97.889310393665</ele>
        <time>2020-11-25T14:53:47.000+01:00</time>
      </trkpt>
      <trkpt lat="43.68193" lon="4.07147">
        <ele>97.930522483178</ele>
        <time>2020-11-25T14:53:48.000+01:00</time>
      </trkpt>
      <trkpt lat="43.68192" lon="4.07147">
        <ele>97.971649937805</ele>
        <time>2020-11-25T14:53:49.000+01:00</time>
      </trkpt>
      <trkpt lat="43.6819" lon="4.07147">
        <ele>98.012800135413</ele>
        <time>2020-11-25T14:53:50.000+01:00</time>
      </trkpt>
      <trkpt lat="43.68189" lon="4.07147">
        <ele>98.054115817479</ele>
        <time>2020-11-25T14:53:51.000+01:00</time>
      </trkpt>
      <trkpt lat="43.68189" lon="4.07148">
        <ele>98.09532023455</ele>
        <time>2020-11-25T14:53:52.000+01:00</time>
      </trkpt>
      <trkpt lat="43.68188" lon="4.07148">
        <ele>98.136462727895</ele>
        <time>2020-11-25T14:53:53.000+01:00</time>
      </trkpt>
      <trkpt lat="43.68187" lon="4.07148">
        <ele>98.177371799059</ele>
        <time>2020-11-25T14:53:54.000+01:00</time>
      </trkpt>
      <trkpt lat="43.68187" lon="4.07148">
        <ele>98.218098699844</ele>
        <time>2020-11-25T14:53:55.000+01:00</time>
      </trkpt>
      <trkpt lat="43.68185" lon="4.07148">
        <ele>98.258597515327</ele>
        <time>2020-11-25T14:53:56.000+01:00</time>
      </trkpt>
      <trkpt lat="43.68185" lon="4.07148">
        <ele>98.298768808832</ele>
        <time>2020-11-25T14:53:57.000+01:00</time>
      </trkpt>
      <trkpt lat="43.68184" lon="4.07147">
        <ele>98.338770079395</ele>
        <time>2020-11-25T14:53:58.000+01:00</time>
      </trkpt>
      <trkpt lat="43.68183" lon="4.07147">
        <ele>98.378738912325</ele>
        <time>2020-11-25T14:53:59.000+01:00</time>
      </trkpt>
      <trkpt lat="43.68182" lon="4.07147">
        <ele>98.418436869151</ele>
        <time>2020-11-25T14:54:00.000+01:00</time>
      </trkpt>
      <trkpt lat="43.68181" lon="4.07148">
        <ele>98.458278727536</ele>
        <time>2020-11-25T14:54:01.000+01:00</time>
      </trkpt>
      <trkpt lat="43.6818" lon="4.07148">
        <ele>98.49825795033</ele>
        <time>2020-11-25T14:54:02.000+01:00</time>
      </trkpt>
      <trkpt lat="43.68179" lon="4.07148">
        <ele>98.537939713119</ele>
        <time>2020-11-25T14:54:03.000+01:00</time>
      </trkpt>
      <trkpt lat="43.68177" lon="4.07148">
        <ele>98.577730838879</ele>
        <time>2020-11-25T14:54:04.000+01:00</time>
      </trkpt>
      <trkpt lat="43.68175" lon="4.07148">
        <ele>98.617135871905</ele>
        <time>2020-11-25T14:54:05.000+01:00</time>
      </trkpt>
      <trkpt lat="43.68174" lon="4.07149">
        <ele>98.656256166678</ele>
        <time>2020-11-25T14:54:06.000+01:00</time>
      </trkpt>
      <trkpt lat="43.68173" lon="4.07149">
        <ele>98.694927642669</ele>
        <time>2020-11-25T14:54:07.000+01:00</time>
      </trkpt>
      <trkpt lat="43.68172" lon="4.07149">
        <ele>98.733622929122</ele>
        <time>2020-11-25T14:54:08.000+01:00</time>
      </trkpt>
      <trkpt lat="43.68171" lon="4.07149">
        <ele>98.772189466064</ele>
        <time>2020-11-25T14:54:09.000+01:00</time>
      </trkpt>
      <trkpt lat="43.68169" lon="4.07148">
        <ele>98.810479450731</ele>
        <time>2020-11-25T14:54:10.000+01:00</time>
      </trkpt>
      <trkpt lat="43.68168" lon="4.07148">
        <ele>98.848551003131</ele>
        <time>2020-11-25T14:54:11.000+01:00</time>
      </trkpt>
      <trkpt lat="43.68167" lon="4.07148">
        <ele>98.886165478987</ele>
        <time>2020-11-25T14:54:12.000+01:00</time>
      </trkpt>
      <trkpt lat="43.68166" lon="4.07149">
        <ele>98.923404261908</ele>
        <time>2020-11-25T14:54:13.000+01:00</time>
      </trkpt>
      <trkpt lat="43.68165" lon="4.07149">
        <ele>98.960136573291</ele>
        <time>2020-11-25T14:54:14.000+01:00</time>
      </trkpt>
      <trkpt lat="43.68163" lon="4.07149">
        <ele>98.996446092541</ele>
        <time>2020-11-25T14:54:15.000+01:00</time>
      </trkpt>
      <trkpt lat="43.68162" lon="4.07149">
        <ele>99.032434244007</ele>
        <time>2020-11-25T14:54:16.000+01:00</time>
      </trkpt>
      <trkpt lat="43.68161" lon="4.07149">
        <ele>99.067975550189</ele>
        <time>2020-11-25T14:54:17.000+01:00</time>
      </trkpt>
      <trkpt lat="43.6816" lon="4.07149">
        <ele>99.103124186986</ele>
        <time>2020-11-25T14:54:18.000+01:00</time>
      </trkpt>
      <trkpt lat="43.68159" lon="4.07149">
        <ele>99.137851551385</ele>
        <time>2020-11-25T14:54:19.000+01:00</time>
      </trkpt>
      <trkpt lat="43.68159" lon="4.07149">
        <ele>99.141280105707</ele>
        <time>2020-11-25T14:54:20.000+01:00</time>
      </trkpt>
      <trkpt lat="43.68159" lon="4.07149">
        <ele>99.144695057431</ele>
        <time>2020-11-25T14:54:21.000+01:00</time>
      </trkpt>
      <trkpt lat="43.68159" lon="4.07149">
        <ele>99.148131383072</ele>
        <time>2020-11-25T14:54:22.000+01:00</time>
      </trkpt>
      <trkpt lat="43.68159" lon="4.07149">
        <ele>99.151585130815</ele>
        <time>2020-11-25T14:54:23.000+01:00</time>
      </trkpt>
      <trkpt lat="43.68159" lon="4.07149">
        <ele>99.155068325068</ele>
        <time>2020-11-25T14:54:24.000+01:00</time>
      </trkpt>
      <trkpt lat="43.68159" lon="4.07149">
        <ele>99.158566334596</ele>
        <time>2020-11-25T14:54:25.000+01:00</time>
      </trkpt>
      <trkpt lat="43.68158" lon="4.07149">
        <ele>99.162099608633</ele>
        <time>2020-11-25T14:54:26.000+01:00</time>
      </trkpt>
      <trkpt lat="43.68158" lon="4.07149">
        <ele>99.165654315049</ele>
        <time>2020-11-25T14:54:27.000+01:00</time>
      </trkpt>
      <trkpt lat="43.68158" lon="4.07149">
        <ele>99.20140251897</ele>
        <time>2020-11-25T14:54:28.000+01:00</time>
      </trkpt>
      <trkpt lat="43.68157" lon="4.07148">
        <ele>99.236680601861</ele>
        <time>2020-11-25T14:54:29.000+01:00</time>
      </trkpt>
      <trkpt lat="43.68156" lon="4.07147">
        <ele>99.271538583714</ele>
        <time>2020-11-25T14:54:30.000+01:00</time>
      </trkpt>
      <trkpt lat="43.68155" lon="4.07146">
        <ele>99.306244396346</ele>
        <time>2020-11-25T14:54:31.000+01:00</time>
      </trkpt>
      <trkpt lat="43.68154" lon="4.07144">
        <ele>99.340666467968</ele>
        <time>2020-11-25T14:54:32.000+01:00</time>
      </trkpt>
      <trkpt lat="43.68153" lon="4.07142">
        <ele>99.374547152151</ele>
        <time>2020-11-25T14:54:33.000+01:00</time>
      </trkpt>
      <trkpt lat="43.68153" lon="4.07141">
        <ele>99.40809540448</ele>
        <time>2020-11-25T14:54:34.000+01:00</time>
      </trkpt>
      <trkpt lat="43.68152" lon="4.07139">
        <ele>99.441204206197</ele>
        <time>2020-11-25T14:54:35.000+01:00</time>
      </trkpt>
      <trkpt lat="43.68152" lon="4.07137">
        <ele>99.473909023914</ele>
        <time>2020-11-25T14:54:36.000+01:00</time>
      </trkpt>
      <trkpt lat="43.68151" lon="4.07135">
        <ele>99.506161410706</ele>
        <time>2020-11-25T14:54:37.000+01:00</time>
      </trkpt>
      <trkpt lat="43.68151" lon="4.07134">
        <ele>99.537992641104</ele>
        <time>2020-11-25T14:54:38.000+01:00</time>
      </trkpt>
      <trkpt lat="43.6815" lon="4.07132">
        <ele>99.56951266711</ele>
        <time>2020-11-25T14:54:39.000+01:00</time>
      </trkpt>
      <trkpt lat="43.6815" lon="4.07131">
        <ele>99.600753745058</ele>
        <time>2020-11-25T14:54:40.000+01:00</time>
      </trkpt>
      <trkpt lat="43.6815" lon="4.07129">
        <ele>99.631783478704</ele>
        <time>2020-11-25T14:54:41.000+01:00</time>
      </trkpt>
      <trkpt lat="43.68149" lon="4.07128">
        <ele>99.662525934115</ele>
        <time>2020-11-25T14:54:42.000+01:00</time>
      </trkpt>
      <trkpt lat="43.68149" lon="4.07126">
        <ele>99.693083511479</ele>
        <time>2020-11-25T14:54:43.000+01:00</time>
      </trkpt>
      <trkpt lat="43.68149" lon="4.07125">
        <ele>99.723248865863</ele>
        <time>2020-11-25T14:54:44.000+01:00</time>
      </trkpt>
      <trkpt lat="43.68149" lon="4.07123">
        <ele>99.752995562662</ele>
        <time>2020-11-25T14:54:45.000+01:00</time>
      </trkpt>
      <trkpt lat="43.68149" lon="4.07122">
        <ele>99.782392172979</ele>
        <time>2020-11-25T14:54:46.000+01:00</time>
      </trkpt>
      <trkpt lat="43.68148" lon="4.0712">
        <ele>99.811415814614</ele>
        <time>2020-11-25T14:54:47.000+01:00</time>
      </trkpt>
      <trkpt lat="43.68148" lon="4.07119">
        <ele>99.839939901336</ele>
        <time>2020-11-25T14:54:48.000+01:00</time>
      </trkpt>
      <trkpt lat="43.68147" lon="4.07117">
        <ele>99.868211677403</ele>
        <time>2020-11-25T14:54:49.000+01:00</time>
      </trkpt>
      <trkpt lat="43.68147" lon="4.07116">
        <ele>99.895963273938</ele>
        <time>2020-11-25T14:54:50.000+01:00</time>
      </trkpt>
      <trkpt lat="43.68147" lon="4.07115">
        <ele>99.923437745504</ele>
        <time>2020-11-25T14:54:51.000+01:00</time>
      </trkpt>
      <trkpt lat="43.68147" lon="4.07113">
        <ele>99.95061086174</ele>
        <time>2020-11-25T14:54:52.000+01:00</time>
      </trkpt>
      <trkpt lat="43.68147" lon="4.07112">
        <ele>99.977468070461</ele>
        <time>2020-11-25T14:54:53.000+01:00</time>
      </trkpt>
      <trkpt lat="43.68146" lon="4.07111">
        <ele>100.00404190186</ele>
        <time>2020-11-25T14:54:54.000+01:00</time>
      </trkpt>
      <trkpt lat="43.68146" lon="4.0711">
        <ele>100.03039669119</ele>
        <time>2020-11-25T14:54:55.000+01:00</time>
      </trkpt>
      <trkpt lat="43.68146" lon="4.07109">
        <ele>100.05655595531</ele>
        <time>2020-11-25T14:54:56.000+01:00</time>
      </trkpt>
      <trkpt lat="43.68145" lon="4.07108">
        <ele>100.08234482375</ele>
        <time>2020-11-25T14:54:57.000+01:00</time>
      </trkpt>
      <trkpt lat="43.68145" lon="4.07106">
        <ele>100.10787624459</ele>
        <time>2020-11-25T14:54:58.000+01:00</time>
      </trkpt>
      <trkpt lat="43.68144" lon="4.07105">
        <ele>100.13313436676</ele>
        <time>2020-11-25T14:54:59.000+01:00</time>
      </trkpt>
      <trkpt lat="43.68144" lon="4.07104">
        <ele>100.15803930648</ele>
        <time>2020-11-25T14:55:00.000+01:00</time>
      </trkpt>
      <trkpt lat="43.68143" lon="4.07102">
        <ele>100.18277495298</ele>
        <time>2020-11-25T14:55:01.000+01:00</time>
      </trkpt>
      <trkpt lat="43.68143" lon="4.07101">
        <ele>100.20749340385</ele>
        <time>2020-11-25T14:55:02.000+01:00</time>
      </trkpt>
      <trkpt lat="43.68142" lon="4.071">
        <ele>100.23202569275</ele>
        <time>2020-11-25T14:55:03.000+01:00</time>
      </trkpt>
      <trkpt lat="43.68142" lon="4.07099">
        <ele>100.25635598569</ele>
        <time>2020-11-25T14:55:04.000+01:00</time>
      </trkpt>
      <trkpt lat="43.68141" lon="4.07097">
        <ele>100.28062081496</ele>
        <time>2020-11-25T14:55:05.000+01:00</time>
      </trkpt>
      <trkpt lat="43.68141" lon="4.07096">
        <ele>100.30482467265</ele>
        <time>2020-11-25T14:55:06.000+01:00</time>
      </trkpt>
      <trkpt lat="43.6814" lon="4.07095">
        <ele>100.32882681687</ele>
        <time>2020-11-25T14:55:07.000+01:00</time>
      </trkpt>
      <trkpt lat="43.6814" lon="4.07094">
        <ele>100.35267809</ele>
        <time>2020-11-25T14:55:08.000+01:00</time>
      </trkpt>
      <trkpt lat="43.68139" lon="4.07092">
        <ele>100.37610743735</ele>
        <time>2020-11-25T14:55:09.000+01:00</time>
      </trkpt>
      <trkpt lat="43.68139" lon="4.07091">
        <ele>100.39937352603</ele>
        <time>2020-11-25T14:55:10.000+01:00</time>
      </trkpt>
      <trkpt lat="43.68139" lon="4.0709">
        <ele>100.42236290656</ele>
        <time>2020-11-25T14:55:11.000+01:00</time>
      </trkpt>
      <trkpt lat="43.68139" lon="4.07089">
        <ele>100.4451258307</ele>
        <time>2020-11-25T14:55:12.000+01:00</time>
      </trkpt>
      <trkpt lat="43.68139" lon="4.07089">
        <ele>100.4676091589</ele>
        <time>2020-11-25T14:55:13.000+01:00</time>
      </trkpt>
      <trkpt lat="43.68139" lon="4.07089">
        <ele>100.48993825765</ele>
        <time>2020-11-25T14:55:14.000+01:00</time>
      </trkpt>
      <trkpt lat="43.68138" lon="4.07088">
        <ele>100.51209308809</ele>
        <time>2020-11-25T14:55:15.000+01:00</time>
      </trkpt>
      <trkpt lat="43.68138" lon="4.07087">
        <ele>100.53405700646</ele>
        <time>2020-11-25T14:55:16.000+01:00</time>
      </trkpt>
      <trkpt lat="43.68138" lon="4.07086">
        <ele>100.55588127259</ele>
        <time>2020-11-25T14:55:17.000+01:00</time>
      </trkpt>
      <trkpt lat="43.68138" lon="4.07085">
        <ele>100.57738365907</ele>
        <time>2020-11-25T14:55:18.000+01:00</time>
      </trkpt>
      <trkpt lat="43.68137" lon="4.07084">
        <ele>100.59842209696</ele>
        <time>2020-11-25T14:55:19.000+01:00</time>
      </trkpt>
      <trkpt lat="43.68137" lon="4.07083">
        <ele>100.61918584006</ele>
        <time>2020-11-25T14:55:20.000+01:00</time>
      </trkpt>
      <trkpt lat="43.68137" lon="4.07083">
        <ele>100.63951734063</ele>
        <time>2020-11-25T14:55:21.000+01:00</time>
      </trkpt>
      <trkpt lat="43.68136" lon="4.07081">
        <ele>100.65952045825</ele>
        <time>2020-11-25T14:55:22.000+01:00</time>
      </trkpt>
      <trkpt lat="43.68136" lon="4.0708">
        <ele>100.67930752172</ele>
        <time>2020-11-25T14:55:23.000+01:00</time>
      </trkpt>
      <trkpt lat="43.68136" lon="4.0708">
        <ele>100.69886694213</ele>
        <time>2020-11-25T14:55:24.000+01:00</time>
      </trkpt>
      <trkpt lat="43.68136" lon="4.0708">
        <ele>100.71828975726</ele>
        <time>2020-11-25T14:55:25.000+01:00</time>
      </trkpt>
      <trkpt lat="43.68136" lon="4.07079">
        <ele>100.73762386822</ele>
        <time>2020-11-25T14:55:26.000+01:00</time>
      </trkpt>
      <trkpt lat="43.68135" lon="4.07078">
        <ele>100.75673452847</ele>
        <time>2020-11-25T14:55:27.000+01:00</time>
      </trkpt>
      <trkpt lat="43.68135" lon="4.07077">
        <ele>100.77570649213</ele>
        <time>2020-11-25T14:55:28.000+01:00</time>
      </trkpt>
      <trkpt lat="43.68135" lon="4.07076">
        <ele>100.79464969551</ele>
        <time>2020-11-25T14:55:29.000+01:00</time>
      </trkpt>
      <trkpt lat="43.68135" lon="4.07074">
        <ele>100.81338507925</ele>
        <time>2020-11-25T14:55:30.000+01:00</time>
      </trkpt>
      <trkpt lat="43.68134" lon="4.07073">
        <ele>100.83192015789</ele>
        <time>2020-11-25T14:55:31.000+01:00</time>
      </trkpt>
      <trkpt lat="43.68133" lon="4.07071">
        <ele>100.85031752372</ele>
        <time>2020-11-25T14:55:32.000+01:00</time>
      </trkpt>
      <trkpt lat="43.68132" lon="4.0707">
        <ele>100.86853340811</ele>
        <time>2020-11-25T14:55:33.000+01:00</time>
      </trkpt>
      <trkpt lat="43.68131" lon="4.07068">
        <ele>100.88652963202</ele>
        <time>2020-11-25T14:55:34.000+01:00</time>
      </trkpt>
      <trkpt lat="43.6813" lon="4.07066">
        <ele>100.90441183747</ele>
        <time>2020-11-25T14:55:35.000+01:00</time>
      </trkpt>
      <trkpt lat="43.6813" lon="4.07065">
        <ele>100.92211497536</ele>
        <time>2020-11-25T14:55:36.000+01:00</time>
      </trkpt>
      <trkpt lat="43.68129" lon="4.07063">
        <ele>100.93980877834</ele>
        <time>2020-11-25T14:55:37.000+01:00</time>
      </trkpt>
      <trkpt lat="43.68128" lon="4.07061">
        <ele>100.95697234374</ele>
        <time>2020-11-25T14:55:38.000+01:00</time>
      </trkpt>
      <trkpt lat="43.68128" lon="4.07059">
        <ele>100.97401663471</ele>
        <time>2020-11-25T14:55:39.000+01:00</time>
      </trkpt>
      <trkpt lat="43.68127" lon="4.07058">
        <ele>100.990745258</ele>
        <time>2020-11-25T14:55:40.000+01:00</time>
      </trkpt>
      <trkpt lat="43.68127" lon="4.07057">
        <ele>101.00713617746</ele>
        <time>2020-11-25T14:55:41.000+01:00</time>
      </trkpt>
      <trkpt lat="43.68126" lon="4.07056">
        <ele>101.02331426687</ele>
        <time>2020-11-25T14:55:42.000+01:00</time>
      </trkpt>
      <trkpt lat="43.68126" lon="4.07056">
        <ele>101.03935126157</ele>
        <time>2020-11-25T14:55:43.000+01:00</time>
      </trkpt>
      <trkpt lat="43.68126" lon="4.07055">
        <ele>101.05516633997</ele>
        <time>2020-11-25T14:55:44.000+01:00</time>
      </trkpt>
      <trkpt lat="43.68126" lon="4.07055">
        <ele>101.0707656512</ele>
        <time>2020-11-25T14:55:45.000+01:00</time>
      </trkpt>
      <trkpt lat="43.68125" lon="4.07054">
        <ele>101.08612808419</ele>
        <time>2020-11-25T14:55:46.000+01:00</time>
      </trkpt>
      <trkpt lat="43.68125" lon="4.07053">
        <ele>101.10138479604</ele>
        <time>2020-11-25T14:55:47.000+01:00</time>
      </trkpt>
      <trkpt lat="43.68125" lon="4.07053">
        <ele>101.1163981338</ele>
        <time>2020-11-25T14:55:48.000+01:00</time>
      </trkpt>
      <trkpt lat="43.68125" lon="4.07053">
        <ele>101.13130650968</ele>
        <time>2020-11-25T14:55:49.000+01:00</time>
      </trkpt>
      <trkpt lat="43.68124" lon="4.07052">
        <ele>101.14596207935</ele>
        <time>2020-11-25T14:55:50.000+01:00</time>
      </trkpt>
      <trkpt lat="43.68124" lon="4.07052">
        <ele>101.1605016946</ele>
        <time>2020-11-25T14:55:51.000+01:00</time>
      </trkpt>
      <trkpt lat="43.68124" lon="4.07051">
        <ele>101.17481684731</ele>
        <time>2020-11-25T14:55:52.000+01:00</time>
      </trkpt>
      <trkpt lat="43.68123" lon="4.07049">
        <ele>101.18899767944</ele>
        <time>2020-11-25T14:55:53.000+01:00</time>
      </trkpt>
      <trkpt lat="43.68123" lon="4.07048">
        <ele>101.20298164107</ele>
        <time>2020-11-25T14:55:54.000+01:00</time>
      </trkpt>
      <trkpt lat="43.68123" lon="4.07047">
        <ele>101.2167281266</ele>
        <time>2020-11-25T14:55:55.000+01:00</time>
      </trkpt>
      <trkpt lat="43.68123" lon="4.07046">
        <ele>101.23019174928</ele>
        <time>2020-11-25T14:55:56.000+01:00</time>
      </trkpt>
      <trkpt lat="43.68123" lon="4.07045">
        <ele>101.24334394213</ele>
        <time>2020-11-25T14:55:57.000+01:00</time>
      </trkpt>
      <trkpt lat="43.68123" lon="4.07044">
        <ele>101.25624460559</ele>
        <time>2020-11-25T14:55:58.000+01:00</time>
      </trkpt>
      <trkpt lat="43.68122" lon="4.07043">
        <ele>101.26903921648</ele>
        <time>2020-11-25T14:55:59.000+01:00</time>
      </trkpt>
      <trkpt lat="43.68122" lon="4.07041">
        <ele>101.28169013782</ele>
        <time>2020-11-25T14:56:00.000+01:00</time>
      </trkpt>
      <trkpt lat="43.68122" lon="4.0704">
        <ele>101.2941841766</ele>
        <time>2020-11-25T14:56:01.000+01:00</time>
      </trkpt>
      <trkpt lat="43.68121" lon="4.07039">
        <ele>101.30663724907</ele>
        <time>2020-11-25T14:56:02.000+01:00</time>
      </trkpt>
      <trkpt lat="43.68121" lon="4.07037">
        <ele>101.31892139464</ele>
        <time>2020-11-25T14:56:03.000+01:00</time>
      </trkpt>
      <trkpt lat="43.68121" lon="4.07037">
        <ele>101.33112109251</ele>
        <time>2020-11-25T14:56:04.000+01:00</time>
      </trkpt>
      <trkpt lat="43.68121" lon="4.07036">
        <ele>101.34319215059</ele>
        <time>2020-11-25T14:56:05.000+01:00</time>
      </trkpt>
      <trkpt lat="43.6812" lon="4.07036">
        <ele>101.35511932471</ele>
        <time>2020-11-25T14:56:06.000+01:00</time>
      </trkpt>
      <trkpt lat="43.6812" lon="4.07035">
        <ele>101.36688666399</ele>
        <time>2020-11-25T14:56:07.000+01:00</time>
      </trkpt>
      <trkpt lat="43.6812" lon="4.07034">
        <ele>101.37854109639</ele>
        <time>2020-11-25T14:56:08.000+01:00</time>
      </trkpt>
      <trkpt lat="43.6812" lon="4.07032">
        <ele>101.39009913524</ele>
        <time>2020-11-25T14:56:09.000+01:00</time>
      </trkpt>
      <trkpt lat="43.6812" lon="4.07029">
        <ele>101.40160991319</ele>
        <time>2020-11-25T14:56:10.000+01:00</time>
      </trkpt>
      <trkpt lat="43.68119" lon="4.07027">
        <ele>101.41304755262</ele>
        <time>2020-11-25T14:56:11.000+01:00</time>
      </trkpt>
      <trkpt lat="43.68119" lon="4.07025">
        <ele>101.42446719587</ele>
        <time>2020-11-25T14:56:12.000+01:00</time>
      </trkpt>
      <trkpt lat="43.68119" lon="4.07023">
        <ele>101.43596231166</ele>
        <time>2020-11-25T14:56:13.000+01:00</time>
      </trkpt>
      <trkpt lat="43.68119" lon="4.07022">
        <ele>101.44743225822</ele>
        <time>2020-11-25T14:56:14.000+01:00</time>
      </trkpt>
      <trkpt lat="43.68118" lon="4.07021">
        <ele>101.45879016025</ele>
        <time>2020-11-25T14:56:15.000+01:00</time>
      </trkpt>
      <trkpt lat="43.68118" lon="4.07019">
        <ele>101.47004151022</ele>
        <time>2020-11-25T14:56:16.000+01:00</time>
      </trkpt>
      <trkpt lat="43.68118" lon="4.07018">
        <ele>101.4812462151</ele>
        <time>2020-11-25T14:56:17.000+01:00</time>
      </trkpt>
      <trkpt lat="43.68117" lon="4.07016">
        <ele>101.492286814</ele>
        <time>2020-11-25T14:56:18.000+01:00</time>
      </trkpt>
      <trkpt lat="43.68117" lon="4.07015">
        <ele>101.50315986829</ele>
        <time>2020-11-25T14:56:19.000+01:00</time>
      </trkpt>
      <trkpt lat="43.68116" lon="4.07014">
        <ele>101.51385352253</ele>
        <time>2020-11-25T14:56:20.000+01:00</time>
      </trkpt>
      <trkpt lat="43.68115" lon="4.07012">
        <ele>101.52434361781</ele>
        <time>2020-11-25T14:56:21.000+01:00</time>
      </trkpt>
      <trkpt lat="43.68115" lon="4.07011">
        <ele>101.53489037187</ele>
        <time>2020-11-25T14:56:22.000+01:00</time>
      </trkpt>
      <trkpt lat="43.68115" lon="4.0701">
        <ele>101.54543061553</ele>
        <time>2020-11-25T14:56:23.000+01:00</time>
      </trkpt>
      <trkpt lat="43.68115" lon="4.07009">
        <ele>101.55578494534</ele>
        <time>2020-11-25T14:56:24.000+01:00</time>
      </trkpt>
      <trkpt lat="43.68114" lon="4.07008">
        <ele>101.5659576289</ele>
        <time>2020-11-25T14:56:25.000+01:00</time>
      </trkpt>
      <trkpt lat="43.68114" lon="4.07007">
        <ele>101.57596971619</ele>
        <time>2020-11-25T14:56:26.000+01:00</time>
      </trkpt>
      <trkpt lat="43.68113" lon="4.07005">
        <ele>101.58554474001</ele>
        <time>2020-11-25T14:56:27.000+01:00</time>
      </trkpt>
      <trkpt lat="43.68113" lon="4.07003">
        <ele>101.5949495434</ele>
        <time>2020-11-25T14:56:28.000+01:00</time>
      </trkpt>
      <trkpt lat="43.68113" lon="4.07002">
        <ele>101.60412608418</ele>
        <time>2020-11-25T14:56:29.000+01:00</time>
      </trkpt>
      <trkpt lat="43.68112" lon="4.07001">
        <ele>101.613056216</ele>
        <time>2020-11-25T14:56:30.000+01:00</time>
      </trkpt>
      <trkpt lat="43.68112" lon="4.07">
        <ele>101.62181008797</ele>
        <time>2020-11-25T14:56:31.000+01:00</time>
      </trkpt>
      <trkpt lat="43.68112" lon="4.06999">
        <ele>101.63040693897</ele>
        <time>2020-11-25T14:56:32.000+01:00</time>
      </trkpt>
      <trkpt lat="43.68112" lon="4.06998">
        <ele>101.6387118698</ele>
        <time>2020-11-25T14:56:33.000+01:00</time>
      </trkpt>
      <trkpt lat="43.68111" lon="4.06997">
        <ele>101.64694408786</ele>
        <time>2020-11-25T14:56:34.000+01:00</time>
      </trkpt>
      <trkpt lat="43.68111" lon="4.06997">
        <ele>101.65493038906</ele>
        <time>2020-11-25T14:56:35.000+01:00</time>
      </trkpt>
      <trkpt lat="43.68111" lon="4.06996">
        <ele>101.66266119784</ele>
        <time>2020-11-25T14:56:36.000+01:00</time>
      </trkpt>
      <trkpt lat="43.6811" lon="4.06995">
        <ele>101.67021721623</ele>
        <time>2020-11-25T14:56:37.000+01:00</time>
      </trkpt>
      <trkpt lat="43.6811" lon="4.06994">
        <ele>101.6775628975</ele>
        <time>2020-11-25T14:56:38.000+01:00</time>
      </trkpt>
      <trkpt lat="43.6811" lon="4.06993">
        <ele>101.68475284699</ele>
        <time>2020-11-25T14:56:39.000+01:00</time>
      </trkpt>
      <trkpt lat="43.68109" lon="4.06992">
        <ele>101.6917645654</ele>
        <time>2020-11-25T14:56:40.000+01:00</time>
      </trkpt>
      <trkpt lat="43.68109" lon="4.0699">
        <ele>101.69866826934</ele>
        <time>2020-11-25T14:56:41.000+01:00</time>
      </trkpt>
      <trkpt lat="43.68109" lon="4.06989">
        <ele>101.70543688097</ele>
        <time>2020-11-25T14:56:42.000+01:00</time>
      </trkpt>
      <trkpt lat="43.68108" lon="4.06987">
        <ele>101.71176846883</ele>
        <time>2020-11-25T14:56:43.000+01:00</time>
      </trkpt>
      <trkpt lat="43.68108" lon="4.06986">
        <ele>101.71793473788</ele>
        <time>2020-11-25T14:56:44.000+01:00</time>
      </trkpt>
      <trkpt lat="43.68108" lon="4.06985">
        <ele>101.72368475694</ele>
        <time>2020-11-25T14:56:45.000+01:00</time>
      </trkpt>
      <trkpt lat="43.68107" lon="4.06983">
        <ele>101.72910684772</ele>
        <time>2020-11-25T14:56:46.000+01:00</time>
      </trkpt>
      <trkpt lat="43.68107" lon="4.06982">
        <ele>101.7342313068</ele>
        <time>2020-11-25T14:56:47.000+01:00</time>
      </trkpt>
      <trkpt lat="43.68107" lon="4.06982">
        <ele>101.73927933384</ele>
        <time>2020-11-25T14:56:48.000+01:00</time>
      </trkpt>
      <trkpt lat="43.68107" lon="4.06982">
        <ele>101.74406229903</ele>
        <time>2020-11-25T14:56:49.000+01:00</time>
      </trkpt>
      <trkpt lat="43.68107" lon="4.06982">
        <ele>101.74850995929</ele>
        <time>2020-11-25T14:56:50.000+01:00</time>
      </trkpt>
      <trkpt lat="43.68107" lon="4.06982">
        <ele>101.75270527006</ele>
        <time>2020-11-25T14:56:51.000+01:00</time>
      </trkpt>
      <trkpt lat="43.68107" lon="4.06982">
        <ele>101.75662663669</ele>
        <time>2020-11-25T14:56:52.000+01:00</time>
      </trkpt>
      <trkpt lat="43.68106" lon="4.0698">
        <ele>101.7602530974</ele>
        <time>2020-11-25T14:56:53.000+01:00</time>
      </trkpt>
      <trkpt lat="43.68106" lon="4.06979">
        <ele>101.76372925606</ele>
        <time>2020-11-25T14:56:54.000+01:00</time>
      </trkpt>
      <trkpt lat="43.68105" lon="4.06978">
        <ele>101.76695718646</ele>
        <time>2020-11-25T14:56:55.000+01:00</time>
      </trkpt>
      <trkpt lat="43.68105" lon="4.06977">
        <ele>101.76997333375</ele>
        <time>2020-11-25T14:56:56.000+01:00</time>
      </trkpt>
      <trkpt lat="43.68104" lon="4.06976">
        <ele>101.77275515772</ele>
        <time>2020-11-25T14:56:57.000+01:00</time>
      </trkpt>
      <trkpt lat="43.68104" lon="4.06975">
        <ele>101.77538929794</ele>
        <time>2020-11-25T14:56:58.000+01:00</time>
      </trkpt>
      <trkpt lat="43.68104" lon="4.06974">
        <ele>101.77780042911</ele>
        <time>2020-11-25T14:56:59.000+01:00</time>
      </trkpt>
      <trkpt lat="43.68103" lon="4.06973">
        <ele>101.78009780502</ele>
        <time>2020-11-25T14:57:00.000+01:00</time>
      </trkpt>
      <trkpt lat="43.68103" lon="4.06971">
        <ele>101.78250709354</ele>
        <time>2020-11-25T14:57:01.000+01:00</time>
      </trkpt>
      <trkpt lat="43.68103" lon="4.0697">
        <ele>101.78473931756</ele>
        <time>2020-11-25T14:57:02.000+01:00</time>
      </trkpt>
      <trkpt lat="43.68103" lon="4.0697">
        <ele>101.78681708394</ele>
        <time>2020-11-25T14:57:03.000+01:00</time>
      </trkpt>
      <trkpt lat="43.68103" lon="4.06969">
        <ele>101.78878171505</ele>
        <time>2020-11-25T14:57:04.000+01:00</time>
      </trkpt>
      <trkpt lat="43.68103" lon="4.06969">
        <ele>101.7903152829</ele>
        <time>2020-11-25T14:57:05.000+01:00</time>
      </trkpt>
      <trkpt lat="43.68102" lon="4.06969">
        <ele>101.79141236797</ele>
        <time>2020-11-25T14:57:06.000+01:00</time>
      </trkpt>
      <trkpt lat="43.68102" lon="4.06968">
        <ele>101.79224961394</ele>
        <time>2020-11-25T14:57:07.000+01:00</time>
      </trkpt>
      <trkpt lat="43.68103" lon="4.06967">
        <ele>101.79285060606</ele>
        <time>2020-11-25T14:57:08.000+01:00</time>
      </trkpt>
      <trkpt lat="43.68102" lon="4.06966">
        <ele>101.79318775916</ele>
        <time>2020-11-25T14:57:09.000+01:00</time>
      </trkpt>
      <trkpt lat="43.68102" lon="4.06965">
        <ele>101.793236394</ele>
        <time>2020-11-25T14:57:10.000+01:00</time>
      </trkpt>
      <trkpt lat="43.68101" lon="4.06964">
        <ele>101.79281755153</ele>
        <time>2020-11-25T14:57:11.000+01:00</time>
      </trkpt>
      <trkpt lat="43.68101" lon="4.06964">
        <ele>101.79211657855</ele>
        <time>2020-11-25T14:57:12.000+01:00</time>
      </trkpt>
      <trkpt lat="43.68101" lon="4.06962">
        <ele>101.79092097652</ele>
        <time>2020-11-25T14:57:13.000+01:00</time>
      </trkpt>
      <trkpt lat="43.68101" lon="4.06961">
        <ele>101.78940829697</ele>
        <time>2020-11-25T14:57:14.000+01:00</time>
      </trkpt>
      <trkpt lat="43.68101" lon="4.0696">
        <ele>101.78769146429</ele>
        <time>2020-11-25T14:57:15.000+01:00</time>
      </trkpt>
      <trkpt lat="43.681" lon="4.06959">
        <ele>101.78578325127</ele>
        <time>2020-11-25T14:57:16.000+01:00</time>
      </trkpt>
      <trkpt lat="43.681" lon="4.06957">
        <ele>101.78372768817</ele>
        <time>2020-11-25T14:57:17.000+01:00</time>
      </trkpt>
      <trkpt lat="43.68099" lon="4.06955">
        <ele>101.78121349256</ele>
        <time>2020-11-25T14:57:18.000+01:00</time>
      </trkpt>
      <trkpt lat="43.68099" lon="4.06953">
        <ele>101.77837191449</ele>
        <time>2020-11-25T14:57:19.000+01:00</time>
      </trkpt>
      <trkpt lat="43.68098" lon="4.06952">
        <ele>101.77536823456</ele>
        <time>2020-11-25T14:57:20.000+01:00</time>
      </trkpt>
      <trkpt lat="43.68098" lon="4.0695">
        <ele>101.77221908557</ele>
        <time>2020-11-25T14:57:21.000+01:00</time>
      </trkpt>
      <trkpt lat="43.68097" lon="4.06949">
        <ele>101.76889091421</ele>
        <time>2020-11-25T14:57:22.000+01:00</time>
      </trkpt>
      <trkpt lat="43.68097" lon="4.06948">
        <ele>101.76544419187</ele>
        <time>2020-11-25T14:57:23.000+01:00</time>
      </trkpt>
      <trkpt lat="43.68097" lon="4.06947">
        <ele>101.76181309731</ele>
        <time>2020-11-25T14:57:24.000+01:00</time>
      </trkpt>
      <trkpt lat="43.68096" lon="4.06946">
        <ele>101.75804074989</ele>
        <time>2020-11-25T14:57:25.000+01:00</time>
      </trkpt>
      <trkpt lat="43.68096" lon="4.06945">
        <ele>101.75407948741</ele>
        <time>2020-11-25T14:57:26.000+01:00</time>
      </trkpt>
      <trkpt lat="43.68095" lon="4.06943">
        <ele>101.7496896035</ele>
        <time>2020-11-25T14:57:27.000+01:00</time>
      </trkpt>
      <trkpt lat="43.68095" lon="4.06942">
        <ele>101.74514876015</ele>
        <time>2020-11-25T14:57:28.000+01:00</time>
      </trkpt>
      <trkpt lat="43.68094" lon="4.06941">
        <ele>101.74047988727</ele>
        <time>2020-11-25T14:57:29.000+01:00</time>
      </trkpt>
      <trkpt lat="43.68094" lon="4.06939">
        <ele>101.73564457182</ele>
        <time>2020-11-25T14:57:30.000+01:00</time>
      </trkpt>
      <trkpt lat="43.68093" lon="4.06938">
        <ele>101.73050395061</ele>
        <time>2020-11-25T14:57:31.000+01:00</time>
      </trkpt>
      <trkpt lat="43.68093" lon="4.06937">
        <ele>101.72516937017</ele>
        <time>2020-11-25T14:57:32.000+01:00</time>
      </trkpt>
      <trkpt lat="43.68093" lon="4.06935">
        <ele>101.7195706425</ele>
        <time>2020-11-25T14:57:33.000+01:00</time>
      </trkpt>
      <trkpt lat="43.68092" lon="4.06933">
        <ele>101.71369306121</ele>
        <time>2020-11-25T14:57:34.000+01:00</time>
      </trkpt>
      <trkpt lat="43.68092" lon="4.06932">
        <ele>101.7075677181</ele>
        <time>2020-11-25T14:57:35.000+01:00</time>
      </trkpt>
      <trkpt lat="43.68092" lon="4.0693">
        <ele>101.70128853225</ele>
        <time>2020-11-25T14:57:36.000+01:00</time>
      </trkpt>
      <trkpt lat="43.68092" lon="4.06929">
        <ele>101.69481280897</ele>
        <time>2020-11-25T14:57:37.000+01:00</time>
      </trkpt>
      <trkpt lat="43.68092" lon="4.06928">
        <ele>101.68830178142</ele>
        <time>2020-11-25T14:57:38.000+01:00</time>
      </trkpt>
      <trkpt lat="43.68092" lon="4.06927">
        <ele>101.68175333213</ele>
        <time>2020-11-25T14:57:39.000+01:00</time>
      </trkpt>
      <trkpt lat="43.68091" lon="4.06924">
        <ele>101.67508089838</ele>
        <time>2020-11-25T14:57:40.000+01:00</time>
      </trkpt>
      <trkpt lat="43.68091" lon="4.06923">
        <ele>101.66837962394</ele>
        <time>2020-11-25T14:57:41.000+01:00</time>
      </trkpt>
      <trkpt lat="43.68091" lon="4.06922">
        <ele>101.66159326038</ele>
        <time>2020-11-25T14:57:42.000+01:00</time>
      </trkpt>
      <trkpt lat="43.68091" lon="4.06921">
        <ele>101.6548070047</ele>
        <time>2020-11-25T14:57:43.000+01:00</time>
      </trkpt>
      <trkpt lat="43.6809" lon="4.0692">
        <ele>101.64799676816</ele>
        <time>2020-11-25T14:57:44.000+01:00</time>
      </trkpt>
      <trkpt lat="43.6809" lon="4.06919">
        <ele>101.64107340468</ele>
        <time>2020-11-25T14:57:45.000+01:00</time>
      </trkpt>
      <trkpt lat="43.6809" lon="4.06918">
        <ele>101.63398532565</ele>
        <time>2020-11-25T14:57:46.000+01:00</time>
      </trkpt>
      <trkpt lat="43.6809" lon="4.06917">
        <ele>101.62669738604</ele>
        <time>2020-11-25T14:57:47.000+01:00</time>
      </trkpt>
      <trkpt lat="43.68089" lon="4.06916">
        <ele>101.61919111803</ele>
        <time>2020-11-25T14:57:48.000+01:00</time>
      </trkpt>
      <trkpt lat="43.68089" lon="4.06914">
        <ele>101.61144132494</ele>
        <time>2020-11-25T14:57:49.000+01:00</time>
      </trkpt>
      <trkpt lat="43.68088" lon="4.06913">
        <ele>101.60343991271</ele>
        <time>2020-11-25T14:57:50.000+01:00</time>
      </trkpt>
      <trkpt lat="43.68088" lon="4.06912">
        <ele>101.59519647357</ele>
        <time>2020-11-25T14:57:51.000+01:00</time>
      </trkpt>
      <trkpt lat="43.68088" lon="4.0691">
        <ele>101.58672308319</ele>
        <time>2020-11-25T14:57:52.000+01:00</time>
      </trkpt>
      <trkpt lat="43.68087" lon="4.06909">
        <ele>101.57801894171</ele>
        <time>2020-11-25T14:57:53.000+01:00</time>
      </trkpt>
      <trkpt lat="43.68087" lon="4.06908">
        <ele>101.56904882881</ele>
        <time>2020-11-25T14:57:54.000+01:00</time>
      </trkpt>
      <trkpt lat="43.68087" lon="4.06906">
        <ele>101.55978578928</ele>
        <time>2020-11-25T14:57:55.000+01:00</time>
      </trkpt>
      <trkpt lat="43.68086" lon="4.06905">
        <ele>101.5502095716</ele>
        <time>2020-11-25T14:57:56.000+01:00</time>
      </trkpt>
      <trkpt lat="43.68086" lon="4.06904">
        <ele>101.54045510174</ele>
        <time>2020-11-25T14:57:57.000+01:00</time>
      </trkpt>
      <trkpt lat="43.68086" lon="4.06903">
        <ele>101.53055348358</ele>
        <time>2020-11-25T14:57:58.000+01:00</time>
      </trkpt>
      <trkpt lat="43.68086" lon="4.06902">
        <ele>101.52047820322</ele>
        <time>2020-11-25T14:57:59.000+01:00</time>
      </trkpt>
      <trkpt lat="43.68085" lon="4.069">
        <ele>101.51013446204</ele>
        <time>2020-11-25T14:58:00.000+01:00</time>
      </trkpt>
      <trkpt lat="43.68085" lon="4.06899">
        <ele>101.49955823495</ele>
        <time>2020-11-25T14:58:01.000+01:00</time>
      </trkpt>
      <trkpt lat="43.68084" lon="4.06898">
        <ele>101.48885934017</ele>
        <time>2020-11-25T14:58:02.000+01:00</time>
      </trkpt>
      <trkpt lat="43.68084" lon="4.06896">
        <ele>101.47808011436</ele>
        <time>2020-11-25T14:58:03.000+01:00</time>
      </trkpt>
      <trkpt lat="43.68084" lon="4.06895">
        <ele>101.46723258589</ele>
        <time>2020-11-25T14:58:04.000+01:00</time>
      </trkpt>
      <trkpt lat="43.68084" lon="4.06893">
        <ele>101.45632799273</ele>
        <time>2020-11-25T14:58:05.000+01:00</time>
      </trkpt>
      <trkpt lat="43.68083" lon="4.06892">
        <ele>101.44533487025</ele>
        <time>2020-11-25T14:58:06.000+01:00</time>
      </trkpt>
      <trkpt lat="43.68083" lon="4.06891">
        <ele>101.43430099523</ele>
        <time>2020-11-25T14:58:07.000+01:00</time>
      </trkpt>
      <trkpt lat="43.68082" lon="4.0689">
        <ele>101.42321466063</ele>
        <time>2020-11-25T14:58:08.000+01:00</time>
      </trkpt>
      <trkpt lat="43.68081" lon="4.06888">
        <ele>101.4120596913</ele>
        <time>2020-11-25T14:58:09.000+01:00</time>
      </trkpt>
      <trkpt lat="43.68081" lon="4.06887">
        <ele>101.4007959038</ele>
        <time>2020-11-25T14:58:10.000+01:00</time>
      </trkpt>
      <trkpt lat="43.6808" lon="4.06886">
        <ele>101.3894901229</ele>
        <time>2020-11-25T14:58:11.000+01:00</time>
      </trkpt>
      <trkpt lat="43.6808" lon="4.06884">
        <ele>101.37810863052</ele>
        <time>2020-11-25T14:58:12.000+01:00</time>
      </trkpt>
      <trkpt lat="43.68079" lon="4.06883">
        <ele>101.36664031186</ele>
        <time>2020-11-25T14:58:13.000+01:00</time>
      </trkpt>
      <trkpt lat="43.68079" lon="4.06881">
        <ele>101.35509585099</ele>
        <time>2020-11-25T14:58:14.000+01:00</time>
      </trkpt>
      <trkpt lat="43.68079" lon="4.0688">
        <ele>101.34345966765</ele>
        <time>2020-11-25T14:58:15.000+01:00</time>
      </trkpt>
      <trkpt lat="43.68078" lon="4.06879">
        <ele>101.33163741702</ele>
        <time>2020-11-25T14:58:16.000+01:00</time>
      </trkpt>
      <trkpt lat="43.68078" lon="4.06877">
        <ele>101.31970407006</ele>
        <time>2020-11-25T14:58:17.000+01:00</time>
      </trkpt>
      <trkpt lat="43.68077" lon="4.06876">
        <ele>101.30757461451</ele>
        <time>2020-11-25T14:58:18.000+01:00</time>
      </trkpt>
      <trkpt lat="43.68077" lon="4.06875">
        <ele>101.29536013248</ele>
        <time>2020-11-25T14:58:19.000+01:00</time>
      </trkpt>
      <trkpt lat="43.68077" lon="4.06874">
        <ele>101.28304435564</ele>
        <time>2020-11-25T14:58:20.000+01:00</time>
      </trkpt>
      <trkpt lat="43.68076" lon="4.06873">
        <ele>101.27061057543</ele>
        <time>2020-11-25T14:58:21.000+01:00</time>
      </trkpt>
      <trkpt lat="43.68076" lon="4.06872">
        <ele>101.25804467368</ele>
        <time>2020-11-25T14:58:22.000+01:00</time>
      </trkpt>
      <trkpt lat="43.68076" lon="4.06871">
        <ele>101.24550893282</ele>
        <time>2020-11-25T14:58:23.000+01:00</time>
      </trkpt>
      <trkpt lat="43.68075" lon="4.06871">
        <ele>101.23308101822</ele>
        <time>2020-11-25T14:58:24.000+01:00</time>
      </trkpt>
      <trkpt lat="43.68075" lon="4.0687">
        <ele>101.22076947488</ele>
        <time>2020-11-25T14:58:25.000+01:00</time>
      </trkpt>
      <trkpt lat="43.68074" lon="4.06868">
        <ele>101.20872735542</ele>
        <time>2020-11-25T14:58:26.000+01:00</time>
      </trkpt>
      <trkpt lat="43.68073" lon="4.06867">
        <ele>101.19682368152</ele>
        <time>2020-11-25T14:58:27.000+01:00</time>
      </trkpt>
      <trkpt lat="43.68072" lon="4.06865">
        <ele>101.18441170367</ele>
        <time>2020-11-25T14:58:28.000+01:00</time>
      </trkpt>
      <trkpt lat="43.68071" lon="4.06865">
        <ele>101.17192356824</ele>
        <time>2020-11-25T14:58:29.000+01:00</time>
      </trkpt>
      <trkpt lat="43.6807" lon="4.06863">
        <ele>101.15881795496</ele>
        <time>2020-11-25T14:58:30.000+01:00</time>
      </trkpt>
      <trkpt lat="43.68069" lon="4.06862">
        <ele>101.1452837015</ele>
        <time>2020-11-25T14:58:31.000+01:00</time>
      </trkpt>
      <trkpt lat="43.68068" lon="4.06862">
        <ele>101.13155916093</ele>
        <time>2020-11-25T14:58:32.000+01:00</time>
      </trkpt>
      <trkpt lat="43.68068" lon="4.06861">
        <ele>101.11736306033</ele>
        <time>2020-11-25T14:58:33.000+01:00</time>
      </trkpt>
      <trkpt lat="43.68068" lon="4.06861">
        <ele>101.10317632423</ele>
        <time>2020-11-25T14:58:34.000+01:00</time>
      </trkpt>
      <trkpt lat="43.68067" lon="4.06861">
        <ele>101.08871827423</ele>
        <time>2020-11-25T14:58:35.000+01:00</time>
      </trkpt>
      <trkpt lat="43.68067" lon="4.06861">
        <ele>101.0740274314</ele>
        <time>2020-11-25T14:58:36.000+01:00</time>
      </trkpt>
      <trkpt lat="43.68066" lon="4.06861">
        <ele>101.0590309685</ele>
        <time>2020-11-25T14:58:37.000+01:00</time>
      </trkpt>
      <trkpt lat="43.68065" lon="4.06862">
        <ele>101.0438947644</ele>
        <time>2020-11-25T14:58:38.000+01:00</time>
      </trkpt>
      <trkpt lat="43.68064" lon="4.06862">
        <ele>101.02888470848</ele>
        <time>2020-11-25T14:58:39.000+01:00</time>
      </trkpt>
      <trkpt lat="43.68063" lon="4.06863">
        <ele>101.01382630101</ele>
        <time>2020-11-25T14:58:40.000+01:00</time>
      </trkpt>
      <trkpt lat="43.68061" lon="4.06865">
        <ele>100.99823426726</ele>
        <time>2020-11-25T14:58:41.000+01:00</time>
      </trkpt>
      <trkpt lat="43.6806" lon="4.06866">
        <ele>100.98283479975</ele>
        <time>2020-11-25T14:58:42.000+01:00</time>
      </trkpt>
      <trkpt lat="43.68059" lon="4.06866">
        <ele>100.96743756735</ele>
        <time>2020-11-25T14:58:43.000+01:00</time>
      </trkpt>
      <trkpt lat="43.68058" lon="4.06867">
        <ele>100.95215957558</ele>
        <time>2020-11-25T14:58:44.000+01:00</time>
      </trkpt>
      <trkpt lat="43.68057" lon="4.06867">
        <ele>100.93695524199</ele>
        <time>2020-11-25T14:58:45.000+01:00</time>
      </trkpt>
      <trkpt lat="43.68057" lon="4.06868">
        <ele>100.92186314427</ele>
        <time>2020-11-25T14:58:46.000+01:00</time>
      </trkpt>
      <trkpt lat="43.68056" lon="4.06868">
        <ele>100.9068114225</ele>
        <time>2020-11-25T14:58:47.000+01:00</time>
      </trkpt>
      <trkpt lat="43.68055" lon="4.06868">
        <ele>100.89177511787</ele>
        <time>2020-11-25T14:58:48.000+01:00</time>
      </trkpt>
      <trkpt lat="43.68054" lon="4.06868">
        <ele>100.87670864364</ele>
        <time>2020-11-25T14:58:49.000+01:00</time>
      </trkpt>
      <trkpt lat="43.68053" lon="4.06868">
        <ele>100.86156066924</ele>
        <time>2020-11-25T14:58:50.000+01:00</time>
      </trkpt>
      <trkpt lat="43.68052" lon="4.06868">
        <ele>100.84620568383</ele>
        <time>2020-11-25T14:58:51.000+01:00</time>
      </trkpt>
      <trkpt lat="43.6805" lon="4.06868">
        <ele>100.83070980702</ele>
        <time>2020-11-25T14:58:52.000+01:00</time>
      </trkpt>
      <trkpt lat="43.68048" lon="4.06868">
        <ele>100.81512285347</ele>
        <time>2020-11-25T14:58:53.000+01:00</time>
      </trkpt>
      <trkpt lat="43.68047" lon="4.06868">
        <ele>100.79937444195</ele>
        <time>2020-11-25T14:58:54.000+01:00</time>
      </trkpt>
      <trkpt lat="43.68045" lon="4.06868">
        <ele>100.78349533114</ele>
        <time>2020-11-25T14:58:55.000+01:00</time>
      </trkpt>
      <trkpt lat="43.68044" lon="4.06868">
        <ele>100.76766333558</ele>
        <time>2020-11-25T14:58:56.000+01:00</time>
      </trkpt>
      <trkpt lat="43.68043" lon="4.06868">
        <ele>100.75181369249</ele>
        <time>2020-11-25T14:58:57.000+01:00</time>
      </trkpt>
      <trkpt lat="43.68041" lon="4.06868">
        <ele>100.73598873212</ele>
        <time>2020-11-25T14:58:58.000+01:00</time>
      </trkpt>
      <trkpt lat="43.68039" lon="4.06868">
        <ele>100.72033746556</ele>
        <time>2020-11-25T14:58:59.000+01:00</time>
      </trkpt>
      <trkpt lat="43.68038" lon="4.06868">
        <ele>100.70476766513</ele>
        <time>2020-11-25T14:59:00.000+01:00</time>
      </trkpt>
      <trkpt lat="43.68037" lon="4.06868">
        <ele>100.68923301534</ele>
        <time>2020-11-25T14:59:01.000+01:00</time>
      </trkpt>
      <trkpt lat="43.68035" lon="4.06868">
        <ele>100.67393984816</ele>
        <time>2020-11-25T14:59:02.000+01:00</time>
      </trkpt>
      <trkpt lat="43.68034" lon="4.06868">
        <ele>100.6588408857</ele>
        <time>2020-11-25T14:59:03.000+01:00</time>
      </trkpt>
      <trkpt lat="43.68033" lon="4.06868">
        <ele>100.64370109</ele>
        <time>2020-11-25T14:59:04.000+01:00</time>
      </trkpt>
      <trkpt lat="43.68032" lon="4.06869">
        <ele>100.62868807417</ele>
        <time>2020-11-25T14:59:05.000+01:00</time>
      </trkpt>
      <trkpt lat="43.68031" lon="4.06869">
        <ele>100.61363702707</ele>
        <time>2020-11-25T14:59:06.000+01:00</time>
      </trkpt>
      <trkpt lat="43.68029" lon="4.06869">
        <ele>100.59870504521</ele>
        <time>2020-11-25T14:59:07.000+01:00</time>
      </trkpt>
      <trkpt lat="43.68028" lon="4.06868">
        <ele>100.58389288106</ele>
        <time>2020-11-25T14:59:08.000+01:00</time>
      </trkpt>
      <trkpt lat="43.68028" lon="4.06868">
        <ele>100.56907984089</ele>
        <time>2020-11-25T14:59:09.000+01:00</time>
      </trkpt>
      <trkpt lat="43.68027" lon="4.06868">
        <ele>100.55436289636</ele>
        <time>2020-11-25T14:59:10.000+01:00</time>
      </trkpt>
      <trkpt lat="43.68027" lon="4.06867">
        <ele>100.53966318881</ele>
        <time>2020-11-25T14:59:11.000+01:00</time>
      </trkpt>
      <trkpt lat="43.68026" lon="4.06867">
        <ele>100.52512400893</ele>
        <time>2020-11-25T14:59:12.000+01:00</time>
      </trkpt>
      <trkpt lat="43.68025" lon="4.06866">
        <ele>100.51071955243</ele>
        <time>2020-11-25T14:59:13.000+01:00</time>
      </trkpt>
      <trkpt lat="43.68024" lon="4.06866">
        <ele>100.49640655098</ele>
        <time>2020-11-25T14:59:14.000+01:00</time>
      </trkpt>
      <trkpt lat="43.68022" lon="4.06866">
        <ele>100.48231366827</ele>
        <time>2020-11-25T14:59:15.000+01:00</time>
      </trkpt>
      <trkpt lat="43.68022" lon="4.06865">
        <ele>100.4683723471</ele>
        <time>2020-11-25T14:59:16.000+01:00</time>
      </trkpt>
      <trkpt lat="43.68021" lon="4.06865">
        <ele>100.45431582486</ele>
        <time>2020-11-25T14:59:17.000+01:00</time>
      </trkpt>
      <trkpt lat="43.6802" lon="4.06865">
        <ele>100.44019836367</ele>
        <time>2020-11-25T14:59:18.000+01:00</time>
      </trkpt>
      <trkpt lat="43.68019" lon="4.06864">
        <ele>100.42610751624</ele>
        <time>2020-11-25T14:59:19.000+01:00</time>
      </trkpt>
      <trkpt lat="43.68018" lon="4.06864">
        <ele>100.41196361042</ele>
        <time>2020-11-25T14:59:20.000+01:00</time>
      </trkpt>
      <trkpt lat="43.68017" lon="4.06864">
        <ele>100.39762462615</ele>
        <time>2020-11-25T14:59:21.000+01:00</time>
      </trkpt>
      <trkpt lat="43.68016" lon="4.06864">
        <ele>100.38323895467</ele>
        <time>2020-11-25T14:59:22.000+01:00</time>
      </trkpt>
      <trkpt lat="43.68015" lon="4.06863">
        <ele>100.36886986664</ele>
        <time>2020-11-25T14:59:23.000+01:00</time>
      </trkpt>
      <trkpt lat="43.68014" lon="4.06863">
        <ele>100.35467113374</ele>
        <time>2020-11-25T14:59:24.000+01:00</time>
      </trkpt>
      <trkpt lat="43.68013" lon="4.06864">
        <ele>100.34065140332</ele>
        <time>2020-11-25T14:59:25.000+01:00</time>
      </trkpt>
      <trkpt lat="43.68012" lon="4.06863">
        <ele>100.32673062194</ele>
        <time>2020-11-25T14:59:26.000+01:00</time>
      </trkpt>
      <trkpt lat="43.68011" lon="4.06864">
        <ele>100.31310984113</ele>
        <time>2020-11-25T14:59:27.000+01:00</time>
      </trkpt>
      <trkpt lat="43.6801" lon="4.06864">
        <ele>100.29965778944</ele>
        <time>2020-11-25T14:59:28.000+01:00</time>
      </trkpt>
      <trkpt lat="43.6801" lon="4.06864">
        <ele>100.28636040464</ele>
        <time>2020-11-25T14:59:29.000+01:00</time>
      </trkpt>
      <trkpt lat="43.68008" lon="4.06863">
        <ele>100.27303150645</ele>
        <time>2020-11-25T14:59:30.000+01:00</time>
      </trkpt>
      <trkpt lat="43.68007" lon="4.06863">
        <ele>100.25980310944</ele>
        <time>2020-11-25T14:59:31.000+01:00</time>
      </trkpt>
      <trkpt lat="43.68006" lon="4.06863">
        <ele>100.24663377096</ele>
        <time>2020-11-25T14:59:32.000+01:00</time>
      </trkpt>
      <trkpt lat="43.68005" lon="4.06863">
        <ele>100.23355192436</ele>
        <time>2020-11-25T14:59:33.000+01:00</time>
      </trkpt>
      <trkpt lat="43.68003" lon="4.06862">
        <ele>100.22055426343</ele>
        <time>2020-11-25T14:59:34.000+01:00</time>
      </trkpt>
      <trkpt lat="43.68001" lon="4.06862">
        <ele>100.20759351046</ele>
        <time>2020-11-25T14:59:35.000+01:00</time>
      </trkpt>
      <trkpt lat="43.68" lon="4.06862">
        <ele>100.19470013176</ele>
        <time>2020-11-25T14:59:36.000+01:00</time>
      </trkpt>
      <trkpt lat="43.67999" lon="4.06862">
        <ele>100.18196809911</ele>
        <time>2020-11-25T14:59:37.000+01:00</time>
      </trkpt>
      <trkpt lat="43.67998" lon="4.06862">
        <ele>100.16937539813</ele>
        <time>2020-11-25T14:59:38.000+01:00</time>
      </trkpt>
      <trkpt lat="43.67997" lon="4.06862">
        <ele>100.15689066584</ele>
        <time>2020-11-25T14:59:39.000+01:00</time>
      </trkpt>
      <trkpt lat="43.67996" lon="4.06862">
        <ele>100.14456798239</ele>
        <time>2020-11-25T14:59:40.000+01:00</time>
      </trkpt>
      <trkpt lat="43.67995" lon="4.06862">
        <ele>100.13222033908</ele>
        <time>2020-11-25T14:59:41.000+01:00</time>
      </trkpt>
      <trkpt lat="43.67994" lon="4.06862">
        <ele>100.11986115364</ele>
        <time>2020-11-25T14:59:42.000+01:00</time>
      </trkpt>
      <trkpt lat="43.67993" lon="4.06862">
        <ele>100.1074606735</ele>
        <time>2020-11-25T14:59:43.000+01:00</time>
      </trkpt>
      <trkpt lat="43.67992" lon="4.06862">
        <ele>100.09514244023</ele>
        <time>2020-11-25T14:59:44.000+01:00</time>
      </trkpt>
      <trkpt lat="43.67992" lon="4.06862">
        <ele>100.08294239535</ele>
        <time>2020-11-25T14:59:45.000+01:00</time>
      </trkpt>
      <trkpt lat="43.67991" lon="4.06863">
        <ele>100.07093772484</ele>
        <time>2020-11-25T14:59:46.000+01:00</time>
      </trkpt>
      <trkpt lat="43.6799" lon="4.06863">
        <ele>100.05877797231</ele>
        <time>2020-11-25T14:59:47.000+01:00</time>
      </trkpt>
      <trkpt lat="43.67989" lon="4.06863">
        <ele>100.04666152327</ele>
        <time>2020-11-25T14:59:48.000+01:00</time>
      </trkpt>
      <trkpt lat="43.67988" lon="4.06864">
        <ele>100.0346574302</ele>
        <time>2020-11-25T14:59:49.000+01:00</time>
      </trkpt>
      <trkpt lat="43.67987" lon="4.06865">
        <ele>100.02255366239</ele>
        <time>2020-11-25T14:59:50.000+01:00</time>
      </trkpt>
      <trkpt lat="43.67985" lon="4.06865">
        <ele>100.01049833754</ele>
        <time>2020-11-25T14:59:51.000+01:00</time>
      </trkpt>
      <trkpt lat="43.67984" lon="4.06865">
        <ele>99.998648237703</ele>
        <time>2020-11-25T14:59:52.000+01:00</time>
      </trkpt>
      <trkpt lat="43.67983" lon="4.06865">
        <ele>99.986900103771</ele>
        <time>2020-11-25T14:59:53.000+01:00</time>
      </trkpt>
      <trkpt lat="43.67982" lon="4.06865">
        <ele>99.975324962549</ele>
        <time>2020-11-25T14:59:54.000+01:00</time>
      </trkpt>
      <trkpt lat="43.67981" lon="4.06865">
        <ele>99.9638967658</ele>
        <time>2020-11-25T14:59:55.000+01:00</time>
      </trkpt>
      <trkpt lat="43.6798" lon="4.06866">
        <ele>99.952456652571</ele>
        <time>2020-11-25T14:59:56.000+01:00</time>
      </trkpt>
      <trkpt lat="43.6798" lon="4.06866">
        <ele>99.940971437209</ele>
        <time>2020-11-25T14:59:57.000+01:00</time>
      </trkpt>
      <trkpt lat="43.67978" lon="4.06866">
        <ele>99.929721193992</ele>
        <time>2020-11-25T14:59:58.000+01:00</time>
      </trkpt>
      <trkpt lat="43.67978" lon="4.06866">
        <ele>99.918519364981</ele>
        <time>2020-11-25T14:59:59.000+01:00</time>
      </trkpt>
      <trkpt lat="43.67977" lon="4.06866">
        <ele>99.907429570877</ele>
        <time>2020-11-25T15:00:00.000+01:00</time>
      </trkpt>
      <trkpt lat="43.67976" lon="4.06866">
        <ele>99.896381400464</ele>
        <time>2020-11-25T15:00:01.000+01:00</time>
      </trkpt>
      <trkpt lat="43.67975" lon="4.06866">
        <ele>99.885456046156</ele>
        <time>2020-11-25T15:00:02.000+01:00</time>
      </trkpt>
      <trkpt lat="43.67974" lon="4.06865">
        <ele>99.874515117336</ele>
        <time>2020-11-25T15:00:03.000+01:00</time>
      </trkpt>
      <trkpt lat="43.67973" lon="4.06865">
        <ele>99.863598022952</ele>
        <time>2020-11-25T15:00:04.000+01:00</time>
      </trkpt>
      <trkpt lat="43.67972" lon="4.06865">
        <ele>99.852719670304</ele>
        <time>2020-11-25T15:00:05.000+01:00</time>
      </trkpt>
      <trkpt lat="43.67971" lon="4.06864">
        <ele>99.841905101809</ele>
        <time>2020-11-25T15:00:06.000+01:00</time>
      </trkpt>
      <trkpt lat="43.67969" lon="4.06864">
        <ele>99.831153582379</ele>
        <time>2020-11-25T15:00:07.000+01:00</time>
      </trkpt>
      <trkpt lat="43.67968" lon="4.06864">
        <ele>99.820258692444</ele>
        <time>2020-11-25T15:00:08.000+01:00</time>
      </trkpt>
      <trkpt lat="43.67967" lon="4.06863">
        <ele>99.809298469222</ele>
        <time>2020-11-25T15:00:09.000+01:00</time>
      </trkpt>
      <trkpt lat="43.67966" lon="4.06863">
        <ele>99.798303085906</ele>
        <time>2020-11-25T15:00:10.000+01:00</time>
      </trkpt>
      <trkpt lat="43.67965" lon="4.06863">
        <ele>99.787158366444</ele>
        <time>2020-11-25T15:00:11.000+01:00</time>
      </trkpt>
      <trkpt lat="43.67964" lon="4.06863">
        <ele>99.775984969697</ele>
        <time>2020-11-25T15:00:12.000+01:00</time>
      </trkpt>
      <trkpt lat="43.67963" lon="4.06863">
        <ele>99.764832856508</ele>
        <time>2020-11-25T15:00:13.000+01:00</time>
      </trkpt>
      <trkpt lat="43.67962" lon="4.06864">
        <ele>99.753706929981</ele>
        <time>2020-11-25T15:00:14.000+01:00</time>
      </trkpt>
      <trkpt lat="43.67961" lon="4.06864">
        <ele>99.742634997614</ele>
        <time>2020-11-25T15:00:15.000+01:00</time>
      </trkpt>
      <trkpt lat="43.6796" lon="4.06864">
        <ele>99.731627735215</ele>
        <time>2020-11-25T15:00:16.000+01:00</time>
      </trkpt>
      <trkpt lat="43.67958" lon="4.06864">
        <ele>99.720550611187</ele>
        <time>2020-11-25T15:00:17.000+01:00</time>
      </trkpt>
      <trkpt lat="43.67957" lon="4.06863">
        <ele>99.709556843723</ele>
        <time>2020-11-25T15:00:18.000+01:00</time>
      </trkpt>
      <trkpt lat="43.67955" lon="4.06863">
        <ele>99.698781416234</ele>
        <time>2020-11-25T15:00:19.000+01:00</time>
      </trkpt>
      <trkpt lat="43.67954" lon="4.06863">
        <ele>99.688212284365</ele>
        <time>2020-11-25T15:00:20.000+01:00</time>
      </trkpt>
      <trkpt lat="43.67953" lon="4.06863">
        <ele>99.6775771724</ele>
        <time>2020-11-25T15:00:21.000+01:00</time>
      </trkpt>
      <trkpt lat="43.67952" lon="4.06863">
        <ele>99.666993642449</ele>
        <time>2020-11-25T15:00:22.000+01:00</time>
      </trkpt>
      <trkpt lat="43.67951" lon="4.06862">
        <ele>99.656425548286</ele>
        <time>2020-11-25T15:00:23.000+01:00</time>
      </trkpt>
      <trkpt lat="43.6795" lon="4.06862">
        <ele>99.645946020451</ele>
        <time>2020-11-25T15:00:24.000+01:00</time>
      </trkpt>
      <trkpt lat="43.67949" lon="4.06862">
        <ele>99.635493307362</ele>
        <time>2020-11-25T15:00:25.000+01:00</time>
      </trkpt>
      <trkpt lat="43.67948" lon="4.06862">
        <ele>99.625132262098</ele>
        <time>2020-11-25T15:00:26.000+01:00</time>
      </trkpt>
      <trkpt lat="43.67947" lon="4.06862">
        <ele>99.614924101852</ele>
        <time>2020-11-25T15:00:27.000+01:00</time>
      </trkpt>
      <trkpt lat="43.67947" lon="4.06862">
        <ele>99.604677332885</ele>
        <time>2020-11-25T15:00:28.000+01:00</time>
      </trkpt>
      <trkpt lat="43.67946" lon="4.06862">
        <ele>99.594334372259</ele>
        <time>2020-11-25T15:00:29.000+01:00</time>
      </trkpt>
      <trkpt lat="43.67945" lon="4.06862">
        <ele>99.584002053713</ele>
        <time>2020-11-25T15:00:30.000+01:00</time>
      </trkpt>
      <trkpt lat="43.67943" lon="4.06862">
        <ele>99.573645801627</ele>
        <time>2020-11-25T15:00:31.000+01:00</time>
      </trkpt>
      <trkpt lat="43.67942" lon="4.06861">
        <ele>99.563147076001</ele>
        <time>2020-11-25T15:00:32.000+01:00</time>
      </trkpt>
      <trkpt lat="43.67941" lon="4.06861">
        <ele>99.552692535904</ele>
        <time>2020-11-25T15:00:33.000+01:00</time>
      </trkpt>
      <trkpt lat="43.6794" lon="4.06861">
        <ele>99.542160426992</ele>
        <time>2020-11-25T15:00:34.000+01:00</time>
      </trkpt>
      <trkpt lat="43.67939" lon="4.06861">
        <ele>99.531705085453</ele>
        <time>2020-11-25T15:00:35.000+01:00</time>
      </trkpt>
      <trkpt lat="43.67938" lon="4.06861">
        <ele>99.521130802035</ele>
        <time>2020-11-25T15:00:36.000+01:00</time>
      </trkpt>
      <trkpt lat="43.67937" lon="4.06861">
        <ele>99.510555211668</ele>
        <time>2020-11-25T15:00:37.000+01:00</time>
      </trkpt>
      <trkpt lat="43.67937" lon="4.06861">
        <ele>99.499857957875</ele>
        <time>2020-11-25T15:00:38.000+01:00</time>
      </trkpt>
      <trkpt lat="43.67936" lon="4.06861">
        <ele>99.489081146427</ele>
        <time>2020-11-25T15:00:39.000+01:00</time>
      </trkpt>
      <trkpt lat="43.67935" lon="4.0686">
        <ele>99.47819516427</ele>
        <time>2020-11-25T15:00:40.000+01:00</time>
      </trkpt>
      <trkpt lat="43.67933" lon="4.0686">
        <ele>99.467263755153</ele>
        <time>2020-11-25T15:00:41.000+01:00</time>
      </trkpt>
      <trkpt lat="43.67933" lon="4.0686">
        <ele>99.456326646249</ele>
        <time>2020-11-25T15:00:42.000+01:00</time>
      </trkpt>
      <trkpt lat="43.67932" lon="4.06859">
        <ele>99.44543422178</ele>
        <time>2020-11-25T15:00:43.000+01:00</time>
      </trkpt>
      <trkpt lat="43.67931" lon="4.06859">
        <ele>99.434559479453</ele>
        <time>2020-11-25T15:00:44.000+01:00</time>
      </trkpt>
      <trkpt lat="43.6793" lon="4.06859">
        <ele>99.423592551467</ele>
        <time>2020-11-25T15:00:45.000+01:00</time>
      </trkpt>
      <trkpt lat="43.67929" lon="4.06858">
        <ele>99.412744176691</ele>
        <time>2020-11-25T15:00:46.000+01:00</time>
      </trkpt>
      <trkpt lat="43.67928" lon="4.06858">
        <ele>99.401921620695</ele>
        <time>2020-11-25T15:00:47.000+01:00</time>
      </trkpt>
      <trkpt lat="43.67926" lon="4.06858">
        <ele>99.391051611002</ele>
        <time>2020-11-25T15:00:48.000+01:00</time>
      </trkpt>
      <trkpt lat="43.67925" lon="4.06858">
        <ele>99.380132129074</ele>
        <time>2020-11-25T15:00:49.000+01:00</time>
      </trkpt>
      <trkpt lat="43.67924" lon="4.06857">
        <ele>99.369155774662</ele>
        <time>2020-11-25T15:00:50.000+01:00</time>
      </trkpt>
      <trkpt lat="43.67923" lon="4.06857">
        <ele>99.358207261932</ele>
        <time>2020-11-25T15:00:51.000+01:00</time>
      </trkpt>
      <trkpt lat="43.67922" lon="4.06857">
        <ele>99.347267712152</ele>
        <time>2020-11-25T15:00:52.000+01:00</time>
      </trkpt>
      <trkpt lat="43.67921" lon="4.06857">
        <ele>99.336273117325</ele>
        <time>2020-11-25T15:00:53.000+01:00</time>
      </trkpt>
      <trkpt lat="43.6792" lon="4.06856">
        <ele>99.325142675767</ele>
        <time>2020-11-25T15:00:54.000+01:00</time>
      </trkpt>
      <trkpt lat="43.67918" lon="4.06856">
        <ele>99.313933185764</ele>
        <time>2020-11-25T15:00:55.000+01:00</time>
      </trkpt>
      <trkpt lat="43.67917" lon="4.06857">
        <ele>99.302596174143</ele>
        <time>2020-11-25T15:00:56.000+01:00</time>
      </trkpt>
      <trkpt lat="43.67917" lon="4.06857">
        <ele>99.291263642408</ele>
        <time>2020-11-25T15:00:57.000+01:00</time>
      </trkpt>
      <trkpt lat="43.67916" lon="4.06857">
        <ele>99.279845225758</ele>
        <time>2020-11-25T15:00:58.000+01:00</time>
      </trkpt>
      <trkpt lat="43.67915" lon="4.06857">
        <ele>99.268281772663</ele>
        <time>2020-11-25T15:00:59.000+01:00</time>
      </trkpt>
      <trkpt lat="43.67914" lon="4.06857">
        <ele>99.256562643326</ele>
        <time>2020-11-25T15:01:00.000+01:00</time>
      </trkpt>
      <trkpt lat="43.67914" lon="4.06857">
        <ele>99.244816521996</ele>
        <time>2020-11-25T15:01:01.000+01:00</time>
      </trkpt>
      <trkpt lat="43.67913" lon="4.06857">
        <ele>99.232785363124</ele>
        <time>2020-11-25T15:01:02.000+01:00</time>
      </trkpt>
      <trkpt lat="43.67912" lon="4.06856">
        <ele>99.220510042302</ele>
        <time>2020-11-25T15:01:03.000+01:00</time>
      </trkpt>
      <trkpt lat="43.67911" lon="4.06856">
        <ele>99.207910680527</ele>
        <time>2020-11-25T15:01:04.000+01:00</time>
      </trkpt>
      <trkpt lat="43.6791" lon="4.06856">
        <ele>99.195322022227</ele>
        <time>2020-11-25T15:01:05.000+01:00</time>
      </trkpt>
      <trkpt lat="43.67909" lon="4.06855">
        <ele>99.182750583501</ele>
        <time>2020-11-25T15:01:06.000+01:00</time>
      </trkpt>
      <trkpt lat="43.67908" lon="4.06855">
        <ele>99.170202193488</ele>
        <time>2020-11-25T15:01:07.000+01:00</time>
      </trkpt>
      <trkpt lat="43.67907" lon="4.06855">
        <ele>99.157814663615</ele>
        <time>2020-11-25T15:01:08.000+01:00</time>
      </trkpt>
      <trkpt lat="43.67906" lon="4.06855">
        <ele>99.145421832358</ele>
        <time>2020-11-25T15:01:09.000+01:00</time>
      </trkpt>
      <trkpt lat="43.67905" lon="4.06855">
        <ele>99.133497028398</ele>
        <time>2020-11-25T15:01:10.000+01:00</time>
      </trkpt>
      <trkpt lat="43.67904" lon="4.06856">
        <ele>99.121857988945</ele>
        <time>2020-11-25T15:01:11.000+01:00</time>
      </trkpt>
      <trkpt lat="43.67903" lon="4.06855">
        <ele>99.110335340363</ele>
        <time>2020-11-25T15:01:12.000+01:00</time>
      </trkpt>
      <trkpt lat="43.67902" lon="4.06855">
        <ele>99.098887388745</ele>
        <time>2020-11-25T15:01:13.000+01:00</time>
      </trkpt>
      <trkpt lat="43.67901" lon="4.06855">
        <ele>99.087435636193</ele>
        <time>2020-11-25T15:01:14.000+01:00</time>
      </trkpt>
      <trkpt lat="43.679" lon="4.06856">
        <ele>99.076190172309</ele>
        <time>2020-11-25T15:01:15.000+01:00</time>
      </trkpt>
      <trkpt lat="43.67899" lon="4.06855">
        <ele>99.065214427887</ele>
        <time>2020-11-25T15:01:16.000+01:00</time>
      </trkpt>
      <trkpt lat="43.67898" lon="4.06856">
        <ele>99.05466751453</ele>
        <time>2020-11-25T15:01:17.000+01:00</time>
      </trkpt>
      <trkpt lat="43.67897" lon="4.06855">
        <ele>99.044209008546</ele>
        <time>2020-11-25T15:01:18.000+01:00</time>
      </trkpt>
      <trkpt lat="43.67896" lon="4.06855">
        <ele>99.033670301273</ele>
        <time>2020-11-25T15:01:19.000+01:00</time>
      </trkpt>
      <trkpt lat="43.67896" lon="4.06855">
        <ele>99.023330334237</ele>
        <time>2020-11-25T15:01:20.000+01:00</time>
      </trkpt>
      <trkpt lat="43.67895" lon="4.06855">
        <ele>99.013309873944</ele>
        <time>2020-11-25T15:01:21.000+01:00</time>
      </trkpt>
      <trkpt lat="43.67893" lon="4.06854">
        <ele>99.0034903103</ele>
        <time>2020-11-25T15:01:22.000+01:00</time>
      </trkpt>
      <trkpt lat="43.67892" lon="4.06854">
        <ele>98.993832865448</ele>
        <time>2020-11-25T15:01:23.000+01:00</time>
      </trkpt>
      <trkpt lat="43.6789" lon="4.06854">
        <ele>98.984295329934</ele>
        <time>2020-11-25T15:01:24.000+01:00</time>
      </trkpt>
      <trkpt lat="43.67888" lon="4.06854">
        <ele>98.974947654823</ele>
        <time>2020-11-25T15:01:25.000+01:00</time>
      </trkpt>
      <trkpt lat="43.67887" lon="4.06854">
        <ele>98.965790233253</ele>
        <time>2020-11-25T15:01:26.000+01:00</time>
      </trkpt>
      <trkpt lat="43.67885" lon="4.06854">
        <ele>98.956788707932</ele>
        <time>2020-11-25T15:01:27.000+01:00</time>
      </trkpt>
      <trkpt lat="43.67884" lon="4.06854">
        <ele>98.947996046924</ele>
        <time>2020-11-25T15:01:28.000+01:00</time>
      </trkpt>
      <trkpt lat="43.67883" lon="4.06854">
        <ele>98.939254819005</ele>
        <time>2020-11-25T15:01:29.000+01:00</time>
      </trkpt>
      <trkpt lat="43.67881" lon="4.06854">
        <ele>98.930591028652</ele>
        <time>2020-11-25T15:01:30.000+01:00</time>
      </trkpt>
      <trkpt lat="43.6788" lon="4.06854">
        <ele>98.921932236448</ele>
        <time>2020-11-25T15:01:31.000+01:00</time>
      </trkpt>
      <trkpt lat="43.67879" lon="4.06854">
        <ele>98.913362215809</ele>
        <time>2020-11-25T15:01:32.000+01:00</time>
      </trkpt>
      <trkpt lat="43.67878" lon="4.06854">
        <ele>98.904801644687</ele>
        <time>2020-11-25T15:01:33.000+01:00</time>
      </trkpt>
      <trkpt lat="43.67877" lon="4.06854">
        <ele>98.896235866376</ele>
        <time>2020-11-25T15:01:34.000+01:00</time>
      </trkpt>
      <trkpt lat="43.67876" lon="4.06854">
        <ele>98.88758114764</ele>
        <time>2020-11-25T15:01:35.000+01:00</time>
      </trkpt>
      <trkpt lat="43.67875" lon="4.06853">
        <ele>98.878924648032</ele>
        <time>2020-11-25T15:01:36.000+01:00</time>
      </trkpt>
      <trkpt lat="43.67874" lon="4.06854">
        <ele>98.870437347548</ele>
        <time>2020-11-25T15:01:37.000+01:00</time>
      </trkpt>
      <trkpt lat="43.67873" lon="4.06854">
        <ele>98.861947912244</ele>
        <time>2020-11-25T15:01:38.000+01:00</time>
      </trkpt>
      <trkpt lat="43.67871" lon="4.06855">
        <ele>98.853731990874</ele>
        <time>2020-11-25T15:01:39.000+01:00</time>
      </trkpt>
      <trkpt lat="43.6787" lon="4.06855">
        <ele>98.84567129738</ele>
        <time>2020-11-25T15:01:40.000+01:00</time>
      </trkpt>
      <trkpt lat="43.67869" lon="4.06855">
        <ele>98.837674420044</ele>
        <time>2020-11-25T15:01:41.000+01:00</time>
      </trkpt>
      <trkpt lat="43.67868" lon="4.06855">
        <ele>98.829780989666</ele>
        <time>2020-11-25T15:01:42.000+01:00</time>
      </trkpt>
      <trkpt lat="43.67867" lon="4.06855">
        <ele>98.822010703623</ele>
        <time>2020-11-25T15:01:43.000+01:00</time>
      </trkpt>
      <trkpt lat="43.67867" lon="4.06855">
        <ele>98.814308276537</ele>
        <time>2020-11-25T15:01:44.000+01:00</time>
      </trkpt>
      <trkpt lat="43.67866" lon="4.06855">
        <ele>98.806491761317</ele>
        <time>2020-11-25T15:01:45.000+01:00</time>
      </trkpt>
      <trkpt lat="43.67865" lon="4.06855">
        <ele>98.798837576567</ele>
        <time>2020-11-25T15:01:46.000+01:00</time>
      </trkpt>
      <trkpt lat="43.67864" lon="4.06856">
        <ele>98.79136320533</ele>
        <time>2020-11-25T15:01:47.000+01:00</time>
      </trkpt>
      <trkpt lat="43.67862" lon="4.06856">
        <ele>98.783905171317</ele>
        <time>2020-11-25T15:01:48.000+01:00</time>
      </trkpt>
      <trkpt lat="43.67862" lon="4.06856">
        <ele>98.776562091292</ele>
        <time>2020-11-25T15:01:49.000+01:00</time>
      </trkpt>
      <trkpt lat="43.67861" lon="4.06856">
        <ele>98.769268720639</ele>
        <time>2020-11-25T15:01:50.000+01:00</time>
      </trkpt>
      <trkpt lat="43.6786" lon="4.06856">
        <ele>98.761961508658</ele>
        <time>2020-11-25T15:01:51.000+01:00</time>
      </trkpt>
      <trkpt lat="43.67859" lon="4.06857">
        <ele>98.754646576226</ele>
        <time>2020-11-25T15:01:52.000+01:00</time>
      </trkpt>
      <trkpt lat="43.67859" lon="4.06857">
        <ele>98.747325605246</ele>
        <time>2020-11-25T15:01:53.000+01:00</time>
      </trkpt>
      <trkpt lat="43.67858" lon="4.06857">
        <ele>98.740013756394</ele>
        <time>2020-11-25T15:01:54.000+01:00</time>
      </trkpt>
      <trkpt lat="43.67857" lon="4.06857">
        <ele>98.732856228206</ele>
        <time>2020-11-25T15:01:55.000+01:00</time>
      </trkpt>
      <trkpt lat="43.67856" lon="4.06858">
        <ele>98.725763468043</ele>
        <time>2020-11-25T15:01:56.000+01:00</time>
      </trkpt>
      <trkpt lat="43.67854" lon="4.0686">
        <ele>98.719171447667</ele>
        <time>2020-11-25T15:01:57.000+01:00</time>
      </trkpt>
      <trkpt lat="43.67853" lon="4.0686">
        <ele>98.712572618128</ele>
        <time>2020-11-25T15:01:58.000+01:00</time>
      </trkpt>
      <trkpt lat="43.67853" lon="4.0686">
        <ele>98.706103868529</ele>
        <time>2020-11-25T15:01:59.000+01:00</time>
      </trkpt>
      <trkpt lat="43.67852" lon="4.06862">
        <ele>98.699667770028</ele>
        <time>2020-11-25T15:02:00.000+01:00</time>
      </trkpt>
      <trkpt lat="43.67851" lon="4.06862">
        <ele>98.693184314313</ele>
        <time>2020-11-25T15:02:01.000+01:00</time>
      </trkpt>
      <trkpt lat="43.6785" lon="4.06863">
        <ele>98.686721767964</ele>
        <time>2020-11-25T15:02:02.000+01:00</time>
      </trkpt>
      <trkpt lat="43.6785" lon="4.06863">
        <ele>98.680049025254</ele>
        <time>2020-11-25T15:02:03.000+01:00</time>
      </trkpt>
      <trkpt lat="43.67849" lon="4.06864">
        <ele>98.673199348535</ele>
        <time>2020-11-25T15:02:04.000+01:00</time>
      </trkpt>
      <trkpt lat="43.67847" lon="4.06865">
        <ele>98.666325832997</ele>
        <time>2020-11-25T15:02:05.000+01:00</time>
      </trkpt>
      <trkpt lat="43.67847" lon="4.06866">
        <ele>98.659423565648</ele>
        <time>2020-11-25T15:02:06.000+01:00</time>
      </trkpt>
      <trkpt lat="43.67845" lon="4.06868">
        <ele>98.652658025645</ele>
        <time>2020-11-25T15:02:07.000+01:00</time>
      </trkpt>
      <trkpt lat="43.67844" lon="4.06869">
        <ele>98.645878077983</ele>
        <time>2020-11-25T15:02:08.000+01:00</time>
      </trkpt>
      <trkpt lat="43.67844" lon="4.06869">
        <ele>98.639069742674</ele>
        <time>2020-11-25T15:02:09.000+01:00</time>
      </trkpt>
      <trkpt lat="43.67843" lon="4.06871">
        <ele>98.632253388853</ele>
        <time>2020-11-25T15:02:10.000+01:00</time>
      </trkpt>
      <trkpt lat="43.67842" lon="4.06873">
        <ele>98.625455317481</ele>
        <time>2020-11-25T15:02:11.000+01:00</time>
      </trkpt>
      <trkpt lat="43.67842" lon="4.06874">
        <ele>98.618499945684</ele>
        <time>2020-11-25T15:02:12.000+01:00</time>
      </trkpt>
      <trkpt lat="43.67841" lon="4.06875">
        <ele>98.611423886721</ele>
        <time>2020-11-25T15:02:13.000+01:00</time>
      </trkpt>
      <trkpt lat="43.67841" lon="4.06876">
        <ele>98.604040647228</ele>
        <time>2020-11-25T15:02:14.000+01:00</time>
      </trkpt>
      <trkpt lat="43.6784" lon="4.06878">
        <ele>98.596613116404</ele>
        <time>2020-11-25T15:02:15.000+01:00</time>
      </trkpt>
      <trkpt lat="43.6784" lon="4.06879">
        <ele>98.589123642202</ele>
        <time>2020-11-25T15:02:16.000+01:00</time>
      </trkpt>
      <trkpt lat="43.67839" lon="4.0688">
        <ele>98.581456249966</ele>
        <time>2020-11-25T15:02:17.000+01:00</time>
      </trkpt>
      <trkpt lat="43.67838" lon="4.06882">
        <ele>98.573576273167</ele>
        <time>2020-11-25T15:02:18.000+01:00</time>
      </trkpt>
      <trkpt lat="43.67838" lon="4.06883">
        <ele>98.565518284791</ele>
        <time>2020-11-25T15:02:19.000+01:00</time>
      </trkpt>
      <trkpt lat="43.67837" lon="4.06885">
        <ele>98.557420844725</ele>
        <time>2020-11-25T15:02:20.000+01:00</time>
      </trkpt>
      <trkpt lat="43.67836" lon="4.06887">
        <ele>98.549260809858</ele>
        <time>2020-11-25T15:02:21.000+01:00</time>
      </trkpt>
      <trkpt lat="43.67835" lon="4.06889">
        <ele>98.540774172196</ele>
        <time>2020-11-25T15:02:22.000+01:00</time>
      </trkpt>
      <trkpt lat="43.67835" lon="4.0689">
        <ele>98.531960414714</ele>
        <time>2020-11-25T15:02:23.000+01:00</time>
      </trkpt>
      <trkpt lat="43.67834" lon="4.06891">
        <ele>98.523067798595</ele>
        <time>2020-11-25T15:02:24.000+01:00</time>
      </trkpt>
      <trkpt lat="43.67834" lon="4.06892">
        <ele>98.51373020268</ele>
        <time>2020-11-25T15:02:25.000+01:00</time>
      </trkpt>
      <trkpt lat="43.67834" lon="4.06893">
        <ele>98.504150731379</ele>
        <time>2020-11-25T15:02:26.000+01:00</time>
      </trkpt>
      <trkpt lat="43.67834" lon="4.06894">
        <ele>98.493982139952</ele>
        <time>2020-11-25T15:02:27.000+01:00</time>
      </trkpt>
      <trkpt lat="43.67833" lon="4.06895">
        <ele>98.483364266668</ele>
        <time>2020-11-25T15:02:28.000+01:00</time>
      </trkpt>
      <trkpt lat="43.67833" lon="4.06896">
        <ele>98.472286735436</ele>
        <time>2020-11-25T15:02:29.000+01:00</time>
      </trkpt>
      <trkpt lat="43.67833" lon="4.06897">
        <ele>98.460693446754</ele>
        <time>2020-11-25T15:02:30.000+01:00</time>
      </trkpt>
      <trkpt lat="43.67832" lon="4.06899">
        <ele>98.448683024452</ele>
        <time>2020-11-25T15:02:31.000+01:00</time>
      </trkpt>
      <trkpt lat="43.67831" lon="4.06899">
        <ele>98.436462278447</ele>
        <time>2020-11-25T15:02:32.000+01:00</time>
      </trkpt>
      <trkpt lat="43.6783" lon="4.069">
        <ele>98.423946613228</ele>
        <time>2020-11-25T15:02:33.000+01:00</time>
      </trkpt>
      <trkpt lat="43.67829" lon="4.06901">
        <ele>98.411481709338</ele>
        <time>2020-11-25T15:02:34.000+01:00</time>
      </trkpt>
      <trkpt lat="43.67828" lon="4.06902">
        <ele>98.398869210362</ele>
        <time>2020-11-25T15:02:35.000+01:00</time>
      </trkpt>
      <trkpt lat="43.67827" lon="4.06905">
        <ele>98.386034746019</ele>
        <time>2020-11-25T15:02:36.000+01:00</time>
      </trkpt>
      <trkpt lat="43.67825" lon="4.06906">
        <ele>98.373035202077</ele>
        <time>2020-11-25T15:02:37.000+01:00</time>
      </trkpt>
      <trkpt lat="43.67824" lon="4.06908">
        <ele>98.359776911981</ele>
        <time>2020-11-25T15:02:38.000+01:00</time>
      </trkpt>
      <trkpt lat="43.67823" lon="4.06909">
        <ele>98.346626909305</ele>
        <time>2020-11-25T15:02:39.000+01:00</time>
      </trkpt>
      <trkpt lat="43.67823" lon="4.0691">
        <ele>98.333550327586</ele>
        <time>2020-11-25T15:02:40.000+01:00</time>
      </trkpt>
      <trkpt lat="43.67822" lon="4.06911">
        <ele>98.320391559287</ele>
        <time>2020-11-25T15:02:41.000+01:00</time>
      </trkpt>
      <trkpt lat="43.67821" lon="4.06912">
        <ele>98.307204934562</ele>
        <time>2020-11-25T15:02:42.000+01:00</time>
      </trkpt>
      <trkpt lat="43.67821" lon="4.06913">
        <ele>98.293914837781</ele>
        <time>2020-11-25T15:02:43.000+01:00</time>
      </trkpt>
      <trkpt lat="43.67821" lon="4.06914">
        <ele>98.280798516302</ele>
        <time>2020-11-25T15:02:44.000+01:00</time>
      </trkpt>
      <trkpt lat="43.67821" lon="4.06915">
        <ele>98.26770081674</ele>
        <time>2020-11-25T15:02:45.000+01:00</time>
      </trkpt>
      <trkpt lat="43.6782" lon="4.06916">
        <ele>98.254977661621</ele>
        <time>2020-11-25T15:02:46.000+01:00</time>
      </trkpt>
      <trkpt lat="43.6782" lon="4.06917">
        <ele>98.24252085087</ele>
        <time>2020-11-25T15:02:47.000+01:00</time>
      </trkpt>
      <trkpt lat="43.67819" lon="4.06918">
        <ele>98.23017339867</ele>
        <time>2020-11-25T15:02:48.000+01:00</time>
      </trkpt>
      <trkpt lat="43.67818" lon="4.06919">
        <ele>98.217760370539</ele>
        <time>2020-11-25T15:02:49.000+01:00</time>
      </trkpt>
      <trkpt lat="43.67817" lon="4.06921">
        <ele>98.205359386385</ele>
        <time>2020-11-25T15:02:50.000+01:00</time>
      </trkpt>
      <trkpt lat="43.67817" lon="4.06921">
        <ele>98.193026733448</ele>
        <time>2020-11-25T15:02:51.000+01:00</time>
      </trkpt>
      <trkpt lat="43.67816" lon="4.06922">
        <ele>98.180333762243</ele>
        <time>2020-11-25T15:02:52.000+01:00</time>
      </trkpt>
      <trkpt lat="43.67816" lon="4.06923">
        <ele>98.167548084929</ele>
        <time>2020-11-25T15:02:53.000+01:00</time>
      </trkpt>
      <trkpt lat="43.67815" lon="4.06924">
        <ele>98.154859500518</ele>
        <time>2020-11-25T15:02:54.000+01:00</time>
      </trkpt>
      <trkpt lat="43.67815" lon="4.06925">
        <ele>98.142337987073</ele>
        <time>2020-11-25T15:02:55.000+01:00</time>
      </trkpt>
      <trkpt lat="43.67815" lon="4.06926">
        <ele>98.129664486964</ele>
        <time>2020-11-25T15:02:56.000+01:00</time>
      </trkpt>
      <trkpt lat="43.67814" lon="4.06927">
        <ele>98.117162063848</ele>
        <time>2020-11-25T15:02:57.000+01:00</time>
      </trkpt>
      <trkpt lat="43.67814" lon="4.06929">
        <ele>98.104439141669</ele>
        <time>2020-11-25T15:02:58.000+01:00</time>
      </trkpt>
      <trkpt lat="43.67814" lon="4.06931">
        <ele>98.091524072823</ele>
        <time>2020-11-25T15:02:59.000+01:00</time>
      </trkpt>
      <trkpt lat="43.67814" lon="4.06932">
        <ele>98.078390048656</ele>
        <time>2020-11-25T15:03:00.000+01:00</time>
      </trkpt>
      <trkpt lat="43.67814" lon="4.06934">
        <ele>98.065322767536</ele>
        <time>2020-11-25T15:03:01.000+01:00</time>
      </trkpt>
      <trkpt lat="43.67814" lon="4.06936">
        <ele>98.052256966115</ele>
        <time>2020-11-25T15:03:02.000+01:00</time>
      </trkpt>
      <trkpt lat="43.67814" lon="4.06937">
        <ele>98.039286861389</ele>
        <time>2020-11-25T15:03:03.000+01:00</time>
      </trkpt>
      <trkpt lat="43.67813" lon="4.06939">
        <ele>98.025967688474</ele>
        <time>2020-11-25T15:03:04.000+01:00</time>
      </trkpt>
      <trkpt lat="43.67813" lon="4.0694">
        <ele>98.01281487644</ele>
        <time>2020-11-25T15:03:05.000+01:00</time>
      </trkpt>
      <trkpt lat="43.67812" lon="4.06942">
        <ele>97.99969162606</ele>
        <time>2020-11-25T15:03:06.000+01:00</time>
      </trkpt>
      <trkpt lat="43.67812" lon="4.06943">
        <ele>97.986602156264</ele>
        <time>2020-11-25T15:03:07.000+01:00</time>
      </trkpt>
      <trkpt lat="43.67811" lon="4.06944">
        <ele>97.973481681519</ele>
        <time>2020-11-25T15:03:08.000+01:00</time>
      </trkpt>
      <trkpt lat="43.67811" lon="4.06946">
        <ele>97.960367859166</ele>
        <time>2020-11-25T15:03:09.000+01:00</time>
      </trkpt>
      <trkpt lat="43.67811" lon="4.06947">
        <ele>97.947245932556</ele>
        <time>2020-11-25T15:03:10.000+01:00</time>
      </trkpt>
      <trkpt lat="43.67811" lon="4.06949">
        <ele>97.933988356018</ele>
        <time>2020-11-25T15:03:11.000+01:00</time>
      </trkpt>
      <trkpt lat="43.6781" lon="4.0695">
        <ele>97.920674665626</ele>
        <time>2020-11-25T15:03:12.000+01:00</time>
      </trkpt>
      <trkpt lat="43.6781" lon="4.06952">
        <ele>97.907272314445</ele>
        <time>2020-11-25T15:03:13.000+01:00</time>
      </trkpt>
      <trkpt lat="43.67809" lon="4.06953">
        <ele>97.893724809228</ele>
        <time>2020-11-25T15:03:14.000+01:00</time>
      </trkpt>
      <trkpt lat="43.67809" lon="4.06955">
        <ele>97.880091008839</ele>
        <time>2020-11-25T15:03:15.000+01:00</time>
      </trkpt>
      <trkpt lat="43.67808" lon="4.06956">
        <ele>97.866504875385</ele>
        <time>2020-11-25T15:03:16.000+01:00</time>
      </trkpt>
      <trkpt lat="43.67808" lon="4.06957">
        <ele>97.85283615062</ele>
        <time>2020-11-25T15:03:17.000+01:00</time>
      </trkpt>
      <trkpt lat="43.67808" lon="4.06959">
        <ele>97.83909510213</ele>
        <time>2020-11-25T15:03:18.000+01:00</time>
      </trkpt>
      <trkpt lat="43.67808" lon="4.06961">
        <ele>97.825312097766</ele>
        <time>2020-11-25T15:03:19.000+01:00</time>
      </trkpt>
      <trkpt lat="43.67807" lon="4.06962">
        <ele>97.811617009808</ele>
        <time>2020-11-25T15:03:20.000+01:00</time>
      </trkpt>
      <trkpt lat="43.67807" lon="4.06964">
        <ele>97.797915671259</ele>
        <time>2020-11-25T15:03:21.000+01:00</time>
      </trkpt>
      <trkpt lat="43.67806" lon="4.06966">
        <ele>97.784172354046</ele>
        <time>2020-11-25T15:03:22.000+01:00</time>
      </trkpt>
      <trkpt lat="43.67806" lon="4.06967">
        <ele>97.770392843204</ele>
        <time>2020-11-25T15:03:23.000+01:00</time>
      </trkpt>
      <trkpt lat="43.67805" lon="4.06969">
        <ele>97.756643511585</ele>
        <time>2020-11-25T15:03:24.000+01:00</time>
      </trkpt>
      <trkpt lat="43.67805" lon="4.0697">
        <ele>97.742861871164</ele>
        <time>2020-11-25T15:03:25.000+01:00</time>
      </trkpt>
      <trkpt lat="43.67805" lon="4.06971">
        <ele>97.72915056541</ele>
        <time>2020-11-25T15:03:26.000+01:00</time>
      </trkpt>
      <trkpt lat="43.67804" lon="4.06974">
        <ele>97.715554128588</ele>
        <time>2020-11-25T15:03:27.000+01:00</time>
      </trkpt>
      <trkpt lat="43.67803" lon="4.06976">
        <ele>97.702107865245</ele>
        <time>2020-11-25T15:03:28.000+01:00</time>
      </trkpt>
      <trkpt lat="43.67803" lon="4.06978">
        <ele>97.688670142705</ele>
        <time>2020-11-25T15:03:29.000+01:00</time>
      </trkpt>
      <trkpt lat="43.67803" lon="4.06979">
        <ele>97.675270879696</ele>
        <time>2020-11-25T15:03:30.000+01:00</time>
      </trkpt>
      <trkpt lat="43.67802" lon="4.06981">
        <ele>97.662075886521</ele>
        <time>2020-11-25T15:03:31.000+01:00</time>
      </trkpt>
      <trkpt lat="43.67802" lon="4.06982">
        <ele>97.64918791007</ele>
        <time>2020-11-25T15:03:32.000+01:00</time>
      </trkpt>
      <trkpt lat="43.67801" lon="4.06984">
        <ele>97.636653583827</ele>
        <time>2020-11-25T15:03:33.000+01:00</time>
      </trkpt>
      <trkpt lat="43.678" lon="4.06985">
        <ele>97.624363192981</ele>
        <time>2020-11-25T15:03:34.000+01:00</time>
      </trkpt>
      <trkpt lat="43.678" lon="4.06986">
        <ele>97.612408700941</ele>
        <time>2020-11-25T15:03:35.000+01:00</time>
      </trkpt>
      <trkpt lat="43.678" lon="4.06986">
        <ele>97.600693562203</ele>
        <time>2020-11-25T15:03:36.000+01:00</time>
      </trkpt>
      <trkpt lat="43.678" lon="4.06988">
        <ele>97.58918357982</ele>
        <time>2020-11-25T15:03:37.000+01:00</time>
      </trkpt>
      <trkpt lat="43.67799" lon="4.0699">
        <ele>97.578149433828</ele>
        <time>2020-11-25T15:03:38.000+01:00</time>
      </trkpt>
      <trkpt lat="43.67799" lon="4.06991">
        <ele>97.567358687035</ele>
        <time>2020-11-25T15:03:39.000+01:00</time>
      </trkpt>
      <trkpt lat="43.67798" lon="4.06992">
        <ele>97.556734805094</ele>
        <time>2020-11-25T15:03:40.000+01:00</time>
      </trkpt>
      <trkpt lat="43.67798" lon="4.06993">
        <ele>97.546173764661</ele>
        <time>2020-11-25T15:03:41.000+01:00</time>
      </trkpt>
      <trkpt lat="43.67798" lon="4.06994">
        <ele>97.535756211811</ele>
        <time>2020-11-25T15:03:42.000+01:00</time>
      </trkpt>
      <trkpt lat="43.67797" lon="4.06995">
        <ele>97.525549752371</ele>
        <time>2020-11-25T15:03:43.000+01:00</time>
      </trkpt>
      <trkpt lat="43.67796" lon="4.06996">
        <ele>97.515449617912</ele>
        <time>2020-11-25T15:03:44.000+01:00</time>
      </trkpt>
      <trkpt lat="43.67796" lon="4.06997">
        <ele>97.505623206983</ele>
        <time>2020-11-25T15:03:45.000+01:00</time>
      </trkpt>
      <trkpt lat="43.67794" lon="4.06998">
        <ele>97.495903263211</ele>
        <time>2020-11-25T15:03:46.000+01:00</time>
      </trkpt>
      <trkpt lat="43.67793" lon="4.07">
        <ele>97.486592050521</ele>
        <time>2020-11-25T15:03:47.000+01:00</time>
      </trkpt>
      <trkpt lat="43.67792" lon="4.07002">
        <ele>97.477309979227</ele>
        <time>2020-11-25T15:03:48.000+01:00</time>
      </trkpt>
      <trkpt lat="43.67792" lon="4.07003">
        <ele>97.468129673942</ele>
        <time>2020-11-25T15:03:49.000+01:00</time>
      </trkpt>
      <trkpt lat="43.67791" lon="4.07004">
        <ele>97.459005775457</ele>
        <time>2020-11-25T15:03:50.000+01:00</time>
      </trkpt>
      <trkpt lat="43.6779" lon="4.07006">
        <ele>97.449922798167</ele>
        <time>2020-11-25T15:03:51.000+01:00</time>
      </trkpt>
      <trkpt lat="43.6779" lon="4.07007">
        <ele>97.440890139676</ele>
        <time>2020-11-25T15:03:52.000+01:00</time>
      </trkpt>
      <trkpt lat="43.67789" lon="4.07008">
        <ele>97.431740847284</ele>
        <time>2020-11-25T15:03:53.000+01:00</time>
      </trkpt>
      <trkpt lat="43.67789" lon="4.07009">
        <ele>97.422570191166</ele>
        <time>2020-11-25T15:03:54.000+01:00</time>
      </trkpt>
      <trkpt lat="43.67788" lon="4.0701">
        <ele>97.413301847783</ele>
        <time>2020-11-25T15:03:55.000+01:00</time>
      </trkpt>
      <trkpt lat="43.67788" lon="4.07011">
        <ele>97.40398656</ele>
        <time>2020-11-25T15:03:56.000+01:00</time>
      </trkpt>
      <trkpt lat="43.67787" lon="4.07012">
        <ele>97.394464249628</ele>
        <time>2020-11-25T15:03:57.000+01:00</time>
      </trkpt>
      <trkpt lat="43.67787" lon="4.07013">
        <ele>97.384885930961</ele>
        <time>2020-11-25T15:03:58.000+01:00</time>
      </trkpt>
      <trkpt lat="43.67786" lon="4.07014">
        <ele>97.375099301032</ele>
        <time>2020-11-25T15:03:59.000+01:00</time>
      </trkpt>
      <trkpt lat="43.67786" lon="4.07016">
        <ele>97.36523667247</ele>
        <time>2020-11-25T15:04:00.000+01:00</time>
      </trkpt>
      <trkpt lat="43.67786" lon="4.07018">
        <ele>97.355534563263</ele>
        <time>2020-11-25T15:04:01.000+01:00</time>
      </trkpt>
      <trkpt lat="43.67786" lon="4.0702">
        <ele>97.345848994484</ele>
        <time>2020-11-25T15:04:02.000+01:00</time>
      </trkpt>
      <trkpt lat="43.67785" lon="4.07021">
        <ele>97.336127553566</ele>
        <time>2020-11-25T15:04:03.000+01:00</time>
      </trkpt>
      <trkpt lat="43.67785" lon="4.07022">
        <ele>97.326399787908</ele>
        <time>2020-11-25T15:04:04.000+01:00</time>
      </trkpt>
      <trkpt lat="43.67785" lon="4.07024">
        <ele>97.316773481842</ele>
        <time>2020-11-25T15:04:05.000+01:00</time>
      </trkpt>
      <trkpt lat="43.67785" lon="4.07026">
        <ele>97.3071084348</ele>
        <time>2020-11-25T15:04:06.000+01:00</time>
      </trkpt>
      <trkpt lat="43.67785" lon="4.07027">
        <ele>97.29727382158</ele>
        <time>2020-11-25T15:04:07.000+01:00</time>
      </trkpt>
      <trkpt lat="43.67785" lon="4.07028">
        <ele>97.287342302418</ele>
        <time>2020-11-25T15:04:08.000+01:00</time>
      </trkpt>
      <trkpt lat="43.67785" lon="4.0703">
        <ele>97.277501541955</ele>
        <time>2020-11-25T15:04:09.000+01:00</time>
      </trkpt>
      <trkpt lat="43.67785" lon="4.07031">
        <ele>97.267505154993</ele>
        <time>2020-11-25T15:04:10.000+01:00</time>
      </trkpt>
      <trkpt lat="43.67785" lon="4.07032">
        <ele>97.257453594492</ele>
        <time>2020-11-25T15:04:11.000+01:00</time>
      </trkpt>
      <trkpt lat="43.67786" lon="4.07033">
        <ele>97.247390721449</ele>
        <time>2020-11-25T15:04:12.000+01:00</time>
      </trkpt>
      <trkpt lat="43.67786" lon="4.07034">
        <ele>97.237092032598</ele>
        <time>2020-11-25T15:04:13.000+01:00</time>
      </trkpt>
      <trkpt lat="43.67787" lon="4.07035">
        <ele>97.226774298452</ele>
        <time>2020-11-25T15:04:14.000+01:00</time>
      </trkpt>
      <trkpt lat="43.67786" lon="4.07036">
        <ele>97.216483671584</ele>
        <time>2020-11-25T15:04:15.000+01:00</time>
      </trkpt>
      <trkpt lat="43.67786" lon="4.07038">
        <ele>97.206137925278</ele>
        <time>2020-11-25T15:04:16.000+01:00</time>
      </trkpt>
      <trkpt lat="43.67787" lon="4.07039">
        <ele>97.19567079003</ele>
        <time>2020-11-25T15:04:17.000+01:00</time>
      </trkpt>
      <trkpt lat="43.67787" lon="4.0704">
        <ele>97.185195143054</ele>
        <time>2020-11-25T15:04:18.000+01:00</time>
      </trkpt>
      <trkpt lat="43.67788" lon="4.07042">
        <ele>97.174460850565</ele>
        <time>2020-11-25T15:04:19.000+01:00</time>
      </trkpt>
      <trkpt lat="43.67788" lon="4.07044">
        <ele>97.163545059234</ele>
        <time>2020-11-25T15:04:20.000+01:00</time>
      </trkpt>
      <trkpt lat="43.67789" lon="4.07046">
        <ele>97.152529366858</ele>
        <time>2020-11-25T15:04:21.000+01:00</time>
      </trkpt>
      <trkpt lat="43.67789" lon="4.07048">
        <ele>97.141602630973</ele>
        <time>2020-11-25T15:04:22.000+01:00</time>
      </trkpt>
      <trkpt lat="43.6779" lon="4.0705">
        <ele>97.130813540672</ele>
        <time>2020-11-25T15:04:23.000+01:00</time>
      </trkpt>
      <trkpt lat="43.6779" lon="4.07051">
        <ele>97.119955294306</ele>
        <time>2020-11-25T15:04:24.000+01:00</time>
      </trkpt>
      <trkpt lat="43.67791" lon="4.07054">
        <ele>97.10915569593</ele>
        <time>2020-11-25T15:04:25.000+01:00</time>
      </trkpt>
      <trkpt lat="43.67791" lon="4.07056">
        <ele>97.098288165045</ele>
        <time>2020-11-25T15:04:26.000+01:00</time>
      </trkpt>
      <trkpt lat="43.67791" lon="4.07058">
        <ele>97.087231414984</ele>
        <time>2020-11-25T15:04:27.000+01:00</time>
      </trkpt>
      <trkpt lat="43.67792" lon="4.0706">
        <ele>97.075913900324</ele>
        <time>2020-11-25T15:04:28.000+01:00</time>
      </trkpt>
      <trkpt lat="43.67792" lon="4.07062">
        <ele>97.064518423023</ele>
        <time>2020-11-25T15:04:29.000+01:00</time>
      </trkpt>
      <trkpt lat="43.67793" lon="4.07063">
        <ele>97.053030731011</ele>
        <time>2020-11-25T15:04:30.000+01:00</time>
      </trkpt>
      <trkpt lat="43.67793" lon="4.07065">
        <ele>97.041408047836</ele>
        <time>2020-11-25T15:04:31.000+01:00</time>
      </trkpt>
      <trkpt lat="43.67794" lon="4.07066">
        <ele>97.029578115429</ele>
        <time>2020-11-25T15:04:32.000+01:00</time>
      </trkpt>
      <trkpt lat="43.67794" lon="4.07067">
        <ele>97.017611938811</ele>
        <time>2020-11-25T15:04:33.000+01:00</time>
      </trkpt>
      <trkpt lat="43.67794" lon="4.07068">
        <ele>97.00562577512</ele>
        <time>2020-11-25T15:04:34.000+01:00</time>
      </trkpt>
      <trkpt lat="43.67794" lon="4.07068">
        <ele>96.993404571574</ele>
        <time>2020-11-25T15:04:35.000+01:00</time>
      </trkpt>
      <trkpt lat="43.67795" lon="4.07069">
        <ele>96.980841014754</ele>
        <time>2020-11-25T15:04:36.000+01:00</time>
      </trkpt>
      <trkpt lat="43.67795" lon="4.0707">
        <ele>96.96777244324</ele>
        <time>2020-11-25T15:04:37.000+01:00</time>
      </trkpt>
      <trkpt lat="43.67796" lon="4.07071">
        <ele>96.954113924298</ele>
        <time>2020-11-25T15:04:38.000+01:00</time>
      </trkpt>
      <trkpt lat="43.67796" lon="4.07072">
        <ele>96.939850687202</ele>
        <time>2020-11-25T15:04:39.000+01:00</time>
      </trkpt>
      <trkpt lat="43.67797" lon="4.07073">
        <ele>96.925522901909</ele>
        <time>2020-11-25T15:04:40.000+01:00</time>
      </trkpt>
      <trkpt lat="43.67797" lon="4.07074">
        <ele>96.911023987624</ele>
        <time>2020-11-25T15:04:41.000+01:00</time>
      </trkpt>
      <trkpt lat="43.67798" lon="4.07075">
        <ele>96.89655735445</ele>
        <time>2020-11-25T15:04:42.000+01:00</time>
      </trkpt>
      <trkpt lat="43.67799" lon="4.07076">
        <ele>96.882210478263</ele>
        <time>2020-11-25T15:04:43.000+01:00</time>
      </trkpt>
      <trkpt lat="43.678" lon="4.07077">
        <ele>96.867832554268</ele>
        <time>2020-11-25T15:04:44.000+01:00</time>
      </trkpt>
      <trkpt lat="43.67801" lon="4.07078">
        <ele>96.853390787682</ele>
        <time>2020-11-25T15:04:45.000+01:00</time>
      </trkpt>
      <trkpt lat="43.67802" lon="4.0708">
        <ele>96.838975875408</ele>
        <time>2020-11-25T15:04:46.000+01:00</time>
      </trkpt>
      <trkpt lat="43.67803" lon="4.07081">
        <ele>96.824588399686</ele>
        <time>2020-11-25T15:04:47.000+01:00</time>
      </trkpt>
      <trkpt lat="43.67804" lon="4.07082">
        <ele>96.810279682069</ele>
        <time>2020-11-25T15:04:48.000+01:00</time>
      </trkpt>
      <trkpt lat="43.67805" lon="4.07083">
        <ele>96.796024720918</ele>
        <time>2020-11-25T15:04:49.000+01:00</time>
      </trkpt>
      <trkpt lat="43.67806" lon="4.07084">
        <ele>96.78184144226</ele>
        <time>2020-11-25T15:04:50.000+01:00</time>
      </trkpt>
      <trkpt lat="43.67806" lon="4.07085">
        <ele>96.767774467169</ele>
        <time>2020-11-25T15:04:51.000+01:00</time>
      </trkpt>
      <trkpt lat="43.67806" lon="4.07086">
        <ele>96.753731498582</ele>
        <time>2020-11-25T15:04:52.000+01:00</time>
      </trkpt>
      <trkpt lat="43.67806" lon="4.07087">
        <ele>96.739719136721</ele>
        <time>2020-11-25T15:04:53.000+01:00</time>
      </trkpt>
      <trkpt lat="43.67807" lon="4.07088">
        <ele>96.725592325125</ele>
        <time>2020-11-25T15:04:54.000+01:00</time>
      </trkpt>
      <trkpt lat="43.67807" lon="4.07089">
        <ele>96.711520834592</ele>
        <time>2020-11-25T15:04:55.000+01:00</time>
      </trkpt>
      <trkpt lat="43.67807" lon="4.0709">
        <ele>96.697379836662</ele>
        <time>2020-11-25T15:04:56.000+01:00</time>
      </trkpt>
      <trkpt lat="43.67807" lon="4.0709">
        <ele>96.683415607681</ele>
        <time>2020-11-25T15:04:57.000+01:00</time>
      </trkpt>
      <trkpt lat="43.67807" lon="4.07091">
        <ele>96.669665505134</ele>
        <time>2020-11-25T15:04:58.000+01:00</time>
      </trkpt>
      <trkpt lat="43.67808" lon="4.07092">
        <ele>96.656190960675</ele>
        <time>2020-11-25T15:04:59.000+01:00</time>
      </trkpt>
      <trkpt lat="43.67808" lon="4.07093">
        <ele>96.642862131621</ele>
        <time>2020-11-25T15:05:00.000+01:00</time>
      </trkpt>
      <trkpt lat="43.67808" lon="4.07095">
        <ele>96.629659937437</ele>
        <time>2020-11-25T15:05:01.000+01:00</time>
      </trkpt>
      <trkpt lat="43.67808" lon="4.07096">
        <ele>96.616376137813</ele>
        <time>2020-11-25T15:05:02.000+01:00</time>
      </trkpt>
      <trkpt lat="43.67808" lon="4.07098">
        <ele>96.603262015514</ele>
        <time>2020-11-25T15:05:03.000+01:00</time>
      </trkpt>
      <trkpt lat="43.67808" lon="4.071">
        <ele>96.590185075291</ele>
        <time>2020-11-25T15:05:04.000+01:00</time>
      </trkpt>
      <trkpt lat="43.67807" lon="4.07101">
        <ele>96.577166935377</ele>
        <time>2020-11-25T15:05:05.000+01:00</time>
      </trkpt>
      <trkpt lat="43.67807" lon="4.07103">
        <ele>96.564174558308</ele>
        <time>2020-11-25T15:05:06.000+01:00</time>
      </trkpt>
      <trkpt lat="43.67806" lon="4.07105">
        <ele>96.551299917503</ele>
        <time>2020-11-25T15:05:07.000+01:00</time>
      </trkpt>
      <trkpt lat="43.67806" lon="4.07107">
        <ele>96.538226248341</ele>
        <time>2020-11-25T15:05:08.000+01:00</time>
      </trkpt>
      <trkpt lat="43.67805" lon="4.07109">
        <ele>96.525211678293</ele>
        <time>2020-11-25T15:05:09.000+01:00</time>
      </trkpt>
      <trkpt lat="43.67805" lon="4.0711">
        <ele>96.511958165924</ele>
        <time>2020-11-25T15:05:10.000+01:00</time>
      </trkpt>
      <trkpt lat="43.67804" lon="4.07112">
        <ele>96.498568974018</ele>
        <time>2020-11-25T15:05:11.000+01:00</time>
      </trkpt>
      <trkpt lat="43.67804" lon="4.07114">
        <ele>96.485210996599</ele>
        <time>2020-11-25T15:05:12.000+01:00</time>
      </trkpt>
      <trkpt lat="43.67804" lon="4.07115">
        <ele>96.471945277069</ele>
        <time>2020-11-25T15:05:13.000+01:00</time>
      </trkpt>
      <trkpt lat="43.67804" lon="4.07117">
        <ele>96.458742280063</ele>
        <time>2020-11-25T15:05:14.000+01:00</time>
      </trkpt>
      <trkpt lat="43.67803" lon="4.07118">
        <ele>96.445657668235</ele>
        <time>2020-11-25T15:05:15.000+01:00</time>
      </trkpt>
      <trkpt lat="43.67803" lon="4.0712">
        <ele>96.432430769114</ele>
        <time>2020-11-25T15:05:16.000+01:00</time>
      </trkpt>
      <trkpt lat="43.67803" lon="4.07122">
        <ele>96.419130177243</ele>
        <time>2020-11-25T15:05:17.000+01:00</time>
      </trkpt>
      <trkpt lat="43.67803" lon="4.07123">
        <ele>96.405795105947</ele>
        <time>2020-11-25T15:05:18.000+01:00</time>
      </trkpt>
      <trkpt lat="43.67803" lon="4.07123">
        <ele>96.392454128561</ele>
        <time>2020-11-25T15:05:19.000+01:00</time>
      </trkpt>
      <trkpt lat="43.67803" lon="4.07124">
        <ele>96.379109483132</ele>
        <time>2020-11-25T15:05:20.000+01:00</time>
      </trkpt>
      <trkpt lat="43.67802" lon="4.07126">
        <ele>96.36593469906</ele>
        <time>2020-11-25T15:05:21.000+01:00</time>
      </trkpt>
      <trkpt lat="43.67802" lon="4.07127">
        <ele>96.35284998803</ele>
        <time>2020-11-25T15:05:22.000+01:00</time>
      </trkpt>
      <trkpt lat="43.67802" lon="4.07129">
        <ele>96.339893607201</ele>
        <time>2020-11-25T15:05:23.000+01:00</time>
      </trkpt>
      <trkpt lat="43.67802" lon="4.0713">
        <ele>96.326616473453</ele>
        <time>2020-11-25T15:05:24.000+01:00</time>
      </trkpt>
      <trkpt lat="43.67802" lon="4.07132">
        <ele>96.313256242101</ele>
        <time>2020-11-25T15:05:25.000+01:00</time>
      </trkpt>
      <trkpt lat="43.67801" lon="4.07134">
        <ele>96.29981451448</ele>
        <time>2020-11-25T15:05:26.000+01:00</time>
      </trkpt>
      <trkpt lat="43.67801" lon="4.07135">
        <ele>96.286478764885</ele>
        <time>2020-11-25T15:05:27.000+01:00</time>
      </trkpt>
      <trkpt lat="43.67801" lon="4.07137">
        <ele>96.273133582592</ele>
        <time>2020-11-25T15:05:28.000+01:00</time>
      </trkpt>
      <trkpt lat="43.678" lon="4.07138">
        <ele>96.259743731892</ele>
        <time>2020-11-25T15:05:29.000+01:00</time>
      </trkpt>
      <trkpt lat="43.678" lon="4.0714">
        <ele>96.246339817636</ele>
        <time>2020-11-25T15:05:30.000+01:00</time>
      </trkpt>
      <trkpt lat="43.678" lon="4.07141">
        <ele>96.23306460616</ele>
        <time>2020-11-25T15:05:31.000+01:00</time>
      </trkpt>
      <trkpt lat="43.678" lon="4.07142">
        <ele>96.219839539912</ele>
        <time>2020-11-25T15:05:32.000+01:00</time>
      </trkpt>
      <trkpt lat="43.678" lon="4.07143">
        <ele>96.206424145284</ele>
        <time>2020-11-25T15:05:33.000+01:00</time>
      </trkpt>
      <trkpt lat="43.678" lon="4.07145">
        <ele>96.192887699919</ele>
        <time>2020-11-25T15:05:34.000+01:00</time>
      </trkpt>
      <trkpt lat="43.67799" lon="4.07146">
        <ele>96.179587090709</ele>
        <time>2020-11-25T15:05:35.000+01:00</time>
      </trkpt>
      <trkpt lat="43.678" lon="4.07148">
        <ele>96.166175484785</ele>
        <time>2020-11-25T15:05:36.000+01:00</time>
      </trkpt>
      <trkpt lat="43.678" lon="4.07149">
        <ele>96.152746328717</ele>
        <time>2020-11-25T15:05:37.000+01:00</time>
      </trkpt>
      <trkpt lat="43.678" lon="4.07151">
        <ele>96.139392204436</ele>
        <time>2020-11-25T15:05:38.000+01:00</time>
      </trkpt>
      <trkpt lat="43.678" lon="4.07152">
        <ele>96.125788904819</ele>
        <time>2020-11-25T15:05:39.000+01:00</time>
      </trkpt>
      <trkpt lat="43.678" lon="4.07153">
        <ele>96.112347519884</ele>
        <time>2020-11-25T15:05:40.000+01:00</time>
      </trkpt>
      <trkpt lat="43.678" lon="4.07155">
        <ele>96.098989274734</ele>
        <time>2020-11-25T15:05:41.000+01:00</time>
      </trkpt>
      <trkpt lat="43.67799" lon="4.07157">
        <ele>96.085633943189</ele>
        <time>2020-11-25T15:05:42.000+01:00</time>
      </trkpt>
      <trkpt lat="43.67799" lon="4.07159">
        <ele>96.072322106265</ele>
        <time>2020-11-25T15:05:43.000+01:00</time>
      </trkpt>
      <trkpt lat="43.67799" lon="4.07161">
        <ele>96.058902754096</ele>
        <time>2020-11-25T15:05:44.000+01:00</time>
      </trkpt>
      <trkpt lat="43.67799" lon="4.07162">
        <ele>96.045484151625</ele>
        <time>2020-11-25T15:05:45.000+01:00</time>
      </trkpt>
      <trkpt lat="43.67799" lon="4.07163">
        <ele>96.032124414263</ele>
        <time>2020-11-25T15:05:46.000+01:00</time>
      </trkpt>
      <trkpt lat="43.67798" lon="4.07165">
        <ele>96.018549109412</ele>
        <time>2020-11-25T15:05:47.000+01:00</time>
      </trkpt>
      <trkpt lat="43.67798" lon="4.07166">
        <ele>96.005030049411</ele>
        <time>2020-11-25T15:05:48.000+01:00</time>
      </trkpt>
      <trkpt lat="43.67798" lon="4.07168">
        <ele>95.991500366126</ele>
        <time>2020-11-25T15:05:49.000+01:00</time>
      </trkpt>
      <trkpt lat="43.67798" lon="4.0717">
        <ele>95.977846955527</ele>
        <time>2020-11-25T15:05:50.000+01:00</time>
      </trkpt>
      <trkpt lat="43.67798" lon="4.07171">
        <ele>95.964029816225</ele>
        <time>2020-11-25T15:05:51.000+01:00</time>
      </trkpt>
      <trkpt lat="43.67797" lon="4.07174">
        <ele>95.950049060223</ele>
        <time>2020-11-25T15:05:52.000+01:00</time>
      </trkpt>
      <trkpt lat="43.67797" lon="4.07175">
        <ele>95.935960822439</ele>
        <time>2020-11-25T15:05:53.000+01:00</time>
      </trkpt>
      <trkpt lat="43.67797" lon="4.07177">
        <ele>95.92181225828</ele>
        <time>2020-11-25T15:05:54.000+01:00</time>
      </trkpt>
      <trkpt lat="43.67796" lon="4.07179">
        <ele>95.907758294697</ele>
        <time>2020-11-25T15:05:55.000+01:00</time>
      </trkpt>
      <trkpt lat="43.67796" lon="4.0718">
        <ele>95.89385531077</ele>
        <time>2020-11-25T15:05:56.000+01:00</time>
      </trkpt>
      <trkpt lat="43.67795" lon="4.07181">
        <ele>95.880116941495</ele>
        <time>2020-11-25T15:05:57.000+01:00</time>
      </trkpt>
      <trkpt lat="43.67795" lon="4.07182">
        <ele>95.866550351786</ele>
        <time>2020-11-25T15:05:58.000+01:00</time>
      </trkpt>
      <trkpt lat="43.67793" lon="4.07183">
        <ele>95.852675611237</ele>
        <time>2020-11-25T15:05:59.000+01:00</time>
      </trkpt>
      <trkpt lat="43.67793" lon="4.07183">
        <ele>95.838681113219</ele>
        <time>2020-11-25T15:06:00.000+01:00</time>
      </trkpt>
      <trkpt lat="43.67791" lon="4.07183">
        <ele>95.824772262495</ele>
        <time>2020-11-25T15:06:01.000+01:00</time>
      </trkpt>
      <trkpt lat="43.6779" lon="4.07183">
        <ele>95.810855813629</ele>
        <time>2020-11-25T15:06:02.000+01:00</time>
      </trkpt>
      <trkpt lat="43.67789" lon="4.07184">
        <ele>95.796657543402</ele>
        <time>2020-11-25T15:06:03.000+01:00</time>
      </trkpt>
      <trkpt lat="43.67788" lon="4.07184">
        <ele>95.782217396665</ele>
        <time>2020-11-25T15:06:04.000+01:00</time>
      </trkpt>
      <trkpt lat="43.67787" lon="4.07184">
        <ele>95.767513069509</ele>
        <time>2020-11-25T15:06:05.000+01:00</time>
      </trkpt>
      <trkpt lat="43.67786" lon="4.07184">
        <ele>95.752554518046</ele>
        <time>2020-11-25T15:06:06.000+01:00</time>
      </trkpt>
      <trkpt lat="43.67785" lon="4.07184">
        <ele>95.73747778635</ele>
        <time>2020-11-25T15:06:07.000+01:00</time>
      </trkpt>
      <trkpt lat="43.67784" lon="4.07184">
        <ele>95.72225490725</ele>
        <time>2020-11-25T15:06:08.000+01:00</time>
      </trkpt>
      <trkpt lat="43.67783" lon="4.07184">
        <ele>95.706883852042</ele>
        <time>2020-11-25T15:06:09.000+01:00</time>
      </trkpt>
      <trkpt lat="43.67782" lon="4.07184">
        <ele>95.691375429128</ele>
        <time>2020-11-25T15:06:10.000+01:00</time>
      </trkpt>
      <trkpt lat="43.67782" lon="4.07184">
        <ele>95.675805032457</ele>
        <time>2020-11-25T15:06:11.000+01:00</time>
      </trkpt>
      <trkpt lat="43.67781" lon="4.07184">
        <ele>95.66012680388</ele>
        <time>2020-11-25T15:06:12.000+01:00</time>
      </trkpt>
      <trkpt lat="43.6778" lon="4.07184">
        <ele>95.644315643265</ele>
        <time>2020-11-25T15:06:13.000+01:00</time>
      </trkpt>
      <trkpt lat="43.67779" lon="4.07184">
        <ele>95.628300669135</ele>
        <time>2020-11-25T15:06:14.000+01:00</time>
      </trkpt>
      <trkpt lat="43.67777" lon="4.07184">
        <ele>95.612223678447</ele>
        <time>2020-11-25T15:06:15.000+01:00</time>
      </trkpt>
      <trkpt lat="43.67776" lon="4.07184">
        <ele>95.595839122864</ele>
        <time>2020-11-25T15:06:16.000+01:00</time>
      </trkpt>
      <trkpt lat="43.67775" lon="4.07183">
        <ele>95.579357578777</ele>
        <time>2020-11-25T15:06:17.000+01:00</time>
      </trkpt>
      <trkpt lat="43.67774" lon="4.07183">
        <ele>95.562831855978</ele>
        <time>2020-11-25T15:06:18.000+01:00</time>
      </trkpt>
      <trkpt lat="43.67773" lon="4.07183">
        <ele>95.546303353518</ele>
        <time>2020-11-25T15:06:19.000+01:00</time>
      </trkpt>
      <trkpt lat="43.67771" lon="4.07183">
        <ele>95.529819838453</ele>
        <time>2020-11-25T15:06:20.000+01:00</time>
      </trkpt>
      <trkpt lat="43.6777" lon="4.07183">
        <ele>95.513223345456</ele>
        <time>2020-11-25T15:06:21.000+01:00</time>
      </trkpt>
      <trkpt lat="43.67769" lon="4.07183">
        <ele>95.496084953996</ele>
        <time>2020-11-25T15:06:22.000+01:00</time>
      </trkpt>
      <trkpt lat="43.67768" lon="4.07183">
        <ele>95.478822144956</ele>
        <time>2020-11-25T15:06:23.000+01:00</time>
      </trkpt>
      <trkpt lat="43.67767" lon="4.07184">
        <ele>95.461461026932</ele>
        <time>2020-11-25T15:06:24.000+01:00</time>
      </trkpt>
      <trkpt lat="43.67766" lon="4.07184">
        <ele>95.44390574841</ele>
        <time>2020-11-25T15:06:25.000+01:00</time>
      </trkpt>
      <trkpt lat="43.67765" lon="4.07183">
        <ele>95.426161843677</ele>
        <time>2020-11-25T15:06:26.000+01:00</time>
      </trkpt>
      <trkpt lat="43.67764" lon="4.07183">
        <ele>95.407990170804</ele>
        <time>2020-11-25T15:06:27.000+01:00</time>
      </trkpt>
      <trkpt lat="43.67763" lon="4.07184">
        <ele>95.389725040226</ele>
        <time>2020-11-25T15:06:28.000+01:00</time>
      </trkpt>
      <trkpt lat="43.67761" lon="4.07184">
        <ele>95.371460773789</ele>
        <time>2020-11-25T15:06:29.000+01:00</time>
      </trkpt>
      <trkpt lat="43.6776" lon="4.07183">
        <ele>95.353153018504</ele>
        <time>2020-11-25T15:06:30.000+01:00</time>
      </trkpt>
      <trkpt lat="43.67759" lon="4.07183">
        <ele>95.33461757662</ele>
        <time>2020-11-25T15:06:31.000+01:00</time>
      </trkpt>
      <trkpt lat="43.67758" lon="4.07183">
        <ele>95.315911305815</ele>
        <time>2020-11-25T15:06:32.000+01:00</time>
      </trkpt>
      <trkpt lat="43.67757" lon="4.07183">
        <ele>95.297018302215</ele>
        <time>2020-11-25T15:06:33.000+01:00</time>
      </trkpt>
      <trkpt lat="43.67756" lon="4.07184">
        <ele>95.278063519073</ele>
        <time>2020-11-25T15:06:34.000+01:00</time>
      </trkpt>
      <trkpt lat="43.67755" lon="4.07183">
        <ele>95.259152791992</ele>
        <time>2020-11-25T15:06:35.000+01:00</time>
      </trkpt>
      <trkpt lat="43.67754" lon="4.07182">
        <ele>95.240033793872</ele>
        <time>2020-11-25T15:06:36.000+01:00</time>
      </trkpt>
      <trkpt lat="43.67753" lon="4.07182">
        <ele>95.220724904488</ele>
        <time>2020-11-25T15:06:37.000+01:00</time>
      </trkpt>
      <trkpt lat="43.67751" lon="4.07182">
        <ele>95.201555746154</ele>
        <time>2020-11-25T15:06:38.000+01:00</time>
      </trkpt>
      <trkpt lat="43.6775" lon="4.07182">
        <ele>95.182179713922</ele>
        <time>2020-11-25T15:06:39.000+01:00</time>
      </trkpt>
      <trkpt lat="43.67749" lon="4.07183">
        <ele>95.162557502132</ele>
        <time>2020-11-25T15:06:40.000+01:00</time>
      </trkpt>
      <trkpt lat="43.67748" lon="4.07183">
        <ele>95.142890978157</ele>
        <time>2020-11-25T15:06:41.000+01:00</time>
      </trkpt>
      <trkpt lat="43.67747" lon="4.07183">
        <ele>95.12319865264</ele>
        <time>2020-11-25T15:06:42.000+01:00</time>
      </trkpt>
      <trkpt lat="43.67746" lon="4.07183">
        <ele>95.103355741633</ele>
        <time>2020-11-25T15:06:43.000+01:00</time>
      </trkpt>
      <trkpt lat="43.67745" lon="4.07182">
        <ele>95.083586304021</ele>
        <time>2020-11-25T15:06:44.000+01:00</time>
      </trkpt>
      <trkpt lat="43.67744" lon="4.07182">
        <ele>95.06379407879</ele>
        <time>2020-11-25T15:06:45.000+01:00</time>
      </trkpt>
      <trkpt lat="43.67744" lon="4.07182">
        <ele>95.043999049917</ele>
        <time>2020-11-25T15:06:46.000+01:00</time>
      </trkpt>
      <trkpt lat="43.67743" lon="4.07181">
        <ele>95.024027816948</ele>
        <time>2020-11-25T15:06:47.000+01:00</time>
      </trkpt>
      <trkpt lat="43.67742" lon="4.07181">
        <ele>95.004055339367</ele>
        <time>2020-11-25T15:06:48.000+01:00</time>
      </trkpt>
      <trkpt lat="43.67741" lon="4.0718">
        <ele>94.983933185008</ele>
        <time>2020-11-25T15:06:49.000+01:00</time>
      </trkpt>
      <trkpt lat="43.6774" lon="4.0718">
        <ele>94.963369749516</ele>
        <time>2020-11-25T15:06:50.000+01:00</time>
      </trkpt>
      <trkpt lat="43.67738" lon="4.0718">
        <ele>94.942777879735</ele>
        <time>2020-11-25T15:06:51.000+01:00</time>
      </trkpt>
      <trkpt lat="43.67737" lon="4.0718">
        <ele>94.922163405155</ele>
        <time>2020-11-25T15:06:52.000+01:00</time>
      </trkpt>
      <trkpt lat="43.67736" lon="4.0718">
        <ele>94.901604003284</ele>
        <time>2020-11-25T15:06:53.000+01:00</time>
      </trkpt>
      <trkpt lat="43.67735" lon="4.0718">
        <ele>94.881171492076</ele>
        <time>2020-11-25T15:06:54.000+01:00</time>
      </trkpt>
      <trkpt lat="43.67734" lon="4.07179">
        <ele>94.860954355236</ele>
        <time>2020-11-25T15:06:55.000+01:00</time>
      </trkpt>
      <trkpt lat="43.67733" lon="4.07179">
        <ele>94.840869314605</ele>
        <time>2020-11-25T15:06:56.000+01:00</time>
      </trkpt>
      <trkpt lat="43.67732" lon="4.0718">
        <ele>94.821074603249</ele>
        <time>2020-11-25T15:06:57.000+01:00</time>
      </trkpt>
      <trkpt lat="43.6773" lon="4.0718">
        <ele>94.801647861105</ele>
        <time>2020-11-25T15:06:58.000+01:00</time>
      </trkpt>
      <trkpt lat="43.67729" lon="4.0718">
        <ele>94.782528780413</ele>
        <time>2020-11-25T15:06:59.000+01:00</time>
      </trkpt>
      <trkpt lat="43.67727" lon="4.07179">
        <ele>94.763690403731</ele>
        <time>2020-11-25T15:07:00.000+01:00</time>
      </trkpt>
      <trkpt lat="43.67727" lon="4.07179">
        <ele>94.744988264791</ele>
        <time>2020-11-25T15:07:01.000+01:00</time>
      </trkpt>
      <trkpt lat="43.67725" lon="4.07179">
        <ele>94.726502736852</ele>
        <time>2020-11-25T15:07:02.000+01:00</time>
      </trkpt>
      <trkpt lat="43.67725" lon="4.07178">
        <ele>94.708113713535</ele>
        <time>2020-11-25T15:07:03.000+01:00</time>
      </trkpt>
      <trkpt lat="43.67724" lon="4.07178">
        <ele>94.689860947768</ele>
        <time>2020-11-25T15:07:04.000+01:00</time>
      </trkpt>
      <trkpt lat="43.67723" lon="4.07178">
        <ele>94.671711483608</ele>
        <time>2020-11-25T15:07:05.000+01:00</time>
      </trkpt>
      <trkpt lat="43.67722" lon="4.07178">
        <ele>94.653723656739</ele>
        <time>2020-11-25T15:07:06.000+01:00</time>
      </trkpt>
      <trkpt lat="43.67722" lon="4.07178">
        <ele>94.63570568383</ele>
        <time>2020-11-25T15:07:07.000+01:00</time>
      </trkpt>
      <trkpt lat="43.67721" lon="4.07178">
        <ele>94.617522777595</ele>
        <time>2020-11-25T15:07:08.000+01:00</time>
      </trkpt>
      <trkpt lat="43.6772" lon="4.07179">
        <ele>94.599355735633</ele>
        <time>2020-11-25T15:07:09.000+01:00</time>
      </trkpt>
      <trkpt lat="43.67719" lon="4.07179">
        <ele>94.581173905221</ele>
        <time>2020-11-25T15:07:10.000+01:00</time>
      </trkpt>
      <trkpt lat="43.67718" lon="4.0718">
        <ele>94.563057648569</ele>
        <time>2020-11-25T15:07:11.000+01:00</time>
      </trkpt>
      <trkpt lat="43.67717" lon="4.07181">
        <ele>94.54497219677</ele>
        <time>2020-11-25T15:07:12.000+01:00</time>
      </trkpt>
      <trkpt lat="43.67717" lon="4.07182">
        <ele>94.526865753864</ele>
        <time>2020-11-25T15:07:13.000+01:00</time>
      </trkpt>
      <trkpt lat="43.67716" lon="4.07184">
        <ele>94.508773838579</ele>
        <time>2020-11-25T15:07:14.000+01:00</time>
      </trkpt>
      <trkpt lat="43.67716" lon="4.07185">
        <ele>94.49067563581</ele>
        <time>2020-11-25T15:07:15.000+01:00</time>
      </trkpt>
      <trkpt lat="43.67716" lon="4.07187">
        <ele>94.472382719148</ele>
        <time>2020-11-25T15:07:16.000+01:00</time>
      </trkpt>
      <trkpt lat="43.67716" lon="4.07189">
        <ele>94.453927523035</ele>
        <time>2020-11-25T15:07:17.000+01:00</time>
      </trkpt>
      <trkpt lat="43.67716" lon="4.0719">
        <ele>94.43541899736</ele>
        <time>2020-11-25T15:07:18.000+01:00</time>
      </trkpt>
      <trkpt lat="43.67716" lon="4.07192">
        <ele>94.416724693158</ele>
        <time>2020-11-25T15:07:19.000+01:00</time>
      </trkpt>
      <trkpt lat="43.67716" lon="4.07194">
        <ele>94.397854061136</ele>
        <time>2020-11-25T15:07:20.000+01:00</time>
      </trkpt>
      <trkpt lat="43.67716" lon="4.07196">
        <ele>94.378772925089</ele>
        <time>2020-11-25T15:07:21.000+01:00</time>
      </trkpt>
      <trkpt lat="43.67716" lon="4.07197">
        <ele>94.359506611048</ele>
        <time>2020-11-25T15:07:22.000+01:00</time>
      </trkpt>
      <trkpt lat="43.67716" lon="4.07198">
        <ele>94.339734732671</ele>
        <time>2020-11-25T15:07:23.000+01:00</time>
      </trkpt>
      <trkpt lat="43.67716" lon="4.072">
        <ele>94.31947726087</ele>
        <time>2020-11-25T15:07:24.000+01:00</time>
      </trkpt>
      <trkpt lat="43.67716" lon="4.07201">
        <ele>94.299009032249</ele>
        <time>2020-11-25T15:07:25.000+01:00</time>
      </trkpt>
      <trkpt lat="43.67716" lon="4.07202">
        <ele>94.278204405803</ele>
        <time>2020-11-25T15:07:26.000+01:00</time>
      </trkpt>
      <trkpt lat="43.67716" lon="4.07204">
        <ele>94.25731117468</ele>
        <time>2020-11-25T15:07:27.000+01:00</time>
      </trkpt>
      <trkpt lat="43.67717" lon="4.07205">
        <ele>94.236318431658</ele>
        <time>2020-11-25T15:07:28.000+01:00</time>
      </trkpt>
      <trkpt lat="43.67717" lon="4.07207">
        <ele>94.215248092596</ele>
        <time>2020-11-25T15:07:29.000+01:00</time>
      </trkpt>
      <trkpt lat="43.67717" lon="4.07208">
        <ele>94.194096946803</ele>
        <time>2020-11-25T15:07:30.000+01:00</time>
      </trkpt>
      <trkpt lat="43.67717" lon="4.07209">
        <ele>94.172828497233</ele>
        <time>2020-11-25T15:07:31.000+01:00</time>
      </trkpt>
      <trkpt lat="43.67717" lon="4.0721">
        <ele>94.151438269973</ele>
        <time>2020-11-25T15:07:32.000+01:00</time>
      </trkpt>
      <trkpt lat="43.67718" lon="4.07212">
        <ele>94.12993645347</ele>
        <time>2020-11-25T15:07:33.000+01:00</time>
      </trkpt>
      <trkpt lat="43.67718" lon="4.07213">
        <ele>94.108315228037</ele>
        <time>2020-11-25T15:07:34.000+01:00</time>
      </trkpt>
      <trkpt lat="43.67719" lon="4.07215">
        <ele>94.086603245966</ele>
        <time>2020-11-25T15:07:35.000+01:00</time>
      </trkpt>
      <trkpt lat="43.67719" lon="4.07216">
        <ele>94.064772712216</ele>
        <time>2020-11-25T15:07:36.000+01:00</time>
      </trkpt>
      <trkpt lat="43.67719" lon="4.07217">
        <ele>94.042808158581</ele>
        <time>2020-11-25T15:07:37.000+01:00</time>
      </trkpt>
      <trkpt lat="43.6772" lon="4.07219">
        <ele>94.020776858814</ele>
        <time>2020-11-25T15:07:38.000+01:00</time>
      </trkpt>
      <trkpt lat="43.6772" lon="4.0722">
        <ele>93.998612743028</ele>
        <time>2020-11-25T15:07:39.000+01:00</time>
      </trkpt>
      <trkpt lat="43.6772" lon="4.07221">
        <ele>93.976302086771</ele>
        <time>2020-11-25T15:07:40.000+01:00</time>
      </trkpt>
      <trkpt lat="43.67721" lon="4.07222">
        <ele>93.953829220731</ele>
        <time>2020-11-25T15:07:41.000+01:00</time>
      </trkpt>
      <trkpt lat="43.67721" lon="4.07224">
        <ele>93.931458390084</ele>
        <time>2020-11-25T15:07:42.000+01:00</time>
      </trkpt>
      <trkpt lat="43.67722" lon="4.07226">
        <ele>93.908929660929</ele>
        <time>2020-11-25T15:07:43.000+01:00</time>
      </trkpt>
      <trkpt lat="43.67722" lon="4.07227">
        <ele>93.886266433145</ele>
        <time>2020-11-25T15:07:44.000+01:00</time>
      </trkpt>
      <trkpt lat="43.67723" lon="4.07228">
        <ele>93.863413949136</ele>
        <time>2020-11-25T15:07:45.000+01:00</time>
      </trkpt>
      <trkpt lat="43.67723" lon="4.07229">
        <ele>93.8404311686</ele>
        <time>2020-11-25T15:07:46.000+01:00</time>
      </trkpt>
      <trkpt lat="43.67724" lon="4.07232">
        <ele>93.81682440628</ele>
        <time>2020-11-25T15:07:47.000+01:00</time>
      </trkpt>
      <trkpt lat="43.67725" lon="4.07234">
        <ele>93.793326340107</ele>
        <time>2020-11-25T15:07:48.000+01:00</time>
      </trkpt>
      <trkpt lat="43.67725" lon="4.07235">
        <ele>93.769955826718</ele>
        <time>2020-11-25T15:07:49.000+01:00</time>
      </trkpt>
      <trkpt lat="43.67726" lon="4.07237">
        <ele>93.746187988233</ele>
        <time>2020-11-25T15:07:50.000+01:00</time>
      </trkpt>
      <trkpt lat="43.67726" lon="4.07239">
        <ele>93.722099796202</ele>
        <time>2020-11-25T15:07:51.000+01:00</time>
      </trkpt>
      <trkpt lat="43.67727" lon="4.07241">
        <ele>93.697976016176</ele>
        <time>2020-11-25T15:07:52.000+01:00</time>
      </trkpt>
      <trkpt lat="43.67727" lon="4.07242">
        <ele>93.67364688316</ele>
        <time>2020-11-25T15:07:53.000+01:00</time>
      </trkpt>
      <trkpt lat="43.67728" lon="4.07243">
        <ele>93.649067848998</ele>
        <time>2020-11-25T15:07:54.000+01:00</time>
      </trkpt>
      <trkpt lat="43.67728" lon="4.07245">
        <ele>93.624582785137</ele>
        <time>2020-11-25T15:07:55.000+01:00</time>
      </trkpt>
      <trkpt lat="43.67729" lon="4.07247">
        <ele>93.600209606001</ele>
        <time>2020-11-25T15:07:56.000+01:00</time>
      </trkpt>
      <trkpt lat="43.6773" lon="4.07248">
        <ele>93.575961352395</ele>
        <time>2020-11-25T15:07:57.000+01:00</time>
      </trkpt>
      <trkpt lat="43.6773" lon="4.0725">
        <ele>93.551880299219</ele>
        <time>2020-11-25T15:07:58.000+01:00</time>
      </trkpt>
      <trkpt lat="43.67731" lon="4.07251">
        <ele>93.527946458619</ele>
        <time>2020-11-25T15:07:59.000+01:00</time>
      </trkpt>
      <trkpt lat="43.67732" lon="4.07253">
        <ele>93.504183824309</ele>
        <time>2020-11-25T15:08:00.000+01:00</time>
      </trkpt>
      <trkpt lat="43.67732" lon="4.07254">
        <ele>93.480627068696</ele>
        <time>2020-11-25T15:08:01.000+01:00</time>
      </trkpt>
      <trkpt lat="43.67733" lon="4.07256">
        <ele>93.457227863113</ele>
        <time>2020-11-25T15:08:02.000+01:00</time>
      </trkpt>
      <trkpt lat="43.67733" lon="4.07257">
        <ele>93.4340020072</ele>
        <time>2020-11-25T15:08:03.000+01:00</time>
      </trkpt>
      <trkpt lat="43.67734" lon="4.07259">
        <ele>93.410951363314</ele>
        <time>2020-11-25T15:08:04.000+01:00</time>
      </trkpt>
      <trkpt lat="43.67734" lon="4.0726">
        <ele>93.388113788957</ele>
        <time>2020-11-25T15:08:05.000+01:00</time>
      </trkpt>
      <trkpt lat="43.67735" lon="4.07261">
        <ele>93.365053024654</ele>
        <time>2020-11-25T15:08:06.000+01:00</time>
      </trkpt>
      <trkpt lat="43.67735" lon="4.07262">
        <ele>93.341806797255</ele>
        <time>2020-11-25T15:08:07.000+01:00</time>
      </trkpt>
      <trkpt lat="43.67736" lon="4.07264">
        <ele>93.318664378647</ele>
        <time>2020-11-25T15:08:08.000+01:00</time>
      </trkpt>
      <trkpt lat="43.67736" lon="4.07265">
        <ele>93.295750019355</ele>
        <time>2020-11-25T15:08:09.000+01:00</time>
      </trkpt>
      <trkpt lat="43.67737" lon="4.07267">
        <ele>93.273084113236</ele>
        <time>2020-11-25T15:08:10.000+01:00</time>
      </trkpt>
      <trkpt lat="43.67737" lon="4.07268">
        <ele>93.250269845746</ele>
        <time>2020-11-25T15:08:11.000+01:00</time>
      </trkpt>
      <trkpt lat="43.67737" lon="4.07269">
        <ele>93.227349997534</ele>
        <time>2020-11-25T15:08:12.000+01:00</time>
      </trkpt>
      <trkpt lat="43.67737" lon="4.0727">
        <ele>93.204308569269</ele>
        <time>2020-11-25T15:08:13.000+01:00</time>
      </trkpt>
      <trkpt lat="43.67738" lon="4.07271">
        <ele>93.181484503551</ele>
        <time>2020-11-25T15:08:14.000+01:00</time>
      </trkpt>
      <trkpt lat="43.67738" lon="4.07273">
        <ele>93.158714208512</ele>
        <time>2020-11-25T15:08:15.000+01:00</time>
      </trkpt>
      <trkpt lat="43.67738" lon="4.07275">
        <ele>93.13599211995</ele>
        <time>2020-11-25T15:08:16.000+01:00</time>
      </trkpt>
      <trkpt lat="43.67739" lon="4.07276">
        <ele>93.113514887944</ele>
        <time>2020-11-25T15:08:17.000+01:00</time>
      </trkpt>
      <trkpt lat="43.67739" lon="4.07277">
        <ele>93.09086760557</ele>
        <time>2020-11-25T15:08:18.000+01:00</time>
      </trkpt>
      <trkpt lat="43.6774" lon="4.07279">
        <ele>93.068439538882</ele>
        <time>2020-11-25T15:08:19.000+01:00</time>
      </trkpt>
      <trkpt lat="43.67741" lon="4.0728">
        <ele>93.04623368488</ele>
        <time>2020-11-25T15:08:20.000+01:00</time>
      </trkpt>
      <trkpt lat="43.67741" lon="4.07282">
        <ele>93.023949900877</ele>
        <time>2020-11-25T15:08:21.000+01:00</time>
      </trkpt>
      <trkpt lat="43.67741" lon="4.07283">
        <ele>93.001731130803</ele>
        <time>2020-11-25T15:08:22.000+01:00</time>
      </trkpt>
      <trkpt lat="43.67742" lon="4.07284">
        <ele>92.979808622266</ele>
        <time>2020-11-25T15:08:23.000+01:00</time>
      </trkpt>
      <trkpt lat="43.67742" lon="4.07285">
        <ele>92.958001515044</ele>
        <time>2020-11-25T15:08:24.000+01:00</time>
      </trkpt>
      <trkpt lat="43.67742" lon="4.07287">
        <ele>92.936411728519</ele>
        <time>2020-11-25T15:08:25.000+01:00</time>
      </trkpt>
      <trkpt lat="43.67743" lon="4.07288">
        <ele>92.915120219603</ele>
        <time>2020-11-25T15:08:26.000+01:00</time>
      </trkpt>
      <trkpt lat="43.67743" lon="4.07289">
        <ele>92.893976142999</ele>
        <time>2020-11-25T15:08:27.000+01:00</time>
      </trkpt>
      <trkpt lat="43.67743" lon="4.0729">
        <ele>92.872950200551</ele>
        <time>2020-11-25T15:08:28.000+01:00</time>
      </trkpt>
      <trkpt lat="43.67744" lon="4.07292">
        <ele>92.852232081277</ele>
        <time>2020-11-25T15:08:29.000+01:00</time>
      </trkpt>
      <trkpt lat="43.67744" lon="4.07293">
        <ele>92.831625905059</ele>
        <time>2020-11-25T15:08:30.000+01:00</time>
      </trkpt>
      <trkpt lat="43.67744" lon="4.07294">
        <ele>92.811151596189</ele>
        <time>2020-11-25T15:08:31.000+01:00</time>
      </trkpt>
      <trkpt lat="43.67745" lon="4.07295">
        <ele>92.790822214831</ele>
        <time>2020-11-25T15:08:32.000+01:00</time>
      </trkpt>
      <trkpt lat="43.67745" lon="4.07296">
        <ele>92.770788118606</ele>
        <time>2020-11-25T15:08:33.000+01:00</time>
      </trkpt>
      <trkpt lat="43.67745" lon="4.07298">
        <ele>92.750875538392</ele>
        <time>2020-11-25T15:08:34.000+01:00</time>
      </trkpt>
      <trkpt lat="43.67746" lon="4.07299">
        <ele>92.731216344788</ele>
        <time>2020-11-25T15:08:35.000+01:00</time>
      </trkpt>
      <trkpt lat="43.67746" lon="4.07301">
        <ele>92.711636673538</ele>
        <time>2020-11-25T15:08:36.000+01:00</time>
      </trkpt>
      <trkpt lat="43.67746" lon="4.07302">
        <ele>92.692165382842</ele>
        <time>2020-11-25T15:08:37.000+01:00</time>
      </trkpt>
      <trkpt lat="43.67747" lon="4.07303">
        <ele>92.672954334043</ele>
        <time>2020-11-25T15:08:38.000+01:00</time>
      </trkpt>
      <trkpt lat="43.67747" lon="4.07305">
        <ele>92.65383487318</ele>
        <time>2020-11-25T15:08:39.000+01:00</time>
      </trkpt>
      <trkpt lat="43.67748" lon="4.07306">
        <ele>92.634824915987</ele>
        <time>2020-11-25T15:08:40.000+01:00</time>
      </trkpt>
      <trkpt lat="43.67748" lon="4.07308">
        <ele>92.615922512246</ele>
        <time>2020-11-25T15:08:41.000+01:00</time>
      </trkpt>
      <trkpt lat="43.67749" lon="4.07309">
        <ele>92.597110515339</ele>
        <time>2020-11-25T15:08:42.000+01:00</time>
      </trkpt>
      <trkpt lat="43.67749" lon="4.07311">
        <ele>92.578429959671</ele>
        <time>2020-11-25T15:08:43.000+01:00</time>
      </trkpt>
      <trkpt lat="43.6775" lon="4.07313">
        <ele>92.560007398215</ele>
        <time>2020-11-25T15:08:44.000+01:00</time>
      </trkpt>
      <trkpt lat="43.6775" lon="4.07314">
        <ele>92.541704839872</ele>
        <time>2020-11-25T15:08:45.000+01:00</time>
      </trkpt>
      <trkpt lat="43.67751" lon="4.07316">
        <ele>92.523685321611</ele>
        <time>2020-11-25T15:08:46.000+01:00</time>
      </trkpt>
      <trkpt lat="43.67751" lon="4.07317">
        <ele>92.50574186383</ele>
        <time>2020-11-25T15:08:47.000+01:00</time>
      </trkpt>
      <trkpt lat="43.67752" lon="4.07319">
        <ele>92.488009351503</ele>
        <time>2020-11-25T15:08:48.000+01:00</time>
      </trkpt>
      <trkpt lat="43.67752" lon="4.0732">
        <ele>92.470164258671</ele>
        <time>2020-11-25T15:08:49.000+01:00</time>
      </trkpt>
      <trkpt lat="43.67752" lon="4.07321">
        <ele>92.452496199142</ele>
        <time>2020-11-25T15:08:50.000+01:00</time>
      </trkpt>
      <trkpt lat="43.67753" lon="4.07323">
        <ele>92.434742633855</ele>
        <time>2020-11-25T15:08:51.000+01:00</time>
      </trkpt>
      <trkpt lat="43.67753" lon="4.07324">
        <ele>92.417084694816</ele>
        <time>2020-11-25T15:08:52.000+01:00</time>
      </trkpt>
      <trkpt lat="43.67754" lon="4.07325">
        <ele>92.399333018434</ele>
        <time>2020-11-25T15:08:53.000+01:00</time>
      </trkpt>
      <trkpt lat="43.67754" lon="4.07326">
        <ele>92.38147818055</ele>
        <time>2020-11-25T15:08:54.000+01:00</time>
      </trkpt>
      <trkpt lat="43.67754" lon="4.07327">
        <ele>92.363657263025</ele>
        <time>2020-11-25T15:08:55.000+01:00</time>
      </trkpt>
      <trkpt lat="43.67755" lon="4.07329">
        <ele>92.34577597705</ele>
        <time>2020-11-25T15:08:56.000+01:00</time>
      </trkpt>
      <trkpt lat="43.67756" lon="4.0733">
        <ele>92.3275920399</ele>
        <time>2020-11-25T15:08:57.000+01:00</time>
      </trkpt>
      <trkpt lat="43.67756" lon="4.07332">
        <ele>92.309184519466</ele>
        <time>2020-11-25T15:08:58.000+01:00</time>
      </trkpt>
      <trkpt lat="43.67757" lon="4.07334">
        <ele>92.290752543738</ele>
        <time>2020-11-25T15:08:59.000+01:00</time>
      </trkpt>
      <trkpt lat="43.67758" lon="4.07335">
        <ele>92.272318996316</ele>
        <time>2020-11-25T15:09:00.000+01:00</time>
      </trkpt>
      <trkpt lat="43.67758" lon="4.07337">
        <ele>92.253867838676</ele>
        <time>2020-11-25T15:09:01.000+01:00</time>
      </trkpt>
      <trkpt lat="43.67759" lon="4.07339">
        <ele>92.235396183029</ele>
        <time>2020-11-25T15:09:02.000+01:00</time>
      </trkpt>
      <trkpt lat="43.67759" lon="4.07341">
        <ele>92.216914931806</ele>
        <time>2020-11-25T15:09:03.000+01:00</time>
      </trkpt>
      <trkpt lat="43.67759" lon="4.07343">
        <ele>92.198366665655</ele>
        <time>2020-11-25T15:09:04.000+01:00</time>
      </trkpt>
      <trkpt lat="43.6776" lon="4.07345">
        <ele>92.179731068628</ele>
        <time>2020-11-25T15:09:05.000+01:00</time>
      </trkpt>
      <trkpt lat="43.6776" lon="4.07346">
        <ele>92.161163210701</ele>
        <time>2020-11-25T15:09:06.000+01:00</time>
      </trkpt>
      <trkpt lat="43.6776" lon="4.07348">
        <ele>92.142792994358</ele>
        <time>2020-11-25T15:09:07.000+01:00</time>
      </trkpt>
      <trkpt lat="43.67761" lon="4.0735">
        <ele>92.124385103363</ele>
        <time>2020-11-25T15:09:08.000+01:00</time>
      </trkpt>
      <trkpt lat="43.67761" lon="4.07351">
        <ele>92.105976596213</ele>
        <time>2020-11-25T15:09:09.000+01:00</time>
      </trkpt>
      <trkpt lat="43.67761" lon="4.07353">
        <ele>92.087706788786</ele>
        <time>2020-11-25T15:09:10.000+01:00</time>
      </trkpt>
      <trkpt lat="43.67762" lon="4.07354">
        <ele>92.069371226945</ele>
        <time>2020-11-25T15:09:11.000+01:00</time>
      </trkpt>
      <trkpt lat="43.67762" lon="4.07356">
        <ele>92.051105645428</ele>
        <time>2020-11-25T15:09:12.000+01:00</time>
      </trkpt>
      <trkpt lat="43.67763" lon="4.07358">
        <ele>92.032822151154</ele>
        <time>2020-11-25T15:09:13.000+01:00</time>
      </trkpt>
      <trkpt lat="43.67763" lon="4.0736">
        <ele>92.014491941418</ele>
        <time>2020-11-25T15:09:14.000+01:00</time>
      </trkpt>
      <trkpt lat="43.67764" lon="4.07362">
        <ele>91.996153341252</ele>
        <time>2020-11-25T15:09:15.000+01:00</time>
      </trkpt>
      <trkpt lat="43.67765" lon="4.07364">
        <ele>91.977739624199</ele>
        <time>2020-11-25T15:09:16.000+01:00</time>
      </trkpt>
      <trkpt lat="43.67765" lon="4.07365">
        <ele>91.959421596677</ele>
        <time>2020-11-25T15:09:17.000+01:00</time>
      </trkpt>
      <trkpt lat="43.67766" lon="4.07367">
        <ele>91.941188426402</ele>
        <time>2020-11-25T15:09:18.000+01:00</time>
      </trkpt>
      <trkpt lat="43.67766" lon="4.07368">
        <ele>91.923004508286</ele>
        <time>2020-11-25T15:09:19.000+01:00</time>
      </trkpt>
      <trkpt lat="43.67767" lon="4.07369">
        <ele>91.904777284294</ele>
        <time>2020-11-25T15:09:20.000+01:00</time>
      </trkpt>
      <trkpt lat="43.67767" lon="4.07371">
        <ele>91.886527288979</ele>
        <time>2020-11-25T15:09:21.000+01:00</time>
      </trkpt>
      <trkpt lat="43.67768" lon="4.07372">
        <ele>91.868254717077</ele>
        <time>2020-11-25T15:09:22.000+01:00</time>
      </trkpt>
      <trkpt lat="43.67768" lon="4.07374">
        <ele>91.850070959874</ele>
        <time>2020-11-25T15:09:23.000+01:00</time>
      </trkpt>
      <trkpt lat="43.67768" lon="4.07375">
        <ele>91.832075597644</ele>
        <time>2020-11-25T15:09:24.000+01:00</time>
      </trkpt>
      <trkpt lat="43.67769" lon="4.07377">
        <ele>91.814210212113</ele>
        <time>2020-11-25T15:09:25.000+01:00</time>
      </trkpt>
      <trkpt lat="43.67769" lon="4.07378">
        <ele>91.7964924708</ele>
        <time>2020-11-25T15:09:26.000+01:00</time>
      </trkpt>
      <trkpt lat="43.67769" lon="4.0738">
        <ele>91.778875583837</ele>
        <time>2020-11-25T15:09:27.000+01:00</time>
      </trkpt>
      <trkpt lat="43.6777" lon="4.07382">
        <ele>91.761333304522</ele>
        <time>2020-11-25T15:09:28.000+01:00</time>
      </trkpt>
      <trkpt lat="43.6777" lon="4.07383">
        <ele>91.743817723482</ele>
        <time>2020-11-25T15:09:29.000+01:00</time>
      </trkpt>
      <trkpt lat="43.6777" lon="4.07385">
        <ele>91.726326545187</ele>
        <time>2020-11-25T15:09:30.000+01:00</time>
      </trkpt>
      <trkpt lat="43.6777" lon="4.07386">
        <ele>91.708648986907</ele>
        <time>2020-11-25T15:09:31.000+01:00</time>
      </trkpt>
      <trkpt lat="43.6777" lon="4.07387">
        <ele>91.690976375593</ele>
        <time>2020-11-25T15:09:32.000+01:00</time>
      </trkpt>
      <trkpt lat="43.67771" lon="4.07389">
        <ele>91.673280180222</ele>
        <time>2020-11-25T15:09:33.000+01:00</time>
      </trkpt>
      <trkpt lat="43.67771" lon="4.07391">
        <ele>91.655725801877</ele>
        <time>2020-11-25T15:09:34.000+01:00</time>
      </trkpt>
      <trkpt lat="43.67772" lon="4.07392">
        <ele>91.638152055824</ele>
        <time>2020-11-25T15:09:35.000+01:00</time>
      </trkpt>
      <trkpt lat="43.67772" lon="4.07393">
        <ele>91.620546384689</ele>
        <time>2020-11-25T15:09:36.000+01:00</time>
      </trkpt>
      <trkpt lat="43.67772" lon="4.07395">
        <ele>91.602959226697</ele>
        <time>2020-11-25T15:09:37.000+01:00</time>
      </trkpt>
      <trkpt lat="43.67772" lon="4.07396">
        <ele>91.585571326988</ele>
        <time>2020-11-25T15:09:38.000+01:00</time>
      </trkpt>
      <trkpt lat="43.67773" lon="4.07398">
        <ele>91.568336921411</ele>
        <time>2020-11-25T15:09:39.000+01:00</time>
      </trkpt>
      <trkpt lat="43.67773" lon="4.074">
        <ele>91.55121933456</ele>
        <time>2020-11-25T15:09:40.000+01:00</time>
      </trkpt>
      <trkpt lat="43.67774" lon="4.07402">
        <ele>91.534260654694</ele>
        <time>2020-11-25T15:09:41.000+01:00</time>
      </trkpt>
      <trkpt lat="43.67774" lon="4.07403">
        <ele>91.517440250772</ele>
        <time>2020-11-25T15:09:42.000+01:00</time>
      </trkpt>
      <trkpt lat="43.67774" lon="4.07405">
        <ele>91.500633256028</ele>
        <time>2020-11-25T15:09:43.000+01:00</time>
      </trkpt>
      <trkpt lat="43.67775" lon="4.07407">
        <ele>91.483875624949</ele>
        <time>2020-11-25T15:09:44.000+01:00</time>
      </trkpt>
      <trkpt lat="43.67775" lon="4.07408">
        <ele>91.467225836069</ele>
        <time>2020-11-25T15:09:45.000+01:00</time>
      </trkpt>
      <trkpt lat="43.67776" lon="4.0741">
        <ele>91.450644207676</ele>
        <time>2020-11-25T15:09:46.000+01:00</time>
      </trkpt>
      <trkpt lat="43.67776" lon="4.07411">
        <ele>91.434205954303</ele>
        <time>2020-11-25T15:09:47.000+01:00</time>
      </trkpt>
      <trkpt lat="43.67777" lon="4.07413">
        <ele>91.417967991278</ele>
        <time>2020-11-25T15:09:48.000+01:00</time>
      </trkpt>
      <trkpt lat="43.67777" lon="4.07414">
        <ele>91.401934942142</ele>
        <time>2020-11-25T15:09:49.000+01:00</time>
      </trkpt>
      <trkpt lat="43.67777" lon="4.07415">
        <ele>91.385794679765</ele>
        <time>2020-11-25T15:09:50.000+01:00</time>
      </trkpt>
      <trkpt lat="43.67777" lon="4.07417">
        <ele>91.369864889914</ele>
        <time>2020-11-25T15:09:51.000+01:00</time>
      </trkpt>
      <trkpt lat="43.67777" lon="4.07418">
        <ele>91.354121280069</ele>
        <time>2020-11-25T15:09:52.000+01:00</time>
      </trkpt>
      <trkpt lat="43.67778" lon="4.0742">
        <ele>91.338568946339</ele>
        <time>2020-11-25T15:09:53.000+01:00</time>
      </trkpt>
      <trkpt lat="43.67778" lon="4.07421">
        <ele>91.32317430647</ele>
        <time>2020-11-25T15:09:54.000+01:00</time>
      </trkpt>
      <trkpt lat="43.67779" lon="4.07423">
        <ele>91.307933769995</ele>
        <time>2020-11-25T15:09:55.000+01:00</time>
      </trkpt>
      <trkpt lat="43.67779" lon="4.07424">
        <ele>91.292842942977</ele>
        <time>2020-11-25T15:09:56.000+01:00</time>
      </trkpt>
      <trkpt lat="43.67779" lon="4.07426">
        <ele>91.277813866445</ele>
        <time>2020-11-25T15:09:57.000+01:00</time>
      </trkpt>
      <trkpt lat="43.67779" lon="4.07427">
        <ele>91.262859055309</ele>
        <time>2020-11-25T15:09:58.000+01:00</time>
      </trkpt>
      <trkpt lat="43.6778" lon="4.07428">
        <ele>91.247925936569</ele>
        <time>2020-11-25T15:09:59.000+01:00</time>
      </trkpt>
      <trkpt lat="43.6778" lon="4.07429">
        <ele>91.233112848871</ele>
        <time>2020-11-25T15:10:00.000+01:00</time>
      </trkpt>
      <trkpt lat="43.6778" lon="4.0743">
        <ele>91.218400888293</ele>
        <time>2020-11-25T15:10:01.000+01:00</time>
      </trkpt>
      <trkpt lat="43.6778" lon="4.07431">
        <ele>91.203431801712</ele>
        <time>2020-11-25T15:10:02.000+01:00</time>
      </trkpt>
      <trkpt lat="43.6778" lon="4.07433">
        <ele>91.188597150292</ele>
        <time>2020-11-25T15:10:03.000+01:00</time>
      </trkpt>
      <trkpt lat="43.67781" lon="4.07434">
        <ele>91.173835809217</ele>
        <time>2020-11-25T15:10:04.000+01:00</time>
      </trkpt>
      <trkpt lat="43.67781" lon="4.07435">
        <ele>91.159168905207</ele>
        <time>2020-11-25T15:10:05.000+01:00</time>
      </trkpt>
      <trkpt lat="43.67781" lon="4.07437">
        <ele>91.144601657525</ele>
        <time>2020-11-25T15:10:06.000+01:00</time>
      </trkpt>
      <trkpt lat="43.67782" lon="4.07438">
        <ele>91.130145679992</ele>
        <time>2020-11-25T15:10:07.000+01:00</time>
      </trkpt>
      <trkpt lat="43.67783" lon="4.0744">
        <ele>91.115809693775</ele>
        <time>2020-11-25T15:10:08.000+01:00</time>
      </trkpt>
      <trkpt lat="43.67783" lon="4.07441">
        <ele>91.101620497643</ele>
        <time>2020-11-25T15:10:09.000+01:00</time>
      </trkpt>
      <trkpt lat="43.67783" lon="4.07441">
        <ele>91.087284906452</ele>
        <time>2020-11-25T15:10:10.000+01:00</time>
      </trkpt>
      <trkpt lat="43.67784" lon="4.07441">
        <ele>91.072866903163</ele>
        <time>2020-11-25T15:10:11.000+01:00</time>
      </trkpt>
      <trkpt lat="43.67784" lon="4.07442">
        <ele>91.058436621946</ele>
        <time>2020-11-25T15:10:12.000+01:00</time>
      </trkpt>
      <trkpt lat="43.67784" lon="4.07443">
        <ele>91.043976227333</ele>
        <time>2020-11-25T15:10:13.000+01:00</time>
      </trkpt>
      <trkpt lat="43.67784" lon="4.07445">
        <ele>91.029485127119</ele>
        <time>2020-11-25T15:10:14.000+01:00</time>
      </trkpt>
      <trkpt lat="43.67785" lon="4.07447">
        <ele>91.014973157087</ele>
        <time>2020-11-25T15:10:15.000+01:00</time>
      </trkpt>
      <trkpt lat="43.67785" lon="4.07448">
        <ele>91.000443532874</ele>
        <time>2020-11-25T15:10:16.000+01:00</time>
      </trkpt>
      <trkpt lat="43.67786" lon="4.0745">
        <ele>90.985876508603</ele>
        <time>2020-11-25T15:10:17.000+01:00</time>
      </trkpt>
      <trkpt lat="43.67786" lon="4.07451">
        <ele>90.971343073291</ele>
        <time>2020-11-25T15:10:18.000+01:00</time>
      </trkpt>
      <trkpt lat="43.67787" lon="4.07452">
        <ele>90.956973930154</ele>
        <time>2020-11-25T15:10:19.000+01:00</time>
      </trkpt>
      <trkpt lat="43.67787" lon="4.07454">
        <ele>90.942569808543</ele>
        <time>2020-11-25T15:10:20.000+01:00</time>
      </trkpt>
      <trkpt lat="43.67788" lon="4.07456">
        <ele>90.928151575356</ele>
        <time>2020-11-25T15:10:21.000+01:00</time>
      </trkpt>
      <trkpt lat="43.67788" lon="4.07458">
        <ele>90.913682228638</ele>
        <time>2020-11-25T15:10:22.000+01:00</time>
      </trkpt>
      <trkpt lat="43.67788" lon="4.07459">
        <ele>90.899188307663</ele>
        <time>2020-11-25T15:10:23.000+01:00</time>
      </trkpt>
      <trkpt lat="43.67788" lon="4.07461">
        <ele>90.884735179364</ele>
        <time>2020-11-25T15:10:24.000+01:00</time>
      </trkpt>
      <trkpt lat="43.67789" lon="4.07462">
        <ele>90.870368809908</ele>
        <time>2020-11-25T15:10:25.000+01:00</time>
      </trkpt>
      <trkpt lat="43.67789" lon="4.07464">
        <ele>90.856080776105</ele>
        <time>2020-11-25T15:10:26.000+01:00</time>
      </trkpt>
      <trkpt lat="43.6779" lon="4.07465">
        <ele>90.841822867786</ele>
        <time>2020-11-25T15:10:27.000+01:00</time>
      </trkpt>
      <trkpt lat="43.6779" lon="4.07466">
        <ele>90.827575055833</ele>
        <time>2020-11-25T15:10:28.000+01:00</time>
      </trkpt>
      <trkpt lat="43.6779" lon="4.07468">
        <ele>90.813367639356</ele>
        <time>2020-11-25T15:10:29.000+01:00</time>
      </trkpt>
      <trkpt lat="43.67791" lon="4.07469">
        <ele>90.799185040764</ele>
        <time>2020-11-25T15:10:30.000+01:00</time>
      </trkpt>
      <trkpt lat="43.67791" lon="4.07471">
        <ele>90.785078964661</ele>
        <time>2020-11-25T15:10:31.000+01:00</time>
      </trkpt>
      <trkpt lat="43.67792" lon="4.07473">
        <ele>90.771030791067</ele>
        <time>2020-11-25T15:10:32.000+01:00</time>
      </trkpt>
      <trkpt lat="43.67792" lon="4.07475">
        <ele>90.756590845719</ele>
        <time>2020-11-25T15:10:33.000+01:00</time>
      </trkpt>
      <trkpt lat="43.67793" lon="4.07476">
        <ele>90.742168426207</ele>
        <time>2020-11-25T15:10:34.000+01:00</time>
      </trkpt>
      <trkpt lat="43.67793" lon="4.07478">
        <ele>90.727239792571</ele>
        <time>2020-11-25T15:10:35.000+01:00</time>
      </trkpt>
      <trkpt lat="43.67794" lon="4.07481">
        <ele>90.712213915195</ele>
        <time>2020-11-25T15:10:36.000+01:00</time>
      </trkpt>
      <trkpt lat="43.67794" lon="4.07482">
        <ele>90.696918208046</ele>
        <time>2020-11-25T15:10:37.000+01:00</time>
      </trkpt>
      <trkpt lat="43.67795" lon="4.07484">
        <ele>90.681654973991</ele>
        <time>2020-11-25T15:10:38.000+01:00</time>
      </trkpt>
      <trkpt lat="43.67795" lon="4.07486">
        <ele>90.666498330365</ele>
        <time>2020-11-25T15:10:39.000+01:00</time>
      </trkpt>
      <trkpt lat="43.67795" lon="4.07487">
        <ele>90.65141238391</ele>
        <time>2020-11-25T15:10:40.000+01:00</time>
      </trkpt>
      <trkpt lat="43.67796" lon="4.07488">
        <ele>90.636488883366</ele>
        <time>2020-11-25T15:10:41.000+01:00</time>
      </trkpt>
      <trkpt lat="43.67796" lon="4.0749">
        <ele>90.621714342006</ele>
        <time>2020-11-25T15:10:42.000+01:00</time>
      </trkpt>
      <trkpt lat="43.67796" lon="4.07491">
        <ele>90.607057813021</ele>
        <time>2020-11-25T15:10:43.000+01:00</time>
      </trkpt>
      <trkpt lat="43.67797" lon="4.07492">
        <ele>90.592537974843</ele>
        <time>2020-11-25T15:10:44.000+01:00</time>
      </trkpt>
      <trkpt lat="43.67797" lon="4.07493">
        <ele>90.578079356856</ele>
        <time>2020-11-25T15:10:45.000+01:00</time>
      </trkpt>
      <trkpt lat="43.67797" lon="4.07494">
        <ele>90.563725592149</ele>
        <time>2020-11-25T15:10:46.000+01:00</time>
      </trkpt>
      <trkpt lat="43.67798" lon="4.07495">
        <ele>90.549530619913</ele>
        <time>2020-11-25T15:10:47.000+01:00</time>
      </trkpt>
      <trkpt lat="43.67798" lon="4.07497">
        <ele>90.535413724698</ele>
        <time>2020-11-25T15:10:48.000+01:00</time>
      </trkpt>
      <trkpt lat="43.67799" lon="4.07498">
        <ele>90.521330854025</ele>
        <time>2020-11-25T15:10:49.000+01:00</time>
      </trkpt>
      <trkpt lat="43.67799" lon="4.075">
        <ele>90.507291662026</ele>
        <time>2020-11-25T15:10:50.000+01:00</time>
      </trkpt>
      <trkpt lat="43.67799" lon="4.07501">
        <ele>90.49324076987</ele>
        <time>2020-11-25T15:10:51.000+01:00</time>
      </trkpt>
      <trkpt lat="43.67799" lon="4.07502">
        <ele>90.479229375843</ele>
        <time>2020-11-25T15:10:52.000+01:00</time>
      </trkpt>
      <trkpt lat="43.678" lon="4.07504">
        <ele>90.465252515321</ele>
        <time>2020-11-25T15:10:53.000+01:00</time>
      </trkpt>
      <trkpt lat="43.678" lon="4.07505">
        <ele>90.451258694343</ele>
        <time>2020-11-25T15:10:54.000+01:00</time>
      </trkpt>
      <trkpt lat="43.67801" lon="4.07507">
        <ele>90.437262670144</ele>
        <time>2020-11-25T15:10:55.000+01:00</time>
      </trkpt>
      <trkpt lat="43.67801" lon="4.07508">
        <ele>90.423314085028</ele>
        <time>2020-11-25T15:10:56.000+01:00</time>
      </trkpt>
      <trkpt lat="43.67801" lon="4.07509">
        <ele>90.409366781725</ele>
        <time>2020-11-25T15:10:57.000+01:00</time>
      </trkpt>
      <trkpt lat="43.67802" lon="4.07511">
        <ele>90.395482961118</ele>
        <time>2020-11-25T15:10:58.000+01:00</time>
      </trkpt>
      <trkpt lat="43.67802" lon="4.07513">
        <ele>90.381636290092</ele>
        <time>2020-11-25T15:10:59.000+01:00</time>
      </trkpt>
      <trkpt lat="43.67803" lon="4.07514">
        <ele>90.367839757327</ele>
        <time>2020-11-25T15:11:00.000+01:00</time>
      </trkpt>
      <trkpt lat="43.67803" lon="4.07515">
        <ele>90.354223389343</ele>
        <time>2020-11-25T15:11:01.000+01:00</time>
      </trkpt>
      <trkpt lat="43.67803" lon="4.07516">
        <ele>90.340803475784</ele>
        <time>2020-11-25T15:11:02.000+01:00</time>
      </trkpt>
      <trkpt lat="43.67803" lon="4.07518">
        <ele>90.32748649076</ele>
        <time>2020-11-25T15:11:03.000+01:00</time>
      </trkpt>
      <trkpt lat="43.67803" lon="4.07519">
        <ele>90.314171207441</ele>
        <time>2020-11-25T15:11:04.000+01:00</time>
      </trkpt>
      <trkpt lat="43.67803" lon="4.07521">
        <ele>90.300792278227</ele>
        <time>2020-11-25T15:11:05.000+01:00</time>
      </trkpt>
      <trkpt lat="43.67804" lon="4.07522">
        <ele>90.287349038828</ele>
        <time>2020-11-25T15:11:06.000+01:00</time>
      </trkpt>
      <trkpt lat="43.67804" lon="4.07523">
        <ele>90.273897044599</ele>
        <time>2020-11-25T15:11:07.000+01:00</time>
      </trkpt>
      <trkpt lat="43.67804" lon="4.07524">
        <ele>90.260399934819</ele>
        <time>2020-11-25T15:11:08.000+01:00</time>
      </trkpt>
      <trkpt lat="43.67804" lon="4.07525">
        <ele>90.246864780801</ele>
        <time>2020-11-25T15:11:09.000+01:00</time>
      </trkpt>
      <trkpt lat="43.67804" lon="4.07526">
        <ele>90.233339620896</ele>
        <time>2020-11-25T15:11:10.000+01:00</time>
      </trkpt>
      <trkpt lat="43.67805" lon="4.07527">
        <ele>90.219945544644</ele>
        <time>2020-11-25T15:11:11.000+01:00</time>
      </trkpt>
      <trkpt lat="43.67805" lon="4.07528">
        <ele>90.206568561226</ele>
        <time>2020-11-25T15:11:12.000+01:00</time>
      </trkpt>
      <trkpt lat="43.67805" lon="4.07529">
        <ele>90.193158264488</ele>
        <time>2020-11-25T15:11:13.000+01:00</time>
      </trkpt>
      <trkpt lat="43.67806" lon="4.07531">
        <ele>90.179727439611</ele>
        <time>2020-11-25T15:11:14.000+01:00</time>
      </trkpt>
      <trkpt lat="43.67806" lon="4.07532">
        <ele>90.166268338922</ele>
        <time>2020-11-25T15:11:15.000+01:00</time>
      </trkpt>
      <trkpt lat="43.67806" lon="4.07533">
        <ele>90.152841538579</ele>
        <time>2020-11-25T15:11:16.000+01:00</time>
      </trkpt>
      <trkpt lat="43.67806" lon="4.07533">
        <ele>90.139527598792</ele>
        <time>2020-11-25T15:11:17.000+01:00</time>
      </trkpt>
      <trkpt lat="43.67806" lon="4.07534">
        <ele>90.126305989769</ele>
        <time>2020-11-25T15:11:18.000+01:00</time>
      </trkpt>
      <trkpt lat="43.67806" lon="4.07535">
        <ele>90.113167107253</ele>
        <time>2020-11-25T15:11:19.000+01:00</time>
      </trkpt>
      <trkpt lat="43.67807" lon="4.07536">
        <ele>90.100248286403</ele>
        <time>2020-11-25T15:11:20.000+01:00</time>
      </trkpt>
      <trkpt lat="43.67807" lon="4.07537">
        <ele>90.08755376504</ele>
        <time>2020-11-25T15:11:21.000+01:00</time>
      </trkpt>
      <trkpt lat="43.67808" lon="4.07538">
        <ele>90.074939393973</ele>
        <time>2020-11-25T15:11:22.000+01:00</time>
      </trkpt>
      <trkpt lat="43.67808" lon="4.0754">
        <ele>90.062400702066</ele>
        <time>2020-11-25T15:11:23.000+01:00</time>
      </trkpt>
      <trkpt lat="43.67809" lon="4.07541">
        <ele>90.049986844224</ele>
        <time>2020-11-25T15:11:24.000+01:00</time>
      </trkpt>
      <trkpt lat="43.67809" lon="4.07543">
        <ele>90.037547007748</ele>
        <time>2020-11-25T15:11:25.000+01:00</time>
      </trkpt>
      <trkpt lat="43.6781" lon="4.07545">
        <ele>90.025194619325</ele>
        <time>2020-11-25T15:11:26.000+01:00</time>
      </trkpt>
      <trkpt lat="43.6781" lon="4.07546">
        <ele>90.012904428777</ele>
        <time>2020-11-25T15:11:27.000+01:00</time>
      </trkpt>
      <trkpt lat="43.67811" lon="4.07548">
        <ele>90.000776409465</ele>
        <time>2020-11-25T15:11:28.000+01:00</time>
      </trkpt>
      <trkpt lat="43.67811" lon="4.0755">
        <ele>89.988717461706</ele>
        <time>2020-11-25T15:11:29.000+01:00</time>
      </trkpt>
      <trkpt lat="43.67812" lon="4.07552">
        <ele>89.976750911801</ele>
        <time>2020-11-25T15:11:30.000+01:00</time>
      </trkpt>
      <trkpt lat="43.67812" lon="4.07554">
        <ele>89.964987396155</ele>
        <time>2020-11-25T15:11:31.000+01:00</time>
      </trkpt>
      <trkpt lat="43.67813" lon="4.07556">
        <ele>89.953432328665</ele>
        <time>2020-11-25T15:11:32.000+01:00</time>
      </trkpt>
      <trkpt lat="43.67813" lon="4.07558">
        <ele>89.94206611522</ele>
        <time>2020-11-25T15:11:33.000+01:00</time>
      </trkpt>
      <trkpt lat="43.67814" lon="4.0756">
        <ele>89.930882541185</ele>
        <time>2020-11-25T15:11:34.000+01:00</time>
      </trkpt>
      <trkpt lat="43.67815" lon="4.07561">
        <ele>89.919946851679</ele>
        <time>2020-11-25T15:11:35.000+01:00</time>
      </trkpt>
      <trkpt lat="43.67815" lon="4.07563">
        <ele>89.909150915305</ele>
        <time>2020-11-25T15:11:36.000+01:00</time>
      </trkpt>
      <trkpt lat="43.67815" lon="4.07564">
        <ele>89.898505772026</ele>
        <time>2020-11-25T15:11:37.000+01:00</time>
      </trkpt>
      <trkpt lat="43.67815" lon="4.07565">
        <ele>89.887924913047</ele>
        <time>2020-11-25T15:11:38.000+01:00</time>
      </trkpt>
      <trkpt lat="43.67815" lon="4.07567">
        <ele>89.877569541552</ele>
        <time>2020-11-25T15:11:39.000+01:00</time>
      </trkpt>
      <trkpt lat="43.67815" lon="4.07567">
        <ele>89.867344121519</ele>
        <time>2020-11-25T15:11:40.000+01:00</time>
      </trkpt>
      <trkpt lat="43.67816" lon="4.07569">
        <ele>89.857175456271</ele>
        <time>2020-11-25T15:11:41.000+01:00</time>
      </trkpt>
      <trkpt lat="43.67816" lon="4.0757">
        <ele>89.847149660996</ele>
        <time>2020-11-25T15:11:42.000+01:00</time>
      </trkpt>
      <trkpt lat="43.67816" lon="4.0757">
        <ele>89.837292034576</ele>
        <time>2020-11-25T15:11:43.000+01:00</time>
      </trkpt>
      <trkpt lat="43.67816" lon="4.07571">
        <ele>89.827610224875</ele>
        <time>2020-11-25T15:11:44.000+01:00</time>
      </trkpt>
      <trkpt lat="43.67816" lon="4.07573">
        <ele>89.818024806785</ele>
        <time>2020-11-25T15:11:45.000+01:00</time>
      </trkpt>
      <trkpt lat="43.67817" lon="4.07575">
        <ele>89.808495545008</ele>
        <time>2020-11-25T15:11:46.000+01:00</time>
      </trkpt>
      <trkpt lat="43.67817" lon="4.07576">
        <ele>89.799036089364</ele>
        <time>2020-11-25T15:11:47.000+01:00</time>
      </trkpt>
      <trkpt lat="43.67817" lon="4.07577">
        <ele>89.789555454914</ele>
        <time>2020-11-25T15:11:48.000+01:00</time>
      </trkpt>
      <trkpt lat="43.67818" lon="4.07578">
        <ele>89.780045909077</ele>
        <time>2020-11-25T15:11:49.000+01:00</time>
      </trkpt>
      <trkpt lat="43.67817" lon="4.07579">
        <ele>89.770453919921</ele>
        <time>2020-11-25T15:11:50.000+01:00</time>
      </trkpt>
      <trkpt lat="43.67817" lon="4.07581">
        <ele>89.760976783724</ele>
        <time>2020-11-25T15:11:51.000+01:00</time>
      </trkpt>
      <trkpt lat="43.67817" lon="4.07582">
        <ele>89.751618241981</ele>
        <time>2020-11-25T15:11:52.000+01:00</time>
      </trkpt>
      <trkpt lat="43.67817" lon="4.07583">
        <ele>89.742335109557</ele>
        <time>2020-11-25T15:11:53.000+01:00</time>
      </trkpt>
      <trkpt lat="43.67818" lon="4.07585">
        <ele>89.733223254697</ele>
        <time>2020-11-25T15:11:54.000+01:00</time>
      </trkpt>
      <trkpt lat="43.67818" lon="4.07586">
        <ele>89.724203096363</ele>
        <time>2020-11-25T15:11:55.000+01:00</time>
      </trkpt>
      <trkpt lat="43.67819" lon="4.07587">
        <ele>89.715242331056</ele>
        <time>2020-11-25T15:11:56.000+01:00</time>
      </trkpt>
      <trkpt lat="43.67819" lon="4.07589">
        <ele>89.706329474103</ele>
        <time>2020-11-25T15:11:57.000+01:00</time>
      </trkpt>
      <trkpt lat="43.6782" lon="4.0759">
        <ele>89.697403308741</ele>
        <time>2020-11-25T15:11:58.000+01:00</time>
      </trkpt>
      <trkpt lat="43.6782" lon="4.07591">
        <ele>89.688453428089</ele>
        <time>2020-11-25T15:11:59.000+01:00</time>
      </trkpt>
      <trkpt lat="43.6782" lon="4.07592">
        <ele>89.679524678041</ele>
        <time>2020-11-25T15:12:00.000+01:00</time>
      </trkpt>
      <trkpt lat="43.6782" lon="4.07594">
        <ele>89.670441836863</ele>
        <time>2020-11-25T15:12:01.000+01:00</time>
      </trkpt>
      <trkpt lat="43.6782" lon="4.07595">
        <ele>89.661176530294</ele>
        <time>2020-11-25T15:12:02.000+01:00</time>
      </trkpt>
      <trkpt lat="43.6782" lon="4.07596">
        <ele>89.651830201698</ele>
        <time>2020-11-25T15:12:03.000+01:00</time>
      </trkpt>
      <trkpt lat="43.67821" lon="4.07598">
        <ele>89.642346604257</ele>
        <time>2020-11-25T15:12:04.000+01:00</time>
      </trkpt>
      <trkpt lat="43.67821" lon="4.07599">
        <ele>89.632738188024</ele>
        <time>2020-11-25T15:12:05.000+01:00</time>
      </trkpt>
      <trkpt lat="43.67821" lon="4.076">
        <ele>89.623013565615</ele>
        <time>2020-11-25T15:12:06.000+01:00</time>
      </trkpt>
      <trkpt lat="43.67822" lon="4.07601">
        <ele>89.613292663176</ele>
        <time>2020-11-25T15:12:07.000+01:00</time>
      </trkpt>
      <trkpt lat="43.67822" lon="4.07602">
        <ele>89.60336400197</ele>
        <time>2020-11-25T15:12:08.000+01:00</time>
      </trkpt>
      <trkpt lat="43.67823" lon="4.07603">
        <ele>89.5933029229</ele>
        <time>2020-11-25T15:12:09.000+01:00</time>
      </trkpt>
      <trkpt lat="43.67823" lon="4.07605">
        <ele>89.583046144519</ele>
        <time>2020-11-25T15:12:10.000+01:00</time>
      </trkpt>
      <trkpt lat="43.67824" lon="4.07606">
        <ele>89.572864985542</ele>
        <time>2020-11-25T15:12:11.000+01:00</time>
      </trkpt>
      <trkpt lat="43.67825" lon="4.07609">
        <ele>89.562586651778</ele>
        <time>2020-11-25T15:12:12.000+01:00</time>
      </trkpt>
      <trkpt lat="43.67825" lon="4.0761">
        <ele>89.55226401861</ele>
        <time>2020-11-25T15:12:13.000+01:00</time>
      </trkpt>
      <trkpt lat="43.67825" lon="4.07611">
        <ele>89.541850517766</ele>
        <time>2020-11-25T15:12:14.000+01:00</time>
      </trkpt>
      <trkpt lat="43.67826" lon="4.07613">
        <ele>89.53150085588</ele>
        <time>2020-11-25T15:12:15.000+01:00</time>
      </trkpt>
      <trkpt lat="43.67826" lon="4.07614">
        <ele>89.521167531362</ele>
        <time>2020-11-25T15:12:16.000+01:00</time>
      </trkpt>
      <trkpt lat="43.67826" lon="4.07615">
        <ele>89.510889386854</ele>
        <time>2020-11-25T15:12:17.000+01:00</time>
      </trkpt>
      <trkpt lat="43.67827" lon="4.07616">
        <ele>89.50060664362</ele>
        <time>2020-11-25T15:12:18.000+01:00</time>
      </trkpt>
      <trkpt lat="43.67827" lon="4.07617">
        <ele>89.49047005186</ele>
        <time>2020-11-25T15:12:19.000+01:00</time>
      </trkpt>
      <trkpt lat="43.67828" lon="4.07619">
        <ele>89.48026798726</ele>
        <time>2020-11-25T15:12:20.000+01:00</time>
      </trkpt>
      <trkpt lat="43.67829" lon="4.07621">
        <ele>89.470087473357</ele>
        <time>2020-11-25T15:12:21.000+01:00</time>
      </trkpt>
      <trkpt lat="43.6783" lon="4.07622">
        <ele>89.459946051461</ele>
        <time>2020-11-25T15:12:22.000+01:00</time>
      </trkpt>
      <trkpt lat="43.6783" lon="4.07624">
        <ele>89.449781444212</ele>
        <time>2020-11-25T15:12:23.000+01:00</time>
      </trkpt>
      <trkpt lat="43.67831" lon="4.07625">
        <ele>89.439623296621</ele>
        <time>2020-11-25T15:12:24.000+01:00</time>
      </trkpt>
      <trkpt lat="43.67832" lon="4.07626">
        <ele>89.429427259325</ele>
        <time>2020-11-25T15:12:25.000+01:00</time>
      </trkpt>
      <trkpt lat="43.67832" lon="4.07627">
        <ele>89.419338482819</ele>
        <time>2020-11-25T15:12:26.000+01:00</time>
      </trkpt>
      <trkpt lat="43.67832" lon="4.07628">
        <ele>89.409259462467</ele>
        <time>2020-11-25T15:12:27.000+01:00</time>
      </trkpt>
      <trkpt lat="43.67833" lon="4.07629">
        <ele>89.399179735948</ele>
        <time>2020-11-25T15:12:28.000+01:00</time>
      </trkpt>
      <trkpt lat="43.67834" lon="4.0763">
        <ele>89.389133148563</ele>
        <time>2020-11-25T15:12:29.000+01:00</time>
      </trkpt>
      <trkpt lat="43.67834" lon="4.07632">
        <ele>89.379038297147</ele>
        <time>2020-11-25T15:12:30.000+01:00</time>
      </trkpt>
      <trkpt lat="43.67835" lon="4.07633">
        <ele>89.369007316084</ele>
        <time>2020-11-25T15:12:31.000+01:00</time>
      </trkpt>
      <trkpt lat="43.67835" lon="4.07634">
        <ele>89.358988949461</ele>
        <time>2020-11-25T15:12:32.000+01:00</time>
      </trkpt>
      <trkpt lat="43.67835" lon="4.07635">
        <ele>89.348949299715</ele>
        <time>2020-11-25T15:12:33.000+01:00</time>
      </trkpt>
      <trkpt lat="43.67836" lon="4.07636">
        <ele>89.339003688552</ele>
        <time>2020-11-25T15:12:34.000+01:00</time>
      </trkpt>
      <trkpt lat="43.67837" lon="4.07637">
        <ele>89.329183409113</ele>
        <time>2020-11-25T15:12:35.000+01:00</time>
      </trkpt>
      <trkpt lat="43.67838" lon="4.07638">
        <ele>89.319403623942</ele>
        <time>2020-11-25T15:12:36.000+01:00</time>
      </trkpt>
      <trkpt lat="43.67838" lon="4.0764">
        <ele>89.309681827769</ele>
        <time>2020-11-25T15:12:37.000+01:00</time>
      </trkpt>
      <trkpt lat="43.67839" lon="4.07643">
        <ele>89.299920553675</ele>
        <time>2020-11-25T15:12:38.000+01:00</time>
      </trkpt>
      <trkpt lat="43.67839" lon="4.07644">
        <ele>89.290093946116</ele>
        <time>2020-11-25T15:12:39.000+01:00</time>
      </trkpt>
      <trkpt lat="43.6784" lon="4.07646">
        <ele>89.280340612817</ele>
        <time>2020-11-25T15:12:40.000+01:00</time>
      </trkpt>
      <trkpt lat="43.6784" lon="4.07647">
        <ele>89.270651987159</ele>
        <time>2020-11-25T15:12:41.000+01:00</time>
      </trkpt>
      <trkpt lat="43.6784" lon="4.07648">
        <ele>89.261024935812</ele>
        <time>2020-11-25T15:12:42.000+01:00</time>
      </trkpt>
      <trkpt lat="43.67841" lon="4.07649">
        <ele>89.251488187254</ele>
        <time>2020-11-25T15:12:43.000+01:00</time>
      </trkpt>
      <trkpt lat="43.67841" lon="4.07651">
        <ele>89.241990589027</ele>
        <time>2020-11-25T15:12:44.000+01:00</time>
      </trkpt>
      <trkpt lat="43.67841" lon="4.07652">
        <ele>89.232619069182</ele>
        <time>2020-11-25T15:12:45.000+01:00</time>
      </trkpt>
      <trkpt lat="43.67842" lon="4.07653">
        <ele>89.223245729164</ele>
        <time>2020-11-25T15:12:46.000+01:00</time>
      </trkpt>
      <trkpt lat="43.67842" lon="4.07653">
        <ele>89.213917885087</ele>
        <time>2020-11-25T15:12:47.000+01:00</time>
      </trkpt>
      <trkpt lat="43.67842" lon="4.07655">
        <ele>89.204562692693</ele>
        <time>2020-11-25T15:12:48.000+01:00</time>
      </trkpt>
      <trkpt lat="43.67842" lon="4.07655">
        <ele>89.195273307699</ele>
        <time>2020-11-25T15:12:49.000+01:00</time>
      </trkpt>
      <trkpt lat="43.67842" lon="4.07656">
        <ele>89.186055587797</ele>
        <time>2020-11-25T15:12:50.000+01:00</time>
      </trkpt>
      <trkpt lat="43.67842" lon="4.07655">
        <ele>89.176908076861</ele>
        <time>2020-11-25T15:12:51.000+01:00</time>
      </trkpt>
      <trkpt lat="43.67843" lon="4.07656">
        <ele>89.167687691113</ele>
        <time>2020-11-25T15:12:52.000+01:00</time>
      </trkpt>
      <trkpt lat="43.67844" lon="4.0766">
        <ele>89.158271086228</ele>
        <time>2020-11-25T15:12:53.000+01:00</time>
      </trkpt>
      <trkpt lat="43.67845" lon="4.07667">
        <ele>89.148506402968</ele>
        <time>2020-11-25T15:12:54.000+01:00</time>
      </trkpt>
      <trkpt lat="43.67847" lon="4.07668">
        <ele>89.138624352528</ele>
        <time>2020-11-25T15:12:55.000+01:00</time>
      </trkpt>
      <trkpt lat="43.67847" lon="4.07669">
        <ele>89.128959287051</ele>
        <time>2020-11-25T15:12:56.000+01:00</time>
      </trkpt>
      <trkpt lat="43.67847" lon="4.07671">
        <ele>89.11953565441</ele>
        <time>2020-11-25T15:12:57.000+01:00</time>
      </trkpt>
      <trkpt lat="43.67848" lon="4.07672">
        <ele>89.110333840433</ele>
        <time>2020-11-25T15:12:58.000+01:00</time>
      </trkpt>
      <trkpt lat="43.67848" lon="4.07673">
        <ele>89.101288427889</ele>
        <time>2020-11-25T15:12:59.000+01:00</time>
      </trkpt>
      <trkpt lat="43.67848" lon="4.07675">
        <ele>89.092345184455</ele>
        <time>2020-11-25T15:13:00.000+01:00</time>
      </trkpt>
      <trkpt lat="43.67848" lon="4.07678">
        <ele>89.083679915858</ele>
        <time>2020-11-25T15:13:01.000+01:00</time>
      </trkpt>
      <trkpt lat="43.67849" lon="4.0768">
        <ele>89.075185596404</ele>
        <time>2020-11-25T15:13:02.000+01:00</time>
      </trkpt>
      <trkpt lat="43.67849" lon="4.07681">
        <ele>89.066928763937</ele>
        <time>2020-11-25T15:13:03.000+01:00</time>
      </trkpt>
      <trkpt lat="43.67849" lon="4.07683">
        <ele>89.05885242407</ele>
        <time>2020-11-25T15:13:04.000+01:00</time>
      </trkpt>
      <trkpt lat="43.67849" lon="4.07685">
        <ele>89.050888755742</ele>
        <time>2020-11-25T15:13:05.000+01:00</time>
      </trkpt>
      <trkpt lat="43.6785" lon="4.07686">
        <ele>89.043073132047</ele>
        <time>2020-11-25T15:13:06.000+01:00</time>
      </trkpt>
      <trkpt lat="43.6785" lon="4.07688">
        <ele>89.035339654664</ele>
        <time>2020-11-25T15:13:07.000+01:00</time>
      </trkpt>
      <trkpt lat="43.6785" lon="4.07689">
        <ele>89.027696657026</ele>
        <time>2020-11-25T15:13:08.000+01:00</time>
      </trkpt>
      <trkpt lat="43.6785" lon="4.0769">
        <ele>89.02012362195</ele>
        <time>2020-11-25T15:13:09.000+01:00</time>
      </trkpt>
      <trkpt lat="43.6785" lon="4.07692">
        <ele>89.012618772799</ele>
        <time>2020-11-25T15:13:10.000+01:00</time>
      </trkpt>
      <trkpt lat="43.6785" lon="4.07694">
        <ele>89.005178015973</ele>
        <time>2020-11-25T15:13:11.000+01:00</time>
      </trkpt>
      <trkpt lat="43.67849" lon="4.07696">
        <ele>88.997820344346</ele>
        <time>2020-11-25T15:13:12.000+01:00</time>
      </trkpt>
      <trkpt lat="43.67849" lon="4.07697">
        <ele>88.990452161613</ele>
        <time>2020-11-25T15:13:13.000+01:00</time>
      </trkpt>
      <trkpt lat="43.6785" lon="4.07699">
        <ele>88.983078528399</ele>
        <time>2020-11-25T15:13:14.000+01:00</time>
      </trkpt>
      <trkpt lat="43.6785" lon="4.07701">
        <ele>88.975758909618</ele>
        <time>2020-11-25T15:13:15.000+01:00</time>
      </trkpt>
      <trkpt lat="43.67851" lon="4.07703">
        <ele>88.968468615011</ele>
        <time>2020-11-25T15:13:16.000+01:00</time>
      </trkpt>
      <trkpt lat="43.67852" lon="4.07705">
        <ele>88.961287372593</ele>
        <time>2020-11-25T15:13:17.000+01:00</time>
      </trkpt>
      <trkpt lat="43.67852" lon="4.07706">
        <ele>88.954165007965</ele>
        <time>2020-11-25T15:13:18.000+01:00</time>
      </trkpt>
      <trkpt lat="43.67853" lon="4.07707">
        <ele>88.947114963018</ele>
        <time>2020-11-25T15:13:19.000+01:00</time>
      </trkpt>
      <trkpt lat="43.67853" lon="4.07709">
        <ele>88.939911739013</ele>
        <time>2020-11-25T15:13:20.000+01:00</time>
      </trkpt>
      <trkpt lat="43.67854" lon="4.07711">
        <ele>88.932657852882</ele>
        <time>2020-11-25T15:13:21.000+01:00</time>
      </trkpt>
      <trkpt lat="43.67854" lon="4.07712">
        <ele>88.925496479143</ele>
        <time>2020-11-25T15:13:22.000+01:00</time>
      </trkpt>
      <trkpt lat="43.67855" lon="4.07713">
        <ele>88.91848031498</ele>
        <time>2020-11-25T15:13:23.000+01:00</time>
      </trkpt>
      <trkpt lat="43.67856" lon="4.07715">
        <ele>88.911410375066</ele>
        <time>2020-11-25T15:13:24.000+01:00</time>
      </trkpt>
      <trkpt lat="43.67856" lon="4.07716">
        <ele>88.904329739303</ele>
        <time>2020-11-25T15:13:25.000+01:00</time>
      </trkpt>
      <trkpt lat="43.67857" lon="4.07717">
        <ele>88.896995782783</ele>
        <time>2020-11-25T15:13:26.000+01:00</time>
      </trkpt>
      <trkpt lat="43.67858" lon="4.07718">
        <ele>88.889763927333</ele>
        <time>2020-11-25T15:13:27.000+01:00</time>
      </trkpt>
      <trkpt lat="43.67858" lon="4.07719">
        <ele>88.882537310793</ele>
        <time>2020-11-25T15:13:28.000+01:00</time>
      </trkpt>
      <trkpt lat="43.67859" lon="4.0772">
        <ele>88.875314149786</ele>
        <time>2020-11-25T15:13:29.000+01:00</time>
      </trkpt>
      <trkpt lat="43.6786" lon="4.07721">
        <ele>88.868178404581</ele>
        <time>2020-11-25T15:13:30.000+01:00</time>
      </trkpt>
      <trkpt lat="43.67861" lon="4.07722">
        <ele>88.860973540003</ele>
        <time>2020-11-25T15:13:31.000+01:00</time>
      </trkpt>
      <trkpt lat="43.67862" lon="4.07723">
        <ele>88.853677910223</ele>
        <time>2020-11-25T15:13:32.000+01:00</time>
      </trkpt>
      <trkpt lat="43.67862" lon="4.07724">
        <ele>88.84629780128</ele>
        <time>2020-11-25T15:13:33.000+01:00</time>
      </trkpt>
      <trkpt lat="43.67863" lon="4.07724">
        <ele>88.838855041065</ele>
        <time>2020-11-25T15:13:34.000+01:00</time>
      </trkpt>
      <trkpt lat="43.67864" lon="4.07725">
        <ele>88.831434319964</ele>
        <time>2020-11-25T15:13:35.000+01:00</time>
      </trkpt>
      <trkpt lat="43.67865" lon="4.07725">
        <ele>88.824035674505</ele>
        <time>2020-11-25T15:13:36.000+01:00</time>
      </trkpt>
      <trkpt lat="43.67866" lon="4.07727">
        <ele>88.816549363093</ele>
        <time>2020-11-25T15:13:37.000+01:00</time>
      </trkpt>
      <trkpt lat="43.67867" lon="4.07728">
        <ele>88.808919224145</ele>
        <time>2020-11-25T15:13:38.000+01:00</time>
      </trkpt>
      <trkpt lat="43.67868" lon="4.07729">
        <ele>88.801239308938</ele>
        <time>2020-11-25T15:13:39.000+01:00</time>
      </trkpt>
      <trkpt lat="43.67868" lon="4.0773">
        <ele>88.793356906916</ele>
        <time>2020-11-25T15:13:40.000+01:00</time>
      </trkpt>
      <trkpt lat="43.6787" lon="4.07731">
        <ele>88.785253857179</ele>
        <time>2020-11-25T15:13:41.000+01:00</time>
      </trkpt>
      <trkpt lat="43.67871" lon="4.07732">
        <ele>88.777065144167</ele>
        <time>2020-11-25T15:13:42.000+01:00</time>
      </trkpt>
      <trkpt lat="43.67872" lon="4.07733">
        <ele>88.76880237228</ele>
        <time>2020-11-25T15:13:43.000+01:00</time>
      </trkpt>
      <trkpt lat="43.67873" lon="4.07733">
        <ele>88.760518978852</ele>
        <time>2020-11-25T15:13:44.000+01:00</time>
      </trkpt>
      <trkpt lat="43.67874" lon="4.07734">
        <ele>88.752187556719</ele>
        <time>2020-11-25T15:13:45.000+01:00</time>
      </trkpt>
      <trkpt lat="43.67875" lon="4.07735">
        <ele>88.74383573479</ele>
        <time>2020-11-25T15:13:46.000+01:00</time>
      </trkpt>
      <trkpt lat="43.67876" lon="4.07736">
        <ele>88.735481967655</ele>
        <time>2020-11-25T15:13:47.000+01:00</time>
      </trkpt>
      <trkpt lat="43.67877" lon="4.07737">
        <ele>88.72710655104</ele>
        <time>2020-11-25T15:13:48.000+01:00</time>
      </trkpt>
      <trkpt lat="43.67878" lon="4.07737">
        <ele>88.718921240255</ele>
        <time>2020-11-25T15:13:49.000+01:00</time>
      </trkpt>
      <trkpt lat="43.67879" lon="4.07738">
        <ele>88.710733017981</ele>
        <time>2020-11-25T15:13:50.000+01:00</time>
      </trkpt>
      <trkpt lat="43.6788" lon="4.07738">
        <ele>88.702466627266</ele>
        <time>2020-11-25T15:13:51.000+01:00</time>
      </trkpt>
      <trkpt lat="43.67881" lon="4.07739">
        <ele>88.694239530656</ele>
        <time>2020-11-25T15:13:52.000+01:00</time>
      </trkpt>
      <trkpt lat="43.67881" lon="4.07739">
        <ele>88.686087178918</ele>
        <time>2020-11-25T15:13:53.000+01:00</time>
      </trkpt>
      <trkpt lat="43.67882" lon="4.0774">
        <ele>88.677696032214</ele>
        <time>2020-11-25T15:13:54.000+01:00</time>
      </trkpt>
      <trkpt lat="43.67883" lon="4.0774">
        <ele>88.669378264811</ele>
        <time>2020-11-25T15:13:55.000+01:00</time>
      </trkpt>
      <trkpt lat="43.67884" lon="4.07741">
        <ele>88.661166493038</ele>
        <time>2020-11-25T15:13:56.000+01:00</time>
      </trkpt>
      <trkpt lat="43.67885" lon="4.07743">
        <ele>88.652789819242</ele>
        <time>2020-11-25T15:13:57.000+01:00</time>
      </trkpt>
      <trkpt lat="43.67886" lon="4.07744">
        <ele>88.644270147358</ele>
        <time>2020-11-25T15:13:58.000+01:00</time>
      </trkpt>
      <trkpt lat="43.67887" lon="4.07744">
        <ele>88.63574883856</ele>
        <time>2020-11-25T15:13:59.000+01:00</time>
      </trkpt>
      <trkpt lat="43.67888" lon="4.07745">
        <ele>88.627169757318</ele>
        <time>2020-11-25T15:14:00.000+01:00</time>
      </trkpt>
      <trkpt lat="43.67889" lon="4.07745">
        <ele>88.618465276951</ele>
        <time>2020-11-25T15:14:01.000+01:00</time>
      </trkpt>
      <trkpt lat="43.67889" lon="4.07746">
        <ele>88.617591098645</ele>
        <time>2020-11-25T15:14:02.000+01:00</time>
      </trkpt>
      <trkpt lat="43.6789" lon="4.07746">
        <ele>88.60868731432</ele>
        <time>2020-11-25T15:14:03.000+01:00</time>
      </trkpt>
      <trkpt lat="43.67891" lon="4.07747">
        <ele>88.599831019664</ele>
        <time>2020-11-25T15:14:04.000+01:00</time>
      </trkpt>
      <trkpt lat="43.67892" lon="4.07747">
        <ele>88.591110709083</ele>
        <time>2020-11-25T15:14:05.000+01:00</time>
      </trkpt>
      <trkpt lat="43.67893" lon="4.07748">
        <ele>88.582525031725</ele>
        <time>2020-11-25T15:14:06.000+01:00</time>
      </trkpt>
      <trkpt lat="43.67894" lon="4.07748">
        <ele>88.573971869447</ele>
        <time>2020-11-25T15:14:07.000+01:00</time>
      </trkpt>
      <trkpt lat="43.67895" lon="4.07749">
        <ele>88.565472029727</ele>
        <time>2020-11-25T15:14:08.000+01:00</time>
      </trkpt>
      <trkpt lat="43.67896" lon="4.0775">
        <ele>88.556941002821</ele>
        <time>2020-11-25T15:14:09.000+01:00</time>
      </trkpt>
      <trkpt lat="43.67897" lon="4.07751">
        <ele>88.548516810925</ele>
        <time>2020-11-25T15:14:10.000+01:00</time>
      </trkpt>
      <trkpt lat="43.67899" lon="4.07751">
        <ele>88.54032101978</ele>
        <time>2020-11-25T15:14:11.000+01:00</time>
      </trkpt>
      <trkpt lat="43.679" lon="4.07752">
        <ele>88.532277326518</ele>
        <time>2020-11-25T15:14:12.000+01:00</time>
      </trkpt>
      <trkpt lat="43.67901" lon="4.07752">
        <ele>88.524346819908</ele>
        <time>2020-11-25T15:14:13.000+01:00</time>
      </trkpt>
      <trkpt lat="43.67902" lon="4.07751">
        <ele>88.51646921973</ele>
        <time>2020-11-25T15:14:14.000+01:00</time>
      </trkpt>
      <trkpt lat="43.67903" lon="4.07751">
        <ele>88.508636079624</ele>
        <time>2020-11-25T15:14:15.000+01:00</time>
      </trkpt>
      <trkpt lat="43.67904" lon="4.07752">
        <ele>88.500921240097</ele>
        <time>2020-11-25T15:14:16.000+01:00</time>
      </trkpt>
      <trkpt lat="43.67904" lon="4.07753">
        <ele>88.493368036777</ele>
        <time>2020-11-25T15:14:17.000+01:00</time>
      </trkpt>
      <trkpt lat="43.67905" lon="4.07752">
        <ele>88.485883651098</ele>
        <time>2020-11-25T15:14:18.000+01:00</time>
      </trkpt>
      <trkpt lat="43.67907" lon="4.07751">
        <ele>88.478417290006</ele>
        <time>2020-11-25T15:14:19.000+01:00</time>
      </trkpt>
      <trkpt lat="43.67908" lon="4.0775">
        <ele>88.470949474644</ele>
        <time>2020-11-25T15:14:20.000+01:00</time>
      </trkpt>
      <trkpt lat="43.67908" lon="4.0775">
        <ele>88.463520992961</ele>
        <time>2020-11-25T15:14:21.000+01:00</time>
      </trkpt>
      <trkpt lat="43.67909" lon="4.0775">
        <ele>88.456146457359</ele>
        <time>2020-11-25T15:14:22.000+01:00</time>
      </trkpt>
      <trkpt lat="43.67911" lon="4.0775">
        <ele>88.448967591452</ele>
        <time>2020-11-25T15:14:23.000+01:00</time>
      </trkpt>
      <trkpt lat="43.67913" lon="4.07752">
        <ele>88.442062571547</ele>
        <time>2020-11-25T15:14:24.000+01:00</time>
      </trkpt>
      <trkpt lat="43.67914" lon="4.07749">
        <ele>88.43528051504</ele>
        <time>2020-11-25T15:14:25.000+01:00</time>
      </trkpt>
      <trkpt lat="43.67914" lon="4.07751">
        <ele>88.428696070413</ele>
        <time>2020-11-25T15:14:26.000+01:00</time>
      </trkpt>
      <trkpt lat="43.67915" lon="4.07751">
        <ele>88.422000189424</ele>
        <time>2020-11-25T15:14:27.000+01:00</time>
      </trkpt>
      <trkpt lat="43.67915" lon="4.07753">
        <ele>88.41530192606</ele>
        <time>2020-11-25T15:14:28.000+01:00</time>
      </trkpt>
      <trkpt lat="43.67916" lon="4.07752">
        <ele>88.408653147181</ele>
        <time>2020-11-25T15:14:29.000+01:00</time>
      </trkpt>
      <trkpt lat="43.67917" lon="4.07753">
        <ele>88.402088051295</ele>
        <time>2020-11-25T15:14:30.000+01:00</time>
      </trkpt>
      <trkpt lat="43.67918" lon="4.07754">
        <ele>88.395610307374</ele>
        <time>2020-11-25T15:14:31.000+01:00</time>
      </trkpt>
      <trkpt lat="43.67919" lon="4.07755">
        <ele>88.389066323531</ele>
        <time>2020-11-25T15:14:32.000+01:00</time>
      </trkpt>
      <trkpt lat="43.6792" lon="4.07756">
        <ele>88.38252385312</ele>
        <time>2020-11-25T15:14:33.000+01:00</time>
      </trkpt>
      <trkpt lat="43.67921" lon="4.07757">
        <ele>88.375834364611</ele>
        <time>2020-11-25T15:14:34.000+01:00</time>
      </trkpt>
      <trkpt lat="43.67922" lon="4.07758">
        <ele>88.369065860565</ele>
        <time>2020-11-25T15:14:35.000+01:00</time>
      </trkpt>
      <trkpt lat="43.67924" lon="4.0776">
        <ele>88.362240442478</ele>
        <time>2020-11-25T15:14:36.000+01:00</time>
      </trkpt>
      <trkpt lat="43.67925" lon="4.07762">
        <ele>88.361558693142</ele>
        <time>2020-11-25T15:14:37.000+01:00</time>
      </trkpt>
      <trkpt lat="43.67925" lon="4.07764">
        <ele>88.360848419243</ele>
        <time>2020-11-25T15:14:38.000+01:00</time>
      </trkpt>
      <trkpt lat="43.67925" lon="4.07764">
        <ele>88.360091364697</ele>
        <time>2020-11-25T15:14:39.000+01:00</time>
      </trkpt>
      <trkpt lat="43.67926" lon="4.07764">
        <ele>88.359329929509</ele>
        <time>2020-11-25T15:14:40.000+01:00</time>
      </trkpt>
      <trkpt lat="43.67926" lon="4.07764">
        <ele>88.358586241056</ele>
        <time>2020-11-25T15:14:41.000+01:00</time>
      </trkpt>
      <trkpt lat="43.67926" lon="4.07764">
        <ele>88.357840916866</ele>
        <time>2020-11-25T15:14:42.000+01:00</time>
      </trkpt>
      <trkpt lat="43.67926" lon="4.07764">
        <ele>88.35708769092</ele>
        <time>2020-11-25T15:14:43.000+01:00</time>
      </trkpt>
      <trkpt lat="43.67926" lon="4.07764">
        <ele>88.356341126398</ele>
        <time>2020-11-25T15:14:44.000+01:00</time>
      </trkpt>
      <trkpt lat="43.67926" lon="4.07764">
        <ele>88.355600754931</ele>
        <time>2020-11-25T15:14:45.000+01:00</time>
      </trkpt>
      <trkpt lat="43.67926" lon="4.07764">
        <ele>88.354852134824</ele>
        <time>2020-11-25T15:14:46.000+01:00</time>
      </trkpt>
      <trkpt lat="43.67926" lon="4.07764">
        <ele>88.354097103487</ele>
        <time>2020-11-25T15:14:47.000+01:00</time>
      </trkpt>
      <trkpt lat="43.67926" lon="4.07764">
        <ele>88.353349959126</ele>
        <time>2020-11-25T15:14:48.000+01:00</time>
      </trkpt>
      <trkpt lat="43.67926" lon="4.07764">
        <ele>88.352608972023</ele>
        <time>2020-11-25T15:14:49.000+01:00</time>
      </trkpt>
      <trkpt lat="43.67926" lon="4.07764">
        <ele>88.351858598919</ele>
        <time>2020-11-25T15:14:50.000+01:00</time>
      </trkpt>
      <trkpt lat="43.67926" lon="4.07764">
        <ele>88.351117833834</ele>
        <time>2020-11-25T15:14:51.000+01:00</time>
      </trkpt>
      <trkpt lat="43.67926" lon="4.07764">
        <ele>88.350368841288</ele>
        <time>2020-11-25T15:14:52.000+01:00</time>
      </trkpt>
      <trkpt lat="43.67926" lon="4.07764">
        <ele>88.349612689974</ele>
        <time>2020-11-25T15:14:53.000+01:00</time>
      </trkpt>
      <trkpt lat="43.67926" lon="4.07764">
        <ele>88.348874603572</ele>
        <time>2020-11-25T15:14:54.000+01:00</time>
      </trkpt>
      <trkpt lat="43.67926" lon="4.07765">
        <ele>88.348148948036</ele>
        <time>2020-11-25T15:14:55.000+01:00</time>
      </trkpt>
      <trkpt lat="43.67927" lon="4.07765">
        <ele>88.347433546905</ele>
        <time>2020-11-25T15:14:56.000+01:00</time>
      </trkpt>
      <trkpt lat="43.67927" lon="4.07765">
        <ele>88.346708570988</ele>
        <time>2020-11-25T15:14:57.000+01:00</time>
      </trkpt>
      <trkpt lat="43.67927" lon="4.07765">
        <ele>88.345978727615</ele>
        <time>2020-11-25T15:14:58.000+01:00</time>
      </trkpt>
      <trkpt lat="43.67927" lon="4.07765">
        <ele>88.34524087428</ele>
        <time>2020-11-25T15:14:59.000+01:00</time>
      </trkpt>
      <trkpt lat="43.67927" lon="4.07765">
        <ele>88.344490053938</ele>
        <time>2020-11-25T15:15:00.000+01:00</time>
      </trkpt>
      <trkpt lat="43.67927" lon="4.07765">
        <ele>88.343751728642</ele>
        <time>2020-11-25T15:15:01.000+01:00</time>
      </trkpt>
      <trkpt lat="43.67927" lon="4.07765">
        <ele>88.343009448302</ele>
        <time>2020-11-25T15:15:02.000+01:00</time>
      </trkpt>
      <trkpt lat="43.67927" lon="4.07765">
        <ele>88.335380230907</ele>
        <time>2020-11-25T15:15:03.000+01:00</time>
      </trkpt>
      <trkpt lat="43.67926" lon="4.07766">
        <ele>88.327902809724</ele>
        <time>2020-11-25T15:15:04.000+01:00</time>
      </trkpt>
      <trkpt lat="43.67925" lon="4.07767">
        <ele>88.320316981023</ele>
        <time>2020-11-25T15:15:05.000+01:00</time>
      </trkpt>
      <trkpt lat="43.67925" lon="4.07767">
        <ele>88.319579654772</ele>
        <time>2020-11-25T15:15:06.000+01:00</time>
      </trkpt>
      <trkpt lat="43.67926" lon="4.07767">
        <ele>88.318860565354</ele>
        <time>2020-11-25T15:15:07.000+01:00</time>
      </trkpt>
      <trkpt lat="43.67926" lon="4.07767">
        <ele>88.318158863602</ele>
        <time>2020-11-25T15:15:08.000+01:00</time>
      </trkpt>
      <trkpt lat="43.67926" lon="4.07767">
        <ele>88.317452203461</ele>
        <time>2020-11-25T15:15:09.000+01:00</time>
      </trkpt>
      <trkpt lat="43.67926" lon="4.07767">
        <ele>88.316724325745</ele>
        <time>2020-11-25T15:15:10.000+01:00</time>
      </trkpt>
      <trkpt lat="43.67926" lon="4.07767">
        <ele>88.31597970475</ele>
        <time>2020-11-25T15:15:11.000+01:00</time>
      </trkpt>
      <trkpt lat="43.67926" lon="4.07767">
        <ele>88.315200581908</ele>
        <time>2020-11-25T15:15:12.000+01:00</time>
      </trkpt>
      <trkpt lat="43.67926" lon="4.07767">
        <ele>88.314404047711</ele>
        <time>2020-11-25T15:15:13.000+01:00</time>
      </trkpt>
      <trkpt lat="43.67926" lon="4.07768">
        <ele>88.313566494353</ele>
        <time>2020-11-25T15:15:14.000+01:00</time>
      </trkpt>
      <trkpt lat="43.67925" lon="4.07768">
        <ele>88.312708645133</ele>
        <time>2020-11-25T15:15:15.000+01:00</time>
      </trkpt>
      <trkpt lat="43.67925" lon="4.07768">
        <ele>88.311839139295</ele>
        <time>2020-11-25T15:15:16.000+01:00</time>
      </trkpt>
      <trkpt lat="43.67926" lon="4.07768">
        <ele>88.303267618576</ele>
        <time>2020-11-25T15:15:17.000+01:00</time>
      </trkpt>
      <trkpt lat="43.67926" lon="4.07767">
        <ele>88.294983309601</ele>
        <time>2020-11-25T15:15:18.000+01:00</time>
      </trkpt>
      <trkpt lat="43.67926" lon="4.07767">
        <ele>88.286727306099</ele>
        <time>2020-11-25T15:15:19.000+01:00</time>
      </trkpt>
      <trkpt lat="43.67926" lon="4.07766">
        <ele>88.278492149078</ele>
        <time>2020-11-25T15:15:20.000+01:00</time>
      </trkpt>
      <trkpt lat="43.67927" lon="4.07767">
        <ele>88.270393501842</ele>
        <time>2020-11-25T15:15:21.000+01:00</time>
      </trkpt>
      <trkpt lat="43.67928" lon="4.07767">
        <ele>88.262482764518</ele>
        <time>2020-11-25T15:15:22.000+01:00</time>
      </trkpt>
      <trkpt lat="43.67929" lon="4.07768">
        <ele>88.254692240752</ele>
        <time>2020-11-25T15:15:23.000+01:00</time>
      </trkpt>
      <trkpt lat="43.67929" lon="4.07768">
        <ele>88.247042426892</ele>
        <time>2020-11-25T15:15:24.000+01:00</time>
      </trkpt>
      <trkpt lat="43.6793" lon="4.07769">
        <ele>88.239566509685</ele>
        <time>2020-11-25T15:15:25.000+01:00</time>
      </trkpt>
      <trkpt lat="43.67931" lon="4.07769">
        <ele>88.232263900998</ele>
        <time>2020-11-25T15:15:26.000+01:00</time>
      </trkpt>
      <trkpt lat="43.67932" lon="4.07769">
        <ele>88.225166680429</ele>
        <time>2020-11-25T15:15:27.000+01:00</time>
      </trkpt>
      <trkpt lat="43.67933" lon="4.0777">
        <ele>88.218106123903</ele>
        <time>2020-11-25T15:15:28.000+01:00</time>
      </trkpt>
      <trkpt lat="43.67934" lon="4.07771">
        <ele>88.211184431997</ele>
        <time>2020-11-25T15:15:29.000+01:00</time>
      </trkpt>
      <trkpt lat="43.67936" lon="4.07772">
        <ele>88.204198180347</ele>
        <time>2020-11-25T15:15:30.000+01:00</time>
      </trkpt>
      <trkpt lat="43.67937" lon="4.07772">
        <ele>88.197179412949</ele>
        <time>2020-11-25T15:15:31.000+01:00</time>
      </trkpt>
      <trkpt lat="43.67938" lon="4.07773">
        <ele>88.190101608392</ele>
        <time>2020-11-25T15:15:32.000+01:00</time>
      </trkpt>
      <trkpt lat="43.67939" lon="4.07774">
        <ele>88.182757989139</ele>
        <time>2020-11-25T15:15:33.000+01:00</time>
      </trkpt>
      <trkpt lat="43.6794" lon="4.07775">
        <ele>88.175157457463</ele>
        <time>2020-11-25T15:15:34.000+01:00</time>
      </trkpt>
      <trkpt lat="43.67941" lon="4.07777">
        <ele>88.167387396544</ele>
        <time>2020-11-25T15:15:35.000+01:00</time>
      </trkpt>
      <trkpt lat="43.67942" lon="4.07778">
        <ele>88.159567172735</ele>
        <time>2020-11-25T15:15:36.000+01:00</time>
      </trkpt>
      <trkpt lat="43.67943" lon="4.07779">
        <ele>88.151700495677</ele>
        <time>2020-11-25T15:15:37.000+01:00</time>
      </trkpt>
      <trkpt lat="43.67944" lon="4.0778">
        <ele>88.143648914149</ele>
        <time>2020-11-25T15:15:38.000+01:00</time>
      </trkpt>
      <trkpt lat="43.67945" lon="4.07781">
        <ele>88.135479417404</ele>
        <time>2020-11-25T15:15:39.000+01:00</time>
      </trkpt>
      <trkpt lat="43.67946" lon="4.07781">
        <ele>88.127197287058</ele>
        <time>2020-11-25T15:15:40.000+01:00</time>
      </trkpt>
      <trkpt lat="43.67947" lon="4.07782">
        <ele>88.11891553445</ele>
        <time>2020-11-25T15:15:41.000+01:00</time>
      </trkpt>
      <trkpt lat="43.67948" lon="4.07783">
        <ele>88.110519796781</ele>
        <time>2020-11-25T15:15:42.000+01:00</time>
      </trkpt>
      <trkpt lat="43.67949" lon="4.07784">
        <ele>88.102080134016</ele>
        <time>2020-11-25T15:15:43.000+01:00</time>
      </trkpt>
      <trkpt lat="43.6795" lon="4.07784">
        <ele>88.093575452753</ele>
        <time>2020-11-25T15:15:44.000+01:00</time>
      </trkpt>
      <trkpt lat="43.67951" lon="4.07785">
        <ele>88.08499939855</ele>
        <time>2020-11-25T15:15:45.000+01:00</time>
      </trkpt>
      <trkpt lat="43.67952" lon="4.07786">
        <ele>88.076233190871</ele>
        <time>2020-11-25T15:15:46.000+01:00</time>
      </trkpt>
      <trkpt lat="43.67953" lon="4.07787">
        <ele>88.067539047477</ele>
        <time>2020-11-25T15:15:47.000+01:00</time>
      </trkpt>
      <trkpt lat="43.67955" lon="4.07788">
        <ele>88.058837525142</ele>
        <time>2020-11-25T15:15:48.000+01:00</time>
      </trkpt>
      <trkpt lat="43.67955" lon="4.07789">
        <ele>88.050133117239</ele>
        <time>2020-11-25T15:15:49.000+01:00</time>
      </trkpt>
      <trkpt lat="43.67956" lon="4.07789">
        <ele>88.041308762726</ele>
        <time>2020-11-25T15:15:50.000+01:00</time>
      </trkpt>
      <trkpt lat="43.67956" lon="4.0779">
        <ele>88.032566330599</ele>
        <time>2020-11-25T15:15:51.000+01:00</time>
      </trkpt>
      <trkpt lat="43.67957" lon="4.07791">
        <ele>88.02382264319</ele>
        <time>2020-11-25T15:15:52.000+01:00</time>
      </trkpt>
      <trkpt lat="43.67958" lon="4.07792">
        <ele>88.01532696069</ele>
        <time>2020-11-25T15:15:53.000+01:00</time>
      </trkpt>
      <trkpt lat="43.67959" lon="4.07792">
        <ele>88.006924949592</ele>
        <time>2020-11-25T15:15:54.000+01:00</time>
      </trkpt>
      <trkpt lat="43.6796" lon="4.07793">
        <ele>87.998521153458</ele>
        <time>2020-11-25T15:15:55.000+01:00</time>
      </trkpt>
      <trkpt lat="43.67961" lon="4.07793">
        <ele>87.990188743692</ele>
        <time>2020-11-25T15:15:56.000+01:00</time>
      </trkpt>
      <trkpt lat="43.67962" lon="4.07794">
        <ele>87.981882343361</ele>
        <time>2020-11-25T15:15:57.000+01:00</time>
      </trkpt>
      <trkpt lat="43.67963" lon="4.07795">
        <ele>87.973672093052</ele>
        <time>2020-11-25T15:15:58.000+01:00</time>
      </trkpt>
      <trkpt lat="43.67964" lon="4.07796">
        <ele>87.965480261041</ele>
        <time>2020-11-25T15:15:59.000+01:00</time>
      </trkpt>
      <trkpt lat="43.67965" lon="4.07796">
        <ele>87.957017170514</ele>
        <time>2020-11-25T15:16:00.000+01:00</time>
      </trkpt>
      <trkpt lat="43.67966" lon="4.07797">
        <ele>87.948260190716</ele>
        <time>2020-11-25T15:16:01.000+01:00</time>
      </trkpt>
      <trkpt lat="43.67967" lon="4.07798">
        <ele>87.939268815047</ele>
        <time>2020-11-25T15:16:02.000+01:00</time>
      </trkpt>
      <trkpt lat="43.67968" lon="4.07799">
        <ele>87.929854072871</ele>
        <time>2020-11-25T15:16:03.000+01:00</time>
      </trkpt>
      <trkpt lat="43.67968" lon="4.07799">
        <ele>87.920159825327</ele>
        <time>2020-11-25T15:16:04.000+01:00</time>
      </trkpt>
      <trkpt lat="43.67969" lon="4.078">
        <ele>87.910178613717</ele>
        <time>2020-11-25T15:16:05.000+01:00</time>
      </trkpt>
      <trkpt lat="43.6797" lon="4.07801">
        <ele>87.900063842196</ele>
        <time>2020-11-25T15:16:06.000+01:00</time>
      </trkpt>
      <trkpt lat="43.67971" lon="4.07802">
        <ele>87.889737741408</ele>
        <time>2020-11-25T15:16:07.000+01:00</time>
      </trkpt>
      <trkpt lat="43.67972" lon="4.07804">
        <ele>87.879316365428</ele>
        <time>2020-11-25T15:16:08.000+01:00</time>
      </trkpt>
      <trkpt lat="43.67973" lon="4.07805">
        <ele>87.868683829887</ele>
        <time>2020-11-25T15:16:09.000+01:00</time>
      </trkpt>
      <trkpt lat="43.67975" lon="4.07806">
        <ele>87.857978392606</ele>
        <time>2020-11-25T15:16:10.000+01:00</time>
      </trkpt>
      <trkpt lat="43.67976" lon="4.07807">
        <ele>87.847007557466</ele>
        <time>2020-11-25T15:16:11.000+01:00</time>
      </trkpt>
      <trkpt lat="43.67976" lon="4.07808">
        <ele>87.836007876939</ele>
        <time>2020-11-25T15:16:12.000+01:00</time>
      </trkpt>
      <trkpt lat="43.67977" lon="4.07809">
        <ele>87.824535956854</ele>
        <time>2020-11-25T15:16:13.000+01:00</time>
      </trkpt>
      <trkpt lat="43.67978" lon="4.0781">
        <ele>87.81264026197</ele>
        <time>2020-11-25T15:16:14.000+01:00</time>
      </trkpt>
      <trkpt lat="43.67978" lon="4.07811">
        <ele>87.800408796638</ele>
        <time>2020-11-25T15:16:15.000+01:00</time>
      </trkpt>
      <trkpt lat="43.67979" lon="4.07812">
        <ele>87.787789323313</ele>
        <time>2020-11-25T15:16:16.000+01:00</time>
      </trkpt>
      <trkpt lat="43.6798" lon="4.07813">
        <ele>87.774864109242</ele>
        <time>2020-11-25T15:16:17.000+01:00</time>
      </trkpt>
      <trkpt lat="43.6798" lon="4.07814">
        <ele>87.761573934144</ele>
        <time>2020-11-25T15:16:18.000+01:00</time>
      </trkpt>
      <trkpt lat="43.67981" lon="4.07815">
        <ele>87.747939386709</ele>
        <time>2020-11-25T15:16:19.000+01:00</time>
      </trkpt>
      <trkpt lat="43.67982" lon="4.07816">
        <ele>87.733927576247</ele>
        <time>2020-11-25T15:16:20.000+01:00</time>
      </trkpt>
      <trkpt lat="43.67983" lon="4.07818">
        <ele>87.719498031123</ele>
        <time>2020-11-25T15:16:21.000+01:00</time>
      </trkpt>
      <trkpt lat="43.67983" lon="4.07819">
        <ele>87.704652562625</ele>
        <time>2020-11-25T15:16:22.000+01:00</time>
      </trkpt>
      <trkpt lat="43.67984" lon="4.0782">
        <ele>87.68946146897</ele>
        <time>2020-11-25T15:16:23.000+01:00</time>
      </trkpt>
      <trkpt lat="43.67984" lon="4.07821">
        <ele>87.674146043315</ele>
        <time>2020-11-25T15:16:24.000+01:00</time>
      </trkpt>
      <trkpt lat="43.67985" lon="4.07823">
        <ele>87.658754023121</ele>
        <time>2020-11-25T15:16:25.000+01:00</time>
      </trkpt>
      <trkpt lat="43.67985" lon="4.07824">
        <ele>87.643452570952</ele>
        <time>2020-11-25T15:16:26.000+01:00</time>
      </trkpt>
      <trkpt lat="43.67986" lon="4.07826">
        <ele>87.628148749997</ele>
        <time>2020-11-25T15:16:27.000+01:00</time>
      </trkpt>
      <trkpt lat="43.67986" lon="4.07828">
        <ele>87.612663002924</ele>
        <time>2020-11-25T15:16:28.000+01:00</time>
      </trkpt>
      <trkpt lat="43.67986" lon="4.0783">
        <ele>87.597066606603</ele>
        <time>2020-11-25T15:16:29.000+01:00</time>
      </trkpt>
      <trkpt lat="43.67986" lon="4.07832">
        <ele>87.581301606455</ele>
        <time>2020-11-25T15:16:30.000+01:00</time>
      </trkpt>
      <trkpt lat="43.67986" lon="4.07833">
        <ele>87.56545152252</ele>
        <time>2020-11-25T15:16:31.000+01:00</time>
      </trkpt>
      <trkpt lat="43.67987" lon="4.07835">
        <ele>87.5495875934</ele>
        <time>2020-11-25T15:16:32.000+01:00</time>
      </trkpt>
      <trkpt lat="43.67987" lon="4.07836">
        <ele>87.533832859029</ele>
        <time>2020-11-25T15:16:33.000+01:00</time>
      </trkpt>
      <trkpt lat="43.67987" lon="4.07837">
        <ele>87.518130367208</ele>
        <time>2020-11-25T15:16:34.000+01:00</time>
      </trkpt>
      <trkpt lat="43.67988" lon="4.07839">
        <ele>87.502484087589</ele>
        <time>2020-11-25T15:16:35.000+01:00</time>
      </trkpt>
      <trkpt lat="43.67988" lon="4.0784">
        <ele>87.486867407913</ele>
        <time>2020-11-25T15:16:36.000+01:00</time>
      </trkpt>
      <trkpt lat="43.67989" lon="4.07842">
        <ele>87.471254327043</ele>
        <time>2020-11-25T15:16:37.000+01:00</time>
      </trkpt>
      <trkpt lat="43.67989" lon="4.07843">
        <ele>87.455712687776</ele>
        <time>2020-11-25T15:16:38.000+01:00</time>
      </trkpt>
      <trkpt lat="43.6799" lon="4.07844">
        <ele>87.440358569213</ele>
        <time>2020-11-25T15:16:39.000+01:00</time>
      </trkpt>
      <trkpt lat="43.6799" lon="4.07846">
        <ele>87.425083081577</ele>
        <time>2020-11-25T15:16:40.000+01:00</time>
      </trkpt>
      <trkpt lat="43.6799" lon="4.07847">
        <ele>87.409714905831</ele>
        <time>2020-11-25T15:16:41.000+01:00</time>
      </trkpt>
      <trkpt lat="43.6799" lon="4.07849">
        <ele>87.394512572012</ele>
        <time>2020-11-25T15:16:42.000+01:00</time>
      </trkpt>
      <trkpt lat="43.67989" lon="4.07851">
        <ele>87.379658135976</ele>
        <time>2020-11-25T15:16:43.000+01:00</time>
      </trkpt>
      <trkpt lat="43.67989" lon="4.07852">
        <ele>87.365044573881</ele>
        <time>2020-11-25T15:16:44.000+01:00</time>
      </trkpt>
      <trkpt lat="43.67989" lon="4.07854">
        <ele>87.350542666644</ele>
        <time>2020-11-25T15:16:45.000+01:00</time>
      </trkpt>
      <trkpt lat="43.67988" lon="4.07855">
        <ele>87.336193119049</ele>
        <time>2020-11-25T15:16:46.000+01:00</time>
      </trkpt>
      <trkpt lat="43.67988" lon="4.07857">
        <ele>87.321872202519</ele>
        <time>2020-11-25T15:16:47.000+01:00</time>
      </trkpt>
      <trkpt lat="43.67987" lon="4.07859">
        <ele>87.307557904368</ele>
        <time>2020-11-25T15:16:48.000+01:00</time>
      </trkpt>
      <trkpt lat="43.67986" lon="4.0786">
        <ele>87.293203290254</ele>
        <time>2020-11-25T15:16:49.000+01:00</time>
      </trkpt>
      <trkpt lat="43.67986" lon="4.07862">
        <ele>87.278958880107</ele>
        <time>2020-11-25T15:16:50.000+01:00</time>
      </trkpt>
      <trkpt lat="43.67985" lon="4.07863">
        <ele>87.264676743665</ele>
        <time>2020-11-25T15:16:51.000+01:00</time>
      </trkpt>
      <trkpt lat="43.67984" lon="4.07865">
        <ele>87.250209282333</ele>
        <time>2020-11-25T15:16:52.000+01:00</time>
      </trkpt>
      <trkpt lat="43.67983" lon="4.07866">
        <ele>87.235824172886</ele>
        <time>2020-11-25T15:16:53.000+01:00</time>
      </trkpt>
      <trkpt lat="43.67983" lon="4.07867">
        <ele>87.221140679573</ele>
        <time>2020-11-25T15:16:54.000+01:00</time>
      </trkpt>
      <trkpt lat="43.67982" lon="4.07869">
        <ele>87.206397660861</ele>
        <time>2020-11-25T15:16:55.000+01:00</time>
      </trkpt>
      <trkpt lat="43.67982" lon="4.0787">
        <ele>87.191748931987</ele>
        <time>2020-11-25T15:16:56.000+01:00</time>
      </trkpt>
      <trkpt lat="43.67981" lon="4.07871">
        <ele>87.176989300723</ele>
        <time>2020-11-25T15:16:57.000+01:00</time>
      </trkpt>
      <trkpt lat="43.67981" lon="4.07873">
        <ele>87.162019745856</ele>
        <time>2020-11-25T15:16:58.000+01:00</time>
      </trkpt>
      <trkpt lat="43.6798" lon="4.07875">
        <ele>87.146860060069</ele>
        <time>2020-11-25T15:16:59.000+01:00</time>
      </trkpt>
      <trkpt lat="43.6798" lon="4.07877">
        <ele>87.131429035016</ele>
        <time>2020-11-25T15:17:00.000+01:00</time>
      </trkpt>
      <trkpt lat="43.67979" lon="4.07879">
        <ele>87.115774842945</ele>
        <time>2020-11-25T15:17:01.000+01:00</time>
      </trkpt>
      <trkpt lat="43.67978" lon="4.0788">
        <ele>87.099741204573</ele>
        <time>2020-11-25T15:17:02.000+01:00</time>
      </trkpt>
      <trkpt lat="43.67978" lon="4.07882">
        <ele>87.083385200554</ele>
        <time>2020-11-25T15:17:03.000+01:00</time>
      </trkpt>
      <trkpt lat="43.67977" lon="4.07883">
        <ele>87.066741952656</ele>
        <time>2020-11-25T15:17:04.000+01:00</time>
      </trkpt>
      <trkpt lat="43.67977" lon="4.07885">
        <ele>87.050286010735</ele>
        <time>2020-11-25T15:17:05.000+01:00</time>
      </trkpt>
      <trkpt lat="43.67976" lon="4.07886">
        <ele>87.03354706914</ele>
        <time>2020-11-25T15:17:06.000+01:00</time>
      </trkpt>
      <trkpt lat="43.67976" lon="4.07887">
        <ele>87.016646583368</ele>
        <time>2020-11-25T15:17:07.000+01:00</time>
      </trkpt>
      <trkpt lat="43.67975" lon="4.07888">
        <ele>86.999526869641</ele>
        <time>2020-11-25T15:17:08.000+01:00</time>
      </trkpt>
      <trkpt lat="43.67975" lon="4.0789">
        <ele>86.98227484771</ele>
        <time>2020-11-25T15:17:09.000+01:00</time>
      </trkpt>
      <trkpt lat="43.67975" lon="4.07891">
        <ele>86.964911107089</ele>
        <time>2020-11-25T15:17:10.000+01:00</time>
      </trkpt>
      <trkpt lat="43.67974" lon="4.07893">
        <ele>86.94724790825</ele>
        <time>2020-11-25T15:17:11.000+01:00</time>
      </trkpt>
      <trkpt lat="43.67973" lon="4.07894">
        <ele>86.929450871796</ele>
        <time>2020-11-25T15:17:12.000+01:00</time>
      </trkpt>
      <trkpt lat="43.67973" lon="4.07895">
        <ele>86.911485554818</ele>
        <time>2020-11-25T15:17:13.000+01:00</time>
      </trkpt>
      <trkpt lat="43.67972" lon="4.07897">
        <ele>86.893651600937</ele>
        <time>2020-11-25T15:17:14.000+01:00</time>
      </trkpt>
      <trkpt lat="43.67971" lon="4.07898">
        <ele>86.875238336882</ele>
        <time>2020-11-25T15:17:15.000+01:00</time>
      </trkpt>
      <trkpt lat="43.67971" lon="4.07899">
        <ele>86.856462926492</ele>
        <time>2020-11-25T15:17:16.000+01:00</time>
      </trkpt>
      <trkpt lat="43.67971" lon="4.079">
        <ele>86.83778260878</ele>
        <time>2020-11-25T15:17:17.000+01:00</time>
      </trkpt>
      <trkpt lat="43.67971" lon="4.07902">
        <ele>86.818764909317</ele>
        <time>2020-11-25T15:17:18.000+01:00</time>
      </trkpt>
      <trkpt lat="43.6797" lon="4.07903">
        <ele>86.799919017023</ele>
        <time>2020-11-25T15:17:19.000+01:00</time>
      </trkpt>
      <trkpt lat="43.6797" lon="4.07905">
        <ele>86.781361922684</ele>
        <time>2020-11-25T15:17:20.000+01:00</time>
      </trkpt>
      <trkpt lat="43.6797" lon="4.07907">
        <ele>86.762675635161</ele>
        <time>2020-11-25T15:17:21.000+01:00</time>
      </trkpt>
      <trkpt lat="43.6797" lon="4.07908">
        <ele>86.743906193966</ele>
        <time>2020-11-25T15:17:22.000+01:00</time>
      </trkpt>
      <trkpt lat="43.67969" lon="4.0791">
        <ele>86.72547411987</ele>
        <time>2020-11-25T15:17:23.000+01:00</time>
      </trkpt>
      <trkpt lat="43.67969" lon="4.07912">
        <ele>86.706946109962</ele>
        <time>2020-11-25T15:17:24.000+01:00</time>
      </trkpt>
      <trkpt lat="43.67968" lon="4.07913">
        <ele>86.688303003971</ele>
        <time>2020-11-25T15:17:25.000+01:00</time>
      </trkpt>
      <trkpt lat="43.67967" lon="4.07915">
        <ele>86.669623078891</ele>
        <time>2020-11-25T15:17:26.000+01:00</time>
      </trkpt>
      <trkpt lat="43.67967" lon="4.07916">
        <ele>86.650865832537</ele>
        <time>2020-11-25T15:17:27.000+01:00</time>
      </trkpt>
      <trkpt lat="43.67966" lon="4.07917">
        <ele>86.631947086046</ele>
        <time>2020-11-25T15:17:28.000+01:00</time>
      </trkpt>
      <trkpt lat="43.67966" lon="4.07918">
        <ele>86.613313870337</ele>
        <time>2020-11-25T15:17:29.000+01:00</time>
      </trkpt>
      <trkpt lat="43.67966" lon="4.0792">
        <ele>86.594202419418</ele>
        <time>2020-11-25T15:17:30.000+01:00</time>
      </trkpt>
      <trkpt lat="43.67966" lon="4.07921">
        <ele>86.575359596107</ele>
        <time>2020-11-25T15:17:31.000+01:00</time>
      </trkpt>
      <trkpt lat="43.67966" lon="4.07922">
        <ele>86.556775752785</ele>
        <time>2020-11-25T15:17:32.000+01:00</time>
      </trkpt>
      <trkpt lat="43.67965" lon="4.07924">
        <ele>86.537887823834</ele>
        <time>2020-11-25T15:17:33.000+01:00</time>
      </trkpt>
      <trkpt lat="43.67965" lon="4.07926">
        <ele>86.518424298424</ele>
        <time>2020-11-25T15:17:34.000+01:00</time>
      </trkpt>
      <trkpt lat="43.67964" lon="4.07927">
        <ele>86.498645916206</ele>
        <time>2020-11-25T15:17:35.000+01:00</time>
      </trkpt>
      <trkpt lat="43.67963" lon="4.07929">
        <ele>86.478468290751</ele>
        <time>2020-11-25T15:17:36.000+01:00</time>
      </trkpt>
      <trkpt lat="43.67962" lon="4.0793">
        <ele>86.458020425514</ele>
        <time>2020-11-25T15:17:37.000+01:00</time>
      </trkpt>
      <trkpt lat="43.67962" lon="4.07932">
        <ele>86.437420194751</ele>
        <time>2020-11-25T15:17:38.000+01:00</time>
      </trkpt>
      <trkpt lat="43.67962" lon="4.07933">
        <ele>86.416289310769</ele>
        <time>2020-11-25T15:17:39.000+01:00</time>
      </trkpt>
      <trkpt lat="43.67962" lon="4.07935">
        <ele>86.394508361384</ele>
        <time>2020-11-25T15:17:40.000+01:00</time>
      </trkpt>
      <trkpt lat="43.67962" lon="4.07937">
        <ele>86.372267042824</ele>
        <time>2020-11-25T15:17:41.000+01:00</time>
      </trkpt>
      <trkpt lat="43.67962" lon="4.07938">
        <ele>86.349663279032</ele>
        <time>2020-11-25T15:17:42.000+01:00</time>
      </trkpt>
      <trkpt lat="43.67962" lon="4.0794">
        <ele>86.326723014271</ele>
        <time>2020-11-25T15:17:43.000+01:00</time>
      </trkpt>
      <trkpt lat="43.67962" lon="4.07941">
        <ele>86.30389872775</ele>
        <time>2020-11-25T15:17:44.000+01:00</time>
      </trkpt>
      <trkpt lat="43.67961" lon="4.07942">
        <ele>86.28082366852</ele>
        <time>2020-11-25T15:17:45.000+01:00</time>
      </trkpt>
      <trkpt lat="43.67961" lon="4.07944">
        <ele>86.257498814968</ele>
        <time>2020-11-25T15:17:46.000+01:00</time>
      </trkpt>
      <trkpt lat="43.6796" lon="4.07945">
        <ele>86.233978511471</ele>
        <time>2020-11-25T15:17:47.000+01:00</time>
      </trkpt>
      <trkpt lat="43.6796" lon="4.07947">
        <ele>86.21010076434</ele>
        <time>2020-11-25T15:17:48.000+01:00</time>
      </trkpt>
      <trkpt lat="43.67959" lon="4.07948">
        <ele>86.185978370058</ele>
        <time>2020-11-25T15:17:49.000+01:00</time>
      </trkpt>
      <trkpt lat="43.67959" lon="4.07949">
        <ele>86.161443346511</ele>
        <time>2020-11-25T15:17:50.000+01:00</time>
      </trkpt>
      <trkpt lat="43.67958" lon="4.0795">
        <ele>86.136742743055</ele>
        <time>2020-11-25T15:17:51.000+01:00</time>
      </trkpt>
      <trkpt lat="43.67957" lon="4.07952">
        <ele>86.112000805128</ele>
        <time>2020-11-25T15:17:52.000+01:00</time>
      </trkpt>
      <trkpt lat="43.67957" lon="4.07953">
        <ele>86.087262622657</ele>
        <time>2020-11-25T15:17:53.000+01:00</time>
      </trkpt>
      <trkpt lat="43.67957" lon="4.07954">
        <ele>86.06224522903</ele>
        <time>2020-11-25T15:17:54.000+01:00</time>
      </trkpt>
      <trkpt lat="43.67956" lon="4.07955">
        <ele>86.037225155884</ele>
        <time>2020-11-25T15:17:55.000+01:00</time>
      </trkpt>
      <trkpt lat="43.67955" lon="4.07957">
        <ele>86.012257357458</ele>
        <time>2020-11-25T15:17:56.000+01:00</time>
      </trkpt>
      <trkpt lat="43.67954" lon="4.07959">
        <ele>85.987483977652</ele>
        <time>2020-11-25T15:17:57.000+01:00</time>
      </trkpt>
      <trkpt lat="43.67954" lon="4.0796">
        <ele>85.962297233</ele>
        <time>2020-11-25T15:17:58.000+01:00</time>
      </trkpt>
      <trkpt lat="43.67954" lon="4.07962">
        <ele>85.937165824875</ele>
        <time>2020-11-25T15:17:59.000+01:00</time>
      </trkpt>
      <trkpt lat="43.67953" lon="4.07963">
        <ele>85.911713049696</ele>
        <time>2020-11-25T15:18:00.000+01:00</time>
      </trkpt>
      <trkpt lat="43.67953" lon="4.07964">
        <ele>85.886258486616</ele>
        <time>2020-11-25T15:18:01.000+01:00</time>
      </trkpt>
      <trkpt lat="43.67953" lon="4.07966">
        <ele>85.860902089177</ele>
        <time>2020-11-25T15:18:02.000+01:00</time>
      </trkpt>
      <trkpt lat="43.67952" lon="4.07967">
        <ele>85.835177275704</ele>
        <time>2020-11-25T15:18:03.000+01:00</time>
      </trkpt>
      <trkpt lat="43.67952" lon="4.07969">
        <ele>85.809120770664</ele>
        <time>2020-11-25T15:18:04.000+01:00</time>
      </trkpt>
      <trkpt lat="43.67952" lon="4.0797">
        <ele>85.782865376658</ele>
        <time>2020-11-25T15:18:05.000+01:00</time>
      </trkpt>
      <trkpt lat="43.67951" lon="4.07971">
        <ele>85.756396063938</ele>
        <time>2020-11-25T15:18:06.000+01:00</time>
      </trkpt>
      <trkpt lat="43.67951" lon="4.07972">
        <ele>85.729819633074</ele>
        <time>2020-11-25T15:18:07.000+01:00</time>
      </trkpt>
      <trkpt lat="43.67951" lon="4.07974">
        <ele>85.703419991393</ele>
        <time>2020-11-25T15:18:08.000+01:00</time>
      </trkpt>
      <trkpt lat="43.67951" lon="4.07975">
        <ele>85.677193905187</ele>
        <time>2020-11-25T15:18:09.000+01:00</time>
      </trkpt>
      <trkpt lat="43.6795" lon="4.07977">
        <ele>85.651177391327</ele>
        <time>2020-11-25T15:18:10.000+01:00</time>
      </trkpt>
      <trkpt lat="43.67951" lon="4.07979">
        <ele>85.625351998849</ele>
        <time>2020-11-25T15:18:11.000+01:00</time>
      </trkpt>
      <trkpt lat="43.67951" lon="4.07981">
        <ele>85.599789533536</ele>
        <time>2020-11-25T15:18:12.000+01:00</time>
      </trkpt>
      <trkpt lat="43.67951" lon="4.07983">
        <ele>85.574565187494</ele>
        <time>2020-11-25T15:18:13.000+01:00</time>
      </trkpt>
      <trkpt lat="43.67951" lon="4.07985">
        <ele>85.549688429422</ele>
        <time>2020-11-25T15:18:14.000+01:00</time>
      </trkpt>
      <trkpt lat="43.67951" lon="4.07986">
        <ele>85.524925461351</ele>
        <time>2020-11-25T15:18:15.000+01:00</time>
      </trkpt>
      <trkpt lat="43.67951" lon="4.07988">
        <ele>85.500560769938</ele>
        <time>2020-11-25T15:18:16.000+01:00</time>
      </trkpt>
      <trkpt lat="43.67951" lon="4.0799">
        <ele>85.476370874724</ele>
        <time>2020-11-25T15:18:17.000+01:00</time>
      </trkpt>
      <trkpt lat="43.67951" lon="4.07991">
        <ele>85.452276668855</ele>
        <time>2020-11-25T15:18:18.000+01:00</time>
      </trkpt>
      <trkpt lat="43.67951" lon="4.07993">
        <ele>85.428424736584</ele>
        <time>2020-11-25T15:18:19.000+01:00</time>
      </trkpt>
      <trkpt lat="43.67951" lon="4.07995">
        <ele>85.404808068764</ele>
        <time>2020-11-25T15:18:20.000+01:00</time>
      </trkpt>
      <trkpt lat="43.67951" lon="4.07997">
        <ele>85.38128154377</ele>
        <time>2020-11-25T15:18:21.000+01:00</time>
      </trkpt>
      <trkpt lat="43.67951" lon="4.07998">
        <ele>85.357808272482</ele>
        <time>2020-11-25T15:18:22.000+01:00</time>
      </trkpt>
      <trkpt lat="43.67952" lon="4.08">
        <ele>85.334442005079</ele>
        <time>2020-11-25T15:18:23.000+01:00</time>
      </trkpt>
      <trkpt lat="43.67952" lon="4.08002">
        <ele>85.311489011621</ele>
        <time>2020-11-25T15:18:24.000+01:00</time>
      </trkpt>
      <trkpt lat="43.67952" lon="4.08004">
        <ele>85.288961970405</ele>
        <time>2020-11-25T15:18:25.000+01:00</time>
      </trkpt>
      <trkpt lat="43.67952" lon="4.08006">
        <ele>85.266761193718</ele>
        <time>2020-11-25T15:18:26.000+01:00</time>
      </trkpt>
      <trkpt lat="43.67952" lon="4.08007">
        <ele>85.244813983733</ele>
        <time>2020-11-25T15:18:27.000+01:00</time>
      </trkpt>
      <trkpt lat="43.67953" lon="4.08009">
        <ele>85.223117247695</ele>
        <time>2020-11-25T15:18:28.000+01:00</time>
      </trkpt>
      <trkpt lat="43.67953" lon="4.0801">
        <ele>85.201581089031</ele>
        <time>2020-11-25T15:18:29.000+01:00</time>
      </trkpt>
      <trkpt lat="43.67953" lon="4.08011">
        <ele>85.180260112472</ele>
        <time>2020-11-25T15:18:30.000+01:00</time>
      </trkpt>
      <trkpt lat="43.67953" lon="4.08012">
        <ele>85.159300839185</ele>
        <time>2020-11-25T15:18:31.000+01:00</time>
      </trkpt>
      <trkpt lat="43.67953" lon="4.08013">
        <ele>85.13862800415</ele>
        <time>2020-11-25T15:18:32.000+01:00</time>
      </trkpt>
      <trkpt lat="43.67954" lon="4.08014">
        <ele>85.118228171324</ele>
        <time>2020-11-25T15:18:33.000+01:00</time>
      </trkpt>
      <trkpt lat="43.67954" lon="4.08014">
        <ele>85.097997425858</ele>
        <time>2020-11-25T15:18:34.000+01:00</time>
      </trkpt>
      <trkpt lat="43.67954" lon="4.08015">
        <ele>85.077858089323</ele>
        <time>2020-11-25T15:18:35.000+01:00</time>
      </trkpt>
      <trkpt lat="43.67955" lon="4.08015">
        <ele>85.058083392055</ele>
        <time>2020-11-25T15:18:36.000+01:00</time>
      </trkpt>
      <trkpt lat="43.67955" lon="4.08016">
        <ele>85.038677087364</ele>
        <time>2020-11-25T15:18:37.000+01:00</time>
      </trkpt>
      <trkpt lat="43.67955" lon="4.08016">
        <ele>85.019506321706</ele>
        <time>2020-11-25T15:18:38.000+01:00</time>
      </trkpt>
      <trkpt lat="43.67955" lon="4.08017">
        <ele>85.017629245661</ele>
        <time>2020-11-25T15:18:39.000+01:00</time>
      </trkpt>
      <trkpt lat="43.67955" lon="4.08017">
        <ele>85.015740208877</ele>
        <time>2020-11-25T15:18:40.000+01:00</time>
      </trkpt>
      <trkpt lat="43.67955" lon="4.08017">
        <ele>84.996879101384</ele>
        <time>2020-11-25T15:18:41.000+01:00</time>
      </trkpt>
      <trkpt lat="43.67955" lon="4.08017">
        <ele>84.978454154073</ele>
        <time>2020-11-25T15:18:42.000+01:00</time>
      </trkpt>
      <trkpt lat="43.67956" lon="4.08018">
        <ele>84.96029766804</ele>
        <time>2020-11-25T15:18:43.000+01:00</time>
      </trkpt>
      <trkpt lat="43.67956" lon="4.0802">
        <ele>84.942300213675</ele>
        <time>2020-11-25T15:18:44.000+01:00</time>
      </trkpt>
      <trkpt lat="43.67956" lon="4.08022">
        <ele>84.924583434181</ele>
        <time>2020-11-25T15:18:45.000+01:00</time>
      </trkpt>
      <trkpt lat="43.67956" lon="4.08023">
        <ele>84.906965085324</ele>
        <time>2020-11-25T15:18:46.000+01:00</time>
      </trkpt>
      <trkpt lat="43.67957" lon="4.08025">
        <ele>84.889412318884</ele>
        <time>2020-11-25T15:18:47.000+01:00</time>
      </trkpt>
      <trkpt lat="43.67957" lon="4.08028">
        <ele>84.87193819862</ele>
        <time>2020-11-25T15:18:48.000+01:00</time>
      </trkpt>
      <trkpt lat="43.67957" lon="4.0803">
        <ele>84.854410374484</ele>
        <time>2020-11-25T15:18:49.000+01:00</time>
      </trkpt>
      <trkpt lat="43.67958" lon="4.08031">
        <ele>84.836747488844</ele>
        <time>2020-11-25T15:18:50.000+01:00</time>
      </trkpt>
      <trkpt lat="43.67958" lon="4.08033">
        <ele>84.819203738306</ele>
        <time>2020-11-25T15:18:51.000+01:00</time>
      </trkpt>
      <trkpt lat="43.67958" lon="4.08034">
        <ele>84.801760126817</ele>
        <time>2020-11-25T15:18:52.000+01:00</time>
      </trkpt>
      <trkpt lat="43.67958" lon="4.08036">
        <ele>84.784344012902</ele>
        <time>2020-11-25T15:18:53.000+01:00</time>
      </trkpt>
      <trkpt lat="43.67958" lon="4.08038">
        <ele>84.766995387661</ele>
        <time>2020-11-25T15:18:54.000+01:00</time>
      </trkpt>
      <trkpt lat="43.67958" lon="4.08039">
        <ele>84.749712291353</ele>
        <time>2020-11-25T15:18:55.000+01:00</time>
      </trkpt>
      <trkpt lat="43.67959" lon="4.0804">
        <ele>84.732486783246</ele>
        <time>2020-11-25T15:18:56.000+01:00</time>
      </trkpt>
      <trkpt lat="43.67959" lon="4.08042">
        <ele>84.715043418068</ele>
        <time>2020-11-25T15:18:57.000+01:00</time>
      </trkpt>
      <trkpt lat="43.67959" lon="4.08043">
        <ele>84.697582027846</ele>
        <time>2020-11-25T15:18:58.000+01:00</time>
      </trkpt>
      <trkpt lat="43.67959" lon="4.08044">
        <ele>84.679936092173</ele>
        <time>2020-11-25T15:18:59.000+01:00</time>
      </trkpt>
      <trkpt lat="43.6796" lon="4.08045">
        <ele>84.662307617878</ele>
        <time>2020-11-25T15:19:00.000+01:00</time>
      </trkpt>
      <trkpt lat="43.6796" lon="4.08046">
        <ele>84.644713549472</ele>
        <time>2020-11-25T15:19:01.000+01:00</time>
      </trkpt>
      <trkpt lat="43.67961" lon="4.08048">
        <ele>84.627224930818</ele>
        <time>2020-11-25T15:19:02.000+01:00</time>
      </trkpt>
      <trkpt lat="43.67961" lon="4.08048">
        <ele>84.609833073627</ele>
        <time>2020-11-25T15:19:03.000+01:00</time>
      </trkpt>
      <trkpt lat="43.67961" lon="4.0805">
        <ele>84.592608471435</ele>
        <time>2020-11-25T15:19:04.000+01:00</time>
      </trkpt>
      <trkpt lat="43.67962" lon="4.08051">
        <ele>84.575448302365</ele>
        <time>2020-11-25T15:19:05.000+01:00</time>
      </trkpt>
      <trkpt lat="43.67962" lon="4.08053">
        <ele>84.5583887274</ele>
        <time>2020-11-25T15:19:06.000+01:00</time>
      </trkpt>
      <trkpt lat="43.67962" lon="4.08055">
        <ele>84.541493634977</ele>
        <time>2020-11-25T15:19:07.000+01:00</time>
      </trkpt>
      <trkpt lat="43.67962" lon="4.08056">
        <ele>84.524745783488</ele>
        <time>2020-11-25T15:19:08.000+01:00</time>
      </trkpt>
      <trkpt lat="43.67963" lon="4.08058">
        <ele>84.507970986545</ele>
        <time>2020-11-25T15:19:09.000+01:00</time>
      </trkpt>
      <trkpt lat="43.67963" lon="4.0806">
        <ele>84.491357532031</ele>
        <time>2020-11-25T15:19:10.000+01:00</time>
      </trkpt>
      <trkpt lat="43.67963" lon="4.08062">
        <ele>84.474789422056</ele>
        <time>2020-11-25T15:19:11.000+01:00</time>
      </trkpt>
      <trkpt lat="43.67964" lon="4.08063">
        <ele>84.45829715045</ele>
        <time>2020-11-25T15:19:12.000+01:00</time>
      </trkpt>
      <trkpt lat="43.67963" lon="4.08065">
        <ele>84.442053924596</ele>
        <time>2020-11-25T15:19:13.000+01:00</time>
      </trkpt>
      <trkpt lat="43.67963" lon="4.08066">
        <ele>84.425770657463</ele>
        <time>2020-11-25T15:19:14.000+01:00</time>
      </trkpt>
      <trkpt lat="43.67964" lon="4.08067">
        <ele>84.409548147023</ele>
        <time>2020-11-25T15:19:15.000+01:00</time>
      </trkpt>
      <trkpt lat="43.67964" lon="4.08069">
        <ele>84.393340616589</ele>
        <time>2020-11-25T15:19:16.000+01:00</time>
      </trkpt>
      <trkpt lat="43.67964" lon="4.0807">
        <ele>84.377156437526</ele>
        <time>2020-11-25T15:19:17.000+01:00</time>
      </trkpt>
      <trkpt lat="43.67964" lon="4.08072">
        <ele>84.361015586933</ele>
        <time>2020-11-25T15:19:18.000+01:00</time>
      </trkpt>
      <trkpt lat="43.67964" lon="4.08074">
        <ele>84.344836900951</ele>
        <time>2020-11-25T15:19:19.000+01:00</time>
      </trkpt>
      <trkpt lat="43.67964" lon="4.08075">
        <ele>84.328590631953</ele>
        <time>2020-11-25T15:19:20.000+01:00</time>
      </trkpt>
      <trkpt lat="43.67965" lon="4.08076">
        <ele>84.312370886544</ele>
        <time>2020-11-25T15:19:21.000+01:00</time>
      </trkpt>
      <trkpt lat="43.67965" lon="4.08077">
        <ele>84.296190540124</ele>
        <time>2020-11-25T15:19:22.000+01:00</time>
      </trkpt>
      <trkpt lat="43.67965" lon="4.08079">
        <ele>84.280094036583</ele>
        <time>2020-11-25T15:19:23.000+01:00</time>
      </trkpt>
      <trkpt lat="43.67965" lon="4.0808">
        <ele>84.263997918729</ele>
        <time>2020-11-25T15:19:24.000+01:00</time>
      </trkpt>
      <trkpt lat="43.67965" lon="4.08081">
        <ele>84.248085590665</ele>
        <time>2020-11-25T15:19:25.000+01:00</time>
      </trkpt>
      <trkpt lat="43.67966" lon="4.08083">
        <ele>84.232454064657</ele>
        <time>2020-11-25T15:19:26.000+01:00</time>
      </trkpt>
      <trkpt lat="43.67966" lon="4.08085">
        <ele>84.2171667267</ele>
        <time>2020-11-25T15:19:27.000+01:00</time>
      </trkpt>
      <trkpt lat="43.67966" lon="4.08086">
        <ele>84.202101391927</ele>
        <time>2020-11-25T15:19:28.000+01:00</time>
      </trkpt>
      <trkpt lat="43.67967" lon="4.08088">
        <ele>84.1871080211</ele>
        <time>2020-11-25T15:19:29.000+01:00</time>
      </trkpt>
      <trkpt lat="43.67967" lon="4.08089">
        <ele>84.17236589934</ele>
        <time>2020-11-25T15:19:30.000+01:00</time>
      </trkpt>
      <trkpt lat="43.67967" lon="4.08091">
        <ele>84.157761730296</ele>
        <time>2020-11-25T15:19:31.000+01:00</time>
      </trkpt>
      <trkpt lat="43.67967" lon="4.08092">
        <ele>84.143204109451</ele>
        <time>2020-11-25T15:19:32.000+01:00</time>
      </trkpt>
      <trkpt lat="43.67968" lon="4.08093">
        <ele>84.128761320547</ele>
        <time>2020-11-25T15:19:33.000+01:00</time>
      </trkpt>
      <trkpt lat="43.67968" lon="4.08094">
        <ele>84.114546070461</ele>
        <time>2020-11-25T15:19:34.000+01:00</time>
      </trkpt>
      <trkpt lat="43.67968" lon="4.08094">
        <ele>84.113149275599</ele>
        <time>2020-11-25T15:19:35.000+01:00</time>
      </trkpt>
      <trkpt lat="43.67968" lon="4.08094">
        <ele>84.111747144269</ele>
        <time>2020-11-25T15:19:36.000+01:00</time>
      </trkpt>
      <trkpt lat="43.67968" lon="4.08094">
        <ele>84.11033689761</ele>
        <time>2020-11-25T15:19:37.000+01:00</time>
      </trkpt>
      <trkpt lat="43.67968" lon="4.08094">
        <ele>84.108909720269</ele>
        <time>2020-11-25T15:19:38.000+01:00</time>
      </trkpt>
      <trkpt lat="43.67968" lon="4.08094">
        <ele>84.107467815469</ele>
        <time>2020-11-25T15:19:39.000+01:00</time>
      </trkpt>
      <trkpt lat="43.67968" lon="4.08094">
        <ele>84.092821713196</ele>
        <time>2020-11-25T15:19:40.000+01:00</time>
      </trkpt>
      <trkpt lat="43.67968" lon="4.08094">
        <ele>84.078390353175</ele>
        <time>2020-11-25T15:19:41.000+01:00</time>
      </trkpt>
      <trkpt lat="43.67968" lon="4.08094">
        <ele>84.064117917987</ele>
        <time>2020-11-25T15:19:42.000+01:00</time>
      </trkpt>
      <trkpt lat="43.67968" lon="4.08095">
        <ele>84.05000443432</ele>
        <time>2020-11-25T15:19:43.000+01:00</time>
      </trkpt>
      <trkpt lat="43.67967" lon="4.08095">
        <ele>84.035963911161</ele>
        <time>2020-11-25T15:19:44.000+01:00</time>
      </trkpt>
      <trkpt lat="43.67968" lon="4.08097">
        <ele>84.021907691584</ele>
        <time>2020-11-25T15:19:45.000+01:00</time>
      </trkpt>
      <trkpt lat="43.67967" lon="4.08097">
        <ele>84.0079301986</ele>
        <time>2020-11-25T15:19:46.000+01:00</time>
      </trkpt>
      <trkpt lat="43.67967" lon="4.08099">
        <ele>83.994073208111</ele>
        <time>2020-11-25T15:19:47.000+01:00</time>
      </trkpt>
      <trkpt lat="43.67967" lon="4.08099">
        <ele>83.980528439034</ele>
        <time>2020-11-25T15:19:48.000+01:00</time>
      </trkpt>
      <trkpt lat="43.67968" lon="4.08101">
        <ele>83.967087111898</ele>
        <time>2020-11-25T15:19:49.000+01:00</time>
      </trkpt>
      <trkpt lat="43.67968" lon="4.08103">
        <ele>83.953874051535</ele>
        <time>2020-11-25T15:19:50.000+01:00</time>
      </trkpt>
      <trkpt lat="43.67968" lon="4.08104">
        <ele>83.940701803385</ele>
        <time>2020-11-25T15:19:51.000+01:00</time>
      </trkpt>
      <trkpt lat="43.67968" lon="4.08105">
        <ele>83.927670252758</ele>
        <time>2020-11-25T15:19:52.000+01:00</time>
      </trkpt>
      <trkpt lat="43.67968" lon="4.08106">
        <ele>83.914795579255</ele>
        <time>2020-11-25T15:19:53.000+01:00</time>
      </trkpt>
      <trkpt lat="43.67968" lon="4.08106">
        <ele>83.902093212098</ele>
        <time>2020-11-25T15:19:54.000+01:00</time>
      </trkpt>
      <trkpt lat="43.67969" lon="4.08107">
        <ele>83.889637894293</ele>
        <time>2020-11-25T15:19:55.000+01:00</time>
      </trkpt>
      <trkpt lat="43.67969" lon="4.08108">
        <ele>83.877461337282</ele>
        <time>2020-11-25T15:19:56.000+01:00</time>
      </trkpt>
      <trkpt lat="43.6797" lon="4.08108">
        <ele>83.865589177466</ele>
        <time>2020-11-25T15:19:57.000+01:00</time>
      </trkpt>
      <trkpt lat="43.6797" lon="4.08109">
        <ele>83.85392792435</ele>
        <time>2020-11-25T15:19:58.000+01:00</time>
      </trkpt>
      <trkpt lat="43.6797" lon="4.0811">
        <ele>83.842339590948</ele>
        <time>2020-11-25T15:19:59.000+01:00</time>
      </trkpt>
      <trkpt lat="43.6797" lon="4.08112">
        <ele>83.830616208634</ele>
        <time>2020-11-25T15:20:00.000+01:00</time>
      </trkpt>
      <trkpt lat="43.6797" lon="4.08114">
        <ele>83.818902088906</ele>
        <time>2020-11-25T15:20:01.000+01:00</time>
      </trkpt>
      <trkpt lat="43.6797" lon="4.08116">
        <ele>83.80702967976</ele>
        <time>2020-11-25T15:20:02.000+01:00</time>
      </trkpt>
      <trkpt lat="43.6797" lon="4.08116">
        <ele>83.795177884598</ele>
        <time>2020-11-25T15:20:03.000+01:00</time>
      </trkpt>
      <trkpt lat="43.67969" lon="4.08115">
        <ele>83.783317892276</ele>
        <time>2020-11-25T15:20:04.000+01:00</time>
      </trkpt>
      <trkpt lat="43.6797" lon="4.08117">
        <ele>83.782174136762</ele>
        <time>2020-11-25T15:20:05.000+01:00</time>
      </trkpt>
      <trkpt lat="43.6797" lon="4.08117">
        <ele>83.781031725018</ele>
        <time>2020-11-25T15:20:06.000+01:00</time>
      </trkpt>
      <trkpt lat="43.6797" lon="4.08117">
        <ele>83.779887734457</ele>
        <time>2020-11-25T15:20:07.000+01:00</time>
      </trkpt>
      <trkpt lat="43.6797" lon="4.08117">
        <ele>83.778744467397</ele>
        <time>2020-11-25T15:20:08.000+01:00</time>
      </trkpt>
      <trkpt lat="43.6797" lon="4.08117">
        <ele>83.777586659503</ele>
        <time>2020-11-25T15:20:09.000+01:00</time>
      </trkpt>
      <trkpt lat="43.6797" lon="4.08117">
        <ele>83.776414457809</ele>
        <time>2020-11-25T15:20:10.000+01:00</time>
      </trkpt>
      <trkpt lat="43.6797" lon="4.08117">
        <ele>83.775184619559</ele>
        <time>2020-11-25T15:20:11.000+01:00</time>
      </trkpt>
      <trkpt lat="43.6797" lon="4.08117">
        <ele>83.773931513427</ele>
        <time>2020-11-25T15:20:12.000+01:00</time>
      </trkpt>
      <trkpt lat="43.6797" lon="4.08117">
        <ele>83.772660061391</ele>
        <time>2020-11-25T15:20:13.000+01:00</time>
      </trkpt>
      <trkpt lat="43.6797" lon="4.08117">
        <ele>83.771374015817</ele>
        <time>2020-11-25T15:20:14.000+01:00</time>
      </trkpt>
      <trkpt lat="43.6797" lon="4.08118">
        <ele>83.770043505869</ele>
        <time>2020-11-25T15:20:15.000+01:00</time>
      </trkpt>
      <trkpt lat="43.6797" lon="4.08118">
        <ele>83.768672491631</ele>
        <time>2020-11-25T15:20:16.000+01:00</time>
      </trkpt>
      <trkpt lat="43.6797" lon="4.08118">
        <ele>83.767265431272</ele>
        <time>2020-11-25T15:20:17.000+01:00</time>
      </trkpt>
      <trkpt lat="43.6797" lon="4.08118">
        <ele>83.765826277878</ele>
        <time>2020-11-25T15:20:18.000+01:00</time>
      </trkpt>
      <trkpt lat="43.6797" lon="4.08118">
        <ele>83.764349935322</ele>
        <time>2020-11-25T15:20:19.000+01:00</time>
      </trkpt>
      <trkpt lat="43.6797" lon="4.08118">
        <ele>83.76283963126</ele>
        <time>2020-11-25T15:20:20.000+01:00</time>
      </trkpt>
      <trkpt lat="43.6797" lon="4.08118">
        <ele>83.761294355806</ele>
        <time>2020-11-25T15:20:21.000+01:00</time>
      </trkpt>
      <trkpt lat="43.6797" lon="4.08118">
        <ele>83.75975856907</ele>
        <time>2020-11-25T15:20:22.000+01:00</time>
      </trkpt>
      <trkpt lat="43.6797" lon="4.08118">
        <ele>83.758207662516</ele>
        <time>2020-11-25T15:20:23.000+01:00</time>
      </trkpt>
      <trkpt lat="43.6797" lon="4.08118">
        <ele>83.756633375645</ele>
        <time>2020-11-25T15:20:24.000+01:00</time>
      </trkpt>
      <trkpt lat="43.6797" lon="4.08118">
        <ele>83.755043167297</ele>
        <time>2020-11-25T15:20:25.000+01:00</time>
      </trkpt>
      <trkpt lat="43.6797" lon="4.08118">
        <ele>83.753439572938</ele>
        <time>2020-11-25T15:20:26.000+01:00</time>
      </trkpt>
      <trkpt lat="43.6797" lon="4.08118">
        <ele>83.751831131111</ele>
        <time>2020-11-25T15:20:27.000+01:00</time>
      </trkpt>
      <trkpt lat="43.6797" lon="4.08118">
        <ele>83.750216567348</ele>
        <time>2020-11-25T15:20:28.000+01:00</time>
      </trkpt>
      <trkpt lat="43.6797" lon="4.08118">
        <ele>83.748597688927</ele>
        <time>2020-11-25T15:20:29.000+01:00</time>
      </trkpt>
      <trkpt lat="43.6797" lon="4.08118">
        <ele>83.746985485554</ele>
        <time>2020-11-25T15:20:30.000+01:00</time>
      </trkpt>
      <trkpt lat="43.6797" lon="4.08118">
        <ele>83.745376061835</ele>
        <time>2020-11-25T15:20:31.000+01:00</time>
      </trkpt>
      <trkpt lat="43.6797" lon="4.08118">
        <ele>83.743787447722</ele>
        <time>2020-11-25T15:20:32.000+01:00</time>
      </trkpt>
      <trkpt lat="43.6797" lon="4.08118">
        <ele>83.742192754025</ele>
        <time>2020-11-25T15:20:33.000+01:00</time>
      </trkpt>
      <trkpt lat="43.6797" lon="4.08118">
        <ele>83.726118254187</ele>
        <time>2020-11-25T15:20:34.000+01:00</time>
      </trkpt>
      <trkpt lat="43.6797" lon="4.08118">
        <ele>83.724522358753</ele>
        <time>2020-11-25T15:20:35.000+01:00</time>
      </trkpt>
      <trkpt lat="43.6797" lon="4.08118">
        <ele>83.722900666969</ele>
        <time>2020-11-25T15:20:36.000+01:00</time>
      </trkpt>
      <trkpt lat="43.6797" lon="4.08118">
        <ele>83.721256807914</ele>
        <time>2020-11-25T15:20:37.000+01:00</time>
      </trkpt>
      <trkpt lat="43.6797" lon="4.08118">
        <ele>83.719592509987</ele>
        <time>2020-11-25T15:20:38.000+01:00</time>
      </trkpt>
      <trkpt lat="43.6797" lon="4.08119">
        <ele>83.717906427062</ele>
        <time>2020-11-25T15:20:39.000+01:00</time>
      </trkpt>
      <trkpt lat="43.6797" lon="4.08119">
        <ele>83.716198679672</ele>
        <time>2020-11-25T15:20:40.000+01:00</time>
      </trkpt>
      <trkpt lat="43.6797" lon="4.08119">
        <ele>83.714493227982</ele>
        <time>2020-11-25T15:20:41.000+01:00</time>
      </trkpt>
      <trkpt lat="43.6797" lon="4.08119">
        <ele>83.712800180605</ele>
        <time>2020-11-25T15:20:42.000+01:00</time>
      </trkpt>
      <trkpt lat="43.67971" lon="4.08119">
        <ele>83.711122368741</ele>
        <time>2020-11-25T15:20:43.000+01:00</time>
      </trkpt>
      <trkpt lat="43.67971" lon="4.08119">
        <ele>83.709445582238</ele>
        <time>2020-11-25T15:20:44.000+01:00</time>
      </trkpt>
      <trkpt lat="43.67971" lon="4.08119">
        <ele>83.692772135721</ele>
        <time>2020-11-25T15:20:45.000+01:00</time>
      </trkpt>
      <trkpt lat="43.67972" lon="4.08118">
        <ele>83.676803971355</ele>
        <time>2020-11-25T15:20:46.000+01:00</time>
      </trkpt>
      <trkpt lat="43.67972" lon="4.08117">
        <ele>83.661521888497</ele>
        <time>2020-11-25T15:20:47.000+01:00</time>
      </trkpt>
      <trkpt lat="43.67972" lon="4.08117">
        <ele>83.646756752193</ele>
        <time>2020-11-25T15:20:48.000+01:00</time>
      </trkpt>
      <trkpt lat="43.67973" lon="4.08118">
        <ele>83.632267008259</ele>
        <time>2020-11-25T15:20:49.000+01:00</time>
      </trkpt>
      <trkpt lat="43.67974" lon="4.08119">
        <ele>83.618045590848</ele>
        <time>2020-11-25T15:20:50.000+01:00</time>
      </trkpt>
      <trkpt lat="43.67975" lon="4.0812">
        <ele>83.604045432057</ele>
        <time>2020-11-25T15:20:51.000+01:00</time>
      </trkpt>
      <trkpt lat="43.67975" lon="4.08121">
        <ele>83.590259258323</ele>
        <time>2020-11-25T15:20:52.000+01:00</time>
      </trkpt>
      <trkpt lat="43.67976" lon="4.08122">
        <ele>83.576655322793</ele>
        <time>2020-11-25T15:20:53.000+01:00</time>
      </trkpt>
      <trkpt lat="43.67976" lon="4.08123">
        <ele>83.563282327063</ele>
        <time>2020-11-25T15:20:54.000+01:00</time>
      </trkpt>
      <trkpt lat="43.67976" lon="4.08124">
        <ele>83.549926394881</ele>
        <time>2020-11-25T15:20:55.000+01:00</time>
      </trkpt>
      <trkpt lat="43.67976" lon="4.08125">
        <ele>83.536643333248</ele>
        <time>2020-11-25T15:20:56.000+01:00</time>
      </trkpt>
      <trkpt lat="43.67976" lon="4.08127">
        <ele>83.523373980324</ele>
        <time>2020-11-25T15:20:57.000+01:00</time>
      </trkpt>
      <trkpt lat="43.67976" lon="4.08128">
        <ele>83.51008554113</ele>
        <time>2020-11-25T15:20:58.000+01:00</time>
      </trkpt>
      <trkpt lat="43.67976" lon="4.08129">
        <ele>83.496759817503</ele>
        <time>2020-11-25T15:20:59.000+01:00</time>
      </trkpt>
      <trkpt lat="43.67975" lon="4.0813">
        <ele>83.483555532596</ele>
        <time>2020-11-25T15:21:00.000+01:00</time>
      </trkpt>
      <trkpt lat="43.67976" lon="4.08132">
        <ele>83.47025988717</ele>
        <time>2020-11-25T15:21:01.000+01:00</time>
      </trkpt>
      <trkpt lat="43.67976" lon="4.08133">
        <ele>83.457266332388</ele>
        <time>2020-11-25T15:21:02.000+01:00</time>
      </trkpt>
      <trkpt lat="43.67976" lon="4.08134">
        <ele>83.444496920221</ele>
        <time>2020-11-25T15:21:03.000+01:00</time>
      </trkpt>
      <trkpt lat="43.67976" lon="4.08136">
        <ele>83.43176822251</ele>
        <time>2020-11-25T15:21:04.000+01:00</time>
      </trkpt>
      <trkpt lat="43.67976" lon="4.08137">
        <ele>83.419166810956</ele>
        <time>2020-11-25T15:21:05.000+01:00</time>
      </trkpt>
      <trkpt lat="43.67977" lon="4.08138">
        <ele>83.406643309774</ele>
        <time>2020-11-25T15:21:06.000+01:00</time>
      </trkpt>
      <trkpt lat="43.67977" lon="4.08139">
        <ele>83.394218564902</ele>
        <time>2020-11-25T15:21:07.000+01:00</time>
      </trkpt>
      <trkpt lat="43.67977" lon="4.08141">
        <ele>83.381682344223</ele>
        <time>2020-11-25T15:21:08.000+01:00</time>
      </trkpt>
      <trkpt lat="43.67978" lon="4.0814">
        <ele>83.380377424642</ele>
        <time>2020-11-25T15:21:09.000+01:00</time>
      </trkpt>
      <trkpt lat="43.67978" lon="4.08139">
        <ele>83.366621360384</ele>
        <time>2020-11-25T15:21:10.000+01:00</time>
      </trkpt>
      <trkpt lat="43.67978" lon="4.08139">
        <ele>83.365236835602</ele>
        <time>2020-11-25T15:21:11.000+01:00</time>
      </trkpt>
      <trkpt lat="43.67978" lon="4.08139">
        <ele>83.363772054514</ele>
        <time>2020-11-25T15:21:12.000+01:00</time>
      </trkpt>
      <trkpt lat="43.67978" lon="4.08139">
        <ele>83.362230649668</ele>
        <time>2020-11-25T15:21:13.000+01:00</time>
      </trkpt>
      <trkpt lat="43.67978" lon="4.08139">
        <ele>83.360660294822</ele>
        <time>2020-11-25T15:21:14.000+01:00</time>
      </trkpt>
      <trkpt lat="43.67978" lon="4.08139">
        <ele>83.359070818362</ele>
        <time>2020-11-25T15:21:15.000+01:00</time>
      </trkpt>
      <trkpt lat="43.67978" lon="4.0814">
        <ele>83.357451432073</ele>
        <time>2020-11-25T15:21:16.000+01:00</time>
      </trkpt>
      <trkpt lat="43.67978" lon="4.0814">
        <ele>83.355831770702</ele>
        <time>2020-11-25T15:21:17.000+01:00</time>
      </trkpt>
      <trkpt lat="43.67978" lon="4.0814">
        <ele>83.354209695657</ele>
        <time>2020-11-25T15:21:18.000+01:00</time>
      </trkpt>
      <trkpt lat="43.67978" lon="4.0814">
        <ele>83.3525833727</ele>
        <time>2020-11-25T15:21:19.000+01:00</time>
      </trkpt>
      <trkpt lat="43.67978" lon="4.0814">
        <ele>83.350938805093</ele>
        <time>2020-11-25T15:21:20.000+01:00</time>
      </trkpt>
      <trkpt lat="43.67978" lon="4.0814">
        <ele>83.349285460907</ele>
        <time>2020-11-25T15:21:21.000+01:00</time>
      </trkpt>
      <trkpt lat="43.67978" lon="4.0814">
        <ele>83.347618494846</ele>
        <time>2020-11-25T15:21:22.000+01:00</time>
      </trkpt>
      <trkpt lat="43.67978" lon="4.08141">
        <ele>83.345942308103</ele>
        <time>2020-11-25T15:21:23.000+01:00</time>
      </trkpt>
      <trkpt lat="43.67978" lon="4.08141">
        <ele>83.344252378469</ele>
        <time>2020-11-25T15:21:24.000+01:00</time>
      </trkpt>
      <trkpt lat="43.67978" lon="4.08141">
        <ele>83.32729598351</ele>
        <time>2020-11-25T15:21:25.000+01:00</time>
      </trkpt>
      <trkpt lat="43.67978" lon="4.08142">
        <ele>83.3105231965</ele>
        <time>2020-11-25T15:21:26.000+01:00</time>
      </trkpt>
      <trkpt lat="43.67978" lon="4.08143">
        <ele>83.293776484716</ele>
        <time>2020-11-25T15:21:27.000+01:00</time>
      </trkpt>
      <trkpt lat="43.67979" lon="4.08144">
        <ele>83.277164880937</ele>
        <time>2020-11-25T15:21:28.000+01:00</time>
      </trkpt>
      <trkpt lat="43.67979" lon="4.08146">
        <ele>83.260389245685</ele>
        <time>2020-11-25T15:21:29.000+01:00</time>
      </trkpt>
      <trkpt lat="43.67979" lon="4.08148">
        <ele>83.243655561724</ele>
        <time>2020-11-25T15:21:30.000+01:00</time>
      </trkpt>
      <trkpt lat="43.67979" lon="4.08149">
        <ele>83.227125185111</ele>
        <time>2020-11-25T15:21:31.000+01:00</time>
      </trkpt>
      <trkpt lat="43.67978" lon="4.0815">
        <ele>83.21041536217</ele>
        <time>2020-11-25T15:21:32.000+01:00</time>
      </trkpt>
      <trkpt lat="43.67978" lon="4.08151">
        <ele>83.19343356138</ele>
        <time>2020-11-25T15:21:33.000+01:00</time>
      </trkpt>
      <trkpt lat="43.67978" lon="4.08153">
        <ele>83.176449139438</ele>
        <time>2020-11-25T15:21:34.000+01:00</time>
      </trkpt>
      <trkpt lat="43.67978" lon="4.08153">
        <ele>83.159509266613</ele>
        <time>2020-11-25T15:21:35.000+01:00</time>
      </trkpt>
      <trkpt lat="43.67978" lon="4.08154">
        <ele>83.142581202111</ele>
        <time>2020-11-25T15:21:36.000+01:00</time>
      </trkpt>
      <trkpt lat="43.67977" lon="4.08155">
        <ele>83.125649193423</ele>
        <time>2020-11-25T15:21:37.000+01:00</time>
      </trkpt>
      <trkpt lat="43.67976" lon="4.08157">
        <ele>83.108611002191</ele>
        <time>2020-11-25T15:21:38.000+01:00</time>
      </trkpt>
      <trkpt lat="43.67976" lon="4.08158">
        <ele>83.091698773449</ele>
        <time>2020-11-25T15:21:39.000+01:00</time>
      </trkpt>
      <trkpt lat="43.67975" lon="4.08159">
        <ele>83.074931188292</ele>
        <time>2020-11-25T15:21:40.000+01:00</time>
      </trkpt>
      <trkpt lat="43.67974" lon="4.08159">
        <ele>83.058350731508</ele>
        <time>2020-11-25T15:21:41.000+01:00</time>
      </trkpt>
      <trkpt lat="43.67974" lon="4.0816">
        <ele>83.042013580152</ele>
        <time>2020-11-25T15:21:42.000+01:00</time>
      </trkpt>
      <trkpt lat="43.67973" lon="4.0816">
        <ele>83.025931412098</ele>
        <time>2020-11-25T15:21:43.000+01:00</time>
      </trkpt>
      <trkpt lat="43.67972" lon="4.0816">
        <ele>83.010085820431</ele>
        <time>2020-11-25T15:21:44.000+01:00</time>
      </trkpt>
      <trkpt lat="43.67971" lon="4.0816">
        <ele>82.994532537128</ele>
        <time>2020-11-25T15:21:45.000+01:00</time>
      </trkpt>
      <trkpt lat="43.6797" lon="4.08161">
        <ele>82.979243145982</ele>
        <time>2020-11-25T15:21:46.000+01:00</time>
      </trkpt>
      <trkpt lat="43.67969" lon="4.08161">
        <ele>82.964274476883</ele>
        <time>2020-11-25T15:21:47.000+01:00</time>
      </trkpt>
      <trkpt lat="43.67968" lon="4.08161">
        <ele>82.949559841946</ele>
        <time>2020-11-25T15:21:48.000+01:00</time>
      </trkpt>
      <trkpt lat="43.67967" lon="4.08161">
        <ele>82.935256688669</ele>
        <time>2020-11-25T15:21:49.000+01:00</time>
      </trkpt>
      <trkpt lat="43.67966" lon="4.08161">
        <ele>82.921196266987</ele>
        <time>2020-11-25T15:21:50.000+01:00</time>
      </trkpt>
      <trkpt lat="43.67965" lon="4.08161">
        <ele>82.90727466713</ele>
        <time>2020-11-25T15:21:51.000+01:00</time>
      </trkpt>
      <trkpt lat="43.67964" lon="4.08161">
        <ele>82.893522981864</ele>
        <time>2020-11-25T15:21:52.000+01:00</time>
      </trkpt>
      <trkpt lat="43.67963" lon="4.08161">
        <ele>82.879880029073</ele>
        <time>2020-11-25T15:21:53.000+01:00</time>
      </trkpt>
      <trkpt lat="43.67963" lon="4.08161">
        <ele>82.866348725362</ele>
        <time>2020-11-25T15:21:54.000+01:00</time>
      </trkpt>
      <trkpt lat="43.67962" lon="4.08161">
        <ele>82.852871221801</ele>
        <time>2020-11-25T15:21:55.000+01:00</time>
      </trkpt>
      <trkpt lat="43.67961" lon="4.08161">
        <ele>82.839696789063</ele>
        <time>2020-11-25T15:21:56.000+01:00</time>
      </trkpt>
      <trkpt lat="43.6796" lon="4.08162">
        <ele>82.826612548621</ele>
        <time>2020-11-25T15:21:57.000+01:00</time>
      </trkpt>
      <trkpt lat="43.67959" lon="4.08162">
        <ele>82.813528569227</ele>
        <time>2020-11-25T15:21:58.000+01:00</time>
      </trkpt>
      <trkpt lat="43.67957" lon="4.08162">
        <ele>82.800732254707</ele>
        <time>2020-11-25T15:21:59.000+01:00</time>
      </trkpt>
      <trkpt lat="43.67956" lon="4.08162">
        <ele>82.78818565338</ele>
        <time>2020-11-25T15:22:00.000+01:00</time>
      </trkpt>
      <trkpt lat="43.67956" lon="4.08162">
        <ele>82.775877518519</ele>
        <time>2020-11-25T15:22:01.000+01:00</time>
      </trkpt>
      <trkpt lat="43.67955" lon="4.08162">
        <ele>82.763763829087</ele>
        <time>2020-11-25T15:22:02.000+01:00</time>
      </trkpt>
      <trkpt lat="43.67954" lon="4.08163">
        <ele>82.75177389512</ele>
        <time>2020-11-25T15:22:03.000+01:00</time>
      </trkpt>
      <trkpt lat="43.67953" lon="4.08164">
        <ele>82.739970386407</ele>
        <time>2020-11-25T15:22:04.000+01:00</time>
      </trkpt>
      <trkpt lat="43.67952" lon="4.08164">
        <ele>82.728324330795</ele>
        <time>2020-11-25T15:22:05.000+01:00</time>
      </trkpt>
      <trkpt lat="43.67952" lon="4.08165">
        <ele>82.716778928406</ele>
        <time>2020-11-25T15:22:06.000+01:00</time>
      </trkpt>
      <trkpt lat="43.67951" lon="4.08166">
        <ele>82.705353681532</ele>
        <time>2020-11-25T15:22:07.000+01:00</time>
      </trkpt>
      <trkpt lat="43.6795" lon="4.08167">
        <ele>82.694043572324</ele>
        <time>2020-11-25T15:22:08.000+01:00</time>
      </trkpt>
      <trkpt lat="43.67949" lon="4.08168">
        <ele>82.682860132651</ele>
        <time>2020-11-25T15:22:09.000+01:00</time>
      </trkpt>
      <trkpt lat="43.67949" lon="4.0817">
        <ele>82.671842977739</ele>
        <time>2020-11-25T15:22:10.000+01:00</time>
      </trkpt>
      <trkpt lat="43.67948" lon="4.08171">
        <ele>82.660737786116</ele>
        <time>2020-11-25T15:22:11.000+01:00</time>
      </trkpt>
      <trkpt lat="43.67947" lon="4.08173">
        <ele>82.649565831411</ele>
        <time>2020-11-25T15:22:12.000+01:00</time>
      </trkpt>
      <trkpt lat="43.67947" lon="4.08174">
        <ele>82.638389847192</ele>
        <time>2020-11-25T15:22:13.000+01:00</time>
      </trkpt>
      <trkpt lat="43.67946" lon="4.08176">
        <ele>82.627207978074</ele>
        <time>2020-11-25T15:22:14.000+01:00</time>
      </trkpt>
      <trkpt lat="43.67946" lon="4.08177">
        <ele>82.616068645162</ele>
        <time>2020-11-25T15:22:15.000+01:00</time>
      </trkpt>
      <trkpt lat="43.67945" lon="4.08178">
        <ele>82.604978146337</ele>
        <time>2020-11-25T15:22:16.000+01:00</time>
      </trkpt>
      <trkpt lat="43.67945" lon="4.08179">
        <ele>82.593946879945</ele>
        <time>2020-11-25T15:22:17.000+01:00</time>
      </trkpt>
      <trkpt lat="43.67944" lon="4.08181">
        <ele>82.582949831819</ele>
        <time>2020-11-25T15:22:18.000+01:00</time>
      </trkpt>
      <trkpt lat="43.67944" lon="4.08182">
        <ele>82.571942492592</ele>
        <time>2020-11-25T15:22:19.000+01:00</time>
      </trkpt>
      <trkpt lat="43.67944" lon="4.08184">
        <ele>82.560985894229</ele>
        <time>2020-11-25T15:22:20.000+01:00</time>
      </trkpt>
      <trkpt lat="43.67943" lon="4.08185">
        <ele>82.550095722319</ele>
        <time>2020-11-25T15:22:21.000+01:00</time>
      </trkpt>
      <trkpt lat="43.67943" lon="4.08187">
        <ele>82.539283254816</ele>
        <time>2020-11-25T15:22:22.000+01:00</time>
      </trkpt>
      <trkpt lat="43.67943" lon="4.08189">
        <ele>82.528560083017</ele>
        <time>2020-11-25T15:22:23.000+01:00</time>
      </trkpt>
      <trkpt lat="43.67943" lon="4.0819">
        <ele>82.517927573716</ele>
        <time>2020-11-25T15:22:24.000+01:00</time>
      </trkpt>
      <trkpt lat="43.67943" lon="4.08191">
        <ele>82.507261471052</ele>
        <time>2020-11-25T15:22:25.000+01:00</time>
      </trkpt>
      <trkpt lat="43.67942" lon="4.08192">
        <ele>82.496606773268</ele>
        <time>2020-11-25T15:22:26.000+01:00</time>
      </trkpt>
      <trkpt lat="43.67942" lon="4.08193">
        <ele>82.48595927545</ele>
        <time>2020-11-25T15:22:27.000+01:00</time>
      </trkpt>
      <trkpt lat="43.67942" lon="4.08194">
        <ele>82.475308181245</ele>
        <time>2020-11-25T15:22:28.000+01:00</time>
      </trkpt>
      <trkpt lat="43.67942" lon="4.08195">
        <ele>82.464638430546</ele>
        <time>2020-11-25T15:22:29.000+01:00</time>
      </trkpt>
      <trkpt lat="43.67942" lon="4.08197">
        <ele>82.453959469319</ele>
        <time>2020-11-25T15:22:30.000+01:00</time>
      </trkpt>
      <trkpt lat="43.67942" lon="4.08198">
        <ele>82.443390614827</ele>
        <time>2020-11-25T15:22:31.000+01:00</time>
      </trkpt>
      <trkpt lat="43.67942" lon="4.08199">
        <ele>82.432230757022</ele>
        <time>2020-11-25T15:22:32.000+01:00</time>
      </trkpt>
      <trkpt lat="43.67942" lon="4.08201">
        <ele>82.421095212344</ele>
        <time>2020-11-25T15:22:33.000+01:00</time>
      </trkpt>
      <trkpt lat="43.67942" lon="4.08202">
        <ele>82.410129141689</ele>
        <time>2020-11-25T15:22:34.000+01:00</time>
      </trkpt>
      <trkpt lat="43.67942" lon="4.08204">
        <ele>82.399336370527</ele>
        <time>2020-11-25T15:22:35.000+01:00</time>
      </trkpt>
      <trkpt lat="43.67942" lon="4.08206">
        <ele>82.38866751688</ele>
        <time>2020-11-25T15:22:36.000+01:00</time>
      </trkpt>
      <trkpt lat="43.67943" lon="4.08207">
        <ele>82.378162090499</ele>
        <time>2020-11-25T15:22:37.000+01:00</time>
      </trkpt>
      <trkpt lat="43.67943" lon="4.08209">
        <ele>82.367794430976</ele>
        <time>2020-11-25T15:22:38.000+01:00</time>
      </trkpt>
      <trkpt lat="43.67943" lon="4.08211">
        <ele>82.356966720726</ele>
        <time>2020-11-25T15:22:39.000+01:00</time>
      </trkpt>
      <trkpt lat="43.67943" lon="4.08213">
        <ele>82.345745256404</ele>
        <time>2020-11-25T15:22:40.000+01:00</time>
      </trkpt>
      <trkpt lat="43.67944" lon="4.08214">
        <ele>82.334547594487</ele>
        <time>2020-11-25T15:22:41.000+01:00</time>
      </trkpt>
      <trkpt lat="43.67944" lon="4.08216">
        <ele>82.322980924449</ele>
        <time>2020-11-25T15:22:42.000+01:00</time>
      </trkpt>
      <trkpt lat="43.67944" lon="4.08218">
        <ele>82.311189071922</ele>
        <time>2020-11-25T15:22:43.000+01:00</time>
      </trkpt>
      <trkpt lat="43.67945" lon="4.08219">
        <ele>82.299514675821</ele>
        <time>2020-11-25T15:22:44.000+01:00</time>
      </trkpt>
      <trkpt lat="43.67945" lon="4.08221">
        <ele>82.287661559692</ele>
        <time>2020-11-25T15:22:45.000+01:00</time>
      </trkpt>
      <trkpt lat="43.67946" lon="4.08222">
        <ele>82.2757256547</ele>
        <time>2020-11-25T15:22:46.000+01:00</time>
      </trkpt>
      <trkpt lat="43.67946" lon="4.08224">
        <ele>82.263593681616</ele>
        <time>2020-11-25T15:22:47.000+01:00</time>
      </trkpt>
      <trkpt lat="43.67946" lon="4.08225">
        <ele>82.251504985318</ele>
        <time>2020-11-25T15:22:48.000+01:00</time>
      </trkpt>
      <trkpt lat="43.67947" lon="4.08227">
        <ele>82.239218552294</ele>
        <time>2020-11-25T15:22:49.000+01:00</time>
      </trkpt>
      <trkpt lat="43.67947" lon="4.08229">
        <ele>82.226719517384</ele>
        <time>2020-11-25T15:22:50.000+01:00</time>
      </trkpt>
      <trkpt lat="43.67947" lon="4.0823">
        <ele>82.214009853354</ele>
        <time>2020-11-25T15:22:51.000+01:00</time>
      </trkpt>
      <trkpt lat="43.67948" lon="4.08232">
        <ele>82.201095226731</ele>
        <time>2020-11-25T15:22:52.000+01:00</time>
      </trkpt>
      <trkpt lat="43.67948" lon="4.08233">
        <ele>82.187951786331</ele>
        <time>2020-11-25T15:22:53.000+01:00</time>
      </trkpt>
      <trkpt lat="43.67948" lon="4.08235">
        <ele>82.174673122184</ele>
        <time>2020-11-25T15:22:54.000+01:00</time>
      </trkpt>
      <trkpt lat="43.67948" lon="4.08236">
        <ele>82.161404211643</ele>
        <time>2020-11-25T15:22:55.000+01:00</time>
      </trkpt>
      <trkpt lat="43.67948" lon="4.08237">
        <ele>82.148371879197</ele>
        <time>2020-11-25T15:22:56.000+01:00</time>
      </trkpt>
      <trkpt lat="43.67949" lon="4.08239">
        <ele>82.135556127783</ele>
        <time>2020-11-25T15:22:57.000+01:00</time>
      </trkpt>
      <trkpt lat="43.67949" lon="4.0824">
        <ele>82.123083362923</ele>
        <time>2020-11-25T15:22:58.000+01:00</time>
      </trkpt>
      <trkpt lat="43.67949" lon="4.08242">
        <ele>82.110900229806</ele>
        <time>2020-11-25T15:22:59.000+01:00</time>
      </trkpt>
      <trkpt lat="43.67949" lon="4.08243">
        <ele>82.098721290719</ele>
        <time>2020-11-25T15:23:00.000+01:00</time>
      </trkpt>
      <trkpt lat="43.6795" lon="4.08245">
        <ele>82.086571570821</ele>
        <time>2020-11-25T15:23:01.000+01:00</time>
      </trkpt>
      <trkpt lat="43.6795" lon="4.08246">
        <ele>82.074322174866</ele>
        <time>2020-11-25T15:23:02.000+01:00</time>
      </trkpt>
      <trkpt lat="43.6795" lon="4.08247">
        <ele>82.061951804026</ele>
        <time>2020-11-25T15:23:03.000+01:00</time>
      </trkpt>
      <trkpt lat="43.67951" lon="4.08249">
        <ele>82.049431419395</ele>
        <time>2020-11-25T15:23:04.000+01:00</time>
      </trkpt>
      <trkpt lat="43.67951" lon="4.0825">
        <ele>82.036815008337</ele>
        <time>2020-11-25T15:23:05.000+01:00</time>
      </trkpt>
      <trkpt lat="43.67951" lon="4.08251">
        <ele>82.024292876084</ele>
        <time>2020-11-25T15:23:06.000+01:00</time>
      </trkpt>
      <trkpt lat="43.67951" lon="4.08253">
        <ele>82.011967622267</ele>
        <time>2020-11-25T15:23:07.000+01:00</time>
      </trkpt>
      <trkpt lat="43.67951" lon="4.08254">
        <ele>81.999612627586</ele>
        <time>2020-11-25T15:23:08.000+01:00</time>
      </trkpt>
      <trkpt lat="43.67952" lon="4.08256">
        <ele>81.987171546059</ele>
        <time>2020-11-25T15:23:09.000+01:00</time>
      </trkpt>
      <trkpt lat="43.67952" lon="4.08258">
        <ele>81.974573076839</ele>
        <time>2020-11-25T15:23:10.000+01:00</time>
      </trkpt>
      <trkpt lat="43.67952" lon="4.08259">
        <ele>81.961946828951</ele>
        <time>2020-11-25T15:23:11.000+01:00</time>
      </trkpt>
      <trkpt lat="43.67953" lon="4.08261">
        <ele>81.949391389607</ele>
        <time>2020-11-25T15:23:12.000+01:00</time>
      </trkpt>
      <trkpt lat="43.67953" lon="4.08262">
        <ele>81.936744339766</ele>
        <time>2020-11-25T15:23:13.000+01:00</time>
      </trkpt>
      <trkpt lat="43.67953" lon="4.08263">
        <ele>81.923946016921</ele>
        <time>2020-11-25T15:23:14.000+01:00</time>
      </trkpt>
      <trkpt lat="43.67954" lon="4.08265">
        <ele>81.911090777111</ele>
        <time>2020-11-25T15:23:15.000+01:00</time>
      </trkpt>
      <trkpt lat="43.67954" lon="4.08266">
        <ele>81.898461948542</ele>
        <time>2020-11-25T15:23:16.000+01:00</time>
      </trkpt>
      <trkpt lat="43.67955" lon="4.08267">
        <ele>81.885990683664</ele>
        <time>2020-11-25T15:23:17.000+01:00</time>
      </trkpt>
      <trkpt lat="43.67955" lon="4.08269">
        <ele>81.873529630258</ele>
        <time>2020-11-25T15:23:18.000+01:00</time>
      </trkpt>
      <trkpt lat="43.67956" lon="4.08271">
        <ele>81.861114551163</ele>
        <time>2020-11-25T15:23:19.000+01:00</time>
      </trkpt>
      <trkpt lat="43.67956" lon="4.08273">
        <ele>81.848887120413</ele>
        <time>2020-11-25T15:23:20.000+01:00</time>
      </trkpt>
      <trkpt lat="43.67957" lon="4.08274">
        <ele>81.836535103462</ele>
        <time>2020-11-25T15:23:21.000+01:00</time>
      </trkpt>
      <trkpt lat="43.67957" lon="4.08276">
        <ele>81.823886731121</ele>
        <time>2020-11-25T15:23:22.000+01:00</time>
      </trkpt>
      <trkpt lat="43.67957" lon="4.08278">
        <ele>81.811207271499</ele>
        <time>2020-11-25T15:23:23.000+01:00</time>
      </trkpt>
      <trkpt lat="43.67958" lon="4.0828">
        <ele>81.798623532127</ele>
        <time>2020-11-25T15:23:24.000+01:00</time>
      </trkpt>
      <trkpt lat="43.67958" lon="4.08281">
        <ele>81.786151920263</ele>
        <time>2020-11-25T15:23:25.000+01:00</time>
      </trkpt>
      <trkpt lat="43.67958" lon="4.08283">
        <ele>81.773669905556</ele>
        <time>2020-11-25T15:23:26.000+01:00</time>
      </trkpt>
      <trkpt lat="43.67959" lon="4.08284">
        <ele>81.761100267173</ele>
        <time>2020-11-25T15:23:27.000+01:00</time>
      </trkpt>
      <trkpt lat="43.67959" lon="4.08286">
        <ele>81.74842706041</ele>
        <time>2020-11-25T15:23:28.000+01:00</time>
      </trkpt>
      <trkpt lat="43.67959" lon="4.08287">
        <ele>81.735762436822</ele>
        <time>2020-11-25T15:23:29.000+01:00</time>
      </trkpt>
      <trkpt lat="43.67959" lon="4.08289">
        <ele>81.723054117557</ele>
        <time>2020-11-25T15:23:30.000+01:00</time>
      </trkpt>
      <trkpt lat="43.6796" lon="4.0829">
        <ele>81.710318186762</ele>
        <time>2020-11-25T15:23:31.000+01:00</time>
      </trkpt>
      <trkpt lat="43.6796" lon="4.08292">
        <ele>81.697637556794</ele>
        <time>2020-11-25T15:23:32.000+01:00</time>
      </trkpt>
      <trkpt lat="43.6796" lon="4.08293">
        <ele>81.684963369825</ele>
        <time>2020-11-25T15:23:33.000+01:00</time>
      </trkpt>
      <trkpt lat="43.6796" lon="4.08295">
        <ele>81.672298836115</ele>
        <time>2020-11-25T15:23:34.000+01:00</time>
      </trkpt>
      <trkpt lat="43.6796" lon="4.08296">
        <ele>81.659687469653</ele>
        <time>2020-11-25T15:23:35.000+01:00</time>
      </trkpt>
      <trkpt lat="43.67961" lon="4.08298">
        <ele>81.64691316255</ele>
        <time>2020-11-25T15:23:36.000+01:00</time>
      </trkpt>
      <trkpt lat="43.67961" lon="4.08299">
        <ele>81.634142658343</ele>
        <time>2020-11-25T15:23:37.000+01:00</time>
      </trkpt>
      <trkpt lat="43.67961" lon="4.08301">
        <ele>81.621200038139</ele>
        <time>2020-11-25T15:23:38.000+01:00</time>
      </trkpt>
      <trkpt lat="43.67961" lon="4.08303">
        <ele>81.608097028147</ele>
        <time>2020-11-25T15:23:39.000+01:00</time>
      </trkpt>
      <trkpt lat="43.67962" lon="4.08304">
        <ele>81.59493791117</ele>
        <time>2020-11-25T15:23:40.000+01:00</time>
      </trkpt>
      <trkpt lat="43.67962" lon="4.08306">
        <ele>81.581787747002</ele>
        <time>2020-11-25T15:23:41.000+01:00</time>
      </trkpt>
      <trkpt lat="43.67962" lon="4.08307">
        <ele>81.568638735936</ele>
        <time>2020-11-25T15:23:42.000+01:00</time>
      </trkpt>
      <trkpt lat="43.67963" lon="4.08308">
        <ele>81.555424891509</ele>
        <time>2020-11-25T15:23:43.000+01:00</time>
      </trkpt>
      <trkpt lat="43.67963" lon="4.08309">
        <ele>81.542153504824</ele>
        <time>2020-11-25T15:23:44.000+01:00</time>
      </trkpt>
      <trkpt lat="43.67963" lon="4.08311">
        <ele>81.528836191121</ele>
        <time>2020-11-25T15:23:45.000+01:00</time>
      </trkpt>
      <trkpt lat="43.67964" lon="4.08313">
        <ele>81.515493704446</ele>
        <time>2020-11-25T15:23:46.000+01:00</time>
      </trkpt>
      <trkpt lat="43.67964" lon="4.08314">
        <ele>81.502189533435</ele>
        <time>2020-11-25T15:23:47.000+01:00</time>
      </trkpt>
      <trkpt lat="43.67965" lon="4.08316">
        <ele>81.488968228954</ele>
        <time>2020-11-25T15:23:48.000+01:00</time>
      </trkpt>
      <trkpt lat="43.67965" lon="4.08318">
        <ele>81.475841134056</ele>
        <time>2020-11-25T15:23:49.000+01:00</time>
      </trkpt>
      <trkpt lat="43.67966" lon="4.08319">
        <ele>81.462888866798</ele>
        <time>2020-11-25T15:23:50.000+01:00</time>
      </trkpt>
      <trkpt lat="43.67966" lon="4.08321">
        <ele>81.449985601556</ele>
        <time>2020-11-25T15:23:51.000+01:00</time>
      </trkpt>
      <trkpt lat="43.67966" lon="4.08323">
        <ele>81.436975953491</ele>
        <time>2020-11-25T15:23:52.000+01:00</time>
      </trkpt>
      <trkpt lat="43.67966" lon="4.08324">
        <ele>81.423964027998</ele>
        <time>2020-11-25T15:23:53.000+01:00</time>
      </trkpt>
      <trkpt lat="43.67967" lon="4.08326">
        <ele>81.411094561777</ele>
        <time>2020-11-25T15:23:54.000+01:00</time>
      </trkpt>
      <trkpt lat="43.67967" lon="4.08328">
        <ele>81.398441463573</ele>
        <time>2020-11-25T15:23:55.000+01:00</time>
      </trkpt>
      <trkpt lat="43.67967" lon="4.0833">
        <ele>81.385641839534</ele>
        <time>2020-11-25T15:23:56.000+01:00</time>
      </trkpt>
      <trkpt lat="43.67967" lon="4.08331">
        <ele>81.37296954808</ele>
        <time>2020-11-25T15:23:57.000+01:00</time>
      </trkpt>
      <trkpt lat="43.67967" lon="4.08333">
        <ele>81.360418050199</ele>
        <time>2020-11-25T15:23:58.000+01:00</time>
      </trkpt>
      <trkpt lat="43.67967" lon="4.08334">
        <ele>81.34807959705</ele>
        <time>2020-11-25T15:23:59.000+01:00</time>
      </trkpt>
      <trkpt lat="43.67967" lon="4.08336">
        <ele>81.33584319251</ele>
        <time>2020-11-25T15:24:00.000+01:00</time>
      </trkpt>
      <trkpt lat="43.67967" lon="4.08337">
        <ele>81.323533438892</ele>
        <time>2020-11-25T15:24:01.000+01:00</time>
      </trkpt>
      <trkpt lat="43.67967" lon="4.08339">
        <ele>81.311238679435</ele>
        <time>2020-11-25T15:24:02.000+01:00</time>
      </trkpt>
      <trkpt lat="43.67967" lon="4.08341">
        <ele>81.298799818039</ele>
        <time>2020-11-25T15:24:03.000+01:00</time>
      </trkpt>
      <trkpt lat="43.67967" lon="4.08343">
        <ele>81.28628668431</ele>
        <time>2020-11-25T15:24:04.000+01:00</time>
      </trkpt>
      <trkpt lat="43.67968" lon="4.08344">
        <ele>81.273765306631</ele>
        <time>2020-11-25T15:24:05.000+01:00</time>
      </trkpt>
      <trkpt lat="43.67968" lon="4.08346">
        <ele>81.261429788071</ele>
        <time>2020-11-25T15:24:06.000+01:00</time>
      </trkpt>
      <trkpt lat="43.67968" lon="4.08348">
        <ele>81.249119067644</ele>
        <time>2020-11-25T15:24:07.000+01:00</time>
      </trkpt>
      <trkpt lat="43.67968" lon="4.08349">
        <ele>81.236812376818</ele>
        <time>2020-11-25T15:24:08.000+01:00</time>
      </trkpt>
      <trkpt lat="43.67968" lon="4.08351">
        <ele>81.224464467199</ele>
        <time>2020-11-25T15:24:09.000+01:00</time>
      </trkpt>
      <trkpt lat="43.67968" lon="4.08352">
        <ele>81.212099897198</ele>
        <time>2020-11-25T15:24:10.000+01:00</time>
      </trkpt>
      <trkpt lat="43.67968" lon="4.08354">
        <ele>81.199768705074</ele>
        <time>2020-11-25T15:24:11.000+01:00</time>
      </trkpt>
      <trkpt lat="43.67969" lon="4.08356">
        <ele>81.187284991812</ele>
        <time>2020-11-25T15:24:12.000+01:00</time>
      </trkpt>
      <trkpt lat="43.67968" lon="4.08357">
        <ele>81.174862816275</ele>
        <time>2020-11-25T15:24:13.000+01:00</time>
      </trkpt>
      <trkpt lat="43.67968" lon="4.08359">
        <ele>81.162477978093</ele>
        <time>2020-11-25T15:24:14.000+01:00</time>
      </trkpt>
      <trkpt lat="43.67968" lon="4.0836">
        <ele>81.150200842563</ele>
        <time>2020-11-25T15:24:15.000+01:00</time>
      </trkpt>
      <trkpt lat="43.67968" lon="4.08362">
        <ele>81.137993256302</ele>
        <time>2020-11-25T15:24:16.000+01:00</time>
      </trkpt>
      <trkpt lat="43.67968" lon="4.08363">
        <ele>81.125759975723</ele>
        <time>2020-11-25T15:24:17.000+01:00</time>
      </trkpt>
      <trkpt lat="43.67968" lon="4.08365">
        <ele>81.113561648972</ele>
        <time>2020-11-25T15:24:18.000+01:00</time>
      </trkpt>
      <trkpt lat="43.67968" lon="4.08366">
        <ele>81.101376074957</ele>
        <time>2020-11-25T15:24:19.000+01:00</time>
      </trkpt>
      <trkpt lat="43.67968" lon="4.08368">
        <ele>81.08943910576</ele>
        <time>2020-11-25T15:24:20.000+01:00</time>
      </trkpt>
      <trkpt lat="43.67968" lon="4.0837">
        <ele>81.077860447017</ele>
        <time>2020-11-25T15:24:21.000+01:00</time>
      </trkpt>
      <trkpt lat="43.67968" lon="4.08372">
        <ele>81.066562126926</ele>
        <time>2020-11-25T15:24:22.000+01:00</time>
      </trkpt>
      <trkpt lat="43.67968" lon="4.08373">
        <ele>81.055533607455</ele>
        <time>2020-11-25T15:24:23.000+01:00</time>
      </trkpt>
      <trkpt lat="43.67968" lon="4.08374">
        <ele>81.044589843654</ele>
        <time>2020-11-25T15:24:24.000+01:00</time>
      </trkpt>
      <trkpt lat="43.67968" lon="4.08374">
        <ele>81.033827618589</ele>
        <time>2020-11-25T15:24:25.000+01:00</time>
      </trkpt>
      <trkpt lat="43.67969" lon="4.08375">
        <ele>81.0231241804</ele>
        <time>2020-11-25T15:24:26.000+01:00</time>
      </trkpt>
      <trkpt lat="43.67969" lon="4.08375">
        <ele>81.012591458089</ele>
        <time>2020-11-25T15:24:27.000+01:00</time>
      </trkpt>
      <trkpt lat="43.67969" lon="4.08376">
        <ele>81.002295258347</ele>
        <time>2020-11-25T15:24:28.000+01:00</time>
      </trkpt>
      <trkpt lat="43.6797" lon="4.08378">
        <ele>80.992304335095</ele>
        <time>2020-11-25T15:24:29.000+01:00</time>
      </trkpt>
      <trkpt lat="43.6797" lon="4.08379">
        <ele>80.982545622131</ele>
        <time>2020-11-25T15:24:30.000+01:00</time>
      </trkpt>
      <trkpt lat="43.6797" lon="4.08381">
        <ele>80.973177020809</ele>
        <time>2020-11-25T15:24:31.000+01:00</time>
      </trkpt>
      <trkpt lat="43.6797" lon="4.08382">
        <ele>80.964150361934</ele>
        <time>2020-11-25T15:24:32.000+01:00</time>
      </trkpt>
      <trkpt lat="43.6797" lon="4.08383">
        <ele>80.955285447765</ele>
        <time>2020-11-25T15:24:33.000+01:00</time>
      </trkpt>
      <trkpt lat="43.67971" lon="4.08385">
        <ele>80.946492492224</ele>
        <time>2020-11-25T15:24:34.000+01:00</time>
      </trkpt>
      <trkpt lat="43.67971" lon="4.08387">
        <ele>80.937725596814</ele>
        <time>2020-11-25T15:24:35.000+01:00</time>
      </trkpt>
      <trkpt lat="43.67972" lon="4.08388">
        <ele>80.929007142476</ele>
        <time>2020-11-25T15:24:36.000+01:00</time>
      </trkpt>
      <trkpt lat="43.67972" lon="4.08389">
        <ele>80.920308960489</ele>
        <time>2020-11-25T15:24:37.000+01:00</time>
      </trkpt>
      <trkpt lat="43.67972" lon="4.08391">
        <ele>80.911526250511</ele>
        <time>2020-11-25T15:24:38.000+01:00</time>
      </trkpt>
      <trkpt lat="43.67972" lon="4.08393">
        <ele>80.902850456028</ele>
        <time>2020-11-25T15:24:39.000+01:00</time>
      </trkpt>
      <trkpt lat="43.67973" lon="4.08394">
        <ele>80.894167122717</ele>
        <time>2020-11-25T15:24:40.000+01:00</time>
      </trkpt>
      <trkpt lat="43.67973" lon="4.08396">
        <ele>80.885791312191</ele>
        <time>2020-11-25T15:24:41.000+01:00</time>
      </trkpt>
      <trkpt lat="43.67973" lon="4.08398">
        <ele>80.8775155521</ele>
        <time>2020-11-25T15:24:42.000+01:00</time>
      </trkpt>
      <trkpt lat="43.67973" lon="4.084">
        <ele>80.869208508307</ele>
        <time>2020-11-25T15:24:43.000+01:00</time>
      </trkpt>
      <trkpt lat="43.67973" lon="4.08402">
        <ele>80.860746994035</ele>
        <time>2020-11-25T15:24:44.000+01:00</time>
      </trkpt>
      <trkpt lat="43.67973" lon="4.08403">
        <ele>80.852328520648</ele>
        <time>2020-11-25T15:24:45.000+01:00</time>
      </trkpt>
      <trkpt lat="43.67973" lon="4.08405">
        <ele>80.843874551067</ele>
        <time>2020-11-25T15:24:46.000+01:00</time>
      </trkpt>
      <trkpt lat="43.67973" lon="4.08406">
        <ele>80.835390931283</ele>
        <time>2020-11-25T15:24:47.000+01:00</time>
      </trkpt>
      <trkpt lat="43.67973" lon="4.08407">
        <ele>80.826838984867</ele>
        <time>2020-11-25T15:24:48.000+01:00</time>
      </trkpt>
      <trkpt lat="43.67973" lon="4.08409">
        <ele>80.818174784663</ele>
        <time>2020-11-25T15:24:49.000+01:00</time>
      </trkpt>
      <trkpt lat="43.67973" lon="4.0841">
        <ele>80.809416063685</ele>
        <time>2020-11-25T15:24:50.000+01:00</time>
      </trkpt>
      <trkpt lat="43.67973" lon="4.08412">
        <ele>80.800421017666</ele>
        <time>2020-11-25T15:24:51.000+01:00</time>
      </trkpt>
      <trkpt lat="43.67972" lon="4.08413">
        <ele>80.791212433148</ele>
        <time>2020-11-25T15:24:52.000+01:00</time>
      </trkpt>
      <trkpt lat="43.67972" lon="4.08414">
        <ele>80.781897277298</ele>
        <time>2020-11-25T15:24:53.000+01:00</time>
      </trkpt>
      <trkpt lat="43.67973" lon="4.08415">
        <ele>80.772333675363</ele>
        <time>2020-11-25T15:24:54.000+01:00</time>
      </trkpt>
      <trkpt lat="43.67973" lon="4.08417">
        <ele>80.762555802742</ele>
        <time>2020-11-25T15:24:55.000+01:00</time>
      </trkpt>
      <trkpt lat="43.67973" lon="4.08418">
        <ele>80.752616904061</ele>
        <time>2020-11-25T15:24:56.000+01:00</time>
      </trkpt>
      <trkpt lat="43.67974" lon="4.0842">
        <ele>80.742515513664</ele>
        <time>2020-11-25T15:24:57.000+01:00</time>
      </trkpt>
      <trkpt lat="43.67974" lon="4.08421">
        <ele>80.732213691888</ele>
        <time>2020-11-25T15:24:58.000+01:00</time>
      </trkpt>
      <trkpt lat="43.67975" lon="4.08423">
        <ele>80.721713352404</ele>
        <time>2020-11-25T15:24:59.000+01:00</time>
      </trkpt>
      <trkpt lat="43.67975" lon="4.08424">
        <ele>80.711008290544</ele>
        <time>2020-11-25T15:25:00.000+01:00</time>
      </trkpt>
      <trkpt lat="43.67976" lon="4.08425">
        <ele>80.700076661217</ele>
        <time>2020-11-25T15:25:01.000+01:00</time>
      </trkpt>
      <trkpt lat="43.67976" lon="4.08427">
        <ele>80.689153384631</ele>
        <time>2020-11-25T15:25:02.000+01:00</time>
      </trkpt>
      <trkpt lat="43.67976" lon="4.08429">
        <ele>80.678193005384</ele>
        <time>2020-11-25T15:25:03.000+01:00</time>
      </trkpt>
      <trkpt lat="43.67977" lon="4.0843">
        <ele>80.667369039683</ele>
        <time>2020-11-25T15:25:04.000+01:00</time>
      </trkpt>
      <trkpt lat="43.67978" lon="4.08432">
        <ele>80.656684365218</ele>
        <time>2020-11-25T15:25:05.000+01:00</time>
      </trkpt>
      <trkpt lat="43.67978" lon="4.08433">
        <ele>80.645910220704</ele>
        <time>2020-11-25T15:25:06.000+01:00</time>
      </trkpt>
      <trkpt lat="43.67978" lon="4.08435">
        <ele>80.635063767295</ele>
        <time>2020-11-25T15:25:07.000+01:00</time>
      </trkpt>
      <trkpt lat="43.67979" lon="4.08436">
        <ele>80.624074961558</ele>
        <time>2020-11-25T15:25:08.000+01:00</time>
      </trkpt>
      <trkpt lat="43.67979" lon="4.08438">
        <ele>80.612939225713</ele>
        <time>2020-11-25T15:25:09.000+01:00</time>
      </trkpt>
      <trkpt lat="43.67979" lon="4.08439">
        <ele>80.601774187073</ele>
        <time>2020-11-25T15:25:10.000+01:00</time>
      </trkpt>
      <trkpt lat="43.67979" lon="4.08441">
        <ele>80.590698017424</ele>
        <time>2020-11-25T15:25:11.000+01:00</time>
      </trkpt>
      <trkpt lat="43.67979" lon="4.08442">
        <ele>80.579643361542</ele>
        <time>2020-11-25T15:25:12.000+01:00</time>
      </trkpt>
      <trkpt lat="43.67979" lon="4.08444">
        <ele>80.568602036172</ele>
        <time>2020-11-25T15:25:13.000+01:00</time>
      </trkpt>
      <trkpt lat="43.67979" lon="4.08445">
        <ele>80.557712780898</ele>
        <time>2020-11-25T15:25:14.000+01:00</time>
      </trkpt>
      <trkpt lat="43.67979" lon="4.08447">
        <ele>80.546785855607</ele>
        <time>2020-11-25T15:25:15.000+01:00</time>
      </trkpt>
      <trkpt lat="43.67979" lon="4.08448">
        <ele>80.535804375547</ele>
        <time>2020-11-25T15:25:16.000+01:00</time>
      </trkpt>
      <trkpt lat="43.6798" lon="4.08449">
        <ele>80.52469210773</ele>
        <time>2020-11-25T15:25:17.000+01:00</time>
      </trkpt>
      <trkpt lat="43.6798" lon="4.0845">
        <ele>80.513462246647</ele>
        <time>2020-11-25T15:25:18.000+01:00</time>
      </trkpt>
      <trkpt lat="43.6798" lon="4.08452">
        <ele>80.50207318329</ele>
        <time>2020-11-25T15:25:19.000+01:00</time>
      </trkpt>
      <trkpt lat="43.6798" lon="4.08453">
        <ele>80.490792745592</ele>
        <time>2020-11-25T15:25:20.000+01:00</time>
      </trkpt>
      <trkpt lat="43.6798" lon="4.08455">
        <ele>80.479573642186</ele>
        <time>2020-11-25T15:25:21.000+01:00</time>
      </trkpt>
      <trkpt lat="43.67981" lon="4.08456">
        <ele>80.468538992388</ele>
        <time>2020-11-25T15:25:22.000+01:00</time>
      </trkpt>
      <trkpt lat="43.67981" lon="4.08457">
        <ele>80.457763950181</ele>
        <time>2020-11-25T15:25:23.000+01:00</time>
      </trkpt>
      <trkpt lat="43.67981" lon="4.08459">
        <ele>80.447172315783</ele>
        <time>2020-11-25T15:25:24.000+01:00</time>
      </trkpt>
      <trkpt lat="43.67981" lon="4.0846">
        <ele>80.436787688982</ele>
        <time>2020-11-25T15:25:25.000+01:00</time>
      </trkpt>
      <trkpt lat="43.67981" lon="4.08461">
        <ele>80.42645282544</ele>
        <time>2020-11-25T15:25:26.000+01:00</time>
      </trkpt>
      <trkpt lat="43.67982" lon="4.08462">
        <ele>80.41609807473</ele>
        <time>2020-11-25T15:25:27.000+01:00</time>
      </trkpt>
      <trkpt lat="43.67982" lon="4.08463">
        <ele>80.405674518028</ele>
        <time>2020-11-25T15:25:28.000+01:00</time>
      </trkpt>
      <trkpt lat="43.67982" lon="4.08465">
        <ele>80.395224636288</ele>
        <time>2020-11-25T15:25:29.000+01:00</time>
      </trkpt>
      <trkpt lat="43.67982" lon="4.08467">
        <ele>80.384865795642</ele>
        <time>2020-11-25T15:25:30.000+01:00</time>
      </trkpt>
      <trkpt lat="43.67982" lon="4.08468">
        <ele>80.374537293339</ele>
        <time>2020-11-25T15:25:31.000+01:00</time>
      </trkpt>
      <trkpt lat="43.67982" lon="4.0847">
        <ele>80.364232382187</ele>
        <time>2020-11-25T15:25:32.000+01:00</time>
      </trkpt>
      <trkpt lat="43.67982" lon="4.08471">
        <ele>80.353888665037</ele>
        <time>2020-11-25T15:25:33.000+01:00</time>
      </trkpt>
      <trkpt lat="43.67983" lon="4.08472">
        <ele>80.343438034968</ele>
        <time>2020-11-25T15:25:34.000+01:00</time>
      </trkpt>
      <trkpt lat="43.67983" lon="4.08474">
        <ele>80.333153800741</ele>
        <time>2020-11-25T15:25:35.000+01:00</time>
      </trkpt>
      <trkpt lat="43.67983" lon="4.08476">
        <ele>80.322808134579</ele>
        <time>2020-11-25T15:25:36.000+01:00</time>
      </trkpt>
      <trkpt lat="43.67984" lon="4.08477">
        <ele>80.312553303982</ele>
        <time>2020-11-25T15:25:37.000+01:00</time>
      </trkpt>
      <trkpt lat="43.67984" lon="4.08478">
        <ele>80.302554902432</ele>
        <time>2020-11-25T15:25:38.000+01:00</time>
      </trkpt>
      <trkpt lat="43.67984" lon="4.0848">
        <ele>80.292755762398</ele>
        <time>2020-11-25T15:25:39.000+01:00</time>
      </trkpt>
      <trkpt lat="43.67984" lon="4.08481">
        <ele>80.283035533964</ele>
        <time>2020-11-25T15:25:40.000+01:00</time>
      </trkpt>
      <trkpt lat="43.67985" lon="4.08483">
        <ele>80.273569752832</ele>
        <time>2020-11-25T15:25:41.000+01:00</time>
      </trkpt>
      <trkpt lat="43.67985" lon="4.08485">
        <ele>80.26441742885</ele>
        <time>2020-11-25T15:25:42.000+01:00</time>
      </trkpt>
      <trkpt lat="43.67985" lon="4.08486">
        <ele>80.255578821714</ele>
        <time>2020-11-25T15:25:43.000+01:00</time>
      </trkpt>
      <trkpt lat="43.67985" lon="4.08488">
        <ele>80.24706367092</ele>
        <time>2020-11-25T15:25:44.000+01:00</time>
      </trkpt>
      <trkpt lat="43.67985" lon="4.0849">
        <ele>80.238756619337</ele>
        <time>2020-11-25T15:25:45.000+01:00</time>
      </trkpt>
      <trkpt lat="43.67986" lon="4.08491">
        <ele>80.230376747221</ele>
        <time>2020-11-25T15:25:46.000+01:00</time>
      </trkpt>
      <trkpt lat="43.67986" lon="4.08493">
        <ele>80.221876599696</ele>
        <time>2020-11-25T15:25:47.000+01:00</time>
      </trkpt>
      <trkpt lat="43.67986" lon="4.08494">
        <ele>80.213259255352</ele>
        <time>2020-11-25T15:25:48.000+01:00</time>
      </trkpt>
      <trkpt lat="43.67986" lon="4.08496">
        <ele>80.20448832574</ele>
        <time>2020-11-25T15:25:49.000+01:00</time>
      </trkpt>
      <trkpt lat="43.67987" lon="4.08497">
        <ele>80.195591106419</ele>
        <time>2020-11-25T15:25:50.000+01:00</time>
      </trkpt>
      <trkpt lat="43.67987" lon="4.08499">
        <ele>80.186644757016</ele>
        <time>2020-11-25T15:25:51.000+01:00</time>
      </trkpt>
      <trkpt lat="43.67987" lon="4.085">
        <ele>80.177872934104</ele>
        <time>2020-11-25T15:25:52.000+01:00</time>
      </trkpt>
      <trkpt lat="43.67987" lon="4.08502">
        <ele>80.168782814803</ele>
        <time>2020-11-25T15:25:53.000+01:00</time>
      </trkpt>
      <trkpt lat="43.67987" lon="4.08503">
        <ele>80.159365089912</ele>
        <time>2020-11-25T15:25:54.000+01:00</time>
      </trkpt>
      <trkpt lat="43.67987" lon="4.08504">
        <ele>80.149667420168</ele>
        <time>2020-11-25T15:25:55.000+01:00</time>
      </trkpt>
      <trkpt lat="43.67987" lon="4.08506">
        <ele>80.139630165354</ele>
        <time>2020-11-25T15:25:56.000+01:00</time>
      </trkpt>
      <trkpt lat="43.67987" lon="4.08507">
        <ele>80.129337639059</ele>
        <time>2020-11-25T15:25:57.000+01:00</time>
      </trkpt>
      <trkpt lat="43.67987" lon="4.08509">
        <ele>80.118737115988</ele>
        <time>2020-11-25T15:25:58.000+01:00</time>
      </trkpt>
      <trkpt lat="43.67988" lon="4.0851">
        <ele>80.108074869679</ele>
        <time>2020-11-25T15:25:59.000+01:00</time>
      </trkpt>
      <trkpt lat="43.67988" lon="4.08512">
        <ele>80.097244230978</ele>
        <time>2020-11-25T15:26:00.000+01:00</time>
      </trkpt>
      <trkpt lat="43.67988" lon="4.08513">
        <ele>80.08624952528</ele>
        <time>2020-11-25T15:26:01.000+01:00</time>
      </trkpt>
      <trkpt lat="43.67989" lon="4.08514">
        <ele>80.075136598047</ele>
        <time>2020-11-25T15:26:02.000+01:00</time>
      </trkpt>
      <trkpt lat="43.67989" lon="4.08516">
        <ele>80.064030058557</ele>
        <time>2020-11-25T15:26:03.000+01:00</time>
      </trkpt>
      <trkpt lat="43.67989" lon="4.08517">
        <ele>80.052856839254</ele>
        <time>2020-11-25T15:26:04.000+01:00</time>
      </trkpt>
      <trkpt lat="43.6799" lon="4.08518">
        <ele>80.04157001168</ele>
        <time>2020-11-25T15:26:05.000+01:00</time>
      </trkpt>
      <trkpt lat="43.6799" lon="4.08519">
        <ele>80.030247697346</ele>
        <time>2020-11-25T15:26:06.000+01:00</time>
      </trkpt>
      <trkpt lat="43.6799" lon="4.0852">
        <ele>80.019077918284</ele>
        <time>2020-11-25T15:26:07.000+01:00</time>
      </trkpt>
      <trkpt lat="43.67991" lon="4.08522">
        <ele>80.007766102432</ele>
        <time>2020-11-25T15:26:08.000+01:00</time>
      </trkpt>
      <trkpt lat="43.67991" lon="4.08524">
        <ele>79.996400485696</ele>
        <time>2020-11-25T15:26:09.000+01:00</time>
      </trkpt>
      <trkpt lat="43.67992" lon="4.08526">
        <ele>79.985251199237</ele>
        <time>2020-11-25T15:26:10.000+01:00</time>
      </trkpt>
      <trkpt lat="43.67992" lon="4.08527">
        <ele>79.974061437186</ele>
        <time>2020-11-25T15:26:11.000+01:00</time>
      </trkpt>
      <trkpt lat="43.67993" lon="4.08528">
        <ele>79.963009758615</ele>
        <time>2020-11-25T15:26:12.000+01:00</time>
      </trkpt>
      <trkpt lat="43.67993" lon="4.0853">
        <ele>79.951865739081</ele>
        <time>2020-11-25T15:26:13.000+01:00</time>
      </trkpt>
      <trkpt lat="43.67993" lon="4.08531">
        <ele>79.94059948405</ele>
        <time>2020-11-25T15:26:14.000+01:00</time>
      </trkpt>
      <trkpt lat="43.67994" lon="4.08533">
        <ele>79.929322891747</ele>
        <time>2020-11-25T15:26:15.000+01:00</time>
      </trkpt>
      <trkpt lat="43.67994" lon="4.08535">
        <ele>79.917888196962</ele>
        <time>2020-11-25T15:26:16.000+01:00</time>
      </trkpt>
      <trkpt lat="43.67994" lon="4.08537">
        <ele>79.906332366662</ele>
        <time>2020-11-25T15:26:17.000+01:00</time>
      </trkpt>
      <trkpt lat="43.67994" lon="4.08538">
        <ele>79.894834399185</ele>
        <time>2020-11-25T15:26:18.000+01:00</time>
      </trkpt>
      <trkpt lat="43.67995" lon="4.08538">
        <ele>79.883196540393</ele>
        <time>2020-11-25T15:26:19.000+01:00</time>
      </trkpt>
      <trkpt lat="43.67995" lon="4.0854">
        <ele>79.871634495969</ele>
        <time>2020-11-25T15:26:20.000+01:00</time>
      </trkpt>
      <trkpt lat="43.67995" lon="4.08541">
        <ele>79.860152073282</ele>
        <time>2020-11-25T15:26:21.000+01:00</time>
      </trkpt>
      <trkpt lat="43.67995" lon="4.08543">
        <ele>79.848840385119</ele>
        <time>2020-11-25T15:26:22.000+01:00</time>
      </trkpt>
      <trkpt lat="43.67995" lon="4.08544">
        <ele>79.837544306794</ele>
        <time>2020-11-25T15:26:23.000+01:00</time>
      </trkpt>
      <trkpt lat="43.67995" lon="4.08545">
        <ele>79.826251836566</ele>
        <time>2020-11-25T15:26:24.000+01:00</time>
      </trkpt>
      <trkpt lat="43.67995" lon="4.08546">
        <ele>79.815198720959</ele>
        <time>2020-11-25T15:26:25.000+01:00</time>
      </trkpt>
      <trkpt lat="43.67995" lon="4.08548">
        <ele>79.804460075941</ele>
        <time>2020-11-25T15:26:26.000+01:00</time>
      </trkpt>
      <trkpt lat="43.67995" lon="4.08549">
        <ele>79.79389467071</ele>
        <time>2020-11-25T15:26:27.000+01:00</time>
      </trkpt>
      <trkpt lat="43.67995" lon="4.08551">
        <ele>79.783497866492</ele>
        <time>2020-11-25T15:26:28.000+01:00</time>
      </trkpt>
      <trkpt lat="43.67995" lon="4.08552">
        <ele>79.773213494228</ele>
        <time>2020-11-25T15:26:29.000+01:00</time>
      </trkpt>
      <trkpt lat="43.67995" lon="4.08554">
        <ele>79.763072787337</ele>
        <time>2020-11-25T15:26:30.000+01:00</time>
      </trkpt>
      <trkpt lat="43.67996" lon="4.08555">
        <ele>79.753027784672</ele>
        <time>2020-11-25T15:26:31.000+01:00</time>
      </trkpt>
      <trkpt lat="43.67996" lon="4.08556">
        <ele>79.742940521291</ele>
        <time>2020-11-25T15:26:32.000+01:00</time>
      </trkpt>
      <trkpt lat="43.67996" lon="4.08558">
        <ele>79.732915225871</ele>
        <time>2020-11-25T15:26:33.000+01:00</time>
      </trkpt>
      <trkpt lat="43.67997" lon="4.08559">
        <ele>79.722946838313</ele>
        <time>2020-11-25T15:26:34.000+01:00</time>
      </trkpt>
      <trkpt lat="43.67998" lon="4.0856">
        <ele>79.712869527375</ele>
        <time>2020-11-25T15:26:35.000+01:00</time>
      </trkpt>
      <trkpt lat="43.67998" lon="4.08561">
        <ele>79.70282392582</ele>
        <time>2020-11-25T15:26:36.000+01:00</time>
      </trkpt>
      <trkpt lat="43.67999" lon="4.08563">
        <ele>79.692805613614</ele>
        <time>2020-11-25T15:26:37.000+01:00</time>
      </trkpt>
      <trkpt lat="43.68" lon="4.08564">
        <ele>79.682750545255</ele>
        <time>2020-11-25T15:26:38.000+01:00</time>
      </trkpt>
      <trkpt lat="43.68" lon="4.08566">
        <ele>79.672703330065</ele>
        <time>2020-11-25T15:26:39.000+01:00</time>
      </trkpt>
      <trkpt lat="43.68001" lon="4.08567">
        <ele>79.662700481621</ele>
        <time>2020-11-25T15:26:40.000+01:00</time>
      </trkpt>
      <trkpt lat="43.68001" lon="4.08569">
        <ele>79.652905349869</ele>
        <time>2020-11-25T15:26:41.000+01:00</time>
      </trkpt>
      <trkpt lat="43.68002" lon="4.08571">
        <ele>79.643384828965</ele>
        <time>2020-11-25T15:26:42.000+01:00</time>
      </trkpt>
      <trkpt lat="43.68002" lon="4.08572">
        <ele>79.634098481305</ele>
        <time>2020-11-25T15:26:43.000+01:00</time>
      </trkpt>
      <trkpt lat="43.68003" lon="4.08574">
        <ele>79.625021924692</ele>
        <time>2020-11-25T15:26:44.000+01:00</time>
      </trkpt>
      <trkpt lat="43.68003" lon="4.08575">
        <ele>79.616143049457</ele>
        <time>2020-11-25T15:26:45.000+01:00</time>
      </trkpt>
      <trkpt lat="43.68003" lon="4.08576">
        <ele>79.607365635142</ele>
        <time>2020-11-25T15:26:46.000+01:00</time>
      </trkpt>
      <trkpt lat="43.68003" lon="4.08577">
        <ele>79.598691086315</ele>
        <time>2020-11-25T15:26:47.000+01:00</time>
      </trkpt>
      <trkpt lat="43.68004" lon="4.08579">
        <ele>79.590095121443</ele>
        <time>2020-11-25T15:26:48.000+01:00</time>
      </trkpt>
      <trkpt lat="43.68004" lon="4.0858">
        <ele>79.581706207968</ele>
        <time>2020-11-25T15:26:49.000+01:00</time>
      </trkpt>
      <trkpt lat="43.68005" lon="4.08582">
        <ele>79.573403364767</ele>
        <time>2020-11-25T15:26:50.000+01:00</time>
      </trkpt>
      <trkpt lat="43.68005" lon="4.08583">
        <ele>79.565184069308</ele>
        <time>2020-11-25T15:26:51.000+01:00</time>
      </trkpt>
      <trkpt lat="43.68006" lon="4.08585">
        <ele>79.557198920454</ele>
        <time>2020-11-25T15:26:52.000+01:00</time>
      </trkpt>
      <trkpt lat="43.68006" lon="4.08586">
        <ele>79.549431012783</ele>
        <time>2020-11-25T15:26:53.000+01:00</time>
      </trkpt>
      <trkpt lat="43.68007" lon="4.08588">
        <ele>79.541800072709</ele>
        <time>2020-11-25T15:26:54.000+01:00</time>
      </trkpt>
      <trkpt lat="43.68007" lon="4.08588">
        <ele>79.534274432289</ele>
        <time>2020-11-25T15:26:55.000+01:00</time>
      </trkpt>
      <trkpt lat="43.68007" lon="4.08589">
        <ele>79.526677741803</ele>
        <time>2020-11-25T15:26:56.000+01:00</time>
      </trkpt>
      <trkpt lat="43.68008" lon="4.0859">
        <ele>79.519013140304</ele>
        <time>2020-11-25T15:26:57.000+01:00</time>
      </trkpt>
      <trkpt lat="43.68008" lon="4.08591">
        <ele>79.511342056449</ele>
        <time>2020-11-25T15:26:58.000+01:00</time>
      </trkpt>
      <trkpt lat="43.68008" lon="4.08593">
        <ele>79.50367193494</ele>
        <time>2020-11-25T15:26:59.000+01:00</time>
      </trkpt>
      <trkpt lat="43.68008" lon="4.08594">
        <ele>79.496095209562</ele>
        <time>2020-11-25T15:27:00.000+01:00</time>
      </trkpt>
      <trkpt lat="43.68008" lon="4.08596">
        <ele>79.488745652096</ele>
        <time>2020-11-25T15:27:01.000+01:00</time>
      </trkpt>
      <trkpt lat="43.68008" lon="4.08597">
        <ele>79.481381105316</ele>
        <time>2020-11-25T15:27:02.000+01:00</time>
      </trkpt>
      <trkpt lat="43.68008" lon="4.08598">
        <ele>79.474034848473</ele>
        <time>2020-11-25T15:27:03.000+01:00</time>
      </trkpt>
      <trkpt lat="43.68009" lon="4.086">
        <ele>79.466726477589</ele>
        <time>2020-11-25T15:27:04.000+01:00</time>
      </trkpt>
      <trkpt lat="43.68009" lon="4.08601">
        <ele>79.459465077687</ele>
        <time>2020-11-25T15:27:05.000+01:00</time>
      </trkpt>
      <trkpt lat="43.68009" lon="4.08603">
        <ele>79.45231145592</ele>
        <time>2020-11-25T15:27:06.000+01:00</time>
      </trkpt>
      <trkpt lat="43.6801" lon="4.08604">
        <ele>79.445397320121</ele>
        <time>2020-11-25T15:27:07.000+01:00</time>
      </trkpt>
      <trkpt lat="43.6801" lon="4.08605">
        <ele>79.43864733723</ele>
        <time>2020-11-25T15:27:08.000+01:00</time>
      </trkpt>
      <trkpt lat="43.6801" lon="4.08606">
        <ele>79.432039974126</ele>
        <time>2020-11-25T15:27:09.000+01:00</time>
      </trkpt>
      <trkpt lat="43.6801" lon="4.08609">
        <ele>79.425295433349</ele>
        <time>2020-11-25T15:27:10.000+01:00</time>
      </trkpt>
      <trkpt lat="43.68011" lon="4.0861">
        <ele>79.418499307357</ele>
        <time>2020-11-25T15:27:11.000+01:00</time>
      </trkpt>
      <trkpt lat="43.68011" lon="4.08612">
        <ele>79.411691632212</ele>
        <time>2020-11-25T15:27:12.000+01:00</time>
      </trkpt>
      <trkpt lat="43.68011" lon="4.08614">
        <ele>79.404831131632</ele>
        <time>2020-11-25T15:27:12.999+01:00</time>
      </trkpt>
      <trkpt lat="43.68012" lon="4.08615">
        <ele>79.398054651884</ele>
        <time>2020-11-25T15:27:13.999+01:00</time>
      </trkpt>
      <trkpt lat="43.68012" lon="4.08615">
        <ele>79.391369137456</ele>
        <time>2020-11-25T15:27:14.999+01:00</time>
      </trkpt>
      <trkpt lat="43.68012" lon="4.08617">
        <ele>79.384704179872</ele>
        <time>2020-11-25T15:27:15.999+01:00</time>
      </trkpt>
      <trkpt lat="43.68012" lon="4.08619">
        <ele>79.378170012351</ele>
        <time>2020-11-25T15:27:16.999+01:00</time>
      </trkpt>
      <trkpt lat="43.68013" lon="4.0862">
        <ele>79.371821652635</ele>
        <time>2020-11-25T15:27:17.999+01:00</time>
      </trkpt>
      <trkpt lat="43.68013" lon="4.08622">
        <ele>79.365524819098</ele>
        <time>2020-11-25T15:27:18.999+01:00</time>
      </trkpt>
      <trkpt lat="43.68013" lon="4.08624">
        <ele>79.359241526056</ele>
        <time>2020-11-25T15:27:19.999+01:00</time>
      </trkpt>
      <trkpt lat="43.68012" lon="4.08625">
        <ele>79.352917832032</ele>
        <time>2020-11-25T15:27:20.999+01:00</time>
      </trkpt>
      <trkpt lat="43.68013" lon="4.08627">
        <ele>79.346506398807</ele>
        <time>2020-11-25T15:27:21.999+01:00</time>
      </trkpt>
      <trkpt lat="43.68013" lon="4.08628">
        <ele>79.340035344455</ele>
        <time>2020-11-25T15:27:22.999+01:00</time>
      </trkpt>
      <trkpt lat="43.68012" lon="4.08629">
        <ele>79.333611555226</ele>
        <time>2020-11-25T15:27:23.999+01:00</time>
      </trkpt>
      <trkpt lat="43.68012" lon="4.0863">
        <ele>79.327198024757</ele>
        <time>2020-11-25T15:27:24.999+01:00</time>
      </trkpt>
      <trkpt lat="43.68012" lon="4.08632">
        <ele>79.320675281519</ele>
        <time>2020-11-25T15:27:25.999+01:00</time>
      </trkpt>
      <trkpt lat="43.68013" lon="4.08633">
        <ele>79.31405651851</ele>
        <time>2020-11-25T15:27:26.999+01:00</time>
      </trkpt>
      <trkpt lat="43.68013" lon="4.08635">
        <ele>79.307327307781</ele>
        <time>2020-11-25T15:27:27.999+01:00</time>
      </trkpt>
      <trkpt lat="43.68013" lon="4.08636">
        <ele>79.300482747329</ele>
        <time>2020-11-25T15:27:28.999+01:00</time>
      </trkpt>
      <trkpt lat="43.68013" lon="4.08637">
        <ele>79.293713535964</ele>
        <time>2020-11-25T15:27:29.999+01:00</time>
      </trkpt>
      <trkpt lat="43.68014" lon="4.08638">
        <ele>79.286897313664</ele>
        <time>2020-11-25T15:27:30.999+01:00</time>
      </trkpt>
      <trkpt lat="43.68014" lon="4.0864">
        <ele>79.280164601551</ele>
        <time>2020-11-25T15:27:31.999+01:00</time>
      </trkpt>
      <trkpt lat="43.68015" lon="4.08641">
        <ele>79.27333002857</ele>
        <time>2020-11-25T15:27:32.999+01:00</time>
      </trkpt>
      <trkpt lat="43.68015" lon="4.08643">
        <ele>79.266448997065</ele>
        <time>2020-11-25T15:27:33.999+01:00</time>
      </trkpt>
      <trkpt lat="43.68015" lon="4.08644">
        <ele>79.25962902043</ele>
        <time>2020-11-25T15:27:34.999+01:00</time>
      </trkpt>
      <trkpt lat="43.68015" lon="4.08645">
        <ele>79.252677061145</ele>
        <time>2020-11-25T15:27:35.999+01:00</time>
      </trkpt>
      <trkpt lat="43.68015" lon="4.08647">
        <ele>79.245564606725</ele>
        <time>2020-11-25T15:27:36.999+01:00</time>
      </trkpt>
      <trkpt lat="43.68015" lon="4.08648">
        <ele>79.238238714599</ele>
        <time>2020-11-25T15:27:37.999+01:00</time>
      </trkpt>
      <trkpt lat="43.68016" lon="4.08649">
        <ele>79.230656849246</ele>
        <time>2020-11-25T15:27:38.999+01:00</time>
      </trkpt>
      <trkpt lat="43.68016" lon="4.08651">
        <ele>79.222851492809</ele>
        <time>2020-11-25T15:27:39.999+01:00</time>
      </trkpt>
      <trkpt lat="43.68016" lon="4.08653">
        <ele>79.214767811562</ele>
        <time>2020-11-25T15:27:40.999+01:00</time>
      </trkpt>
      <trkpt lat="43.68016" lon="4.08654">
        <ele>79.20671382041</ele>
        <time>2020-11-25T15:27:41.999+01:00</time>
      </trkpt>
      <trkpt lat="43.68016" lon="4.08655">
        <ele>79.198785590694</ele>
        <time>2020-11-25T15:27:42.999+01:00</time>
      </trkpt>
      <trkpt lat="43.68016" lon="4.08657">
        <ele>79.190860751253</ele>
        <time>2020-11-25T15:27:43.999+01:00</time>
      </trkpt>
      <trkpt lat="43.68017" lon="4.08659">
        <ele>79.182823550232</ele>
        <time>2020-11-25T15:27:44.999+01:00</time>
      </trkpt>
      <trkpt lat="43.68017" lon="4.0866">
        <ele>79.174680833478</ele>
        <time>2020-11-25T15:27:45.999+01:00</time>
      </trkpt>
      <trkpt lat="43.68018" lon="4.08662">
        <ele>79.166606779092</ele>
        <time>2020-11-25T15:27:46.999+01:00</time>
      </trkpt>
      <trkpt lat="43.68018" lon="4.08663">
        <ele>79.158474231339</ele>
        <time>2020-11-25T15:27:47.999+01:00</time>
      </trkpt>
      <trkpt lat="43.68018" lon="4.08665">
        <ele>79.150228272746</ele>
        <time>2020-11-25T15:27:48.999+01:00</time>
      </trkpt>
      <trkpt lat="43.68018" lon="4.08667">
        <ele>79.141936454849</ele>
        <time>2020-11-25T15:27:49.999+01:00</time>
      </trkpt>
      <trkpt lat="43.68018" lon="4.08668">
        <ele>79.133617991992</ele>
        <time>2020-11-25T15:27:50.999+01:00</time>
      </trkpt>
      <trkpt lat="43.68019" lon="4.0867">
        <ele>79.125316558721</ele>
        <time>2020-11-25T15:27:51.999+01:00</time>
      </trkpt>
      <trkpt lat="43.68019" lon="4.08671">
        <ele>79.117086018441</ele>
        <time>2020-11-25T15:27:52.999+01:00</time>
      </trkpt>
      <trkpt lat="43.6802" lon="4.08673">
        <ele>79.108925102667</ele>
        <time>2020-11-25T15:27:53.999+01:00</time>
      </trkpt>
      <trkpt lat="43.6802" lon="4.08674">
        <ele>79.100846529091</ele>
        <time>2020-11-25T15:27:54.999+01:00</time>
      </trkpt>
      <trkpt lat="43.68021" lon="4.08675">
        <ele>79.092945491579</ele>
        <time>2020-11-25T15:27:55.999+01:00</time>
      </trkpt>
      <trkpt lat="43.68021" lon="4.08676">
        <ele>79.085044792046</ele>
        <time>2020-11-25T15:27:56.999+01:00</time>
      </trkpt>
      <trkpt lat="43.68021" lon="4.08678">
        <ele>79.077020715322</ele>
        <time>2020-11-25T15:27:57.999+01:00</time>
      </trkpt>
      <trkpt lat="43.68021" lon="4.0868">
        <ele>79.068894402148</ele>
        <time>2020-11-25T15:27:58.999+01:00</time>
      </trkpt>
      <trkpt lat="43.68022" lon="4.08681">
        <ele>79.060698397839</ele>
        <time>2020-11-25T15:27:59.999+01:00</time>
      </trkpt>
      <trkpt lat="43.68022" lon="4.08682">
        <ele>79.052457390122</ele>
        <time>2020-11-25T15:28:00.999+01:00</time>
      </trkpt>
      <trkpt lat="43.68022" lon="4.08683">
        <ele>79.04427224201</ele>
        <time>2020-11-25T15:28:01.999+01:00</time>
      </trkpt>
      <trkpt lat="43.68022" lon="4.08685">
        <ele>79.036045128888</ele>
        <time>2020-11-25T15:28:02.999+01:00</time>
      </trkpt>
      <trkpt lat="43.68023" lon="4.08687">
        <ele>79.0277841841</ele>
        <time>2020-11-25T15:28:03.999+01:00</time>
      </trkpt>
      <trkpt lat="43.68023" lon="4.08688">
        <ele>79.019480869151</ele>
        <time>2020-11-25T15:28:04.999+01:00</time>
      </trkpt>
      <trkpt lat="43.68023" lon="4.08689">
        <ele>79.011157246337</ele>
        <time>2020-11-25T15:28:05.999+01:00</time>
      </trkpt>
      <trkpt lat="43.68023" lon="4.08691">
        <ele>79.002754665506</ele>
        <time>2020-11-25T15:28:06.999+01:00</time>
      </trkpt>
      <trkpt lat="43.68023" lon="4.08692">
        <ele>78.994200950947</ele>
        <time>2020-11-25T15:28:07.999+01:00</time>
      </trkpt>
      <trkpt lat="43.68023" lon="4.08694">
        <ele>78.985562733664</ele>
        <time>2020-11-25T15:28:08.999+01:00</time>
      </trkpt>
      <trkpt lat="43.68024" lon="4.08696">
        <ele>78.976868139418</ele>
        <time>2020-11-25T15:28:09.999+01:00</time>
      </trkpt>
      <trkpt lat="43.68024" lon="4.08698">
        <ele>78.968180660419</ele>
        <time>2020-11-25T15:28:10.999+01:00</time>
      </trkpt>
      <trkpt lat="43.68024" lon="4.08699">
        <ele>78.959550610174</ele>
        <time>2020-11-25T15:28:11.999+01:00</time>
      </trkpt>
      <trkpt lat="43.68024" lon="4.08701">
        <ele>78.950871192129</ele>
        <time>2020-11-25T15:28:12.999+01:00</time>
      </trkpt>
      <trkpt lat="43.68025" lon="4.08702">
        <ele>78.942174939981</ele>
        <time>2020-11-25T15:28:13.999+01:00</time>
      </trkpt>
      <trkpt lat="43.68025" lon="4.08704">
        <ele>78.933466432497</ele>
        <time>2020-11-25T15:28:14.999+01:00</time>
      </trkpt>
      <trkpt lat="43.68025" lon="4.08705">
        <ele>78.92485368195</ele>
        <time>2020-11-25T15:28:15.999+01:00</time>
      </trkpt>
      <trkpt lat="43.68026" lon="4.08706">
        <ele>78.916352350587</ele>
        <time>2020-11-25T15:28:16.999+01:00</time>
      </trkpt>
      <trkpt lat="43.68026" lon="4.08708">
        <ele>78.907867152028</ele>
        <time>2020-11-25T15:28:17.999+01:00</time>
      </trkpt>
      <trkpt lat="43.68026" lon="4.08709">
        <ele>78.899462751953</ele>
        <time>2020-11-25T15:28:18.999+01:00</time>
      </trkpt>
      <trkpt lat="43.68026" lon="4.0871">
        <ele>78.891160033228</ele>
        <time>2020-11-25T15:28:19.999+01:00</time>
      </trkpt>
      <trkpt lat="43.68026" lon="4.08712">
        <ele>78.882832362048</ele>
        <time>2020-11-25T15:28:20.999+01:00</time>
      </trkpt>
      <trkpt lat="43.68026" lon="4.08713">
        <ele>78.874532698396</ele>
        <time>2020-11-25T15:28:21.999+01:00</time>
      </trkpt>
      <trkpt lat="43.68026" lon="4.08715">
        <ele>78.866223421495</ele>
        <time>2020-11-25T15:28:22.999+01:00</time>
      </trkpt>
      <trkpt lat="43.68026" lon="4.08716">
        <ele>78.857908951348</ele>
        <time>2020-11-25T15:28:23.999+01:00</time>
      </trkpt>
      <trkpt lat="43.68026" lon="4.08717">
        <ele>78.849665897165</ele>
        <time>2020-11-25T15:28:24.999+01:00</time>
      </trkpt>
      <trkpt lat="43.68027" lon="4.08719">
        <ele>78.841435525646</ele>
        <time>2020-11-25T15:28:25.999+01:00</time>
      </trkpt>
      <trkpt lat="43.68027" lon="4.0872">
        <ele>78.833139736713</ele>
        <time>2020-11-25T15:28:26.999+01:00</time>
      </trkpt>
      <trkpt lat="43.68027" lon="4.08722">
        <ele>78.824542531021</ele>
        <time>2020-11-25T15:28:27.999+01:00</time>
      </trkpt>
      <trkpt lat="43.68028" lon="4.08724">
        <ele>78.815670164601</ele>
        <time>2020-11-25T15:28:28.999+01:00</time>
      </trkpt>
      <trkpt lat="43.68028" lon="4.08725">
        <ele>78.806524368467</ele>
        <time>2020-11-25T15:28:29.999+01:00</time>
      </trkpt>
      <trkpt lat="43.68028" lon="4.08726">
        <ele>78.797147112856</ele>
        <time>2020-11-25T15:28:30.999+01:00</time>
      </trkpt>
      <trkpt lat="43.68028" lon="4.08727">
        <ele>78.787544079189</ele>
        <time>2020-11-25T15:28:31.999+01:00</time>
      </trkpt>
      <trkpt lat="43.68028" lon="4.08729">
        <ele>78.777729052119</ele>
        <time>2020-11-25T15:28:32.999+01:00</time>
      </trkpt>
      <trkpt lat="43.68028" lon="4.0873">
        <ele>78.767774536017</ele>
        <time>2020-11-25T15:28:33.999+01:00</time>
      </trkpt>
      <trkpt lat="43.68028" lon="4.08731">
        <ele>78.757647590983</ele>
        <time>2020-11-25T15:28:34.999+01:00</time>
      </trkpt>
      <trkpt lat="43.68028" lon="4.08733">
        <ele>78.747314654288</ele>
        <time>2020-11-25T15:28:35.999+01:00</time>
      </trkpt>
      <trkpt lat="43.68029" lon="4.08734">
        <ele>78.736829650851</ele>
        <time>2020-11-25T15:28:36.999+01:00</time>
      </trkpt>
      <trkpt lat="43.68028" lon="4.08735">
        <ele>78.726320322137</ele>
        <time>2020-11-25T15:28:37.999+01:00</time>
      </trkpt>
      <trkpt lat="43.68028" lon="4.08737">
        <ele>78.715634083734</ele>
        <time>2020-11-25T15:28:38.999+01:00</time>
      </trkpt>
      <trkpt lat="43.68028" lon="4.08739">
        <ele>78.7047789622</ele>
        <time>2020-11-25T15:28:39.999+01:00</time>
      </trkpt>
      <trkpt lat="43.68029" lon="4.0874">
        <ele>78.693841798603</ele>
        <time>2020-11-25T15:28:40.999+01:00</time>
      </trkpt>
      <trkpt lat="43.68029" lon="4.08741">
        <ele>78.682777767107</ele>
        <time>2020-11-25T15:28:41.999+01:00</time>
      </trkpt>
      <trkpt lat="43.68028" lon="4.08743">
        <ele>78.671572546621</ele>
        <time>2020-11-25T15:28:42.999+01:00</time>
      </trkpt>
      <trkpt lat="43.68028" lon="4.08744">
        <ele>78.660200809349</ele>
        <time>2020-11-25T15:28:43.999+01:00</time>
      </trkpt>
      <trkpt lat="43.68028" lon="4.08746">
        <ele>78.64867902661</ele>
        <time>2020-11-25T15:28:44.999+01:00</time>
      </trkpt>
      <trkpt lat="43.68028" lon="4.08748">
        <ele>78.636988522891</ele>
        <time>2020-11-25T15:28:45.999+01:00</time>
      </trkpt>
      <trkpt lat="43.68027" lon="4.08749">
        <ele>78.625234866472</ele>
        <time>2020-11-25T15:28:46.999+01:00</time>
      </trkpt>
      <trkpt lat="43.68027" lon="4.08751">
        <ele>78.61339537016</ele>
        <time>2020-11-25T15:28:47.999+01:00</time>
      </trkpt>
      <trkpt lat="43.68026" lon="4.08752">
        <ele>78.601502272021</ele>
        <time>2020-11-25T15:28:48.999+01:00</time>
      </trkpt>
      <trkpt lat="43.68026" lon="4.08752">
        <ele>78.589536979317</ele>
        <time>2020-11-25T15:28:49.999+01:00</time>
      </trkpt>
      <trkpt lat="43.68025" lon="4.08753">
        <ele>78.577495220701</ele>
        <time>2020-11-25T15:28:50.999+01:00</time>
      </trkpt>
      <trkpt lat="43.68024" lon="4.08754">
        <ele>78.565348285751</ele>
        <time>2020-11-25T15:28:51.999+01:00</time>
      </trkpt>
      <trkpt lat="43.68023" lon="4.08754">
        <ele>78.553125286961</ele>
        <time>2020-11-25T15:28:52.999+01:00</time>
      </trkpt>
      <trkpt lat="43.68022" lon="4.08755">
        <ele>78.540864725182</ele>
        <time>2020-11-25T15:28:53.999+01:00</time>
      </trkpt>
      <trkpt lat="43.68022" lon="4.08756">
        <ele>78.528666197779</ele>
        <time>2020-11-25T15:28:54.999+01:00</time>
      </trkpt>
      <trkpt lat="43.68021" lon="4.08756">
        <ele>78.51647803492</ele>
        <time>2020-11-25T15:28:55.999+01:00</time>
      </trkpt>
      <trkpt lat="43.6802" lon="4.08756">
        <ele>78.504391341064</ele>
        <time>2020-11-25T15:28:56.999+01:00</time>
      </trkpt>
      <trkpt lat="43.68019" lon="4.08756">
        <ele>78.4924414451</ele>
        <time>2020-11-25T15:28:57.999+01:00</time>
      </trkpt>
      <trkpt lat="43.68018" lon="4.08756">
        <ele>78.480618828267</ele>
        <time>2020-11-25T15:28:58.999+01:00</time>
      </trkpt>
      <trkpt lat="43.68017" lon="4.08757">
        <ele>78.468924825185</ele>
        <time>2020-11-25T15:28:59.999+01:00</time>
      </trkpt>
      <trkpt lat="43.68016" lon="4.08757">
        <ele>78.457331111218</ele>
        <time>2020-11-25T15:29:00.999+01:00</time>
      </trkpt>
      <trkpt lat="43.68014" lon="4.08758">
        <ele>78.44581531646</ele>
        <time>2020-11-25T15:29:01.999+01:00</time>
      </trkpt>
      <trkpt lat="43.68013" lon="4.08758">
        <ele>78.434346985121</ele>
        <time>2020-11-25T15:29:02.999+01:00</time>
      </trkpt>
      <trkpt lat="43.68012" lon="4.08758">
        <ele>78.422972942998</ele>
        <time>2020-11-25T15:29:03.999+01:00</time>
      </trkpt>
      <trkpt lat="43.68011" lon="4.08758">
        <ele>78.411648402296</ele>
        <time>2020-11-25T15:29:04.999+01:00</time>
      </trkpt>
      <trkpt lat="43.68009" lon="4.08759">
        <ele>78.400369280001</ele>
        <time>2020-11-25T15:29:05.999+01:00</time>
      </trkpt>
      <trkpt lat="43.68008" lon="4.08759">
        <ele>78.38905780966</ele>
        <time>2020-11-25T15:29:06.999+01:00</time>
      </trkpt>
      <trkpt lat="43.68006" lon="4.0876">
        <ele>78.377808181101</ele>
        <time>2020-11-25T15:29:07.999+01:00</time>
      </trkpt>
      <trkpt lat="43.68005" lon="4.0876">
        <ele>78.36668110807</ele>
        <time>2020-11-25T15:29:08.999+01:00</time>
      </trkpt>
      <trkpt lat="43.68004" lon="4.08761">
        <ele>78.355648284858</ele>
        <time>2020-11-25T15:29:09.999+01:00</time>
      </trkpt>
      <trkpt lat="43.68002" lon="4.08762">
        <ele>78.344677361141</ele>
        <time>2020-11-25T15:29:10.999+01:00</time>
      </trkpt>
      <trkpt lat="43.68002" lon="4.08763">
        <ele>78.333771111743</ele>
        <time>2020-11-25T15:29:11.999+01:00</time>
      </trkpt>
      <trkpt lat="43.68001" lon="4.08763">
        <ele>78.323011800579</ele>
        <time>2020-11-25T15:29:12.999+01:00</time>
      </trkpt>
      <trkpt lat="43.68001" lon="4.08764">
        <ele>78.312347843505</ele>
        <time>2020-11-25T15:29:13.999+01:00</time>
      </trkpt>
      <trkpt lat="43.68" lon="4.08765">
        <ele>78.301845107432</ele>
        <time>2020-11-25T15:29:14.999+01:00</time>
      </trkpt>
      <trkpt lat="43.67999" lon="4.08766">
        <ele>78.291438401244</ele>
        <time>2020-11-25T15:29:15.999+01:00</time>
      </trkpt>
      <trkpt lat="43.67998" lon="4.08766">
        <ele>78.281167411371</ele>
        <time>2020-11-25T15:29:16.999+01:00</time>
      </trkpt>
      <trkpt lat="43.67997" lon="4.08765">
        <ele>78.271064366686</ele>
        <time>2020-11-25T15:29:17.999+01:00</time>
      </trkpt>
      <trkpt lat="43.67996" lon="4.08765">
        <ele>78.261121854266</ele>
        <time>2020-11-25T15:29:18.999+01:00</time>
      </trkpt>
      <trkpt lat="43.67995" lon="4.08765">
        <ele>78.251249235489</ele>
        <time>2020-11-25T15:29:19.999+01:00</time>
      </trkpt>
      <trkpt lat="43.67994" lon="4.08765">
        <ele>78.241618155788</ele>
        <time>2020-11-25T15:29:20.999+01:00</time>
      </trkpt>
      <trkpt lat="43.67993" lon="4.08766">
        <ele>78.23221209882</ele>
        <time>2020-11-25T15:29:21.999+01:00</time>
      </trkpt>
      <trkpt lat="43.67991" lon="4.08766">
        <ele>78.223097698169</ele>
        <time>2020-11-25T15:29:22.999+01:00</time>
      </trkpt>
      <trkpt lat="43.6799" lon="4.08767">
        <ele>78.214341115277</ele>
        <time>2020-11-25T15:29:23.999+01:00</time>
      </trkpt>
      <trkpt lat="43.67989" lon="4.08767">
        <ele>78.205805296857</ele>
        <time>2020-11-25T15:29:24.999+01:00</time>
      </trkpt>
      <trkpt lat="43.67988" lon="4.08768">
        <ele>78.197519006695</ele>
        <time>2020-11-25T15:29:25.999+01:00</time>
      </trkpt>
      <trkpt lat="43.67987" lon="4.08768">
        <ele>78.189425666829</ele>
        <time>2020-11-25T15:29:26.999+01:00</time>
      </trkpt>
      <trkpt lat="43.67986" lon="4.08768">
        <ele>78.181518989687</ele>
        <time>2020-11-25T15:29:27.999+01:00</time>
      </trkpt>
      <trkpt lat="43.67985" lon="4.08768">
        <ele>78.173801071083</ele>
        <time>2020-11-25T15:29:28.999+01:00</time>
      </trkpt>
      <trkpt lat="43.67985" lon="4.08769">
        <ele>78.166216961756</ele>
        <time>2020-11-25T15:29:29.999+01:00</time>
      </trkpt>
      <trkpt lat="43.67983" lon="4.08769">
        <ele>78.158686753379</ele>
        <time>2020-11-25T15:29:30.999+01:00</time>
      </trkpt>
      <trkpt lat="43.67982" lon="4.08769">
        <ele>78.151200603456</ele>
        <time>2020-11-25T15:29:31.999+01:00</time>
      </trkpt>
      <trkpt lat="43.67981" lon="4.08769">
        <ele>78.143758674946</ele>
        <time>2020-11-25T15:29:32.999+01:00</time>
      </trkpt>
      <trkpt lat="43.6798" lon="4.08769">
        <ele>78.136189291581</ele>
        <time>2020-11-25T15:29:33.999+01:00</time>
      </trkpt>
      <trkpt lat="43.67979" lon="4.08768">
        <ele>78.128555393479</ele>
        <time>2020-11-25T15:29:34.999+01:00</time>
      </trkpt>
      <trkpt lat="43.67978" lon="4.08768">
        <ele>78.120928511869</ele>
        <time>2020-11-25T15:29:35.999+01:00</time>
      </trkpt>
      <trkpt lat="43.67977" lon="4.08768">
        <ele>78.113303213615</ele>
        <time>2020-11-25T15:29:36.999+01:00</time>
      </trkpt>
      <trkpt lat="43.67976" lon="4.08768">
        <ele>78.105634939501</ele>
        <time>2020-11-25T15:29:37.999+01:00</time>
      </trkpt>
      <trkpt lat="43.67975" lon="4.08768">
        <ele>78.09788015541</ele>
        <time>2020-11-25T15:29:38.999+01:00</time>
      </trkpt>
      <trkpt lat="43.67974" lon="4.08767">
        <ele>78.090026154696</ele>
        <time>2020-11-25T15:29:39.999+01:00</time>
      </trkpt>
      <trkpt lat="43.67973" lon="4.08767">
        <ele>78.08214530782</ele>
        <time>2020-11-25T15:29:40.999+01:00</time>
      </trkpt>
      <trkpt lat="43.67971" lon="4.08767">
        <ele>78.074252820553</ele>
        <time>2020-11-25T15:29:41.999+01:00</time>
      </trkpt>
      <trkpt lat="43.6797" lon="4.08767">
        <ele>78.066364003042</ele>
        <time>2020-11-25T15:29:42.999+01:00</time>
      </trkpt>
      <trkpt lat="43.67969" lon="4.08766">
        <ele>78.058462462662</ele>
        <time>2020-11-25T15:29:43.999+01:00</time>
      </trkpt>
      <trkpt lat="43.67968" lon="4.08766">
        <ele>78.050804388273</ele>
        <time>2020-11-25T15:29:44.999+01:00</time>
      </trkpt>
      <trkpt lat="43.67967" lon="4.08766">
        <ele>78.043243409496</ele>
        <time>2020-11-25T15:29:45.999+01:00</time>
      </trkpt>
      <trkpt lat="43.67966" lon="4.08766">
        <ele>78.035743791293</ele>
        <time>2020-11-25T15:29:46.999+01:00</time>
      </trkpt>
      <trkpt lat="43.67965" lon="4.08766">
        <ele>78.028411385988</ele>
        <time>2020-11-25T15:29:47.999+01:00</time>
      </trkpt>
      <trkpt lat="43.67964" lon="4.08766">
        <ele>78.021253771514</ele>
        <time>2020-11-25T15:29:48.999+01:00</time>
      </trkpt>
      <trkpt lat="43.67962" lon="4.08766">
        <ele>78.014211511429</ele>
        <time>2020-11-25T15:29:49.999+01:00</time>
      </trkpt>
      <trkpt lat="43.67961" lon="4.08766">
        <ele>78.007381678416</ele>
        <time>2020-11-25T15:29:50.999+01:00</time>
      </trkpt>
      <trkpt lat="43.6796" lon="4.08766">
        <ele>78.000781746869</ele>
        <time>2020-11-25T15:29:51.999+01:00</time>
      </trkpt>
      <trkpt lat="43.67959" lon="4.08765">
        <ele>77.994454502656</ele>
        <time>2020-11-25T15:29:52.999+01:00</time>
      </trkpt>
      <trkpt lat="43.67958" lon="4.08765">
        <ele>77.988284869712</ele>
        <time>2020-11-25T15:29:53.999+01:00</time>
      </trkpt>
      <trkpt lat="43.67957" lon="4.08765">
        <ele>77.982360173907</ele>
        <time>2020-11-25T15:29:54.999+01:00</time>
      </trkpt>
      <trkpt lat="43.67956" lon="4.08765">
        <ele>77.976611514889</ele>
        <time>2020-11-25T15:29:55.999+01:00</time>
      </trkpt>
      <trkpt lat="43.67955" lon="4.08764">
        <ele>77.970973296836</ele>
        <time>2020-11-25T15:29:56.999+01:00</time>
      </trkpt>
      <trkpt lat="43.67954" lon="4.08764">
        <ele>77.965420866215</ele>
        <time>2020-11-25T15:29:57.999+01:00</time>
      </trkpt>
      <trkpt lat="43.67953" lon="4.08763">
        <ele>77.959942407347</ele>
        <time>2020-11-25T15:29:58.999+01:00</time>
      </trkpt>
      <trkpt lat="43.67953" lon="4.08763">
        <ele>77.954499858457</ele>
        <time>2020-11-25T15:29:59.999+01:00</time>
      </trkpt>
      <trkpt lat="43.67953" lon="4.08763">
        <ele>77.949074001805</ele>
        <time>2020-11-25T15:30:00.999+01:00</time>
      </trkpt>
      <trkpt lat="43.67952" lon="4.08763">
        <ele>77.943756205235</ele>
        <time>2020-11-25T15:30:01.999+01:00</time>
      </trkpt>
      <trkpt lat="43.67951" lon="4.08762">
        <ele>77.938286863701</ele>
        <time>2020-11-25T15:30:02.999+01:00</time>
      </trkpt>
      <trkpt lat="43.67949" lon="4.08762">
        <ele>77.932757276793</ele>
        <time>2020-11-25T15:30:03.999+01:00</time>
      </trkpt>
      <trkpt lat="43.67948" lon="4.08762">
        <ele>77.927254904248</ele>
        <time>2020-11-25T15:30:04.999+01:00</time>
      </trkpt>
      <trkpt lat="43.67947" lon="4.08762">
        <ele>77.921882639742</ele>
        <time>2020-11-25T15:30:05.999+01:00</time>
      </trkpt>
      <trkpt lat="43.67946" lon="4.08762">
        <ele>77.916633761861</ele>
        <time>2020-11-25T15:30:06.999+01:00</time>
      </trkpt>
      <trkpt lat="43.67945" lon="4.08761">
        <ele>77.911431759242</ele>
        <time>2020-11-25T15:30:07.999+01:00</time>
      </trkpt>
      <trkpt lat="43.67943" lon="4.08761">
        <ele>77.906313451578</ele>
        <time>2020-11-25T15:30:08.999+01:00</time>
      </trkpt>
      <trkpt lat="43.67942" lon="4.08761">
        <ele>77.90104002829</ele>
        <time>2020-11-25T15:30:09.999+01:00</time>
      </trkpt>
      <trkpt lat="43.67942" lon="4.0876">
        <ele>77.895622997386</ele>
        <time>2020-11-25T15:30:10.999+01:00</time>
      </trkpt>
      <trkpt lat="43.67941" lon="4.08759">
        <ele>77.890144204142</ele>
        <time>2020-11-25T15:30:11.999+01:00</time>
      </trkpt>
      <trkpt lat="43.6794" lon="4.08758">
        <ele>77.884599364238</ele>
        <time>2020-11-25T15:30:12.999+01:00</time>
      </trkpt>
      <trkpt lat="43.67939" lon="4.08757">
        <ele>77.879077301456</ele>
        <time>2020-11-25T15:30:13.999+01:00</time>
      </trkpt>
      <trkpt lat="43.67938" lon="4.08756">
        <ele>77.873533525856</ele>
        <time>2020-11-25T15:30:14.999+01:00</time>
      </trkpt>
      <trkpt lat="43.67937" lon="4.08756">
        <ele>77.868015869274</ele>
        <time>2020-11-25T15:30:15.999+01:00</time>
      </trkpt>
      <trkpt lat="43.67936" lon="4.08756">
        <ele>77.862433815476</ele>
        <time>2020-11-25T15:30:16.999+01:00</time>
      </trkpt>
      <trkpt lat="43.67935" lon="4.08755">
        <ele>77.856733582008</ele>
        <time>2020-11-25T15:30:17.999+01:00</time>
      </trkpt>
      <trkpt lat="43.67934" lon="4.08755">
        <ele>77.850984573282</ele>
        <time>2020-11-25T15:30:18.999+01:00</time>
      </trkpt>
      <trkpt lat="43.67934" lon="4.08755">
        <ele>77.845200908586</ele>
        <time>2020-11-25T15:30:19.999+01:00</time>
      </trkpt>
      <trkpt lat="43.67932" lon="4.08754">
        <ele>77.839368027177</ele>
        <time>2020-11-25T15:30:20.999+01:00</time>
      </trkpt>
      <trkpt lat="43.67931" lon="4.08754">
        <ele>77.833454770408</ele>
        <time>2020-11-25T15:30:21.999+01:00</time>
      </trkpt>
      <trkpt lat="43.67931" lon="4.08755">
        <ele>77.827770578262</ele>
        <time>2020-11-25T15:30:22.999+01:00</time>
      </trkpt>
      <trkpt lat="43.67929" lon="4.08755">
        <ele>77.8223237726</ele>
        <time>2020-11-25T15:30:23.999+01:00</time>
      </trkpt>
      <trkpt lat="43.67928" lon="4.08756">
        <ele>77.817145913612</ele>
        <time>2020-11-25T15:30:24.999+01:00</time>
      </trkpt>
      <trkpt lat="43.67927" lon="4.08756">
        <ele>77.81220873709</ele>
        <time>2020-11-25T15:30:25.999+01:00</time>
      </trkpt>
      <trkpt lat="43.67926" lon="4.08756">
        <ele>77.807382351152</ele>
        <time>2020-11-25T15:30:26.999+01:00</time>
      </trkpt>
      <trkpt lat="43.67925" lon="4.08756">
        <ele>77.802687670913</ele>
        <time>2020-11-25T15:30:27.999+01:00</time>
      </trkpt>
      <trkpt lat="43.67923" lon="4.08755">
        <ele>77.798012890922</ele>
        <time>2020-11-25T15:30:28.999+01:00</time>
      </trkpt>
      <trkpt lat="43.67922" lon="4.08755">
        <ele>77.793479320096</ele>
        <time>2020-11-25T15:30:29.999+01:00</time>
      </trkpt>
      <trkpt lat="43.67921" lon="4.08755">
        <ele>77.789047602076</ele>
        <time>2020-11-25T15:30:30.999+01:00</time>
      </trkpt>
      <trkpt lat="43.67919" lon="4.08755">
        <ele>77.784690786123</ele>
        <time>2020-11-25T15:30:31.999+01:00</time>
      </trkpt>
      <trkpt lat="43.67918" lon="4.08754">
        <ele>77.780268951631</ele>
        <time>2020-11-25T15:30:32.999+01:00</time>
      </trkpt>
      <trkpt lat="43.67917" lon="4.08754">
        <ele>77.775825907108</ele>
        <time>2020-11-25T15:30:33.999+01:00</time>
      </trkpt>
      <trkpt lat="43.67916" lon="4.08753">
        <ele>77.771407187552</ele>
        <time>2020-11-25T15:30:34.999+01:00</time>
      </trkpt>
      <trkpt lat="43.67915" lon="4.08753">
        <ele>77.767040143677</ele>
        <time>2020-11-25T15:30:35.999+01:00</time>
      </trkpt>
      <trkpt lat="43.67914" lon="4.08752">
        <ele>77.762747732781</ele>
        <time>2020-11-25T15:30:36.999+01:00</time>
      </trkpt>
      <trkpt lat="43.67913" lon="4.08752">
        <ele>77.758385624995</ele>
        <time>2020-11-25T15:30:37.999+01:00</time>
      </trkpt>
      <trkpt lat="43.67912" lon="4.08751">
        <ele>77.753973512454</ele>
        <time>2020-11-25T15:30:38.999+01:00</time>
      </trkpt>
      <trkpt lat="43.67911" lon="4.0875">
        <ele>77.749651010889</ele>
        <time>2020-11-25T15:30:39.999+01:00</time>
      </trkpt>
      <trkpt lat="43.67911" lon="4.08749">
        <ele>77.745433099645</ele>
        <time>2020-11-25T15:30:40.999+01:00</time>
      </trkpt>
      <trkpt lat="43.6791" lon="4.08749">
        <ele>77.741262402569</ele>
        <time>2020-11-25T15:30:41.999+01:00</time>
      </trkpt>
      <trkpt lat="43.6791" lon="4.08748">
        <ele>77.737168734441</ele>
        <time>2020-11-25T15:30:42.999+01:00</time>
      </trkpt>
      <trkpt lat="43.67909" lon="4.08748">
        <ele>77.733096757115</ele>
        <time>2020-11-25T15:30:43.999+01:00</time>
      </trkpt>
      <trkpt lat="43.67908" lon="4.08748">
        <ele>77.729012168882</ele>
        <time>2020-11-25T15:30:44.999+01:00</time>
      </trkpt>
      <trkpt lat="43.67907" lon="4.08747">
        <ele>77.724963855735</ele>
        <time>2020-11-25T15:30:45.999+01:00</time>
      </trkpt>
      <trkpt lat="43.67906" lon="4.08747">
        <ele>77.720970834463</ele>
        <time>2020-11-25T15:30:46.999+01:00</time>
      </trkpt>
      <trkpt lat="43.67905" lon="4.08747">
        <ele>77.717045891391</ele>
        <time>2020-11-25T15:30:47.999+01:00</time>
      </trkpt>
      <trkpt lat="43.67904" lon="4.08747">
        <ele>77.713054660821</ele>
        <time>2020-11-25T15:30:48.999+01:00</time>
      </trkpt>
      <trkpt lat="43.67904" lon="4.08746">
        <ele>77.709070144089</ele>
        <time>2020-11-25T15:30:49.999+01:00</time>
      </trkpt>
      <trkpt lat="43.67903" lon="4.08745">
        <ele>77.705008157979</ele>
        <time>2020-11-25T15:30:50.999+01:00</time>
      </trkpt>
      <trkpt lat="43.67902" lon="4.08745">
        <ele>77.700950060544</ele>
        <time>2020-11-25T15:30:51.999+01:00</time>
      </trkpt>
      <trkpt lat="43.67901" lon="4.08744">
        <ele>77.696892292307</ele>
        <time>2020-11-25T15:30:52.999+01:00</time>
      </trkpt>
      <trkpt lat="43.67901" lon="4.08743">
        <ele>77.692894874144</ele>
        <time>2020-11-25T15:30:53.999+01:00</time>
      </trkpt>
      <trkpt lat="43.679" lon="4.08742">
        <ele>77.68867403326</ele>
        <time>2020-11-25T15:30:54.999+01:00</time>
      </trkpt>
      <trkpt lat="43.679" lon="4.0874">
        <ele>77.684108468268</ele>
        <time>2020-11-25T15:30:55.999+01:00</time>
      </trkpt>
      <trkpt lat="43.679" lon="4.08737">
        <ele>77.679108740985</ele>
        <time>2020-11-25T15:30:56.999+01:00</time>
      </trkpt>
      <trkpt lat="43.67901" lon="4.08734">
        <ele>77.673793229674</ele>
        <time>2020-11-25T15:30:57.999+01:00</time>
      </trkpt>
      <trkpt lat="43.67901" lon="4.08733">
        <ele>77.668269662892</ele>
        <time>2020-11-25T15:30:58.999+01:00</time>
      </trkpt>
      <trkpt lat="43.67901" lon="4.0873">
        <ele>77.662670914732</ele>
        <time>2020-11-25T15:30:59.999+01:00</time>
      </trkpt>
      <trkpt lat="43.67902" lon="4.08728">
        <ele>77.657022268833</ele>
        <time>2020-11-25T15:31:00.999+01:00</time>
      </trkpt>
      <trkpt lat="43.67903" lon="4.08726">
        <ele>77.651270728813</ele>
        <time>2020-11-25T15:31:01.999+01:00</time>
      </trkpt>
      <trkpt lat="43.67903" lon="4.08724">
        <ele>77.645382247714</ele>
        <time>2020-11-25T15:31:02.999+01:00</time>
      </trkpt>
      <trkpt lat="43.67903" lon="4.08723">
        <ele>77.63956779145</ele>
        <time>2020-11-25T15:31:03.999+01:00</time>
      </trkpt>
      <trkpt lat="43.67903" lon="4.08721">
        <ele>77.633828694311</ele>
        <time>2020-11-25T15:31:04.999+01:00</time>
      </trkpt>
      <trkpt lat="43.67903" lon="4.08719">
        <ele>77.628129124107</ele>
        <time>2020-11-25T15:31:05.999+01:00</time>
      </trkpt>
      <trkpt lat="43.67903" lon="4.08718">
        <ele>77.622482177723</ele>
        <time>2020-11-25T15:31:06.999+01:00</time>
      </trkpt>
      <trkpt lat="43.67904" lon="4.08717">
        <ele>77.61684400235</ele>
        <time>2020-11-25T15:31:07.999+01:00</time>
      </trkpt>
      <trkpt lat="43.67904" lon="4.08715">
        <ele>77.611257915931</ele>
        <time>2020-11-25T15:31:08.999+01:00</time>
      </trkpt>
      <trkpt lat="43.67904" lon="4.08714">
        <ele>77.605717553137</ele>
        <time>2020-11-25T15:31:09.999+01:00</time>
      </trkpt>
      <trkpt lat="43.67904" lon="4.08713">
        <ele>77.600204271777</ele>
        <time>2020-11-25T15:31:10.999+01:00</time>
      </trkpt>
      <trkpt lat="43.67905" lon="4.08711">
        <ele>77.594624178035</ele>
        <time>2020-11-25T15:31:11.999+01:00</time>
      </trkpt>
      <trkpt lat="43.67905" lon="4.0871">
        <ele>77.5891318588</ele>
        <time>2020-11-25T15:31:12.999+01:00</time>
      </trkpt>
      <trkpt lat="43.67905" lon="4.08709">
        <ele>77.583695700891</ele>
        <time>2020-11-25T15:31:13.999+01:00</time>
      </trkpt>
      <trkpt lat="43.67905" lon="4.08707">
        <ele>77.57838878005</ele>
        <time>2020-11-25T15:31:14.999+01:00</time>
      </trkpt>
      <trkpt lat="43.67906" lon="4.08706">
        <ele>77.573116418419</ele>
        <time>2020-11-25T15:31:15.999+01:00</time>
      </trkpt>
      <trkpt lat="43.67906" lon="4.08704">
        <ele>77.567969668903</ele>
        <time>2020-11-25T15:31:16.999+01:00</time>
      </trkpt>
      <trkpt lat="43.67906" lon="4.08702">
        <ele>77.56290264503</ele>
        <time>2020-11-25T15:31:17.999+01:00</time>
      </trkpt>
      <trkpt lat="43.67907" lon="4.08701">
        <ele>77.557834066366</ele>
        <time>2020-11-25T15:31:18.999+01:00</time>
      </trkpt>
      <trkpt lat="43.67907" lon="4.087">
        <ele>77.552920708707</ele>
        <time>2020-11-25T15:31:19.999+01:00</time>
      </trkpt>
      <trkpt lat="43.67907" lon="4.08698">
        <ele>77.548077627409</ele>
        <time>2020-11-25T15:31:20.999+01:00</time>
      </trkpt>
      <trkpt lat="43.67907" lon="4.08696">
        <ele>77.543255084512</ele>
        <time>2020-11-25T15:31:21.999+01:00</time>
      </trkpt>
      <trkpt lat="43.67907" lon="4.08695">
        <ele>77.538328537618</ele>
        <time>2020-11-25T15:31:22.999+01:00</time>
      </trkpt>
      <trkpt lat="43.67906" lon="4.08693">
        <ele>77.533452403436</ele>
        <time>2020-11-25T15:31:23.999+01:00</time>
      </trkpt>
      <trkpt lat="43.67906" lon="4.08692">
        <ele>77.528592238131</ele>
        <time>2020-11-25T15:31:24.999+01:00</time>
      </trkpt>
      <trkpt lat="43.67906" lon="4.08691">
        <ele>77.523762205881</ele>
        <time>2020-11-25T15:31:25.999+01:00</time>
      </trkpt>
      <trkpt lat="43.67906" lon="4.0869">
        <ele>77.518887636338</ele>
        <time>2020-11-25T15:31:26.999+01:00</time>
      </trkpt>
      <trkpt lat="43.67906" lon="4.08689">
        <ele>77.514045054547</ele>
        <time>2020-11-25T15:31:27.999+01:00</time>
      </trkpt>
      <trkpt lat="43.67906" lon="4.08689">
        <ele>77.509080494064</ele>
        <time>2020-11-25T15:31:28.999+01:00</time>
      </trkpt>
      <trkpt lat="43.67906" lon="4.08688">
        <ele>77.50860914033</ele>
        <time>2020-11-25T15:31:29.999+01:00</time>
      </trkpt>
      <trkpt lat="43.67906" lon="4.08688">
        <ele>77.508141491187</ele>
        <time>2020-11-25T15:31:30.999+01:00</time>
      </trkpt>
      <trkpt lat="43.67906" lon="4.08688">
        <ele>77.50768270489</ele>
        <time>2020-11-25T15:31:31.999+01:00</time>
      </trkpt>
      <trkpt lat="43.67906" lon="4.08688">
        <ele>77.507224685404</ele>
        <time>2020-11-25T15:31:32.999+01:00</time>
      </trkpt>
      <trkpt lat="43.67906" lon="4.08688">
        <ele>77.506753748195</ele>
        <time>2020-11-25T15:31:33.999+01:00</time>
      </trkpt>
      <trkpt lat="43.67906" lon="4.08688">
        <ele>77.506299308946</ele>
        <time>2020-11-25T15:31:34.999+01:00</time>
      </trkpt>
      <trkpt lat="43.67906" lon="4.08687">
        <ele>77.501646816315</ele>
        <time>2020-11-25T15:31:35.999+01:00</time>
      </trkpt>
      <trkpt lat="43.67906" lon="4.08687">
        <ele>77.497001336636</ele>
        <time>2020-11-25T15:31:36.999+01:00</time>
      </trkpt>
      <trkpt lat="43.67906" lon="4.08687">
        <ele>77.492218004793</ele>
        <time>2020-11-25T15:31:37.999+01:00</time>
      </trkpt>
      <trkpt lat="43.67906" lon="4.08687">
        <ele>77.487272909717</ele>
        <time>2020-11-25T15:31:38.999+01:00</time>
      </trkpt>
      <trkpt lat="43.67906" lon="4.08686">
        <ele>77.482050205348</ele>
        <time>2020-11-25T15:31:39.999+01:00</time>
      </trkpt>
      <trkpt lat="43.67905" lon="4.08684">
        <ele>77.476566696796</ele>
        <time>2020-11-25T15:31:40.999+01:00</time>
      </trkpt>
      <trkpt lat="43.67905" lon="4.08683">
        <ele>77.470892374463</ele>
        <time>2020-11-25T15:31:41.999+01:00</time>
      </trkpt>
      <trkpt lat="43.67905" lon="4.08682">
        <ele>77.465034240668</ele>
        <time>2020-11-25T15:31:42.999+01:00</time>
      </trkpt>
      <trkpt lat="43.67905" lon="4.0868">
        <ele>77.459156606503</ele>
        <time>2020-11-25T15:31:43.999+01:00</time>
      </trkpt>
      <trkpt lat="43.67905" lon="4.08678">
        <ele>77.453361313748</ele>
        <time>2020-11-25T15:31:44.999+01:00</time>
      </trkpt>
      <trkpt lat="43.67905" lon="4.08677">
        <ele>77.447680639155</ele>
        <time>2020-11-25T15:31:45.999+01:00</time>
      </trkpt>
      <trkpt lat="43.67905" lon="4.08676">
        <ele>77.442119365968</ele>
        <time>2020-11-25T15:31:46.999+01:00</time>
      </trkpt>
      <trkpt lat="43.67905" lon="4.08675">
        <ele>77.436545758274</ele>
        <time>2020-11-25T15:31:47.999+01:00</time>
      </trkpt>
      <trkpt lat="43.67905" lon="4.08674">
        <ele>77.431015543345</ele>
        <time>2020-11-25T15:31:48.999+01:00</time>
      </trkpt>
      <trkpt lat="43.67906" lon="4.08673">
        <ele>77.425582636225</ele>
        <time>2020-11-25T15:31:49.999+01:00</time>
      </trkpt>
      <trkpt lat="43.67906" lon="4.08672">
        <ele>77.420293683066</ele>
        <time>2020-11-25T15:31:50.999+01:00</time>
      </trkpt>
      <trkpt lat="43.67906" lon="4.0867">
        <ele>77.415201150398</ele>
        <time>2020-11-25T15:31:51.999+01:00</time>
      </trkpt>
      <trkpt lat="43.67906" lon="4.0867">
        <ele>77.410246005224</ele>
        <time>2020-11-25T15:31:52.999+01:00</time>
      </trkpt>
      <trkpt lat="43.67906" lon="4.08669">
        <ele>77.405467118895</ele>
        <time>2020-11-25T15:31:53.999+01:00</time>
      </trkpt>
      <trkpt lat="43.67907" lon="4.08667">
        <ele>77.400871429743</ele>
        <time>2020-11-25T15:31:54.999+01:00</time>
      </trkpt>
      <trkpt lat="43.67907" lon="4.08665">
        <ele>77.396409799733</ele>
        <time>2020-11-25T15:31:55.999+01:00</time>
      </trkpt>
      <trkpt lat="43.67907" lon="4.08664">
        <ele>77.392046492504</ele>
        <time>2020-11-25T15:31:56.999+01:00</time>
      </trkpt>
      <trkpt lat="43.67908" lon="4.08662">
        <ele>77.387719116543</ele>
        <time>2020-11-25T15:31:57.999+01:00</time>
      </trkpt>
      <trkpt lat="43.67908" lon="4.0866">
        <ele>77.383457307684</ele>
        <time>2020-11-25T15:31:58.999+01:00</time>
      </trkpt>
      <trkpt lat="43.67908" lon="4.08658">
        <ele>77.379329383819</ele>
        <time>2020-11-25T15:31:59.999+01:00</time>
      </trkpt>
      <trkpt lat="43.67908" lon="4.08656">
        <ele>77.375337449892</ele>
        <time>2020-11-25T15:32:00.999+01:00</time>
      </trkpt>
      <trkpt lat="43.67908" lon="4.08654">
        <ele>77.371402003309</ele>
        <time>2020-11-25T15:32:01.999+01:00</time>
      </trkpt>
      <trkpt lat="43.67907" lon="4.08653">
        <ele>77.367553697061</ele>
        <time>2020-11-25T15:32:02.999+01:00</time>
      </trkpt>
      <trkpt lat="43.67907" lon="4.08651">
        <ele>77.363763646122</ele>
        <time>2020-11-25T15:32:03.999+01:00</time>
      </trkpt>
      <trkpt lat="43.67907" lon="4.0865">
        <ele>77.360113424483</ele>
        <time>2020-11-25T15:32:04.999+01:00</time>
      </trkpt>
      <trkpt lat="43.67907" lon="4.08648">
        <ele>77.356407033715</ele>
        <time>2020-11-25T15:32:05.999+01:00</time>
      </trkpt>
      <trkpt lat="43.67907" lon="4.08646">
        <ele>77.352702463224</ele>
        <time>2020-11-25T15:32:06.999+01:00</time>
      </trkpt>
      <trkpt lat="43.67907" lon="4.08645">
        <ele>77.348937589485</ele>
        <time>2020-11-25T15:32:07.999+01:00</time>
      </trkpt>
      <trkpt lat="43.67907" lon="4.08643">
        <ele>77.345227438345</ele>
        <time>2020-11-25T15:32:08.999+01:00</time>
      </trkpt>
      <trkpt lat="43.67907" lon="4.08642">
        <ele>77.341549373792</ele>
        <time>2020-11-25T15:32:09.999+01:00</time>
      </trkpt>
      <trkpt lat="43.67907" lon="4.0864">
        <ele>77.338007741194</ele>
        <time>2020-11-25T15:32:10.999+01:00</time>
      </trkpt>
      <trkpt lat="43.67908" lon="4.08638">
        <ele>77.334722967974</ele>
        <time>2020-11-25T15:32:11.999+01:00</time>
      </trkpt>
      <trkpt lat="43.67908" lon="4.08636">
        <ele>77.331586958634</ele>
        <time>2020-11-25T15:32:12.999+01:00</time>
      </trkpt>
      <trkpt lat="43.67908" lon="4.08635">
        <ele>77.328550472861</ele>
        <time>2020-11-25T15:32:13.999+01:00</time>
      </trkpt>
      <trkpt lat="43.67909" lon="4.08634">
        <ele>77.325736871863</ele>
        <time>2020-11-25T15:32:14.999+01:00</time>
      </trkpt>
      <trkpt lat="43.67909" lon="4.08633">
        <ele>77.323025705418</ele>
        <time>2020-11-25T15:32:15.999+01:00</time>
      </trkpt>
      <trkpt lat="43.67909" lon="4.08632">
        <ele>77.320365294021</ele>
        <time>2020-11-25T15:32:16.999+01:00</time>
      </trkpt>
      <trkpt lat="43.67909" lon="4.08631">
        <ele>77.317694572663</ele>
        <time>2020-11-25T15:32:17.999+01:00</time>
      </trkpt>
      <trkpt lat="43.6791" lon="4.0863">
        <ele>77.315002701852</ele>
        <time>2020-11-25T15:32:18.999+01:00</time>
      </trkpt>
      <trkpt lat="43.6791" lon="4.08628">
        <ele>77.312315114102</ele>
        <time>2020-11-25T15:32:19.999+01:00</time>
      </trkpt>
      <trkpt lat="43.6791" lon="4.08627">
        <ele>77.309746228146</ele>
        <time>2020-11-25T15:32:20.999+01:00</time>
      </trkpt>
      <trkpt lat="43.6791" lon="4.08625">
        <ele>77.307245085433</ele>
        <time>2020-11-25T15:32:21.999+01:00</time>
      </trkpt>
      <trkpt lat="43.67909" lon="4.08624">
        <ele>77.304939411671</ele>
        <time>2020-11-25T15:32:22.999+01:00</time>
      </trkpt>
      <trkpt lat="43.67908" lon="4.08623">
        <ele>77.30271792476</ele>
        <time>2020-11-25T15:32:23.999+01:00</time>
      </trkpt>
      <trkpt lat="43.67908" lon="4.08622">
        <ele>77.300586798134</ele>
        <time>2020-11-25T15:32:24.999+01:00</time>
      </trkpt>
      <trkpt lat="43.67907" lon="4.08621">
        <ele>77.298602831005</ele>
        <time>2020-11-25T15:32:25.999+01:00</time>
      </trkpt>
      <trkpt lat="43.67906" lon="4.0862">
        <ele>77.296775122932</ele>
        <time>2020-11-25T15:32:26.999+01:00</time>
      </trkpt>
      <trkpt lat="43.67905" lon="4.08618">
        <ele>77.294955757886</ele>
        <time>2020-11-25T15:32:27.999+01:00</time>
      </trkpt>
      <trkpt lat="43.67904" lon="4.08617">
        <ele>77.293198958041</ele>
        <time>2020-11-25T15:32:28.999+01:00</time>
      </trkpt>
      <trkpt lat="43.67903" lon="4.08617">
        <ele>77.291217226497</ele>
        <time>2020-11-25T15:32:29.999+01:00</time>
      </trkpt>
      <trkpt lat="43.67902" lon="4.08615">
        <ele>77.289252362421</ele>
        <time>2020-11-25T15:32:30.999+01:00</time>
      </trkpt>
      <trkpt lat="43.67902" lon="4.08614">
        <ele>77.28718336736</ele>
        <time>2020-11-25T15:32:31.999+01:00</time>
      </trkpt>
      <trkpt lat="43.67901" lon="4.08613">
        <ele>77.285064469127</ele>
        <time>2020-11-25T15:32:32.999+01:00</time>
      </trkpt>
      <trkpt lat="43.67901" lon="4.08613">
        <ele>77.283025929734</ele>
        <time>2020-11-25T15:32:33.999+01:00</time>
      </trkpt>
      <trkpt lat="43.679" lon="4.08612">
        <ele>77.281052710776</ele>
        <time>2020-11-25T15:32:34.999+01:00</time>
      </trkpt>
      <trkpt lat="43.679" lon="4.08612">
        <ele>77.279211320625</ele>
        <time>2020-11-25T15:32:35.999+01:00</time>
      </trkpt>
      <trkpt lat="43.67899" lon="4.08611">
        <ele>77.277521760061</ele>
        <time>2020-11-25T15:32:36.999+01:00</time>
      </trkpt>
      <trkpt lat="43.67898" lon="4.0861">
        <ele>77.27591216937</ele>
        <time>2020-11-25T15:32:37.999+01:00</time>
      </trkpt>
      <trkpt lat="43.67898" lon="4.08609">
        <ele>77.274308938005</ele>
        <time>2020-11-25T15:32:38.999+01:00</time>
      </trkpt>
      <trkpt lat="43.67898" lon="4.08609">
        <ele>77.272710055784</ele>
        <time>2020-11-25T15:32:39.999+01:00</time>
      </trkpt>
      <trkpt lat="43.67897" lon="4.08608">
        <ele>77.270930948411</ele>
        <time>2020-11-25T15:32:40.999+01:00</time>
      </trkpt>
      <trkpt lat="43.67897" lon="4.08607">
        <ele>77.269184813823</ele>
        <time>2020-11-25T15:32:41.999+01:00</time>
      </trkpt>
      <trkpt lat="43.67896" lon="4.08606">
        <ele>77.267463500258</ele>
        <time>2020-11-25T15:32:42.999+01:00</time>
      </trkpt>
      <trkpt lat="43.67895" lon="4.08606">
        <ele>77.265640086392</ele>
        <time>2020-11-25T15:32:43.999+01:00</time>
      </trkpt>
      <trkpt lat="43.67895" lon="4.08605">
        <ele>77.263826278857</ele>
        <time>2020-11-25T15:32:44.999+01:00</time>
      </trkpt>
      <trkpt lat="43.67894" lon="4.08605">
        <ele>77.261925616797</ele>
        <time>2020-11-25T15:32:45.999+01:00</time>
      </trkpt>
      <trkpt lat="43.67893" lon="4.08605">
        <ele>77.259664891383</ele>
        <time>2020-11-25T15:32:46.999+01:00</time>
      </trkpt>
      <trkpt lat="43.67891" lon="4.08604">
        <ele>77.25720699075</ele>
        <time>2020-11-25T15:32:47.999+01:00</time>
      </trkpt>
      <trkpt lat="43.6789" lon="4.08604">
        <ele>77.254397072446</ele>
        <time>2020-11-25T15:32:48.999+01:00</time>
      </trkpt>
      <trkpt lat="43.67889" lon="4.08604">
        <ele>77.25129144347</ele>
        <time>2020-11-25T15:32:49.999+01:00</time>
      </trkpt>
      <trkpt lat="43.67888" lon="4.08604">
        <ele>77.247789658315</ele>
        <time>2020-11-25T15:32:50.999+01:00</time>
      </trkpt>
      <trkpt lat="43.67888" lon="4.08603">
        <ele>77.244103101482</ele>
        <time>2020-11-25T15:32:51.999+01:00</time>
      </trkpt>
      <trkpt lat="43.67887" lon="4.08602">
        <ele>77.240336632117</ele>
        <time>2020-11-25T15:32:52.999+01:00</time>
      </trkpt>
      <trkpt lat="43.67886" lon="4.08602">
        <ele>77.236509342189</ele>
        <time>2020-11-25T15:32:53.999+01:00</time>
      </trkpt>
      <trkpt lat="43.67885" lon="4.08602">
        <ele>77.232563019514</ele>
        <time>2020-11-25T15:32:54.999+01:00</time>
      </trkpt>
      <trkpt lat="43.67884" lon="4.08601">
        <ele>77.22873528843</ele>
        <time>2020-11-25T15:32:55.999+01:00</time>
      </trkpt>
      <trkpt lat="43.67883" lon="4.08601">
        <ele>77.224708796514</ele>
        <time>2020-11-25T15:32:56.999+01:00</time>
      </trkpt>
      <trkpt lat="43.67882" lon="4.08601">
        <ele>77.220777821113</ele>
        <time>2020-11-25T15:32:57.999+01:00</time>
      </trkpt>
      <trkpt lat="43.67881" lon="4.08601">
        <ele>77.216729323062</ele>
        <time>2020-11-25T15:32:58.999+01:00</time>
      </trkpt>
      <trkpt lat="43.6788" lon="4.08601">
        <ele>77.212339284671</ele>
        <time>2020-11-25T15:32:59.999+01:00</time>
      </trkpt>
      <trkpt lat="43.6788" lon="4.086">
        <ele>77.207982161213</ele>
        <time>2020-11-25T15:33:00.999+01:00</time>
      </trkpt>
      <trkpt lat="43.67879" lon="4.08599">
        <ele>77.203609735889</ele>
        <time>2020-11-25T15:33:01.999+01:00</time>
      </trkpt>
      <trkpt lat="43.67879" lon="4.08597">
        <ele>77.199363439906</ele>
        <time>2020-11-25T15:33:02.999+01:00</time>
      </trkpt>
      <trkpt lat="43.67878" lon="4.08597">
        <ele>77.195202878674</ele>
        <time>2020-11-25T15:33:03.999+01:00</time>
      </trkpt>
      <trkpt lat="43.67877" lon="4.08596">
        <ele>77.191185927084</ele>
        <time>2020-11-25T15:33:04.999+01:00</time>
      </trkpt>
      <trkpt lat="43.67875" lon="4.08595">
        <ele>77.187279733679</ele>
        <time>2020-11-25T15:33:05.999+01:00</time>
      </trkpt>
      <trkpt lat="43.67874" lon="4.08594">
        <ele>77.183539279815</ele>
        <time>2020-11-25T15:33:06.999+01:00</time>
      </trkpt>
      <trkpt lat="43.67873" lon="4.08594">
        <ele>77.179870977008</ele>
        <time>2020-11-25T15:33:07.999+01:00</time>
      </trkpt>
      <trkpt lat="43.67872" lon="4.08594">
        <ele>77.176200835911</ele>
        <time>2020-11-25T15:33:08.999+01:00</time>
      </trkpt>
      <trkpt lat="43.67871" lon="4.08593">
        <ele>77.172590258595</ele>
        <time>2020-11-25T15:33:09.999+01:00</time>
      </trkpt>
      <trkpt lat="43.6787" lon="4.08593">
        <ele>77.168724172118</ele>
        <time>2020-11-25T15:33:10.999+01:00</time>
      </trkpt>
      <trkpt lat="43.67869" lon="4.08592">
        <ele>77.164382335413</ele>
        <time>2020-11-25T15:33:11.999+01:00</time>
      </trkpt>
      <trkpt lat="43.67868" lon="4.08591">
        <ele>77.160116048282</ele>
        <time>2020-11-25T15:33:12.999+01:00</time>
      </trkpt>
      <trkpt lat="43.67867" lon="4.0859">
        <ele>77.155666898954</ele>
        <time>2020-11-25T15:33:13.999+01:00</time>
      </trkpt>
      <trkpt lat="43.67866" lon="4.08589">
        <ele>77.151216378171</ele>
        <time>2020-11-25T15:33:14.999+01:00</time>
      </trkpt>
      <trkpt lat="43.67865" lon="4.08589">
        <ele>77.146889078814</ele>
        <time>2020-11-25T15:33:15.999+01:00</time>
      </trkpt>
      <trkpt lat="43.67864" lon="4.08589">
        <ele>77.142603791504</ele>
        <time>2020-11-25T15:33:16.999+01:00</time>
      </trkpt>
      <trkpt lat="43.67864" lon="4.08588">
        <ele>77.138375885785</ele>
        <time>2020-11-25T15:33:17.999+01:00</time>
      </trkpt>
      <trkpt lat="43.67863" lon="4.08587">
        <ele>77.134010962627</ele>
        <time>2020-11-25T15:33:18.999+01:00</time>
      </trkpt>
      <trkpt lat="43.67861" lon="4.08587">
        <ele>77.129671300882</ele>
        <time>2020-11-25T15:33:19.999+01:00</time>
      </trkpt>
      <trkpt lat="43.6786" lon="4.08587">
        <ele>77.125411304205</ele>
        <time>2020-11-25T15:33:20.999+01:00</time>
      </trkpt>
      <trkpt lat="43.67859" lon="4.08586">
        <ele>77.121136535237</ele>
        <time>2020-11-25T15:33:21.999+01:00</time>
      </trkpt>
      <trkpt lat="43.67858" lon="4.08586">
        <ele>77.116748597728</ele>
        <time>2020-11-25T15:33:22.999+01:00</time>
      </trkpt>
      <trkpt lat="43.67857" lon="4.08585">
        <ele>77.112211908588</ele>
        <time>2020-11-25T15:33:23.999+01:00</time>
      </trkpt>
      <trkpt lat="43.67856" lon="4.08585">
        <ele>77.107605517111</ele>
        <time>2020-11-25T15:33:24.999+01:00</time>
      </trkpt>
      <trkpt lat="43.67855" lon="4.08584">
        <ele>77.10301155792</ele>
        <time>2020-11-25T15:33:25.999+01:00</time>
      </trkpt>
      <trkpt lat="43.67854" lon="4.08583">
        <ele>77.098397171109</ele>
        <time>2020-11-25T15:33:26.999+01:00</time>
      </trkpt>
      <trkpt lat="43.67854" lon="4.08582">
        <ele>77.093904170857</ele>
        <time>2020-11-25T15:33:27.999+01:00</time>
      </trkpt>
      <trkpt lat="43.67853" lon="4.08582">
        <ele>77.089456793582</ele>
        <time>2020-11-25T15:33:28.999+01:00</time>
      </trkpt>
      <trkpt lat="43.67852" lon="4.08581">
        <ele>77.085031994971</ele>
        <time>2020-11-25T15:33:29.999+01:00</time>
      </trkpt>
      <trkpt lat="43.67851" lon="4.08581">
        <ele>77.080635567974</ele>
        <time>2020-11-25T15:33:30.999+01:00</time>
      </trkpt>
      <trkpt lat="43.6785" lon="4.08581">
        <ele>77.07626833232</ele>
        <time>2020-11-25T15:33:31.999+01:00</time>
      </trkpt>
      <trkpt lat="43.67849" lon="4.0858">
        <ele>77.072031465461</ele>
        <time>2020-11-25T15:33:32.999+01:00</time>
      </trkpt>
      <trkpt lat="43.67848" lon="4.0858">
        <ele>77.067616200034</ele>
        <time>2020-11-25T15:33:33.999+01:00</time>
      </trkpt>
      <trkpt lat="43.67847" lon="4.0858">
        <ele>77.063183180371</ele>
        <time>2020-11-25T15:33:34.999+01:00</time>
      </trkpt>
      <trkpt lat="43.67846" lon="4.0858">
        <ele>77.058706776308</ele>
        <time>2020-11-25T15:33:35.999+01:00</time>
      </trkpt>
      <trkpt lat="43.67845" lon="4.08579">
        <ele>77.054278344344</ele>
        <time>2020-11-25T15:33:36.999+01:00</time>
      </trkpt>
      <trkpt lat="43.67844" lon="4.08579">
        <ele>77.049839515576</ele>
        <time>2020-11-25T15:33:37.999+01:00</time>
      </trkpt>
      <trkpt lat="43.67843" lon="4.08579">
        <ele>77.045385619324</ele>
        <time>2020-11-25T15:33:38.999+01:00</time>
      </trkpt>
      <trkpt lat="43.67842" lon="4.08578">
        <ele>77.040915697864</ele>
        <time>2020-11-25T15:33:39.999+01:00</time>
      </trkpt>
      <trkpt lat="43.67841" lon="4.08577">
        <ele>77.036591910362</ele>
        <time>2020-11-25T15:33:40.999+01:00</time>
      </trkpt>
      <trkpt lat="43.6784" lon="4.08576">
        <ele>77.032317092317</ele>
        <time>2020-11-25T15:33:41.999+01:00</time>
      </trkpt>
      <trkpt lat="43.67839" lon="4.08575">
        <ele>77.028109812237</ele>
        <time>2020-11-25T15:33:42.999+01:00</time>
      </trkpt>
      <trkpt lat="43.67839" lon="4.08574">
        <ele>77.023969531938</ele>
        <time>2020-11-25T15:33:43.999+01:00</time>
      </trkpt>
      <trkpt lat="43.67838" lon="4.08573">
        <ele>77.019786138589</ele>
        <time>2020-11-25T15:33:44.999+01:00</time>
      </trkpt>
      <trkpt lat="43.67837" lon="4.08572">
        <ele>77.015559334959</ele>
        <time>2020-11-25T15:33:45.999+01:00</time>
      </trkpt>
      <trkpt lat="43.67837" lon="4.0857">
        <ele>77.01131842271</ele>
        <time>2020-11-25T15:33:46.999+01:00</time>
      </trkpt>
      <trkpt lat="43.67836" lon="4.08569">
        <ele>77.007150486648</ele>
        <time>2020-11-25T15:33:47.999+01:00</time>
      </trkpt>
      <trkpt lat="43.67836" lon="4.08568">
        <ele>77.002926870858</ele>
        <time>2020-11-25T15:33:48.999+01:00</time>
      </trkpt>
      <trkpt lat="43.67836" lon="4.08567">
        <ele>76.998619417887</ele>
        <time>2020-11-25T15:33:49.999+01:00</time>
      </trkpt>
      <trkpt lat="43.67835" lon="4.08567">
        <ele>76.994302138234</ele>
        <time>2020-11-25T15:33:50.999+01:00</time>
      </trkpt>
      <trkpt lat="43.67835" lon="4.08566">
        <ele>76.98999038404</ele>
        <time>2020-11-25T15:33:51.999+01:00</time>
      </trkpt>
      <trkpt lat="43.67834" lon="4.08565">
        <ele>76.985739093487</ele>
        <time>2020-11-25T15:33:52.999+01:00</time>
      </trkpt>
      <trkpt lat="43.67834" lon="4.08564">
        <ele>76.98137075228</ele>
        <time>2020-11-25T15:33:53.999+01:00</time>
      </trkpt>
      <trkpt lat="43.67834" lon="4.08563">
        <ele>76.976745256198</ele>
        <time>2020-11-25T15:33:54.999+01:00</time>
      </trkpt>
      <trkpt lat="43.67834" lon="4.08563">
        <ele>76.971854072374</ele>
        <time>2020-11-25T15:33:55.999+01:00</time>
      </trkpt>
      <trkpt lat="43.67833" lon="4.08563">
        <ele>76.971347230081</ele>
        <time>2020-11-25T15:33:56.999+01:00</time>
      </trkpt>
      <trkpt lat="43.67833" lon="4.08563">
        <ele>76.970812226418</ele>
        <time>2020-11-25T15:33:57.999+01:00</time>
      </trkpt>
      <trkpt lat="43.67833" lon="4.08563">
        <ele>76.965553263747</ele>
        <time>2020-11-25T15:33:58.999+01:00</time>
      </trkpt>
      <trkpt lat="43.67833" lon="4.08562">
        <ele>76.965045534841</ele>
        <time>2020-11-25T15:33:59.999+01:00</time>
      </trkpt>
      <trkpt lat="43.67833" lon="4.08562">
        <ele>76.964523546182</ele>
        <time>2020-11-25T15:34:00.999+01:00</time>
      </trkpt>
      <trkpt lat="43.67833" lon="4.08562">
        <ele>76.96400534408</ele>
        <time>2020-11-25T15:34:01.999+01:00</time>
      </trkpt>
      <trkpt lat="43.67833" lon="4.08562">
        <ele>76.963467939265</ele>
        <time>2020-11-25T15:34:02.999+01:00</time>
      </trkpt>
      <trkpt lat="43.67833" lon="4.08562">
        <ele>76.96290874699</ele>
        <time>2020-11-25T15:34:03.999+01:00</time>
      </trkpt>
      <trkpt lat="43.67833" lon="4.08562">
        <ele>76.962344464556</ele>
        <time>2020-11-25T15:34:04.999+01:00</time>
      </trkpt>
      <trkpt lat="43.67833" lon="4.08562">
        <ele>76.961768607249</ele>
        <time>2020-11-25T15:34:05.999+01:00</time>
      </trkpt>
      <trkpt lat="43.67833" lon="4.08562">
        <ele>76.961160927693</ele>
        <time>2020-11-25T15:34:06.999+01:00</time>
      </trkpt>
      <trkpt lat="43.67833" lon="4.08562">
        <ele>76.960526667114</ele>
        <time>2020-11-25T15:34:07.999+01:00</time>
      </trkpt>
      <trkpt lat="43.67833" lon="4.08562">
        <ele>76.959868371559</ele>
        <time>2020-11-25T15:34:08.999+01:00</time>
      </trkpt>
      <trkpt lat="43.67833" lon="4.08562">
        <ele>76.959206132179</ele>
        <time>2020-11-25T15:34:09.999+01:00</time>
      </trkpt>
      <trkpt lat="43.67833" lon="4.08562">
        <ele>76.958531240769</ele>
        <time>2020-11-25T15:34:10.999+01:00</time>
      </trkpt>
      <trkpt lat="43.67833" lon="4.08562">
        <ele>76.957834530333</ele>
        <time>2020-11-25T15:34:11.999+01:00</time>
      </trkpt>
      <trkpt lat="43.67833" lon="4.08562">
        <ele>76.957111330134</ele>
        <time>2020-11-25T15:34:12.999+01:00</time>
      </trkpt>
      <trkpt lat="43.67833" lon="4.08562">
        <ele>76.956362984995</ele>
        <time>2020-11-25T15:34:13.999+01:00</time>
      </trkpt>
      <trkpt lat="43.67833" lon="4.08562">
        <ele>76.955577558509</ele>
        <time>2020-11-25T15:34:14.999+01:00</time>
      </trkpt>
      <trkpt lat="43.67833" lon="4.08562">
        <ele>76.954756564254</ele>
        <time>2020-11-25T15:34:15.999+01:00</time>
      </trkpt>
      <trkpt lat="43.67833" lon="4.08562">
        <ele>76.953928668713</ele>
        <time>2020-11-25T15:34:16.999+01:00</time>
      </trkpt>
      <trkpt lat="43.67833" lon="4.08562">
        <ele>76.953055248558</ele>
        <time>2020-11-25T15:34:17.999+01:00</time>
      </trkpt>
      <trkpt lat="43.67833" lon="4.08562">
        <ele>76.952175634251</ele>
        <time>2020-11-25T15:34:18.999+01:00</time>
      </trkpt>
      <trkpt lat="43.67833" lon="4.08562">
        <ele>76.95128552795</ele>
        <time>2020-11-25T15:34:19.999+01:00</time>
      </trkpt>
      <trkpt lat="43.67833" lon="4.08562">
        <ele>76.950380679033</ele>
        <time>2020-11-25T15:34:20.999+01:00</time>
      </trkpt>
      <trkpt lat="43.67833" lon="4.08562">
        <ele>76.941180873429</ele>
        <time>2020-11-25T15:34:21.999+01:00</time>
      </trkpt>
      <trkpt lat="43.67833" lon="4.08562">
        <ele>76.940273444815</ele>
        <time>2020-11-25T15:34:22.999+01:00</time>
      </trkpt>
      <trkpt lat="43.67833" lon="4.08562">
        <ele>76.939363933545</ele>
        <time>2020-11-25T15:34:23.999+01:00</time>
      </trkpt>
      <trkpt lat="43.67833" lon="4.08562">
        <ele>76.938446330204</ele>
        <time>2020-11-25T15:34:24.999+01:00</time>
      </trkpt>
      <trkpt lat="43.67833" lon="4.08562">
        <ele>76.937507387994</ele>
        <time>2020-11-25T15:34:25.999+01:00</time>
      </trkpt>
      <trkpt lat="43.67833" lon="4.08562">
        <ele>76.936531271238</ele>
        <time>2020-11-25T15:34:26.999+01:00</time>
      </trkpt>
      <trkpt lat="43.67833" lon="4.08562">
        <ele>76.935525410664</ele>
        <time>2020-11-25T15:34:27.999+01:00</time>
      </trkpt>
      <trkpt lat="43.67833" lon="4.08562">
        <ele>76.934502886338</ele>
        <time>2020-11-25T15:34:28.999+01:00</time>
      </trkpt>
      <trkpt lat="43.67833" lon="4.08562">
        <ele>76.933483061545</ele>
        <time>2020-11-25T15:34:29.999+01:00</time>
      </trkpt>
      <trkpt lat="43.67833" lon="4.08562">
        <ele>76.9324658024</ele>
        <time>2020-11-25T15:34:30.999+01:00</time>
      </trkpt>
      <trkpt lat="43.67833" lon="4.08562">
        <ele>76.931435725693</ele>
        <time>2020-11-25T15:34:31.999+01:00</time>
      </trkpt>
      <trkpt lat="43.67833" lon="4.08562">
        <ele>76.930392763494</ele>
        <time>2020-11-25T15:34:32.999+01:00</time>
      </trkpt>
      <trkpt lat="43.67833" lon="4.08562">
        <ele>76.929342660725</ele>
        <time>2020-11-25T15:34:33.999+01:00</time>
      </trkpt>
      <trkpt lat="43.67833" lon="4.08562">
        <ele>76.928276140146</ele>
        <time>2020-11-25T15:34:34.999+01:00</time>
      </trkpt>
      <trkpt lat="43.67833" lon="4.08562">
        <ele>76.927199578265</ele>
        <time>2020-11-25T15:34:35.999+01:00</time>
      </trkpt>
      <trkpt lat="43.67833" lon="4.08562">
        <ele>76.926105063909</ele>
        <time>2020-11-25T15:34:36.999+01:00</time>
      </trkpt>
      <trkpt lat="43.67833" lon="4.08562">
        <ele>76.924988828589</ele>
        <time>2020-11-25T15:34:37.999+01:00</time>
      </trkpt>
      <trkpt lat="43.67833" lon="4.08562">
        <ele>76.923877694387</ele>
        <time>2020-11-25T15:34:38.999+01:00</time>
      </trkpt>
      <trkpt lat="43.67832" lon="4.08562">
        <ele>76.92275870209</ele>
        <time>2020-11-25T15:34:39.999+01:00</time>
      </trkpt>
      <trkpt lat="43.67832" lon="4.08561">
        <ele>76.921643831429</ele>
        <time>2020-11-25T15:34:40.999+01:00</time>
      </trkpt>
      <trkpt lat="43.67832" lon="4.08561">
        <ele>76.920534047967</ele>
        <time>2020-11-25T15:34:41.999+01:00</time>
      </trkpt>
      <trkpt lat="43.67832" lon="4.08562">
        <ele>76.919429588099</ele>
        <time>2020-11-25T15:34:42.999+01:00</time>
      </trkpt>
      <trkpt lat="43.67832" lon="4.08562">
        <ele>76.918285668177</ele>
        <time>2020-11-25T15:34:43.999+01:00</time>
      </trkpt>
      <trkpt lat="43.67832" lon="4.08562">
        <ele>76.91709792882</ele>
        <time>2020-11-25T15:34:44.999+01:00</time>
      </trkpt>
      <trkpt lat="43.67832" lon="4.08562">
        <ele>76.915899230185</ele>
        <time>2020-11-25T15:34:45.999+01:00</time>
      </trkpt>
      <trkpt lat="43.67832" lon="4.08562">
        <ele>76.914651988782</ele>
        <time>2020-11-25T15:34:46.999+01:00</time>
      </trkpt>
      <trkpt lat="43.67832" lon="4.08562">
        <ele>76.91339521335</ele>
        <time>2020-11-25T15:34:47.999+01:00</time>
      </trkpt>
      <trkpt lat="43.67832" lon="4.08562">
        <ele>76.912126154429</ele>
        <time>2020-11-25T15:34:48.999+01:00</time>
      </trkpt>
      <trkpt lat="43.67832" lon="4.08562">
        <ele>76.910845258277</ele>
        <time>2020-11-25T15:34:49.999+01:00</time>
      </trkpt>
      <trkpt lat="43.67832" lon="4.08562">
        <ele>76.909553100374</ele>
        <time>2020-11-25T15:34:50.999+01:00</time>
      </trkpt>
      <trkpt lat="43.67832" lon="4.08562">
        <ele>76.908246476848</ele>
        <time>2020-11-25T15:34:51.999+01:00</time>
      </trkpt>
      <trkpt lat="43.67832" lon="4.08563">
        <ele>76.895051279952</ele>
        <time>2020-11-25T15:34:52.999+01:00</time>
      </trkpt>
      <trkpt lat="43.67832" lon="4.08562">
        <ele>76.893759643693</ele>
        <time>2020-11-25T15:34:53.999+01:00</time>
      </trkpt>
      <trkpt lat="43.67832" lon="4.08562">
        <ele>76.892462679405</ele>
        <time>2020-11-25T15:34:54.999+01:00</time>
      </trkpt>
      <trkpt lat="43.67832" lon="4.08562">
        <ele>76.891169833</ele>
        <time>2020-11-25T15:34:55.999+01:00</time>
      </trkpt>
      <trkpt lat="43.67831" lon="4.08563">
        <ele>76.889862263641</ele>
        <time>2020-11-25T15:34:56.999+01:00</time>
      </trkpt>
      <trkpt lat="43.67831" lon="4.08564">
        <ele>76.876107703172</ele>
        <time>2020-11-25T15:34:57.999+01:00</time>
      </trkpt>
      <trkpt lat="43.67831" lon="4.08564">
        <ele>76.874757154243</ele>
        <time>2020-11-25T15:34:58.999+01:00</time>
      </trkpt>
      <trkpt lat="43.67831" lon="4.08564">
        <ele>76.873406012343</ele>
        <time>2020-11-25T15:34:59.999+01:00</time>
      </trkpt>
      <trkpt lat="43.67831" lon="4.08564">
        <ele>76.872036234391</ele>
        <time>2020-11-25T15:35:00.999+01:00</time>
      </trkpt>
      <trkpt lat="43.67831" lon="4.08564">
        <ele>76.870641130577</ele>
        <time>2020-11-25T15:35:01.999+01:00</time>
      </trkpt>
      <trkpt lat="43.67831" lon="4.08563">
        <ele>76.86923830487</ele>
        <time>2020-11-25T15:35:02.999+01:00</time>
      </trkpt>
      <trkpt lat="43.67831" lon="4.08563">
        <ele>76.867838004511</ele>
        <time>2020-11-25T15:35:03.999+01:00</time>
      </trkpt>
      <trkpt lat="43.67831" lon="4.08563">
        <ele>76.866443937792</ele>
        <time>2020-11-25T15:35:04.999+01:00</time>
      </trkpt>
      <trkpt lat="43.67831" lon="4.08563">
        <ele>76.865060224031</ele>
        <time>2020-11-25T15:35:05.999+01:00</time>
      </trkpt>
      <trkpt lat="43.67831" lon="4.08563">
        <ele>76.863665310079</ele>
        <time>2020-11-25T15:35:06.999+01:00</time>
      </trkpt>
      <trkpt lat="43.67831" lon="4.08563">
        <ele>76.862252197508</ele>
        <time>2020-11-25T15:35:07.999+01:00</time>
      </trkpt>
      <trkpt lat="43.67831" lon="4.08564">
        <ele>76.860817189216</ele>
        <time>2020-11-25T15:35:08.999+01:00</time>
      </trkpt>
      <trkpt lat="43.6783" lon="4.08564">
        <ele>76.846253947293</ele>
        <time>2020-11-25T15:35:09.999+01:00</time>
      </trkpt>
      <trkpt lat="43.6783" lon="4.08564">
        <ele>76.844797672002</ele>
        <time>2020-11-25T15:35:10.999+01:00</time>
      </trkpt>
      <trkpt lat="43.6783" lon="4.08564">
        <ele>76.843324676525</ele>
        <time>2020-11-25T15:35:11.999+01:00</time>
      </trkpt>
      <trkpt lat="43.6783" lon="4.08564">
        <ele>76.841843383247</ele>
        <time>2020-11-25T15:35:12.999+01:00</time>
      </trkpt>
      <trkpt lat="43.6783" lon="4.08564">
        <ele>76.84034122678</ele>
        <time>2020-11-25T15:35:13.999+01:00</time>
      </trkpt>
      <trkpt lat="43.6783" lon="4.08564">
        <ele>76.83881341508</ele>
        <time>2020-11-25T15:35:14.999+01:00</time>
      </trkpt>
      <trkpt lat="43.6783" lon="4.08563">
        <ele>76.823078578078</ele>
        <time>2020-11-25T15:35:15.999+01:00</time>
      </trkpt>
      <trkpt lat="43.6783" lon="4.08563">
        <ele>76.821486384662</ele>
        <time>2020-11-25T15:35:16.999+01:00</time>
      </trkpt>
      <trkpt lat="43.6783" lon="4.08563">
        <ele>76.819899851524</ele>
        <time>2020-11-25T15:35:17.999+01:00</time>
      </trkpt>
      <trkpt lat="43.6783" lon="4.08563">
        <ele>76.818287062103</ele>
        <time>2020-11-25T15:35:18.999+01:00</time>
      </trkpt>
      <trkpt lat="43.6783" lon="4.08563">
        <ele>76.816635435702</ele>
        <time>2020-11-25T15:35:19.999+01:00</time>
      </trkpt>
      <trkpt lat="43.6783" lon="4.08563">
        <ele>76.814950159599</ele>
        <time>2020-11-25T15:35:20.999+01:00</time>
      </trkpt>
      <trkpt lat="43.6783" lon="4.08563">
        <ele>76.813185004924</ele>
        <time>2020-11-25T15:35:21.999+01:00</time>
      </trkpt>
      <trkpt lat="43.6783" lon="4.08563">
        <ele>76.811347000296</ele>
        <time>2020-11-25T15:35:22.999+01:00</time>
      </trkpt>
      <trkpt lat="43.6783" lon="4.08563">
        <ele>76.809429909845</ele>
        <time>2020-11-25T15:35:23.999+01:00</time>
      </trkpt>
      <trkpt lat="43.6783" lon="4.08563">
        <ele>76.807427019177</ele>
        <time>2020-11-25T15:35:24.999+01:00</time>
      </trkpt>
      <trkpt lat="43.6783" lon="4.08563">
        <ele>76.805344232541</ele>
        <time>2020-11-25T15:35:25.999+01:00</time>
      </trkpt>
      <trkpt lat="43.6783" lon="4.08562">
        <ele>76.803181321899</ele>
        <time>2020-11-25T15:35:26.999+01:00</time>
      </trkpt>
      <trkpt lat="43.6783" lon="4.08562">
        <ele>76.800932968701</ele>
        <time>2020-11-25T15:35:27.999+01:00</time>
      </trkpt>
      <trkpt lat="43.6783" lon="4.08562">
        <ele>76.798619574956</ele>
        <time>2020-11-25T15:35:28.999+01:00</time>
      </trkpt>
      <trkpt lat="43.6783" lon="4.08562">
        <ele>76.796242357553</ele>
        <time>2020-11-25T15:35:29.999+01:00</time>
      </trkpt>
      <trkpt lat="43.6783" lon="4.08562">
        <ele>76.79379348875</ele>
        <time>2020-11-25T15:35:30.999+01:00</time>
      </trkpt>
      <trkpt lat="43.6783" lon="4.08562">
        <ele>76.791267605928</ele>
        <time>2020-11-25T15:35:31.999+01:00</time>
      </trkpt>
      <trkpt lat="43.6783" lon="4.08562">
        <ele>76.788679146809</ele>
        <time>2020-11-25T15:35:32.999+01:00</time>
      </trkpt>
      <trkpt lat="43.6783" lon="4.08562">
        <ele>76.786024496483</ele>
        <time>2020-11-25T15:35:33.999+01:00</time>
      </trkpt>
      <trkpt lat="43.6783" lon="4.08562">
        <ele>76.783306866348</ele>
        <time>2020-11-25T15:35:34.999+01:00</time>
      </trkpt>
      <trkpt lat="43.6783" lon="4.08562">
        <ele>76.780548060911</ele>
        <time>2020-11-25T15:35:35.999+01:00</time>
      </trkpt>
      <trkpt lat="43.6783" lon="4.08562">
        <ele>76.777752300513</ele>
        <time>2020-11-25T15:35:36.999+01:00</time>
      </trkpt>
      <trkpt lat="43.6783" lon="4.08562">
        <ele>76.774956012581</ele>
        <time>2020-11-25T15:35:37.999+01:00</time>
      </trkpt>
      <trkpt lat="43.6783" lon="4.08562">
        <ele>76.772154625942</ele>
        <time>2020-11-25T15:35:38.999+01:00</time>
      </trkpt>
      <trkpt lat="43.6783" lon="4.08562">
        <ele>76.769346495448</ele>
        <time>2020-11-25T15:35:39.999+01:00</time>
      </trkpt>
      <trkpt lat="43.6783" lon="4.08562">
        <ele>76.766530287318</ele>
        <time>2020-11-25T15:35:40.999+01:00</time>
      </trkpt>
      <trkpt lat="43.6783" lon="4.08562">
        <ele>76.763698459314</ele>
        <time>2020-11-25T15:35:41.999+01:00</time>
      </trkpt>
      <trkpt lat="43.6783" lon="4.08562">
        <ele>76.760836968742</ele>
        <time>2020-11-25T15:35:42.999+01:00</time>
      </trkpt>
      <trkpt lat="43.6783" lon="4.08563">
        <ele>76.757965742967</ele>
        <time>2020-11-25T15:35:43.999+01:00</time>
      </trkpt>
      <trkpt lat="43.6783" lon="4.08564">
        <ele>76.729312218567</ele>
        <time>2020-11-25T15:35:44.999+01:00</time>
      </trkpt>
      <trkpt lat="43.6783" lon="4.08566">
        <ele>76.701398547276</ele>
        <time>2020-11-25T15:35:45.999+01:00</time>
      </trkpt>
      <trkpt lat="43.6783" lon="4.08566">
        <ele>76.674119609039</ele>
        <time>2020-11-25T15:35:46.999+01:00</time>
      </trkpt>
      <trkpt lat="43.6783" lon="4.08565">
        <ele>76.647442303668</ele>
        <time>2020-11-25T15:35:47.999+01:00</time>
      </trkpt>
      <trkpt lat="43.6783" lon="4.08565">
        <ele>76.644822470421</ele>
        <time>2020-11-25T15:35:48.999+01:00</time>
      </trkpt>
      <trkpt lat="43.6783" lon="4.08564">
        <ele>76.642205349953</ele>
        <time>2020-11-25T15:35:49.999+01:00</time>
      </trkpt>
      <trkpt lat="43.6783" lon="4.08564">
        <ele>76.639587328364</ele>
        <time>2020-11-25T15:35:50.999+01:00</time>
      </trkpt>
      <trkpt lat="43.6783" lon="4.08565">
        <ele>76.636977166566</ele>
        <time>2020-11-25T15:35:51.999+01:00</time>
      </trkpt>
      <trkpt lat="43.6783" lon="4.08565">
        <ele>76.634390837307</ele>
        <time>2020-11-25T15:35:52.999+01:00</time>
      </trkpt>
      <trkpt lat="43.6783" lon="4.08566">
        <ele>76.63184777124</ele>
        <time>2020-11-25T15:35:53.999+01:00</time>
      </trkpt>
      <trkpt lat="43.6783" lon="4.08566">
        <ele>76.606763265073</ele>
        <time>2020-11-25T15:35:54.999+01:00</time>
      </trkpt>
      <trkpt lat="43.67829" lon="4.08566">
        <ele>76.582400845175</ele>
        <time>2020-11-25T15:35:55.999+01:00</time>
      </trkpt>
      <trkpt lat="43.67829" lon="4.08566">
        <ele>76.558763966891</ele>
        <time>2020-11-25T15:35:56.999+01:00</time>
      </trkpt>
      <trkpt lat="43.67829" lon="4.08566">
        <ele>76.556459342427</ele>
        <time>2020-11-25T15:35:57.999+01:00</time>
      </trkpt>
      <trkpt lat="43.67829" lon="4.08566">
        <ele>76.554157461938</ele>
        <time>2020-11-25T15:35:58.999+01:00</time>
      </trkpt>
      <trkpt lat="43.67829" lon="4.08566">
        <ele>76.531090473898</ele>
        <time>2020-11-25T15:35:59.999+01:00</time>
      </trkpt>
      <trkpt lat="43.67829" lon="4.08566">
        <ele>76.528845360104</ele>
        <time>2020-11-25T15:36:00.999+01:00</time>
      </trkpt>
      <trkpt lat="43.67829" lon="4.08565">
        <ele>76.526635174761</ele>
        <time>2020-11-25T15:36:01.999+01:00</time>
      </trkpt>
      <trkpt lat="43.67829" lon="4.08565">
        <ele>76.50485022051</ele>
        <time>2020-11-25T15:36:02.999+01:00</time>
      </trkpt>
      <trkpt lat="43.67829" lon="4.08565">
        <ele>76.502711293572</ele>
        <time>2020-11-25T15:36:03.999+01:00</time>
      </trkpt>
      <trkpt lat="43.67829" lon="4.08565">
        <ele>76.500559984736</ele>
        <time>2020-11-25T15:36:04.999+01:00</time>
      </trkpt>
      <trkpt lat="43.67829" lon="4.08565">
        <ele>76.47881755193</ele>
        <time>2020-11-25T15:36:05.999+01:00</time>
      </trkpt>
      <trkpt lat="43.67829" lon="4.08565">
        <ele>76.476662217316</ele>
        <time>2020-11-25T15:36:06.999+01:00</time>
      </trkpt>
      <trkpt lat="43.67829" lon="4.08565">
        <ele>76.474503844011</ele>
        <time>2020-11-25T15:36:07.999+01:00</time>
      </trkpt>
      <trkpt lat="43.67829" lon="4.08565">
        <ele>76.472373308305</ele>
        <time>2020-11-25T15:36:08.999+01:00</time>
      </trkpt>
      <trkpt lat="43.67829" lon="4.08565">
        <ele>76.451336472083</ele>
        <time>2020-11-25T15:36:09.999+01:00</time>
      </trkpt>
      <trkpt lat="43.67829" lon="4.08565">
        <ele>76.430828728047</ele>
        <time>2020-11-25T15:36:10.999+01:00</time>
      </trkpt>
      <trkpt lat="43.67829" lon="4.08565">
        <ele>76.410178478592</ele>
        <time>2020-11-25T15:36:11.999+01:00</time>
      </trkpt>
      <trkpt lat="43.67829" lon="4.08565">
        <ele>76.408107127871</ele>
        <time>2020-11-25T15:36:12.999+01:00</time>
      </trkpt>
      <trkpt lat="43.67829" lon="4.08565">
        <ele>76.406024877114</ele>
        <time>2020-11-25T15:36:13.999+01:00</time>
      </trkpt>
      <trkpt lat="43.67829" lon="4.08565">
        <ele>76.403919663502</ele>
        <time>2020-11-25T15:36:14.999+01:00</time>
      </trkpt>
      <trkpt lat="43.67829" lon="4.08565">
        <ele>76.382799835735</ele>
        <time>2020-11-25T15:36:15.999+01:00</time>
      </trkpt>
      <trkpt lat="43.6783" lon="4.08565">
        <ele>76.380714773943</ele>
        <time>2020-11-25T15:36:16.999+01:00</time>
      </trkpt>
      <trkpt lat="43.6783" lon="4.08565">
        <ele>76.378629250317</ele>
        <time>2020-11-25T15:36:17.999+01:00</time>
      </trkpt>
      <trkpt lat="43.6783" lon="4.08565">
        <ele>76.376553175087</ele>
        <time>2020-11-25T15:36:18.999+01:00</time>
      </trkpt>
      <trkpt lat="43.6783" lon="4.08565">
        <ele>76.37448799578</ele>
        <time>2020-11-25T15:36:19.999+01:00</time>
      </trkpt>
      <trkpt lat="43.6783" lon="4.08565">
        <ele>76.372431532897</ele>
        <time>2020-11-25T15:36:20.999+01:00</time>
      </trkpt>
      <trkpt lat="43.6783" lon="4.08565">
        <ele>76.370367006164</ele>
        <time>2020-11-25T15:36:21.999+01:00</time>
      </trkpt>
      <trkpt lat="43.6783" lon="4.08565">
        <ele>76.368289507884</ele>
        <time>2020-11-25T15:36:22.999+01:00</time>
      </trkpt>
      <trkpt lat="43.6783" lon="4.08565">
        <ele>76.366189726068</ele>
        <time>2020-11-25T15:36:23.999+01:00</time>
      </trkpt>
      <trkpt lat="43.6783" lon="4.08565">
        <ele>76.364093519035</ele>
        <time>2020-11-25T15:36:24.999+01:00</time>
      </trkpt>
      <trkpt lat="43.6783" lon="4.08565">
        <ele>76.361993833533</ele>
        <time>2020-11-25T15:36:25.999+01:00</time>
      </trkpt>
      <trkpt lat="43.6783" lon="4.08565">
        <ele>76.340912864362</ele>
        <time>2020-11-25T15:36:26.999+01:00</time>
      </trkpt>
      <trkpt lat="43.67831" lon="4.08565">
        <ele>76.320006614123</ele>
        <time>2020-11-25T15:36:27.999+01:00</time>
      </trkpt>
      <trkpt lat="43.67831" lon="4.08564">
        <ele>76.299513637561</ele>
        <time>2020-11-25T15:36:28.999+01:00</time>
      </trkpt>
      <trkpt lat="43.6783" lon="4.08562">
        <ele>76.279518603461</ele>
        <time>2020-11-25T15:36:29.999+01:00</time>
      </trkpt>
      <trkpt lat="43.6783" lon="4.08561">
        <ele>76.259903742865</ele>
        <time>2020-11-25T15:36:30.999+01:00</time>
      </trkpt>
      <trkpt lat="43.6783" lon="4.08559">
        <ele>76.240585244377</ele>
        <time>2020-11-25T15:36:31.999+01:00</time>
      </trkpt>
      <trkpt lat="43.6783" lon="4.08557">
        <ele>76.221464219638</ele>
        <time>2020-11-25T15:36:32.999+01:00</time>
      </trkpt>
      <trkpt lat="43.67829" lon="4.08555">
        <ele>76.202457473837</ele>
        <time>2020-11-25T15:36:33.999+01:00</time>
      </trkpt>
      <trkpt lat="43.67829" lon="4.08554">
        <ele>76.183511379083</ele>
        <time>2020-11-25T15:36:34.999+01:00</time>
      </trkpt>
      <trkpt lat="43.67829" lon="4.08552">
        <ele>76.164486183482</ele>
        <time>2020-11-25T15:36:35.999+01:00</time>
      </trkpt>
      <trkpt lat="43.67829" lon="4.08551">
        <ele>76.145459237004</ele>
        <time>2020-11-25T15:36:36.999+01:00</time>
      </trkpt>
      <trkpt lat="43.67828" lon="4.08549">
        <ele>76.126399077681</ele>
        <time>2020-11-25T15:36:37.999+01:00</time>
      </trkpt>
      <trkpt lat="43.67827" lon="4.08548">
        <ele>76.10748811769</ele>
        <time>2020-11-25T15:36:38.999+01:00</time>
      </trkpt>
      <trkpt lat="43.67827" lon="4.08547">
        <ele>76.08850553144</ele>
        <time>2020-11-25T15:36:39.999+01:00</time>
      </trkpt>
      <trkpt lat="43.67826" lon="4.08545">
        <ele>76.069553416176</ele>
        <time>2020-11-25T15:36:40.999+01:00</time>
      </trkpt>
      <trkpt lat="43.67826" lon="4.08544">
        <ele>76.050632413163</ele>
        <time>2020-11-25T15:36:41.999+01:00</time>
      </trkpt>
      <trkpt lat="43.67826" lon="4.08543">
        <ele>76.031788182132</ele>
        <time>2020-11-25T15:36:42.999+01:00</time>
      </trkpt>
      <trkpt lat="43.67826" lon="4.08542">
        <ele>76.013265510235</ele>
        <time>2020-11-25T15:36:43.999+01:00</time>
      </trkpt>
      <trkpt lat="43.67825" lon="4.0854">
        <ele>75.995062493528</ele>
        <time>2020-11-25T15:36:44.999+01:00</time>
      </trkpt>
      <trkpt lat="43.67825" lon="4.08538">
        <ele>75.977198293383</ele>
        <time>2020-11-25T15:36:45.999+01:00</time>
      </trkpt>
      <trkpt lat="43.67824" lon="4.08537">
        <ele>75.959125929792</ele>
        <time>2020-11-25T15:36:46.999+01:00</time>
      </trkpt>
      <trkpt lat="43.67824" lon="4.08535">
        <ele>75.940762530551</ele>
        <time>2020-11-25T15:36:47.999+01:00</time>
      </trkpt>
      <trkpt lat="43.67824" lon="4.08533">
        <ele>75.922715119778</ele>
        <time>2020-11-25T15:36:48.999+01:00</time>
      </trkpt>
      <trkpt lat="43.67823" lon="4.08531">
        <ele>75.904997118736</ele>
        <time>2020-11-25T15:36:49.999+01:00</time>
      </trkpt>
      <trkpt lat="43.67823" lon="4.08529">
        <ele>75.887497966568</ele>
        <time>2020-11-25T15:36:50.999+01:00</time>
      </trkpt>
      <trkpt lat="43.67823" lon="4.08527">
        <ele>75.869770607846</ele>
        <time>2020-11-25T15:36:51.999+01:00</time>
      </trkpt>
      <trkpt lat="43.67822" lon="4.08525">
        <ele>75.852166405069</ele>
        <time>2020-11-25T15:36:52.999+01:00</time>
      </trkpt>
      <trkpt lat="43.67822" lon="4.08524">
        <ele>75.834695226718</ele>
        <time>2020-11-25T15:36:53.999+01:00</time>
      </trkpt>
      <trkpt lat="43.67822" lon="4.08522">
        <ele>75.81728750123</ele>
        <time>2020-11-25T15:36:54.999+01:00</time>
      </trkpt>
      <trkpt lat="43.67822" lon="4.08521">
        <ele>75.799803702865</ele>
        <time>2020-11-25T15:36:55.999+01:00</time>
      </trkpt>
      <trkpt lat="43.67822" lon="4.08519">
        <ele>75.78252325078</ele>
        <time>2020-11-25T15:36:56.999+01:00</time>
      </trkpt>
      <trkpt lat="43.67821" lon="4.08518">
        <ele>75.765475625592</ele>
        <time>2020-11-25T15:36:57.999+01:00</time>
      </trkpt>
      <trkpt lat="43.67821" lon="4.08516">
        <ele>75.748627931936</ele>
        <time>2020-11-25T15:36:58.999+01:00</time>
      </trkpt>
      <trkpt lat="43.67821" lon="4.08515">
        <ele>75.732038695208</ele>
        <time>2020-11-25T15:36:59.999+01:00</time>
      </trkpt>
      <trkpt lat="43.67821" lon="4.08513">
        <ele>75.715835824149</ele>
        <time>2020-11-25T15:37:00.999+01:00</time>
      </trkpt>
      <trkpt lat="43.67821" lon="4.08511">
        <ele>75.699908164838</ele>
        <time>2020-11-25T15:37:01.999+01:00</time>
      </trkpt>
      <trkpt lat="43.6782" lon="4.08509">
        <ele>75.684255098857</ele>
        <time>2020-11-25T15:37:02.999+01:00</time>
      </trkpt>
      <trkpt lat="43.6782" lon="4.08508">
        <ele>75.668863900216</ele>
        <time>2020-11-25T15:37:03.999+01:00</time>
      </trkpt>
      <trkpt lat="43.6782" lon="4.08507">
        <ele>75.653715869299</ele>
        <time>2020-11-25T15:37:04.999+01:00</time>
      </trkpt>
      <trkpt lat="43.67819" lon="4.08506">
        <ele>75.638791767011</ele>
        <time>2020-11-25T15:37:05.999+01:00</time>
      </trkpt>
      <trkpt lat="43.67819" lon="4.08505">
        <ele>75.624140699807</ele>
        <time>2020-11-25T15:37:06.999+01:00</time>
      </trkpt>
      <trkpt lat="43.67819" lon="4.08504">
        <ele>75.609727979723</ele>
        <time>2020-11-25T15:37:07.999+01:00</time>
      </trkpt>
      <trkpt lat="43.67819" lon="4.08503">
        <ele>75.595492324582</ele>
        <time>2020-11-25T15:37:08.999+01:00</time>
      </trkpt>
      <trkpt lat="43.67819" lon="4.08501">
        <ele>75.581349752944</ele>
        <time>2020-11-25T15:37:09.999+01:00</time>
      </trkpt>
      <trkpt lat="43.67819" lon="4.085">
        <ele>75.567295307387</ele>
        <time>2020-11-25T15:37:10.999+01:00</time>
      </trkpt>
      <trkpt lat="43.67818" lon="4.08499">
        <ele>75.553355658602</ele>
        <time>2020-11-25T15:37:11.999+01:00</time>
      </trkpt>
      <trkpt lat="43.67818" lon="4.08497">
        <ele>75.539658828915</ele>
        <time>2020-11-25T15:37:12.999+01:00</time>
      </trkpt>
      <trkpt lat="43.67818" lon="4.08496">
        <ele>75.526161548459</ele>
        <time>2020-11-25T15:37:13.999+01:00</time>
      </trkpt>
      <trkpt lat="43.67818" lon="4.08496">
        <ele>75.512786000353</ele>
        <time>2020-11-25T15:37:14.999+01:00</time>
      </trkpt>
      <trkpt lat="43.67818" lon="4.08495">
        <ele>75.499342780842</ele>
        <time>2020-11-25T15:37:15.999+01:00</time>
      </trkpt>
      <trkpt lat="43.67817" lon="4.08494">
        <ele>75.485802523564</ele>
        <time>2020-11-25T15:37:16.999+01:00</time>
      </trkpt>
      <trkpt lat="43.67817" lon="4.08492">
        <ele>75.472524478257</ele>
        <time>2020-11-25T15:37:17.999+01:00</time>
      </trkpt>
      <trkpt lat="43.67816" lon="4.0849">
        <ele>75.459322119555</ele>
        <time>2020-11-25T15:37:18.999+01:00</time>
      </trkpt>
      <trkpt lat="43.67816" lon="4.08488">
        <ele>75.446195650745</ele>
        <time>2020-11-25T15:37:19.999+01:00</time>
      </trkpt>
      <trkpt lat="43.67815" lon="4.08487">
        <ele>75.433067917624</ele>
        <time>2020-11-25T15:37:20.999+01:00</time>
      </trkpt>
      <trkpt lat="43.67815" lon="4.08485">
        <ele>75.419931216807</ele>
        <time>2020-11-25T15:37:21.999+01:00</time>
      </trkpt>
      <trkpt lat="43.67814" lon="4.08485">
        <ele>75.40655807787</ele>
        <time>2020-11-25T15:37:22.999+01:00</time>
      </trkpt>
      <trkpt lat="43.67814" lon="4.08484">
        <ele>75.393328968616</ele>
        <time>2020-11-25T15:37:23.999+01:00</time>
      </trkpt>
      <trkpt lat="43.67814" lon="4.08482">
        <ele>75.380198168383</ele>
        <time>2020-11-25T15:37:24.999+01:00</time>
      </trkpt>
      <trkpt lat="43.67814" lon="4.08481">
        <ele>75.367242091276</ele>
        <time>2020-11-25T15:37:25.999+01:00</time>
      </trkpt>
      <trkpt lat="43.67814" lon="4.0848">
        <ele>75.354437866545</ele>
        <time>2020-11-25T15:37:26.999+01:00</time>
      </trkpt>
      <trkpt lat="43.67813" lon="4.08478">
        <ele>75.341772874458</ele>
        <time>2020-11-25T15:37:27.999+01:00</time>
      </trkpt>
      <trkpt lat="43.67813" lon="4.08477">
        <ele>75.329191698333</ele>
        <time>2020-11-25T15:37:28.999+01:00</time>
      </trkpt>
      <trkpt lat="43.67812" lon="4.08475">
        <ele>75.316704232067</ele>
        <time>2020-11-25T15:37:29.999+01:00</time>
      </trkpt>
      <trkpt lat="43.67812" lon="4.08473">
        <ele>75.304384292743</ele>
        <time>2020-11-25T15:37:30.999+01:00</time>
      </trkpt>
      <trkpt lat="43.67811" lon="4.08472">
        <ele>75.292072721006</ele>
        <time>2020-11-25T15:37:31.999+01:00</time>
      </trkpt>
      <trkpt lat="43.67811" lon="4.08471">
        <ele>75.279835332124</ele>
        <time>2020-11-25T15:37:32.999+01:00</time>
      </trkpt>
      <trkpt lat="43.6781" lon="4.0847">
        <ele>75.267604603672</ele>
        <time>2020-11-25T15:37:33.999+01:00</time>
      </trkpt>
      <trkpt lat="43.6781" lon="4.08469">
        <ele>75.255459034217</ele>
        <time>2020-11-25T15:37:34.999+01:00</time>
      </trkpt>
      <trkpt lat="43.67809" lon="4.08467">
        <ele>75.243586234284</ele>
        <time>2020-11-25T15:37:35.999+01:00</time>
      </trkpt>
      <trkpt lat="43.67809" lon="4.08465">
        <ele>75.231888857953</ele>
        <time>2020-11-25T15:37:36.999+01:00</time>
      </trkpt>
      <trkpt lat="43.67808" lon="4.08464">
        <ele>75.220400579305</ele>
        <time>2020-11-25T15:37:37.999+01:00</time>
      </trkpt>
      <trkpt lat="43.67807" lon="4.08463">
        <ele>75.208808467183</ele>
        <time>2020-11-25T15:37:38.999+01:00</time>
      </trkpt>
      <trkpt lat="43.67806" lon="4.08461">
        <ele>75.19712160178</ele>
        <time>2020-11-25T15:37:39.999+01:00</time>
      </trkpt>
      <trkpt lat="43.67806" lon="4.0846">
        <ele>75.185402339739</ele>
        <time>2020-11-25T15:37:40.999+01:00</time>
      </trkpt>
      <trkpt lat="43.67805" lon="4.08459">
        <ele>75.173566904013</ele>
        <time>2020-11-25T15:37:41.999+01:00</time>
      </trkpt>
      <trkpt lat="43.67805" lon="4.08458">
        <ele>75.161617461908</ele>
        <time>2020-11-25T15:37:42.999+01:00</time>
      </trkpt>
      <trkpt lat="43.67804" lon="4.08457">
        <ele>75.149673763554</ele>
        <time>2020-11-25T15:37:43.999+01:00</time>
      </trkpt>
      <trkpt lat="43.67803" lon="4.08455">
        <ele>75.13771971197</ele>
        <time>2020-11-25T15:37:44.999+01:00</time>
      </trkpt>
      <trkpt lat="43.67802" lon="4.08454">
        <ele>75.125609336778</ele>
        <time>2020-11-25T15:37:45.999+01:00</time>
      </trkpt>
      <trkpt lat="43.67802" lon="4.08453">
        <ele>75.113300596775</ele>
        <time>2020-11-25T15:37:46.999+01:00</time>
      </trkpt>
      <trkpt lat="43.67801" lon="4.08451">
        <ele>75.101087647779</ele>
        <time>2020-11-25T15:37:47.999+01:00</time>
      </trkpt>
      <trkpt lat="43.678" lon="4.08449">
        <ele>75.088890061105</ele>
        <time>2020-11-25T15:37:48.999+01:00</time>
      </trkpt>
      <trkpt lat="43.678" lon="4.08448">
        <ele>75.076709602103</ele>
        <time>2020-11-25T15:37:49.999+01:00</time>
      </trkpt>
      <trkpt lat="43.67799" lon="4.08447">
        <ele>75.064512434312</ele>
        <time>2020-11-25T15:37:50.999+01:00</time>
      </trkpt>
      <trkpt lat="43.67799" lon="4.08445">
        <ele>75.052141057205</ele>
        <time>2020-11-25T15:37:51.999+01:00</time>
      </trkpt>
      <trkpt lat="43.67798" lon="4.08444">
        <ele>75.039715815991</ele>
        <time>2020-11-25T15:37:52.999+01:00</time>
      </trkpt>
      <trkpt lat="43.67798" lon="4.08443">
        <ele>75.027303978091</ele>
        <time>2020-11-25T15:37:53.999+01:00</time>
      </trkpt>
      <trkpt lat="43.67797" lon="4.08441">
        <ele>75.014895286959</ele>
        <time>2020-11-25T15:37:54.999+01:00</time>
      </trkpt>
      <trkpt lat="43.67797" lon="4.0844">
        <ele>75.002439880605</ele>
        <time>2020-11-25T15:37:55.999+01:00</time>
      </trkpt>
      <trkpt lat="43.67796" lon="4.08439">
        <ele>74.989990601119</ele>
        <time>2020-11-25T15:37:56.999+01:00</time>
      </trkpt>
      <trkpt lat="43.67796" lon="4.08438">
        <ele>74.977455237352</ele>
        <time>2020-11-25T15:37:57.999+01:00</time>
      </trkpt>
      <trkpt lat="43.67795" lon="4.08437">
        <ele>74.96493555582</ele>
        <time>2020-11-25T15:37:58.999+01:00</time>
      </trkpt>
      <trkpt lat="43.67795" lon="4.08436">
        <ele>74.952450362133</ele>
        <time>2020-11-25T15:37:59.999+01:00</time>
      </trkpt>
      <trkpt lat="43.67794" lon="4.08435">
        <ele>74.939980834392</ele>
        <time>2020-11-25T15:38:00.999+01:00</time>
      </trkpt>
      <trkpt lat="43.67794" lon="4.08434">
        <ele>74.927495417244</ele>
        <time>2020-11-25T15:38:01.999+01:00</time>
      </trkpt>
      <trkpt lat="43.67793" lon="4.08434">
        <ele>74.915142024937</ele>
        <time>2020-11-25T15:38:02.999+01:00</time>
      </trkpt>
      <trkpt lat="43.67793" lon="4.08433">
        <ele>74.902965016084</ele>
        <time>2020-11-25T15:38:03.999+01:00</time>
      </trkpt>
      <trkpt lat="43.67792" lon="4.08433">
        <ele>74.890909554298</ele>
        <time>2020-11-25T15:38:04.999+01:00</time>
      </trkpt>
      <trkpt lat="43.67791" lon="4.08432">
        <ele>74.879065390315</ele>
        <time>2020-11-25T15:38:05.999+01:00</time>
      </trkpt>
      <trkpt lat="43.6779" lon="4.08432">
        <ele>74.867316569972</ele>
        <time>2020-11-25T15:38:06.999+01:00</time>
      </trkpt>
      <trkpt lat="43.67789" lon="4.08432">
        <ele>74.855670327051</ele>
        <time>2020-11-25T15:38:07.999+01:00</time>
      </trkpt>
      <trkpt lat="43.67789" lon="4.08431">
        <ele>74.844166821253</ele>
        <time>2020-11-25T15:38:08.999+01:00</time>
      </trkpt>
      <trkpt lat="43.67787" lon="4.08431">
        <ele>74.832742726406</ele>
        <time>2020-11-25T15:38:09.999+01:00</time>
      </trkpt>
      <trkpt lat="43.67786" lon="4.08432">
        <ele>74.821653017375</ele>
        <time>2020-11-25T15:38:10.999+01:00</time>
      </trkpt>
      <trkpt lat="43.67785" lon="4.08432">
        <ele>74.810866551734</ele>
        <time>2020-11-25T15:38:11.999+01:00</time>
      </trkpt>
      <trkpt lat="43.67784" lon="4.08433">
        <ele>74.800483251695</ele>
        <time>2020-11-25T15:38:12.999+01:00</time>
      </trkpt>
      <trkpt lat="43.67783" lon="4.08433">
        <ele>74.79039785482</ele>
        <time>2020-11-25T15:38:13.999+01:00</time>
      </trkpt>
      <trkpt lat="43.67782" lon="4.08434">
        <ele>74.780501719783</ele>
        <time>2020-11-25T15:38:14.999+01:00</time>
      </trkpt>
      <trkpt lat="43.6778" lon="4.08436">
        <ele>74.770703736996</ele>
        <time>2020-11-25T15:38:15.999+01:00</time>
      </trkpt>
      <trkpt lat="43.67779" lon="4.08437">
        <ele>74.761105728936</ele>
        <time>2020-11-25T15:38:16.999+01:00</time>
      </trkpt>
      <trkpt lat="43.67778" lon="4.08438">
        <ele>74.751606002018</ele>
        <time>2020-11-25T15:38:17.999+01:00</time>
      </trkpt>
      <trkpt lat="43.67777" lon="4.08439">
        <ele>74.742106583003</ele>
        <time>2020-11-25T15:38:18.999+01:00</time>
      </trkpt>
      <trkpt lat="43.67776" lon="4.08439">
        <ele>74.73256665651</ele>
        <time>2020-11-25T15:38:19.999+01:00</time>
      </trkpt>
      <trkpt lat="43.67775" lon="4.0844">
        <ele>74.72285309895</ele>
        <time>2020-11-25T15:38:20.999+01:00</time>
      </trkpt>
      <trkpt lat="43.67774" lon="4.0844">
        <ele>74.713047586423</ele>
        <time>2020-11-25T15:38:21.999+01:00</time>
      </trkpt>
      <trkpt lat="43.67773" lon="4.08441">
        <ele>74.703199446654</ele>
        <time>2020-11-25T15:38:22.999+01:00</time>
      </trkpt>
      <trkpt lat="43.67772" lon="4.08441">
        <ele>74.69343483939</ele>
        <time>2020-11-25T15:38:23.999+01:00</time>
      </trkpt>
      <trkpt lat="43.67771" lon="4.08443">
        <ele>74.683715745178</ele>
        <time>2020-11-25T15:38:24.999+01:00</time>
      </trkpt>
      <trkpt lat="43.6777" lon="4.08444">
        <ele>74.674094769148</ele>
        <time>2020-11-25T15:38:25.999+01:00</time>
      </trkpt>
      <trkpt lat="43.67769" lon="4.08446">
        <ele>74.664547476153</ele>
        <time>2020-11-25T15:38:26.999+01:00</time>
      </trkpt>
      <trkpt lat="43.67768" lon="4.08447">
        <ele>74.65505797485</ele>
        <time>2020-11-25T15:38:27.999+01:00</time>
      </trkpt>
      <trkpt lat="43.67767" lon="4.08448">
        <ele>74.645513214903</ele>
        <time>2020-11-25T15:38:28.999+01:00</time>
      </trkpt>
      <trkpt lat="43.67766" lon="4.08449">
        <ele>74.635931840391</ele>
        <time>2020-11-25T15:38:29.999+01:00</time>
      </trkpt>
      <trkpt lat="43.67765" lon="4.0845">
        <ele>74.626449383975</ele>
        <time>2020-11-25T15:38:30.999+01:00</time>
      </trkpt>
      <trkpt lat="43.67763" lon="4.0845">
        <ele>74.616924227281</ele>
        <time>2020-11-25T15:38:31.999+01:00</time>
      </trkpt>
      <trkpt lat="43.67762" lon="4.0845">
        <ele>74.60738923843</ele>
        <time>2020-11-25T15:38:32.999+01:00</time>
      </trkpt>
      <trkpt lat="43.67761" lon="4.08451">
        <ele>74.597737885523</ele>
        <time>2020-11-25T15:38:33.999+01:00</time>
      </trkpt>
      <trkpt lat="43.6776" lon="4.08451">
        <ele>74.587937039192</ele>
        <time>2020-11-25T15:38:34.999+01:00</time>
      </trkpt>
      <trkpt lat="43.67759" lon="4.08451">
        <ele>74.578103204508</ele>
        <time>2020-11-25T15:38:35.999+01:00</time>
      </trkpt>
      <trkpt lat="43.67758" lon="4.08451">
        <ele>74.568292972187</ele>
        <time>2020-11-25T15:38:36.999+01:00</time>
      </trkpt>
      <trkpt lat="43.67757" lon="4.08451">
        <ele>74.558530603955</ele>
        <time>2020-11-25T15:38:37.999+01:00</time>
      </trkpt>
      <trkpt lat="43.67756" lon="4.08452">
        <ele>74.548733857071</ele>
        <time>2020-11-25T15:38:38.999+01:00</time>
      </trkpt>
      <trkpt lat="43.67755" lon="4.08452">
        <ele>74.538930981604</ele>
        <time>2020-11-25T15:38:39.999+01:00</time>
      </trkpt>
      <trkpt lat="43.67754" lon="4.08453">
        <ele>74.52902134399</ele>
        <time>2020-11-25T15:38:40.999+01:00</time>
      </trkpt>
      <trkpt lat="43.67753" lon="4.08453">
        <ele>74.518923555432</ele>
        <time>2020-11-25T15:38:41.999+01:00</time>
      </trkpt>
      <trkpt lat="43.67752" lon="4.08454">
        <ele>74.508657816643</ele>
        <time>2020-11-25T15:38:42.999+01:00</time>
      </trkpt>
      <trkpt lat="43.67751" lon="4.08455">
        <ele>74.498283665692</ele>
        <time>2020-11-25T15:38:43.999+01:00</time>
      </trkpt>
      <trkpt lat="43.6775" lon="4.08456">
        <ele>74.487818171039</ele>
        <time>2020-11-25T15:38:44.999+01:00</time>
      </trkpt>
      <trkpt lat="43.67749" lon="4.08457">
        <ele>74.477493569582</ele>
        <time>2020-11-25T15:38:45.999+01:00</time>
      </trkpt>
      <trkpt lat="43.67748" lon="4.08458">
        <ele>74.467457141553</ele>
        <time>2020-11-25T15:38:46.999+01:00</time>
      </trkpt>
      <trkpt lat="43.67747" lon="4.08459">
        <ele>74.457520747873</ele>
        <time>2020-11-25T15:38:47.999+01:00</time>
      </trkpt>
      <trkpt lat="43.67746" lon="4.0846">
        <ele>74.447843826647</ele>
        <time>2020-11-25T15:38:48.999+01:00</time>
      </trkpt>
      <trkpt lat="43.67745" lon="4.08461">
        <ele>74.438369135302</ele>
        <time>2020-11-25T15:38:49.999+01:00</time>
      </trkpt>
      <trkpt lat="43.67744" lon="4.08462">
        <ele>74.428945108199</ele>
        <time>2020-11-25T15:38:50.999+01:00</time>
      </trkpt>
      <trkpt lat="43.67742" lon="4.08462">
        <ele>74.419432364477</ele>
        <time>2020-11-25T15:38:51.999+01:00</time>
      </trkpt>
      <trkpt lat="43.67741" lon="4.08463">
        <ele>74.40992440023</ele>
        <time>2020-11-25T15:38:52.999+01:00</time>
      </trkpt>
      <trkpt lat="43.6774" lon="4.08463">
        <ele>74.400403379072</ele>
        <time>2020-11-25T15:38:53.999+01:00</time>
      </trkpt>
      <trkpt lat="43.6774" lon="4.08463">
        <ele>74.39091994715</ele>
        <time>2020-11-25T15:38:54.999+01:00</time>
      </trkpt>
      <trkpt lat="43.67739" lon="4.08464">
        <ele>74.381518431132</ele>
        <time>2020-11-25T15:38:55.999+01:00</time>
      </trkpt>
      <trkpt lat="43.67738" lon="4.08464">
        <ele>74.372247463922</ele>
        <time>2020-11-25T15:38:56.999+01:00</time>
      </trkpt>
      <trkpt lat="43.67737" lon="4.08464">
        <ele>74.363089414801</ele>
        <time>2020-11-25T15:38:57.999+01:00</time>
      </trkpt>
      <trkpt lat="43.67736" lon="4.08465">
        <ele>74.354147939914</ele>
        <time>2020-11-25T15:38:58.999+01:00</time>
      </trkpt>
      <trkpt lat="43.67735" lon="4.08466">
        <ele>74.345406577448</ele>
        <time>2020-11-25T15:38:59.999+01:00</time>
      </trkpt>
      <trkpt lat="43.67734" lon="4.08467">
        <ele>74.336684753358</ele>
        <time>2020-11-25T15:39:00.999+01:00</time>
      </trkpt>
      <trkpt lat="43.67733" lon="4.08468">
        <ele>74.327862123074</ele>
        <time>2020-11-25T15:39:01.999+01:00</time>
      </trkpt>
      <trkpt lat="43.67732" lon="4.08468">
        <ele>74.318904778968</ele>
        <time>2020-11-25T15:39:02.999+01:00</time>
      </trkpt>
      <trkpt lat="43.67731" lon="4.08469">
        <ele>74.309891284173</ele>
        <time>2020-11-25T15:39:03.999+01:00</time>
      </trkpt>
      <trkpt lat="43.6773" lon="4.0847">
        <ele>74.300857329201</ele>
        <time>2020-11-25T15:39:04.999+01:00</time>
      </trkpt>
      <trkpt lat="43.67729" lon="4.08471">
        <ele>74.291739199492</ele>
        <time>2020-11-25T15:39:05.999+01:00</time>
      </trkpt>
      <trkpt lat="43.67728" lon="4.08472">
        <ele>74.282621922938</ele>
        <time>2020-11-25T15:39:06.999+01:00</time>
      </trkpt>
      <trkpt lat="43.67727" lon="4.08473">
        <ele>74.273655713816</ele>
        <time>2020-11-25T15:39:07.999+01:00</time>
      </trkpt>
      <trkpt lat="43.67726" lon="4.08474">
        <ele>74.264684323039</ele>
        <time>2020-11-25T15:39:08.999+01:00</time>
      </trkpt>
      <trkpt lat="43.67725" lon="4.08476">
        <ele>74.255843754026</ele>
        <time>2020-11-25T15:39:09.999+01:00</time>
      </trkpt>
      <trkpt lat="43.67725" lon="4.08476">
        <ele>74.246949224488</ele>
        <time>2020-11-25T15:39:10.999+01:00</time>
      </trkpt>
      <trkpt lat="43.67725" lon="4.08477">
        <ele>74.237953832468</ele>
        <time>2020-11-25T15:39:11.999+01:00</time>
      </trkpt>
      <trkpt lat="43.67725" lon="4.08478">
        <ele>74.228904617573</ele>
        <time>2020-11-25T15:39:12.999+01:00</time>
      </trkpt>
      <trkpt lat="43.67724" lon="4.0848">
        <ele>74.219905256123</ele>
        <time>2020-11-25T15:39:13.999+01:00</time>
      </trkpt>
      <trkpt lat="43.67724" lon="4.08481">
        <ele>74.210954076992</ele>
        <time>2020-11-25T15:39:14.999+01:00</time>
      </trkpt>
      <trkpt lat="43.67724" lon="4.08482">
        <ele>74.201925909273</ele>
        <time>2020-11-25T15:39:15.999+01:00</time>
      </trkpt>
      <trkpt lat="43.67723" lon="4.08484">
        <ele>74.192975167642</ele>
        <time>2020-11-25T15:39:16.999+01:00</time>
      </trkpt>
      <trkpt lat="43.67723" lon="4.08486">
        <ele>74.183961983154</ele>
        <time>2020-11-25T15:39:17.999+01:00</time>
      </trkpt>
      <trkpt lat="43.67722" lon="4.08487">
        <ele>74.17492522907</ele>
        <time>2020-11-25T15:39:18.999+01:00</time>
      </trkpt>
      <trkpt lat="43.67722" lon="4.08488">
        <ele>74.166004437303</ele>
        <time>2020-11-25T15:39:19.999+01:00</time>
      </trkpt>
      <trkpt lat="43.67721" lon="4.08489">
        <ele>74.157138476238</ele>
        <time>2020-11-25T15:39:20.999+01:00</time>
      </trkpt>
      <trkpt lat="43.67721" lon="4.0849">
        <ele>74.148162091005</ele>
        <time>2020-11-25T15:39:21.999+01:00</time>
      </trkpt>
      <trkpt lat="43.67721" lon="4.08492">
        <ele>74.139200434235</ele>
        <time>2020-11-25T15:39:22.999+01:00</time>
      </trkpt>
      <trkpt lat="43.6772" lon="4.08492">
        <ele>74.130243049953</ele>
        <time>2020-11-25T15:39:23.999+01:00</time>
      </trkpt>
      <trkpt lat="43.6772" lon="4.08494">
        <ele>74.12148749601</ele>
        <time>2020-11-25T15:39:24.999+01:00</time>
      </trkpt>
      <trkpt lat="43.67719" lon="4.08495">
        <ele>74.112877069542</ele>
        <time>2020-11-25T15:39:25.999+01:00</time>
      </trkpt>
      <trkpt lat="43.67719" lon="4.08496">
        <ele>74.104397293396</ele>
        <time>2020-11-25T15:39:26.999+01:00</time>
      </trkpt>
      <trkpt lat="43.67718" lon="4.08497">
        <ele>74.095970307535</ele>
        <time>2020-11-25T15:39:27.999+01:00</time>
      </trkpt>
      <trkpt lat="43.67717" lon="4.08498">
        <ele>74.087584421541</ele>
        <time>2020-11-25T15:39:28.999+01:00</time>
      </trkpt>
      <trkpt lat="43.67716" lon="4.08499">
        <ele>74.079194809834</ele>
        <time>2020-11-25T15:39:29.999+01:00</time>
      </trkpt>
      <trkpt lat="43.67715" lon="4.085">
        <ele>74.070742068489</ele>
        <time>2020-11-25T15:39:30.999+01:00</time>
      </trkpt>
      <trkpt lat="43.67714" lon="4.08501">
        <ele>74.062124328284</ele>
        <time>2020-11-25T15:39:31.999+01:00</time>
      </trkpt>
      <trkpt lat="43.67714" lon="4.08501">
        <ele>74.053287039819</ele>
        <time>2020-11-25T15:39:32.999+01:00</time>
      </trkpt>
      <trkpt lat="43.67713" lon="4.08502">
        <ele>74.044198013272</ele>
        <time>2020-11-25T15:39:33.999+01:00</time>
      </trkpt>
      <trkpt lat="43.67712" lon="4.08502">
        <ele>74.035003027275</ele>
        <time>2020-11-25T15:39:34.999+01:00</time>
      </trkpt>
      <trkpt lat="43.67711" lon="4.08503">
        <ele>74.025725211052</ele>
        <time>2020-11-25T15:39:35.999+01:00</time>
      </trkpt>
      <trkpt lat="43.6771" lon="4.08504">
        <ele>74.016194668024</ele>
        <time>2020-11-25T15:39:36.999+01:00</time>
      </trkpt>
      <trkpt lat="43.67709" lon="4.08504">
        <ele>74.006449628691</ele>
        <time>2020-11-25T15:39:37.999+01:00</time>
      </trkpt>
      <trkpt lat="43.67709" lon="4.08505">
        <ele>73.996517163754</ele>
        <time>2020-11-25T15:39:38.999+01:00</time>
      </trkpt>
      <trkpt lat="43.67707" lon="4.08507">
        <ele>73.986267485519</ele>
        <time>2020-11-25T15:39:39.999+01:00</time>
      </trkpt>
      <trkpt lat="43.67706" lon="4.08508">
        <ele>73.975882412682</ele>
        <time>2020-11-25T15:39:40.999+01:00</time>
      </trkpt>
      <trkpt lat="43.67704" lon="4.0851">
        <ele>73.965510404413</ele>
        <time>2020-11-25T15:39:41.999+01:00</time>
      </trkpt>
      <trkpt lat="43.67703" lon="4.08511">
        <ele>73.955016394632</ele>
        <time>2020-11-25T15:39:42.999+01:00</time>
      </trkpt>
      <trkpt lat="43.67702" lon="4.08512">
        <ele>73.944388456123</ele>
        <time>2020-11-25T15:39:43.999+01:00</time>
      </trkpt>
      <trkpt lat="43.67701" lon="4.08513">
        <ele>73.933760398826</ele>
        <time>2020-11-25T15:39:44.999+01:00</time>
      </trkpt>
      <trkpt lat="43.677" lon="4.08514">
        <ele>73.923191411502</ele>
        <time>2020-11-25T15:39:45.999+01:00</time>
      </trkpt>
      <trkpt lat="43.67699" lon="4.08515">
        <ele>73.912825521114</ele>
        <time>2020-11-25T15:39:46.999+01:00</time>
      </trkpt>
      <trkpt lat="43.67699" lon="4.08516">
        <ele>73.902378818615</ele>
        <time>2020-11-25T15:39:47.999+01:00</time>
      </trkpt>
      <trkpt lat="43.67698" lon="4.08517">
        <ele>73.891763134016</ele>
        <time>2020-11-25T15:39:48.999+01:00</time>
      </trkpt>
      <trkpt lat="43.67698" lon="4.08519">
        <ele>73.880963091186</ele>
        <time>2020-11-25T15:39:49.999+01:00</time>
      </trkpt>
      <trkpt lat="43.67698" lon="4.0852">
        <ele>73.870018228383</ele>
        <time>2020-11-25T15:39:50.999+01:00</time>
      </trkpt>
      <trkpt lat="43.67698" lon="4.08521">
        <ele>73.858865607601</ele>
        <time>2020-11-25T15:39:51.999+01:00</time>
      </trkpt>
      <trkpt lat="43.67698" lon="4.08522">
        <ele>73.847539076105</ele>
        <time>2020-11-25T15:39:52.999+01:00</time>
      </trkpt>
      <trkpt lat="43.67698" lon="4.08523">
        <ele>73.836053166518</ele>
        <time>2020-11-25T15:39:53.999+01:00</time>
      </trkpt>
      <trkpt lat="43.67699" lon="4.08524">
        <ele>73.824550718993</ele>
        <time>2020-11-25T15:39:54.999+01:00</time>
      </trkpt>
      <trkpt lat="43.67699" lon="4.08525">
        <ele>73.813078427475</ele>
        <time>2020-11-25T15:39:55.999+01:00</time>
      </trkpt>
      <trkpt lat="43.67699" lon="4.08527">
        <ele>73.801602553739</ele>
        <time>2020-11-25T15:39:56.999+01:00</time>
      </trkpt>
      <trkpt lat="43.67699" lon="4.08528">
        <ele>73.79014150657</ele>
        <time>2020-11-25T15:39:57.999+01:00</time>
      </trkpt>
      <trkpt lat="43.67699" lon="4.0853">
        <ele>73.77873379506</ele>
        <time>2020-11-25T15:39:58.999+01:00</time>
      </trkpt>
      <trkpt lat="43.67699" lon="4.08531">
        <ele>73.767305578639</ele>
        <time>2020-11-25T15:39:59.999+01:00</time>
      </trkpt>
    </trkseg>
  </trk>
</gpx>